<?xml version="1.0" encoding="UTF-8" standalone="no" ?><gpx xmlns="http://www.topografix.com/GPX/1/1" xmlns:gpxx="http://www.garmin.com/xmlschemas/GpxExtensions/v3" xmlns:gpxtrkx="http://www.garmin.com/xmlschemas/TrackStatsExtension/v1" xmlns:wptx1="http://www.garmin.com/xmlschemas/WaypointExtension/v1" xmlns:gpxtpx="http://www.garmin.com/xmlschemas/TrackPointExtension/v1" creator="GPSMAP 62s" version="1.1" xmlns:xsi="http://www.w3.org/2001/XMLSchema-instance" xsi:schemaLocation="http://www.topografix.com/GPX/1/1 http://www.topografix.com/GPX/1/1/gpx.xsd http://www.garmin.com/xmlschemas/GpxExtensions/v3 http://www8.garmin.com/xmlschemas/GpxExtensionsv3.xsd http://www.garmin.com/xmlschemas/TrackStatsExtension/v1 http://www8.garmin.com/xmlschemas/TrackStatsExtension.xsd http://www.garmin.com/xmlschemas/WaypointExtension/v1 http://www8.garmin.com/xmlschemas/WaypointExtensionv1.xsd http://www.garmin.com/xmlschemas/TrackPointExtension/v1 http://www.garmin.com/xmlschemas/TrackPointExtensionv1.xsd"><metadata><link href="http://www.garmin.com"><text>Garmin International</text></link><time>2026-09-01T23:01:09Z</time></metadata><trk><name>2026-09-02 02:00:57</name><extensions><gpxx:TrackExtension><gpxx:DisplayColor>Red</gpxx:DisplayColor></gpxx:TrackExtension></extensions><trkseg><trkpt lat="59.2376272939" lon="30.5210709572"><ele>51.09</ele><time>2025-05-24T22:57:56Z</time></trkpt><trkpt lat="59.2376488354" lon="30.5211051553"><ele>51.09</ele><time>2025-05-24T22:58:10Z</time></trkpt><trkpt lat="59.2376550380" lon="30.5210713763"><ele>50.61</ele><time>2025-05-24T22:58:21Z</time></trkpt><trkpt lat="59.2376643419" lon="30.5210102722"><ele>51.57</ele><time>2025-05-24T22:58:39Z</time></trkpt><trkpt lat="59.2376865540" lon="30.5210587196"><ele>50.61</ele><time>2025-05-24T22:58:56Z</time></trkpt><trkpt lat="59.2376547866" lon="30.5211080890"><ele>51.09</ele><time>2025-05-24T22:59:06Z</time></trkpt><trkpt lat="59.2376461532" lon="30.5210966058"><ele>51.09</ele><time>2025-05-24T22:59:13Z</time></trkpt><trkpt lat="59.2376284674" lon="30.5211134534"><ele>50.61</ele><time>2025-05-24T22:59:28Z</time></trkpt><trkpt lat="59.2375622503" lon="30.5211060774"><ele>49.65</ele><time>2025-05-24T22:59:39Z</time></trkpt><trkpt lat="59.2376000527" lon="30.5211205781"><ele>49.65</ele><time>2025-05-24T22:59:54Z</time></trkpt><trkpt lat="59.2375928443" lon="30.5210961029"><ele>45.80</ele><time>2025-05-24T22:59:59Z</time></trkpt><trkpt lat="59.2375992984" lon="30.5210914090"><ele>44.84</ele><time>2025-05-24T23:00:01Z</time></trkpt><trkpt lat="59.2376609053" lon="30.5210479070"><ele>44.84</ele><time>2025-05-24T23:00:16Z</time></trkpt><trkpt lat="59.2376355920" lon="30.5210469011"><ele>44.84</ele><time>2025-05-24T23:00:30Z</time></trkpt><trkpt lat="59.2376930919" lon="30.5211147107"><ele>45.80</ele><time>2025-05-24T23:00:42Z</time></trkpt><trkpt lat="59.2377280444" lon="30.5212366674"><ele>45.80</ele><time>2025-05-24T23:00:51Z</time></trkpt><trkpt lat="59.2377628293" lon="30.5212127790"><ele>45.80</ele><time>2025-05-24T23:00:54Z</time></trkpt><trkpt lat="59.2379483208" lon="30.5211044848"><ele>45.80</ele><time>2025-05-24T23:01:05Z</time></trkpt><trkpt lat="59.2380422819" lon="30.5209844559"><ele>45.80</ele><time>2025-05-24T23:01:11Z</time></trkpt><trkpt lat="59.2381691840" lon="30.5209894013"><ele>45.80</ele><time>2025-05-24T23:01:21Z</time></trkpt><trkpt lat="59.2383887898" lon="30.5211652536"><ele>47.24</ele><time>2025-05-24T23:01:36Z</time></trkpt><trkpt lat="59.2387466971" lon="30.5215446185"><ele>48.20</ele><time>2025-05-24T23:01:44Z</time></trkpt><trkpt lat="59.2389792949" lon="30.5218000989"><ele>51.57</ele><time>2025-05-24T23:01:53Z</time></trkpt><trkpt lat="59.2391657084" lon="30.5221611075"><ele>54.45</ele><time>2025-05-24T23:02:02Z</time></trkpt><trkpt lat="59.2391619366" lon="30.5227411352"><ele>53.97</ele><time>2025-05-24T23:02:11Z</time></trkpt><trkpt lat="59.2390378844" lon="30.5232345778"><ele>53.97</ele><time>2025-05-24T23:02:18Z</time></trkpt><trkpt lat="59.2387657240" lon="30.5237339716"><ele>53.49</ele><time>2025-05-24T23:02:26Z</time></trkpt><trkpt lat="59.2383719422" lon="30.5241534859"><ele>53.49</ele><time>2025-05-24T23:02:34Z</time></trkpt><trkpt lat="59.2382975109" lon="30.5242619477"><ele>53.97</ele><time>2025-05-24T23:02:36Z</time></trkpt><trkpt lat="59.2382662464" lon="30.5243228003"><ele>53.97</ele><time>2025-05-24T23:02:37Z</time></trkpt><trkpt lat="59.2382387538" lon="30.5243891012"><ele>53.97</ele><time>2025-05-24T23:02:38Z</time></trkpt><trkpt lat="59.2382197268" lon="30.5244456790"><ele>53.97</ele><time>2025-05-24T23:02:39Z</time></trkpt><trkpt lat="59.2382017057" lon="30.5245091300"><ele>53.97</ele><time>2025-05-24T23:02:40Z</time></trkpt><trkpt lat="59.2381779011" lon="30.5250172410"><ele>53.49</ele><time>2025-05-24T23:02:47Z</time></trkpt><trkpt lat="59.2382426932" lon="30.5257931538"><ele>53.01</ele><time>2025-05-24T23:02:56Z</time></trkpt><trkpt lat="59.2382613011" lon="30.5258671660"><ele>53.01</ele><time>2025-05-24T23:02:57Z</time></trkpt><trkpt lat="59.2382820044" lon="30.5259375740"><ele>53.01</ele><time>2025-05-24T23:02:58Z</time></trkpt><trkpt lat="59.2383053899" lon="30.5260019470"><ele>51.57</ele><time>2025-05-24T23:02:59Z</time></trkpt><trkpt lat="59.2383314576" lon="30.5260608718"><ele>51.57</ele><time>2025-05-24T23:03:00Z</time></trkpt><trkpt lat="59.2383608781" lon="30.5261133425"><ele>52.05</ele><time>2025-05-24T23:03:01Z</time></trkpt><trkpt lat="59.2383933160" lon="30.5261609517"><ele>51.57</ele><time>2025-05-24T23:03:02Z</time></trkpt><trkpt lat="59.2384291906" lon="30.5262016039"><ele>51.57</ele><time>2025-05-24T23:03:03Z</time></trkpt><trkpt lat="59.2384688370" lon="30.5262361374"><ele>52.05</ele><time>2025-05-24T23:03:04Z</time></trkpt><trkpt lat="59.2385121714" lon="30.5262660608"><ele>52.05</ele><time>2025-05-24T23:03:05Z</time></trkpt><trkpt lat="59.2385588586" lon="30.5262934696"><ele>52.05</ele><time>2025-05-24T23:03:06Z</time></trkpt><trkpt lat="59.2386108264" lon="30.5263160169"><ele>52.05</ele><time>2025-05-24T23:03:07Z</time></trkpt><trkpt lat="59.2386564240" lon="30.5263401568"><ele>52.05</ele><time>2025-05-24T23:03:08Z</time></trkpt><trkpt lat="59.2865941208" lon="30.4697452113"><ele>55.41</ele><time>2025-05-24T23:16:06Z</time></trkpt><trkpt lat="59.2865950428" lon="30.4698126018"><ele>54.93</ele><time>2025-05-24T23:16:20Z</time></trkpt><trkpt lat="59.2865916900" lon="30.4698180500"><ele>54.93</ele><time>2025-05-24T23:16:29Z</time></trkpt><trkpt lat="59.2866075318" lon="30.4698143620"><ele>54.45</ele><time>2025-05-24T23:16:40Z</time></trkpt><trkpt lat="59.2866024189" lon="30.4697958380"><ele>54.93</ele><time>2025-05-24T23:16:49Z</time></trkpt><trkpt lat="59.2866030056" lon="30.4697468877"><ele>54.45</ele><time>2025-05-24T23:17:01Z</time></trkpt><trkpt lat="59.2866188474" lon="30.4697530903"><ele>53.49</ele><time>2025-05-24T23:17:07Z</time></trkpt><trkpt lat="59.2866226193" lon="30.4697680101"><ele>51.57</ele><time>2025-05-24T23:17:09Z</time></trkpt><trkpt lat="59.2866759282" lon="30.4697669204"><ele>51.57</ele><time>2025-05-24T23:17:25Z</time></trkpt><trkpt lat="59.2867061030" lon="30.4697554372"><ele>52.05</ele><time>2025-05-24T23:17:28Z</time></trkpt><trkpt lat="59.2867713980" lon="30.4696704447"><ele>51.57</ele><time>2025-05-24T23:17:32Z</time></trkpt><trkpt lat="59.2870044149" lon="30.4691821989"><ele>52.05</ele><time>2025-05-24T23:17:43Z</time></trkpt><trkpt lat="59.2873613164" lon="30.4687504470"><ele>52.05</ele><time>2025-05-24T23:17:56Z</time></trkpt><trkpt lat="59.2874184810" lon="30.4685596749"><ele>52.53</ele><time>2025-05-24T23:18:04Z</time></trkpt><trkpt lat="59.2874032259" lon="30.4685346968"><ele>52.53</ele><time>2025-05-24T23:18:07Z</time></trkpt><trkpt lat="59.2872957699" lon="30.4681906197"><ele>52.05</ele><time>2025-05-24T23:18:18Z</time></trkpt><trkpt lat="59.2871303950" lon="30.4674918205"><ele>52.53</ele><time>2025-05-24T23:18:28Z</time></trkpt><trkpt lat="59.2870238610" lon="30.4671713803"><ele>52.05</ele><time>2025-05-24T23:18:39Z</time></trkpt><trkpt lat="59.2869756650" lon="30.4670378566"><ele>54.45</ele><time>2025-05-24T23:18:49Z</time></trkpt><trkpt lat="59.2869438976" lon="30.4669162352"><ele>53.97</ele><time>2025-05-24T23:18:58Z</time></trkpt><trkpt lat="59.2869456578" lon="30.4669422191"><ele>54.45</ele><time>2025-05-24T23:19:05Z</time></trkpt><trkpt lat="59.2870661896" lon="30.4671552870"><ele>54.93</ele><time>2025-05-24T23:19:13Z</time></trkpt><trkpt lat="59.2870599870" lon="30.4671498388"><ele>54.45</ele><time>2025-05-24T23:19:21Z</time></trkpt><trkpt lat="59.2870659381" lon="30.4671411216"><ele>54.45</ele><time>2025-05-24T23:19:35Z</time></trkpt><trkpt lat="59.2870653514" lon="30.4671645071"><ele>53.97</ele><time>2025-05-24T23:19:49Z</time></trkpt><trkpt lat="59.2870322429" lon="30.4671409540"><ele>54.45</ele><time>2025-05-24T23:19:57Z</time></trkpt><trkpt lat="59.2870386969" lon="30.4671266209"><ele>54.45</ele><time>2025-05-24T23:20:04Z</time></trkpt><trkpt lat="59.2870380264" lon="30.4671398643"><ele>53.97</ele><time>2025-05-24T23:20:14Z</time></trkpt><trkpt lat="59.2870463245" lon="30.4671422113"><ele>54.45</ele><time>2025-05-24T23:20:23Z</time></trkpt><trkpt lat="59.2869863100" lon="30.4671074264"><ele>54.45</ele><time>2025-05-24T23:20:33Z</time></trkpt><trkpt lat="59.2869557999" lon="30.4670692049"><ele>53.97</ele><time>2025-05-24T23:20:36Z</time></trkpt><trkpt lat="59.2868486792" lon="30.4670011438"><ele>53.97</ele><time>2025-05-24T23:20:46Z</time></trkpt><trkpt lat="59.2867892515" lon="30.4669770040"><ele>53.97</ele><time>2025-05-24T23:20:53Z</time></trkpt><trkpt lat="59.2867020797" lon="30.4669343401"><ele>53.49</ele><time>2025-05-24T23:21:01Z</time></trkpt><trkpt lat="59.2865872476" lon="30.4668722302"><ele>53.49</ele><time>2025-05-24T23:21:10Z</time></trkpt><trkpt lat="59.2864862457" lon="30.4668423068"><ele>53.49</ele><time>2025-05-24T23:21:19Z</time></trkpt><trkpt lat="59.2863778677" lon="30.4668120481"><ele>53.49</ele><time>2025-05-24T23:21:28Z</time></trkpt><trkpt lat="59.2862783745" lon="30.4668111261"><ele>53.01</ele><time>2025-05-24T23:21:37Z</time></trkpt><trkpt lat="59.2862031050" lon="30.4668404628"><ele>53.49</ele><time>2025-05-24T23:21:45Z</time></trkpt><trkpt lat="59.2861612793" lon="30.4669014830"><ele>53.49</ele><time>2025-05-24T23:21:53Z</time></trkpt><trkpt lat="59.2861363851" lon="30.4669279698"><ele>53.01</ele><time>2025-05-24T23:22:03Z</time></trkpt><trkpt lat="59.2861071322" lon="30.4669543728"><ele>53.01</ele><time>2025-05-24T23:22:15Z</time></trkpt><trkpt lat="59.2860733531" lon="30.4669789318"><ele>53.01</ele><time>2025-05-24T23:22:33Z</time></trkpt><trkpt lat="59.2860766221" lon="30.4669540375"><ele>53.49</ele><time>2025-05-24T23:22:48Z</time></trkpt><trkpt lat="59.2860670667" lon="30.4669620004"><ele>53.49</ele><time>2025-05-24T23:22:57Z</time></trkpt><trkpt lat="59.2860775441" lon="30.4669904988"><ele>53.49</ele><time>2025-05-24T23:23:06Z</time></trkpt><trkpt lat="59.2860686593" lon="30.4669920914"><ele>53.49</ele><time>2025-05-24T23:23:18Z</time></trkpt><trkpt lat="59.2860772926" lon="30.4669946898"><ele>53.49</ele><time>2025-05-24T23:23:27Z</time></trkpt></trkseg><trkseg><trkpt lat="59.9842345063" lon="30.2389858011"><ele>30.42</ele><time>2025-07-27T18:13:10Z</time></trkpt><trkpt lat="59.9842491746" lon="30.2392980270"><ele>30.42</ele><time>2025-07-27T18:13:11Z</time></trkpt><trkpt lat="59.9843391962" lon="30.2409493458"><ele>30.42</ele><time>2025-07-27T18:13:16Z</time></trkpt><trkpt lat="59.9843628332" lon="30.2416103426"><ele>30.42</ele><time>2025-07-27T18:13:19Z</time></trkpt><trkpt lat="59.9843814410" lon="30.2419247478"><ele>30.42</ele><time>2025-07-27T18:13:22Z</time></trkpt><trkpt lat="59.9844027311" lon="30.2419260889"><ele>30.42</ele><time>2025-07-27T18:13:26Z</time></trkpt><trkpt lat="59.9844282959" lon="30.2418896277"><ele>29.94</ele><time>2025-07-27T18:13:38Z</time></trkpt><trkpt lat="59.9844281282" lon="30.2418911364"><ele>26.09</ele><time>2025-07-27T18:13:43Z</time></trkpt><trkpt lat="59.9844230991" lon="30.2419023681"><ele>23.21</ele><time>2025-07-27T18:13:48Z</time></trkpt><trkpt lat="59.9844143819" lon="30.2419104148"><ele>19.84</ele><time>2025-07-27T18:13:53Z</time></trkpt><trkpt lat="59.9844112806" lon="30.2419100795"><ele>19.84</ele><time>2025-07-27T18:13:54Z</time></trkpt><trkpt lat="59.9844029825" lon="30.2419191319"><ele>16.48</ele><time>2025-07-27T18:14:01Z</time></trkpt><trkpt lat="59.9844027311" lon="30.2419116721"><ele>6.87</ele><time>2025-07-27T18:14:07Z</time></trkpt><trkpt lat="59.9844034854" lon="30.2419107500"><ele>6.39</ele><time>2025-07-27T18:14:08Z</time></trkpt><trkpt lat="59.9844139628" lon="30.2418916393"><ele>4.94</ele><time>2025-07-27T18:14:29Z</time></trkpt><trkpt lat="59.9844049942" lon="30.2419021167"><ele>3.98</ele><time>2025-07-27T18:14:41Z</time></trkpt><trkpt lat="59.9844029825" lon="30.2419380751"><ele>3.98</ele><time>2025-07-27T18:14:42Z</time></trkpt><trkpt lat="59.9843947683" lon="30.2423252352"><ele>3.50</ele><time>2025-07-27T18:14:46Z</time></trkpt><trkpt lat="59.9843807705" lon="30.2426884230"><ele>3.02</ele><time>2025-07-27T18:14:49Z</time></trkpt><trkpt lat="59.9843642581" lon="30.2427769359"><ele>3.02</ele><time>2025-07-27T18:14:50Z</time></trkpt><trkpt lat="59.9843409564" lon="30.2428444941"><ele>3.02</ele><time>2025-07-27T18:14:51Z</time></trkpt><trkpt lat="59.9843129609" lon="30.2428879961"><ele>3.02</ele><time>2025-07-27T18:14:52Z</time></trkpt><trkpt lat="59.9842790980" lon="30.2429066040"><ele>3.02</ele><time>2025-07-27T18:14:53Z</time></trkpt><trkpt lat="59.9842407089" lon="30.2429094538"><ele>3.02</ele><time>2025-07-27T18:14:54Z</time></trkpt><trkpt lat="59.9841609132" lon="30.2428791951"><ele>3.02</ele><time>2025-07-27T18:14:55Z</time></trkpt><trkpt lat="59.9840933550" lon="30.2428390458"><ele>3.02</ele><time>2025-07-27T18:14:56Z</time></trkpt><trkpt lat="59.9840522837" lon="30.2427942865"><ele>3.02</ele><time>2025-07-27T18:14:57Z</time></trkpt><trkpt lat="59.9840138946" lon="30.2427401394"><ele>3.02</ele><time>2025-07-27T18:14:58Z</time></trkpt><trkpt lat="59.9839805346" lon="30.2426814660"><ele>3.02</ele><time>2025-07-27T18:14:59Z</time></trkpt><trkpt lat="59.9839538801" lon="30.2426133212"><ele>3.02</ele><time>2025-07-27T18:15:00Z</time></trkpt><trkpt lat="59.9839409720" lon="30.2425421588"><ele>3.02</ele><time>2025-07-27T18:15:01Z</time></trkpt><trkpt lat="59.9839311652" lon="30.2424617764"><ele>3.02</ele><time>2025-07-27T18:15:02Z</time></trkpt><trkpt lat="59.9838620145" lon="30.2420456987"><ele>7.35</ele><time>2025-07-27T18:15:06Z</time></trkpt><trkpt lat="59.9838341866" lon="30.2419183776"><ele>7.35</ele><time>2025-07-27T18:15:07Z</time></trkpt><trkpt lat="59.9841111246" lon="30.2393602207"><ele>7.35</ele><time>2025-07-27T18:15:12Z</time></trkpt><trkpt lat="59.9843607377" lon="30.2366757486"><ele>7.35</ele><time>2025-07-27T18:15:20Z</time></trkpt><trkpt lat="59.9846705329" lon="30.2342934441"><ele>7.35</ele><time>2025-07-27T18:15:27Z</time></trkpt><trkpt lat="59.9850024562" lon="30.2320417296"><ele>7.35</ele><time>2025-07-27T18:15:34Z</time></trkpt><trkpt lat="59.9850754626" lon="30.2317557391"><ele>7.35</ele><time>2025-07-27T18:15:35Z</time></trkpt><trkpt lat="59.9851626344" lon="30.2314936370"><ele>7.35</ele><time>2025-07-27T18:15:36Z</time></trkpt><trkpt lat="59.9852637202" lon="30.2312547527"><ele>7.35</ele><time>2025-07-27T18:15:37Z</time></trkpt><trkpt lat="59.9853834137" lon="30.2310426068"><ele>7.35</ele><time>2025-07-27T18:15:38Z</time></trkpt><trkpt lat="59.9855150096" lon="30.2308660001"><ele>7.35</ele><time>2025-07-27T18:15:39Z</time></trkpt><trkpt lat="59.9856601004" lon="30.2307250164"><ele>7.35</ele><time>2025-07-27T18:15:40Z</time></trkpt><trkpt lat="59.9858182669" lon="30.2306308877"><ele>7.35</ele><time>2025-07-27T18:15:41Z</time></trkpt><trkpt lat="59.9859838095" lon="30.2305784170"><ele>7.35</ele><time>2025-07-27T18:15:42Z</time></trkpt><trkpt lat="59.9861509446" lon="30.2305727173"><ele>7.35</ele><time>2025-07-27T18:15:43Z</time></trkpt><trkpt lat="59.9863216840" lon="30.2306058258"><ele>7.35</ele><time>2025-07-27T18:15:44Z</time></trkpt><trkpt lat="59.9864921719" lon="30.2306574583"><ele>7.35</ele><time>2025-07-27T18:15:45Z</time></trkpt><trkpt lat="59.9870130233" lon="30.2308169659"><ele>24.17</ele><time>2025-07-27T18:15:48Z</time></trkpt><trkpt lat="59.9871898815" lon="30.2308571152"><ele>24.17</ele><time>2025-07-27T18:15:49Z</time></trkpt><trkpt lat="59.9883004837" lon="30.2310390864"><ele>23.69</ele><time>2025-07-27T18:15:55Z</time></trkpt><trkpt lat="59.9895368982" lon="30.2312958241"><ele>23.69</ele><time>2025-07-27T18:16:01Z</time></trkpt><trkpt lat="59.9908583052" lon="30.2315943874"><ele>23.69</ele><time>2025-07-27T18:16:07Z</time></trkpt><trkpt lat="59.9924973864" lon="30.2317516319"><ele>23.69</ele><time>2025-07-27T18:16:14Z</time></trkpt><trkpt lat="59.9944667146" lon="30.2317585051"><ele>23.69</ele><time>2025-07-27T18:16:22Z</time></trkpt><trkpt lat="59.9947066046" lon="30.2317315154"><ele>14.56</ele><time>2025-07-27T18:16:23Z</time></trkpt><trkpt lat="59.9949469138" lon="30.2317039389"><ele>15.04</ele><time>2025-07-27T18:16:24Z</time></trkpt><trkpt lat="59.9963571690" lon="30.2316771168"><ele>15.04</ele><time>2025-07-27T18:16:30Z</time></trkpt><trkpt lat="59.9977838527" lon="30.2318924479"><ele>15.04</ele><time>2025-07-27T18:16:36Z</time></trkpt><trkpt lat="59.9993631709" lon="30.2323017363"><ele>15.04</ele><time>2025-07-27T18:16:42Z</time></trkpt><trkpt lat="60.0013197586" lon="30.2327521797"><ele>15.04</ele><time>2025-07-27T18:16:49Z</time></trkpt><trkpt lat="60.0029517990" lon="30.2329992782"><ele>15.04</ele><time>2025-07-27T18:16:55Z</time></trkpt><trkpt lat="60.0040163845" lon="30.2331717778"><ele>18.40</ele><time>2025-07-27T18:16:59Z</time></trkpt><trkpt lat="60.0042903051" lon="30.2332325466"><ele>18.40</ele><time>2025-07-27T18:17:00Z</time></trkpt><trkpt lat="60.0060651731" lon="30.2337090578"><ele>18.40</ele><time>2025-07-27T18:17:07Z</time></trkpt><trkpt lat="60.0077060144" lon="30.2340564039"><ele>18.40</ele><time>2025-07-27T18:17:13Z</time></trkpt><trkpt lat="60.0087803230" lon="30.2339707408"><ele>18.40</ele><time>2025-07-27T18:17:17Z</time></trkpt><trkpt lat="60.0095919427" lon="30.2335738577"><ele>18.40</ele><time>2025-07-27T18:17:20Z</time></trkpt><trkpt lat="60.0105820131" lon="30.2327171434"><ele>21.29</ele><time>2025-07-27T18:17:24Z</time></trkpt><trkpt lat="60.0108110067" lon="30.2324562147"><ele>20.32</ele><time>2025-07-27T18:17:25Z</time></trkpt><trkpt lat="60.0125750620" lon="30.2302645147"><ele>18.88</ele><time>2025-07-27T18:17:33Z</time></trkpt><trkpt lat="60.0143578090" lon="30.2281349245"><ele>17.92</ele><time>2025-07-27T18:17:41Z</time></trkpt><trkpt lat="60.0165117066" lon="30.2255170047"><ele>10.71</ele><time>2025-07-27T18:17:51Z</time></trkpt><trkpt lat="60.0167284627" lon="30.2252549864"><ele>10.71</ele><time>2025-07-27T18:17:52Z</time></trkpt><trkpt lat="60.0187490880" lon="30.2228067163"><ele>10.71</ele><time>2025-07-27T18:18:01Z</time></trkpt><trkpt lat="60.0202297512" lon="30.2210039366"><ele>10.71</ele><time>2025-07-27T18:18:07Z</time></trkpt><trkpt lat="60.0214406848" lon="30.2193213534"><ele>10.71</ele><time>2025-07-27T18:18:12Z</time></trkpt><trkpt lat="60.0222620275" lon="30.2176988684"><ele>10.71</ele><time>2025-07-27T18:18:16Z</time></trkpt><trkpt lat="60.0231523532" lon="30.2154363412"><ele>17.92</ele><time>2025-07-27T18:18:21Z</time></trkpt><trkpt lat="60.0233335700" lon="30.2149731573"><ele>17.92</ele><time>2025-07-27T18:18:22Z</time></trkpt><trkpt lat="60.0246693939" lon="30.2116261795"><ele>17.92</ele><time>2025-07-27T18:18:29Z</time></trkpt><trkpt lat="60.0274025649" lon="30.2048362512"><ele>17.92</ele><time>2025-07-27T18:18:43Z</time></trkpt><trkpt lat="60.0295393635" lon="30.1995302550"><ele>17.92</ele><time>2025-07-27T18:18:54Z</time></trkpt><trkpt lat="60.0313231163" lon="30.1950839069"><ele>17.92</ele><time>2025-07-27T18:19:03Z</time></trkpt><trkpt lat="60.0322551839" lon="30.1927801408"><ele>13.12</ele><time>2025-07-27T18:19:08Z</time></trkpt><trkpt lat="60.0324378256" lon="30.1923252549"><ele>12.63</ele><time>2025-07-27T18:19:09Z</time></trkpt><trkpt lat="60.0347867701" lon="30.1864977367"><ele>13.12</ele><time>2025-07-27T18:19:22Z</time></trkpt><trkpt lat="60.0363179762" lon="30.1825760957"><ele>13.12</ele><time>2025-07-27T18:19:31Z</time></trkpt><trkpt lat="60.0370547455" lon="30.1802056935"><ele>13.12</ele><time>2025-07-27T18:19:36Z</time></trkpt><trkpt lat="60.0376844779" lon="30.1776680723"><ele>13.12</ele><time>2025-07-27T18:19:41Z</time></trkpt><trkpt lat="60.0382688642" lon="30.1745403651"><ele>13.12</ele><time>2025-07-27T18:19:47Z</time></trkpt><trkpt lat="60.0386085827" lon="30.1719082799"><ele>13.12</ele><time>2025-07-27T18:19:52Z</time></trkpt><trkpt lat="60.0388441142" lon="30.1687384117"><ele>13.12</ele><time>2025-07-27T18:19:58Z</time></trkpt><trkpt lat="60.0392315257" lon="30.1633294858"><ele>12.63</ele><time>2025-07-27T18:20:08Z</time></trkpt><trkpt lat="60.0395481102" lon="30.1612603292"><ele>12.63</ele><time>2025-07-27T18:20:12Z</time></trkpt><trkpt lat="60.0400510244" lon="30.1592109539"><ele>12.63</ele><time>2025-07-27T18:20:16Z</time></trkpt><trkpt lat="60.0407313835" lon="30.1572207548"><ele>12.63</ele><time>2025-07-27T18:20:20Z</time></trkpt><trkpt lat="60.0413745269" lon="30.1558706816"><ele>12.63</ele><time>2025-07-27T18:20:23Z</time></trkpt><trkpt lat="60.0423553772" lon="30.1542850770"><ele>12.63</ele><time>2025-07-27T18:20:27Z</time></trkpt><trkpt lat="60.0431804080" lon="30.1533758920"><ele>12.63</ele><time>2025-07-27T18:20:30Z</time></trkpt><trkpt lat="60.0443527009" lon="30.1525500230"><ele>12.63</ele><time>2025-07-27T18:20:34Z</time></trkpt><trkpt lat="60.0458238926" lon="30.1517052110"><ele>18.88</ele><time>2025-07-27T18:20:39Z</time></trkpt><trkpt lat="60.0461217854" lon="30.1515256707"><ele>18.88</ele><time>2025-07-27T18:20:40Z</time></trkpt><trkpt lat="60.0475084037" lon="30.1507328264"><ele>16.48</ele><time>2025-07-27T18:20:45Z</time></trkpt><trkpt lat="60.0481744297" lon="30.1504001487"><ele>14.08</ele><time>2025-07-27T18:20:48Z</time></trkpt><trkpt lat="60.0485195965" lon="30.1502173394"><ele>13.12</ele><time>2025-07-27T18:20:50Z</time></trkpt><trkpt lat="60.0488955248" lon="30.1499930397"><ele>11.67</ele><time>2025-07-27T18:20:53Z</time></trkpt><trkpt lat="60.0492432062" lon="30.1497777924"><ele>11.19</ele><time>2025-07-27T18:20:57Z</time></trkpt><trkpt lat="60.0497131795" lon="30.1494637225"><ele>13.12</ele><time>2025-07-27T18:21:03Z</time></trkpt><trkpt lat="60.0501464400" lon="30.1491923165"><ele>14.08</ele><time>2025-07-27T18:21:06Z</time></trkpt><trkpt lat="60.0508874841" lon="30.1486733090"><ele>15.52</ele><time>2025-07-27T18:21:10Z</time></trkpt><trkpt lat="60.0521389022" lon="30.1478749327"><ele>16.96</ele><time>2025-07-27T18:21:16Z</time></trkpt><trkpt lat="60.0533492491" lon="30.1471722778"><ele>15.52</ele><time>2025-07-27T18:21:22Z</time></trkpt><trkpt lat="60.0544010103" lon="30.1465816051"><ele>15.04</ele><time>2025-07-27T18:21:28Z</time></trkpt><trkpt lat="60.0551250391" lon="30.1461591572"><ele>14.56</ele><time>2025-07-27T18:21:33Z</time></trkpt><trkpt lat="60.0557914004" lon="30.1460147370"><ele>15.52</ele><time>2025-07-27T18:21:38Z</time></trkpt><trkpt lat="60.0559519976" lon="30.1460594963"><ele>16.00</ele><time>2025-07-27T18:21:39Z</time></trkpt><trkpt lat="60.0560804084" lon="30.1461288985"><ele>16.48</ele><time>2025-07-27T18:21:40Z</time></trkpt><trkpt lat="60.0562277623" lon="30.1462324150"><ele>16.96</ele><time>2025-07-27T18:21:41Z</time></trkpt><trkpt lat="60.0563873537" lon="30.1463654358"><ele>16.96</ele><time>2025-07-27T18:21:42Z</time></trkpt><trkpt lat="60.0565673131" lon="30.1465510949"><ele>17.92</ele><time>2025-07-27T18:21:43Z</time></trkpt><trkpt lat="60.0567463506" lon="30.1467517577"><ele>18.40</ele><time>2025-07-27T18:21:44Z</time></trkpt><trkpt lat="60.0576036517" lon="30.1476754434"><ele>16.96</ele><time>2025-07-27T18:21:48Z</time></trkpt><trkpt lat="60.0588909443" lon="30.1489766501"><ele>14.56</ele><time>2025-07-27T18:21:54Z</time></trkpt><trkpt lat="60.0590781961" lon="30.1491812523"><ele>14.56</ele><time>2025-07-27T18:21:55Z</time></trkpt><trkpt lat="60.0595295615" lon="30.1498513855"><ele>13.60</ele><time>2025-07-27T18:21:58Z</time></trkpt><trkpt lat="60.0596528593" lon="30.1501228753"><ele>13.60</ele><time>2025-07-27T18:21:59Z</time></trkpt><trkpt lat="60.0597516820" lon="30.1504141465"><ele>13.60</ele><time>2025-07-27T18:22:00Z</time></trkpt><trkpt lat="60.0598252751" lon="30.1507053338"><ele>13.60</ele><time>2025-07-27T18:22:01Z</time></trkpt><trkpt lat="60.0599063281" lon="30.1510499138"><ele>13.60</ele><time>2025-07-27T18:22:02Z</time></trkpt><trkpt lat="60.0603353977" lon="30.1528448146"><ele>13.60</ele><time>2025-07-27T18:22:07Z</time></trkpt><trkpt lat="60.0610660482" lon="30.1555550192"><ele>13.60</ele><time>2025-07-27T18:22:14Z</time></trkpt><trkpt lat="60.0618766621" lon="30.1582417544"><ele>13.60</ele><time>2025-07-27T18:22:21Z</time></trkpt><trkpt lat="60.0627221446" lon="30.1606334466"><ele>13.60</ele><time>2025-07-27T18:22:27Z</time></trkpt><trkpt lat="60.0638237782" lon="30.1633906737"><ele>13.60</ele><time>2025-07-27T18:22:34Z</time></trkpt><trkpt lat="60.0648899563" lon="30.1657395344"><ele>13.60</ele><time>2025-07-27T18:22:40Z</time></trkpt><trkpt lat="60.0661117025" lon="30.1681670174"><ele>13.60</ele><time>2025-07-27T18:22:46Z</time></trkpt><trkpt lat="60.0674586743" lon="30.1705011260"><ele>18.88</ele><time>2025-07-27T18:22:52Z</time></trkpt><trkpt lat="60.0676875841" lon="30.1708770543"><ele>18.88</ele><time>2025-07-27T18:22:53Z</time></trkpt><trkpt lat="60.0691089872" lon="30.1729839295"><ele>18.88</ele><time>2025-07-27T18:22:59Z</time></trkpt><trkpt lat="60.0707907323" lon="30.1752031222"><ele>18.40</ele><time>2025-07-27T18:23:06Z</time></trkpt><trkpt lat="60.0733695924" lon="30.1785381138"><ele>17.92</ele><time>2025-07-27T18:23:17Z</time></trkpt><trkpt lat="60.0754625537" lon="30.1813276950"><ele>18.88</ele><time>2025-07-27T18:23:26Z</time></trkpt><trkpt lat="60.0766125508" lon="30.1832112763"><ele>20.81</ele><time>2025-07-27T18:23:31Z</time></trkpt><trkpt lat="60.0777624641" lon="30.1854261104"><ele>22.25</ele><time>2025-07-27T18:23:36Z</time></trkpt><trkpt lat="60.0787464157" lon="30.1875913236"><ele>20.81</ele><time>2025-07-27T18:23:41Z</time></trkpt><trkpt lat="60.0789275486" lon="30.1880253386"><ele>20.81</ele><time>2025-07-27T18:23:42Z</time></trkpt><trkpt lat="60.0799270906" lon="30.1906742714"><ele>21.29</ele><time>2025-07-27T18:23:48Z</time></trkpt><trkpt lat="60.0807824638" lon="30.1933354419"><ele>21.77</ele><time>2025-07-27T18:23:54Z</time></trkpt><trkpt lat="60.0816162955" lon="30.1964147016"><ele>22.73</ele><time>2025-07-27T18:24:01Z</time></trkpt><trkpt lat="60.0823093113" lon="30.1996101346"><ele>24.65</ele><time>2025-07-27T18:24:08Z</time></trkpt><trkpt lat="60.0824917015" lon="30.2006038092"><ele>25.13</ele><time>2025-07-27T18:24:10Z</time></trkpt><trkpt lat="60.0827406440" lon="30.2021011524"><ele>26.57</ele><time>2025-07-27T18:24:13Z</time></trkpt><trkpt lat="60.0829641055" lon="30.2035889402"><ele>24.65</ele><time>2025-07-27T18:24:16Z</time></trkpt><trkpt lat="60.0833487511" lon="30.2067985386"><ele>24.65</ele><time>2025-07-27T18:24:22Z</time></trkpt><trkpt lat="60.0835686922" lon="30.2097713482"><ele>24.65</ele><time>2025-07-27T18:24:27Z</time></trkpt><trkpt lat="60.0838167127" lon="30.2140547521"><ele>24.65</ele><time>2025-07-27T18:24:34Z</time></trkpt><trkpt lat="60.0841540005" lon="30.2175905742"><ele>24.65</ele><time>2025-07-27T18:24:40Z</time></trkpt><trkpt lat="60.0846290868" lon="30.2211952116"><ele>24.65</ele><time>2025-07-27T18:24:46Z</time></trkpt><trkpt lat="60.0853811949" lon="30.2255564835"><ele>24.65</ele><time>2025-07-27T18:24:53Z</time></trkpt><trkpt lat="60.0862064771" lon="30.2294259891"><ele>24.65</ele><time>2025-07-27T18:25:00Z</time></trkpt><trkpt lat="60.0868968945" lon="30.2321435697"><ele>24.65</ele><time>2025-07-27T18:25:05Z</time></trkpt><trkpt lat="60.0880168006" lon="30.2357486263"><ele>24.65</ele><time>2025-07-27T18:25:12Z</time></trkpt><trkpt lat="60.0892675482" lon="30.2392585482"><ele>24.65</ele><time>2025-07-27T18:25:19Z</time></trkpt><trkpt lat="60.0896568038" lon="30.2402227186"><ele>36.67</ele><time>2025-07-27T18:25:21Z</time></trkpt><trkpt lat="60.0902664196" lon="30.2416449599"><ele>39.55</ele><time>2025-07-27T18:25:24Z</time></trkpt><trkpt lat="60.0906707626" lon="30.2425933722"><ele>40.51</ele><time>2025-07-27T18:25:26Z</time></trkpt><trkpt lat="60.0922437944" lon="30.2462866064"><ele>42.44</ele><time>2025-07-27T18:25:34Z</time></trkpt><trkpt lat="60.0937555544" lon="30.2498618234"><ele>40.51</ele><time>2025-07-27T18:25:42Z</time></trkpt><trkpt lat="60.0941187423" lon="30.2507809829"><ele>39.55</ele><time>2025-07-27T18:25:44Z</time></trkpt><trkpt lat="60.0952622853" lon="30.2541538607"><ele>40.51</ele><time>2025-07-27T18:25:51Z</time></trkpt><trkpt lat="60.0961093605" lon="30.2571083978"><ele>41.95</ele><time>2025-07-27T18:25:57Z</time></trkpt><trkpt lat="60.0963674393" lon="30.2581099514"><ele>42.92</ele><time>2025-07-27T18:25:59Z</time></trkpt><trkpt lat="60.0972985011" lon="30.2621219493"><ele>41.95</ele><time>2025-07-27T18:26:07Z</time></trkpt><trkpt lat="60.0980544649" lon="30.2661259845"><ele>39.55</ele><time>2025-07-27T18:26:15Z</time></trkpt><trkpt lat="60.0986297149" lon="30.2699344698"><ele>37.63</ele><time>2025-07-27T18:26:22Z</time></trkpt><trkpt lat="60.0989666674" lon="30.2732772566"><ele>40.03</ele><time>2025-07-27T18:26:28Z</time></trkpt><trkpt lat="60.0990911387" lon="30.2749874163"><ele>38.11</ele><time>2025-07-27T18:26:31Z</time></trkpt><trkpt lat="60.0992624648" lon="30.2783934865"><ele>39.07</ele><time>2025-07-27T18:26:37Z</time></trkpt><trkpt lat="60.0993140135" lon="30.2818806935"><ele>39.55</ele><time>2025-07-27T18:26:43Z</time></trkpt><trkpt lat="60.0993156899" lon="30.2835476864"><ele>37.63</ele><time>2025-07-27T18:26:46Z</time></trkpt><trkpt lat="60.0992676616" lon="30.2861748263"><ele>37.63</ele><time>2025-07-27T18:26:51Z</time></trkpt><trkpt lat="60.0991932303" lon="30.2880652808"><ele>36.19</ele><time>2025-07-27T18:26:55Z</time></trkpt><trkpt lat="60.0990363210" lon="30.2909024712"><ele>36.67</ele><time>2025-07-27T18:27:01Z</time></trkpt><trkpt lat="60.0986824371" lon="30.2944183443"><ele>37.15</ele><time>2025-07-27T18:27:08Z</time></trkpt><trkpt lat="60.0982186664" lon="30.2977309562"><ele>38.11</ele><time>2025-07-27T18:27:15Z</time></trkpt><trkpt lat="60.0980789401" lon="30.2986769378"><ele>38.11</ele><time>2025-07-27T18:27:17Z</time></trkpt></trkseg><trkseg><trkpt lat="60.1735293958" lon="30.6556277443"><ele>71.27</ele><time>2025-07-27T20:46:29Z</time></trkpt><trkpt lat="60.1738752332" lon="30.6559165008"><ele>73.68</ele><time>2025-07-27T20:46:37Z</time></trkpt><trkpt lat="60.1744591165" lon="30.6563546229"><ele>76.08</ele><time>2025-07-27T20:46:50Z</time></trkpt><trkpt lat="60.1750804670" lon="30.6568098441"><ele>77.04</ele><time>2025-07-27T20:47:02Z</time></trkpt><trkpt lat="60.1757288072" lon="30.6571840122"><ele>75.12</ele><time>2025-07-27T20:47:12Z</time></trkpt><trkpt lat="60.1765390020" lon="30.6576016825"><ele>71.76</ele><time>2025-07-27T20:47:25Z</time></trkpt><trkpt lat="60.1776488498" lon="30.6581714004"><ele>68.87</ele><time>2025-07-27T20:47:43Z</time></trkpt><trkpt lat="60.2042734623" lon="30.6791037787"><ele>53.49</ele><time>2025-07-27T20:56:30Z</time></trkpt><trkpt lat="60.2043192275" lon="30.6791391503"><ele>53.49</ele><time>2025-07-27T20:56:31Z</time></trkpt><trkpt lat="60.2046799846" lon="30.6794875860"><ele>53.49</ele><time>2025-07-27T20:56:40Z</time></trkpt><trkpt lat="60.2049226407" lon="30.6797936093"><ele>53.01</ele><time>2025-07-27T20:56:49Z</time></trkpt><trkpt lat="60.2050756104" lon="30.6798833795"><ele>53.01</ele><time>2025-07-27T20:56:58Z</time></trkpt><trkpt lat="60.2128563635" lon="30.6877538189"><ele>46.28</ele><time>2025-07-27T21:00:22Z</time></trkpt><trkpt lat="60.2128899749" lon="30.6877714209"><ele>46.28</ele><time>2025-07-27T21:00:23Z</time></trkpt><trkpt lat="60.2132636402" lon="30.6880768575"><ele>46.28</ele><time>2025-07-27T21:00:33Z</time></trkpt><trkpt lat="60.2135486249" lon="30.6883501913"><ele>45.80</ele><time>2025-07-27T21:00:41Z</time></trkpt><trkpt lat="60.2138643712" lon="30.6887620781"><ele>45.80</ele><time>2025-07-27T21:00:50Z</time></trkpt><trkpt lat="60.2142928541" lon="30.6890728790"><ele>44.84</ele><time>2025-07-27T21:00:58Z</time></trkpt><trkpt lat="60.2145542018" lon="30.6892962568"><ele>44.84</ele><time>2025-07-27T21:01:05Z</time></trkpt><trkpt lat="60.2146990411" lon="30.6895102467"><ele>44.84</ele><time>2025-07-27T21:01:11Z</time></trkpt><trkpt lat="60.2147376817" lon="30.6895417627"><ele>44.84</ele><time>2025-07-27T21:01:12Z</time></trkpt><trkpt lat="60.2148810122" lon="30.6896605343"><ele>45.32</ele><time>2025-07-27T21:01:15Z</time></trkpt><trkpt lat="60.2153203078" lon="30.6902486086"><ele>44.36</ele><time>2025-07-27T21:01:23Z</time></trkpt><trkpt lat="60.2158255689" lon="30.6909681112"><ele>43.88</ele><time>2025-07-27T21:01:32Z</time></trkpt><trkpt lat="60.2162439935" lon="30.6915908027"><ele>44.36</ele><time>2025-07-27T21:01:41Z</time></trkpt><trkpt lat="60.2164113801" lon="30.6919222232"><ele>44.36</ele><time>2025-07-27T21:01:47Z</time></trkpt><trkpt lat="60.2164554689" lon="30.6919839140"><ele>44.36</ele><time>2025-07-27T21:01:48Z</time></trkpt><trkpt lat="60.2165888250" lon="30.6921922043"><ele>41.95</ele><time>2025-07-27T21:01:51Z</time></trkpt><trkpt lat="60.2168840356" lon="30.6927284785"><ele>41.95</ele><time>2025-07-27T21:01:57Z</time></trkpt><trkpt lat="60.2175204735" lon="30.6934521720"><ele>40.03</ele><time>2025-07-27T21:02:05Z</time></trkpt><trkpt lat="60.2178200427" lon="30.6938200537"><ele>39.07</ele><time>2025-07-27T21:02:10Z</time></trkpt><trkpt lat="60.2181652933" lon="30.6942549907"><ele>39.07</ele><time>2025-07-27T21:02:16Z</time></trkpt><trkpt lat="60.2185014915" lon="30.6947430689"><ele>39.07</ele><time>2025-07-27T21:02:21Z</time></trkpt><trkpt lat="60.2189272922" lon="30.6952476595"><ele>39.07</ele><time>2025-07-27T21:02:29Z</time></trkpt><trkpt lat="60.2193352394" lon="30.6957979314"><ele>39.07</ele><time>2025-07-27T21:02:35Z</time></trkpt><trkpt lat="60.2195177134" lon="30.6959941518"><ele>34.74</ele><time>2025-07-27T21:02:38Z</time></trkpt><trkpt lat="60.2195723634" lon="30.6960519869"><ele>34.74</ele><time>2025-07-27T21:02:39Z</time></trkpt><trkpt lat="60.2200162690" lon="30.6964953896"><ele>32.34</ele><time>2025-07-27T21:02:47Z</time></trkpt><trkpt lat="60.2203650400" lon="30.6968713179"><ele>30.42</ele><time>2025-07-27T21:02:55Z</time></trkpt><trkpt lat="60.2204431593" lon="30.6968780234"><ele>29.94</ele><time>2025-07-27T21:02:59Z</time></trkpt><trkpt lat="60.2204146609" lon="30.6968310010"><ele>30.42</ele><time>2025-07-27T21:03:08Z</time></trkpt><trkpt lat="60.2204468474" lon="30.6967657059"><ele>29.94</ele><time>2025-07-27T21:03:20Z</time></trkpt><trkpt lat="60.2204905171" lon="30.6966592558"><ele>30.42</ele><time>2025-07-27T21:03:29Z</time></trkpt><trkpt lat="60.2204886731" lon="30.6966979802"><ele>30.90</ele><time>2025-07-27T21:03:44Z</time></trkpt><trkpt lat="60.2204835601" lon="30.6967956293"><ele>30.90</ele><time>2025-07-27T21:03:59Z</time></trkpt><trkpt lat="60.2204546425" lon="30.6969115511"><ele>30.90</ele><time>2025-07-27T21:04:09Z</time></trkpt><trkpt lat="60.2203831449" lon="30.6969050970"><ele>30.90</ele><time>2025-07-27T21:04:20Z</time></trkpt><trkpt lat="60.2203400619" lon="30.6969613396"><ele>31.38</ele><time>2025-07-27T21:04:32Z</time></trkpt><trkpt lat="60.2203798760" lon="30.6969735771"><ele>31.38</ele><time>2025-07-27T21:04:44Z</time></trkpt><trkpt lat="60.2203356195" lon="30.6969382055"><ele>31.38</ele><time>2025-07-27T21:04:56Z</time></trkpt><trkpt lat="60.2203251421" lon="30.6969866529"><ele>31.38</ele><time>2025-07-27T21:05:06Z</time></trkpt><trkpt lat="60.2203302551" lon="30.6968637742"><ele>31.38</ele><time>2025-07-27T21:05:15Z</time></trkpt><trkpt lat="60.2203118149" lon="30.6968594994"><ele>31.86</ele><time>2025-07-27T21:05:29Z</time></trkpt><trkpt lat="60.2203887608" lon="30.6968370359"><ele>31.38</ele><time>2025-07-27T21:05:44Z</time></trkpt><trkpt lat="60.2203871682" lon="30.6967890915"><ele>31.86</ele><time>2025-07-27T21:06:03Z</time></trkpt><trkpt lat="60.2203605976" lon="30.6967594195"><ele>32.34</ele><time>2025-07-27T21:06:16Z</time></trkpt><trkpt lat="60.2203667164" lon="30.6967076194"><ele>32.34</ele><time>2025-07-27T21:06:23Z</time></trkpt><trkpt lat="60.2203955501" lon="30.6968055200"><ele>31.86</ele><time>2025-07-27T21:06:44Z</time></trkpt><trkpt lat="60.2204161696" lon="30.6968210265"><ele>31.86</ele><time>2025-07-27T21:06:57Z</time></trkpt><trkpt lat="60.2204076201" lon="30.6968687195"><ele>32.34</ele><time>2025-07-27T21:07:13Z</time></trkpt><trkpt lat="60.2204633597" lon="30.6968671270"><ele>32.82</ele><time>2025-07-27T21:07:33Z</time></trkpt><trkpt lat="60.2204416506" lon="30.6968445797"><ele>32.82</ele><time>2025-07-27T21:07:55Z</time></trkpt><trkpt lat="60.2204061113" lon="30.6969538797"><ele>33.30</ele><time>2025-07-27T21:08:16Z</time></trkpt><trkpt lat="60.2203939576" lon="30.6968641933"><ele>33.30</ele><time>2025-07-27T21:08:35Z</time></trkpt><trkpt lat="60.2204400580" lon="30.6969770975"><ele>33.78</ele><time>2025-07-27T21:08:56Z</time></trkpt><trkpt lat="60.2204336878" lon="30.6969522871"><ele>33.78</ele><time>2025-07-27T21:09:17Z</time></trkpt><trkpt lat="60.2203854918" lon="30.6969677098"><ele>34.26</ele><time>2025-07-27T21:09:36Z</time></trkpt><trkpt lat="60.2204030100" lon="30.6969901733"><ele>34.74</ele><time>2025-07-27T21:09:56Z</time></trkpt><trkpt lat="60.2203837316" lon="30.6969384570"><ele>35.23</ele><time>2025-07-27T21:10:14Z</time></trkpt><trkpt lat="60.2203597594" lon="30.6969627645"><ele>35.71</ele><time>2025-07-27T21:10:39Z</time></trkpt><trkpt lat="60.2203059476" lon="30.6970602460"><ele>35.71</ele><time>2025-07-27T21:11:00Z</time></trkpt><trkpt lat="60.2204486914" lon="30.6970519479"><ele>36.67</ele><time>2025-07-27T21:11:23Z</time></trkpt><trkpt lat="60.2203818876" lon="30.6970407162"><ele>36.67</ele><time>2025-07-27T21:11:44Z</time></trkpt><trkpt lat="60.2203876711" lon="30.6970644370"><ele>37.15</ele><time>2025-07-27T21:12:03Z</time></trkpt><trkpt lat="60.2204371244" lon="30.6969736610"><ele>37.63</ele><time>2025-07-27T21:12:25Z</time></trkpt><trkpt lat="60.2204481885" lon="30.6968683843"><ele>38.59</ele><time>2025-07-27T21:12:47Z</time></trkpt><trkpt lat="60.2204723284" lon="30.6967951264"><ele>38.59</ele><time>2025-07-27T21:13:07Z</time></trkpt><trkpt lat="60.2204819676" lon="30.6968651991"><ele>39.07</ele><time>2025-07-27T21:13:26Z</time></trkpt><trkpt lat="60.2204652876" lon="30.6969011575"><ele>39.55</ele><time>2025-07-27T21:13:48Z</time></trkpt><trkpt lat="60.2204197738" lon="30.6968556438"><ele>40.03</ele><time>2025-07-27T21:14:10Z</time></trkpt><trkpt lat="60.2204262279" lon="30.6967431586"><ele>40.03</ele><time>2025-07-27T21:14:30Z</time></trkpt><trkpt lat="60.2204419021" lon="30.6967180129"><ele>40.03</ele><time>2025-07-27T21:14:47Z</time></trkpt><trkpt lat="60.2205261402" lon="30.6966590881"><ele>40.51</ele><time>2025-07-27T21:15:00Z</time></trkpt><trkpt lat="60.2205574885" lon="30.6966302544"><ele>40.03</ele><time>2025-07-27T21:15:18Z</time></trkpt><trkpt lat="60.2205010783" lon="30.6966559868"><ele>40.03</ele><time>2025-07-27T21:15:35Z</time></trkpt><trkpt lat="60.2204771060" lon="30.6966976449"><ele>40.03</ele><time>2025-07-27T21:15:49Z</time></trkpt><trkpt lat="60.2204791177" lon="30.6967441645"><ele>40.99</ele><time>2025-07-27T21:16:04Z</time></trkpt><trkpt lat="60.2203971427" lon="30.6967176776"><ele>40.99</ele><time>2025-07-27T21:16:24Z</time></trkpt><trkpt lat="60.2203894313" lon="30.6967767701"><ele>40.99</ele><time>2025-07-27T21:16:43Z</time></trkpt><trkpt lat="60.2203986514" lon="30.6967996527"><ele>40.99</ele><time>2025-07-27T21:16:57Z</time></trkpt><trkpt lat="60.2203909401" lon="30.6968624331"><ele>40.99</ele><time>2025-07-27T21:17:16Z</time></trkpt><trkpt lat="60.2202931233" lon="30.6969727390"><ele>41.47</ele><time>2025-07-27T21:17:34Z</time></trkpt><trkpt lat="60.2203476895" lon="30.6968921889"><ele>40.99</ele><time>2025-07-27T21:17:49Z</time></trkpt><trkpt lat="60.2204122301" lon="30.6968055200"><ele>41.47</ele><time>2025-07-27T21:18:05Z</time></trkpt><trkpt lat="60.2204122301" lon="30.6968563143"><ele>41.95</ele><time>2025-07-27T21:18:25Z</time></trkpt><trkpt lat="60.2204583306" lon="30.6967607606"><ele>41.95</ele><time>2025-07-27T21:18:33Z</time></trkpt><trkpt lat="60.2204692271" lon="30.6968350243"><ele>41.95</ele><time>2025-07-27T21:18:45Z</time></trkpt><trkpt lat="60.2204623539" lon="30.6968507823"><ele>42.44</ele><time>2025-07-27T21:18:57Z</time></trkpt><trkpt lat="60.2204524633" lon="30.6968377065"><ele>41.47</ele><time>2025-07-27T21:19:07Z</time></trkpt><trkpt lat="60.2204636950" lon="30.6968030892"><ele>41.95</ele><time>2025-07-27T21:19:22Z</time></trkpt><trkpt lat="60.2204385493" lon="30.6967832241"><ele>41.95</ele><time>2025-07-27T21:19:33Z</time></trkpt><trkpt lat="60.2203917783" lon="30.6967725791"><ele>42.44</ele><time>2025-07-27T21:19:54Z</time></trkpt><trkpt lat="60.2203636989" lon="30.6967988145"><ele>42.92</ele><time>2025-07-27T21:20:15Z</time></trkpt><trkpt lat="60.2203676384" lon="30.6967083737"><ele>42.92</ele><time>2025-07-27T21:20:36Z</time></trkpt><trkpt lat="60.2203665487" lon="30.6966769416"><ele>42.44</ele><time>2025-07-27T21:20:57Z</time></trkpt><trkpt lat="60.2203700691" lon="30.6967545580"><ele>43.40</ele><time>2025-07-27T21:21:13Z</time></trkpt><trkpt lat="60.2203757688" lon="30.6968667917"><ele>43.40</ele><time>2025-07-27T21:21:32Z</time></trkpt><trkpt lat="60.2203681413" lon="30.6968220323"><ele>43.88</ele><time>2025-07-27T21:21:47Z</time></trkpt><trkpt lat="60.2203357872" lon="30.6967264786"><ele>43.40</ele><time>2025-07-27T21:22:03Z</time></trkpt><trkpt lat="60.2203272376" lon="30.6967476849"><ele>43.88</ele><time>2025-07-27T21:22:19Z</time></trkpt><trkpt lat="60.2204075363" lon="30.6967545580"><ele>43.88</ele><time>2025-07-27T21:22:32Z</time></trkpt><trkpt lat="60.2204357833" lon="30.6967973057"><ele>43.88</ele><time>2025-07-27T21:22:42Z</time></trkpt><trkpt lat="60.2203797083" lon="30.6967950426"><ele>43.88</ele><time>2025-07-27T21:22:50Z</time></trkpt><trkpt lat="60.2203728352" lon="30.6967819668"><ele>44.36</ele><time>2025-07-27T21:23:11Z</time></trkpt><trkpt lat="60.2203636989" lon="30.6968045142"><ele>43.88</ele><time>2025-07-27T21:23:19Z</time></trkpt><trkpt lat="60.2204032615" lon="30.6967818830"><ele>44.36</ele><time>2025-07-27T21:23:30Z</time></trkpt><trkpt lat="60.2203717455" lon="30.6967075355"><ele>44.36</ele><time>2025-07-27T21:23:46Z</time></trkpt><trkpt lat="60.2204558160" lon="30.6966973096"><ele>44.36</ele><time>2025-07-27T21:23:59Z</time></trkpt><trkpt lat="60.2204279043" lon="30.6967566535"><ele>44.36</ele><time>2025-07-27T21:24:15Z</time></trkpt><trkpt lat="60.2204520442" lon="30.6967411470"><ele>44.36</ele><time>2025-07-27T21:24:29Z</time></trkpt><trkpt lat="60.2204260603" lon="30.6967403926"><ele>44.84</ele><time>2025-07-27T21:24:42Z</time></trkpt><trkpt lat="60.2204909362" lon="30.6967482716"><ele>44.36</ele><time>2025-07-27T21:24:56Z</time></trkpt><trkpt lat="60.2205226198" lon="30.6968765147"><ele>45.32</ele><time>2025-07-27T21:25:11Z</time></trkpt><trkpt lat="60.2204956301" lon="30.6968580745"><ele>44.84</ele><time>2025-07-27T21:25:22Z</time></trkpt><trkpt lat="60.2204412315" lon="30.6967556477"><ele>44.84</ele><time>2025-07-27T21:25:36Z</time></trkpt><trkpt lat="60.2204828896" lon="30.6967399735"><ele>45.32</ele><time>2025-07-27T21:25:56Z</time></trkpt><trkpt lat="60.2205141541" lon="30.6967468467"><ele>45.32</ele><time>2025-07-27T21:26:12Z</time></trkpt><trkpt lat="60.2205284033" lon="30.6966508739"><ele>45.32</ele><time>2025-07-27T21:26:30Z</time></trkpt><trkpt lat="60.2205172554" lon="30.6966082100"><ele>45.80</ele><time>2025-07-27T21:26:47Z</time></trkpt><trkpt lat="60.2205535490" lon="30.6966397259"><ele>45.80</ele><time>2025-07-27T21:27:04Z</time></trkpt><trkpt lat="60.2205929440" lon="30.6965611037"><ele>45.80</ele><time>2025-07-27T21:27:21Z</time></trkpt><trkpt lat="60.2205864061" lon="30.6965315156"><ele>46.28</ele><time>2025-07-27T21:27:42Z</time></trkpt><trkpt lat="60.2205207758" lon="30.6966196094"><ele>46.28</ele><time>2025-07-27T21:27:59Z</time></trkpt><trkpt lat="60.2204714902" lon="30.6966621056"><ele>46.76</ele><time>2025-07-27T21:28:18Z</time></trkpt><trkpt lat="60.2204198577" lon="30.6966607645"><ele>46.76</ele><time>2025-07-27T21:28:35Z</time></trkpt><trkpt lat="60.2204336878" lon="30.6965741795"><ele>47.24</ele><time>2025-07-27T21:28:48Z</time></trkpt><trkpt lat="60.2204316761" lon="30.6966354512"><ele>47.24</ele><time>2025-07-27T21:29:05Z</time></trkpt><trkpt lat="60.2204445843" lon="30.6967148278"><ele>47.24</ele><time>2025-07-27T21:29:18Z</time></trkpt><trkpt lat="60.2204439137" lon="30.6966630276"><ele>47.24</ele><time>2025-07-27T21:29:38Z</time></trkpt><trkpt lat="60.2204896789" lon="30.6965981517"><ele>47.72</ele><time>2025-07-27T21:29:57Z</time></trkpt><trkpt lat="60.2205128130" lon="30.6966393907"><ele>48.20</ele><time>2025-07-27T21:30:13Z</time></trkpt><trkpt lat="60.2206617594" lon="30.6966060307"><ele>48.68</ele><time>2025-07-27T21:30:34Z</time></trkpt><trkpt lat="60.2206420619" lon="30.6966329366"><ele>48.68</ele><time>2025-07-27T21:30:48Z</time></trkpt><trkpt lat="60.2206113003" lon="30.6966714095"><ele>48.68</ele><time>2025-07-27T21:30:59Z</time></trkpt><trkpt lat="60.2205806226" lon="30.6966074556"><ele>48.20</ele><time>2025-07-27T21:31:11Z</time></trkpt><trkpt lat="60.2205639426" lon="30.6967209466"><ele>49.16</ele><time>2025-07-27T21:31:26Z</time></trkpt><trkpt lat="60.2205301635" lon="30.6967398897"><ele>49.65</ele><time>2025-07-27T21:31:42Z</time></trkpt><trkpt lat="60.2204999886" lon="30.6967460923"><ele>49.65</ele><time>2025-07-27T21:31:58Z</time></trkpt><trkpt lat="60.2205434069" lon="30.6967403926"><ele>50.61</ele><time>2025-07-27T21:32:13Z</time></trkpt><trkpt lat="60.2205165010" lon="30.6967399735"><ele>50.13</ele><time>2025-07-27T21:32:27Z</time></trkpt><trkpt lat="60.2205333486" lon="30.6967374589"><ele>50.61</ele><time>2025-07-27T21:32:44Z</time></trkpt><trkpt lat="60.2205444127" lon="30.6967214495"><ele>51.09</ele><time>2025-07-27T21:32:59Z</time></trkpt><trkpt lat="60.2205133159" lon="30.6968231220"><ele>51.09</ele><time>2025-07-27T21:33:17Z</time></trkpt><trkpt lat="60.2204981446" lon="30.6968654506"><ele>51.09</ele><time>2025-07-27T21:33:34Z</time></trkpt><trkpt lat="60.2204833087" lon="30.6967909355"><ele>51.09</ele><time>2025-07-27T21:33:48Z</time></trkpt><trkpt lat="60.2204692271" lon="30.6968004908"><ele>51.09</ele><time>2025-07-27T21:34:02Z</time></trkpt><trkpt lat="60.2205424011" lon="30.6967968028"><ele>51.09</ele><time>2025-07-27T21:34:18Z</time></trkpt><trkpt lat="60.2205246314" lon="30.6968519557"><ele>51.57</ele><time>2025-07-27T21:34:34Z</time></trkpt><trkpt lat="60.2204995696" lon="30.6968488544"><ele>51.57</ele><time>2025-07-27T21:34:50Z</time></trkpt><trkpt lat="60.2203978132" lon="30.6968976371"><ele>52.05</ele><time>2025-07-27T21:35:02Z</time></trkpt><trkpt lat="60.2204070333" lon="30.6968716532"><ele>51.57</ele><time>2025-07-27T21:35:14Z</time></trkpt><trkpt lat="60.2204239648" lon="30.6968615111"><ele>51.09</ele><time>2025-07-27T21:35:24Z</time></trkpt><trkpt lat="60.2204541396" lon="30.6968608405"><ele>52.05</ele><time>2025-07-27T21:35:38Z</time></trkpt><trkpt lat="60.2204466797" lon="30.6968358625"><ele>51.57</ele><time>2025-07-27T21:35:52Z</time></trkpt><trkpt lat="60.2204285748" lon="30.6968302466"><ele>52.05</ele><time>2025-07-27T21:36:09Z</time></trkpt><trkpt lat="60.2204160858" lon="30.6968571525"><ele>52.05</ele><time>2025-07-27T21:36:28Z</time></trkpt><trkpt lat="60.2203772776" lon="30.6969227828"><ele>52.05</ele><time>2025-07-27T21:36:41Z</time></trkpt><trkpt lat="60.2203609329" lon="30.6968938652"><ele>52.05</ele><time>2025-07-27T21:36:52Z</time></trkpt><trkpt lat="60.2203113120" lon="30.6968455017"><ele>52.05</ele><time>2025-07-27T21:37:10Z</time></trkpt><trkpt lat="60.2203051932" lon="30.6968520395"><ele>52.05</ele><time>2025-07-27T21:37:26Z</time></trkpt><trkpt lat="60.2203294169" lon="30.6969219446"><ele>52.05</ele><time>2025-07-27T21:37:46Z</time></trkpt><trkpt lat="60.2203398105" lon="30.6968886685"><ele>52.05</ele><time>2025-07-27T21:38:00Z</time></trkpt><trkpt lat="60.2203171793" lon="30.6968522910"><ele>52.05</ele><time>2025-07-27T21:38:16Z</time></trkpt><trkpt lat="60.2203177661" lon="30.6968275644"><ele>52.53</ele><time>2025-07-27T21:38:31Z</time></trkpt><trkpt lat="60.2204062790" lon="30.6967605092"><ele>52.53</ele><time>2025-07-27T21:38:49Z</time></trkpt><trkpt lat="60.2203668002" lon="30.6967970543"><ele>52.05</ele><time>2025-07-27T21:39:05Z</time></trkpt><trkpt lat="60.2203074563" lon="30.6968169194"><ele>52.53</ele><time>2025-07-27T21:39:23Z</time></trkpt><trkpt lat="60.2202970628" lon="30.6967925280"><ele>52.53</ele><time>2025-07-27T21:39:39Z</time></trkpt><trkpt lat="60.2203241363" lon="30.6967617664"><ele>52.53</ele><time>2025-07-27T21:39:55Z</time></trkpt><trkpt lat="60.2202557400" lon="30.6967434101"><ele>52.05</ele><time>2025-07-27T21:40:15Z</time></trkpt><trkpt lat="60.2203403134" lon="30.6966142450"><ele>52.05</ele><time>2025-07-27T21:40:29Z</time></trkpt><trkpt lat="60.2203866653" lon="30.6966099702"><ele>52.53</ele><time>2025-07-27T21:40:42Z</time></trkpt><trkpt lat="60.2203398105" lon="30.6967392191"><ele>52.53</ele><time>2025-07-27T21:40:53Z</time></trkpt><trkpt lat="60.2203134075" lon="30.6968128961"><ele>52.53</ele><time>2025-07-27T21:41:06Z</time></trkpt><trkpt lat="60.2203200292" lon="30.6968373712"><ele>52.53</ele><time>2025-07-27T21:41:24Z</time></trkpt><trkpt lat="60.2203284949" lon="30.6968439091"><ele>52.05</ele><time>2025-07-27T21:41:34Z</time></trkpt><trkpt lat="60.2204097155" lon="30.6969173346"><ele>52.53</ele><time>2025-07-27T21:41:47Z</time></trkpt><trkpt lat="60.2204434108" lon="30.6968527939"><ele>53.01</ele><time>2025-07-27T21:42:00Z</time></trkpt><trkpt lat="60.2204474341" lon="30.6967395544"><ele>53.49</ele><time>2025-07-27T21:42:12Z</time></trkpt><trkpt lat="60.2204825543" lon="30.6967540551"><ele>52.53</ele><time>2025-07-27T21:42:30Z</time></trkpt><trkpt lat="60.2204961330" lon="30.6966867484"><ele>52.05</ele><time>2025-07-27T21:42:49Z</time></trkpt><trkpt lat="60.2203982323" lon="30.6967217848"><ele>52.05</ele><time>2025-07-27T21:43:09Z</time></trkpt><trkpt lat="60.2203592565" lon="30.6968113873"><ele>52.05</ele><time>2025-07-27T21:43:27Z</time></trkpt><trkpt lat="60.2204065304" lon="30.6967604253"><ele>52.05</ele><time>2025-07-27T21:43:40Z</time></trkpt><trkpt lat="60.2204540558" lon="30.6965692341"><ele>52.53</ele><time>2025-07-27T21:43:46Z</time></trkpt><trkpt lat="60.2204602584" lon="30.6965427473"><ele>53.01</ele><time>2025-07-27T21:43:47Z</time></trkpt><trkpt lat="60.2205151599" lon="30.6962727662"><ele>53.49</ele><time>2025-07-27T21:43:56Z</time></trkpt><trkpt lat="60.2205510344" lon="30.6962100696"><ele>53.49</ele><time>2025-07-27T21:44:00Z</time></trkpt><trkpt lat="60.2205641102" lon="30.6961902883"><ele>53.49</ele><time>2025-07-27T21:44:01Z</time></trkpt><trkpt lat="60.2207496855" lon="30.6960238237"><ele>53.01</ele><time>2025-07-27T21:44:12Z</time></trkpt><trkpt lat="60.2209241129" lon="30.6958348956"><ele>53.01</ele><time>2025-07-27T21:44:22Z</time></trkpt><trkpt lat="60.2211057488" lon="30.6956006214"><ele>53.49</ele><time>2025-07-27T21:44:32Z</time></trkpt><trkpt lat="60.2213727124" lon="30.6951495074"><ele>54.45</ele><time>2025-07-27T21:44:41Z</time></trkpt><trkpt lat="60.2215680107" lon="30.6948554702"><ele>54.45</ele><time>2025-07-27T21:44:48Z</time></trkpt><trkpt lat="60.2216792386" lon="30.6946667936"><ele>54.45</ele><time>2025-07-27T21:44:57Z</time></trkpt><trkpt lat="60.2217167057" lon="30.6946408935"><ele>54.93</ele><time>2025-07-27T21:45:10Z</time></trkpt><trkpt lat="60.2216890454" lon="30.6946405582"><ele>54.93</ele><time>2025-07-27T21:45:24Z</time></trkpt><trkpt lat="60.2217212319" lon="30.6946420670"><ele>54.45</ele><time>2025-07-27T21:45:38Z</time></trkpt><trkpt lat="60.2217669133" lon="30.6946586631"><ele>54.45</ele><time>2025-07-27T21:46:01Z</time></trkpt><trkpt lat="60.2217684221" lon="30.6946110539"><ele>53.97</ele><time>2025-07-27T21:46:18Z</time></trkpt><trkpt lat="60.2217649017" lon="30.6946612615"><ele>54.45</ele><time>2025-07-27T21:46:31Z</time></trkpt><trkpt lat="60.2217136044" lon="30.6946627703"><ele>54.45</ele><time>2025-07-27T21:46:38Z</time></trkpt><trkpt lat="60.2216836810" lon="30.6946546398"><ele>54.93</ele><time>2025-07-27T21:46:48Z</time></trkpt><trkpt lat="60.2216758858" lon="30.6946700625"><ele>54.93</ele><time>2025-07-27T21:47:01Z</time></trkpt><trkpt lat="60.2217129339" lon="30.6946516223"><ele>54.93</ele><time>2025-07-27T21:47:11Z</time></trkpt><trkpt lat="60.2217392530" lon="30.6947255507"><ele>54.93</ele><time>2025-07-27T21:47:20Z</time></trkpt><trkpt lat="60.2217347268" lon="30.6946801208"><ele>54.93</ele><time>2025-07-27T21:47:31Z</time></trkpt><trkpt lat="60.2217210643" lon="30.6946843956"><ele>54.45</ele><time>2025-07-27T21:47:47Z</time></trkpt><trkpt lat="60.2216885425" lon="30.6946749240"><ele>54.93</ele><time>2025-07-27T21:48:05Z</time></trkpt><trkpt lat="60.2217068989" lon="30.6945952121"><ele>54.45</ele><time>2025-07-27T21:48:16Z</time></trkpt><trkpt lat="60.2217343077" lon="30.6946066953"><ele>54.45</ele><time>2025-07-27T21:48:31Z</time></trkpt><trkpt lat="60.2217499819" lon="30.6946319249"><ele>54.45</ele><time>2025-07-27T21:48:52Z</time></trkpt><trkpt lat="60.2217924781" lon="30.6945403945"><ele>53.97</ele><time>2025-07-27T21:49:07Z</time></trkpt><trkpt lat="60.2218455356" lon="30.6944253109"><ele>53.97</ele><time>2025-07-27T21:49:12Z</time></trkpt><trkpt lat="60.2218574379" lon="30.6943786237"><ele>53.97</ele><time>2025-07-27T21:49:13Z</time></trkpt><trkpt lat="60.2218789794" lon="30.6943393964"><ele>53.97</ele><time>2025-07-27T21:49:14Z</time></trkpt><trkpt lat="60.2219023649" lon="30.6943014264"><ele>53.97</ele><time>2025-07-27T21:49:15Z</time></trkpt><trkpt lat="60.2219232358" lon="30.6942549907"><ele>53.97</ele><time>2025-07-27T21:49:16Z</time></trkpt><trkpt lat="60.2220704220" lon="30.6939063035"><ele>54.93</ele><time>2025-07-27T21:49:26Z</time></trkpt><trkpt lat="60.2222939674" lon="30.6935148686"><ele>55.41</ele><time>2025-07-27T21:49:37Z</time></trkpt><trkpt lat="60.2224839013" lon="30.6930687837"><ele>56.37</ele><time>2025-07-27T21:49:48Z</time></trkpt><trkpt lat="60.2226776909" lon="30.6927036680"><ele>55.89</ele><time>2025-07-27T21:49:58Z</time></trkpt><trkpt lat="60.2228856459" lon="30.6924256403"><ele>55.89</ele><time>2025-07-27T21:50:07Z</time></trkpt><trkpt lat="60.2231186628" lon="30.6921986584"><ele>55.89</ele><time>2025-07-27T21:50:18Z</time></trkpt><trkpt lat="60.2232706267" lon="30.6920213811"><ele>55.89</ele><time>2025-07-27T21:50:29Z</time></trkpt><trkpt lat="60.2234301344" lon="30.6918472890"><ele>55.89</ele><time>2025-07-27T21:50:38Z</time></trkpt><trkpt lat="60.2236023825" lon="30.6916113384"><ele>55.89</ele><time>2025-07-27T21:50:49Z</time></trkpt><trkpt lat="60.2237233333" lon="30.6913535111"><ele>53.97</ele><time>2025-07-27T21:50:59Z</time></trkpt><trkpt lat="60.2238221560" lon="30.6911896449"><ele>53.97</ele><time>2025-07-27T21:51:08Z</time></trkpt><trkpt lat="60.2238743752" lon="30.6910771597"><ele>54.45</ele><time>2025-07-27T21:51:17Z</time></trkpt><trkpt lat="60.2239805739" lon="30.6909842882"><ele>54.93</ele><time>2025-07-27T21:51:26Z</time></trkpt><trkpt lat="60.2239933144" lon="30.6909806840"><ele>54.93</ele><time>2025-07-27T21:51:45Z</time></trkpt><trkpt lat="60.2239735331" lon="30.6910065003"><ele>55.41</ele><time>2025-07-27T21:51:56Z</time></trkpt><trkpt lat="60.2239862736" lon="30.6909431331"><ele>54.93</ele><time>2025-07-27T21:52:05Z</time></trkpt><trkpt lat="60.2240011934" lon="30.6908693723"><ele>54.93</ele><time>2025-07-27T21:52:12Z</time></trkpt><trkpt lat="60.2239690069" lon="30.6909154728"><ele>54.93</ele><time>2025-07-27T21:52:19Z</time></trkpt><trkpt lat="60.2239516564" lon="30.6909712125"><ele>53.97</ele><time>2025-07-27T21:52:28Z</time></trkpt><trkpt lat="60.2239744551" lon="30.6909954362"><ele>53.97</ele><time>2025-07-27T21:52:44Z</time></trkpt><trkpt lat="60.2239195537" lon="30.6910958514"><ele>53.97</ele><time>2025-07-27T21:52:58Z</time></trkpt><trkpt lat="60.2238994371" lon="30.6911425386"><ele>54.45</ele><time>2025-07-27T21:53:12Z</time></trkpt><trkpt lat="60.2240438573" lon="30.6910128705"><ele>54.45</ele><time>2025-07-27T21:53:25Z</time></trkpt><trkpt lat="60.2240110841" lon="30.6909392774"><ele>54.45</ele><time>2025-07-27T21:53:37Z</time></trkpt><trkpt lat="60.2240608726" lon="30.6906977110"><ele>56.37</ele><time>2025-07-27T21:53:47Z</time></trkpt><trkpt lat="60.2242456097" lon="30.6904304959"><ele>56.37</ele><time>2025-07-27T21:53:57Z</time></trkpt><trkpt lat="60.2244212944" lon="30.6901622750"><ele>56.37</ele><time>2025-07-27T21:54:09Z</time></trkpt><trkpt lat="60.2246254776" lon="30.6898893602"><ele>55.89</ele><time>2025-07-27T21:54:20Z</time></trkpt><trkpt lat="60.2249133121" lon="30.6894403417"><ele>55.89</ele><time>2025-07-27T21:54:32Z</time></trkpt><trkpt lat="60.2250232827" lon="30.6891629845"><ele>54.93</ele><time>2025-07-27T21:54:42Z</time></trkpt><trkpt lat="60.2252752427" lon="30.6889213342"><ele>54.93</ele><time>2025-07-27T21:54:54Z</time></trkpt><trkpt lat="60.2255164739" lon="30.6887556240"><ele>55.41</ele><time>2025-07-27T21:55:04Z</time></trkpt><trkpt lat="60.2255443856" lon="30.6888007186"><ele>54.93</ele><time>2025-07-27T21:55:13Z</time></trkpt><trkpt lat="60.2254689485" lon="30.6887693703"><ele>55.41</ele><time>2025-07-27T21:55:22Z</time></trkpt><trkpt lat="60.2254494186" lon="30.6887724716"><ele>54.93</ele><time>2025-07-27T21:55:31Z</time></trkpt><trkpt lat="60.2255176473" lon="30.6887271255"><ele>54.93</ele><time>2025-07-27T21:55:45Z</time></trkpt><trkpt lat="60.2255235147" lon="30.6887872238"><ele>54.93</ele><time>2025-07-27T21:55:57Z</time></trkpt><trkpt lat="60.2255331539" lon="30.6888439693"><ele>54.45</ele><time>2025-07-27T21:56:18Z</time></trkpt><trkpt lat="60.2255539410" lon="30.6888737250"><ele>54.45</ele><time>2025-07-27T21:56:27Z</time></trkpt><trkpt lat="60.2255647536" lon="30.6887973659"><ele>53.97</ele><time>2025-07-27T21:56:38Z</time></trkpt><trkpt lat="60.2256129496" lon="30.6887173187"><ele>54.93</ele><time>2025-07-27T21:56:41Z</time></trkpt><trkpt lat="60.2256332338" lon="30.6886986271"><ele>54.93</ele><time>2025-07-27T21:56:42Z</time></trkpt><trkpt lat="60.2257672604" lon="30.6884728186"><ele>53.97</ele><time>2025-07-27T21:56:50Z</time></trkpt><trkpt lat="60.2259456273" lon="30.6881696451"><ele>53.97</ele><time>2025-07-27T21:57:02Z</time></trkpt><trkpt lat="60.2260485571" lon="30.6881215330"><ele>54.45</ele><time>2025-07-27T21:57:13Z</time></trkpt><trkpt lat="60.2262971643" lon="30.6877559982"><ele>54.45</ele><time>2025-07-27T21:57:24Z</time></trkpt><trkpt lat="60.2263369784" lon="30.6876704190"><ele>54.45</ele><time>2025-07-27T21:57:32Z</time></trkpt><trkpt lat="60.2264267486" lon="30.6876008492"><ele>53.49</ele><time>2025-07-27T21:57:40Z</time></trkpt><trkpt lat="60.2266138326" lon="30.6874347199"><ele>53.01</ele><time>2025-07-27T21:57:50Z</time></trkpt><trkpt lat="60.2267528046" lon="30.6873700954"><ele>52.05</ele><time>2025-07-27T21:58:00Z</time></trkpt><trkpt lat="60.2268978115" lon="30.6872431934"><ele>50.61</ele><time>2025-07-27T21:58:10Z</time></trkpt><trkpt lat="60.2270798665" lon="30.6871039700"><ele>49.65</ele><time>2025-07-27T21:58:19Z</time></trkpt><trkpt lat="60.2272249572" lon="30.6870046444"><ele>49.65</ele><time>2025-07-27T21:58:29Z</time></trkpt><trkpt lat="60.2272737399" lon="30.6869773194"><ele>49.65</ele><time>2025-07-27T21:58:42Z</time></trkpt><trkpt lat="60.2272084448" lon="30.6870218273"><ele>49.65</ele><time>2025-07-27T21:58:51Z</time></trkpt><trkpt lat="60.2271497715" lon="30.6870489847"><ele>49.65</ele><time>2025-07-27T21:58:59Z</time></trkpt><trkpt lat="60.2271272242" lon="30.6870762259"><ele>50.61</ele><time>2025-07-27T21:59:06Z</time></trkpt><trkpt lat="60.2271662001" lon="30.6870695204"><ele>50.13</ele><time>2025-07-27T21:59:15Z</time></trkpt><trkpt lat="60.2272082772" lon="30.6870598812"><ele>49.65</ele><time>2025-07-27T21:59:36Z</time></trkpt><trkpt lat="60.2272067685" lon="30.6869625673"><ele>49.65</ele><time>2025-07-27T21:59:50Z</time></trkpt><trkpt lat="60.2272361889" lon="30.6869442109"><ele>49.16</ele><time>2025-07-27T21:59:58Z</time></trkpt><trkpt lat="60.2272366919" lon="30.6869229209"><ele>49.16</ele><time>2025-07-27T22:00:06Z</time></trkpt><trkpt lat="60.2272418048" lon="30.6869413611"><ele>49.16</ele><time>2025-07-27T22:00:07Z</time></trkpt><trkpt lat="60.2272530366" lon="30.6869477313"><ele>49.16</ele><time>2025-07-27T22:00:13Z</time></trkpt><trkpt lat="60.2272922639" lon="30.6869536825"><ele>49.16</ele><time>2025-07-27T22:00:25Z</time></trkpt><trkpt lat="60.2273024060" lon="30.6869494077"><ele>49.65</ele><time>2025-07-27T22:00:26Z</time></trkpt><trkpt lat="60.2274534479" lon="30.6868396886"><ele>51.09</ele><time>2025-07-27T22:00:36Z</time></trkpt><trkpt lat="60.2275998797" lon="30.6866689492"><ele>52.53</ele><time>2025-07-27T22:00:49Z</time></trkpt><trkpt lat="60.2277805936" lon="30.6864796858"><ele>53.49</ele><time>2025-07-27T22:01:01Z</time></trkpt><trkpt lat="60.2278952580" lon="30.6862177514"><ele>53.97</ele><time>2025-07-27T22:01:11Z</time></trkpt><trkpt lat="60.2279763110" lon="30.6859148294"><ele>53.97</ele><time>2025-07-27T22:01:21Z</time></trkpt><trkpt lat="60.2281039674" lon="30.6855499651"><ele>54.45</ele><time>2025-07-27T22:01:34Z</time></trkpt><trkpt lat="60.2281758841" lon="30.6852897070"><ele>55.41</ele><time>2025-07-27T22:01:44Z</time></trkpt><trkpt lat="60.2282356471" lon="30.6849476416"><ele>54.45</ele><time>2025-07-27T22:01:54Z</time></trkpt><trkpt lat="60.2282859385" lon="30.6846711226"><ele>54.93</ele><time>2025-07-27T22:02:04Z</time></trkpt><trkpt lat="60.2283487190" lon="30.6843843777"><ele>54.93</ele><time>2025-07-27T22:02:15Z</time></trkpt><trkpt lat="60.2284677420" lon="30.6841232814"><ele>54.93</ele><time>2025-07-27T22:02:25Z</time></trkpt><trkpt lat="60.2284867689" lon="30.6841382012"><ele>55.41</ele><time>2025-07-27T22:02:35Z</time></trkpt><trkpt lat="60.2284581866" lon="30.6841914263"><ele>54.93</ele><time>2025-07-27T22:02:47Z</time></trkpt><trkpt lat="60.2284341305" lon="30.6842152309"><ele>54.93</ele><time>2025-07-27T22:02:56Z</time></trkpt><trkpt lat="60.2284298558" lon="30.6841750816"><ele>54.93</ele><time>2025-07-27T22:03:10Z</time></trkpt><trkpt lat="60.2284273412" lon="30.6841049250"><ele>54.93</ele><time>2025-07-27T22:03:25Z</time></trkpt><trkpt lat="60.2284556720" lon="30.6841874029"><ele>54.45</ele><time>2025-07-27T22:03:35Z</time></trkpt><trkpt lat="60.2284629643" lon="30.6842112076"><ele>53.97</ele><time>2025-07-27T22:03:46Z</time></trkpt><trkpt lat="60.2284591924" lon="30.6842494290"><ele>53.97</ele><time>2025-07-27T22:03:59Z</time></trkpt><trkpt lat="60.2284733579" lon="30.6842496805"><ele>54.45</ele><time>2025-07-27T22:04:12Z</time></trkpt><trkpt lat="60.2285252418" lon="30.6841779314"><ele>53.97</ele><time>2025-07-27T22:04:22Z</time></trkpt><trkpt lat="60.2285397425" lon="30.6841469184"><ele>53.97</ele><time>2025-07-27T22:04:24Z</time></trkpt><trkpt lat="60.2285519801" lon="30.6840736605"><ele>54.45</ele><time>2025-07-27T22:04:31Z</time></trkpt><trkpt lat="60.2285577636" lon="30.6840496883"><ele>54.45</ele><time>2025-07-27T22:04:40Z</time></trkpt><trkpt lat="60.2285970747" lon="30.6840240397"><ele>54.45</ele><time>2025-07-27T22:04:50Z</time></trkpt><trkpt lat="60.2286217175" lon="30.6839379575"><ele>54.45</ele><time>2025-07-27T22:04:54Z</time></trkpt><trkpt lat="60.2286335360" lon="30.6839153264"><ele>54.45</ele><time>2025-07-27T22:04:55Z</time></trkpt><trkpt lat="60.2287502959" lon="30.6836788729"><ele>54.45</ele><time>2025-07-27T22:05:06Z</time></trkpt><trkpt lat="60.2288796287" lon="30.6834881008"><ele>53.49</ele><time>2025-07-27T22:05:18Z</time></trkpt><trkpt lat="60.2289029304" lon="30.6833920442"><ele>53.49</ele><time>2025-07-27T22:05:25Z</time></trkpt><trkpt lat="60.2289109770" lon="30.6833641324"><ele>53.49</ele><time>2025-07-27T22:05:26Z</time></trkpt><trkpt lat="60.2289226279" lon="30.6833391543"><ele>53.01</ele><time>2025-07-27T22:05:27Z</time></trkpt><trkpt lat="60.2289362904" lon="30.6833183672"><ele>53.01</ele><time>2025-07-27T22:05:28Z</time></trkpt><trkpt lat="60.2289535571" lon="30.6832964066"><ele>53.01</ele><time>2025-07-27T22:05:29Z</time></trkpt><trkpt lat="60.2289725840" lon="30.6832785532"><ele>53.01</ele><time>2025-07-27T22:05:30Z</time></trkpt><trkpt lat="60.2289947961" lon="30.6832620408"><ele>53.49</ele><time>2025-07-27T22:05:31Z</time></trkpt><trkpt lat="60.2291976381" lon="30.6830801535"><ele>53.97</ele><time>2025-07-27T22:05:42Z</time></trkpt><trkpt lat="60.2293642703" lon="30.6828271877"><ele>54.45</ele><time>2025-07-27T22:05:53Z</time></trkpt><trkpt lat="60.2296109498" lon="30.6826513354"><ele>54.45</ele><time>2025-07-27T22:06:07Z</time></trkpt><trkpt lat="60.2298145462" lon="30.6824641675"><ele>53.97</ele><time>2025-07-27T22:06:19Z</time></trkpt><trkpt lat="60.2299631573" lon="30.6821564678"><ele>53.49</ele><time>2025-07-27T22:06:29Z</time></trkpt><trkpt lat="60.2299852856" lon="30.6820542086"><ele>53.49</ele><time>2025-07-27T22:06:37Z</time></trkpt><trkpt lat="60.2300121076" lon="30.6819887459"><ele>53.49</ele><time>2025-07-27T22:06:44Z</time></trkpt><trkpt lat="60.2300719544" lon="30.6819039211"><ele>53.97</ele><time>2025-07-27T22:06:54Z</time></trkpt><trkpt lat="60.2301253472" lon="30.6818753388"><ele>53.97</ele><time>2025-07-27T22:06:58Z</time></trkpt><trkpt lat="60.2302873693" lon="30.6817751750"><ele>53.49</ele><time>2025-07-27T22:07:08Z</time></trkpt><trkpt lat="60.2303041331" lon="30.6817815453"><ele>53.49</ele><time>2025-07-27T22:07:09Z</time></trkpt><trkpt lat="60.2303193882" lon="30.6817867421"><ele>53.97</ele><time>2025-07-27T22:07:10Z</time></trkpt><trkpt lat="60.2305051312" lon="30.6819858123"><ele>53.49</ele><time>2025-07-27T22:07:21Z</time></trkpt><trkpt lat="60.2305321209" lon="30.6820541248"><ele>53.49</ele><time>2025-07-27T22:07:23Z</time></trkpt><trkpt lat="60.2307778783" lon="30.6817702297"><ele>53.49</ele><time>2025-07-27T22:07:34Z</time></trkpt><trkpt lat="60.2309083845" lon="30.6817980576"><ele>52.05</ele><time>2025-07-27T22:07:41Z</time></trkpt><trkpt lat="60.2309942991" lon="30.6817117240"><ele>51.57</ele><time>2025-07-27T22:07:49Z</time></trkpt><trkpt lat="60.2310255636" lon="30.6816678029"><ele>51.57</ele><time>2025-07-27T22:07:52Z</time></trkpt><trkpt lat="60.2311025094" lon="30.6815408170"><ele>51.57</ele><time>2025-07-27T22:07:57Z</time></trkpt><trkpt lat="60.2312489413" lon="30.6813855842"><ele>52.53</ele><time>2025-07-27T22:08:08Z</time></trkpt><trkpt lat="60.2312635258" lon="30.6814085506"><ele>53.49</ele><time>2025-07-27T22:08:17Z</time></trkpt><trkpt lat="60.2311743423" lon="30.6814368814"><ele>52.53</ele><time>2025-07-27T22:08:26Z</time></trkpt><trkpt lat="60.2311121486" lon="30.6814504601"><ele>52.05</ele><time>2025-07-27T22:08:33Z</time></trkpt><trkpt lat="60.2311024256" lon="30.6814403180"><ele>52.05</ele><time>2025-07-27T22:08:43Z</time></trkpt><trkpt lat="60.2311249729" lon="30.6813969836"><ele>52.05</ele><time>2025-07-27T22:08:58Z</time></trkpt><trkpt lat="60.2310925350" lon="30.6814076286"><ele>52.05</ele><time>2025-07-27T22:09:17Z</time></trkpt><trkpt lat="60.2311186027" lon="30.6813638750"><ele>52.05</ele><time>2025-07-27T22:09:39Z</time></trkpt><trkpt lat="60.2312041819" lon="30.6813759450"><ele>52.05</ele><time>2025-07-27T22:09:47Z</time></trkpt><trkpt lat="60.2312595025" lon="30.6813471951"><ele>53.01</ele><time>2025-07-27T22:09:55Z</time></trkpt><trkpt lat="60.2312921081" lon="30.6813466921"><ele>52.53</ele><time>2025-07-27T22:10:05Z</time></trkpt><trkpt lat="60.2313339338" lon="30.6812805589"><ele>52.53</ele><time>2025-07-27T22:10:13Z</time></trkpt><trkpt lat="60.2314744145" lon="30.6810674910"><ele>52.53</ele><time>2025-07-27T22:10:26Z</time></trkpt><trkpt lat="60.2316318266" lon="30.6807869487"><ele>53.01</ele><time>2025-07-27T22:10:38Z</time></trkpt><trkpt lat="60.2317231055" lon="30.6805646606"><ele>53.01</ele><time>2025-07-27T22:10:49Z</time></trkpt><trkpt lat="60.2318803500" lon="30.6802997086"><ele>53.01</ele><time>2025-07-27T22:10:59Z</time></trkpt><trkpt lat="60.2319228463" lon="30.6802196614"><ele>53.01</ele><time>2025-07-27T22:11:06Z</time></trkpt><trkpt lat="60.2318957727" lon="30.6802668516"><ele>52.53</ele><time>2025-07-27T22:11:19Z</time></trkpt><trkpt lat="60.2319421247" lon="30.6801015604"><ele>52.53</ele><time>2025-07-27T22:11:28Z</time></trkpt><trkpt lat="60.2320139576" lon="30.6799372751"><ele>53.01</ele><time>2025-07-27T22:11:36Z</time></trkpt><trkpt lat="60.2321202401" lon="30.6796008255"><ele>53.01</ele><time>2025-07-27T22:11:49Z</time></trkpt><trkpt lat="60.2322498243" lon="30.6792746857"><ele>53.49</ele><time>2025-07-27T22:12:02Z</time></trkpt><trkpt lat="60.2323411871" lon="30.6791488733"><ele>52.53</ele><time>2025-07-27T22:12:13Z</time></trkpt><trkpt lat="60.2324319631" lon="30.6791924592"><ele>52.05</ele><time>2025-07-27T22:12:23Z</time></trkpt><trkpt lat="60.2325186320" lon="30.6792146713"><ele>52.53</ele><time>2025-07-27T22:12:34Z</time></trkpt><trkpt lat="60.2325945720" lon="30.6792412419"><ele>52.05</ele><time>2025-07-27T22:12:48Z</time></trkpt><trkpt lat="60.2327156067" lon="30.6792472769"><ele>52.05</ele><time>2025-07-27T22:13:00Z</time></trkpt><trkpt lat="60.2328206319" lon="30.6791205425"><ele>52.53</ele><time>2025-07-27T22:13:10Z</time></trkpt><trkpt lat="60.2329094801" lon="30.6789833307"><ele>52.53</ele><time>2025-07-27T22:13:19Z</time></trkpt><trkpt lat="60.2330482844" lon="30.6788058020"><ele>53.49</ele><time>2025-07-27T22:13:31Z</time></trkpt><trkpt lat="60.2331693191" lon="30.6785699353"><ele>53.01</ele><time>2025-07-27T22:13:42Z</time></trkpt><trkpt lat="60.2332362067" lon="30.6784622278"><ele>53.49</ele><time>2025-07-27T22:13:51Z</time></trkpt><trkpt lat="60.2332626935" lon="30.6784742139"><ele>53.01</ele><time>2025-07-27T22:14:00Z</time></trkpt><trkpt lat="60.2332663815" lon="30.6783966813"><ele>53.01</ele><time>2025-07-27T22:14:14Z</time></trkpt><trkpt lat="60.2333237976" lon="30.6781825237"><ele>52.53</ele><time>2025-07-27T22:14:28Z</time></trkpt><trkpt lat="60.2333524637" lon="30.6779428013"><ele>53.01</ele><time>2025-07-27T22:14:41Z</time></trkpt><trkpt lat="60.2333507873" lon="30.6776211876"><ele>53.01</ele><time>2025-07-27T22:14:53Z</time></trkpt><trkpt lat="60.2334062755" lon="30.6773739215"><ele>53.01</ele><time>2025-07-27T22:15:04Z</time></trkpt><trkpt lat="60.2334559802" lon="30.6774654519"><ele>52.53</ele><time>2025-07-27T22:15:13Z</time></trkpt><trkpt lat="60.2334074490" lon="30.6775439903"><ele>53.01</ele><time>2025-07-27T22:15:23Z</time></trkpt><trkpt lat="60.2334001567" lon="30.6776330899"><ele>53.01</ele><time>2025-07-27T22:15:31Z</time></trkpt><trkpt lat="60.2333882544" lon="30.6776237860"><ele>53.01</ele><time>2025-07-27T22:15:49Z</time></trkpt><trkpt lat="60.2334361151" lon="30.6775257178"><ele>52.53</ele><time>2025-07-27T22:16:00Z</time></trkpt><trkpt lat="60.2334631886" lon="30.6774346065"><ele>53.49</ele><time>2025-07-27T22:16:18Z</time></trkpt><trkpt lat="60.2334639430" lon="30.6774068624"><ele>52.53</ele><time>2025-07-27T22:16:20Z</time></trkpt><trkpt lat="60.2334508672" lon="30.6773829740"><ele>52.53</ele><time>2025-07-27T22:16:28Z</time></trkpt><trkpt lat="60.2334514540" lon="30.6773542240"><ele>53.01</ele><time>2025-07-27T22:16:37Z</time></trkpt><trkpt lat="60.2334122267" lon="30.6773433276"><ele>53.49</ele><time>2025-07-27T22:16:51Z</time></trkpt><trkpt lat="60.2333682217" lon="30.6773176789"><ele>53.01</ele><time>2025-07-27T22:17:03Z</time></trkpt><trkpt lat="60.2333662938" lon="30.6773373764"><ele>53.01</ele><time>2025-07-27T22:17:11Z</time></trkpt><trkpt lat="60.2334056050" lon="30.6774304155"><ele>52.53</ele><time>2025-07-27T22:17:22Z</time></trkpt><trkpt lat="60.2334084548" lon="30.6774925254"><ele>52.53</ele><time>2025-07-27T22:17:31Z</time></trkpt><trkpt lat="60.2333762683" lon="30.6774631049"><ele>52.53</ele><time>2025-07-27T22:17:48Z</time></trkpt><trkpt lat="60.2334082033" lon="30.6774028391"><ele>52.53</ele><time>2025-07-27T22:18:05Z</time></trkpt><trkpt lat="60.2333838120" lon="30.6774864905"><ele>52.53</ele><time>2025-07-27T22:18:12Z</time></trkpt><trkpt lat="60.2333802078" lon="30.6775050145"><ele>52.05</ele><time>2025-07-27T22:18:21Z</time></trkpt><trkpt lat="60.2333505359" lon="30.6774903461"><ele>52.53</ele><time>2025-07-27T22:18:41Z</time></trkpt><trkpt lat="60.2333489433" lon="30.6775750034"><ele>52.53</ele><time>2025-07-27T22:19:00Z</time></trkpt><trkpt lat="60.2333797887" lon="30.6775165815"><ele>52.05</ele><time>2025-07-27T22:19:14Z</time></trkpt><trkpt lat="60.2333818842" lon="30.6774434913"><ele>52.05</ele><time>2025-07-27T22:19:22Z</time></trkpt><trkpt lat="60.2333712392" lon="30.6773749273"><ele>51.57</ele><time>2025-07-27T22:19:36Z</time></trkpt><trkpt lat="60.2334020007" lon="30.6773722451"><ele>52.05</ele><time>2025-07-27T22:19:50Z</time></trkpt><trkpt lat="60.2334475145" lon="30.6774071977"><ele>52.05</ele><time>2025-07-27T22:20:10Z</time></trkpt><trkpt lat="60.2334791142" lon="30.6774022523"><ele>52.05</ele><time>2025-07-27T22:20:16Z</time></trkpt><trkpt lat="60.2334879991" lon="30.6772480253"><ele>52.05</ele><time>2025-07-27T22:20:23Z</time></trkpt><trkpt lat="60.2334919386" lon="30.6772243045"><ele>52.05</ele><time>2025-07-27T22:20:35Z</time></trkpt><trkpt lat="60.2334951237" lon="30.6771581713"><ele>52.05</ele><time>2025-07-27T22:20:45Z</time></trkpt><trkpt lat="60.2335140668" lon="30.6769748591"><ele>52.53</ele><time>2025-07-27T22:20:54Z</time></trkpt><trkpt lat="60.2335474268" lon="30.6767933071"><ele>52.53</ele><time>2025-07-27T22:21:04Z</time></trkpt><trkpt lat="60.2335569821" lon="30.6767540798"><ele>52.53</ele><time>2025-07-27T22:21:07Z</time></trkpt><trkpt lat="60.2335732430" lon="30.6766662374"><ele>51.57</ele><time>2025-07-27T22:21:13Z</time></trkpt><trkpt lat="60.2335748356" lon="30.6765302829"><ele>50.61</ele><time>2025-07-27T22:21:22Z</time></trkpt><trkpt lat="60.2335902583" lon="30.6764680054"><ele>50.61</ele><time>2025-07-27T22:21:25Z</time></trkpt><trkpt lat="60.2336308267" lon="30.6762799993"><ele>49.16</ele><time>2025-07-27T22:21:32Z</time></trkpt><trkpt lat="60.2336530387" lon="30.6761475652"><ele>48.68</ele><time>2025-07-27T22:21:39Z</time></trkpt><trkpt lat="60.2336702216" lon="30.6760853715"><ele>48.20</ele><time>2025-07-27T22:21:44Z</time></trkpt><trkpt lat="60.2337009832" lon="30.6759276241"><ele>48.20</ele><time>2025-07-27T22:21:51Z</time></trkpt><trkpt lat="60.2337342594" lon="30.6757458206"><ele>48.20</ele><time>2025-07-27T22:22:00Z</time></trkpt><trkpt lat="60.2337538730" lon="30.6756194215"><ele>47.24</ele><time>2025-07-27T22:22:06Z</time></trkpt><trkpt lat="60.2338019852" lon="30.6754520349"><ele>47.72</ele><time>2025-07-27T22:22:15Z</time></trkpt><trkpt lat="60.2338397037" lon="30.6753054354"><ele>48.68</ele><time>2025-07-27T22:22:23Z</time></trkpt><trkpt lat="60.2338832058" lon="30.6751911901"><ele>49.16</ele><time>2025-07-27T22:22:31Z</time></trkpt><trkpt lat="60.2339211758" lon="30.6750555709"><ele>50.13</ele><time>2025-07-27T22:22:39Z</time></trkpt><trkpt lat="60.2339781728" lon="30.6749145035"><ele>50.61</ele><time>2025-07-27T22:22:47Z</time></trkpt><trkpt lat="60.2340298053" lon="30.6748057064"><ele>51.09</ele><time>2025-07-27T22:22:56Z</time></trkpt><trkpt lat="60.2340894844" lon="30.6746938080"><ele>51.57</ele><time>2025-07-27T22:23:04Z</time></trkpt><trkpt lat="60.2341417875" lon="30.6746174488"><ele>51.57</ele><time>2025-07-27T22:23:10Z</time></trkpt><trkpt lat="60.2341775782" lon="30.6745863520"><ele>52.05</ele><time>2025-07-27T22:23:18Z</time></trkpt><trkpt lat="60.2342066634" lon="30.6745519862"><ele>52.05</ele><time>2025-07-27T22:23:25Z</time></trkpt><trkpt lat="60.2342282888" lon="30.6745337136"><ele>51.09</ele><time>2025-07-27T22:23:34Z</time></trkpt><trkpt lat="60.2342682704" lon="30.6744871102"><ele>51.57</ele><time>2025-07-27T22:23:48Z</time></trkpt><trkpt lat="60.2343660872" lon="30.6743851025"><ele>51.09</ele><time>2025-07-27T22:24:13Z</time></trkpt><trkpt lat="60.2343889698" lon="30.6744177919"><ele>51.09</ele><time>2025-07-27T22:24:31Z</time></trkpt><trkpt lat="60.2343749721" lon="30.6744145229"><ele>51.57</ele><time>2025-07-27T22:24:52Z</time></trkpt><trkpt lat="60.2343366668" lon="30.6744520739"><ele>51.57</ele><time>2025-07-27T22:25:14Z</time></trkpt><trkpt lat="60.2343845274" lon="30.6744273473"><ele>52.05</ele><time>2025-07-27T22:25:24Z</time></trkpt><trkpt lat="60.2344329748" lon="30.6743566040"><ele>53.01</ele><time>2025-07-27T22:25:34Z</time></trkpt><trkpt lat="60.2344380040" lon="30.6743564364"><ele>53.01</ele><time>2025-07-27T22:25:35Z</time></trkpt><trkpt lat="60.2344907261" lon="30.6743023731"><ele>53.97</ele><time>2025-07-27T22:25:46Z</time></trkpt><trkpt lat="60.2345870342" lon="30.6742123514"><ele>53.49</ele><time>2025-07-27T22:25:54Z</time></trkpt><trkpt lat="60.2346424386" lon="30.6741645746"><ele>53.01</ele><time>2025-07-27T22:26:05Z</time></trkpt><trkpt lat="60.2346697636" lon="30.6740966812"><ele>53.49</ele><time>2025-07-27T22:26:14Z</time></trkpt><trkpt lat="60.2347497270" lon="30.6740200706"><ele>53.49</ele><time>2025-07-27T22:26:23Z</time></trkpt><trkpt lat="60.2348142676" lon="30.6739592180"><ele>53.49</ele><time>2025-07-27T22:26:32Z</time></trkpt><trkpt lat="60.2348523214" lon="30.6739296298"><ele>53.01</ele><time>2025-07-27T22:26:39Z</time></trkpt><trkpt lat="60.2348918002" lon="30.6739727966"><ele>53.49</ele><time>2025-07-27T22:26:46Z</time></trkpt><trkpt lat="60.2349435166" lon="30.6740602199"><ele>53.01</ele><time>2025-07-27T22:26:54Z</time></trkpt><trkpt lat="60.2349993400" lon="30.6740301289"><ele>53.01</ele><time>2025-07-27T22:27:02Z</time></trkpt><trkpt lat="60.2350502182" lon="30.6740509998"><ele>53.49</ele><time>2025-07-27T22:27:11Z</time></trkpt><trkpt lat="60.2351254039" lon="30.6741035543"><ele>53.01</ele><time>2025-07-27T22:27:20Z</time></trkpt><trkpt lat="60.2352099773" lon="30.6741091702"><ele>53.49</ele><time>2025-07-27T22:27:27Z</time></trkpt><trkpt lat="60.2352238074" lon="30.6741111819"><ele>53.01</ele><time>2025-07-27T22:27:28Z</time></trkpt><trkpt lat="60.2353282459" lon="30.6740956753"><ele>53.01</ele><time>2025-07-27T22:27:38Z</time></trkpt><trkpt lat="60.2353918646" lon="30.6740262732"><ele>52.53</ele><time>2025-07-27T22:27:47Z</time></trkpt><trkpt lat="60.2353997435" lon="30.6740191486"><ele>53.01</ele><time>2025-07-27T22:27:48Z</time></trkpt><trkpt lat="60.2354641166" lon="30.6739635766"><ele>52.53</ele><time>2025-07-27T22:27:55Z</time></trkpt><trkpt lat="60.2355133183" lon="30.6739248522"><ele>52.53</ele><time>2025-07-27T22:28:01Z</time></trkpt><trkpt lat="60.2355482709" lon="30.6738784164"><ele>53.01</ele><time>2025-07-27T22:28:08Z</time></trkpt><trkpt lat="60.2356280666" lon="30.6738240179"><ele>53.01</ele><time>2025-07-27T22:28:17Z</time></trkpt><trkpt lat="60.2356936131" lon="30.6738067511"><ele>53.01</ele><time>2025-07-27T22:28:24Z</time></trkpt><trkpt lat="60.2357222792" lon="30.6737983692"><ele>53.01</ele><time>2025-07-27T22:28:28Z</time></trkpt><trkpt lat="60.2357889991" lon="30.6737598125"><ele>53.01</ele><time>2025-07-27T22:28:35Z</time></trkpt><trkpt lat="60.2358496003" lon="30.6736956071"><ele>52.53</ele><time>2025-07-27T22:28:42Z</time></trkpt><trkpt lat="60.2359394543" lon="30.6736085191"><ele>52.53</ele><time>2025-07-27T22:28:49Z</time></trkpt><trkpt lat="60.2359323297" lon="30.6734314933"><ele>53.01</ele><time>2025-07-27T22:28:58Z</time></trkpt><trkpt lat="60.2359062620" lon="30.6732978858"><ele>52.53</ele><time>2025-07-27T22:29:06Z</time></trkpt><trkpt lat="60.2359122131" lon="30.6731598359"><ele>53.01</ele><time>2025-07-27T22:29:15Z</time></trkpt><trkpt lat="60.2359124646" lon="30.6731139868"><ele>53.49</ele><time>2025-07-27T22:29:22Z</time></trkpt><trkpt lat="60.2359324973" lon="30.6730383821"><ele>53.01</ele><time>2025-07-27T22:29:28Z</time></trkpt><trkpt lat="60.2359572239" lon="30.6729390565"><ele>53.01</ele><time>2025-07-27T22:29:35Z</time></trkpt><trkpt lat="60.2359953616" lon="30.6728209555"><ele>53.49</ele><time>2025-07-27T22:29:43Z</time></trkpt><trkpt lat="60.2360224351" lon="30.6727836560"><ele>53.01</ele><time>2025-07-27T22:29:50Z</time></trkpt><trkpt lat="60.2360383607" lon="30.6728579197"><ele>52.53</ele><time>2025-07-27T22:30:05Z</time></trkpt><trkpt lat="60.2360218484" lon="30.6729127374"><ele>53.01</ele><time>2025-07-27T22:30:22Z</time></trkpt><trkpt lat="60.2360399533" lon="30.6729847379"><ele>53.01</ele><time>2025-07-27T22:30:44Z</time></trkpt><trkpt lat="60.2360748220" lon="30.6728059519"><ele>52.05</ele><time>2025-07-27T22:30:56Z</time></trkpt><trkpt lat="60.2361398656" lon="30.6727031060"><ele>52.53</ele><time>2025-07-27T22:31:05Z</time></trkpt><trkpt lat="60.2362251934" lon="30.6726342905"><ele>52.05</ele><time>2025-07-27T22:31:14Z</time></trkpt><trkpt lat="60.2362801787" lon="30.6725930516"><ele>52.05</ele><time>2025-07-27T22:31:22Z</time></trkpt><trkpt lat="60.2363403607" lon="30.6725396588"><ele>52.05</ele><time>2025-07-27T22:31:29Z</time></trkpt><trkpt lat="60.2364313882" lon="30.6724294368"><ele>52.53</ele><time>2025-07-27T22:31:35Z</time></trkpt><trkpt lat="60.2364617307" lon="30.6724177860"><ele>52.05</ele><time>2025-07-27T22:31:42Z</time></trkpt><trkpt lat="60.2365237568" lon="30.6723719370"><ele>51.57</ele><time>2025-07-27T22:31:50Z</time></trkpt><trkpt lat="60.2365833521" lon="30.6723775528"><ele>51.57</ele><time>2025-07-27T22:31:58Z</time></trkpt><trkpt lat="60.2366475575" lon="30.6723874435"><ele>51.57</ele><time>2025-07-27T22:32:05Z</time></trkpt><trkpt lat="60.2367084101" lon="30.6723841745"><ele>51.09</ele><time>2025-07-27T22:32:12Z</time></trkpt><trkpt lat="60.2367939055" lon="30.6724094879"><ele>51.09</ele><time>2025-07-27T22:32:19Z</time></trkpt><trkpt lat="60.2368636429" lon="30.6724168640"><ele>51.57</ele><time>2025-07-27T22:32:27Z</time></trkpt><trkpt lat="60.2369146049" lon="30.6723710150"><ele>52.05</ele><time>2025-07-27T22:32:33Z</time></trkpt><trkpt lat="60.2369713504" lon="30.6723488029"><ele>52.05</ele><time>2025-07-27T22:32:39Z</time></trkpt><trkpt lat="60.2370423451" lon="30.6723321229"><ele>52.05</ele><time>2025-07-27T22:32:46Z</time></trkpt><trkpt lat="60.2371287625" lon="30.6723465398"><ele>51.57</ele><time>2025-07-27T22:32:54Z</time></trkpt><trkpt lat="60.2372316923" lon="30.6723846775"><ele>51.57</ele><time>2025-07-27T22:33:02Z</time></trkpt><trkpt lat="60.2373083867" lon="30.6723797321"><ele>51.09</ele><time>2025-07-27T22:33:08Z</time></trkpt><trkpt lat="60.2373730950" lon="30.6723697577"><ele>51.09</ele><time>2025-07-27T22:33:15Z</time></trkpt><trkpt lat="60.2374631166" lon="30.6723686680"><ele>51.09</ele><time>2025-07-27T22:33:24Z</time></trkpt><trkpt lat="60.2375490312" lon="30.6723520719"><ele>50.61</ele><time>2025-07-27T22:33:32Z</time></trkpt><trkpt lat="60.2376209479" lon="30.6723452825"><ele>50.61</ele><time>2025-07-27T22:33:41Z</time></trkpt><trkpt lat="60.2376227081" lon="30.6723469589"><ele>50.13</ele><time>2025-07-27T22:33:49Z</time></trkpt><trkpt lat="60.2376205288" lon="30.6723619625"><ele>50.13</ele><time>2025-07-27T22:34:02Z</time></trkpt><trkpt lat="60.2376246359" lon="30.6723452825"><ele>49.65</ele><time>2025-07-27T22:34:17Z</time></trkpt><trkpt lat="60.2376367897" lon="30.6723087374"><ele>49.65</ele><time>2025-07-27T22:34:29Z</time></trkpt><trkpt lat="60.2376477700" lon="30.6722955778"><ele>49.65</ele><time>2025-07-27T22:34:47Z</time></trkpt><trkpt lat="60.2376849018" lon="30.6723162811"><ele>49.16</ele><time>2025-07-27T22:34:56Z</time></trkpt><trkpt lat="60.2377608418" lon="30.6723183766"><ele>49.65</ele><time>2025-07-27T22:35:01Z</time></trkpt><trkpt lat="60.2378788590" lon="30.6723058037"><ele>49.16</ele><time>2025-07-27T22:35:10Z</time></trkpt><trkpt lat="60.2379361074" lon="30.6723087374"><ele>49.16</ele><time>2025-07-27T22:35:19Z</time></trkpt><trkpt lat="60.2380064316" lon="30.6723344699"><ele>50.61</ele><time>2025-07-27T22:35:27Z</time></trkpt><trkpt lat="60.2380713914" lon="30.6723363977"><ele>50.13</ele><time>2025-07-27T22:35:35Z</time></trkpt><trkpt lat="60.2381794341" lon="30.6723220646"><ele>49.65</ele><time>2025-07-27T22:35:44Z</time></trkpt><trkpt lat="60.2382726409" lon="30.6723125931"><ele>49.65</ele><time>2025-07-27T22:35:52Z</time></trkpt><trkpt lat="60.2383593936" lon="30.6723301113"><ele>49.65</ele><time>2025-07-27T22:36:00Z</time></trkpt><trkpt lat="60.2384538576" lon="30.6723292731"><ele>50.13</ele><time>2025-07-27T22:36:10Z</time></trkpt><trkpt lat="60.2385815140" lon="30.6723206397"><ele>49.16</ele><time>2025-07-27T22:36:21Z</time></trkpt><trkpt lat="60.2386499103" lon="30.6723233219"><ele>49.16</ele><time>2025-07-27T22:36:29Z</time></trkpt><trkpt lat="60.2387193125" lon="30.6723251659"><ele>49.65</ele><time>2025-07-27T22:36:39Z</time></trkpt><trkpt lat="60.2387726214" lon="30.6723164488"><ele>49.65</ele><time>2025-07-27T22:36:48Z</time></trkpt><trkpt lat="60.2388385031" lon="30.6722988468"><ele>49.65</ele><time>2025-07-27T22:36:58Z</time></trkpt><trkpt lat="60.2388487291" lon="30.6722966675"><ele>49.16</ele><time>2025-07-27T22:37:04Z</time></trkpt><trkpt lat="60.2388503216" lon="30.6722672470"><ele>48.68</ele><time>2025-07-27T22:37:19Z</time></trkpt><trkpt lat="60.2388544288" lon="30.6722233258"><ele>48.68</ele><time>2025-07-27T22:37:35Z</time></trkpt><trkpt lat="60.2388388384" lon="30.6722055562"><ele>48.68</ele><time>2025-07-27T22:37:46Z</time></trkpt><trkpt lat="60.2388222422" lon="30.6721971743"><ele>48.68</ele><time>2025-07-27T22:37:55Z</time></trkpt><trkpt lat="60.2388233319" lon="30.6721877865"><ele>47.72</ele><time>2025-07-27T22:38:07Z</time></trkpt><trkpt lat="60.2388327196" lon="30.6720886286"><ele>48.20</ele><time>2025-07-27T22:38:20Z</time></trkpt><trkpt lat="60.2388182189" lon="30.6720816717"><ele>47.72</ele><time>2025-07-27T22:38:32Z</time></trkpt><trkpt lat="60.2388423588" lon="30.6721078232"><ele>47.72</ele><time>2025-07-27T22:38:46Z</time></trkpt><trkpt lat="60.2388445381" lon="30.6721658260"><ele>48.20</ele><time>2025-07-27T22:39:03Z</time></trkpt><trkpt lat="60.2388611343" lon="30.6721271854"><ele>49.16</ele><time>2025-07-27T22:39:11Z</time></trkpt><trkpt lat="60.2388799936" lon="30.6721126009"><ele>48.20</ele><time>2025-07-27T22:39:17Z</time></trkpt><trkpt lat="60.2389238309" lon="30.6721544266"><ele>47.72</ele><time>2025-07-27T22:39:29Z</time></trkpt><trkpt lat="60.2389363199" lon="30.6721735373"><ele>47.72</ele><time>2025-07-27T22:39:51Z</time></trkpt><trkpt lat="60.2389958315" lon="30.6721523311"><ele>48.20</ele><time>2025-07-27T22:40:09Z</time></trkpt><trkpt lat="60.2389239147" lon="30.6720587891"><ele>48.20</ele><time>2025-07-27T22:40:20Z</time></trkpt><trkpt lat="60.2388764732" lon="30.6719523389"><ele>48.20</ele><time>2025-07-27T22:40:27Z</time></trkpt><trkpt lat="60.2388720307" lon="30.6719090044"><ele>48.20</ele><time>2025-07-27T22:40:34Z</time></trkpt><trkpt lat="60.2388383355" lon="30.6719139498"><ele>48.68</ele><time>2025-07-27T22:40:44Z</time></trkpt><trkpt lat="60.2387866192" lon="30.6717782468"><ele>48.68</ele><time>2025-07-27T22:40:52Z</time></trkpt><trkpt lat="60.2387647424" lon="30.6716529373"><ele>49.65</ele><time>2025-07-27T22:41:00Z</time></trkpt><trkpt lat="60.2387308795" lon="30.6715926714"><ele>49.65</ele><time>2025-07-27T22:41:09Z</time></trkpt><trkpt lat="60.2387065720" lon="30.6715544499"><ele>49.16</ele><time>2025-07-27T22:41:17Z</time></trkpt><trkpt lat="60.2386530116" lon="30.6715300586"><ele>49.65</ele><time>2025-07-27T22:41:25Z</time></trkpt><trkpt lat="60.2386480663" lon="30.6714873109"><ele>49.65</ele><time>2025-07-27T22:41:29Z</time></trkpt><trkpt lat="60.2386117727" lon="30.6714944355"><ele>49.65</ele><time>2025-07-27T22:41:35Z</time></trkpt><trkpt lat="60.2385975234" lon="30.6714111194"><ele>49.65</ele><time>2025-07-27T22:41:41Z</time></trkpt><trkpt lat="60.2385619003" lon="30.6713574752"><ele>50.13</ele><time>2025-07-27T22:41:50Z</time></trkpt><trkpt lat="60.2386046480" lon="30.6713056751"><ele>49.65</ele><time>2025-07-27T22:41:58Z</time></trkpt><trkpt lat="60.2385784127" lon="30.6712673698"><ele>49.16</ele><time>2025-07-27T22:42:09Z</time></trkpt><trkpt lat="60.2385281213" lon="30.6711900886"><ele>49.65</ele><time>2025-07-27T22:42:24Z</time></trkpt><trkpt lat="60.2385629900" lon="30.6711523701"><ele>49.65</ele><time>2025-07-27T22:42:44Z</time></trkpt><trkpt lat="60.2385369223" lon="30.6711286493"><ele>49.65</ele><time>2025-07-27T22:42:56Z</time></trkpt><trkpt lat="60.2385021374" lon="30.6710147392"><ele>50.13</ele><time>2025-07-27T22:43:17Z</time></trkpt><trkpt lat="60.2385194041" lon="30.6710851472"><ele>50.61</ele><time>2025-07-27T22:43:29Z</time></trkpt><trkpt lat="60.2384848706" lon="30.6710649468"><ele>50.13</ele><time>2025-07-27T22:43:35Z</time></trkpt><trkpt lat="60.2384338249" lon="30.6711138971"><ele>50.13</ele><time>2025-07-27T22:43:43Z</time></trkpt><trkpt lat="60.2383952681" lon="30.6711807847"><ele>50.13</ele><time>2025-07-27T22:43:51Z</time></trkpt><trkpt lat="60.2383396961" lon="30.6712202635"><ele>50.61</ele><time>2025-07-27T22:43:59Z</time></trkpt><trkpt lat="60.2382852975" lon="30.6712475047"><ele>50.61</ele><time>2025-07-27T22:44:06Z</time></trkpt><trkpt lat="60.2382450644" lon="30.6712334231"><ele>50.61</ele><time>2025-07-27T22:44:14Z</time></trkpt><trkpt lat="60.2381832059" lon="30.6712619215"><ele>50.61</ele><time>2025-07-27T22:44:21Z</time></trkpt><trkpt lat="60.2381262928" lon="30.6711825449"><ele>50.61</ele><time>2025-07-27T22:44:30Z</time></trkpt><trkpt lat="60.2381212637" lon="30.6711484306"><ele>50.13</ele><time>2025-07-27T22:44:39Z</time></trkpt><trkpt lat="60.2380765881" lon="30.6710845605"><ele>50.13</ele><time>2025-07-27T22:44:47Z</time></trkpt><trkpt lat="60.2380231116" lon="30.6710399687"><ele>50.61</ele><time>2025-07-27T22:44:55Z</time></trkpt><trkpt lat="60.2379986364" lon="30.6710260548"><ele>50.13</ele><time>2025-07-27T22:44:58Z</time></trkpt><trkpt lat="60.2379671205" lon="30.6710111350"><ele>50.61</ele><time>2025-07-27T22:45:05Z</time></trkpt><trkpt lat="60.2379373647" lon="30.6709325965"><ele>51.09</ele><time>2025-07-27T22:45:12Z</time></trkpt><trkpt lat="60.2378707286" lon="30.6709033437"><ele>51.09</ele><time>2025-07-27T22:45:21Z</time></trkpt><trkpt lat="60.2378129773" lon="30.6709414814"><ele>50.13</ele><time>2025-07-27T22:45:28Z</time></trkpt><trkpt lat="60.2377427369" lon="30.6709094625"><ele>50.61</ele><time>2025-07-27T22:45:36Z</time></trkpt><trkpt lat="60.2376781963" lon="30.6709094625"><ele>51.09</ele><time>2025-07-27T22:45:46Z</time></trkpt><trkpt lat="60.2376479376" lon="30.6708388869"><ele>52.53</ele><time>2025-07-27T22:45:54Z</time></trkpt><trkpt lat="60.2376168407" lon="30.6707465183"><ele>52.53</ele><time>2025-07-27T22:46:03Z</time></trkpt><trkpt lat="60.2375979815" lon="30.6707072910"><ele>52.05</ele><time>2025-07-27T22:46:06Z</time></trkpt><trkpt lat="60.2376061119" lon="30.6706486177"><ele>52.05</ele><time>2025-07-27T22:46:13Z</time></trkpt><trkpt lat="60.2375597600" lon="30.6705632061"><ele>51.09</ele><time>2025-07-27T22:46:19Z</time></trkpt><trkpt lat="60.2375186048" lon="30.6704249885"><ele>51.09</ele><time>2025-07-27T22:46:28Z</time></trkpt><trkpt lat="60.2375405654" lon="30.6704791356"><ele>51.09</ele><time>2025-07-27T22:46:35Z</time></trkpt><trkpt lat="60.2375395596" lon="30.6704803091"><ele>50.61</ele><time>2025-07-27T22:46:46Z</time></trkpt><trkpt lat="60.2375493664" lon="30.6704432610"><ele>50.61</ele><time>2025-07-27T22:46:55Z</time></trkpt><trkpt lat="60.2375358716" lon="30.6702757906"><ele>51.09</ele><time>2025-07-27T22:47:03Z</time></trkpt><trkpt lat="60.2375295013" lon="30.6702102441"><ele>51.09</ele><time>2025-07-27T22:47:10Z</time></trkpt><trkpt lat="60.2375590056" lon="30.6702943984"><ele>50.61</ele><time>2025-07-27T22:47:21Z</time></trkpt><trkpt lat="60.2375663817" lon="30.6703590229"><ele>50.61</ele><time>2025-07-27T22:47:36Z</time></trkpt><trkpt lat="60.2375557367" lon="30.6703423429"><ele>50.61</ele><time>2025-07-27T22:47:48Z</time></trkpt><trkpt lat="60.2375009190" lon="30.6702886987"><ele>50.61</ele><time>2025-07-27T22:47:59Z</time></trkpt><trkpt lat="60.2375171799" lon="30.6701938994"><ele>50.61</ele><time>2025-07-27T22:48:14Z</time></trkpt><trkpt lat="60.2375381347" lon="30.6701651495"><ele>50.61</ele><time>2025-07-27T22:48:34Z</time></trkpt><trkpt lat="60.2375054453" lon="30.6701261736"><ele>50.61</ele><time>2025-07-27T22:48:46Z</time></trkpt><trkpt lat="60.2374934591" lon="30.6700110063"><ele>50.61</ele><time>2025-07-27T22:48:55Z</time></trkpt><trkpt lat="60.2374945488" lon="30.6699711923"><ele>50.61</ele><time>2025-07-27T22:49:02Z</time></trkpt><trkpt lat="60.2374905255" lon="30.6699068192"><ele>50.61</ele><time>2025-07-27T22:49:09Z</time></trkpt><trkpt lat="60.2375139948" lon="30.6698661670"><ele>51.09</ele><time>2025-07-27T22:49:16Z</time></trkpt><trkpt lat="60.2374785393" lon="30.6697447971"><ele>50.61</ele><time>2025-07-27T22:49:25Z</time></trkpt><trkpt lat="60.2374491189" lon="30.6696819328"><ele>50.61</ele><time>2025-07-27T22:49:32Z</time></trkpt><trkpt lat="60.2374523878" lon="30.6696765684"><ele>50.13</ele><time>2025-07-27T22:49:41Z</time></trkpt><trkpt lat="60.2374269068" lon="30.6696137041"><ele>49.65</ele><time>2025-07-27T22:49:49Z</time></trkpt><trkpt lat="60.2373502124" lon="30.6696208287"><ele>50.13</ele><time>2025-07-27T22:49:56Z</time></trkpt><trkpt lat="60.2373160981" lon="30.6695681065"><ele>50.13</ele><time>2025-07-27T22:50:04Z</time></trkpt><trkpt lat="60.2372964844" lon="30.6695490796"><ele>50.13</ele><time>2025-07-27T22:50:15Z</time></trkpt><trkpt lat="60.2372789662" lon="30.6695035659"><ele>50.61</ele><time>2025-07-27T22:50:32Z</time></trkpt><trkpt lat="60.2372347098" lon="30.6695039012"><ele>50.61</ele><time>2025-07-27T22:50:39Z</time></trkpt><trkpt lat="60.2372068819" lon="30.6694587227"><ele>50.61</ele><time>2025-07-27T22:50:47Z</time></trkpt><trkpt lat="60.2371455263" lon="30.6694510113"><ele>51.09</ele><time>2025-07-27T22:50:53Z</time></trkpt><trkpt lat="60.2371166088" lon="30.6693371851"><ele>51.09</ele><time>2025-07-27T22:51:00Z</time></trkpt><trkpt lat="60.2370796446" lon="30.6691995542"><ele>50.61</ele><time>2025-07-27T22:51:08Z</time></trkpt><trkpt lat="60.2370306104" lon="30.6691419706"><ele>50.61</ele><time>2025-07-27T22:51:15Z</time></trkpt><trkpt lat="60.2370025311" lon="30.6690475065"><ele>50.13</ele><time>2025-07-27T22:51:23Z</time></trkpt><trkpt lat="60.2369779721" lon="30.6689902581"><ele>50.61</ele><time>2025-07-27T22:51:32Z</time></trkpt><trkpt lat="60.2369585261" lon="30.6689374521"><ele>50.13</ele><time>2025-07-27T22:51:44Z</time></trkpt><trkpt lat="60.2369281836" lon="30.6689403020"><ele>51.09</ele><time>2025-07-27T22:51:55Z</time></trkpt><trkpt lat="60.2369058877" lon="30.6688383780"><ele>51.09</ele><time>2025-07-27T22:52:04Z</time></trkpt><trkpt lat="60.2368795685" lon="30.6687548105"><ele>51.57</ele><time>2025-07-27T22:52:12Z</time></trkpt><trkpt lat="60.2368489746" lon="30.6687225401"><ele>51.09</ele><time>2025-07-27T22:52:19Z</time></trkpt><trkpt lat="60.2368521597" lon="30.6686405651"><ele>51.09</ele><time>2025-07-27T22:52:25Z</time></trkpt><trkpt lat="60.2367996052" lon="30.6684767827"><ele>50.61</ele><time>2025-07-27T22:52:35Z</time></trkpt><trkpt lat="60.2367570251" lon="30.6684529781"><ele>50.61</ele><time>2025-07-27T22:52:41Z</time></trkpt><trkpt lat="60.2367300354" lon="30.6684313528"><ele>50.61</ele><time>2025-07-27T22:52:48Z</time></trkpt><trkpt lat="60.2367250063" lon="30.6683918741"><ele>51.09</ele><time>2025-07-27T22:52:55Z</time></trkpt><trkpt lat="60.2367043868" lon="30.6683812290"><ele>51.57</ele><time>2025-07-27T22:53:05Z</time></trkpt><trkpt lat="60.2366688475" lon="30.6683617830"><ele>51.57</ele><time>2025-07-27T22:53:12Z</time></trkpt><trkpt lat="60.2366344817" lon="30.6683718413"><ele>51.09</ele><time>2025-07-27T22:53:20Z</time></trkpt><trkpt lat="60.2365908958" lon="30.6683500484"><ele>50.61</ele><time>2025-07-27T22:53:28Z</time></trkpt><trkpt lat="60.2365928236" lon="30.6683218013"><ele>51.09</ele><time>2025-07-27T22:53:35Z</time></trkpt><trkpt lat="60.2366223279" lon="30.6682570931"><ele>51.57</ele><time>2025-07-27T22:53:53Z</time></trkpt><trkpt lat="60.2366267703" lon="30.6682586018"><ele>51.09</ele><time>2025-07-27T22:54:04Z</time></trkpt><trkpt lat="60.2366079949" lon="30.6683135871"><ele>50.61</ele><time>2025-07-27T22:54:22Z</time></trkpt><trkpt lat="60.2365727071" lon="30.6683175266"><ele>50.61</ele><time>2025-07-27T22:54:33Z</time></trkpt><trkpt lat="60.2365430351" lon="30.6684087217"><ele>50.61</ele><time>2025-07-27T22:54:45Z</time></trkpt><trkpt lat="60.2365243435" lon="30.6684200373"><ele>50.61</ele><time>2025-07-27T22:54:56Z</time></trkpt><trkpt lat="60.2364894748" lon="30.6684553251"><ele>50.61</ele><time>2025-07-27T22:55:02Z</time></trkpt><trkpt lat="60.2364579588" lon="30.6685046107"><ele>50.61</ele><time>2025-07-27T22:55:11Z</time></trkpt><trkpt lat="60.2364716213" lon="30.6685287505"><ele>51.09</ele><time>2025-07-27T22:55:28Z</time></trkpt><trkpt lat="60.2364778239" lon="30.6686320156"><ele>50.61</ele><time>2025-07-27T22:55:40Z</time></trkpt><trkpt lat="60.2364620660" lon="30.6686348654"><ele>51.09</ele><time>2025-07-27T22:55:54Z</time></trkpt><trkpt lat="60.2364799194" lon="30.6686517131"><ele>50.61</ele><time>2025-07-27T22:56:12Z</time></trkpt><trkpt lat="60.2364777401" lon="30.6686331891"><ele>51.09</ele><time>2025-07-27T22:56:23Z</time></trkpt><trkpt lat="60.2364135347" lon="30.6686601788"><ele>51.57</ele><time>2025-07-27T22:56:31Z</time></trkpt><trkpt lat="60.2363708708" lon="30.6687418185"><ele>51.57</ele><time>2025-07-27T22:56:38Z</time></trkpt><trkpt lat="60.2363402769" lon="30.6687501166"><ele>51.57</ele><time>2025-07-27T22:56:46Z</time></trkpt><trkpt lat="60.2363017201" lon="30.6687631924"><ele>52.53</ele><time>2025-07-27T22:56:53Z</time></trkpt><trkpt lat="60.2362631634" lon="30.6687532179"><ele>52.53</ele><time>2025-07-27T22:56:58Z</time></trkpt><trkpt lat="60.2362230141" lon="30.6687501166"><ele>52.53</ele><time>2025-07-27T22:57:06Z</time></trkpt><trkpt lat="60.2361640893" lon="30.6687377114"><ele>52.53</ele><time>2025-07-27T22:57:14Z</time></trkpt><trkpt lat="60.2361371834" lon="30.6686341111"><ele>52.53</ele><time>2025-07-27T22:57:21Z</time></trkpt><trkpt lat="60.2361343335" lon="30.6686440017"><ele>53.01</ele><time>2025-07-27T22:57:35Z</time></trkpt><trkpt lat="60.2361149713" lon="30.6685492862"><ele>53.01</ele><time>2025-07-27T22:57:43Z</time></trkpt><trkpt lat="60.2360938489" lon="30.6684623659"><ele>53.01</ele><time>2025-07-27T22:57:51Z</time></trkpt><trkpt lat="60.2360806055" lon="30.6683766190"><ele>53.01</ele><time>2025-07-27T22:57:59Z</time></trkpt><trkpt lat="60.2360666916" lon="30.6682440173"><ele>53.01</ele><time>2025-07-27T22:58:07Z</time></trkpt><trkpt lat="60.2360521071" lon="30.6681418419"><ele>53.01</ele><time>2025-07-27T22:58:14Z</time></trkpt><trkpt lat="60.2360348403" lon="30.6680270098"><ele>53.01</ele><time>2025-07-27T22:58:22Z</time></trkpt><trkpt lat="60.2360338345" lon="30.6679156143"><ele>53.01</ele><time>2025-07-27T22:58:29Z</time></trkpt><trkpt lat="60.2360020671" lon="30.6678411830"><ele>53.01</ele><time>2025-07-27T22:58:37Z</time></trkpt><trkpt lat="60.2360113710" lon="30.6678242516"><ele>53.49</ele><time>2025-07-27T22:58:40Z</time></trkpt><trkpt lat="60.2359913383" lon="30.6677363254"><ele>52.53</ele><time>2025-07-27T22:58:46Z</time></trkpt><trkpt lat="60.2359837107" lon="30.6676503271"><ele>53.01</ele><time>2025-07-27T22:58:54Z</time></trkpt><trkpt lat="60.2359624207" lon="30.6675458048"><ele>52.53</ele><time>2025-07-27T22:59:01Z</time></trkpt><trkpt lat="60.2359092794" lon="30.6674657576"><ele>53.49</ele><time>2025-07-27T22:59:10Z</time></trkpt><trkpt lat="60.2358661126" lon="30.6673253607"><ele>53.49</ele><time>2025-07-27T22:59:19Z</time></trkpt><trkpt lat="60.2358055953" lon="30.6672603171"><ele>53.49</ele><time>2025-07-27T22:59:27Z</time></trkpt><trkpt lat="60.2357646916" lon="30.6672380213"><ele>53.49</ele><time>2025-07-27T22:59:34Z</time></trkpt><trkpt lat="60.2357360255" lon="30.6672549527"><ele>53.49</ele><time>2025-07-27T22:59:41Z</time></trkpt><trkpt lat="60.2357127238" lon="30.6671391148"><ele>53.01</ele><time>2025-07-27T22:59:50Z</time></trkpt><trkpt lat="60.2356841415" lon="30.6671238597"><ele>53.49</ele><time>2025-07-27T22:59:56Z</time></trkpt><trkpt lat="60.2356413938" lon="30.6670899969"><ele>53.01</ele><time>2025-07-27T23:00:03Z</time></trkpt><trkpt lat="60.2356158290" lon="30.6670653541"><ele>53.49</ele><time>2025-07-27T23:00:13Z</time></trkpt><trkpt lat="60.2355842292" lon="30.6670503505"><ele>53.01</ele><time>2025-07-27T23:00:21Z</time></trkpt><trkpt lat="60.2356058545" lon="30.6671060901"><ele>53.01</ele><time>2025-07-27T23:00:29Z</time></trkpt><trkpt lat="60.2356210258" lon="30.6670665275"><ele>52.53</ele><time>2025-07-27T23:00:41Z</time></trkpt><trkpt lat="60.2356128115" lon="30.6670555472"><ele>53.01</ele><time>2025-07-27T23:00:50Z</time></trkpt><trkpt lat="60.2355815470" lon="30.6670939364"><ele>53.01</ele><time>2025-07-27T23:01:03Z</time></trkpt><trkpt lat="60.2355978917" lon="30.6671381928"><ele>53.97</ele><time>2025-07-27T23:01:15Z</time></trkpt><trkpt lat="60.2355982270" lon="30.6671623327"><ele>53.49</ele><time>2025-07-27T23:01:25Z</time></trkpt><trkpt lat="60.2355631068" lon="30.6672807690"><ele>53.97</ele><time>2025-07-27T23:01:40Z</time></trkpt><trkpt lat="60.2355152462" lon="30.6671438925"><ele>53.49</ele><time>2025-07-27T23:01:49Z</time></trkpt><trkpt lat="60.2354725823" lon="30.6669673696"><ele>53.49</ele><time>2025-07-27T23:01:56Z</time></trkpt><trkpt lat="60.2354522143" lon="30.6668503582"><ele>54.45</ele><time>2025-07-27T23:02:04Z</time></trkpt><trkpt lat="60.2354350314" lon="30.6668294873"><ele>53.97</ele><time>2025-07-27T23:02:14Z</time></trkpt><trkpt lat="60.2354051080" lon="30.6668487657"><ele>53.97</ele><time>2025-07-27T23:02:26Z</time></trkpt><trkpt lat="60.2353986539" lon="30.6666814629"><ele>53.97</ele><time>2025-07-27T23:02:37Z</time></trkpt><trkpt lat="60.2353777830" lon="30.6666701473"><ele>53.97</ele><time>2025-07-27T23:02:46Z</time></trkpt><trkpt lat="60.2353525534" lon="30.6666434091"><ele>53.97</ele><time>2025-07-27T23:02:52Z</time></trkpt><trkpt lat="60.2353263181" lon="30.6666165031"><ele>53.97</ele><time>2025-07-27T23:03:01Z</time></trkpt><trkpt lat="60.2352933772" lon="30.6665423233"><ele>54.93</ele><time>2025-07-27T23:03:09Z</time></trkpt><trkpt lat="60.2352806367" lon="30.6664459314"><ele>53.97</ele><time>2025-07-27T23:03:17Z</time></trkpt><trkpt lat="60.2352117375" lon="30.6663735118"><ele>54.45</ele><time>2025-07-27T23:03:24Z</time></trkpt><trkpt lat="60.2351724263" lon="30.6662642956"><ele>54.45</ele><time>2025-07-27T23:03:31Z</time></trkpt><trkpt lat="60.2351028565" lon="30.6662116572"><ele>54.45</ele><time>2025-07-27T23:03:40Z</time></trkpt><trkpt lat="60.2350632101" lon="30.6661611143"><ele>54.45</ele><time>2025-07-27T23:03:47Z</time></trkpt><trkpt lat="60.2350440994" lon="30.6660504732"><ele>54.45</ele><time>2025-07-27T23:03:56Z</time></trkpt><trkpt lat="60.2349953167" lon="30.6659051310"><ele>54.45</ele><time>2025-07-27T23:04:04Z</time></trkpt><trkpt lat="60.2349650580" lon="30.6658600364"><ele>54.93</ele><time>2025-07-27T23:04:11Z</time></trkpt><trkpt lat="60.2349334583" lon="30.6657544244"><ele>54.93</ele><time>2025-07-27T23:04:19Z</time></trkpt><trkpt lat="60.2349211369" lon="30.6657084078"><ele>54.45</ele><time>2025-07-27T23:04:33Z</time></trkpt><trkpt lat="60.2349215560" lon="30.6656946614"><ele>54.45</ele><time>2025-07-27T23:04:43Z</time></trkpt><trkpt lat="60.2349254955" lon="30.6656449568"><ele>54.93</ele><time>2025-07-27T23:04:52Z</time></trkpt><trkpt lat="60.2349243220" lon="30.6655493192"><ele>54.93</ele><time>2025-07-27T23:05:02Z</time></trkpt><trkpt lat="60.2349009365" lon="30.6655154563"><ele>54.45</ele><time>2025-07-27T23:05:11Z</time></trkpt><trkpt lat="60.2348721866" lon="30.6654825155"><ele>54.93</ele><time>2025-07-27T23:05:19Z</time></trkpt><trkpt lat="60.2348337136" lon="30.6654151250"><ele>54.45</ele><time>2025-07-27T23:05:27Z</time></trkpt><trkpt lat="60.2347748727" lon="30.6653278694"><ele>54.93</ele><time>2025-07-27T23:05:37Z</time></trkpt><trkpt lat="60.2347677480" lon="30.6652919110"><ele>54.45</ele><time>2025-07-27T23:05:46Z</time></trkpt><trkpt lat="60.2347801533" lon="30.6652310584"><ele>54.93</ele><time>2025-07-27T23:05:58Z</time></trkpt><trkpt lat="60.2347860206" lon="30.6652197428"><ele>54.93</ele><time>2025-07-27T23:06:14Z</time></trkpt><trkpt lat="60.2348088194" lon="30.6652002968"><ele>54.93</ele><time>2025-07-27T23:06:32Z</time></trkpt><trkpt lat="60.2347851824" lon="30.6651840359"><ele>54.93</ele><time>2025-07-27T23:06:44Z</time></trkpt><trkpt lat="60.2347717714" lon="30.6652290467"><ele>54.93</ele><time>2025-07-27T23:06:56Z</time></trkpt><trkpt lat="60.2347370703" lon="30.6651447248"><ele>54.93</ele><time>2025-07-27T23:07:07Z</time></trkpt><trkpt lat="60.2347132657" lon="30.6651541963"><ele>55.41</ele><time>2025-07-27T23:07:19Z</time></trkpt><trkpt lat="60.2346794866" lon="30.6651240215"><ele>54.93</ele><time>2025-07-27T23:07:28Z</time></trkpt><trkpt lat="60.2345744614" lon="30.6651065871"><ele>55.89</ele><time>2025-07-27T23:07:39Z</time></trkpt><trkpt lat="60.2345219068" lon="30.6649613287"><ele>54.93</ele><time>2025-07-27T23:07:47Z</time></trkpt><trkpt lat="60.2345007006" lon="30.6648911722"><ele>55.89</ele><time>2025-07-27T23:07:54Z</time></trkpt><trkpt lat="60.2344631497" lon="30.6648398750"><ele>55.89</ele><time>2025-07-27T23:08:00Z</time></trkpt><trkpt lat="60.2344023809" lon="30.6647654437"><ele>55.41</ele><time>2025-07-27T23:08:09Z</time></trkpt><trkpt lat="60.2343592979" lon="30.6646944489"><ele>56.37</ele><time>2025-07-27T23:08:19Z</time></trkpt><trkpt lat="60.2343396842" lon="30.6646507792"><ele>55.41</ele><time>2025-07-27T23:08:26Z</time></trkpt><trkpt lat="60.2342968527" lon="30.6646046788"><ele>55.41</ele><time>2025-07-27T23:08:35Z</time></trkpt><trkpt lat="60.2342757303" lon="30.6645235419"><ele>55.41</ele><time>2025-07-27T23:08:45Z</time></trkpt><trkpt lat="60.2342198230" lon="30.6645010784"><ele>55.41</ele><time>2025-07-27T23:08:53Z</time></trkpt><trkpt lat="60.2341696993" lon="30.6644398067"><ele>55.89</ele><time>2025-07-27T23:09:02Z</time></trkpt><trkpt lat="60.2341547795" lon="30.6643719133"><ele>56.37</ele><time>2025-07-27T23:09:09Z</time></trkpt><trkpt lat="60.2341187373" lon="30.6643014215"><ele>56.37</ele><time>2025-07-27T23:09:18Z</time></trkpt><trkpt lat="60.2340919990" lon="30.6642405689"><ele>55.89</ele><time>2025-07-27T23:09:25Z</time></trkpt><trkpt lat="60.2340623271" lon="30.6641829014"><ele>55.89</ele><time>2025-07-27T23:09:34Z</time></trkpt><trkpt lat="60.2339960262" lon="30.6640964001"><ele>55.89</ele><time>2025-07-27T23:09:43Z</time></trkpt><trkpt lat="60.2339554578" lon="30.6640304346"><ele>56.37</ele><time>2025-07-27T23:09:52Z</time></trkpt><trkpt lat="60.2339368500" lon="30.6639529858"><ele>55.89</ele><time>2025-07-27T23:09:59Z</time></trkpt><trkpt lat="60.2339389455" lon="30.6638040394"><ele>55.89</ele><time>2025-07-27T23:10:07Z</time></trkpt><trkpt lat="60.2338819485" lon="30.6637695897"><ele>55.89</ele><time>2025-07-27T23:10:13Z</time></trkpt><trkpt lat="60.2338433918" lon="30.6637859344"><ele>55.89</ele><time>2025-07-27T23:10:20Z</time></trkpt><trkpt lat="60.2338055056" lon="30.6637481321"><ele>55.89</ele><time>2025-07-27T23:10:28Z</time></trkpt><trkpt lat="60.2337810304" lon="30.6636733655"><ele>56.37</ele><time>2025-07-27T23:10:37Z</time></trkpt><trkpt lat="60.2337508556" lon="30.6636063103"><ele>55.89</ele><time>2025-07-27T23:10:46Z</time></trkpt><trkpt lat="60.2336801961" lon="30.6634929869"><ele>56.86</ele><time>2025-07-27T23:10:54Z</time></trkpt><trkpt lat="60.2336299885" lon="30.6634628121"><ele>56.37</ele><time>2025-07-27T23:11:02Z</time></trkpt><trkpt lat="60.2336038370" lon="30.6633566972"><ele>55.41</ele><time>2025-07-27T23:11:11Z</time></trkpt><trkpt lat="60.2335957065" lon="30.6633226667"><ele>55.41</ele><time>2025-07-27T23:11:20Z</time></trkpt><trkpt lat="60.2336108778" lon="30.6633459684"><ele>55.41</ele><time>2025-07-27T23:11:33Z</time></trkpt><trkpt lat="60.2335887495" lon="30.6633936614"><ele>55.41</ele><time>2025-07-27T23:11:45Z</time></trkpt><trkpt lat="60.2335822117" lon="30.6633542664"><ele>54.93</ele><time>2025-07-27T23:11:57Z</time></trkpt><trkpt lat="60.2335869055" lon="30.6633339822"><ele>54.93</ele><time>2025-07-27T23:12:13Z</time></trkpt><trkpt lat="60.2336149849" lon="30.6635079067"><ele>54.93</ele><time>2025-07-27T23:12:31Z</time></trkpt><trkpt lat="60.2336377837" lon="30.6632126123"><ele>55.41</ele><time>2025-07-27T23:12:41Z</time></trkpt><trkpt lat="60.2336028311" lon="30.6632033084"><ele>55.41</ele><time>2025-07-27T23:12:54Z</time></trkpt><trkpt lat="60.2335855644" lon="30.6633514166"><ele>56.37</ele><time>2025-07-27T23:13:02Z</time></trkpt><trkpt lat="60.2335660346" lon="30.6633671746"><ele>55.89</ele><time>2025-07-27T23:13:14Z</time></trkpt><trkpt lat="60.2335760091" lon="30.6633396819"><ele>56.86</ele><time>2025-07-27T23:13:24Z</time></trkpt><trkpt lat="60.2335429844" lon="30.6632964313"><ele>55.41</ele><time>2025-07-27T23:13:36Z</time></trkpt><trkpt lat="60.2334926091" lon="30.6631970219"><ele>55.89</ele><time>2025-07-27T23:13:45Z</time></trkpt><trkpt lat="60.2334849816" lon="30.6631641649"><ele>56.37</ele><time>2025-07-27T23:13:57Z</time></trkpt><trkpt lat="60.2334888373" lon="30.6631509215"><ele>56.37</ele><time>2025-07-27T23:14:05Z</time></trkpt><trkpt lat="60.2334921900" lon="30.6631142087"><ele>55.89</ele><time>2025-07-27T23:14:17Z</time></trkpt><trkpt lat="60.2334800363" lon="30.6631033961"><ele>56.37</ele><time>2025-07-27T23:14:34Z</time></trkpt><trkpt lat="60.2334252186" lon="30.6630884763"><ele>56.37</ele><time>2025-07-27T23:14:48Z</time></trkpt><trkpt lat="60.2334222011" lon="30.6630932540"><ele>55.89</ele><time>2025-07-27T23:15:08Z</time></trkpt><trkpt lat="60.2334350254" lon="30.6631273683"><ele>55.89</ele><time>2025-07-27T23:15:21Z</time></trkpt><trkpt lat="60.2333992347" lon="30.6630028132"><ele>56.37</ele><time>2025-07-27T23:15:39Z</time></trkpt><trkpt lat="60.2334538847" lon="30.6630652584"><ele>56.37</ele><time>2025-07-27T23:15:51Z</time></trkpt><trkpt lat="60.2334978059" lon="30.6631223392"><ele>56.37</ele><time>2025-07-27T23:16:11Z</time></trkpt><trkpt lat="60.2335118875" lon="30.6631101016"><ele>55.89</ele><time>2025-07-27T23:16:25Z</time></trkpt><trkpt lat="60.2335275616" lon="30.6630571280"><ele>55.89</ele><time>2025-07-27T23:16:43Z</time></trkpt><trkpt lat="60.2334507834" lon="30.6630694494"><ele>56.37</ele><time>2025-07-27T23:17:04Z</time></trkpt><trkpt lat="60.2334182616" lon="30.6629994605"><ele>56.37</ele><time>2025-07-27T23:17:23Z</time></trkpt><trkpt lat="60.2333874162" lon="30.6629234366"><ele>56.37</ele><time>2025-07-27T23:17:45Z</time></trkpt><trkpt lat="60.2334626019" lon="30.6629704591"><ele>56.37</ele><time>2025-07-27T23:18:02Z</time></trkpt><trkpt lat="60.2335118875" lon="30.6630132906"><ele>56.37</ele><time>2025-07-27T23:18:20Z</time></trkpt><trkpt lat="60.2335658669" lon="30.6630013883"><ele>56.37</ele><time>2025-07-27T23:18:40Z</time></trkpt><trkpt lat="60.2335049305" lon="30.6631263625"><ele>55.89</ele><time>2025-07-27T23:18:55Z</time></trkpt><trkpt lat="60.2334787790" lon="30.6632058229"><ele>55.41</ele><time>2025-07-27T23:19:07Z</time></trkpt><trkpt lat="60.2334772702" lon="30.6631499995"><ele>55.89</ele><time>2025-07-27T23:19:27Z</time></trkpt><trkpt lat="60.2334898431" lon="30.6631358340"><ele>55.89</ele><time>2025-07-27T23:19:44Z</time></trkpt><trkpt lat="60.2335900906" lon="30.6632236764"><ele>55.89</ele><time>2025-07-27T23:20:11Z</time></trkpt><trkpt lat="60.2335861512" lon="30.6632598862"><ele>56.37</ele><time>2025-07-27T23:20:35Z</time></trkpt><trkpt lat="60.2335474268" lon="30.6631076708"><ele>57.34</ele><time>2025-07-27T23:20:49Z</time></trkpt><trkpt lat="60.2335498575" lon="30.6630554516"><ele>57.34</ele><time>2025-07-27T23:21:07Z</time></trkpt><trkpt lat="60.2335433196" lon="30.6630266178"><ele>57.34</ele><time>2025-07-27T23:21:20Z</time></trkpt><trkpt lat="60.2335455827" lon="30.6630411185"><ele>57.82</ele><time>2025-07-27T23:21:34Z</time></trkpt><trkpt lat="60.2335542161" lon="30.6630116142"><ele>58.78</ele><time>2025-07-27T23:21:50Z</time></trkpt><trkpt lat="60.2335509472" lon="30.6630295515"><ele>57.82</ele><time>2025-07-27T23:21:59Z</time></trkpt><trkpt lat="60.2335260529" lon="30.6631142087"><ele>57.82</ele><time>2025-07-27T23:22:13Z</time></trkpt><trkpt lat="60.2335084509" lon="30.6630439684"><ele>58.30</ele><time>2025-07-27T23:22:26Z</time></trkpt><trkpt lat="60.2335027512" lon="30.6630331557"><ele>58.30</ele><time>2025-07-27T23:22:40Z</time></trkpt><trkpt lat="60.2335063554" lon="30.6630318146"><ele>58.30</ele><time>2025-07-27T23:22:53Z</time></trkpt><trkpt lat="60.2334852330" lon="30.6631396059"><ele>57.82</ele><time>2025-07-27T23:23:05Z</time></trkpt><trkpt lat="60.2335374523" lon="30.6632140372"><ele>58.78</ele><time>2025-07-27T23:23:20Z</time></trkpt><trkpt lat="60.2335016616" lon="30.6632385124"><ele>58.78</ele><time>2025-07-27T23:23:35Z</time></trkpt><trkpt lat="60.2335264720" lon="30.6632313039"><ele>59.26</ele><time>2025-07-27T23:23:46Z</time></trkpt><trkpt lat="60.2335680462" lon="30.6632185634"><ele>58.78</ele><time>2025-07-27T23:23:57Z</time></trkpt><trkpt lat="60.2336083632" lon="30.6631778274"><ele>58.78</ele><time>2025-07-27T23:24:16Z</time></trkpt><trkpt lat="60.2335460857" lon="30.6632189825"><ele>58.78</ele><time>2025-07-27T23:24:24Z</time></trkpt><trkpt lat="60.2335312497" lon="30.6632607244"><ele>58.30</ele><time>2025-07-27T23:24:43Z</time></trkpt><trkpt lat="60.2335361950" lon="30.6631277036"><ele>58.30</ele><time>2025-07-27T23:24:59Z</time></trkpt><trkpt lat="60.2335464209" lon="30.6630428787"><ele>58.30</ele><time>2025-07-27T23:25:18Z</time></trkpt><trkpt lat="60.2335516177" lon="30.6630812678"><ele>59.26</ele><time>2025-07-27T23:25:33Z</time></trkpt><trkpt lat="60.2335720696" lon="30.6633504108"><ele>59.26</ele><time>2025-07-27T23:25:42Z</time></trkpt><trkpt lat="60.2335812058" lon="30.6634349003"><ele>59.26</ele><time>2025-07-27T23:25:48Z</time></trkpt><trkpt lat="60.2336321678" lon="30.6634639855"><ele>58.78</ele><time>2025-07-27T23:25:56Z</time></trkpt><trkpt lat="60.2336589899" lon="30.6635597907"><ele>59.26</ele><time>2025-07-27T23:26:04Z</time></trkpt><trkpt lat="60.2337015700" lon="30.6637050491"><ele>59.74</ele><time>2025-07-27T23:26:17Z</time></trkpt><trkpt lat="60.2337432280" lon="30.6638115831"><ele>59.26</ele><time>2025-07-27T23:26:26Z</time></trkpt><trkpt lat="60.2337729000" lon="30.6639048737"><ele>59.74</ele><time>2025-07-27T23:26:34Z</time></trkpt><trkpt lat="60.2337829582" lon="30.6640031096"><ele>58.78</ele><time>2025-07-27T23:26:41Z</time></trkpt><trkpt lat="60.2338117082" lon="30.6641283352"><ele>59.26</ele><time>2025-07-27T23:26:49Z</time></trkpt><trkpt lat="60.2338278852" lon="30.6641385611"><ele>58.78</ele><time>2025-07-27T23:26:55Z</time></trkpt><trkpt lat="60.2338595688" lon="30.6642295048"><ele>58.78</ele><time>2025-07-27T23:27:03Z</time></trkpt><trkpt lat="60.2338906657" lon="30.6643125694"><ele>58.78</ele><time>2025-07-27T23:27:12Z</time></trkpt><trkpt lat="60.2339031547" lon="30.6644335203"><ele>58.78</ele><time>2025-07-27T23:27:20Z</time></trkpt><trkpt lat="60.2338956110" lon="30.6644797046"><ele>58.78</ele><time>2025-07-27T23:27:27Z</time></trkpt><trkpt lat="60.2338961139" lon="30.6645381264"><ele>58.78</ele><time>2025-07-27T23:27:34Z</time></trkpt><trkpt lat="60.2338753268" lon="30.6646485999"><ele>59.26</ele><time>2025-07-27T23:27:42Z</time></trkpt><trkpt lat="60.2338840440" lon="30.6648563035"><ele>58.78</ele><time>2025-07-27T23:27:51Z</time></trkpt><trkpt lat="60.2338431403" lon="30.6649147253"><ele>58.78</ele><time>2025-07-27T23:27:57Z</time></trkpt><trkpt lat="60.2338179946" lon="30.6649789307"><ele>58.78</ele><time>2025-07-27T23:28:06Z</time></trkpt><trkpt lat="60.2337490954" lon="30.6650511827"><ele>58.78</ele><time>2025-07-27T23:28:16Z</time></trkpt><trkpt lat="60.2337256260" lon="30.6651104428"><ele>58.78</ele><time>2025-07-27T23:28:24Z</time></trkpt><trkpt lat="60.2336839680" lon="30.6651598960"><ele>58.78</ele><time>2025-07-27T23:28:34Z</time></trkpt><trkpt lat="60.2336528711" lon="30.6652355846"><ele>58.78</ele><time>2025-07-27T23:28:42Z</time></trkpt><trkpt lat="60.2336327545" lon="30.6653511710"><ele>58.30</ele><time>2025-07-27T23:28:52Z</time></trkpt><trkpt lat="60.2336097881" lon="30.6654341519"><ele>58.30</ele><time>2025-07-27T23:28:58Z</time></trkpt><trkpt lat="60.2336259652" lon="30.6655359920"><ele>58.30</ele><time>2025-07-27T23:29:04Z</time></trkpt><trkpt lat="60.2335926890" lon="30.6655985210"><ele>58.30</ele><time>2025-07-27T23:29:11Z</time></trkpt><trkpt lat="60.2335785236" lon="30.6657387502"><ele>58.30</ele><time>2025-07-27T23:29:19Z</time></trkpt><trkpt lat="60.2335615084" lon="30.6658913009"><ele>58.30</ele><time>2025-07-27T23:29:25Z</time></trkpt><trkpt lat="60.2335227840" lon="30.6660337932"><ele>58.30</ele><time>2025-07-27T23:29:31Z</time></trkpt><trkpt lat="60.2335118037" lon="30.6661006808"><ele>58.30</ele><time>2025-07-27T23:29:39Z</time></trkpt><trkpt lat="60.2334982250" lon="30.6661675684"><ele>57.82</ele><time>2025-07-27T23:29:48Z</time></trkpt><trkpt lat="60.2335128933" lon="30.6662893575"><ele>58.30</ele><time>2025-07-27T23:29:55Z</time></trkpt><trkpt lat="60.2335118037" lon="30.6664269883"><ele>58.78</ele><time>2025-07-27T23:30:03Z</time></trkpt><trkpt lat="60.2335294057" lon="30.6665131543"><ele>58.30</ele><time>2025-07-27T23:30:12Z</time></trkpt><trkpt lat="60.2335480973" lon="30.6665716600"><ele>58.30</ele><time>2025-07-27T23:30:20Z</time></trkpt><trkpt lat="60.2335777692" lon="30.6666145753"><ele>57.82</ele><time>2025-07-27T23:30:28Z</time></trkpt><trkpt lat="60.2336289827" lon="30.6666835584"><ele>57.82</ele><time>2025-07-27T23:30:35Z</time></trkpt><trkpt lat="60.2336427290" lon="30.6667786930"><ele>57.82</ele><time>2025-07-27T23:30:43Z</time></trkpt><trkpt lat="60.2336672042" lon="30.6668870710"><ele>57.82</ele><time>2025-07-27T23:30:50Z</time></trkpt><trkpt lat="60.2336799446" lon="30.6670032442"><ele>57.82</ele><time>2025-07-27T23:30:58Z</time></trkpt><trkpt lat="60.2336867340" lon="30.6671023183"><ele>57.82</ele><time>2025-07-27T23:31:06Z</time></trkpt><trkpt lat="60.2337072697" lon="30.6672079302"><ele>57.34</ele><time>2025-07-27T23:31:15Z</time></trkpt><trkpt lat="60.2337260451" lon="30.6673302222"><ele>57.82</ele><time>2025-07-27T23:31:23Z</time></trkpt><trkpt lat="60.2337476704" lon="30.6674379297"><ele>57.82</ele><time>2025-07-27T23:31:32Z</time></trkpt><trkpt lat="60.2337558009" lon="30.6675245985"><ele>57.34</ele><time>2025-07-27T23:31:40Z</time></trkpt><trkpt lat="60.2337881550" lon="30.6676745508"><ele>57.82</ele><time>2025-07-27T23:31:50Z</time></trkpt><trkpt lat="60.2338040806" lon="30.6677421927"><ele>57.34</ele><time>2025-07-27T23:31:59Z</time></trkpt><trkpt lat="60.2338356804" lon="30.6678103376"><ele>57.34</ele><time>2025-07-27T23:32:06Z</time></trkpt><trkpt lat="60.2338732313" lon="30.6678903848"><ele>57.82</ele><time>2025-07-27T23:32:13Z</time></trkpt><trkpt lat="60.2339444775" lon="30.6679409277"><ele>57.82</ele><time>2025-07-27T23:32:21Z</time></trkpt><trkpt lat="60.2339936793" lon="30.6680050492"><ele>57.34</ele><time>2025-07-27T23:32:28Z</time></trkpt><trkpt lat="60.2340265363" lon="30.6680963282"><ele>57.34</ele><time>2025-07-27T23:32:36Z</time></trkpt><trkpt lat="60.2340562921" lon="30.6681951508"><ele>57.82</ele><time>2025-07-27T23:32:45Z</time></trkpt><trkpt lat="60.2340852935" lon="30.6682498008"><ele>57.82</ele><time>2025-07-27T23:32:53Z</time></trkpt><trkpt lat="60.2340903226" lon="30.6682303548"><ele>57.34</ele><time>2025-07-27T23:33:00Z</time></trkpt><trkpt lat="60.2341144625" lon="30.6681325380"><ele>57.34</ele><time>2025-07-27T23:33:08Z</time></trkpt><trkpt lat="60.2341469005" lon="30.6681130920"><ele>56.86</ele><time>2025-07-27T23:33:15Z</time></trkpt><trkpt lat="60.2341961861" lon="30.6680841744"><ele>57.82</ele><time>2025-07-27T23:33:23Z</time></trkpt><trkpt lat="60.2342668455" lon="30.6681991741"><ele>57.34</ele><time>2025-07-27T23:33:31Z</time></trkpt><trkpt lat="60.2342970204" lon="30.6682955660"><ele>57.34</ele><time>2025-07-27T23:33:37Z</time></trkpt><trkpt lat="60.2343425341" lon="30.6684265751"><ele>57.34</ele><time>2025-07-27T23:33:47Z</time></trkpt><trkpt lat="60.2343763970" lon="30.6685095560"><ele>57.34</ele><time>2025-07-27T23:33:54Z</time></trkpt><trkpt lat="60.2344148699" lon="30.6686021760"><ele>57.34</ele><time>2025-07-27T23:34:02Z</time></trkpt><trkpt lat="60.2344385069" lon="30.6686838157"><ele>57.34</ele><time>2025-07-27T23:34:08Z</time></trkpt><trkpt lat="60.2344735432" lon="30.6687385496"><ele>57.34</ele><time>2025-07-27T23:34:16Z</time></trkpt><trkpt lat="60.2344913129" lon="30.6688367855"><ele>57.34</ele><time>2025-07-27T23:34:25Z</time></trkpt><trkpt lat="60.2345449571" lon="30.6688387971"><ele>56.86</ele><time>2025-07-27T23:34:34Z</time></trkpt><trkpt lat="60.2345917281" lon="30.6689138990"><ele>57.34</ele><time>2025-07-27T23:34:41Z</time></trkpt><trkpt lat="60.2346543409" lon="30.6690098718"><ele>57.34</ele><time>2025-07-27T23:34:48Z</time></trkpt><trkpt lat="60.2346800733" lon="30.6691014860"><ele>56.86</ele><time>2025-07-27T23:34:54Z</time></trkpt><trkpt lat="60.2347163670" lon="30.6691759173"><ele>56.37</ele><time>2025-07-27T23:35:01Z</time></trkpt><trkpt lat="60.2347133495" lon="30.6692381110"><ele>56.86</ele><time>2025-07-27T23:35:08Z</time></trkpt><trkpt lat="60.2347265929" lon="30.6692517735"><ele>56.37</ele><time>2025-07-27T23:35:18Z</time></trkpt><trkpt lat="60.2347400878" lon="30.6693133805"><ele>56.37</ele><time>2025-07-27T23:35:32Z</time></trkpt><trkpt lat="60.2347529959" lon="30.6693304796"><ele>57.34</ele><time>2025-07-27T23:35:44Z</time></trkpt><trkpt lat="60.2347864397" lon="30.6693907455"><ele>56.86</ele><time>2025-07-27T23:35:51Z</time></trkpt><trkpt lat="60.2348415926" lon="30.6694437191"><ele>56.86</ele><time>2025-07-27T23:35:59Z</time></trkpt><trkpt lat="60.2349011041" lon="30.6695016380"><ele>56.86</ele><time>2025-07-27T23:36:07Z</time></trkpt><trkpt lat="60.2349324524" lon="30.6696274504"><ele>56.86</ele><time>2025-07-27T23:36:15Z</time></trkpt><trkpt lat="60.2349450253" lon="30.6697716191"><ele>56.86</ele><time>2025-07-27T23:36:24Z</time></trkpt><trkpt lat="60.2349438518" lon="30.6698762253"><ele>56.86</ele><time>2025-07-27T23:36:32Z</time></trkpt><trkpt lat="60.2349746134" lon="30.6699920632"><ele>56.86</ele><time>2025-07-27T23:36:40Z</time></trkpt><trkpt lat="60.2349853422" lon="30.6700706016"><ele>57.34</ele><time>2025-07-27T23:36:46Z</time></trkpt><trkpt lat="60.2349957358" lon="30.6701204740"><ele>56.37</ele><time>2025-07-27T23:36:52Z</time></trkpt><trkpt lat="60.2350181155" lon="30.6702550873"><ele>56.37</ele><time>2025-07-27T23:37:00Z</time></trkpt><trkpt lat="60.2350233961" lon="30.6703448575"><ele>56.37</ele><time>2025-07-27T23:37:07Z</time></trkpt><trkpt lat="60.2350259945" lon="30.6704668142"><ele>56.86</ele><time>2025-07-27T23:37:17Z</time></trkpt><trkpt lat="60.2350298502" lon="30.6705293432"><ele>55.89</ele><time>2025-07-27T23:37:25Z</time></trkpt><trkpt lat="60.2350841649" lon="30.6705883518"><ele>56.37</ele><time>2025-07-27T23:37:33Z</time></trkpt><trkpt lat="60.2351176087" lon="30.6706335302"><ele>56.37</ele><time>2025-07-27T23:37:40Z</time></trkpt><trkpt lat="60.2351208776" lon="30.6707659643"><ele>56.86</ele><time>2025-07-27T23:37:48Z</time></trkpt><trkpt lat="60.2351466939" lon="30.6708358694"><ele>56.37</ele><time>2025-07-27T23:37:54Z</time></trkpt><trkpt lat="60.2351465262" lon="30.6709203590"><ele>56.37</ele><time>2025-07-27T23:38:00Z</time></trkpt><trkpt lat="60.2351363841" lon="30.6710129790"><ele>55.89</ele><time>2025-07-27T23:38:07Z</time></trkpt><trkpt lat="60.2351171058" lon="30.6711233687"><ele>55.89</ele><time>2025-07-27T23:38:17Z</time></trkpt><trkpt lat="60.2350771241" lon="30.6711361092"><ele>55.41</ele><time>2025-07-27T23:38:31Z</time></trkpt><trkpt lat="60.2350399923" lon="30.6712147314"><ele>55.41</ele><time>2025-07-27T23:38:41Z</time></trkpt><trkpt lat="60.2350477874" lon="30.6712669507"><ele>55.41</ele><time>2025-07-27T23:38:49Z</time></trkpt><trkpt lat="60.2350797225" lon="30.6713894103"><ele>55.41</ele><time>2025-07-27T23:38:58Z</time></trkpt><trkpt lat="60.2351038624" lon="30.6714830361"><ele>55.89</ele><time>2025-07-27T23:39:05Z</time></trkpt><trkpt lat="60.2350841649" lon="30.6715838704"><ele>55.89</ele><time>2025-07-27T23:39:12Z</time></trkpt><trkpt lat="60.2350604441" lon="30.6717103533"><ele>55.89</ele><time>2025-07-27T23:39:20Z</time></trkpt><trkpt lat="60.2350483742" lon="30.6717789173"><ele>55.41</ele><time>2025-07-27T23:39:27Z</time></trkpt><trkpt lat="60.2350541577" lon="30.6718450505"><ele>55.41</ele><time>2025-07-27T23:39:33Z</time></trkpt><trkpt lat="60.2350630425" lon="30.6719308812"><ele>55.41</ele><time>2025-07-27T23:39:40Z</time></trkpt><trkpt lat="60.2350775432" lon="30.6720520835"><ele>55.41</ele><time>2025-07-27T23:39:49Z</time></trkpt><trkpt lat="60.2350686584" lon="30.6721587013"><ele>54.93</ele><time>2025-07-27T23:39:55Z</time></trkpt><trkpt lat="60.2350739390" lon="30.6722596195"><ele>55.41</ele><time>2025-07-27T23:40:02Z</time></trkpt><trkpt lat="60.2350577619" lon="30.6723763794"><ele>55.41</ele><time>2025-07-27T23:40:10Z</time></trkpt><trkpt lat="60.2350715920" lon="30.6724807341"><ele>54.93</ele><time>2025-07-27T23:40:18Z</time></trkpt><trkpt lat="60.2350505535" lon="30.6725814007"><ele>55.41</ele><time>2025-07-27T23:40:27Z</time></trkpt><trkpt lat="60.2350569237" lon="30.6726682372"><ele>55.41</ele><time>2025-07-27T23:40:35Z</time></trkpt><trkpt lat="60.2350723464" lon="30.6727640424"><ele>55.41</ele><time>2025-07-27T23:40:41Z</time></trkpt><trkpt lat="60.2350675687" lon="30.6728818081"><ele>54.93</ele><time>2025-07-27T23:40:49Z</time></trkpt><trkpt lat="60.2350341249" lon="30.6729422417"><ele>55.41</ele><time>2025-07-27T23:40:57Z</time></trkpt><trkpt lat="60.2350295987" lon="30.6730438303"><ele>55.41</ele><time>2025-07-27T23:41:03Z</time></trkpt><trkpt lat="60.2350335382" lon="30.6731575727"><ele>54.93</ele><time>2025-07-27T23:41:11Z</time></trkpt><trkpt lat="60.2350401599" lon="30.6733005680"><ele>55.41</ele><time>2025-07-27T23:41:19Z</time></trkpt><trkpt lat="60.2350374777" lon="30.6734060124"><ele>54.93</ele><time>2025-07-27T23:41:27Z</time></trkpt><trkpt lat="60.2350037824" lon="30.6734858081"><ele>54.45</ele><time>2025-07-27T23:41:35Z</time></trkpt><trkpt lat="60.2350398246" lon="30.6736070942"><ele>54.93</ele><time>2025-07-27T23:41:44Z</time></trkpt><trkpt lat="60.2350895293" lon="30.6736524403"><ele>55.89</ele><time>2025-07-27T23:41:52Z</time></trkpt><trkpt lat="60.2350738551" lon="30.6736855488"><ele>55.41</ele><time>2025-07-27T23:41:58Z</time></trkpt><trkpt lat="60.2350280900" lon="30.6737125386"><ele>55.41</ele><time>2025-07-27T23:42:09Z</time></trkpt><trkpt lat="60.2349626273" lon="30.6737875566"><ele>54.93</ele><time>2025-07-27T23:42:21Z</time></trkpt><trkpt lat="60.2349271718" lon="30.6738593057"><ele>54.93</ele><time>2025-07-27T23:42:27Z</time></trkpt><trkpt lat="60.2349390741" lon="30.6739729643"><ele>55.41</ele><time>2025-07-27T23:42:35Z</time></trkpt><trkpt lat="60.2348765451" lon="30.6740183104"><ele>54.93</ele><time>2025-07-27T23:42:42Z</time></trkpt><trkpt lat="60.2348445263" lon="30.6739899796"><ele>55.41</ele><time>2025-07-27T23:42:51Z</time></trkpt><trkpt lat="60.2348874416" lon="30.6740937475"><ele>55.41</ele><time>2025-07-27T23:43:09Z</time></trkpt><trkpt lat="60.2348767128" lon="30.6741096731"><ele>55.41</ele><time>2025-07-27T23:43:23Z</time></trkpt><trkpt lat="60.2347845118" lon="30.6741962582"><ele>54.93</ele><time>2025-07-27T23:43:31Z</time></trkpt><trkpt lat="60.2347296104" lon="30.6742120162"><ele>54.93</ele><time>2025-07-27T23:43:35Z</time></trkpt><trkpt lat="60.2346479706" lon="30.6742468849"><ele>54.93</ele><time>2025-07-27T23:43:43Z</time></trkpt><trkpt lat="60.2345387544" lon="30.6741965096"><ele>54.93</ele><time>2025-07-27T23:43:53Z</time></trkpt><trkpt lat="60.2344685141" lon="30.6742503215"><ele>55.41</ele><time>2025-07-27T23:44:02Z</time></trkpt><trkpt lat="60.2343800012" lon="30.6743415166"><ele>54.45</ele><time>2025-07-27T23:44:11Z</time></trkpt><trkpt lat="60.2342800051" lon="30.6744220667"><ele>54.45</ele><time>2025-07-27T23:44:20Z</time></trkpt><trkpt lat="60.2342101838" lon="30.6744893733"><ele>54.45</ele><time>2025-07-27T23:44:27Z</time></trkpt><trkpt lat="60.2340984531" lon="30.6745506451"><ele>53.97</ele><time>2025-07-27T23:44:35Z</time></trkpt><trkpt lat="60.2340271231" lon="30.6746330392"><ele>53.49</ele><time>2025-07-27T23:44:43Z</time></trkpt><trkpt lat="60.2340013068" lon="30.6746847555"><ele>53.49</ele><time>2025-07-27T23:44:47Z</time></trkpt><trkpt lat="60.2339497581" lon="30.6748067122"><ele>53.49</ele><time>2025-07-27T23:44:54Z</time></trkpt><trkpt lat="60.2339075971" lon="30.6749257352"><ele>52.53</ele><time>2025-07-27T23:45:00Z</time></trkpt><trkpt lat="60.2338941861" lon="30.6749632861"><ele>52.53</ele><time>2025-07-27T23:45:02Z</time></trkpt><trkpt lat="60.2338604070" lon="30.6751451734"><ele>51.57</ele><time>2025-07-27T23:45:10Z</time></trkpt><trkpt lat="60.2338456549" lon="30.6752677169"><ele>51.09</ele><time>2025-07-27T23:45:17Z</time></trkpt><trkpt lat="60.2338433918" lon="30.6752845645"><ele>50.61</ele><time>2025-07-27T23:45:18Z</time></trkpt><trkpt lat="60.2338066790" lon="30.6754221953"><ele>50.61</ele><time>2025-07-27T23:45:25Z</time></trkpt><trkpt lat="60.2337853052" lon="30.6755302381"><ele>49.65</ele><time>2025-07-27T23:45:31Z</time></trkpt><trkpt lat="60.2337749954" lon="30.6755935214"><ele>50.13</ele><time>2025-07-27T23:45:34Z</time></trkpt><trkpt lat="60.2337340917" lon="30.6757167354"><ele>50.13</ele><time>2025-07-27T23:45:41Z</time></trkpt><trkpt lat="60.2337189205" lon="30.6757686194"><ele>50.13</ele><time>2025-07-27T23:45:44Z</time></trkpt><trkpt lat="60.2336998936" lon="30.6758547854"><ele>50.13</ele><time>2025-07-27T23:45:48Z</time></trkpt><trkpt lat="60.2336853091" lon="30.6759447232"><ele>51.09</ele><time>2025-07-27T23:45:54Z</time></trkpt><trkpt lat="60.2336703893" lon="30.6760220882"><ele>51.09</ele><time>2025-07-27T23:45:59Z</time></trkpt><trkpt lat="60.2336283121" lon="30.6761433743"><ele>51.57</ele><time>2025-07-27T23:46:07Z</time></trkpt><trkpt lat="60.2335945331" lon="30.6762709469"><ele>52.05</ele><time>2025-07-27T23:46:13Z</time></trkpt><trkpt lat="60.2335544676" lon="30.6763628963"><ele>52.53</ele><time>2025-07-27T23:46:18Z</time></trkpt><trkpt lat="60.2335497737" lon="30.6764601264"><ele>53.01</ele><time>2025-07-27T23:46:23Z</time></trkpt><trkpt lat="60.2335246280" lon="30.6765683368"><ele>53.01</ele><time>2025-07-27T23:46:28Z</time></trkpt><trkpt lat="60.2335182577" lon="30.6767113321"><ele>53.01</ele><time>2025-07-27T23:46:35Z</time></trkpt><trkpt lat="60.2334973868" lon="30.6768568419"><ele>53.49</ele><time>2025-07-27T23:46:40Z</time></trkpt><trkpt lat="60.2334499452" lon="30.6769993342"><ele>53.49</ele><time>2025-07-27T23:46:47Z</time></trkpt><trkpt lat="60.2334263921" lon="30.6771190278"><ele>53.97</ele><time>2025-07-27T23:46:53Z</time></trkpt><trkpt lat="60.2334148251" lon="30.6772364583"><ele>54.45</ele><time>2025-07-27T23:46:58Z</time></trkpt><trkpt lat="60.2333890088" lon="30.6773362029"><ele>53.97</ele><time>2025-07-27T23:47:04Z</time></trkpt><trkpt lat="60.2333916072" lon="30.6773693953"><ele>53.97</ele><time>2025-07-27T23:47:11Z</time></trkpt><trkpt lat="60.2333627734" lon="30.6773763523"><ele>53.49</ele><time>2025-07-27T23:47:21Z</time></trkpt><trkpt lat="60.2333366219" lon="30.6773528829"><ele>54.45</ele><time>2025-07-27T23:47:33Z</time></trkpt><trkpt lat="60.2333404776" lon="30.6773346942"><ele>53.49</ele><time>2025-07-27T23:47:46Z</time></trkpt><trkpt lat="60.2333456744" lon="30.6773690600"><ele>53.97</ele><time>2025-07-27T23:47:57Z</time></trkpt><trkpt lat="60.2333419863" lon="30.6775351055"><ele>53.97</ele><time>2025-07-27T23:48:08Z</time></trkpt><trkpt lat="60.2334227879" lon="30.6775541324"><ele>53.97</ele><time>2025-07-27T23:48:19Z</time></trkpt><trkpt lat="60.2334008273" lon="30.6776002329"><ele>53.97</ele><time>2025-07-27T23:48:31Z</time></trkpt><trkpt lat="60.2334249672" lon="30.6776229478"><ele>53.97</ele><time>2025-07-27T23:48:50Z</time></trkpt><trkpt lat="60.2334165853" lon="30.6776435673"><ele>53.97</ele><time>2025-07-27T23:49:06Z</time></trkpt><trkpt lat="60.2333923616" lon="30.6776428968"><ele>54.45</ele><time>2025-07-27T23:49:15Z</time></trkpt><trkpt lat="60.2333951276" lon="30.6775738299"><ele>53.97</ele><time>2025-07-27T23:49:32Z</time></trkpt><trkpt lat="60.2333944570" lon="30.6775863189"><ele>52.53</ele><time>2025-07-27T23:49:38Z</time></trkpt><trkpt lat="60.2333978936" lon="30.6775783561"><ele>54.45</ele><time>2025-07-27T23:49:44Z</time></trkpt><trkpt lat="60.2333807945" lon="30.6775890011"><ele>53.97</ele><time>2025-07-27T23:49:56Z</time></trkpt><trkpt lat="60.2333646175" lon="30.6775545515"><ele>54.45</ele><time>2025-07-27T23:50:09Z</time></trkpt><trkpt lat="60.2333911881" lon="30.6774918549"><ele>54.45</ele><time>2025-07-27T23:50:21Z</time></trkpt><trkpt lat="60.2333561517" lon="30.6775028352"><ele>54.45</ele><time>2025-07-27T23:50:36Z</time></trkpt><trkpt lat="60.2332931198" lon="30.6774175074"><ele>54.45</ele><time>2025-07-27T23:50:52Z</time></trkpt><trkpt lat="60.2333309222" lon="30.6773744244"><ele>54.45</ele><time>2025-07-27T23:51:04Z</time></trkpt><trkpt lat="60.2333478536" lon="30.6774037611"><ele>54.45</ele><time>2025-07-27T23:51:21Z</time></trkpt><trkpt lat="60.2333554812" lon="30.6774285715"><ele>54.93</ele><time>2025-07-27T23:51:35Z</time></trkpt><trkpt lat="60.2333341073" lon="30.6774504483"><ele>54.45</ele><time>2025-07-27T23:51:48Z</time></trkpt><trkpt lat="60.2333239652" lon="30.6774599198"><ele>53.01</ele><time>2025-07-27T23:51:53Z</time></trkpt><trkpt lat="60.2333453391" lon="30.6773885060"><ele>53.01</ele><time>2025-07-27T23:52:13Z</time></trkpt><trkpt lat="60.2333431598" lon="30.6774651166"><ele>52.53</ele><time>2025-07-27T23:52:32Z</time></trkpt><trkpt lat="60.2333349455" lon="30.6774140708"><ele>53.01</ele><time>2025-07-27T23:52:45Z</time></trkpt><trkpt lat="60.2333399747" lon="30.6774521247"><ele>52.53</ele><time>2025-07-27T23:52:58Z</time></trkpt><trkpt lat="60.2333377954" lon="30.6775675435"><ele>52.53</ele><time>2025-07-27T23:53:12Z</time></trkpt><trkpt lat="60.2332551498" lon="30.6778620835"><ele>52.05</ele><time>2025-07-27T23:53:22Z</time></trkpt><trkpt lat="60.2331295889" lon="30.6782580446"><ele>52.53</ele><time>2025-07-27T23:53:35Z</time></trkpt><trkpt lat="60.2330206241" lon="30.6785596255"><ele>52.53</ele><time>2025-07-27T23:53:49Z</time></trkpt><trkpt lat="60.2329461090" lon="30.6787567679"><ele>51.57</ele><time>2025-07-27T23:54:01Z</time></trkpt><trkpt lat="60.2327646408" lon="30.6790986657"><ele>51.57</ele><time>2025-07-27T23:54:15Z</time></trkpt><trkpt lat="60.2326519880" lon="30.6790386513"><ele>51.09</ele><time>2025-07-27T23:54:24Z</time></trkpt><trkpt lat="60.2326116711" lon="30.6790423393"><ele>51.09</ele><time>2025-07-27T23:54:36Z</time></trkpt><trkpt lat="60.2325513214" lon="30.6791767851"><ele>50.61</ele><time>2025-07-27T23:54:49Z</time></trkpt><trkpt lat="60.2325131837" lon="30.6792436726"><ele>50.61</ele><time>2025-07-27T23:54:52Z</time></trkpt><trkpt lat="60.2322763111" lon="30.6793182716"><ele>51.09</ele><time>2025-07-27T23:55:00Z</time></trkpt><trkpt lat="60.2321919054" lon="30.6792993285"><ele>51.09</ele><time>2025-07-27T23:55:09Z</time></trkpt><trkpt lat="60.2320749778" lon="30.6792573351"><ele>51.57</ele><time>2025-07-27T23:55:19Z</time></trkpt><trkpt lat="60.2320287097" lon="30.6795239635"><ele>51.57</ele><time>2025-07-27T23:55:29Z</time></trkpt><trkpt lat="60.2320058271" lon="30.6796978880"><ele>51.09</ele><time>2025-07-27T23:55:36Z</time></trkpt><trkpt lat="60.2320044022" lon="30.6797226984"><ele>51.57</ele><time>2025-07-27T23:55:37Z</time></trkpt><trkpt lat="60.2319783345" lon="30.6801086012"><ele>51.09</ele><time>2025-07-27T23:55:49Z</time></trkpt><trkpt lat="60.2319603972" lon="30.6805452146"><ele>51.09</ele><time>2025-07-27T23:56:03Z</time></trkpt><trkpt lat="60.2318573836" lon="30.6807970908"><ele>51.09</ele><time>2025-07-27T23:56:13Z</time></trkpt><trkpt lat="60.2315371111" lon="30.6810345501"><ele>50.61</ele><time>2025-07-27T23:56:24Z</time></trkpt><trkpt lat="60.2313649468" lon="30.6812601909"><ele>50.61</ele><time>2025-07-27T23:56:36Z</time></trkpt><trkpt lat="60.2311351150" lon="30.6815096363"><ele>49.65</ele><time>2025-07-27T23:56:50Z</time></trkpt><trkpt lat="60.2309335303" lon="30.6815707404"><ele>50.61</ele><time>2025-07-27T23:57:02Z</time></trkpt><trkpt lat="60.2306949813" lon="30.6814608537"><ele>51.57</ele><time>2025-07-27T23:57:13Z</time></trkpt><trkpt lat="60.2303536702" lon="30.6814005878"><ele>51.57</ele><time>2025-07-27T23:57:26Z</time></trkpt><trkpt lat="60.2299891412" lon="30.6819202658"><ele>50.61</ele><time>2025-07-27T23:57:37Z</time></trkpt><trkpt lat="60.2297609020" lon="30.6823078450"><ele>50.61</ele><time>2025-07-27T23:57:47Z</time></trkpt><trkpt lat="60.2295635920" lon="30.6824607309"><ele>51.09</ele><time>2025-07-27T23:57:58Z</time></trkpt><trkpt lat="60.2293149009" lon="30.6827530917"><ele>50.61</ele><time>2025-07-27T23:58:10Z</time></trkpt><trkpt lat="60.2290970553" lon="30.6831058860"><ele>49.65</ele><time>2025-07-27T23:58:20Z</time></trkpt><trkpt lat="60.2288694866" lon="30.6835181918"><ele>50.61</ele><time>2025-07-27T23:58:32Z</time></trkpt><trkpt lat="60.2286141738" lon="30.6839243788"><ele>51.09</ele><time>2025-07-27T23:58:45Z</time></trkpt><trkpt lat="60.2283957414" lon="30.6843811087"><ele>51.09</ele><time>2025-07-27T23:58:57Z</time></trkpt><trkpt lat="60.2282732818" lon="30.6849312130"><ele>50.13</ele><time>2025-07-27T23:59:08Z</time></trkpt><trkpt lat="60.2281449549" lon="30.6855684891"><ele>49.65</ele><time>2025-07-27T23:59:21Z</time></trkpt><trkpt lat="60.2279526740" lon="30.6861312501"><ele>49.16</ele><time>2025-07-27T23:59:32Z</time></trkpt><trkpt lat="60.2277585492" lon="30.6865883991"><ele>48.20</ele><time>2025-07-27T23:59:42Z</time></trkpt><trkpt lat="60.2275282145" lon="30.6868510880"><ele>45.80</ele><time>2025-07-27T23:59:52Z</time></trkpt><trkpt lat="60.2273010649" lon="30.6870554388"><ele>44.36</ele><time>2025-07-28T00:00:04Z</time></trkpt><trkpt lat="60.2270398010" lon="30.6871954165"><ele>45.32</ele><time>2025-07-28T00:00:16Z</time></trkpt><trkpt lat="60.2267429139" lon="30.6873666588"><ele>47.24</ele><time>2025-07-28T00:00:29Z</time></trkpt><trkpt lat="60.2266211249" lon="30.6873681676"><ele>47.24</ele><time>2025-07-28T00:00:38Z</time></trkpt><trkpt lat="60.2265609428" lon="30.6873343047"><ele>47.72</ele><time>2025-07-28T00:00:49Z</time></trkpt><trkpt lat="60.2264396567" lon="30.6875205506"><ele>49.16</ele><time>2025-07-28T00:00:58Z</time></trkpt><trkpt lat="60.2262375690" lon="30.6878700759"><ele>49.65</ele><time>2025-07-28T00:01:06Z</time></trkpt><trkpt lat="60.2258805837" lon="30.6884061825"><ele>49.65</ele><time>2025-07-28T00:01:18Z</time></trkpt><trkpt lat="60.2255075052" lon="30.6888426282"><ele>49.16</ele><time>2025-07-28T00:01:29Z</time></trkpt><trkpt lat="60.2251992188" lon="30.6890277844"><ele>49.65</ele><time>2025-07-28T00:01:39Z</time></trkpt><trkpt lat="60.2250065189" lon="30.6893697660"><ele>49.65</ele><time>2025-07-28T00:01:48Z</time></trkpt><trkpt lat="60.2246956341" lon="30.6898775417"><ele>49.65</ele><time>2025-07-28T00:01:58Z</time></trkpt><trkpt lat="60.2243179455" lon="30.6904668733"><ele>49.16</ele><time>2025-07-28T00:02:11Z</time></trkpt><trkpt lat="60.2240482997" lon="30.6909780856"><ele>48.20</ele><time>2025-07-28T00:02:22Z</time></trkpt><trkpt lat="60.2238222398" lon="30.6913150381"><ele>46.76</ele><time>2025-07-28T00:02:31Z</time></trkpt><trkpt lat="60.2236202359" lon="30.6914488971"><ele>47.72</ele><time>2025-07-28T00:02:39Z</time></trkpt><trkpt lat="60.2233161405" lon="30.6917978358"><ele>48.68</ele><time>2025-07-28T00:02:50Z</time></trkpt><trkpt lat="60.2230918407" lon="30.6921942998"><ele>49.16</ele><time>2025-07-28T00:03:01Z</time></trkpt><trkpt lat="60.2227970492" lon="30.6926860660"><ele>49.16</ele><time>2025-07-28T00:03:13Z</time></trkpt><trkpt lat="60.2225061134" lon="30.6932765711"><ele>48.68</ele><time>2025-07-28T00:03:25Z</time></trkpt><trkpt lat="60.2222044487" lon="30.6937783957"><ele>47.72</ele><time>2025-07-28T00:03:36Z</time></trkpt><trkpt lat="60.2219261695" lon="30.6942543201"><ele>46.76</ele><time>2025-07-28T00:03:47Z</time></trkpt><trkpt lat="60.2217544243" lon="30.6945190206"><ele>47.24</ele><time>2025-07-28T00:03:57Z</time></trkpt><trkpt lat="60.2216748800" lon="30.6947903428"><ele>46.76</ele><time>2025-07-28T00:04:07Z</time></trkpt><trkpt lat="60.2215059008" lon="30.6951687858"><ele>46.28</ele><time>2025-07-28T00:04:20Z</time></trkpt><trkpt lat="60.2212387696" lon="30.6956040580"><ele>45.80</ele><time>2025-07-28T00:04:31Z</time></trkpt><trkpt lat="60.2209300641" lon="30.6960019469"><ele>45.80</ele><time>2025-07-28T00:04:46Z</time></trkpt><trkpt lat="60.2205987275" lon="30.6963862572"><ele>45.32</ele><time>2025-07-28T00:04:59Z</time></trkpt><trkpt lat="60.2204926126" lon="30.6966874190"><ele>44.84</ele><time>2025-07-28T00:05:06Z</time></trkpt><trkpt lat="60.2203838993" lon="30.6969163287"><ele>44.84</ele><time>2025-07-28T00:05:13Z</time></trkpt><trkpt lat="60.2203675546" lon="30.6969118863"><ele>44.84</ele><time>2025-07-28T00:05:14Z</time></trkpt><trkpt lat="60.2201450150" lon="30.6966977287"><ele>44.84</ele><time>2025-07-28T00:05:22Z</time></trkpt><trkpt lat="60.2198008541" lon="30.6963824015"><ele>44.84</ele><time>2025-07-28T00:05:29Z</time></trkpt><trkpt lat="60.2196661569" lon="30.6962643005"><ele>48.68</ele><time>2025-07-28T00:05:31Z</time></trkpt><trkpt lat="60.2191696130" lon="30.6957373302"><ele>49.16</ele><time>2025-07-28T00:05:40Z</time></trkpt></trkseg><trkseg><trkpt lat="60.2186284773" lon="30.6950646825"><ele>51.57</ele><time>2025-07-28T00:05:52Z</time></trkpt><trkpt lat="60.2182081249" lon="30.6944691483"><ele>52.53</ele><time>2025-07-28T00:06:02Z</time></trkpt><trkpt lat="60.2180388104" lon="30.6942245644"><ele>52.53</ele><time>2025-07-28T00:06:06Z</time></trkpt></trkseg><trkseg><trkpt lat="60.7925083023" lon="29.0769221820"><ele>9.75</ele><time>2025-08-12T09:12:19Z</time></trkpt><trkpt lat="60.7924084738" lon="29.0771542769"><ele>9.75</ele><time>2025-08-12T09:12:35Z</time></trkpt><trkpt lat="60.7923407480" lon="29.0772758983"><ele>11.19</ele><time>2025-08-12T09:12:49Z</time></trkpt><trkpt lat="60.7923447713" lon="29.0772830229"><ele>13.12</ele><time>2025-08-12T09:13:02Z</time></trkpt><trkpt lat="60.7923290972" lon="29.0772287082"><ele>13.60</ele><time>2025-08-12T09:13:14Z</time></trkpt><trkpt lat="60.7922438532" lon="29.0771185700"><ele>14.08</ele><time>2025-08-12T09:13:34Z</time></trkpt><trkpt lat="60.7922643051" lon="29.0771481581"><ele>14.08</ele><time>2025-08-12T09:13:49Z</time></trkpt><trkpt lat="60.7922995929" lon="29.0770831145"><ele>14.56</ele><time>2025-08-12T09:14:05Z</time></trkpt><trkpt lat="60.7922893669" lon="29.0771759022"><ele>14.08</ele><time>2025-08-12T09:14:23Z</time></trkpt><trkpt lat="60.7922717649" lon="29.0772044845"><ele>14.08</ele><time>2025-08-12T09:14:40Z</time></trkpt><trkpt lat="60.7923107408" lon="29.0772472322"><ele>14.08</ele><time>2025-08-12T09:14:59Z</time></trkpt><trkpt lat="60.7923093159" lon="29.0772365872"><ele>14.56</ele><time>2025-08-12T09:15:23Z</time></trkpt><trkpt lat="60.7922998443" lon="29.0772049874"><ele>15.04</ele><time>2025-08-12T09:15:43Z</time></trkpt><trkpt lat="60.7923026104" lon="29.0771843679"><ele>14.56</ele><time>2025-08-12T09:16:00Z</time></trkpt><trkpt lat="60.7923191227" lon="29.0771597251"><ele>15.04</ele><time>2025-08-12T09:16:17Z</time></trkpt><trkpt lat="60.7923211344" lon="29.0770369302"><ele>15.04</ele><time>2025-08-12T09:16:30Z</time></trkpt><trkpt lat="60.7923261635" lon="29.0770888980"><ele>15.52</ele><time>2025-08-12T09:16:45Z</time></trkpt><trkpt lat="60.7923323661" lon="29.0770854615"><ele>15.52</ele><time>2025-08-12T09:17:01Z</time></trkpt><trkpt lat="60.7923511416" lon="29.0771141276"><ele>16.00</ele><time>2025-08-12T09:17:17Z</time></trkpt><trkpt lat="60.7924024388" lon="29.0772239305"><ele>16.00</ele><time>2025-08-12T09:17:38Z</time></trkpt><trkpt lat="60.7923769578" lon="29.0772168059"><ele>16.00</ele><time>2025-08-12T09:17:55Z</time></trkpt><trkpt lat="60.7923384011" lon="29.0772218350"><ele>16.48</ele><time>2025-08-12T09:18:11Z</time></trkpt><trkpt lat="60.7923178654" lon="29.0771862958"><ele>16.96</ele><time>2025-08-12T09:18:35Z</time></trkpt><trkpt lat="60.7923053764" lon="29.0771729685"><ele>16.96</ele><time>2025-08-12T09:18:57Z</time></trkpt><trkpt lat="60.7923361380" lon="29.0771522652"><ele>16.96</ele><time>2025-08-12T09:19:14Z</time></trkpt><trkpt lat="60.7923617028" lon="29.0771555342"><ele>17.44</ele><time>2025-08-12T09:19:38Z</time></trkpt><trkpt lat="60.7923416700" lon="29.0772135369"><ele>17.44</ele><time>2025-08-12T09:19:54Z</time></trkpt><trkpt lat="60.7923272531" lon="29.0771814343"><ele>17.44</ele><time>2025-08-12T09:20:11Z</time></trkpt><trkpt lat="60.7923214696" lon="29.0771744773"><ele>17.92</ele><time>2025-08-12T09:20:27Z</time></trkpt><trkpt lat="60.7923506387" lon="29.0772481542"><ele>17.92</ele><time>2025-08-12T09:20:46Z</time></trkpt><trkpt lat="60.7923199609" lon="29.0772664268"><ele>18.40</ele><time>2025-08-12T09:21:03Z</time></trkpt><trkpt lat="60.7923962362" lon="29.0773534309"><ele>17.92</ele><time>2025-08-12T09:21:26Z</time></trkpt><trkpt lat="60.7923998404" lon="29.0773028880"><ele>18.40</ele><time>2025-08-12T09:21:52Z</time></trkpt><trkpt lat="60.7922999281" lon="29.0772010479"><ele>18.88</ele><time>2025-08-12T09:22:11Z</time></trkpt><trkpt lat="60.7922864333" lon="29.0771842841"><ele>18.88</ele><time>2025-08-12T09:22:34Z</time></trkpt><trkpt lat="60.7923224755" lon="29.0772191528"><ele>18.88</ele><time>2025-08-12T09:22:55Z</time></trkpt><trkpt lat="60.7923197933" lon="29.0772573743"><ele>18.88</ele><time>2025-08-12T09:23:17Z</time></trkpt><trkpt lat="60.7923080586" lon="29.0772534348"><ele>18.88</ele><time>2025-08-12T09:23:36Z</time></trkpt><trkpt lat="60.7923269179" lon="29.0772476513"><ele>18.88</ele><time>2025-08-12T09:23:52Z</time></trkpt><trkpt lat="60.7923531532" lon="29.0772957634"><ele>18.88</ele><time>2025-08-12T09:24:10Z</time></trkpt><trkpt lat="60.7923523989" lon="29.0772673488"><ele>18.88</ele><time>2025-08-12T09:24:26Z</time></trkpt><trkpt lat="60.7923631277" lon="29.0773215797"><ele>19.36</ele><time>2025-08-12T09:24:41Z</time></trkpt><trkpt lat="60.7923725992" lon="29.0773411933"><ele>19.84</ele><time>2025-08-12T09:24:58Z</time></trkpt><trkpt lat="60.7923881058" lon="29.0773495752"><ele>20.32</ele><time>2025-08-12T09:25:16Z</time></trkpt><trkpt lat="60.7923983317" lon="29.0772783291"><ele>19.84</ele><time>2025-08-12T09:25:34Z</time></trkpt><trkpt lat="60.7924012654" lon="29.0772569552"><ele>20.32</ele><time>2025-08-12T09:25:53Z</time></trkpt><trkpt lat="60.7923926320" lon="29.0772352461"><ele>20.32</ele><time>2025-08-12T09:26:18Z</time></trkpt><trkpt lat="60.7924057916" lon="29.0772694442"><ele>20.81</ele><time>2025-08-12T09:26:36Z</time></trkpt><trkpt lat="60.7923838310" lon="29.0772333182"><ele>20.32</ele><time>2025-08-12T09:26:55Z</time></trkpt><trkpt lat="60.7923829928" lon="29.0772329830"><ele>20.81</ele><time>2025-08-12T09:27:17Z</time></trkpt><trkpt lat="60.7923757005" lon="29.0772075858"><ele>20.81</ele><time>2025-08-12T09:27:37Z</time></trkpt><trkpt lat="60.7923142612" lon="29.0772970207"><ele>21.29</ele><time>2025-08-12T09:27:57Z</time></trkpt><trkpt lat="60.7922990900" lon="29.0773066599"><ele>21.29</ele><time>2025-08-12T09:28:15Z</time></trkpt><trkpt lat="60.7923134230" lon="29.0772683546"><ele>21.77</ele><time>2025-08-12T09:28:37Z</time></trkpt><trkpt lat="60.7923435979" lon="29.0772147942"><ele>21.77</ele><time>2025-08-12T09:28:59Z</time></trkpt><trkpt lat="60.7923408318" lon="29.0771508403"><ele>21.29</ele><time>2025-08-12T09:29:18Z</time></trkpt><trkpt lat="60.7923470344" lon="29.0771689452"><ele>21.77</ele><time>2025-08-12T09:29:37Z</time></trkpt><trkpt lat="60.7923304383" lon="29.0770951845"><ele>22.25</ele><time>2025-08-12T09:29:54Z</time></trkpt><trkpt lat="60.7923166081" lon="29.0771900676"><ele>22.25</ele><time>2025-08-12T09:30:07Z</time></trkpt><trkpt lat="60.7923115790" lon="29.0772276185"><ele>22.25</ele><time>2025-08-12T09:30:22Z</time></trkpt><trkpt lat="60.7923194580" lon="29.0772186499"><ele>22.25</ele><time>2025-08-12T09:30:39Z</time></trkpt><trkpt lat="60.7922975812" lon="29.0771977790"><ele>22.25</ele><time>2025-08-12T09:30:54Z</time></trkpt><trkpt lat="60.7922726031" lon="29.0771904029"><ele>22.25</ele><time>2025-08-12T09:31:12Z</time></trkpt><trkpt lat="60.7922569290" lon="29.0771884751"><ele>21.77</ele><time>2025-08-12T09:31:26Z</time></trkpt><trkpt lat="60.7922672387" lon="29.0771921631"><ele>21.77</ele><time>2025-08-12T09:31:44Z</time></trkpt><trkpt lat="60.7922793925" lon="29.0772017185"><ele>21.77</ele><time>2025-08-12T09:32:02Z</time></trkpt><trkpt lat="60.7922934741" lon="29.0772224218"><ele>21.77</ele><time>2025-08-12T09:32:19Z</time></trkpt><trkpt lat="60.7922900375" lon="29.0772095136"><ele>21.29</ele><time>2025-08-12T09:32:37Z</time></trkpt><trkpt lat="60.7922822423" lon="29.0772265289"><ele>21.29</ele><time>2025-08-12T09:32:57Z</time></trkpt><trkpt lat="60.7922887802" lon="29.0772256907"><ele>21.29</ele><time>2025-08-12T09:33:09Z</time></trkpt><trkpt lat="60.7923016045" lon="29.0772088431"><ele>21.29</ele><time>2025-08-12T09:33:29Z</time></trkpt><trkpt lat="60.7922695018" lon="29.0771476552"><ele>20.81</ele><time>2025-08-12T09:33:51Z</time></trkpt><trkpt lat="60.7922659814" lon="29.0771748964"><ele>20.32</ele><time>2025-08-12T09:34:12Z</time></trkpt><trkpt lat="60.7922619581" lon="29.0771730524"><ele>20.32</ele><time>2025-08-12T09:34:31Z</time></trkpt><trkpt lat="60.7922767103" lon="29.0771901514"><ele>20.32</ele><time>2025-08-12T09:34:47Z</time></trkpt><trkpt lat="60.7922710106" lon="29.0771919955"><ele>20.32</ele><time>2025-08-12T09:35:05Z</time></trkpt><trkpt lat="60.7922771294" lon="29.0772153810"><ele>20.32</ele><time>2025-08-12T09:35:23Z</time></trkpt><trkpt lat="60.7923011854" lon="29.0772547759"><ele>20.32</ele><time>2025-08-12T09:35:44Z</time></trkpt><trkpt lat="60.7923165243" lon="29.0772464778"><ele>20.81</ele><time>2025-08-12T09:36:05Z</time></trkpt><trkpt lat="60.7922954019" lon="29.0772607271"><ele>20.32</ele><time>2025-08-12T09:36:22Z</time></trkpt><trkpt lat="60.7922887802" lon="29.0772551112"><ele>20.32</ele><time>2025-08-12T09:36:38Z</time></trkpt><trkpt lat="60.7922561746" lon="29.0772090945"><ele>20.32</ele><time>2025-08-12T09:36:59Z</time></trkpt><trkpt lat="60.7922720164" lon="29.0772289596"><ele>20.32</ele><time>2025-08-12T09:37:19Z</time></trkpt><trkpt lat="60.7922875229" lon="29.0772549435"><ele>20.81</ele><time>2025-08-12T09:37:36Z</time></trkpt><trkpt lat="60.7922907081" lon="29.0772409458"><ele>20.81</ele><time>2025-08-12T09:37:56Z</time></trkpt><trkpt lat="60.7922679931" lon="29.0772270318"><ele>20.81</ele><time>2025-08-12T09:38:16Z</time></trkpt><trkpt lat="60.7922881097" lon="29.0772425383"><ele>20.32</ele><time>2025-08-12T09:38:35Z</time></trkpt><trkpt lat="60.7922940608" lon="29.0772366710"><ele>20.81</ele><time>2025-08-12T09:38:51Z</time></trkpt><trkpt lat="60.7923134230" lon="29.0773061570"><ele>20.81</ele><time>2025-08-12T09:39:08Z</time></trkpt><trkpt lat="60.7922959886" lon="29.0772847831"><ele>20.81</ele><time>2025-08-12T09:39:29Z</time></trkpt><trkpt lat="60.7922739442" lon="29.0773047321"><ele>20.81</ele><time>2025-08-12T09:39:53Z</time></trkpt><trkpt lat="60.7922468707" lon="29.0772738028"><ele>21.29</ele><time>2025-08-12T09:40:12Z</time></trkpt><trkpt lat="60.7922324538" lon="29.0772458073"><ele>20.81</ele><time>2025-08-12T09:40:31Z</time></trkpt><trkpt lat="60.7922542468" lon="29.0772128664"><ele>20.81</ele><time>2025-08-12T09:40:51Z</time></trkpt><trkpt lat="60.7922570966" lon="29.0772174764"><ele>17.44</ele><time>2025-08-12T09:40:57Z</time></trkpt><trkpt lat="60.7922575995" lon="29.0772210807"><ele>17.44</ele><time>2025-08-12T09:40:58Z</time></trkpt><trkpt lat="60.7922620419" lon="29.0772516746"><ele>21.29</ele><time>2025-08-12T09:41:08Z</time></trkpt><trkpt lat="60.7922650594" lon="29.0772495791"><ele>19.84</ele><time>2025-08-12T09:41:19Z</time></trkpt><trkpt lat="60.7922628801" lon="29.0772484057"><ele>21.29</ele><time>2025-08-12T09:41:23Z</time></trkpt><trkpt lat="60.7922587730" lon="29.0772460587"><ele>16.96</ele><time>2025-08-12T09:41:26Z</time></trkpt><trkpt lat="60.7922598626" lon="29.0772468131"><ele>17.44</ele><time>2025-08-12T09:41:27Z</time></trkpt><trkpt lat="60.7922583539" lon="29.0772017185"><ele>17.44</ele><time>2025-08-12T09:41:44Z</time></trkpt><trkpt lat="60.7922574319" lon="29.0771826915"><ele>17.44</ele><time>2025-08-12T09:42:04Z</time></trkpt><trkpt lat="60.7922585215" lon="29.0771909058"><ele>17.44</ele><time>2025-08-12T09:42:20Z</time></trkpt><trkpt lat="60.7922637183" lon="29.0771996230"><ele>17.44</ele><time>2025-08-12T09:42:41Z</time></trkpt><trkpt lat="60.7922640536" lon="29.0771765728"><ele>17.44</ele><time>2025-08-12T09:42:58Z</time></trkpt><trkpt lat="60.7922429312" lon="29.0771704540"><ele>17.44</ele><time>2025-08-12T09:43:18Z</time></trkpt><trkpt lat="60.7922208030" lon="29.0771316458"><ele>17.44</ele><time>2025-08-12T09:43:39Z</time></trkpt><trkpt lat="60.7922041230" lon="29.0770155564"><ele>17.44</ele><time>2025-08-12T09:44:02Z</time></trkpt><trkpt lat="60.7921899576" lon="29.0770564601"><ele>17.44</ele><time>2025-08-12T09:44:18Z</time></trkpt><trkpt lat="60.7922070567" lon="29.0770669375"><ele>17.44</ele><time>2025-08-12T09:44:39Z</time></trkpt><trkpt lat="60.7922199648" lon="29.0770908259"><ele>17.44</ele><time>2025-08-12T09:45:02Z</time></trkpt><trkpt lat="60.7922247425" lon="29.0771083441"><ele>20.81</ele><time>2025-08-12T09:45:16Z</time></trkpt><trkpt lat="60.7922237366" lon="29.0771098528"><ele>20.81</ele><time>2025-08-12T09:45:17Z</time></trkpt><trkpt lat="60.7922335435" lon="29.0771310590"><ele>16.96</ele><time>2025-08-12T09:45:22Z</time></trkpt><trkpt lat="60.7922353875" lon="29.0771333221"><ele>16.96</ele><time>2025-08-12T09:45:23Z</time></trkpt><trkpt lat="60.7922643051" lon="29.0771930851"><ele>17.44</ele><time>2025-08-12T09:45:41Z</time></trkpt><trkpt lat="60.7922720164" lon="29.0771686099"><ele>17.44</ele><time>2025-08-12T09:45:59Z</time></trkpt><trkpt lat="60.7922280952" lon="29.0771725494"><ele>17.44</ele><time>2025-08-12T09:46:20Z</time></trkpt><trkpt lat="60.7921642251" lon="29.0770646743"><ele>17.44</ele><time>2025-08-12T09:46:35Z</time></trkpt><trkpt lat="60.7921788096" lon="29.0772277862"><ele>17.44</ele><time>2025-08-12T09:46:44Z</time></trkpt><trkpt lat="60.7922006026" lon="29.0774615575"><ele>17.92</ele><time>2025-08-12T09:46:53Z</time></trkpt><trkpt lat="60.7922137622" lon="29.0777326282"><ele>17.92</ele><time>2025-08-12T09:47:02Z</time></trkpt><trkpt lat="60.7922008540" lon="29.0779977478"><ele>18.40</ele><time>2025-08-12T09:47:12Z</time></trkpt><trkpt lat="60.7921979204" lon="29.0780697484"><ele>17.92</ele><time>2025-08-12T09:47:15Z</time></trkpt><trkpt lat="60.7922429312" lon="29.0783909429"><ele>18.40</ele><time>2025-08-12T09:47:27Z</time></trkpt><trkpt lat="60.7922894508" lon="29.0784953814"><ele>17.92</ele><time>2025-08-12T09:47:34Z</time></trkpt><trkpt lat="60.7923575956" lon="29.0787905082"><ele>17.92</ele><time>2025-08-12T09:47:44Z</time></trkpt><trkpt lat="60.7923514768" lon="29.0790080186"><ele>18.40</ele><time>2025-08-12T09:47:50Z</time></trkpt><trkpt lat="60.7923141774" lon="29.0792556200"><ele>18.88</ele><time>2025-08-12T09:47:58Z</time></trkpt><trkpt lat="60.7922676578" lon="29.0796343144"><ele>17.92</ele><time>2025-08-12T09:48:09Z</time></trkpt><trkpt lat="60.7922257483" lon="29.0798680857"><ele>18.40</ele><time>2025-08-12T09:48:19Z</time></trkpt><trkpt lat="60.7922082301" lon="29.0800430998"><ele>18.40</ele><time>2025-08-12T09:48:26Z</time></trkpt><trkpt lat="60.7921884488" lon="29.0801737737"><ele>18.40</ele><time>2025-08-12T09:48:34Z</time></trkpt><trkpt lat="60.7922541630" lon="29.0805111453"><ele>18.40</ele><time>2025-08-12T09:48:44Z</time></trkpt><trkpt lat="60.7922344655" lon="29.0808887500"><ele>17.92</ele><time>2025-08-12T09:48:52Z</time></trkpt><trkpt lat="60.7922033686" lon="29.0813023970"><ele>18.40</ele><time>2025-08-12T09:49:01Z</time></trkpt><trkpt lat="60.7920653187" lon="29.0815208293"><ele>18.40</ele><time>2025-08-12T09:49:07Z</time></trkpt><trkpt lat="60.7918130234" lon="29.0816012118"><ele>18.88</ele><time>2025-08-12T09:49:14Z</time></trkpt><trkpt lat="60.7915402763" lon="29.0818140283"><ele>19.36</ele><time>2025-08-12T09:49:21Z</time></trkpt><trkpt lat="60.7912764978" lon="29.0818490647"><ele>19.84</ele><time>2025-08-12T09:49:27Z</time></trkpt><trkpt lat="60.7912276313" lon="29.0818217397"><ele>20.32</ele><time>2025-08-12T09:49:28Z</time></trkpt><trkpt lat="60.7910214365" lon="29.0816701110"><ele>20.81</ele><time>2025-08-12T09:49:34Z</time></trkpt><trkpt lat="60.7907869108" lon="29.0814712923"><ele>20.32</ele><time>2025-08-12T09:49:42Z</time></trkpt><trkpt lat="60.7905292511" lon="29.0811987966"><ele>20.32</ele><time>2025-08-12T09:49:51Z</time></trkpt><trkpt lat="60.7902218029" lon="29.0808018297"><ele>19.84</ele><time>2025-08-12T09:50:00Z</time></trkpt><trkpt lat="60.7899929769" lon="29.0804279968"><ele>19.36</ele><time>2025-08-12T09:50:08Z</time></trkpt><trkpt lat="60.7897739578" lon="29.0801494662"><ele>19.36</ele><time>2025-08-12T09:50:16Z</time></trkpt><trkpt lat="60.7895485684" lon="29.0797565226"><ele>18.88</ele><time>2025-08-12T09:50:24Z</time></trkpt><trkpt lat="60.7893916592" lon="29.0795079991"><ele>18.88</ele><time>2025-08-12T09:50:31Z</time></trkpt><trkpt lat="60.7891771663" lon="29.0791491698"><ele>19.84</ele><time>2025-08-12T09:50:37Z</time></trkpt><trkpt lat="60.7887839712" lon="29.0785745066"><ele>21.29</ele><time>2025-08-12T09:50:46Z</time></trkpt><trkpt lat="60.7885334361" lon="29.0781379770"><ele>21.29</ele><time>2025-08-12T09:50:54Z</time></trkpt><trkpt lat="60.7882730104" lon="29.0777265932"><ele>21.29</ele><time>2025-08-12T09:51:02Z</time></trkpt><trkpt lat="60.7880393229" lon="29.0773075819"><ele>20.81</ele><time>2025-08-12T09:51:10Z</time></trkpt><trkpt lat="60.7878753729" lon="29.0770354215"><ele>20.81</ele><time>2025-08-12T09:51:15Z</time></trkpt><trkpt lat="60.7878353074" lon="29.0769893210"><ele>20.81</ele><time>2025-08-12T09:51:16Z</time></trkpt><trkpt lat="60.7877939846" lon="29.0769549552"><ele>20.81</ele><time>2025-08-12T09:51:17Z</time></trkpt><trkpt lat="60.7877537515" lon="29.0769325756"><ele>20.81</ele><time>2025-08-12T09:51:18Z</time></trkpt><trkpt lat="60.7877173740" lon="29.0769235231"><ele>20.81</ele><time>2025-08-12T09:51:19Z</time></trkpt><trkpt lat="60.7876842655" lon="29.0769258700"><ele>20.81</ele><time>2025-08-12T09:51:20Z</time></trkpt><trkpt lat="60.7876518276" lon="29.0769331623"><ele>20.32</ele><time>2025-08-12T09:51:21Z</time></trkpt><trkpt lat="60.7873741351" lon="29.0769345034"><ele>20.81</ele><time>2025-08-12T09:51:29Z</time></trkpt><trkpt lat="60.7871254440" lon="29.0769045800"><ele>21.77</ele><time>2025-08-12T09:51:35Z</time></trkpt><trkpt lat="60.7868972886" lon="29.0768514387"><ele>21.77</ele><time>2025-08-12T09:51:41Z</time></trkpt><trkpt lat="60.7866275590" lon="29.0767967049"><ele>21.29</ele><time>2025-08-12T09:51:48Z</time></trkpt><trkpt lat="60.7864254713" lon="29.0767954476"><ele>21.29</ele><time>2025-08-12T09:51:55Z</time></trkpt><trkpt lat="60.7862407342" lon="29.0767205134"><ele>20.81</ele><time>2025-08-12T09:52:02Z</time></trkpt><trkpt lat="60.7861105632" lon="29.0766778495"><ele>24.65</ele><time>2025-08-12T09:52:07Z</time></trkpt><trkpt lat="60.7860872615" lon="29.0766693838"><ele>25.13</ele><time>2025-08-12T09:52:08Z</time></trkpt><trkpt lat="60.7859375607" lon="29.0766053461"><ele>25.61</ele><time>2025-08-12T09:52:15Z</time></trkpt><trkpt lat="60.7857306115" lon="29.0765694715"><ele>25.61</ele><time>2025-08-12T09:52:23Z</time></trkpt><trkpt lat="60.7854800764" lon="29.0764598362"><ele>26.57</ele><time>2025-08-12T09:52:30Z</time></trkpt><trkpt lat="60.7850702014" lon="29.0764106344"><ele>26.09</ele><time>2025-08-12T09:52:39Z</time></trkpt><trkpt lat="60.7849702891" lon="29.0764077846"><ele>25.13</ele><time>2025-08-12T09:52:41Z</time></trkpt><trkpt lat="60.7846785150" lon="29.0764921065"><ele>24.17</ele><time>2025-08-12T09:52:48Z</time></trkpt><trkpt lat="60.7845055126" lon="29.0766032506"><ele>23.69</ele><time>2025-08-12T09:52:54Z</time></trkpt><trkpt lat="60.7842705678" lon="29.0768291429"><ele>26.09</ele><time>2025-08-12T09:53:02Z</time></trkpt><trkpt lat="60.7839939650" lon="29.0770828631"><ele>26.57</ele><time>2025-08-12T09:53:10Z</time></trkpt><trkpt lat="60.7836795598" lon="29.0774412733"><ele>28.98</ele><time>2025-08-12T09:53:18Z</time></trkpt><trkpt lat="60.7835602015" lon="29.0775754675"><ele>30.42</ele><time>2025-08-12T09:53:21Z</time></trkpt><trkpt lat="60.7832551003" lon="29.0777708497"><ele>30.90</ele><time>2025-08-12T09:53:29Z</time></trkpt><trkpt lat="60.7827110309" lon="29.0778622963"><ele>30.90</ele><time>2025-08-12T09:53:37Z</time></trkpt><trkpt lat="60.7825086918" lon="29.0778754558"><ele>28.98</ele><time>2025-08-12T09:53:42Z</time></trkpt><trkpt lat="60.7821756788" lon="29.0778300259"><ele>29.46</ele><time>2025-08-12T09:53:51Z</time></trkpt><trkpt lat="60.7820690610" lon="29.0778229013"><ele>28.98</ele><time>2025-08-12T09:53:55Z</time></trkpt><trkpt lat="60.7818795461" lon="29.0777596179"><ele>29.46</ele><time>2025-08-12T09:54:04Z</time></trkpt><trkpt lat="60.7816114929" lon="29.0776853543"><ele>29.46</ele><time>2025-08-12T09:54:13Z</time></trkpt><trkpt lat="60.7813923899" lon="29.0776750445"><ele>28.98</ele><time>2025-08-12T09:54:20Z</time></trkpt><trkpt lat="60.7811535895" lon="29.0777099133"><ele>29.94</ele><time>2025-08-12T09:54:29Z</time></trkpt><trkpt lat="60.7809407730" lon="29.0778721031"><ele>29.46</ele><time>2025-08-12T09:54:39Z</time></trkpt><trkpt lat="60.7807649206" lon="29.0779766254"><ele>29.46</ele><time>2025-08-12T09:54:47Z</time></trkpt><trkpt lat="60.7804997172" lon="29.0781516396"><ele>29.46</ele><time>2025-08-12T09:54:58Z</time></trkpt><trkpt lat="60.7802421413" lon="29.0783879254"><ele>28.50</ele><time>2025-08-12T09:55:07Z</time></trkpt><trkpt lat="60.7799976412" lon="29.0786425676"><ele>28.50</ele><time>2025-08-12T09:55:15Z</time></trkpt><trkpt lat="60.7798046898" lon="29.0787344333"><ele>28.02</ele><time>2025-08-12T09:55:23Z</time></trkpt><trkpt lat="60.7795221359" lon="29.0787739959"><ele>28.02</ele><time>2025-08-12T09:55:32Z</time></trkpt><trkpt lat="60.7793195453" lon="29.0788425598"><ele>28.02</ele><time>2025-08-12T09:55:39Z</time></trkpt><trkpt lat="60.7790820021" lon="29.0788033325"><ele>28.98</ele><time>2025-08-12T09:55:49Z</time></trkpt><trkpt lat="60.7788506616" lon="29.0786827169"><ele>29.94</ele><time>2025-08-12T09:55:55Z</time></trkpt><trkpt lat="60.7784967776" lon="29.0784314275"><ele>31.38</ele><time>2025-08-12T09:56:04Z</time></trkpt><trkpt lat="60.7781414688" lon="29.0780923795"><ele>34.26</ele><time>2025-08-12T09:56:12Z</time></trkpt><trkpt lat="60.7779240422" lon="29.0777897928"><ele>34.74</ele><time>2025-08-12T09:56:20Z</time></trkpt><trkpt lat="60.7777621038" lon="29.0775980987"><ele>35.71</ele><time>2025-08-12T09:56:25Z</time></trkpt><trkpt lat="60.7777209487" lon="29.0775616374"><ele>36.19</ele><time>2025-08-12T09:56:26Z</time></trkpt><trkpt lat="60.7775632851" lon="29.0774516668"><ele>35.71</ele><time>2025-08-12T09:56:31Z</time></trkpt><trkpt lat="60.7773197908" lon="29.0774476435"><ele>36.19</ele><time>2025-08-12T09:56:39Z</time></trkpt><trkpt lat="60.7771529909" lon="29.0774243418"><ele>36.67</ele><time>2025-08-12T09:56:46Z</time></trkpt><trkpt lat="60.7769630570" lon="29.0773083363"><ele>36.67</ele><time>2025-08-12T09:56:55Z</time></trkpt><trkpt lat="60.7767084148" lon="29.0772095136"><ele>37.63</ele><time>2025-08-12T09:57:03Z</time></trkpt><trkpt lat="60.7762969472" lon="29.0769808553"><ele>39.07</ele><time>2025-08-12T09:57:13Z</time></trkpt><trkpt lat="60.7761509344" lon="29.0766786877"><ele>40.99</ele><time>2025-08-12T09:57:19Z</time></trkpt><trkpt lat="60.7760246191" lon="29.0761741810"><ele>43.88</ele><time>2025-08-12T09:57:27Z</time></trkpt><trkpt lat="60.7758752536" lon="29.0758495498"><ele>47.24</ele><time>2025-08-12T09:57:34Z</time></trkpt><trkpt lat="60.7757628523" lon="29.0757379029"><ele>48.20</ele><time>2025-08-12T09:57:41Z</time></trkpt><trkpt lat="60.7756205276" lon="29.0755521599"><ele>49.16</ele><time>2025-08-12T09:57:50Z</time></trkpt><trkpt lat="60.7754433341" lon="29.0753506590"><ele>50.61</ele><time>2025-08-12T09:57:59Z</time></trkpt><trkpt lat="60.7751765382" lon="29.0750098508"><ele>51.57</ele><time>2025-08-12T09:58:06Z</time></trkpt><trkpt lat="60.7749389112" lon="29.0746811964"><ele>52.05</ele><time>2025-08-12T09:58:13Z</time></trkpt><trkpt lat="60.7747588679" lon="29.0744868200"><ele>52.05</ele><time>2025-08-12T09:58:21Z</time></trkpt><trkpt lat="60.7745546848" lon="29.0743138175"><ele>53.49</ele><time>2025-08-12T09:58:29Z</time></trkpt><trkpt lat="60.7743971050" lon="29.0742529649"><ele>53.49</ele><time>2025-08-12T09:58:36Z</time></trkpt><trkpt lat="60.7741621602" lon="29.0740884282"><ele>54.45</ele><time>2025-08-12T09:58:47Z</time></trkpt><trkpt lat="60.7740093581" lon="29.0737044532"><ele>56.37</ele><time>2025-08-12T09:58:54Z</time></trkpt><trkpt lat="60.7737990562" lon="29.0730773192"><ele>57.82</ele><time>2025-08-12T09:59:00Z</time></trkpt><trkpt lat="60.7736274786" lon="29.0725780092"><ele>57.82</ele><time>2025-08-12T09:59:06Z</time></trkpt><trkpt lat="60.7735000737" lon="29.0722278971"><ele>56.86</ele><time>2025-08-12T09:59:14Z</time></trkpt><trkpt lat="60.7734328508" lon="29.0718044434"><ele>57.34</ele><time>2025-08-12T09:59:20Z</time></trkpt><trkpt lat="60.7734263130" lon="29.0717097279"><ele>57.34</ele><time>2025-08-12T09:59:21Z</time></trkpt><trkpt lat="60.7734000776" lon="29.0713908803"><ele>56.86</ele><time>2025-08-12T09:59:24Z</time></trkpt><trkpt lat="60.7733809669" lon="29.0712732822"><ele>56.37</ele><time>2025-08-12T09:59:25Z</time></trkpt><trkpt lat="60.7732719183" lon="29.0706241876"><ele>54.93</ele><time>2025-08-12T09:59:32Z</time></trkpt><trkpt lat="60.7731862552" lon="29.0702836309"><ele>52.53</ele><time>2025-08-12T09:59:41Z</time></trkpt><trkpt lat="60.7730817329" lon="29.0699683037"><ele>50.61</ele><time>2025-08-12T09:59:51Z</time></trkpt><trkpt lat="60.7730461936" lon="29.0698749293"><ele>49.65</ele><time>2025-08-12T09:59:53Z</time></trkpt><trkpt lat="60.7729798090" lon="29.0697411541"><ele>48.20</ele><time>2025-08-12T09:59:56Z</time></trkpt><trkpt lat="60.7728558406" lon="29.0694649704"><ele>45.80</ele><time>2025-08-12T10:00:04Z</time></trkpt><trkpt lat="60.7727313694" lon="29.0691844281"><ele>43.88</ele><time>2025-08-12T10:00:13Z</time></trkpt><trkpt lat="60.7725737058" lon="29.0687845275"><ele>41.47</ele><time>2025-08-12T10:00:22Z</time></trkpt><trkpt lat="60.7723719534" lon="29.0684395283"><ele>39.07</ele><time>2025-08-12T10:00:30Z</time></trkpt><trkpt lat="60.7721217535" lon="29.0678982250"><ele>37.15</ele><time>2025-08-12T10:00:39Z</time></trkpt><trkpt lat="60.7717687916" lon="29.0672895312"><ele>36.19</ele><time>2025-08-12T10:00:48Z</time></trkpt><trkpt lat="60.7714780234" lon="29.0669075679"><ele>34.74</ele><time>2025-08-12T10:00:56Z</time></trkpt><trkpt lat="60.7711904403" lon="29.0665774047"><ele>33.78</ele><time>2025-08-12T10:01:03Z</time></trkpt><trkpt lat="60.7710155100" lon="29.0664282907"><ele>33.78</ele><time>2025-08-12T10:01:09Z</time></trkpt><trkpt lat="60.7707820740" lon="29.0661694575"><ele>33.30</ele><time>2025-08-12T10:01:19Z</time></trkpt><trkpt lat="60.7706631348" lon="29.0658748336"><ele>33.30</ele><time>2025-08-12T10:01:27Z</time></trkpt><trkpt lat="60.7704778947" lon="29.0656160004"><ele>33.30</ele><time>2025-08-12T10:01:36Z</time></trkpt><trkpt lat="60.7703062333" lon="29.0653198678"><ele>33.30</ele><time>2025-08-12T10:01:44Z</time></trkpt><trkpt lat="60.7701605558" lon="29.0648720227"><ele>32.82</ele><time>2025-08-12T10:01:52Z</time></trkpt><trkpt lat="60.7701047324" lon="29.0643900633"><ele>32.82</ele><time>2025-08-12T10:02:02Z</time></trkpt><trkpt lat="60.7700846158" lon="29.0642325673"><ele>32.82</ele><time>2025-08-12T10:02:06Z</time></trkpt><trkpt lat="60.7701325603" lon="29.0637021605"><ele>32.34</ele><time>2025-08-12T10:02:17Z</time></trkpt><trkpt lat="60.7701064087" lon="29.0632787067"><ele>31.86</ele><time>2025-08-12T10:02:24Z</time></trkpt><trkpt lat="60.7700738870" lon="29.0629282594"><ele>31.38</ele><time>2025-08-12T10:02:30Z</time></trkpt><trkpt lat="60.7700045686" lon="29.0625660773"><ele>31.38</ele><time>2025-08-12T10:02:39Z</time></trkpt><trkpt lat="60.7699405309" lon="29.0621054079"><ele>31.38</ele><time>2025-08-12T10:02:49Z</time></trkpt><trkpt lat="60.7698859647" lon="29.0616798587"><ele>30.90</ele><time>2025-08-12T10:02:57Z</time></trkpt><trkpt lat="60.7697527763" lon="29.0611430816"><ele>31.38</ele><time>2025-08-12T10:03:07Z</time></trkpt><trkpt lat="60.7695718948" lon="29.0607752837"><ele>30.90</ele><time>2025-08-12T10:03:14Z</time></trkpt><trkpt lat="60.7693807036" lon="29.0605104156"><ele>30.42</ele><time>2025-08-12T10:03:24Z</time></trkpt><trkpt lat="60.7691816334" lon="29.0603286121"><ele>30.42</ele><time>2025-08-12T10:03:34Z</time></trkpt><trkpt lat="60.7690363750" lon="29.0601059888"><ele>30.42</ele><time>2025-08-12T10:03:43Z</time></trkpt><trkpt lat="60.7688311860" lon="29.0598584712"><ele>29.94</ele><time>2025-08-12T10:03:53Z</time></trkpt><trkpt lat="60.7686622906" lon="29.0595188364"><ele>29.94</ele><time>2025-08-12T10:04:01Z</time></trkpt><trkpt lat="60.7685436867" lon="29.0593046788"><ele>29.46</ele><time>2025-08-12T10:04:07Z</time></trkpt><trkpt lat="60.7684487198" lon="29.0590927843"><ele>29.94</ele><time>2025-08-12T10:04:14Z</time></trkpt><trkpt lat="60.7683424372" lon="29.0587497968"><ele>29.46</ele><time>2025-08-12T10:04:24Z</time></trkpt><trkpt lat="60.7682385854" lon="29.0584196337"><ele>29.94</ele><time>2025-08-12T10:04:32Z</time></trkpt><trkpt lat="60.7681449596" lon="29.0581580345"><ele>29.94</ele><time>2025-08-12T10:04:39Z</time></trkpt><trkpt lat="60.7680237573" lon="29.0578521788"><ele>29.46</ele><time>2025-08-12T10:04:46Z</time></trkpt><trkpt lat="60.7679185644" lon="29.0576414578"><ele>29.46</ele><time>2025-08-12T10:04:53Z</time></trkpt><trkpt lat="60.7678246871" lon="29.0574398730"><ele>28.50</ele><time>2025-08-12T10:04:59Z</time></trkpt><trkpt lat="60.7677355874" lon="29.0571423154"><ele>28.50</ele><time>2025-08-12T10:05:06Z</time></trkpt><trkpt lat="60.7676511817" lon="29.0566901118"><ele>27.53</ele><time>2025-08-12T10:05:15Z</time></trkpt><trkpt lat="60.7675643452" lon="29.0562197194"><ele>28.50</ele><time>2025-08-12T10:05:23Z</time></trkpt><trkpt lat="60.7674642652" lon="29.0557687730"><ele>28.50</ele><time>2025-08-12T10:05:31Z</time></trkpt><trkpt lat="60.7674091961" lon="29.0554224327"><ele>28.98</ele><time>2025-08-12T10:05:38Z</time></trkpt><trkpt lat="60.7672998961" lon="29.0549579915"><ele>29.46</ele><time>2025-08-12T10:05:45Z</time></trkpt><trkpt lat="60.7672252133" lon="29.0547137428"><ele>29.46</ele><time>2025-08-12T10:05:51Z</time></trkpt><trkpt lat="60.7671562303" lon="29.0544990823"><ele>28.98</ele><time>2025-08-12T10:05:57Z</time></trkpt><trkpt lat="60.7669858262" lon="29.0542282630"><ele>28.98</ele><time>2025-08-12T10:06:03Z</time></trkpt><trkpt lat="60.7668781187" lon="29.0540970024"><ele>28.50</ele><time>2025-08-12T10:06:10Z</time></trkpt><trkpt lat="60.7667350397" lon="29.0539080743"><ele>28.98</ele><time>2025-08-12T10:06:17Z</time></trkpt><trkpt lat="60.7665777951" lon="29.0537520871"><ele>28.98</ele><time>2025-08-12T10:06:25Z</time></trkpt><trkpt lat="60.7663514838" lon="29.0534558706"><ele>28.50</ele><time>2025-08-12T10:06:36Z</time></trkpt><trkpt lat="60.7661427744" lon="29.0532157291"><ele>28.50</ele><time>2025-08-12T10:06:43Z</time></trkpt><trkpt lat="60.7659708615" lon="29.0531670302"><ele>28.50</ele><time>2025-08-12T10:06:49Z</time></trkpt><trkpt lat="60.7658622321" lon="29.0531585645"><ele>27.53</ele><time>2025-08-12T10:06:57Z</time></trkpt><trkpt lat="60.7656339929" lon="29.0531531163"><ele>28.02</ele><time>2025-08-12T10:07:07Z</time></trkpt><trkpt lat="60.7654506806" lon="29.0532018151"><ele>28.02</ele><time>2025-08-12T10:07:16Z</time></trkpt><trkpt lat="60.7652868144" lon="29.0531874821"><ele>28.50</ele><time>2025-08-12T10:07:21Z</time></trkpt><trkpt lat="60.7650678791" lon="29.0530285612"><ele>27.53</ele><time>2025-08-12T10:07:27Z</time></trkpt><trkpt lat="60.7648434956" lon="29.0529247932"><ele>27.05</ele><time>2025-08-12T10:07:35Z</time></trkpt><trkpt lat="60.7646394800" lon="29.0528237075"><ele>26.57</ele><time>2025-08-12T10:07:42Z</time></trkpt><trkpt lat="60.7645978220" lon="29.0528112184"><ele>26.57</ele><time>2025-08-12T10:07:43Z</time></trkpt><trkpt lat="60.7645554934" lon="29.0528080333"><ele>26.57</ele><time>2025-08-12T10:07:44Z</time></trkpt><trkpt lat="60.7645181101" lon="29.0528097097"><ele>26.57</ele><time>2025-08-12T10:07:45Z</time></trkpt><trkpt lat="60.7644886896" lon="29.0528150741"><ele>26.57</ele><time>2025-08-12T10:07:46Z</time></trkpt><trkpt lat="60.7644655555" lon="29.0528264735"><ele>26.57</ele><time>2025-08-12T10:07:47Z</time></trkpt><trkpt lat="60.7644414995" lon="29.0528408065"><ele>26.57</ele><time>2025-08-12T10:07:48Z</time></trkpt><trkpt lat="60.7642768789" lon="29.0529151540"><ele>22.25</ele><time>2025-08-12T10:07:54Z</time></trkpt><trkpt lat="60.7642425131" lon="29.0529268887"><ele>22.25</ele><time>2025-08-12T10:07:55Z</time></trkpt><trkpt lat="60.7641272619" lon="29.0529515315"><ele>22.73</ele><time>2025-08-12T10:07:58Z</time></trkpt><trkpt lat="60.7640831731" lon="29.0529469214"><ele>22.25</ele><time>2025-08-12T10:07:59Z</time></trkpt><trkpt lat="60.7637433708" lon="29.0528702270"><ele>21.77</ele><time>2025-08-12T10:08:06Z</time></trkpt><trkpt lat="60.7637062389" lon="29.0528438240"><ele>21.77</ele><time>2025-08-12T10:08:07Z</time></trkpt><trkpt lat="60.7636717893" lon="29.0528147388"><ele>22.25</ele><time>2025-08-12T10:08:08Z</time></trkpt><trkpt lat="60.7636372559" lon="29.0527766012"><ele>21.77</ele><time>2025-08-12T10:08:09Z</time></trkpt><trkpt lat="60.7636045665" lon="29.0527295787"><ele>21.77</ele><time>2025-08-12T10:08:10Z</time></trkpt><trkpt lat="60.7634714618" lon="29.0524652973"><ele>21.77</ele><time>2025-08-12T10:08:16Z</time></trkpt><trkpt lat="60.7633764949" lon="29.0522191208"><ele>22.25</ele><time>2025-08-12T10:08:23Z</time></trkpt><trkpt lat="60.7632575557" lon="29.0517990198"><ele>21.77</ele><time>2025-08-12T10:08:31Z</time></trkpt><trkpt lat="60.7631288096" lon="29.0514254384"><ele>21.29</ele><time>2025-08-12T10:08:37Z</time></trkpt><trkpt lat="60.7630579825" lon="29.0513236821"><ele>20.81</ele><time>2025-08-12T10:08:39Z</time></trkpt><trkpt lat="60.7630165759" lon="29.0512933396"><ele>20.81</ele><time>2025-08-12T10:08:40Z</time></trkpt><trkpt lat="60.7629722357" lon="29.0512669366"><ele>20.32</ele><time>2025-08-12T10:08:41Z</time></trkpt><trkpt lat="60.7629253808" lon="29.0512503404"><ele>20.32</ele><time>2025-08-12T10:08:42Z</time></trkpt><trkpt lat="60.7628802862" lon="29.0512372646"><ele>20.32</ele><time>2025-08-12T10:08:43Z</time></trkpt><trkpt lat="60.7628392987" lon="29.0512315650"><ele>20.32</ele><time>2025-08-12T10:08:44Z</time></trkpt><trkpt lat="60.7626911066" lon="29.0513033979"><ele>20.32</ele><time>2025-08-12T10:08:50Z</time></trkpt><trkpt lat="60.7624888513" lon="29.0514997859"><ele>20.32</ele><time>2025-08-12T10:09:00Z</time></trkpt><trkpt lat="60.7622736879" lon="29.0519402549"><ele>20.81</ele><time>2025-08-12T10:09:07Z</time></trkpt><trkpt lat="60.7619548403" lon="29.0526903514"><ele>21.77</ele><time>2025-08-12T10:09:17Z</time></trkpt><trkpt lat="60.7619208936" lon="29.0527491085"><ele>21.77</ele><time>2025-08-12T10:09:18Z</time></trkpt><trkpt lat="60.7618850190" lon="29.0527991485"><ele>21.77</ele><time>2025-08-12T10:09:19Z</time></trkpt><trkpt lat="60.7618447859" lon="29.0528537985"><ele>21.77</ele><time>2025-08-12T10:09:20Z</time></trkpt><trkpt lat="60.7616028003" lon="29.0530550480"><ele>22.25</ele><time>2025-08-12T10:09:27Z</time></trkpt><trkpt lat="60.7613552827" lon="29.0531904995"><ele>22.25</ele><time>2025-08-12T10:09:34Z</time></trkpt><trkpt lat="60.7611491717" lon="29.0531938523"><ele>21.77</ele><time>2025-08-12T10:09:41Z</time></trkpt><trkpt lat="60.7609171607" lon="29.0531479195"><ele>22.25</ele><time>2025-08-12T10:09:49Z</time></trkpt><trkpt lat="60.7606394682" lon="29.0531016514"><ele>22.25</ele><time>2025-08-12T10:09:56Z</time></trkpt><trkpt lat="60.7603633683" lon="29.0531003941"><ele>22.73</ele><time>2025-08-12T10:10:02Z</time></trkpt><trkpt lat="60.7601947244" lon="29.0530302376"><ele>23.21</ele><time>2025-08-12T10:10:05Z</time></trkpt><trkpt lat="60.7601383142" lon="29.0529843885"><ele>23.21</ele><time>2025-08-12T10:10:06Z</time></trkpt><trkpt lat="60.7600829937" lon="29.0529300738"><ele>22.73</ele><time>2025-08-12T10:10:07Z</time></trkpt><trkpt lat="60.7598728593" lon="29.0527093783"><ele>22.73</ele><time>2025-08-12T10:10:12Z</time></trkpt><trkpt lat="60.7597784791" lon="29.0525603481"><ele>22.25</ele><time>2025-08-12T10:10:17Z</time></trkpt><trkpt lat="60.7596610487" lon="29.0523802210"><ele>22.73</ele><time>2025-08-12T10:10:26Z</time></trkpt><trkpt lat="60.7595448755" lon="29.0522322804"><ele>22.25</ele><time>2025-08-12T10:10:31Z</time></trkpt><trkpt lat="60.7594511658" lon="29.0520375688"><ele>22.25</ele><time>2025-08-12T10:10:35Z</time></trkpt><trkpt lat="60.7593606412" lon="29.0517576970"><ele>21.29</ele><time>2025-08-12T10:10:40Z</time></trkpt><trkpt lat="60.7592823543" lon="29.0512948483"><ele>21.29</ele><time>2025-08-12T10:10:49Z</time></trkpt><trkpt lat="60.7592417020" lon="29.0508648567"><ele>20.81</ele><time>2025-08-12T10:10:57Z</time></trkpt><trkpt lat="60.7592240162" lon="29.0504623577"><ele>20.32</ele><time>2025-08-12T10:11:02Z</time></trkpt><trkpt lat="60.7591641694" lon="29.0499541629"><ele>19.36</ele><time>2025-08-12T10:11:08Z</time></trkpt><trkpt lat="60.7591353357" lon="29.0497280192"><ele>18.88</ele><time>2025-08-12T10:11:15Z</time></trkpt><trkpt lat="60.7590963598" lon="29.0494411904"><ele>18.88</ele><time>2025-08-12T10:11:24Z</time></trkpt><trkpt lat="60.7590366807" lon="29.0491946787"><ele>18.88</ele><time>2025-08-12T10:11:32Z</time></trkpt><trkpt lat="60.7589060906" lon="29.0489995480"><ele>19.36</ele><time>2025-08-12T10:11:41Z</time></trkpt><trkpt lat="60.7586676255" lon="29.0487500187"><ele>21.29</ele><time>2025-08-12T10:11:49Z</time></trkpt><trkpt lat="60.7584382128" lon="29.0484885871"><ele>21.29</ele><time>2025-08-12T10:11:55Z</time></trkpt><trkpt lat="60.7582720835" lon="29.0482343640"><ele>21.29</ele><time>2025-08-12T10:12:01Z</time></trkpt><trkpt lat="60.7580688223" lon="29.0479088947"><ele>21.77</ele><time>2025-08-12T10:12:08Z</time></trkpt><trkpt lat="60.7578745298" lon="29.0476337168"><ele>21.29</ele><time>2025-08-12T10:12:15Z</time></trkpt><trkpt lat="60.7576998509" lon="29.0474404301"><ele>20.81</ele><time>2025-08-12T10:12:21Z</time></trkpt><trkpt lat="60.7574932370" lon="29.0472151246"><ele>20.32</ele><time>2025-08-12T10:12:29Z</time></trkpt><trkpt lat="60.7572911493" lon="29.0469741449"><ele>20.81</ele><time>2025-08-12T10:12:36Z</time></trkpt><trkpt lat="60.7570460625" lon="29.0466877352"><ele>21.29</ele><time>2025-08-12T10:12:43Z</time></trkpt><trkpt lat="60.7567839604" lon="29.0464289859"><ele>21.77</ele><time>2025-08-12T10:12:49Z</time></trkpt><trkpt lat="60.7566811983" lon="29.0463761799"><ele>21.29</ele><time>2025-08-12T10:12:55Z</time></trkpt><trkpt lat="60.7564812899" lon="29.0462222043"><ele>20.81</ele><time>2025-08-12T10:13:03Z</time></trkpt><trkpt lat="60.7562378794" lon="29.0460270736"><ele>21.77</ele><time>2025-08-12T10:13:11Z</time></trkpt><trkpt lat="60.7559732627" lon="29.0458028577"><ele>22.25</ele><time>2025-08-12T10:13:17Z</time></trkpt><trkpt lat="60.7555736974" lon="29.0454069804"><ele>24.65</ele><time>2025-08-12T10:13:26Z</time></trkpt><trkpt lat="60.7554889563" lon="29.0453176294"><ele>24.65</ele><time>2025-08-12T10:13:32Z</time></trkpt><trkpt lat="60.7552901376" lon="29.0451686829"><ele>24.65</ele><time>2025-08-12T10:13:39Z</time></trkpt><trkpt lat="60.7550934143" lon="29.0448872186"><ele>24.65</ele><time>2025-08-12T10:13:47Z</time></trkpt><trkpt lat="60.7548859622" lon="29.0445942711"><ele>25.13</ele><time>2025-08-12T10:13:54Z</time></trkpt><trkpt lat="60.7545172423" lon="29.0440663788"><ele>26.57</ele><time>2025-08-12T10:14:03Z</time></trkpt><trkpt lat="60.7543553039" lon="29.0438314341"><ele>28.02</ele><time>2025-08-12T10:14:09Z</time></trkpt><trkpt lat="60.7541799545" lon="29.0435141791"><ele>29.46</ele><time>2025-08-12T10:14:16Z</time></trkpt><trkpt lat="60.7540240511" lon="29.0431245882"><ele>30.90</ele><time>2025-08-12T10:14:22Z</time></trkpt><trkpt lat="60.7538084686" lon="29.0425379388"><ele>32.34</ele><time>2025-08-12T10:14:29Z</time></trkpt><trkpt lat="60.7536627911" lon="29.0422395431"><ele>33.78</ele><time>2025-08-12T10:14:32Z</time></trkpt><trkpt lat="60.7533856016" lon="29.0416698251"><ele>37.15</ele><time>2025-08-12T10:14:39Z</time></trkpt><trkpt lat="60.7532567717" lon="29.0413876902"><ele>39.07</ele><time>2025-08-12T10:14:43Z</time></trkpt><trkpt lat="60.7531051431" lon="29.0410964191"><ele>40.99</ele><time>2025-08-12T10:14:49Z</time></trkpt><trkpt lat="60.7530324720" lon="29.0409011208"><ele>41.47</ele><time>2025-08-12T10:14:55Z</time></trkpt><trkpt lat="60.7530263532" lon="29.0408741310"><ele>41.47</ele><time>2025-08-12T10:14:56Z</time></trkpt><trkpt lat="60.7529179752" lon="29.0405265335"><ele>43.40</ele><time>2025-08-12T10:15:03Z</time></trkpt><trkpt lat="60.7528153807" lon="29.0403246135"><ele>44.84</ele><time>2025-08-12T10:15:06Z</time></trkpt><trkpt lat="60.7527369261" lon="29.0401968732"><ele>44.84</ele><time>2025-08-12T10:15:08Z</time></trkpt><trkpt lat="60.7526876405" lon="29.0401073545"><ele>45.32</ele><time>2025-08-12T10:15:09Z</time></trkpt><trkpt lat="60.7523741573" lon="29.0394410770"><ele>46.76</ele><time>2025-08-12T10:15:15Z</time></trkpt><trkpt lat="60.7522444054" lon="29.0391503088"><ele>46.28</ele><time>2025-08-12T10:15:18Z</time></trkpt><trkpt lat="60.7521279808" lon="29.0388426930"><ele>45.80</ele><time>2025-08-12T10:15:23Z</time></trkpt><trkpt lat="60.7520118076" lon="29.0384383500"><ele>45.80</ele><time>2025-08-12T10:15:30Z</time></trkpt><trkpt lat="60.7519300841" lon="29.0381531976"><ele>45.80</ele><time>2025-08-12T10:15:37Z</time></trkpt><trkpt lat="60.7518233825" lon="29.0378083661"><ele>45.80</ele><time>2025-08-12T10:15:45Z</time></trkpt><trkpt lat="60.7517528906" lon="29.0375617705"><ele>46.28</ele><time>2025-08-12T10:15:53Z</time></trkpt><trkpt lat="60.7516747713" lon="29.0372636262"><ele>46.28</ele><time>2025-08-12T10:16:01Z</time></trkpt><trkpt lat="60.7515004277" lon="29.0369307809"><ele>46.28</ele><time>2025-08-12T10:16:08Z</time></trkpt><trkpt lat="60.7513541635" lon="29.0364710335"><ele>45.32</ele><time>2025-08-12T10:16:17Z</time></trkpt><trkpt lat="60.7513277605" lon="29.0360231046"><ele>44.36</ele><time>2025-08-12T10:16:23Z</time></trkpt><trkpt lat="60.7512956578" lon="29.0357713122"><ele>44.36</ele><time>2025-08-12T10:16:30Z</time></trkpt><trkpt lat="60.7512826659" lon="29.0355302487"><ele>44.84</ele><time>2025-08-12T10:16:37Z</time></trkpt><trkpt lat="60.7512864377" lon="29.0352893528"><ele>44.36</ele><time>2025-08-12T10:16:46Z</time></trkpt><trkpt lat="60.7512882818" lon="29.0348871890"><ele>44.84</ele><time>2025-08-12T10:16:54Z</time></trkpt><trkpt lat="60.7512685843" lon="29.0345433634"><ele>45.32</ele><time>2025-08-12T10:17:01Z</time></trkpt><trkpt lat="60.7512402534" lon="29.0341284592"><ele>45.32</ele><time>2025-08-12T10:17:10Z</time></trkpt><trkpt lat="60.7511916384" lon="29.0337155666"><ele>46.28</ele><time>2025-08-12T10:17:18Z</time></trkpt><trkpt lat="60.7511064783" lon="29.0333315916"><ele>47.24</ele><time>2025-08-12T10:17:25Z</time></trkpt><trkpt lat="60.7510223240" lon="29.0329611953"><ele>47.72</ele><time>2025-08-12T10:17:31Z</time></trkpt><trkpt lat="60.7509845216" lon="29.0327819064"><ele>47.72</ele><time>2025-08-12T10:17:35Z</time></trkpt><trkpt lat="60.7509777322" lon="29.0327294357"><ele>47.72</ele><time>2025-08-12T10:17:36Z</time></trkpt><trkpt lat="60.7509729546" lon="29.0326744504"><ele>47.72</ele><time>2025-08-12T10:17:37Z</time></trkpt><trkpt lat="60.7509629801" lon="29.0326249134"><ele>47.72</ele><time>2025-08-12T10:17:38Z</time></trkpt><trkpt lat="60.7509556040" lon="29.0325775556"><ele>47.72</ele><time>2025-08-12T10:17:39Z</time></trkpt><trkpt lat="60.7509469707" lon="29.0325307846"><ele>48.20</ele><time>2025-08-12T10:17:40Z</time></trkpt><trkpt lat="60.7508245949" lon="29.0321689378"><ele>48.20</ele><time>2025-08-12T10:17:48Z</time></trkpt><trkpt lat="60.7507701963" lon="29.0318641718"><ele>48.20</ele><time>2025-08-12T10:17:55Z</time></trkpt><trkpt lat="60.7506665960" lon="29.0315967891"><ele>48.20</ele><time>2025-08-12T10:18:03Z</time></trkpt><trkpt lat="60.7504120376" lon="29.0311328508"><ele>47.24</ele><time>2025-08-12T10:18:12Z</time></trkpt><trkpt lat="60.7502524462" lon="29.0307761170"><ele>47.24</ele><time>2025-08-12T10:18:19Z</time></trkpt><trkpt lat="60.7500853110" lon="29.0303639788"><ele>46.76</ele><time>2025-08-12T10:18:27Z</time></trkpt><trkpt lat="60.7499435730" lon="29.0299820155"><ele>46.76</ele><time>2025-08-12T10:18:35Z</time></trkpt><trkpt lat="60.7498128992" lon="29.0295812767"><ele>47.24</ele><time>2025-08-12T10:18:43Z</time></trkpt><trkpt lat="60.7497023419" lon="29.0292672906"><ele>46.76</ele><time>2025-08-12T10:18:51Z</time></trkpt><trkpt lat="60.7496492006" lon="29.0287612751"><ele>47.24</ele><time>2025-08-12T10:19:00Z</time></trkpt><trkpt lat="60.7496206183" lon="29.0280305408"><ele>47.72</ele><time>2025-08-12T10:19:11Z</time></trkpt><trkpt lat="60.7496357895" lon="29.0274516027"><ele>47.24</ele><time>2025-08-12T10:19:17Z</time></trkpt><trkpt lat="60.7496693172" lon="29.0270407218"><ele>46.76</ele><time>2025-08-12T10:19:22Z</time></trkpt><trkpt lat="60.7496355381" lon="29.0265609417"><ele>46.28</ele><time>2025-08-12T10:19:30Z</time></trkpt><trkpt lat="60.7495838217" lon="29.0262725204"><ele>45.80</ele><time>2025-08-12T10:19:35Z</time></trkpt><trkpt lat="60.7495646272" lon="29.0262011066"><ele>45.80</ele><time>2025-08-12T10:19:36Z</time></trkpt><trkpt lat="60.7495393977" lon="29.0261332132"><ele>45.80</ele><time>2025-08-12T10:19:37Z</time></trkpt><trkpt lat="60.7495058700" lon="29.0260710195"><ele>45.32</ele><time>2025-08-12T10:19:38Z</time></trkpt><trkpt lat="60.7494708337" lon="29.0260111727"><ele>45.32</ele><time>2025-08-12T10:19:39Z</time></trkpt><trkpt lat="60.7493032794" lon="29.0256698616"><ele>44.36</ele><time>2025-08-12T10:19:45Z</time></trkpt><trkpt lat="60.7492521498" lon="29.0252876468"><ele>43.40</ele><time>2025-08-12T10:19:51Z</time></trkpt><trkpt lat="60.7491710968" lon="29.0248465911"><ele>42.92</ele><time>2025-08-12T10:19:58Z</time></trkpt><trkpt lat="60.7491743658" lon="29.0248307493"><ele>44.36</ele><time>2025-08-12T10:20:04Z</time></trkpt><trkpt lat="60.7491758745" lon="29.0248361137"><ele>46.76</ele><time>2025-08-12T10:20:06Z</time></trkpt><trkpt lat="60.7491600327" lon="29.0248582419"><ele>42.44</ele><time>2025-08-12T10:20:17Z</time></trkpt><trkpt lat="60.7491570991" lon="29.0248543024"><ele>42.44</ele><time>2025-08-12T10:20:18Z</time></trkpt><trkpt lat="60.7491610385" lon="29.0248615108"><ele>42.44</ele><time>2025-08-12T10:20:39Z</time></trkpt><trkpt lat="60.7491652295" lon="29.0248824656"><ele>46.76</ele><time>2025-08-12T10:20:45Z</time></trkpt><trkpt lat="60.7491626311" lon="29.0248890035"><ele>46.28</ele><time>2025-08-12T10:20:46Z</time></trkpt><trkpt lat="60.7491560094" lon="29.0249028336"><ele>43.88</ele><time>2025-08-12T10:20:50Z</time></trkpt><trkpt lat="60.7491520699" lon="29.0249026660"><ele>42.44</ele><time>2025-08-12T10:20:53Z</time></trkpt><trkpt lat="60.7491656486" lon="29.0248688031"><ele>45.80</ele><time>2025-08-12T10:21:10Z</time></trkpt><trkpt lat="60.7491661515" lon="29.0248706471"><ele>46.28</ele><time>2025-08-12T10:21:11Z</time></trkpt><trkpt lat="60.7491700910" lon="29.0248790290"><ele>42.44</ele><time>2025-08-12T10:21:15Z</time></trkpt><trkpt lat="60.7491702586" lon="29.0248813760"><ele>42.44</ele><time>2025-08-12T10:21:16Z</time></trkpt><trkpt lat="60.7492120843" lon="29.0248993132"><ele>42.44</ele><time>2025-08-12T10:21:40Z</time></trkpt><trkpt lat="60.7491900399" lon="29.0248586610"><ele>42.44</ele><time>2025-08-12T10:21:45Z</time></trkpt><trkpt lat="60.7491270918" lon="29.0246487781"><ele>41.95</ele><time>2025-08-12T10:21:53Z</time></trkpt><trkpt lat="60.7490427699" lon="29.0243440121"><ele>41.95</ele><time>2025-08-12T10:22:01Z</time></trkpt><trkpt lat="60.7489439473" lon="29.0241223108"><ele>41.47</ele><time>2025-08-12T10:22:09Z</time></trkpt><trkpt lat="60.7488227449" lon="29.0237770602"><ele>39.55</ele><time>2025-08-12T10:22:17Z</time></trkpt><trkpt lat="60.7487259340" lon="29.0236682631"><ele>38.59</ele><time>2025-08-12T10:22:25Z</time></trkpt><trkpt lat="60.7486647461" lon="29.0235685185"><ele>38.59</ele><time>2025-08-12T10:22:37Z</time></trkpt><trkpt lat="60.7485264447" lon="29.0232904069"><ele>36.67</ele><time>2025-08-12T10:22:47Z</time></trkpt><trkpt lat="60.7484251074" lon="29.0231625829"><ele>35.23</ele><time>2025-08-12T10:22:55Z</time></trkpt><trkpt lat="60.7484154683" lon="29.0231315698"><ele>34.74</ele><time>2025-08-12T10:22:56Z</time></trkpt><trkpt lat="60.7482731435" lon="29.0227104630"><ele>32.82</ele><time>2025-08-12T10:23:03Z</time></trkpt><trkpt lat="60.7481073495" lon="29.0222208761"><ele>31.86</ele><time>2025-08-12T10:23:11Z</time></trkpt><trkpt lat="60.7479704730" lon="29.0215346497"><ele>30.90</ele><time>2025-08-12T10:23:18Z</time></trkpt><trkpt lat="60.7479770947" lon="29.0210218448"><ele>29.46</ele><time>2025-08-12T10:23:25Z</time></trkpt><trkpt lat="60.7479711436" lon="29.0207760874"><ele>29.46</ele><time>2025-08-12T10:23:32Z</time></trkpt><trkpt lat="60.7479708921" lon="29.0204487741"><ele>28.98</ele><time>2025-08-12T10:23:40Z</time></trkpt><trkpt lat="60.7479573134" lon="29.0201246459"><ele>29.46</ele><time>2025-08-12T10:23:47Z</time></trkpt><trkpt lat="60.7479719818" lon="29.0199637134"><ele>29.94</ele><time>2025-08-12T10:23:49Z</time></trkpt><trkpt lat="60.7480621710" lon="29.0194135252"><ele>30.42</ele><time>2025-08-12T10:23:53Z</time></trkpt><trkpt lat="60.7481244486" lon="29.0185557213"><ele>30.90</ele><time>2025-08-12T10:23:57Z</time></trkpt><trkpt lat="60.7481889054" lon="29.0165167395"><ele>30.42</ele><time>2025-08-12T10:24:05Z</time></trkpt><trkpt lat="60.7481909171" lon="29.0151264332"><ele>32.82</ele><time>2025-08-12T10:24:11Z</time></trkpt><trkpt lat="60.7480234466" lon="29.0138895996"><ele>31.86</ele><time>2025-08-12T10:24:16Z</time></trkpt><trkpt lat="60.7479182538" lon="29.0133519843"><ele>30.90</ele><time>2025-08-12T10:24:18Z</time></trkpt><trkpt lat="60.7475871686" lon="29.0115349554"><ele>27.53</ele><time>2025-08-12T10:24:24Z</time></trkpt><trkpt lat="60.7472841628" lon="29.0098765120"><ele>24.17</ele><time>2025-08-12T10:24:29Z</time></trkpt><trkpt lat="60.7468871959" lon="29.0076062735"><ele>24.65</ele><time>2025-08-12T10:24:36Z</time></trkpt><trkpt lat="60.7465885486" lon="29.0058621671"><ele>25.61</ele><time>2025-08-12T10:24:42Z</time></trkpt><trkpt lat="60.7462786697" lon="29.0045896266"><ele>25.61</ele><time>2025-08-12T10:24:47Z</time></trkpt><trkpt lat="60.7457495201" lon="29.0031966381"><ele>24.17</ele><time>2025-08-12T10:24:53Z</time></trkpt><trkpt lat="60.7454091311" lon="29.0018948447"><ele>24.65</ele><time>2025-08-12T10:24:58Z</time></trkpt><trkpt lat="60.7453151699" lon="29.0013511945"><ele>25.61</ele><time>2025-08-12T10:25:00Z</time></trkpt><trkpt lat="60.7452868391" lon="29.0010733344"><ele>25.61</ele><time>2025-08-12T10:25:01Z</time></trkpt><trkpt lat="60.7452689856" lon="29.0007934626"><ele>25.13</ele><time>2025-08-12T10:25:02Z</time></trkpt><trkpt lat="60.7452699076" lon="28.9994034916"><ele>23.69</ele><time>2025-08-12T10:25:07Z</time></trkpt><trkpt lat="60.7453042734" lon="28.9991299901"><ele>24.17</ele><time>2025-08-12T10:25:08Z</time></trkpt><trkpt lat="60.7455617655" lon="28.9975704532"><ele>27.53</ele><time>2025-08-12T10:25:14Z</time></trkpt><trkpt lat="60.7455943711" lon="28.9970250428"><ele>28.02</ele><time>2025-08-12T10:25:16Z</time></trkpt><trkpt lat="60.7455488574" lon="28.9952135459"><ele>27.05</ele><time>2025-08-12T10:25:22Z</time></trkpt><trkpt lat="60.7454191893" lon="28.9939975832"><ele>26.09</ele><time>2025-08-12T10:25:26Z</time></trkpt><trkpt lat="60.7450894453" lon="28.9925088733"><ele>26.09</ele><time>2025-08-12T10:25:31Z</time></trkpt><trkpt lat="60.7444680948" lon="28.9897959027"><ele>24.17</ele><time>2025-08-12T10:25:40Z</time></trkpt><trkpt lat="60.7443999499" lon="28.9894918911"><ele>24.17</ele><time>2025-08-12T10:25:41Z</time></trkpt><trkpt lat="60.7437210158" lon="28.9865553752"><ele>22.73</ele><time>2025-08-12T10:25:51Z</time></trkpt><trkpt lat="60.7434274815" lon="28.9852747880"><ele>24.17</ele><time>2025-08-12T10:25:56Z</time></trkpt><trkpt lat="60.7431493700" lon="28.9840675425"><ele>26.57</ele><time>2025-08-12T10:26:01Z</time></trkpt><trkpt lat="60.7426550053" lon="28.9820943587"><ele>24.17</ele><time>2025-08-12T10:26:09Z</time></trkpt><trkpt lat="60.7422461361" lon="28.9808519091"><ele>21.29</ele><time>2025-08-12T10:26:14Z</time></trkpt><trkpt lat="60.7417199202" lon="28.9796967153"><ele>22.25</ele><time>2025-08-12T10:26:19Z</time></trkpt><trkpt lat="60.7411475200" lon="28.9787521586"><ele>25.61</ele><time>2025-08-12T10:26:24Z</time></trkpt><trkpt lat="60.7402333897" lon="28.9776109625"><ele>27.53</ele><time>2025-08-12T10:26:31Z</time></trkpt><trkpt lat="60.7395462412" lon="28.9768812340"><ele>31.38</ele><time>2025-08-12T10:26:36Z</time></trkpt><trkpt lat="60.7389887609" lon="28.9763812535"><ele>34.74</ele><time>2025-08-12T10:26:40Z</time></trkpt><trkpt lat="60.7384149358" lon="28.9758785069"><ele>38.59</ele><time>2025-08-12T10:26:44Z</time></trkpt><trkpt lat="60.7379085850" lon="28.9752833080"><ele>41.47</ele><time>2025-08-12T10:26:48Z</time></trkpt><trkpt lat="60.7371824607" lon="28.9740232565"><ele>40.99</ele><time>2025-08-12T10:26:55Z</time></trkpt><trkpt lat="60.7364036143" lon="28.9726528153"><ele>41.95</ele><time>2025-08-12T10:27:03Z</time></trkpt><trkpt lat="60.7359954994" lon="28.9718108531"><ele>44.36</ele><time>2025-08-12T10:27:08Z</time></trkpt><trkpt lat="60.7359411009" lon="28.9716131240"><ele>44.84</ele><time>2025-08-12T10:27:09Z</time></trkpt><trkpt lat="60.7358957548" lon="28.9714079350"><ele>45.32</ele><time>2025-08-12T10:27:10Z</time></trkpt><trkpt lat="60.7356947567" lon="28.9702536631"><ele>48.20</ele><time>2025-08-12T10:27:15Z</time></trkpt><trkpt lat="60.7354658470" lon="28.9684324432"><ele>51.57</ele><time>2025-08-12T10:27:22Z</time></trkpt><trkpt lat="60.7354350854" lon="28.9671086054"><ele>54.93</ele><time>2025-08-12T10:27:27Z</time></trkpt><trkpt lat="60.7355013862" lon="28.9651959389"><ele>57.34</ele><time>2025-08-12T10:27:34Z</time></trkpt><trkpt lat="60.7356618997" lon="28.9640979096"><ele>59.26</ele><time>2025-08-12T10:27:38Z</time></trkpt><trkpt lat="60.7357299607" lon="28.9638484642"><ele>59.26</ele><time>2025-08-12T10:27:39Z</time></trkpt><trkpt lat="60.7358150370" lon="28.9636343066"><ele>59.74</ele><time>2025-08-12T10:27:40Z</time></trkpt><trkpt lat="60.7359126862" lon="28.9634533413"><ele>59.26</ele><time>2025-08-12T10:27:41Z</time></trkpt><trkpt lat="60.7360193878" lon="28.9632860385"><ele>59.74</ele><time>2025-08-12T10:27:42Z</time></trkpt><trkpt lat="60.7368548959" lon="28.9620670583"><ele>59.74</ele><time>2025-08-12T10:27:49Z</time></trkpt><trkpt lat="60.7375718001" lon="28.9608193282"><ele>59.26</ele><time>2025-08-12T10:27:55Z</time></trkpt><trkpt lat="60.7381848525" lon="28.9592660777"><ele>60.70</ele><time>2025-08-12T10:28:01Z</time></trkpt><trkpt lat="60.7382473815" lon="28.9589688554"><ele>61.18</ele><time>2025-08-12T10:28:02Z</time></trkpt><trkpt lat="60.7386181131" lon="28.9575986657"><ele>61.66</ele><time>2025-08-12T10:28:07Z</time></trkpt><trkpt lat="60.7391641103" lon="28.9558073692"><ele>60.70</ele><time>2025-08-12T10:28:14Z</time></trkpt><trkpt lat="60.7398241013" lon="28.9532583486"><ele>60.22</ele><time>2025-08-12T10:28:23Z</time></trkpt><trkpt lat="60.7405321207" lon="28.9508462045"><ele>59.74</ele><time>2025-08-12T10:28:32Z</time></trkpt><trkpt lat="60.7412602566" lon="28.9481886383"><ele>58.30</ele><time>2025-08-12T10:28:42Z</time></trkpt><trkpt lat="60.7417429704" lon="28.9461913984"><ele>55.89</ele><time>2025-08-12T10:28:49Z</time></trkpt><trkpt lat="60.7423545141" lon="28.9436168130"><ele>53.01</ele><time>2025-08-12T10:28:58Z</time></trkpt><trkpt lat="60.7428319473" lon="28.9418031368"><ele>52.05</ele><time>2025-08-12T10:29:05Z</time></trkpt><trkpt lat="60.7433283236" lon="28.9406164270"><ele>51.57</ele><time>2025-08-12T10:29:10Z</time></trkpt><trkpt lat="60.7437101193" lon="28.9393492509"><ele>52.05</ele><time>2025-08-12T10:29:15Z</time></trkpt><trkpt lat="60.7441031467" lon="28.9378425200"><ele>51.57</ele><time>2025-08-12T10:29:21Z</time></trkpt><trkpt lat="60.7450111583" lon="28.9353250153"><ele>50.61</ele><time>2025-08-12T10:29:32Z</time></trkpt><trkpt lat="60.7457444910" lon="28.9334775601"><ele>50.13</ele><time>2025-08-12T10:29:40Z</time></trkpt><trkpt lat="60.7463121973" lon="28.9325620886"><ele>49.65</ele><time>2025-08-12T10:29:45Z</time></trkpt><trkpt lat="60.7467703521" lon="28.9318471961"><ele>50.13</ele><time>2025-08-12T10:29:49Z</time></trkpt><trkpt lat="60.7469637226" lon="28.9314081520"><ele>50.61</ele><time>2025-08-12T10:29:51Z</time></trkpt><trkpt lat="60.7470348850" lon="28.9311548509"><ele>50.13</ele><time>2025-08-12T10:29:52Z</time></trkpt><trkpt lat="60.7470858470" lon="28.9308818523"><ele>49.65</ele><time>2025-08-12T10:29:53Z</time></trkpt><trkpt lat="60.7472809777" lon="28.9291585330"><ele>49.65</ele><time>2025-08-12T10:29:59Z</time></trkpt><trkpt lat="60.7475177664" lon="28.9277414884"><ele>49.16</ele><time>2025-08-12T10:30:04Z</time></trkpt><trkpt lat="60.7480029110" lon="28.9260843862"><ele>48.20</ele><time>2025-08-12T10:30:10Z</time></trkpt><trkpt lat="60.7484553661" lon="28.9247185551"><ele>45.80</ele><time>2025-08-12T10:30:15Z</time></trkpt><trkpt lat="60.7485699467" lon="28.9244972728"><ele>45.32</ele><time>2025-08-12T10:30:16Z</time></trkpt><trkpt lat="60.7486972678" lon="28.9243093506"><ele>44.84</ele><time>2025-08-12T10:30:17Z</time></trkpt><trkpt lat="60.7495445106" lon="28.9233082999"><ele>43.88</ele><time>2025-08-12T10:30:23Z</time></trkpt><trkpt lat="60.7504066732" lon="28.9221626613"><ele>43.40</ele><time>2025-08-12T10:30:29Z</time></trkpt><trkpt lat="60.7513109129" lon="28.9206726942"><ele>41.95</ele><time>2025-08-12T10:30:36Z</time></trkpt><trkpt lat="60.7519986480" lon="28.9193819650"><ele>40.99</ele><time>2025-08-12T10:30:42Z</time></trkpt><trkpt lat="60.7520878315" lon="28.9191157557"><ele>40.99</ele><time>2025-08-12T10:30:43Z</time></trkpt><trkpt lat="60.7521606702" lon="28.9188285917"><ele>40.99</ele><time>2025-08-12T10:30:44Z</time></trkpt><trkpt lat="60.7525062561" lon="28.9169122372"><ele>40.03</ele><time>2025-08-12T10:30:50Z</time></trkpt><trkpt lat="60.7530807517" lon="28.9140401781"><ele>36.67</ele><time>2025-08-12T10:30:59Z</time></trkpt><trkpt lat="60.7531669177" lon="28.9137461409"><ele>35.71</ele><time>2025-08-12T10:31:00Z</time></trkpt><trkpt lat="60.7532669976" lon="28.9134697895"><ele>35.23</ele><time>2025-08-12T10:31:01Z</time></trkpt><trkpt lat="60.7533787284" lon="28.9132060949"><ele>34.74</ele><time>2025-08-12T10:31:02Z</time></trkpt><trkpt lat="60.7534993440" lon="28.9129603375"><ele>34.74</ele><time>2025-08-12T10:31:03Z</time></trkpt><trkpt lat="60.7536299340" lon="28.9127305895"><ele>34.26</ele><time>2025-08-12T10:31:04Z</time></trkpt><trkpt lat="60.7537699956" lon="28.9125158451"><ele>34.26</ele><time>2025-08-12T10:31:05Z</time></trkpt><trkpt lat="60.7539182715" lon="28.9123205468"><ele>34.26</ele><time>2025-08-12T10:31:06Z</time></trkpt><trkpt lat="60.7540744264" lon="28.9121362288"><ele>33.78</ele><time>2025-08-12T10:31:07Z</time></trkpt><trkpt lat="60.7542372867" lon="28.9119621366"><ele>32.82</ele><time>2025-08-12T10:31:08Z</time></trkpt><trkpt lat="60.7549643330" lon="28.9109685458"><ele>29.46</ele><time>2025-08-12T10:31:13Z</time></trkpt><trkpt lat="60.7552042231" lon="28.9104611892"><ele>27.05</ele><time>2025-08-12T10:31:15Z</time></trkpt><trkpt lat="60.7552977651" lon="28.9101662301"><ele>26.09</ele><time>2025-08-12T10:31:16Z</time></trkpt><trkpt lat="60.7556558400" lon="28.9089262951"><ele>23.21</ele><time>2025-08-12T10:31:20Z</time></trkpt><trkpt lat="60.7560404856" lon="28.9076663274"><ele>19.36</ele><time>2025-08-12T10:31:24Z</time></trkpt><trkpt lat="60.7564716507" lon="28.9060844947"><ele>16.00</ele><time>2025-08-12T10:31:29Z</time></trkpt><trkpt lat="60.7565278932" lon="28.9057489671"><ele>15.52</ele><time>2025-08-12T10:31:30Z</time></trkpt><trkpt lat="60.7565672882" lon="28.9054114278"><ele>15.04</ele><time>2025-08-12T10:31:31Z</time></trkpt><trkpt lat="60.7566293143" lon="28.9047662728"><ele>14.08</ele><time>2025-08-12T10:31:33Z</time></trkpt><trkpt lat="60.7567322440" lon="28.9037114102"><ele>13.60</ele><time>2025-08-12T10:31:37Z</time></trkpt><trkpt lat="60.7567626704" lon="28.9033032116"><ele>14.08</ele><time>2025-08-12T10:31:39Z</time></trkpt><trkpt lat="60.7567628380" lon="28.9031087514"><ele>14.08</ele><time>2025-08-12T10:31:40Z</time></trkpt><trkpt lat="60.7567565516" lon="28.9029186498"><ele>14.56</ele><time>2025-08-12T10:31:41Z</time></trkpt><trkpt lat="60.7567459065" lon="28.9027330745"><ele>14.08</ele><time>2025-08-12T10:31:42Z</time></trkpt><trkpt lat="60.7567183301" lon="28.9025689568"><ele>14.08</ele><time>2025-08-12T10:31:43Z</time></trkpt><trkpt lat="60.7566803601" lon="28.9024444856"><ele>13.60</ele><time>2025-08-12T10:31:44Z</time></trkpt><trkpt lat="60.7566305716" lon="28.9023305755"><ele>14.56</ele><time>2025-08-12T10:31:45Z</time></trkpt><trkpt lat="60.7565907575" lon="28.9022682142"><ele>14.56</ele><time>2025-08-12T10:31:46Z</time></trkpt><trkpt lat="60.7565404661" lon="28.9022073615"><ele>14.08</ele><time>2025-08-12T10:31:47Z</time></trkpt><trkpt lat="60.7564785238" lon="28.9021364506"><ele>14.56</ele><time>2025-08-12T10:31:48Z</time></trkpt><trkpt lat="60.7564050145" lon="28.9020680543"><ele>15.04</ele><time>2025-08-12T10:31:49Z</time></trkpt><trkpt lat="60.7563216984" lon="28.9020037651"><ele>15.04</ele><time>2025-08-12T10:31:50Z</time></trkpt><trkpt lat="60.7558641303" lon="28.9017180260"><ele>16.00</ele><time>2025-08-12T10:31:54Z</time></trkpt><trkpt lat="60.7551076636" lon="28.9014736935"><ele>16.00</ele><time>2025-08-12T10:31:59Z</time></trkpt><trkpt lat="60.7537335344" lon="28.9010760561"><ele>16.00</ele><time>2025-08-12T10:32:08Z</time></trkpt><trkpt lat="60.7527344953" lon="28.9005983714"><ele>16.00</ele><time>2025-08-12T10:32:15Z</time></trkpt><trkpt lat="60.7520351093" lon="28.8999703992"><ele>16.00</ele><time>2025-08-12T10:32:20Z</time></trkpt><trkpt lat="60.7509162091" lon="28.8985368423"><ele>15.04</ele><time>2025-08-12T10:32:28Z</time></trkpt><trkpt lat="60.7495740987" lon="28.8968959171"><ele>16.00</ele><time>2025-08-12T10:32:37Z</time></trkpt><trkpt lat="60.7490060572" lon="28.8961051684"><ele>15.52</ele><time>2025-08-12T10:32:41Z</time></trkpt><trkpt lat="60.7488878723" lon="28.8958682120"><ele>15.52</ele><time>2025-08-12T10:32:42Z</time></trkpt><trkpt lat="60.7487789914" lon="28.8956104685"><ele>15.52</ele><time>2025-08-12T10:32:43Z</time></trkpt><trkpt lat="60.7486786600" lon="28.8953315187"><ele>15.52</ele><time>2025-08-12T10:32:44Z</time></trkpt><trkpt lat="60.7485804241" lon="28.8950412534"><ele>15.52</ele><time>2025-08-12T10:32:45Z</time></trkpt><trkpt lat="60.7479985524" lon="28.8929315284"><ele>14.56</ele><time>2025-08-12T10:32:52Z</time></trkpt><trkpt lat="60.7477187645" lon="28.8909290917"><ele>14.08</ele><time>2025-08-12T10:32:58Z</time></trkpt><trkpt lat="60.7474279962" lon="28.8891349453"><ele>13.60</ele><time>2025-08-12T10:33:04Z</time></trkpt><trkpt lat="60.7470954861" lon="28.8878230937"><ele>14.08</ele><time>2025-08-12T10:33:10Z</time></trkpt><trkpt lat="60.7466905564" lon="28.8863921352"><ele>14.56</ele><time>2025-08-12T10:33:16Z</time></trkpt><trkpt lat="60.7463038992" lon="28.8855422102"><ele>14.56</ele><time>2025-08-12T10:33:20Z</time></trkpt><trkpt lat="60.7456387952" lon="28.8847978972"><ele>14.56</ele><time>2025-08-12T10:33:25Z</time></trkpt><trkpt lat="60.7447661553" lon="28.8841488026"><ele>15.04</ele><time>2025-08-12T10:33:31Z</time></trkpt><trkpt lat="60.7438246999" lon="28.8834349159"><ele>15.52</ele><time>2025-08-12T10:33:37Z</time></trkpt><trkpt lat="60.7429598551" lon="28.8828019146"><ele>18.88</ele><time>2025-08-12T10:33:42Z</time></trkpt><trkpt lat="60.7419709582" lon="28.8821919635"><ele>19.84</ele><time>2025-08-12T10:33:48Z</time></trkpt><trkpt lat="60.7409943826" lon="28.8816973474"><ele>19.36</ele><time>2025-08-12T10:33:54Z</time></trkpt><trkpt lat="60.7398244366" lon="28.8808715623"><ele>18.40</ele><time>2025-08-12T10:34:01Z</time></trkpt><trkpt lat="60.7389501203" lon="28.8798677456"><ele>20.81</ele><time>2025-08-12T10:34:07Z</time></trkpt><trkpt lat="60.7382401731" lon="28.8791194931"><ele>18.88</ele><time>2025-08-12T10:34:12Z</time></trkpt><trkpt lat="60.7374710497" lon="28.8784988970"><ele>15.52</ele><time>2025-08-12T10:34:17Z</time></trkpt><trkpt lat="60.7365342043" lon="28.8775049709"><ele>13.12</ele><time>2025-08-12T10:34:23Z</time></trkpt><trkpt lat="60.7351433113" lon="28.8755698409"><ele>13.12</ele><time>2025-08-12T10:34:32Z</time></trkpt><trkpt lat="60.7332598977" lon="28.8730152044"><ele>14.56</ele><time>2025-08-12T10:34:44Z</time></trkpt><trkpt lat="60.7321881875" lon="28.8715682365"><ele>16.96</ele><time>2025-08-12T10:34:51Z</time></trkpt><trkpt lat="60.7313395198" lon="28.8703385275"><ele>18.40</ele><time>2025-08-12T10:34:57Z</time></trkpt><trkpt lat="60.7305163331" lon="28.8686827663"><ele>16.96</ele><time>2025-08-12T10:35:04Z</time></trkpt><trkpt lat="60.7298070565" lon="28.8666974287"><ele>18.88</ele><time>2025-08-12T10:35:11Z</time></trkpt><trkpt lat="60.7291133702" lon="28.8647836726"><ele>16.96</ele><time>2025-08-12T10:35:18Z</time></trkpt><trkpt lat="60.7283912692" lon="28.8627987541"><ele>20.32</ele><time>2025-08-12T10:35:25Z</time></trkpt><trkpt lat="60.7279008441" lon="28.8614428975"><ele>23.21</ele><time>2025-08-12T10:35:30Z</time></trkpt><trkpt lat="60.7272954192" lon="28.8595682848"><ele>26.09</ele><time>2025-08-12T10:35:37Z</time></trkpt><trkpt lat="60.7271393482" lon="28.8586892746"><ele>26.09</ele><time>2025-08-12T10:35:40Z</time></trkpt><trkpt lat="60.7271132804" lon="28.8583765458"><ele>26.09</ele><time>2025-08-12T10:35:41Z</time></trkpt><trkpt lat="60.7270974386" lon="28.8580576144"><ele>26.09</ele><time>2025-08-12T10:35:42Z</time></trkpt><trkpt lat="60.7269765716" lon="28.8564067986"><ele>23.69</ele><time>2025-08-12T10:35:47Z</time></trkpt><trkpt lat="60.7267909963" lon="28.8538867794"><ele>22.73</ele><time>2025-08-12T10:35:54Z</time></trkpt><trkpt lat="60.7265812811" lon="28.8522516377"><ele>24.65</ele><time>2025-08-12T10:35:59Z</time></trkpt><trkpt lat="60.7265045866" lon="28.8519669883"><ele>25.13</ele><time>2025-08-12T10:36:00Z</time></trkpt><trkpt lat="60.7263362780" lon="28.8514281157"><ele>26.09</ele><time>2025-08-12T10:36:02Z</time></trkpt><trkpt lat="60.7260916941" lon="28.8506827969"><ele>29.46</ele><time>2025-08-12T10:36:05Z</time></trkpt><trkpt lat="60.7258730102" lon="28.8496876135"><ele>31.38</ele><time>2025-08-12T10:36:09Z</time></trkpt><trkpt lat="60.7257785462" lon="28.8488768321"><ele>30.42</ele><time>2025-08-12T10:36:13Z</time></trkpt><trkpt lat="60.7256861776" lon="28.8482324313"><ele>30.42</ele><time>2025-08-12T10:36:18Z</time></trkpt><trkpt lat="60.7256522309" lon="28.8480276614"><ele>30.42</ele><time>2025-08-12T10:36:22Z</time></trkpt><trkpt lat="60.7256476209" lon="28.8480235543"><ele>29.94</ele><time>2025-08-12T10:36:32Z</time></trkpt><trkpt lat="60.7256080583" lon="28.8480202854"><ele>29.94</ele><time>2025-08-12T10:36:51Z</time></trkpt><trkpt lat="60.7256388199" lon="28.8479994144"><ele>29.94</ele><time>2025-08-12T10:37:13Z</time></trkpt><trkpt lat="60.7257254049" lon="28.8480301760"><ele>29.94</ele><time>2025-08-12T10:37:36Z</time></trkpt><trkpt lat="60.7257054560" lon="28.8480359595"><ele>29.46</ele><time>2025-08-12T10:37:54Z</time></trkpt><trkpt lat="60.7256820705" lon="28.8480183575"><ele>29.46</ele><time>2025-08-12T10:38:09Z</time></trkpt><trkpt lat="60.7256135065" lon="28.8480067067"><ele>29.46</ele><time>2025-08-12T10:38:30Z</time></trkpt><trkpt lat="60.7256610319" lon="28.8480235543"><ele>29.46</ele><time>2025-08-12T10:38:50Z</time></trkpt><trkpt lat="60.7256660610" lon="28.8480490353"><ele>28.98</ele><time>2025-08-12T10:39:14Z</time></trkpt><trkpt lat="60.7256710064" lon="28.8480634522"><ele>28.98</ele><time>2025-08-12T10:39:34Z</time></trkpt><trkpt lat="60.7256908715" lon="28.8480756059"><ele>29.46</ele><time>2025-08-12T10:39:54Z</time></trkpt><trkpt lat="60.7256804779" lon="28.8480343670"><ele>29.46</ele><time>2025-08-12T10:40:11Z</time></trkpt><trkpt lat="60.7256905362" lon="28.8480499573"><ele>28.98</ele><time>2025-08-12T10:40:32Z</time></trkpt><trkpt lat="60.7256276719" lon="28.8481020927"><ele>28.50</ele><time>2025-08-12T10:40:54Z</time></trkpt><trkpt lat="60.7256618701" lon="28.8480828982"><ele>28.50</ele><time>2025-08-12T10:41:16Z</time></trkpt><trkpt lat="60.7256668992" lon="28.8480614405"><ele>28.50</ele><time>2025-08-12T10:41:40Z</time></trkpt><trkpt lat="60.7256501354" lon="28.8480475266"><ele>28.50</ele><time>2025-08-12T10:42:03Z</time></trkpt><trkpt lat="60.7256422564" lon="28.8480467722"><ele>28.02</ele><time>2025-08-12T10:42:24Z</time></trkpt><trkpt lat="60.7256548293" lon="28.8480353728"><ele>28.50</ele><time>2025-08-12T10:42:46Z</time></trkpt><trkpt lat="60.7256459445" lon="28.8480517175"><ele>28.02</ele><time>2025-08-12T10:43:06Z</time></trkpt><trkpt lat="60.7256032806" lon="28.8480993267"><ele>28.02</ele><time>2025-08-12T10:43:29Z</time></trkpt><trkpt lat="60.7255952340" lon="28.8481152523"><ele>31.86</ele><time>2025-08-12T10:43:35Z</time></trkpt><trkpt lat="60.7255951501" lon="28.8481164258"><ele>31.86</ele><time>2025-08-12T10:43:36Z</time></trkpt><trkpt lat="60.7256503869" lon="28.8480797969"><ele>31.86</ele><time>2025-08-12T10:43:53Z</time></trkpt><trkpt lat="60.7256437652" lon="28.8480388932"><ele>31.86</ele><time>2025-08-12T10:44:00Z</time></trkpt><trkpt lat="60.7256334554" lon="28.8479748555"><ele>32.34</ele><time>2025-08-12T10:44:01Z</time></trkpt><trkpt lat="60.7255817391" lon="28.8476269227"><ele>33.78</ele><time>2025-08-12T10:44:04Z</time></trkpt><trkpt lat="60.7254244108" lon="28.8466999680"><ele>36.67</ele><time>2025-08-12T10:44:09Z</time></trkpt><trkpt lat="60.7252342254" lon="28.8456138410"><ele>36.19</ele><time>2025-08-12T10:44:15Z</time></trkpt><trkpt lat="60.7251732890" lon="28.8453193847"><ele>34.26</ele><time>2025-08-12T10:44:18Z</time></trkpt><trkpt lat="60.7251558546" lon="28.8452215679"><ele>33.78</ele><time>2025-08-12T10:44:23Z</time></trkpt><trkpt lat="60.7251538429" lon="28.8452064805"><ele>33.78</ele><time>2025-08-12T10:44:26Z</time></trkpt><trkpt lat="60.7251509093" lon="28.8451788202"><ele>33.78</ele><time>2025-08-12T10:44:27Z</time></trkpt><trkpt lat="60.7251420245" lon="28.8451388385"><ele>34.26</ele><time>2025-08-12T10:44:28Z</time></trkpt><trkpt lat="60.7251155376" lon="28.8450888824"><ele>34.74</ele><time>2025-08-12T10:44:29Z</time></trkpt><trkpt lat="60.7250689343" lon="28.8450429495"><ele>36.19</ele><time>2025-08-12T10:44:30Z</time></trkpt><trkpt lat="60.7250091713" lon="28.8449985255"><ele>38.11</ele><time>2025-08-12T10:44:31Z</time></trkpt><trkpt lat="60.7249367516" lon="28.8449538499"><ele>38.11</ele><time>2025-08-12T10:44:32Z</time></trkpt><trkpt lat="60.7246764936" lon="28.8447800931"><ele>39.55</ele><time>2025-08-12T10:44:35Z</time></trkpt><trkpt lat="60.7240704820" lon="28.8442563079"><ele>38.59</ele><time>2025-08-12T10:44:41Z</time></trkpt><trkpt lat="60.7239839807" lon="28.8441253826"><ele>38.59</ele><time>2025-08-12T10:44:42Z</time></trkpt><trkpt lat="60.7239128184" lon="28.8439669646"><ele>38.59</ele><time>2025-08-12T10:44:43Z</time></trkpt><trkpt lat="60.7238573302" lon="28.8437877595"><ele>38.11</ele><time>2025-08-12T10:44:44Z</time></trkpt><trkpt lat="60.7238152530" lon="28.8435951434"><ele>37.15</ele><time>2025-08-12T10:44:45Z</time></trkpt><trkpt lat="60.7237917837" lon="28.8433949836"><ele>36.67</ele><time>2025-08-12T10:44:46Z</time></trkpt><trkpt lat="60.7237855811" lon="28.8431741204"><ele>36.67</ele><time>2025-08-12T10:44:47Z</time></trkpt><trkpt lat="60.7237987407" lon="28.8429701049"><ele>36.67</ele><time>2025-08-12T10:44:48Z</time></trkpt><trkpt lat="60.7238349505" lon="28.8427778240"><ele>35.71</ele><time>2025-08-12T10:44:49Z</time></trkpt><trkpt lat="60.7238937076" lon="28.8425990380"><ele>35.71</ele><time>2025-08-12T10:44:50Z</time></trkpt><trkpt lat="60.7239715755" lon="28.8424341660"><ele>35.23</ele><time>2025-08-12T10:44:51Z</time></trkpt><trkpt lat="60.7240624353" lon="28.8422827050"><ele>35.71</ele><time>2025-08-12T10:44:52Z</time></trkpt><trkpt lat="60.7241676282" lon="28.8421433140"><ele>34.74</ele><time>2025-08-12T10:44:53Z</time></trkpt><trkpt lat="60.7242873218" lon="28.8420174178"><ele>34.74</ele><time>2025-08-12T10:44:54Z</time></trkpt><trkpt lat="60.7244200073" lon="28.8418947905"><ele>35.23</ele><time>2025-08-12T10:44:55Z</time></trkpt><trkpt lat="60.7251713611" lon="28.8412542455"><ele>39.07</ele><time>2025-08-12T10:45:00Z</time></trkpt><trkpt lat="60.7258339506" lon="28.8406472281"><ele>33.78</ele><time>2025-08-12T10:45:04Z</time></trkpt><trkpt lat="60.7259979006" lon="28.8404975273"><ele>28.50</ele><time>2025-08-12T10:45:05Z</time></trkpt><trkpt lat="60.7261713222" lon="28.8403426297"><ele>28.50</ele><time>2025-08-12T10:45:06Z</time></trkpt><trkpt lat="60.7274276018" lon="28.8393437583"><ele>27.53</ele><time>2025-08-12T10:45:13Z</time></trkpt><trkpt lat="60.7288041618" lon="28.8382142968"><ele>26.57</ele><time>2025-08-12T10:45:20Z</time></trkpt><trkpt lat="60.7300227229" lon="28.8369943108"><ele>23.69</ele><time>2025-08-12T10:45:26Z</time></trkpt><trkpt lat="60.7314409409" lon="28.8352734223"><ele>22.25</ele><time>2025-08-12T10:45:33Z</time></trkpt><trkpt lat="60.7334279548" lon="28.8327009324"><ele>22.73</ele><time>2025-08-12T10:45:43Z</time></trkpt><trkpt lat="60.7343658060" lon="28.8314934354"><ele>24.17</ele><time>2025-08-12T10:45:48Z</time></trkpt><trkpt lat="60.7350165769" lon="28.8306365535"><ele>24.17</ele><time>2025-08-12T10:45:52Z</time></trkpt><trkpt lat="60.7355258614" lon="28.8299576193"><ele>24.17</ele><time>2025-08-12T10:45:56Z</time></trkpt><trkpt lat="60.7360006962" lon="28.8293336704"><ele>24.17</ele><time>2025-08-12T10:46:01Z</time></trkpt><trkpt lat="60.7360904664" lon="28.8292050920"><ele>24.65</ele><time>2025-08-12T10:46:02Z</time></trkpt><trkpt lat="60.7361825835" lon="28.8290939480"><ele>24.65</ele><time>2025-08-12T10:46:03Z</time></trkpt><trkpt lat="60.7363700867" lon="28.8288786169"><ele>24.17</ele><time>2025-08-12T10:46:06Z</time></trkpt><trkpt lat="60.7366637047" lon="28.8284739386"><ele>24.17</ele><time>2025-08-12T10:46:10Z</time></trkpt><trkpt lat="60.7371745817" lon="28.8278310467"><ele>23.69</ele><time>2025-08-12T10:46:16Z</time></trkpt><trkpt lat="60.7376379333" lon="28.8272198383"><ele>23.69</ele><time>2025-08-12T10:46:21Z</time></trkpt><trkpt lat="60.7383335475" lon="28.8263249025"><ele>23.21</ele><time>2025-08-12T10:46:27Z</time></trkpt><trkpt lat="60.7392662019" lon="28.8250692096"><ele>21.77</ele><time>2025-08-12T10:46:35Z</time></trkpt><trkpt lat="60.7401521690" lon="28.8237399235"><ele>20.81</ele><time>2025-08-12T10:46:42Z</time></trkpt><trkpt lat="60.7409677282" lon="28.8223184366"><ele>18.88</ele><time>2025-08-12T10:46:48Z</time></trkpt><trkpt lat="60.7417666912" lon="28.8206283934"><ele>16.96</ele><time>2025-08-12T10:46:54Z</time></trkpt><trkpt lat="60.7427143492" lon="28.8181142416"><ele>17.44</ele><time>2025-08-12T10:47:02Z</time></trkpt><trkpt lat="60.7434268110" lon="28.8158097211"><ele>18.88</ele><time>2025-08-12T10:47:09Z</time></trkpt><trkpt lat="60.7439987082" lon="28.8135164324"><ele>21.29</ele><time>2025-08-12T10:47:16Z</time></trkpt><trkpt lat="60.7443897240" lon="28.8114622794"><ele>23.69</ele><time>2025-08-12T10:47:22Z</time></trkpt><trkpt lat="60.7448206376" lon="28.8083970174"><ele>24.65</ele><time>2025-08-12T10:47:31Z</time></trkpt><trkpt lat="60.7453383040" lon="28.8047177810"><ele>26.09</ele><time>2025-08-12T10:47:42Z</time></trkpt><trkpt lat="60.7458804455" lon="28.8007564098"><ele>26.57</ele><time>2025-08-12T10:47:53Z</time></trkpt><trkpt lat="60.7462547813" lon="28.7980206404"><ele>26.57</ele><time>2025-08-12T10:48:00Z</time></trkpt><trkpt lat="60.7466128562" lon="28.7954066601"><ele>26.57</ele><time>2025-08-12T10:48:07Z</time></trkpt><trkpt lat="60.7471252419" lon="28.7921454292"><ele>27.05</ele><time>2025-08-12T10:48:16Z</time></trkpt><trkpt lat="60.7477066945" lon="28.7898556609"><ele>27.05</ele><time>2025-08-12T10:48:23Z</time></trkpt><trkpt lat="60.7483532745" lon="28.7879452575"><ele>26.57</ele><time>2025-08-12T10:48:29Z</time></trkpt><trkpt lat="60.7491526566" lon="28.7861487642"><ele>27.05</ele><time>2025-08-12T10:48:35Z</time></trkpt><trkpt lat="60.7499318384" lon="28.7847677618"><ele>26.09</ele><time>2025-08-12T10:48:40Z</time></trkpt><trkpt lat="60.7513164449" lon="28.7827740423"><ele>25.13</ele><time>2025-08-12T10:48:48Z</time></trkpt><trkpt lat="60.7536917087" lon="28.7794257235"><ele>23.69</ele><time>2025-08-12T10:49:01Z</time></trkpt><trkpt lat="60.7553752139" lon="28.7770828977"><ele>21.77</ele><time>2025-08-12T10:49:10Z</time></trkpt><trkpt lat="60.7569187414" lon="28.7749148346"><ele>19.36</ele><time>2025-08-12T10:49:18Z</time></trkpt><trkpt lat="60.7592955139" lon="28.7716346607"><ele>21.29</ele><time>2025-08-12T10:49:30Z</time></trkpt><trkpt lat="60.7602965645" lon="28.7702969927"><ele>23.21</ele><time>2025-08-12T10:49:35Z</time></trkpt><trkpt lat="60.7618219871" lon="28.7682277523"><ele>23.69</ele><time>2025-08-12T10:49:43Z</time></trkpt><trkpt lat="60.7628750056" lon="28.7665885035"><ele>23.69</ele><time>2025-08-12T10:49:49Z</time></trkpt><trkpt lat="60.7638317160" lon="28.7646906730"><ele>23.69</ele><time>2025-08-12T10:49:55Z</time></trkpt><trkpt lat="60.7644557487" lon="28.7629462313"><ele>23.69</ele><time>2025-08-12T10:50:00Z</time></trkpt><trkpt lat="60.7651529554" lon="28.7604857236"><ele>23.69</ele><time>2025-08-12T10:50:07Z</time></trkpt><trkpt lat="60.7657396048" lon="28.7585719675"><ele>23.21</ele><time>2025-08-12T10:50:13Z</time></trkpt><trkpt lat="60.7663918845" lon="28.7568556052"><ele>23.21</ele><time>2025-08-12T10:50:19Z</time></trkpt><trkpt lat="60.7670630235" lon="28.7555001676"><ele>22.73</ele><time>2025-08-12T10:50:24Z</time></trkpt><trkpt lat="60.7678316440" lon="28.7542603165"><ele>21.77</ele><time>2025-08-12T10:50:29Z</time></trkpt><trkpt lat="60.7692844793" lon="28.7521909922"><ele>20.81</ele><time>2025-08-12T10:50:38Z</time></trkpt><trkpt lat="60.7711256482" lon="28.7496391218"><ele>18.88</ele><time>2025-08-12T10:50:49Z</time></trkpt><trkpt lat="60.7729794737" lon="28.7470826413"><ele>19.84</ele><time>2025-08-12T10:51:00Z</time></trkpt><trkpt lat="60.7743826881" lon="28.7451477628"><ele>21.77</ele><time>2025-08-12T10:51:08Z</time></trkpt><trkpt lat="60.7758971304" lon="28.7432360183"><ele>22.25</ele><time>2025-08-12T10:51:16Z</time></trkpt><trkpt lat="60.7770980056" lon="28.7419356499"><ele>24.65</ele><time>2025-08-12T10:51:22Z</time></trkpt><trkpt lat="60.7791295275" lon="28.7397460453"><ele>28.02</ele><time>2025-08-12T10:51:32Z</time></trkpt><trkpt lat="60.7810615562" lon="28.7375727016"><ele>30.42</ele><time>2025-08-12T10:51:42Z</time></trkpt><trkpt lat="60.7829260267" lon="28.7353773974"><ele>32.34</ele><time>2025-08-12T10:51:52Z</time></trkpt><trkpt lat="60.7849878911" lon="28.7329931650"><ele>33.78</ele><time>2025-08-12T10:52:03Z</time></trkpt><trkpt lat="60.7864067797" lon="28.7311947439"><ele>33.30</ele><time>2025-08-12T10:52:11Z</time></trkpt><trkpt lat="60.7871984504" lon="28.7298368756"><ele>33.78</ele><time>2025-08-12T10:52:16Z</time></trkpt><trkpt lat="60.7878684998" lon="28.7283526920"><ele>35.23</ele><time>2025-08-12T10:52:21Z</time></trkpt><trkpt lat="60.7883960567" lon="28.7266978528"><ele>35.71</ele><time>2025-08-12T10:52:26Z</time></trkpt><trkpt lat="60.7886154950" lon="28.7258358579"><ele>35.23</ele><time>2025-08-12T10:52:29Z</time></trkpt><trkpt lat="60.7888053451" lon="28.7249665707"><ele>35.23</ele><time>2025-08-12T10:52:33Z</time></trkpt><trkpt lat="60.7889701333" lon="28.7241895683"><ele>35.23</ele><time>2025-08-12T10:52:38Z</time></trkpt><trkpt lat="60.7890484203" lon="28.7237180024"><ele>35.71</ele><time>2025-08-12T10:52:43Z</time></trkpt><trkpt lat="60.7890506834" lon="28.7237219419"><ele>39.07</ele><time>2025-08-12T10:52:47Z</time></trkpt><trkpt lat="60.7890428882" lon="28.7237998936"><ele>39.55</ele><time>2025-08-12T10:53:07Z</time></trkpt><trkpt lat="60.7890501805" lon="28.7237585708"><ele>39.55</ele><time>2025-08-12T10:53:22Z</time></trkpt><trkpt lat="60.7891183253" lon="28.7233394757"><ele>40.99</ele><time>2025-08-12T10:53:26Z</time></trkpt><trkpt lat="60.7892562915" lon="28.7225846853"><ele>41.95</ele><time>2025-08-12T10:53:30Z</time></trkpt><trkpt lat="60.7893935032" lon="28.7218612432"><ele>36.67</ele><time>2025-08-12T10:53:33Z</time></trkpt><trkpt lat="60.7894449681" lon="28.7215928547"><ele>36.67</ele><time>2025-08-12T10:53:34Z</time></trkpt><trkpt lat="60.7899560966" lon="28.7189010903"><ele>37.15</ele><time>2025-08-12T10:53:44Z</time></trkpt><trkpt lat="60.7902730163" lon="28.7171047647"><ele>37.15</ele><time>2025-08-12T10:53:50Z</time></trkpt><trkpt lat="60.7905528042" lon="28.7147626095"><ele>35.23</ele><time>2025-08-12T10:53:57Z</time></trkpt><trkpt lat="60.7906339411" lon="28.7125559058"><ele>32.34</ele><time>2025-08-12T10:54:03Z</time></trkpt><trkpt lat="60.7905725855" lon="28.7103419099"><ele>30.42</ele><time>2025-08-12T10:54:09Z</time></trkpt><trkpt lat="60.7903584279" lon="28.7081003375"><ele>28.50</ele><time>2025-08-12T10:54:15Z</time></trkpt><trkpt lat="60.7902469486" lon="28.7069738097"><ele>27.05</ele><time>2025-08-12T10:54:18Z</time></trkpt><trkpt lat="60.7898918912" lon="28.7035109941"><ele>24.17</ele><time>2025-08-12T10:54:27Z</time></trkpt><trkpt lat="60.7896815054" lon="28.7015239801"><ele>21.29</ele><time>2025-08-12T10:54:32Z</time></trkpt><trkpt lat="60.7894310541" lon="28.6990425177"><ele>18.40</ele><time>2025-08-12T10:54:38Z</time></trkpt><trkpt lat="60.7890593167" lon="28.6952419113"><ele>16.96</ele><time>2025-08-12T10:54:47Z</time></trkpt><trkpt lat="60.7885630243" lon="28.6902848538"><ele>20.32</ele><time>2025-08-12T10:54:59Z</time></trkpt><trkpt lat="60.7882217132" lon="28.6870600842"><ele>23.69</ele><time>2025-08-12T10:55:07Z</time></trkpt><trkpt lat="60.7878141012" lon="28.6838409305"><ele>26.09</ele><time>2025-08-12T10:55:15Z</time></trkpt><trkpt lat="60.7872688584" lon="28.6804793682"><ele>26.09</ele><time>2025-08-12T10:55:23Z</time></trkpt><trkpt lat="60.7867824566" lon="28.6778719258"><ele>24.65</ele><time>2025-08-12T10:55:29Z</time></trkpt><trkpt lat="60.7863194402" lon="28.6757881008"><ele>22.73</ele><time>2025-08-12T10:55:34Z</time></trkpt><trkpt lat="60.7860402390" lon="28.6745987087"><ele>21.29</ele><time>2025-08-12T10:55:37Z</time></trkpt><trkpt lat="60.7853613049" lon="28.6720309127"><ele>19.36</ele><time>2025-08-12T10:55:44Z</time></trkpt><trkpt lat="60.7845127210" lon="28.6691806465"><ele>22.25</ele><time>2025-08-12T10:55:52Z</time></trkpt><trkpt lat="60.7842877507" lon="28.6684976052"><ele>23.21</ele><time>2025-08-12T10:55:54Z</time></trkpt><trkpt lat="60.7835710142" lon="28.6664688494"><ele>27.05</ele><time>2025-08-12T10:56:00Z</time></trkpt><trkpt lat="60.7834502310" lon="28.6661365069"><ele>27.53</ele><time>2025-08-12T10:56:01Z</time></trkpt><trkpt lat="60.7824812829" lon="28.6636108719"><ele>30.90</ele><time>2025-08-12T10:56:09Z</time></trkpt><trkpt lat="60.7822368667" lon="28.6630235519"><ele>31.38</ele><time>2025-08-12T10:56:11Z</time></trkpt><trkpt lat="60.7813446969" lon="28.6610699818"><ele>32.34</ele><time>2025-08-12T10:56:18Z</time></trkpt><trkpt lat="60.7802991383" lon="28.6590078659"><ele>33.78</ele><time>2025-08-12T10:56:26Z</time></trkpt><trkpt lat="60.7788313832" lon="28.6563672312"><ele>35.71</ele><time>2025-08-12T10:56:36Z</time></trkpt><trkpt lat="60.7776704896" lon="28.6542939674"><ele>36.19</ele><time>2025-08-12T10:56:44Z</time></trkpt><trkpt lat="60.7763221767" lon="28.6518801469"><ele>35.23</ele><time>2025-08-12T10:56:53Z</time></trkpt><trkpt lat="60.7751956489" lon="28.6498855893"><ele>34.74</ele><time>2025-08-12T10:57:01Z</time></trkpt><trkpt lat="60.7741787564" lon="28.6481306702"><ele>33.30</ele><time>2025-08-12T10:57:09Z</time></trkpt><trkpt lat="60.7737596612" lon="28.6473817471"><ele>32.82</ele><time>2025-08-12T10:57:13Z</time></trkpt><trkpt lat="60.7734368742" lon="28.6468029767"><ele>32.34</ele><time>2025-08-12T10:57:17Z</time></trkpt><trkpt lat="60.7733776141" lon="28.6467408668"><ele>31.86</ele><time>2025-08-12T10:57:18Z</time></trkpt><trkpt lat="60.7733300887" lon="28.6467482429"><ele>31.86</ele><time>2025-08-12T10:57:19Z</time></trkpt><trkpt lat="60.7732902747" lon="28.6467971094"><ele>31.86</ele><time>2025-08-12T10:57:20Z</time></trkpt><trkpt lat="60.7732435036" lon="28.6468642484"><ele>31.38</ele><time>2025-08-12T10:57:21Z</time></trkpt><trkpt lat="60.7731864229" lon="28.6469462235"><ele>31.38</ele><time>2025-08-12T10:57:22Z</time></trkpt><trkpt lat="60.7728845067" lon="28.6472552642"><ele>30.42</ele><time>2025-08-12T10:57:26Z</time></trkpt><trkpt lat="60.7727355603" lon="28.6473985948"><ele>29.46</ele><time>2025-08-12T10:57:28Z</time></trkpt><trkpt lat="60.7725115120" lon="28.6476856750"><ele>28.50</ele><time>2025-08-12T10:57:33Z</time></trkpt><trkpt lat="60.7721803430" lon="28.6480990704"><ele>27.05</ele><time>2025-08-12T10:57:39Z</time></trkpt><trkpt lat="60.7716654427" lon="28.6486566346"><ele>24.17</ele><time>2025-08-12T10:57:46Z</time></trkpt><trkpt lat="60.7711817231" lon="28.6490085069"><ele>22.73</ele><time>2025-08-12T10:57:50Z</time></trkpt><trkpt lat="60.7704374101" lon="28.6492809188"><ele>21.29</ele><time>2025-08-12T10:57:55Z</time></trkpt><trkpt lat="60.7691842318" lon="28.6495481338"><ele>21.29</ele><time>2025-08-12T10:58:03Z</time></trkpt><trkpt lat="60.7686070539" lon="28.6498416681"><ele>23.69</ele><time>2025-08-12T10:58:07Z</time></trkpt><trkpt lat="60.7680321392" lon="28.6503931973"><ele>24.65</ele><time>2025-08-12T10:58:11Z</time></trkpt><trkpt lat="60.7669693138" lon="28.6517342180"><ele>25.61</ele><time>2025-08-12T10:58:18Z</time></trkpt><trkpt lat="60.7663303614" lon="28.6523055285"><ele>25.13</ele><time>2025-08-12T10:58:22Z</time></trkpt><trkpt lat="60.7657356653" lon="28.6526951194"><ele>25.13</ele><time>2025-08-12T10:58:26Z</time></trkpt><trkpt lat="60.7649251353" lon="28.6534214951"><ele>26.09</ele><time>2025-08-12T10:58:32Z</time></trkpt><trkpt lat="60.7644364703" lon="28.6541856732"><ele>25.13</ele><time>2025-08-12T10:58:36Z</time></trkpt><trkpt lat="60.7639571931" lon="28.6551674455"><ele>21.77</ele><time>2025-08-12T10:58:40Z</time></trkpt><trkpt lat="60.7637294568" lon="28.6556680966"><ele>20.81</ele><time>2025-08-12T10:58:42Z</time></trkpt><trkpt lat="60.7634606492" lon="28.6562659778"><ele>18.40</ele><time>2025-08-12T10:58:45Z</time></trkpt><trkpt lat="60.7632935978" lon="28.6566424929"><ele>17.92</ele><time>2025-08-12T10:58:48Z</time></trkpt><trkpt lat="60.7632582262" lon="28.6567365378"><ele>17.92</ele><time>2025-08-12T10:58:49Z</time></trkpt><trkpt lat="60.7632250339" lon="28.6568650324"><ele>17.92</ele><time>2025-08-12T10:58:52Z</time></trkpt><trkpt lat="60.7632303145" lon="28.6569212750"><ele>17.44</ele><time>2025-08-12T10:58:53Z</time></trkpt><trkpt lat="60.7632427197" lon="28.6569773499"><ele>17.92</ele><time>2025-08-12T10:58:54Z</time></trkpt><trkpt lat="60.7632673625" lon="28.6570237856"><ele>16.96</ele><time>2025-08-12T10:58:55Z</time></trkpt><trkpt lat="60.7633002196" lon="28.6570217740"><ele>16.96</ele><time>2025-08-12T10:58:56Z</time></trkpt><trkpt lat="60.7633586414" lon="28.6570092011"><ele>16.48</ele><time>2025-08-12T10:58:57Z</time></trkpt><trkpt lat="60.7634107769" lon="28.6570353527"><ele>16.00</ele><time>2025-08-12T10:58:58Z</time></trkpt><trkpt lat="60.7634705398" lon="28.6570732389"><ele>16.00</ele><time>2025-08-12T10:58:59Z</time></trkpt><trkpt lat="60.7635226753" lon="28.6571237817"><ele>15.52</ele><time>2025-08-12T10:59:00Z</time></trkpt><trkpt lat="60.7635655906" lon="28.6571881548"><ele>15.04</ele><time>2025-08-12T10:59:01Z</time></trkpt><trkpt lat="60.7636525109" lon="28.6573127937"><ele>14.08</ele><time>2025-08-12T10:59:03Z</time></trkpt><trkpt lat="60.7638736255" lon="28.6576556973"><ele>13.12</ele><time>2025-08-12T10:59:07Z</time></trkpt><trkpt lat="60.7643340435" lon="28.6586905271"><ele>11.67</ele><time>2025-08-12T10:59:13Z</time></trkpt><trkpt lat="60.7651576493" lon="28.6604779679"><ele>10.23</ele><time>2025-08-12T10:59:24Z</time></trkpt><trkpt lat="60.7657104358" lon="28.6616512667"><ele>10.23</ele><time>2025-08-12T10:59:31Z</time></trkpt><trkpt lat="60.7661260944" lon="28.6625250801"><ele>9.27</ele><time>2025-08-12T10:59:37Z</time></trkpt><trkpt lat="60.7667989098" lon="28.6639960203"><ele>9.27</ele><time>2025-08-12T10:59:47Z</time></trkpt><trkpt lat="60.7674024906" lon="28.6652874202"><ele>8.31</ele><time>2025-08-12T10:59:55Z</time></trkpt><trkpt lat="60.7681929041" lon="28.6669680756"><ele>8.31</ele><time>2025-08-12T11:00:05Z</time></trkpt><trkpt lat="60.7688214630" lon="28.6682880577"><ele>8.79</ele><time>2025-08-12T11:00:13Z</time></trkpt><trkpt lat="60.7693585753" lon="28.6694391444"><ele>8.31</ele><time>2025-08-12T11:00:21Z</time></trkpt><trkpt lat="60.7700815145" lon="28.6709574424"><ele>8.31</ele><time>2025-08-12T11:00:32Z</time></trkpt><trkpt lat="60.7706343010" lon="28.6721406318"><ele>9.27</ele><time>2025-08-12T11:00:41Z</time></trkpt><trkpt lat="60.7713201921" lon="28.6736290902"><ele>10.71</ele><time>2025-08-12T11:00:52Z</time></trkpt><trkpt lat="60.7716520317" lon="28.6743292306"><ele>10.71</ele><time>2025-08-12T11:00:58Z</time></trkpt><trkpt lat="60.7717852201" lon="28.6745977867"><ele>11.19</ele><time>2025-08-12T11:01:03Z</time></trkpt><trkpt lat="60.7718027383" lon="28.6745966971"><ele>11.19</ele><time>2025-08-12T11:01:04Z</time></trkpt><trkpt lat="60.7718143053" lon="28.6745775025"><ele>11.19</ele><time>2025-08-12T11:01:05Z</time></trkpt><trkpt lat="60.7718241122" lon="28.6745459028"><ele>10.71</ele><time>2025-08-12T11:01:06Z</time></trkpt><trkpt lat="60.7718331646" lon="28.6745060887"><ele>11.19</ele><time>2025-08-12T11:01:07Z</time></trkpt><trkpt lat="60.7718423847" lon="28.6744542047"><ele>11.19</ele><time>2025-08-12T11:01:08Z</time></trkpt><trkpt lat="60.7718814444" lon="28.6741052661"><ele>15.52</ele><time>2025-08-12T11:01:15Z</time></trkpt><trkpt lat="60.7718887366" lon="28.6740661226"><ele>15.52</ele><time>2025-08-12T11:01:16Z</time></trkpt><trkpt lat="60.7720148843" lon="28.6737219617"><ele>16.00</ele><time>2025-08-12T11:01:26Z</time></trkpt><trkpt lat="60.7720480766" lon="28.6734865140"><ele>16.96</ele><time>2025-08-12T11:01:34Z</time></trkpt><trkpt lat="60.7720243558" lon="28.6733523197"><ele>16.00</ele><time>2025-08-12T11:01:39Z</time></trkpt><trkpt lat="60.7720159739" lon="28.6733164452"><ele>16.00</ele><time>2025-08-12T11:01:40Z</time></trkpt><trkpt lat="60.7720099390" lon="28.6732742004"><ele>15.52</ele><time>2025-08-12T11:01:41Z</time></trkpt><trkpt lat="60.7720070891" lon="28.6732312851"><ele>15.04</ele><time>2025-08-12T11:01:42Z</time></trkpt><trkpt lat="60.7720075920" lon="28.6731882859"><ele>15.04</ele><time>2025-08-12T11:01:43Z</time></trkpt><trkpt lat="60.7720106933" lon="28.6727650836"><ele>14.08</ele><time>2025-08-12T11:01:52Z</time></trkpt><trkpt lat="60.7720496692" lon="28.6723938491"><ele>13.60</ele><time>2025-08-12T11:02:00Z</time></trkpt><trkpt lat="60.7720764074" lon="28.6721225269"><ele>14.08</ele><time>2025-08-12T11:02:07Z</time></trkpt><trkpt lat="60.7721394394" lon="28.6716979835"><ele>14.08</ele><time>2025-08-12T11:02:15Z</time></trkpt><trkpt lat="60.7722143736" lon="28.6712426785"><ele>14.56</ele><time>2025-08-12T11:02:24Z</time></trkpt><trkpt lat="60.7722733822" lon="28.6708520819"><ele>14.56</ele><time>2025-08-12T11:02:32Z</time></trkpt><trkpt lat="60.7722913194" lon="28.6706759781"><ele>14.08</ele><time>2025-08-12T11:02:39Z</time></trkpt><trkpt lat="60.7722654194" lon="28.6708096694"><ele>14.08</ele><time>2025-08-12T11:02:51Z</time></trkpt><trkpt lat="60.7722367533" lon="28.6709441151"><ele>13.60</ele><time>2025-08-12T11:03:02Z</time></trkpt><trkpt lat="60.7722064108" lon="28.6709622201"><ele>13.60</ele><time>2025-08-12T11:03:12Z</time></trkpt><trkpt lat="60.7722060755" lon="28.6709964182"><ele>13.60</ele><time>2025-08-12T11:03:21Z</time></trkpt><trkpt lat="60.7722038962" lon="28.6710491404"><ele>13.60</ele><time>2025-08-12T11:03:23Z</time></trkpt><trkpt lat="60.7721990347" lon="28.6710792314"><ele>13.60</ele><time>2025-08-12T11:03:24Z</time></trkpt><trkpt lat="60.7721023913" lon="28.6715150904"><ele>13.60</ele><time>2025-08-12T11:03:34Z</time></trkpt><trkpt lat="60.7720421255" lon="28.6718957964"><ele>13.60</ele><time>2025-08-12T11:03:43Z</time></trkpt><trkpt lat="60.7720484957" lon="28.6719952896"><ele>13.60</ele><time>2025-08-12T11:03:51Z</time></trkpt><trkpt lat="60.7720468193" lon="28.6720123887"><ele>13.12</ele><time>2025-08-12T11:04:14Z</time></trkpt><trkpt lat="60.7720792573" lon="28.6720293202"><ele>13.12</ele><time>2025-08-12T11:04:32Z</time></trkpt><trkpt lat="60.7720743958" lon="28.6720160767"><ele>13.12</ele><time>2025-08-12T11:04:45Z</time></trkpt><trkpt lat="60.7720758207" lon="28.6720932741"><ele>13.12</ele><time>2025-08-12T11:04:59Z</time></trkpt><trkpt lat="60.7720832806" lon="28.6721320823"><ele>13.12</ele><time>2025-08-12T11:05:01Z</time></trkpt><trkpt lat="60.7721163053" lon="28.6721656937"><ele>13.12</ele><time>2025-08-12T11:05:09Z</time></trkpt><trkpt lat="60.7721229270" lon="28.6721677054"><ele>13.12</ele><time>2025-08-12T11:05:10Z</time></trkpt><trkpt lat="60.7722659223" lon="28.6723794322"><ele>11.19</ele><time>2025-08-12T11:05:19Z</time></trkpt><trkpt lat="60.7725069020" lon="28.6728265230"><ele>13.12</ele><time>2025-08-12T11:05:29Z</time></trkpt><trkpt lat="60.7727147732" lon="28.6731757130"><ele>15.52</ele><time>2025-08-12T11:05:38Z</time></trkpt><trkpt lat="60.7727284357" lon="28.6732105818"><ele>15.52</ele><time>2025-08-12T11:05:46Z</time></trkpt><trkpt lat="60.7727340516" lon="28.6731975060"><ele>18.88</ele><time>2025-08-12T11:05:49Z</time></trkpt><trkpt lat="60.7727234904" lon="28.6731346417"><ele>17.92</ele><time>2025-08-12T11:06:08Z</time></trkpt><trkpt lat="60.7727260049" lon="28.6731581949"><ele>19.36</ele><time>2025-08-12T11:06:19Z</time></trkpt><trkpt lat="60.7727265917" lon="28.6731564347"><ele>17.44</ele><time>2025-08-12T11:06:22Z</time></trkpt><trkpt lat="60.7727259211" lon="28.6731541716"><ele>15.52</ele><time>2025-08-12T11:06:29Z</time></trkpt><trkpt lat="60.7727535814" lon="28.6731799878"><ele>15.52</ele><time>2025-08-12T11:06:39Z</time></trkpt><trkpt lat="60.7727582753" lon="28.6733011063"><ele>15.04</ele><time>2025-08-12T11:06:57Z</time></trkpt><trkpt lat="60.7727518212" lon="28.6733005196"><ele>15.52</ele><time>2025-08-12T11:07:12Z</time></trkpt><trkpt lat="60.7727351412" lon="28.6733058002"><ele>15.04</ele><time>2025-08-12T11:07:23Z</time></trkpt><trkpt lat="60.7727423497" lon="28.6732983403"><ele>18.88</ele><time>2025-08-12T11:07:31Z</time></trkpt><trkpt lat="60.7727287710" lon="28.6733251624"><ele>18.88</ele><time>2025-08-12T11:07:43Z</time></trkpt><trkpt lat="60.7727758773" lon="28.6733101588"><ele>18.88</ele><time>2025-08-12T11:08:01Z</time></trkpt><trkpt lat="60.7727758773" lon="28.6733161937"><ele>15.04</ele><time>2025-08-12T11:08:03Z</time></trkpt><trkpt lat="60.7727905456" lon="28.6733447760"><ele>18.88</ele><time>2025-08-12T11:08:18Z</time></trkpt><trkpt lat="60.7727835048" lon="28.6732949037"><ele>18.88</ele><time>2025-08-12T11:08:39Z</time></trkpt><trkpt lat="60.7728178706" lon="28.6733203847"><ele>18.88</ele><time>2025-08-12T11:09:02Z</time></trkpt><trkpt lat="60.7727810740" lon="28.6733368970"><ele>18.40</ele><time>2025-08-12T11:09:25Z</time></trkpt><trkpt lat="60.7727625500" lon="28.6733641382"><ele>18.40</ele><time>2025-08-12T11:09:46Z</time></trkpt><trkpt lat="60.7727965806" lon="28.6733574327"><ele>18.88</ele><time>2025-08-12T11:10:07Z</time></trkpt><trkpt lat="60.7727878634" lon="28.6733749509"><ele>18.40</ele><time>2025-08-12T11:10:23Z</time></trkpt><trkpt lat="60.7727266755" lon="28.6734051257"><ele>18.40</ele><time>2025-08-12T11:10:43Z</time></trkpt><trkpt lat="60.7727550063" lon="28.6734158546"><ele>18.40</ele><time>2025-08-12T11:11:05Z</time></trkpt><trkpt lat="60.7727669086" lon="28.6733784713"><ele>18.40</ele><time>2025-08-12T11:11:29Z</time></trkpt><trkpt lat="60.7727494743" lon="28.6733535770"><ele>18.88</ele><time>2025-08-12T11:11:50Z</time></trkpt><trkpt lat="60.7727875281" lon="28.6733283475"><ele>17.92</ele><time>2025-08-12T11:12:06Z</time></trkpt><trkpt lat="60.7727876958" lon="28.6733322032"><ele>18.40</ele><time>2025-08-12T11:12:28Z</time></trkpt><trkpt lat="60.7728054654" lon="28.6732908804"><ele>18.40</ele><time>2025-08-12T11:12:47Z</time></trkpt><trkpt lat="60.7728260849" lon="28.6732739490"><ele>18.40</ele><time>2025-08-12T11:13:07Z</time></trkpt><trkpt lat="60.7727990951" lon="28.6733465362"><ele>18.88</ele><time>2025-08-12T11:13:24Z</time></trkpt><trkpt lat="60.7727663219" lon="28.6733207200"><ele>23.69</ele><time>2025-08-12T11:13:32Z</time></trkpt><trkpt lat="60.7727677468" lon="28.6733146012"><ele>19.36</ele><time>2025-08-12T11:13:33Z</time></trkpt><trkpt lat="60.7727701776" lon="28.6733073927"><ele>24.65</ele><time>2025-08-12T11:13:34Z</time></trkpt><trkpt lat="60.7727638073" lon="28.6733420938"><ele>19.84</ele><time>2025-08-12T11:13:37Z</time></trkpt><trkpt lat="60.7727672439" lon="28.6733627133"><ele>18.88</ele><time>2025-08-12T11:13:41Z</time></trkpt></trkseg><trkseg><trkpt lat="60.0147933327" lon="30.2235095389"><ele>-3.71</ele><time>2025-08-28T17:43:34Z</time></trkpt><trkpt lat="60.0147774071" lon="30.2235013247"><ele>-2.75</ele><time>2025-08-28T17:43:49Z</time></trkpt><trkpt lat="60.0147780776" lon="30.2234947868"><ele>-0.34</ele><time>2025-08-28T17:44:05Z</time></trkpt><trkpt lat="60.0147645827" lon="30.2235087007"><ele>1.10</ele><time>2025-08-28T17:44:21Z</time></trkpt><trkpt lat="60.0147744734" lon="30.2234913502"><ele>2.54</ele><time>2025-08-28T17:44:30Z</time></trkpt><trkpt lat="60.0147643313" lon="30.2234436572"><ele>3.02</ele><time>2025-08-28T17:44:33Z</time></trkpt><trkpt lat="60.0147456396" lon="30.2233637776"><ele>3.50</ele><time>2025-08-28T17:44:41Z</time></trkpt><trkpt lat="60.0147417001" lon="30.2233611792"><ele>4.94</ele><time>2025-08-28T17:44:53Z</time></trkpt><trkpt lat="60.0147294626" lon="30.2233733330"><ele>6.39</ele><time>2025-08-28T17:45:07Z</time></trkpt><trkpt lat="60.0147332344" lon="30.2233935334"><ele>5.91</ele><time>2025-08-28T17:45:25Z</time></trkpt><trkpt lat="60.0147422031" lon="30.2233875822"><ele>5.91</ele><time>2025-08-28T17:45:33Z</time></trkpt><trkpt lat="60.0147518422" lon="30.2234339342"><ele>5.91</ele><time>2025-08-28T17:45:42Z</time></trkpt><trkpt lat="60.0147808436" lon="30.2236567251"><ele>5.91</ele><time>2025-08-28T17:45:52Z</time></trkpt><trkpt lat="60.0147935003" lon="30.2236435656"><ele>5.91</ele><time>2025-08-28T17:45:59Z</time></trkpt><trkpt lat="60.0147742219" lon="30.2235402167"><ele>5.91</ele><time>2025-08-28T17:46:06Z</time></trkpt><trkpt lat="60.0147775747" lon="30.2235883288"><ele>6.39</ele><time>2025-08-28T17:46:15Z</time></trkpt><trkpt lat="60.0147670135" lon="30.2235977165"><ele>5.91</ele><time>2025-08-28T17:46:19Z</time></trkpt><trkpt lat="60.0147743896" lon="30.2236768417"><ele>5.91</ele><time>2025-08-28T17:46:23Z</time></trkpt><trkpt lat="60.0147843640" lon="30.2238088567"><ele>6.39</ele><time>2025-08-28T17:46:29Z</time></trkpt><trkpt lat="60.0147520937" lon="30.2239606529"><ele>5.91</ele><time>2025-08-28T17:46:35Z</time></trkpt><trkpt lat="60.0147479866" lon="30.2241438814"><ele>5.91</ele><time>2025-08-28T17:46:41Z</time></trkpt><trkpt lat="60.0147111062" lon="30.2242507506"><ele>5.42</ele><time>2025-08-28T17:46:48Z</time></trkpt><trkpt lat="60.0147126988" lon="30.2242152952"><ele>5.42</ele><time>2025-08-28T17:46:56Z</time></trkpt><trkpt lat="60.0147142075" lon="30.2242028899"><ele>5.42</ele><time>2025-08-28T17:46:57Z</time></trkpt><trkpt lat="60.0147431251" lon="30.2240619063"><ele>5.91</ele><time>2025-08-28T17:47:02Z</time></trkpt><trkpt lat="60.0147538539" lon="30.2238615789"><ele>6.39</ele><time>2025-08-28T17:47:09Z</time></trkpt><trkpt lat="60.0147921592" lon="30.2236998919"><ele>6.39</ele><time>2025-08-28T17:47:16Z</time></trkpt><trkpt lat="60.0147942547" lon="30.2236476727"><ele>5.91</ele><time>2025-08-28T17:47:18Z</time></trkpt><trkpt lat="60.0147686061" lon="30.2234875783"><ele>5.91</ele><time>2025-08-28T17:47:26Z</time></trkpt><trkpt lat="60.0147117767" lon="30.2232395578"><ele>5.91</ele><time>2025-08-28T17:47:36Z</time></trkpt><trkpt lat="60.0147101004" lon="30.2232077904"><ele>5.91</ele><time>2025-08-28T17:47:42Z</time></trkpt><trkpt lat="60.0147227570" lon="30.2232071199"><ele>6.39</ele><time>2025-08-28T17:47:49Z</time></trkpt><trkpt lat="60.0147277862" lon="30.2231755201"><ele>5.91</ele><time>2025-08-28T17:47:59Z</time></trkpt><trkpt lat="60.0147251878" lon="30.2232223749"><ele>6.39</ele><time>2025-08-28T17:48:07Z</time></trkpt><trkpt lat="60.0147231761" lon="30.2232538071"><ele>5.91</ele><time>2025-08-28T17:48:16Z</time></trkpt><trkpt lat="60.0147070829" lon="30.2232465986"><ele>6.39</ele><time>2025-08-28T17:48:27Z</time></trkpt><trkpt lat="60.0147129502" lon="30.2232667990"><ele>6.39</ele><time>2025-08-28T17:48:41Z</time></trkpt><trkpt lat="60.0146995392" lon="30.2232684754"><ele>6.39</ele><time>2025-08-28T17:48:56Z</time></trkpt><trkpt lat="60.0147118606" lon="30.2232575789"><ele>6.39</ele><time>2025-08-28T17:49:10Z</time></trkpt><trkpt lat="60.0147328153" lon="30.2232595906"><ele>6.39</ele><time>2025-08-28T17:49:20Z</time></trkpt><trkpt lat="60.0147454720" lon="30.2232872508"><ele>5.91</ele><time>2025-08-28T17:49:29Z</time></trkpt><trkpt lat="60.0147259422" lon="30.2232636977"><ele>5.91</ele><time>2025-08-28T17:49:39Z</time></trkpt><trkpt lat="60.0147260260" lon="30.2232582495"><ele>5.91</ele><time>2025-08-28T17:49:59Z</time></trkpt><trkpt lat="60.0147308037" lon="30.2231527213"><ele>5.91</ele><time>2025-08-28T17:50:11Z</time></trkpt><trkpt lat="60.0147635769" lon="30.2231782023"><ele>5.42</ele><time>2025-08-28T17:50:20Z</time></trkpt><trkpt lat="60.0147289596" lon="30.2232117299"><ele>5.91</ele><time>2025-08-28T17:50:28Z</time></trkpt><trkpt lat="60.0147113577" lon="30.2232120652"><ele>6.87</ele><time>2025-08-28T17:50:33Z</time></trkpt><trkpt lat="60.0147313904" lon="30.2232029289"><ele>6.39</ele><time>2025-08-28T17:50:39Z</time></trkpt><trkpt lat="60.0147401914" lon="30.2231964748"><ele>5.91</ele><time>2025-08-28T17:50:54Z</time></trkpt><trkpt lat="60.0147324800" lon="30.2231993247"><ele>6.39</ele><time>2025-08-28T17:51:11Z</time></trkpt><trkpt lat="60.0147511717" lon="30.2231655456"><ele>6.39</ele><time>2025-08-28T17:51:24Z</time></trkpt><trkpt lat="60.0147670973" lon="30.2231953852"><ele>5.91</ele><time>2025-08-28T17:51:30Z</time></trkpt><trkpt lat="60.0147252716" lon="30.2231780346"><ele>5.42</ele><time>2025-08-28T17:51:39Z</time></trkpt><trkpt lat="60.0147044845" lon="30.2232500352"><ele>5.91</ele><time>2025-08-28T17:51:45Z</time></trkpt><trkpt lat="60.0147204101" lon="30.2232807968"><ele>5.91</ele><time>2025-08-28T17:51:51Z</time></trkpt><trkpt lat="60.0147217512" lon="30.2232923638"><ele>5.91</ele><time>2025-08-28T17:51:52Z</time></trkpt></trkseg><trkseg><trkpt lat="59.7002237756" lon="30.5856477376"><ele>79.93</ele><time>2025-08-29T21:51:33Z</time></trkpt><trkpt lat="59.6986875404" lon="30.5884208903"><ele>78.97</ele><time>2025-08-29T21:51:44Z</time></trkpt><trkpt lat="59.6984184813" lon="30.5889077112"><ele>75.60</ele><time>2025-08-29T21:51:46Z</time></trkpt><trkpt lat="59.6981534455" lon="30.5893915147"><ele>72.24</ele><time>2025-08-29T21:51:48Z</time></trkpt><trkpt lat="59.6977579873" lon="30.5901167169"><ele>67.91</ele><time>2025-08-29T21:51:51Z</time></trkpt><trkpt lat="59.6973595116" lon="30.5908467807"><ele>64.07</ele><time>2025-08-29T21:51:54Z</time></trkpt><trkpt lat="59.6969622932" lon="30.5915917642"><ele>60.70</ele><time>2025-08-29T21:51:57Z</time></trkpt><trkpt lat="59.6965597942" lon="30.5923778191"><ele>57.34</ele><time>2025-08-29T21:52:00Z</time></trkpt><trkpt lat="59.6964219119" lon="30.5926426034"><ele>57.34</ele><time>2025-08-29T21:52:01Z</time></trkpt><trkpt lat="59.6959935967" lon="30.5934314243"><ele>53.49</ele><time>2025-08-29T21:52:04Z</time></trkpt><trkpt lat="59.6954162512" lon="30.5944821797"><ele>50.13</ele><time>2025-08-29T21:52:08Z</time></trkpt><trkpt lat="59.6940895636" lon="30.5968852714"><ele>46.76</ele><time>2025-08-29T21:52:17Z</time></trkpt><trkpt lat="59.6931606811" lon="30.5985298846"><ele>43.88</ele><time>2025-08-29T21:52:23Z</time></trkpt><trkpt lat="59.6919358335" lon="30.6007638294"><ele>40.51</ele><time>2025-08-29T21:52:31Z</time></trkpt><trkpt lat="59.6907307673" lon="30.6029523443"><ele>38.11</ele><time>2025-08-29T21:52:39Z</time></trkpt><trkpt lat="59.6895403694" lon="30.6051306333"><ele>36.67</ele><time>2025-08-29T21:52:47Z</time></trkpt><trkpt lat="59.6886146720" lon="30.6068169884"><ele>35.71</ele><time>2025-08-29T21:52:54Z</time></trkpt><trkpt lat="59.6876689419" lon="30.6085346080"><ele>34.74</ele><time>2025-08-29T21:53:02Z</time></trkpt><trkpt lat="59.6869378723" lon="30.6098582782"><ele>34.74</ele><time>2025-08-29T21:53:09Z</time></trkpt><trkpt lat="59.6862004325" lon="30.6112065073"><ele>34.74</ele><time>2025-08-29T21:53:17Z</time></trkpt><trkpt lat="59.6861037053" lon="30.6113806833"><ele>40.03</ele><time>2025-08-29T21:53:18Z</time></trkpt><trkpt lat="59.6860085707" lon="30.6115530152"><ele>40.03</ele><time>2025-08-29T21:53:19Z</time></trkpt><trkpt lat="59.6852878947" lon="30.6128748413"><ele>40.03</ele><time>2025-08-29T21:53:26Z</time></trkpt><trkpt lat="59.6845512930" lon="30.6142607052"><ele>40.03</ele><time>2025-08-29T21:53:32Z</time></trkpt><trkpt lat="59.6835623123" lon="30.6160371657"><ele>40.03</ele><time>2025-08-29T21:53:39Z</time></trkpt><trkpt lat="59.6824539732" lon="30.6180698611"><ele>40.03</ele><time>2025-08-29T21:53:47Z</time></trkpt><trkpt lat="59.6811791696" lon="30.6204005331"><ele>40.03</ele><time>2025-08-29T21:53:56Z</time></trkpt><trkpt lat="59.6799592674" lon="30.6226362381"><ele>55.41</ele><time>2025-08-29T21:54:04Z</time></trkpt><trkpt lat="59.6798065491" lon="30.6229196303"><ele>55.41</ele><time>2025-08-29T21:54:05Z</time></trkpt><trkpt lat="59.6785637643" lon="30.6252538227"><ele>55.41</ele><time>2025-08-29T21:54:13Z</time></trkpt><trkpt lat="59.6773151122" lon="30.6275746878"><ele>55.41</ele><time>2025-08-29T21:54:21Z</time></trkpt><trkpt lat="59.6760590002" lon="30.6298870035"><ele>55.41</ele><time>2025-08-29T21:54:29Z</time></trkpt><trkpt lat="59.6754137613" lon="30.6310592964"><ele>58.78</ele><time>2025-08-29T21:54:33Z</time></trkpt><trkpt lat="59.6752540022" lon="30.6313507352"><ele>58.30</ele><time>2025-08-29T21:54:34Z</time></trkpt><trkpt lat="59.6734928805" lon="30.6345731579"><ele>58.30</ele><time>2025-08-29T21:54:45Z</time></trkpt><trkpt lat="59.6721106209" lon="30.6371412892"><ele>58.30</ele><time>2025-08-29T21:54:54Z</time></trkpt><trkpt lat="59.6705684345" lon="30.6399969198"><ele>57.82</ele><time>2025-08-29T21:55:04Z</time></trkpt><trkpt lat="59.6691223886" lon="30.6426139176"><ele>57.34</ele><time>2025-08-29T21:55:13Z</time></trkpt><trkpt lat="59.6673175972" lon="30.6459028088"><ele>57.82</ele><time>2025-08-29T21:55:24Z</time></trkpt><trkpt lat="59.6659153048" lon="30.6484473869"><ele>58.30</ele><time>2025-08-29T21:55:33Z</time></trkpt><trkpt lat="59.6406859439" lon="30.6949389540"><ele>61.18</ele><time>2025-08-29T21:58:16Z</time></trkpt><trkpt lat="59.6405211557" lon="30.6952961907"><ele>61.18</ele><time>2025-08-29T21:58:17Z</time></trkpt><trkpt lat="59.6386576071" lon="30.6984522287"><ele>61.18</ele><time>2025-08-29T21:58:27Z</time></trkpt><trkpt lat="59.6369498782" lon="30.7016039919"><ele>61.18</ele><time>2025-08-29T21:58:37Z</time></trkpt><trkpt lat="59.6355909202" lon="30.7041258551"><ele>58.30</ele><time>2025-08-29T21:58:45Z</time></trkpt><trkpt lat="59.6338052396" lon="30.7074294984"><ele>55.89</ele><time>2025-08-29T21:58:56Z</time></trkpt><trkpt lat="59.6328570787" lon="30.7091921289"><ele>55.41</ele><time>2025-08-29T21:59:02Z</time></trkpt><trkpt lat="59.6317758132" lon="30.7111878600"><ele>54.93</ele><time>2025-08-29T21:59:09Z</time></trkpt><trkpt lat="59.6308356989" lon="30.7129436173"><ele>54.93</ele><time>2025-08-29T21:59:15Z</time></trkpt><trkpt lat="59.6296719555" lon="30.7151187211"><ele>54.93</ele><time>2025-08-29T21:59:23Z</time></trkpt><trkpt lat="59.6284045279" lon="30.7175011095"><ele>53.97</ele><time>2025-08-29T21:59:32Z</time></trkpt><trkpt lat="59.6271744836" lon="30.7197829988"><ele>53.97</ele><time>2025-08-29T21:59:40Z</time></trkpt><trkpt lat="59.6257385798" lon="30.7224562392"><ele>53.97</ele><time>2025-08-29T21:59:49Z</time></trkpt><trkpt lat="59.6242952161" lon="30.7251323294"><ele>53.97</ele><time>2025-08-29T21:59:58Z</time></trkpt><trkpt lat="59.6232403535" lon="30.7270817924"><ele>54.45</ele><time>2025-08-29T22:00:05Z</time></trkpt><trkpt lat="59.6224335115" lon="30.7285730168"><ele>53.01</ele><time>2025-08-29T22:00:11Z</time></trkpt><trkpt lat="59.6212592069" lon="30.7307738531"><ele>52.53</ele><time>2025-08-29T22:00:20Z</time></trkpt><trkpt lat="59.6199175157" lon="30.7332440000"><ele>52.53</ele><time>2025-08-29T22:00:30Z</time></trkpt><trkpt lat="59.6190763079" lon="30.7347933110"><ele>50.13</ele><time>2025-08-29T22:00:37Z</time></trkpt><trkpt lat="59.6181228664" lon="30.7365447935"><ele>50.13</ele><time>2025-08-29T22:00:45Z</time></trkpt><trkpt lat="59.6170291118" lon="30.7384955976"><ele>50.13</ele><time>2025-08-29T22:00:54Z</time></trkpt><trkpt lat="59.6159729082" lon="30.7403269596"><ele>50.13</ele><time>2025-08-29T22:01:02Z</time></trkpt><trkpt lat="59.6147544309" lon="30.7421899214"><ele>50.61</ele><time>2025-08-29T22:01:10Z</time></trkpt><trkpt lat="59.6133513842" lon="30.7444475871"><ele>50.61</ele><time>2025-08-29T22:01:19Z</time></trkpt><trkpt lat="59.6127690095" lon="30.7454692572"><ele>58.30</ele><time>2025-08-29T22:01:23Z</time></trkpt><trkpt lat="59.6126291994" lon="30.7457252406"><ele>58.30</ele><time>2025-08-29T22:01:24Z</time></trkpt><trkpt lat="59.6113854926" lon="30.7479944732"><ele>59.26</ele><time>2025-08-29T22:01:33Z</time></trkpt><trkpt lat="59.6099734772" lon="30.7505145762"><ele>59.26</ele><time>2025-08-29T22:01:43Z</time></trkpt><trkpt lat="59.6086112503" lon="30.7530341763"><ele>59.74</ele><time>2025-08-29T22:01:53Z</time></trkpt><trkpt lat="59.6078977827" lon="30.7543716766"><ele>59.74</ele><time>2025-08-29T22:01:59Z</time></trkpt><trkpt lat="59.6073530428" lon="30.7554288860"><ele>59.74</ele><time>2025-08-29T22:02:05Z</time></trkpt><trkpt lat="59.6071008313" lon="30.7558082510"><ele>59.74</ele><time>2025-08-29T22:02:08Z</time></trkpt><trkpt lat="59.6069943812" lon="30.7558613922"><ele>59.74</ele><time>2025-08-29T22:02:09Z</time></trkpt><trkpt lat="59.6068815608" lon="30.7558732945"><ele>59.74</ele><time>2025-08-29T22:02:10Z</time></trkpt><trkpt lat="59.6066695824" lon="30.7557794172"><ele>59.74</ele><time>2025-08-29T22:02:12Z</time></trkpt><trkpt lat="59.6065752860" lon="30.7557337359"><ele>59.74</ele><time>2025-08-29T22:02:13Z</time></trkpt><trkpt lat="59.6059016325" lon="30.7554883976"><ele>59.74</ele><time>2025-08-29T22:02:19Z</time></trkpt><trkpt lat="59.6048432495" lon="30.7553505991"><ele>59.74</ele><time>2025-08-29T22:02:28Z</time></trkpt><trkpt lat="59.6046687383" lon="30.7553627528"><ele>55.41</ele><time>2025-08-29T22:02:30Z</time></trkpt><trkpt lat="59.6045932174" lon="30.7554081827"><ele>55.41</ele><time>2025-08-29T22:02:31Z</time></trkpt><trkpt lat="59.6045225579" lon="30.7554783393"><ele>55.41</ele><time>2025-08-29T22:02:32Z</time></trkpt><trkpt lat="59.6044575144" lon="30.7555632479"><ele>55.89</ele><time>2025-08-29T22:02:33Z</time></trkpt><trkpt lat="59.6043926384" lon="30.7556587178"><ele>55.41</ele><time>2025-08-29T22:02:34Z</time></trkpt><trkpt lat="59.6043478791" lon="30.7557365857"><ele>55.41</ele><time>2025-08-29T22:02:35Z</time></trkpt><trkpt lat="59.6042244136" lon="30.7559614722"><ele>55.89</ele><time>2025-08-29T22:02:39Z</time></trkpt><trkpt lat="59.6041998547" lon="30.7561134361"><ele>56.86</ele><time>2025-08-29T22:02:42Z</time></trkpt><trkpt lat="59.6041949932" lon="30.7562050503"><ele>56.86</ele><time>2025-08-29T22:02:43Z</time></trkpt><trkpt lat="59.6042084042" lon="30.7563076448"><ele>57.34</ele><time>2025-08-29T22:02:44Z</time></trkpt><trkpt lat="59.6042436920" lon="30.7564296853"><ele>57.34</ele><time>2025-08-29T22:02:45Z</time></trkpt><trkpt lat="59.6043158602" lon="30.7565651368"><ele>57.34</ele><time>2025-08-29T22:02:46Z</time></trkpt><trkpt lat="59.6043930575" lon="30.7567147538"><ele>57.82</ele><time>2025-08-29T22:02:47Z</time></trkpt><trkpt lat="59.6048361249" lon="30.7576175686"><ele>58.30</ele><time>2025-08-29T22:02:52Z</time></trkpt><trkpt lat="59.6053699683" lon="30.7587565854"><ele>58.30</ele><time>2025-08-29T22:02:57Z</time></trkpt><trkpt lat="59.6059831884" lon="30.7600603905"><ele>58.30</ele><time>2025-08-29T22:03:02Z</time></trkpt><trkpt lat="59.6069903579" lon="30.7621775754"><ele>58.78</ele><time>2025-08-29T22:03:10Z</time></trkpt><trkpt lat="59.6081178915" lon="30.7645380870"><ele>58.78</ele><time>2025-08-29T22:03:19Z</time></trkpt><trkpt lat="59.6091675572" lon="30.7667681761"><ele>58.78</ele><time>2025-08-29T22:03:28Z</time></trkpt><trkpt lat="59.6103043947" lon="30.7692214753"><ele>58.78</ele><time>2025-08-29T22:03:38Z</time></trkpt><trkpt lat="59.6104227472" lon="30.7694682386"><ele>53.49</ele><time>2025-08-29T22:03:39Z</time></trkpt><trkpt lat="59.6105420217" lon="30.7697185222"><ele>53.97</ele><time>2025-08-29T22:03:40Z</time></trkpt><trkpt lat="59.6116673760" lon="30.7720974740"><ele>53.97</ele><time>2025-08-29T22:03:49Z</time></trkpt><trkpt lat="59.6126609668" lon="30.7741931174"><ele>53.97</ele><time>2025-08-29T22:03:56Z</time></trkpt><trkpt lat="59.6141357627" lon="30.7773632370"><ele>53.97</ele><time>2025-08-29T22:04:06Z</time></trkpt><trkpt lat="59.6150850970" lon="30.7794235926"><ele>53.97</ele><time>2025-08-29T22:04:13Z</time></trkpt><trkpt lat="59.6159643587" lon="30.7813142985"><ele>53.97</ele><time>2025-08-29T22:04:20Z</time></trkpt><trkpt lat="59.6171479672" lon="30.7837731298"><ele>53.97</ele><time>2025-08-29T22:04:29Z</time></trkpt><trkpt lat="59.6180684678" lon="30.7853946090"><ele>53.97</ele><time>2025-08-29T22:04:35Z</time></trkpt><trkpt lat="59.6189460531" lon="30.7865676563"><ele>53.97</ele><time>2025-08-29T22:04:40Z</time></trkpt><trkpt lat="59.6199884266" lon="30.7877386082"><ele>53.97</ele><time>2025-08-29T22:04:46Z</time></trkpt><trkpt lat="59.6211697720" lon="30.7888862584"><ele>53.97</ele><time>2025-08-29T22:04:53Z</time></trkpt><trkpt lat="59.6226838790" lon="30.7903296221"><ele>53.97</ele><time>2025-08-29T22:05:02Z</time></trkpt><trkpt lat="59.6242710762" lon="30.7918417174"><ele>53.97</ele><time>2025-08-29T22:05:11Z</time></trkpt><trkpt lat="59.6255755518" lon="30.7931363024"><ele>53.97</ele><time>2025-08-29T22:05:19Z</time></trkpt><trkpt lat="59.6262092236" lon="30.7938335091"><ele>53.97</ele><time>2025-08-29T22:05:24Z</time></trkpt><trkpt lat="59.6264320146" lon="30.7941263728"><ele>42.92</ele><time>2025-08-29T22:05:26Z</time></trkpt><trkpt lat="59.6265397221" lon="30.7942843717"><ele>42.92</ele><time>2025-08-29T22:05:27Z</time></trkpt><trkpt lat="59.6271617431" lon="30.7953996677"><ele>42.92</ele><time>2025-08-29T22:05:33Z</time></trkpt><trkpt lat="59.6276115160" lon="30.7965871319"><ele>42.92</ele><time>2025-08-29T22:05:38Z</time></trkpt><trkpt lat="59.6279769670" lon="30.7980473433"><ele>42.92</ele><time>2025-08-29T22:05:43Z</time></trkpt><trkpt lat="59.6282256581" lon="30.7997431699"><ele>42.92</ele><time>2025-08-29T22:05:48Z</time></trkpt><trkpt lat="59.6285134926" lon="30.8025240339"><ele>42.92</ele><time>2025-08-29T22:05:56Z</time></trkpt><trkpt lat="59.6287122276" lon="30.8042732533"><ele>42.92</ele><time>2025-08-29T22:06:02Z</time></trkpt><trkpt lat="59.6289747488" lon="30.8057360630"><ele>42.92</ele><time>2025-08-29T22:06:07Z</time></trkpt><trkpt lat="59.6291325800" lon="30.8063317649"><ele>40.03</ele><time>2025-08-29T22:06:09Z</time></trkpt><trkpt lat="59.6295588836" lon="30.8074717876"><ele>40.51</ele><time>2025-08-29T22:06:13Z</time></trkpt><trkpt lat="59.6303541586" lon="30.8091768343"><ele>40.51</ele><time>2025-08-29T22:06:19Z</time></trkpt><trkpt lat="59.6316238493" lon="30.8118155412"><ele>40.51</ele><time>2025-08-29T22:06:28Z</time></trkpt><trkpt lat="59.6327271592" lon="30.8141344786"><ele>40.99</ele><time>2025-08-29T22:06:36Z</time></trkpt><trkpt lat="59.6337304730" lon="30.8162272722"><ele>40.99</ele><time>2025-08-29T22:06:43Z</time></trkpt><trkpt lat="59.6352479327" lon="30.8193894289"><ele>40.99</ele><time>2025-08-29T22:06:53Z</time></trkpt><trkpt lat="59.6360173915" lon="30.8210096508"><ele>40.99</ele><time>2025-08-29T22:06:58Z</time></trkpt><trkpt lat="59.6372419875" lon="30.8235735074"><ele>40.99</ele><time>2025-08-29T22:07:06Z</time></trkpt><trkpt lat="59.6388815716" lon="30.8269713633"><ele>40.99</ele><time>2025-08-29T22:07:17Z</time></trkpt><trkpt lat="59.6405242570" lon="30.8303668723"><ele>40.99</ele><time>2025-08-29T22:07:28Z</time></trkpt><trkpt lat="59.6419094503" lon="30.8332405239"><ele>40.99</ele><time>2025-08-29T22:07:37Z</time></trkpt><trkpt lat="59.6434833203" lon="30.8364895172"><ele>40.99</ele><time>2025-08-29T22:07:47Z</time></trkpt><trkpt lat="59.6445209160" lon="30.8386981487"><ele>40.03</ele><time>2025-08-29T22:07:54Z</time></trkpt><trkpt lat="59.6453342959" lon="30.8404207975"><ele>40.03</ele><time>2025-08-29T22:08:00Z</time></trkpt><trkpt lat="59.6465140488" lon="30.8428674750"><ele>40.03</ele><time>2025-08-29T22:08:09Z</time></trkpt><trkpt lat="59.6478990745" lon="30.8456802741"><ele>40.03</ele><time>2025-08-29T22:08:19Z</time></trkpt><trkpt lat="59.6490835212" lon="30.8481476549"><ele>40.03</ele><time>2025-08-29T22:08:28Z</time></trkpt><trkpt lat="59.6505494323" lon="30.8511731867"><ele>40.03</ele><time>2025-08-29T22:08:39Z</time></trkpt><trkpt lat="59.6506818663" lon="30.8514536452"><ele>43.40</ele><time>2025-08-29T22:08:40Z</time></trkpt><trkpt lat="59.6508155577" lon="30.8517385460"><ele>42.44</ele><time>2025-08-29T22:08:41Z</time></trkpt><trkpt lat="59.6520936303" lon="30.8543810248"><ele>44.36</ele><time>2025-08-29T22:08:50Z</time></trkpt><trkpt lat="59.6522371285" lon="30.8546810132"><ele>44.36</ele><time>2025-08-29T22:08:51Z</time></trkpt><trkpt lat="59.6538279299" lon="30.8579383884"><ele>44.84</ele><time>2025-08-29T22:09:02Z</time></trkpt><trkpt lat="59.6550838742" lon="30.8605268877"><ele>44.84</ele><time>2025-08-29T22:09:11Z</time></trkpt><trkpt lat="59.6565139946" lon="30.8635236695"><ele>44.84</ele><time>2025-08-29T22:09:21Z</time></trkpt><trkpt lat="59.6579514071" lon="30.8665374666"><ele>44.84</ele><time>2025-08-29T22:09:31Z</time></trkpt><trkpt lat="59.6590948664" lon="30.8689287398"><ele>44.84</ele><time>2025-08-29T22:09:39Z</time></trkpt><trkpt lat="59.6604522318" lon="30.8717544470"><ele>48.20</ele><time>2025-08-29T22:09:48Z</time></trkpt><trkpt lat="59.6617194079" lon="30.8743939921"><ele>48.20</ele><time>2025-08-29T22:09:57Z</time></trkpt><trkpt lat="59.6631470975" lon="30.8773672208"><ele>48.20</ele><time>2025-08-29T22:10:07Z</time></trkpt><trkpt lat="59.6643640660" lon="30.8799081109"><ele>48.20</ele><time>2025-08-29T22:10:15Z</time></trkpt><trkpt lat="59.6655829623" lon="30.8824932575"><ele>48.20</ele><time>2025-08-29T22:10:23Z</time></trkpt><trkpt lat="59.6666237433" lon="30.8850776497"><ele>50.61</ele><time>2025-08-29T22:10:31Z</time></trkpt><trkpt lat="59.6667424310" lon="30.8854058851"><ele>51.09</ele><time>2025-08-29T22:10:32Z</time></trkpt><trkpt lat="59.6675235406" lon="30.8878193703"><ele>51.09</ele><time>2025-08-29T22:10:39Z</time></trkpt><trkpt lat="59.6682117786" lon="30.8903476037"><ele>51.09</ele><time>2025-08-29T22:10:46Z</time></trkpt><trkpt lat="59.6687913034" lon="30.8929596562"><ele>51.09</ele><time>2025-08-29T22:10:53Z</time></trkpt><trkpt lat="59.6698508598" lon="30.8980758023"><ele>56.37</ele><time>2025-08-29T22:11:07Z</time></trkpt><trkpt lat="59.6699278895" lon="30.8984472044"><ele>56.37</ele><time>2025-08-29T22:11:08Z</time></trkpt><trkpt lat="59.6708685067" lon="30.9029739350"><ele>55.89</ele><time>2025-08-29T22:11:20Z</time></trkpt><trkpt lat="59.6715386398" lon="30.9061733913"><ele>55.89</ele><time>2025-08-29T22:11:28Z</time></trkpt><trkpt lat="59.6725582983" lon="30.9110771399"><ele>55.89</ele><time>2025-08-29T22:11:40Z</time></trkpt><trkpt lat="59.6733660623" lon="30.9149725456"><ele>55.89</ele><time>2025-08-29T22:11:50Z</time></trkpt><trkpt lat="59.6741169132" lon="30.9185994789"><ele>55.89</ele><time>2025-08-29T22:11:59Z</time></trkpt><trkpt lat="59.6750172134" lon="30.9229094535"><ele>55.89</ele><time>2025-08-29T22:12:09Z</time></trkpt><trkpt lat="59.6757690702" lon="30.9265759494"><ele>55.89</ele><time>2025-08-29T22:12:18Z</time></trkpt><trkpt lat="59.6765158977" lon="30.9301851131"><ele>55.89</ele><time>2025-08-29T22:12:27Z</time></trkpt><trkpt lat="59.6774224844" lon="30.9345874563"><ele>55.89</ele><time>2025-08-29T22:12:38Z</time></trkpt><trkpt lat="59.6781414002" lon="30.9380516969"><ele>55.89</ele><time>2025-08-29T22:12:47Z</time></trkpt><trkpt lat="59.6783754230" lon="30.9391624667"><ele>47.24</ele><time>2025-08-29T22:12:50Z</time></trkpt><trkpt lat="59.6784563083" lon="30.9395544045"><ele>47.24</ele><time>2025-08-29T22:12:51Z</time></trkpt><trkpt lat="59.6792048961" lon="30.9431022126"><ele>47.24</ele><time>2025-08-29T22:13:01Z</time></trkpt><trkpt lat="59.6798310243" lon="30.9457937256"><ele>47.72</ele><time>2025-08-29T22:13:09Z</time></trkpt><trkpt lat="59.6805604175" lon="30.9483775310"><ele>47.72</ele><time>2025-08-29T22:13:17Z</time></trkpt><trkpt lat="59.6813892201" lon="30.9508280642"><ele>47.72</ele><time>2025-08-29T22:13:25Z</time></trkpt><trkpt lat="59.6823470201" lon="30.9532761667"><ele>47.72</ele><time>2025-08-29T22:13:33Z</time></trkpt><trkpt lat="59.6839847602" lon="30.9574196767"><ele>48.68</ele><time>2025-08-29T22:13:46Z</time></trkpt><trkpt lat="59.6855349932" lon="30.9613009170"><ele>48.68</ele><time>2025-08-29T22:13:58Z</time></trkpt><trkpt lat="59.6859298646" lon="30.9622868802"><ele>47.24</ele><time>2025-08-29T22:14:01Z</time></trkpt><trkpt lat="59.6869364474" lon="30.9648193046"><ele>46.76</ele><time>2025-08-29T22:14:09Z</time></trkpt><trkpt lat="59.6881182957" lon="30.9677885938"><ele>46.76</ele><time>2025-08-29T22:14:18Z</time></trkpt><trkpt lat="59.6898813453" lon="30.9721942060"><ele>46.76</ele><time>2025-08-29T22:14:31Z</time></trkpt><trkpt lat="59.6910431609" lon="30.9751269501"><ele>46.76</ele><time>2025-08-29T22:14:40Z</time></trkpt><trkpt lat="59.6914280578" lon="30.9760953952"><ele>42.44</ele><time>2025-08-29T22:14:43Z</time></trkpt><trkpt lat="59.6915556304" lon="30.9764205292"><ele>42.44</ele><time>2025-08-29T22:14:44Z</time></trkpt><trkpt lat="59.6929491218" lon="30.9799483884"><ele>42.44</ele><time>2025-08-29T22:14:55Z</time></trkpt><trkpt lat="59.6941417828" lon="30.9828960523"><ele>41.95</ele><time>2025-08-29T22:15:04Z</time></trkpt><trkpt lat="59.6951498743" lon="30.9854065999"><ele>41.95</ele><time>2025-08-29T22:15:12Z</time></trkpt><trkpt lat="59.6959687024" lon="30.9874475934"><ele>41.95</ele><time>2025-08-29T22:15:19Z</time></trkpt><trkpt lat="59.6964873746" lon="30.9887299407"><ele>39.55</ele><time>2025-08-29T22:15:23Z</time></trkpt><trkpt lat="59.6979780961" lon="30.9924216662"><ele>40.03</ele><time>2025-08-29T22:15:34Z</time></trkpt><trkpt lat="59.6990343835" lon="30.9950591996"><ele>40.03</ele><time>2025-08-29T22:15:42Z</time></trkpt><trkpt lat="59.7000372782" lon="30.9975642990"><ele>40.51</ele><time>2025-08-29T22:15:50Z</time></trkpt><trkpt lat="59.7014206275" lon="31.0009706207"><ele>40.51</ele><time>2025-08-29T22:16:01Z</time></trkpt><trkpt lat="59.7025527712" lon="31.0037568491"><ele>40.51</ele><time>2025-08-29T22:16:10Z</time></trkpt><trkpt lat="59.7038105596" lon="31.0068893339"><ele>40.51</ele><time>2025-08-29T22:16:20Z</time></trkpt><trkpt lat="59.7050529253" lon="31.0099754669"><ele>40.51</ele><time>2025-08-29T22:16:30Z</time></trkpt><trkpt lat="59.7063871566" lon="31.0133157391"><ele>40.51</ele><time>2025-08-29T22:16:41Z</time></trkpt><trkpt lat="59.7074260097" lon="31.0158507619"><ele>41.47</ele><time>2025-08-29T22:16:49Z</time></trkpt><trkpt lat="59.7084561456" lon="31.0183952563"><ele>41.47</ele><time>2025-08-29T22:16:57Z</time></trkpt><trkpt lat="59.7094166279" lon="31.0207614675"><ele>41.47</ele><time>2025-08-29T22:17:04Z</time></trkpt><trkpt lat="59.7106978856" lon="31.0239235405"><ele>41.47</ele><time>2025-08-29T22:17:13Z</time></trkpt><trkpt lat="59.7116400953" lon="31.0262640193"><ele>42.92</ele><time>2025-08-29T22:17:20Z</time></trkpt><trkpt lat="59.7129553836" lon="31.0295259207"><ele>43.88</ele><time>2025-08-29T22:17:30Z</time></trkpt><trkpt lat="59.7140091565" lon="31.0320461914"><ele>43.88</ele><time>2025-08-29T22:17:38Z</time></trkpt><trkpt lat="59.7152304836" lon="31.0346472636"><ele>43.88</ele><time>2025-08-29T22:17:47Z</time></trkpt><trkpt lat="59.7162855975" lon="31.0367457569"><ele>43.88</ele><time>2025-08-29T22:17:54Z</time></trkpt><trkpt lat="59.7180337273" lon="31.0402535833"><ele>43.88</ele><time>2025-08-29T22:18:05Z</time></trkpt><trkpt lat="59.7198252752" lon="31.0438336618"><ele>43.88</ele><time>2025-08-29T22:18:16Z</time></trkpt><trkpt lat="59.7217656858" lon="31.0476920195"><ele>43.88</ele><time>2025-08-29T22:18:28Z</time></trkpt><trkpt lat="59.7235166654" lon="31.0511820763"><ele>43.88</ele><time>2025-08-29T22:18:39Z</time></trkpt><trkpt lat="59.7248731088" lon="31.0538615193"><ele>41.95</ele><time>2025-08-29T22:18:48Z</time></trkpt><trkpt lat="59.7259887401" lon="31.0560758505"><ele>40.99</ele><time>2025-08-29T22:18:56Z</time></trkpt><trkpt lat="59.7270284314" lon="31.0581481084"><ele>40.51</ele><time>2025-08-29T22:19:04Z</time></trkpt><trkpt lat="59.7279762570" lon="31.0598005168"><ele>39.55</ele><time>2025-08-29T22:19:11Z</time></trkpt><trkpt lat="59.7292540781" lon="31.0616898816"><ele>39.55</ele><time>2025-08-29T22:19:20Z</time></trkpt><trkpt lat="59.7304269578" lon="31.0633050743"><ele>39.55</ele><time>2025-08-29T22:19:28Z</time></trkpt><trkpt lat="59.7318329383" lon="31.0652542859"><ele>40.03</ele><time>2025-08-29T22:19:37Z</time></trkpt><trkpt lat="59.7333162837" lon="31.0673407093"><ele>40.03</ele><time>2025-08-29T22:19:47Z</time></trkpt><trkpt lat="59.7340783663" lon="31.0684217233"><ele>40.03</ele><time>2025-08-29T22:19:53Z</time></trkpt><trkpt lat="59.7341937013" lon="31.0685831588"><ele>31.38</ele><time>2025-08-29T22:19:54Z</time></trkpt><trkpt lat="59.7343058512" lon="31.0687425826"><ele>31.86</ele><time>2025-08-29T22:19:55Z</time></trkpt><trkpt lat="59.7353702690" lon="31.0702275205"><ele>32.34</ele><time>2025-08-29T22:20:05Z</time></trkpt><trkpt lat="59.7361468524" lon="31.0713095404"><ele>32.34</ele><time>2025-08-29T22:20:13Z</time></trkpt><trkpt lat="59.7370013036" lon="31.0725042131"><ele>32.34</ele><time>2025-08-29T22:20:22Z</time></trkpt><trkpt lat="59.7381147556" lon="31.0740483273"><ele>32.34</ele><time>2025-08-29T22:20:34Z</time></trkpt><trkpt lat="59.7389233578" lon="31.0751656350"><ele>32.34</ele><time>2025-08-29T22:20:42Z</time></trkpt><trkpt lat="59.7392561194" lon="31.0756271426"><ele>36.67</ele><time>2025-08-29T22:20:45Z</time></trkpt><trkpt lat="59.7405170090" lon="31.0773886833"><ele>36.67</ele><time>2025-08-29T22:20:56Z</time></trkpt><trkpt lat="59.7412969451" lon="31.0784801748"><ele>36.67</ele><time>2025-08-29T22:21:02Z</time></trkpt><trkpt lat="59.7422018554" lon="31.0797412321"><ele>36.67</ele><time>2025-08-29T22:21:08Z</time></trkpt><trkpt lat="59.7440878674" lon="31.0823710542"><ele>36.67</ele><time>2025-08-29T22:21:20Z</time></trkpt><trkpt lat="59.7457525972" lon="31.0846987925"><ele>36.67</ele><time>2025-08-29T22:21:31Z</time></trkpt><trkpt lat="59.7465891112" lon="31.0857584327"><ele>36.67</ele><time>2025-08-29T22:21:37Z</time></trkpt><trkpt lat="59.7478554491" lon="31.0870551132"><ele>36.67</ele><time>2025-08-29T22:21:46Z</time></trkpt><trkpt lat="59.7489967290" lon="31.0882508755"><ele>36.67</ele><time>2025-08-29T22:21:54Z</time></trkpt><trkpt lat="59.7500106040" lon="31.0892499145"><ele>36.67</ele><time>2025-08-29T22:22:00Z</time></trkpt><trkpt lat="59.7512216214" lon="31.0901919566"><ele>36.67</ele><time>2025-08-29T22:22:07Z</time></trkpt><trkpt lat="59.7527701780" lon="31.0910392832"><ele>48.68</ele><time>2025-08-29T22:22:15Z</time></trkpt><trkpt lat="59.7529016901" lon="31.0911107808"><ele>48.68</ele><time>2025-08-29T22:22:16Z</time></trkpt><trkpt lat="59.7542109434" lon="31.0917883739"><ele>49.65</ele><time>2025-08-29T22:22:23Z</time></trkpt><trkpt lat="59.7556198575" lon="31.0925087146"><ele>49.65</ele><time>2025-08-29T22:22:31Z</time></trkpt><trkpt lat="59.7572084796" lon="31.0933166463"><ele>49.65</ele><time>2025-08-29T22:22:40Z</time></trkpt><trkpt lat="59.7583176568" lon="31.0936483182"><ele>49.65</ele><time>2025-08-29T22:22:47Z</time></trkpt><trkpt lat="59.7584802657" lon="31.0936781578"><ele>45.80</ele><time>2025-08-29T22:22:48Z</time></trkpt><trkpt lat="59.7596829012" lon="31.0937477276"><ele>44.84</ele><time>2025-08-29T22:22:55Z</time></trkpt><trkpt lat="59.7609960102" lon="31.0938409343"><ele>39.07</ele><time>2025-08-29T22:23:02Z</time></trkpt><trkpt lat="59.7611892130" lon="31.0938761383"><ele>38.59</ele><time>2025-08-29T22:23:03Z</time></trkpt><trkpt lat="59.7622992285" lon="31.0942601971"><ele>37.63</ele><time>2025-08-29T22:23:09Z</time></trkpt><trkpt lat="59.7632416058" lon="31.0947025940"><ele>37.63</ele><time>2025-08-29T22:23:15Z</time></trkpt><trkpt lat="59.7636969946" lon="31.0949275643"><ele>37.63</ele><time>2025-08-29T22:23:19Z</time></trkpt><trkpt lat="59.7642167564" lon="31.0951776803"><ele>37.63</ele><time>2025-08-29T22:23:25Z</time></trkpt><trkpt lat="59.7643263079" lon="31.0952349287"><ele>36.19</ele><time>2025-08-29T22:23:27Z</time></trkpt><trkpt lat="59.7647153959" lon="31.0954274610"><ele>36.19</ele><time>2025-08-29T22:23:32Z</time></trkpt><trkpt lat="59.7655045521" lon="31.0958337318"><ele>36.19</ele><time>2025-08-29T22:23:39Z</time></trkpt><trkpt lat="59.7664550599" lon="31.0963187087"><ele>36.19</ele><time>2025-08-29T22:23:46Z</time></trkpt><trkpt lat="59.7679872718" lon="31.0970838927"><ele>36.19</ele><time>2025-08-29T22:23:57Z</time></trkpt><trkpt lat="59.7688873205" lon="31.0975434724"><ele>39.55</ele><time>2025-08-29T22:24:03Z</time></trkpt><trkpt lat="59.7690350935" lon="31.0976159759"><ele>38.59</ele><time>2025-08-29T22:24:04Z</time></trkpt><trkpt lat="59.7704511322" lon="31.0983250849"><ele>37.63</ele><time>2025-08-29T22:24:13Z</time></trkpt><trkpt lat="59.7721972503" lon="31.0992242955"><ele>36.67</ele><time>2025-08-29T22:24:24Z</time></trkpt><trkpt lat="59.7735515144" lon="31.0998909082"><ele>36.19</ele><time>2025-08-29T22:24:33Z</time></trkpt><trkpt lat="59.7742980067" lon="31.1002602149"><ele>34.74</ele><time>2025-08-29T22:24:39Z</time></trkpt><trkpt lat="59.7745179478" lon="31.1004086584"><ele>34.26</ele><time>2025-08-29T22:24:43Z</time></trkpt><trkpt lat="59.7745732684" lon="31.1004403420"><ele>34.26</ele><time>2025-08-29T22:24:48Z</time></trkpt><trkpt lat="59.7745836619" lon="31.1004467122"><ele>34.74</ele><time>2025-08-29T22:25:02Z</time></trkpt><trkpt lat="59.7745637968" lon="31.1004419345"><ele>34.74</ele><time>2025-08-29T22:25:21Z</time></trkpt><trkpt lat="59.7745481227" lon="31.1004742049"><ele>34.74</ele><time>2025-08-29T22:25:37Z</time></trkpt><trkpt lat="59.7745430097" lon="31.1004785635"><ele>34.74</ele><time>2025-08-29T22:25:59Z</time></trkpt><trkpt lat="59.7745320294" lon="31.1004602909"><ele>34.74</ele><time>2025-08-29T22:26:20Z</time></trkpt><trkpt lat="59.7745346278" lon="31.1004968360"><ele>34.74</ele><time>2025-08-29T22:26:33Z</time></trkpt><trkpt lat="59.7745223064" lon="31.1005010270"><ele>34.26</ele><time>2025-08-29T22:26:54Z</time></trkpt><trkpt lat="59.7745224740" lon="31.1005018651"><ele>34.26</ele><time>2025-08-29T22:27:08Z</time></trkpt><trkpt lat="59.7745261621" lon="31.1004818324"><ele>34.26</ele><time>2025-08-29T22:27:29Z</time></trkpt><trkpt lat="59.7745342087" lon="31.1004512385"><ele>34.26</ele><time>2025-08-29T22:27:45Z</time></trkpt><trkpt lat="59.7745371424" lon="31.1004498973"><ele>34.26</ele><time>2025-08-29T22:28:04Z</time></trkpt><trkpt lat="59.7745380644" lon="31.1004654039"><ele>34.74</ele><time>2025-08-29T22:28:21Z</time></trkpt><trkpt lat="59.7745300177" lon="31.1004850175"><ele>34.74</ele><time>2025-08-29T22:28:33Z</time></trkpt><trkpt lat="59.7745316941" lon="31.1004603747"><ele>34.26</ele><time>2025-08-29T22:28:51Z</time></trkpt><trkpt lat="59.7745410819" lon="31.1004483048"><ele>34.26</ele><time>2025-08-29T22:29:07Z</time></trkpt><trkpt lat="59.7745440155" lon="31.1004475504"><ele>34.74</ele><time>2025-08-29T22:29:21Z</time></trkpt><trkpt lat="59.7745400760" lon="31.1004404258"><ele>34.26</ele><time>2025-08-29T22:29:33Z</time></trkpt><trkpt lat="59.7745327838" lon="31.1004156154"><ele>34.26</ele><time>2025-08-29T22:29:55Z</time></trkpt><trkpt lat="59.7745419201" lon="31.1004309542"><ele>34.74</ele><time>2025-08-29T22:30:07Z</time></trkpt><trkpt lat="59.7745258268" lon="31.1004183814"><ele>34.26</ele><time>2025-08-29T22:30:19Z</time></trkpt><trkpt lat="59.7745286766" lon="31.1004120950"><ele>34.26</ele><time>2025-08-29T22:30:31Z</time></trkpt><trkpt lat="59.7745394055" lon="31.1004333012"><ele>34.26</ele><time>2025-08-29T22:30:44Z</time></trkpt><trkpt lat="59.7745330352" lon="31.1004603747"><ele>34.26</ele><time>2025-08-29T22:30:58Z</time></trkpt><trkpt lat="59.7745056264" lon="31.1004636437"><ele>34.26</ele><time>2025-08-29T22:31:14Z</time></trkpt><trkpt lat="59.7744999267" lon="31.1004876159"><ele>34.26</ele><time>2025-08-29T22:31:29Z</time></trkpt><trkpt lat="59.7744724341" lon="31.1004208121"><ele>36.19</ele><time>2025-08-29T22:31:41Z</time></trkpt><trkpt lat="59.7745100688" lon="31.1004556809"><ele>36.67</ele><time>2025-08-29T22:31:51Z</time></trkpt><trkpt lat="59.7745237313" lon="31.1004375760"><ele>36.19</ele><time>2025-08-29T22:32:13Z</time></trkpt><trkpt lat="59.7745477036" lon="31.1004219856"><ele>36.19</ele><time>2025-08-29T22:32:39Z</time></trkpt><trkpt lat="59.7745802253" lon="31.1004513223"><ele>35.71</ele><time>2025-08-29T22:32:58Z</time></trkpt><trkpt lat="59.7745912895" lon="31.1004526634"><ele>36.19</ele><time>2025-08-29T22:33:18Z</time></trkpt><trkpt lat="59.7745840810" lon="31.1004480533"><ele>36.19</ele><time>2025-08-29T22:33:32Z</time></trkpt><trkpt lat="59.7745658085" lon="31.1004401743"><ele>36.19</ele><time>2025-08-29T22:33:50Z</time></trkpt><trkpt lat="59.7745586839" lon="31.1004434433"><ele>36.19</ele><time>2025-08-29T22:34:09Z</time></trkpt><trkpt lat="59.7745575942" lon="31.1004373245"><ele>36.67</ele><time>2025-08-29T22:34:24Z</time></trkpt><trkpt lat="59.7745435964" lon="31.1004198063"><ele>36.19</ele><time>2025-08-29T22:34:46Z</time></trkpt><trkpt lat="59.7745300177" lon="31.1004330497"><ele>36.19</ele><time>2025-08-29T22:35:00Z</time></trkpt><trkpt lat="59.7745365556" lon="31.1004026234"><ele>36.19</ele><time>2025-08-29T22:35:21Z</time></trkpt><trkpt lat="59.7745440993" lon="31.1003874522"><ele>35.71</ele><time>2025-08-29T22:35:41Z</time></trkpt><trkpt lat="59.7745575942" lon="31.1004006956"><ele>36.19</ele><time>2025-08-29T22:35:56Z</time></trkpt><trkpt lat="59.7745576780" lon="31.1004085746"><ele>36.67</ele><time>2025-08-29T22:36:12Z</time></trkpt><trkpt lat="59.7745646350" lon="31.1003956664"><ele>36.19</ele><time>2025-08-29T22:36:32Z</time></trkpt><trkpt lat="59.7745568398" lon="31.1004099157"><ele>36.67</ele><time>2025-08-29T22:37:01Z</time></trkpt><trkpt lat="59.7745535709" lon="31.1004093289"><ele>36.67</ele><time>2025-08-29T22:37:14Z</time></trkpt><trkpt lat="59.7745651379" lon="31.1004100833"><ele>36.67</ele><time>2025-08-29T22:37:40Z</time></trkpt><trkpt lat="59.7745747771" lon="31.1004257575"><ele>36.67</ele><time>2025-08-29T22:38:08Z</time></trkpt><trkpt lat="59.7745692451" lon="31.1004428566"><ele>36.67</ele><time>2025-08-29T22:38:27Z</time></trkpt><trkpt lat="59.7745611146" lon="31.1004108377"><ele>36.67</ele><time>2025-08-29T22:38:48Z</time></trkpt><trkpt lat="59.7745617013" lon="31.1004145257"><ele>36.67</ele><time>2025-08-29T22:39:11Z</time></trkpt><trkpt lat="59.7745484579" lon="31.1004286073"><ele>36.67</ele><time>2025-08-29T22:39:23Z</time></trkpt><trkpt lat="59.7745377291" lon="31.1004264280"><ele>36.67</ele><time>2025-08-29T22:39:36Z</time></trkpt><trkpt lat="59.7745134216" lon="31.1004024558"><ele>36.67</ele><time>2025-08-29T22:39:48Z</time></trkpt><trkpt lat="59.7744964063" lon="31.1003929004"><ele>36.67</ele><time>2025-08-29T22:39:51Z</time></trkpt><trkpt lat="59.7744633816" lon="31.1003536731"><ele>36.67</ele><time>2025-08-29T22:39:57Z</time></trkpt><trkpt lat="59.7744329553" lon="31.1003245041"><ele>36.67</ele><time>2025-08-29T22:40:04Z</time></trkpt><trkpt lat="59.7743962426" lon="31.1003061477"><ele>36.67</ele><time>2025-08-29T22:40:12Z</time></trkpt><trkpt lat="59.7743332107" lon="31.1002409365"><ele>36.67</ele><time>2025-08-29T22:40:21Z</time></trkpt><trkpt lat="59.7742771357" lon="31.1001774017"><ele>36.67</ele><time>2025-08-29T22:40:29Z</time></trkpt><trkpt lat="59.7741936520" lon="31.1001086701"><ele>36.67</ele><time>2025-08-29T22:40:39Z</time></trkpt><trkpt lat="59.7741224896" lon="31.1000595521"><ele>37.15</ele><time>2025-08-29T22:40:47Z</time></trkpt><trkpt lat="59.7740603797" lon="31.1000479851"><ele>37.15</ele><time>2025-08-29T22:40:55Z</time></trkpt><trkpt lat="59.7740518302" lon="31.1000401061"><ele>37.15</ele><time>2025-08-29T22:40:56Z</time></trkpt><trkpt lat="59.7739779018" lon="31.0999890603"><ele>37.15</ele><time>2025-08-29T22:41:05Z</time></trkpt><trkpt lat="59.7739683464" lon="31.0999859590"><ele>37.15</ele><time>2025-08-29T22:41:06Z</time></trkpt><trkpt lat="59.7739084996" lon="31.0999427084"><ele>37.15</ele><time>2025-08-29T22:41:14Z</time></trkpt><trkpt lat="59.7738434561" lon="31.0999101866"><ele>37.15</ele><time>2025-08-29T22:41:22Z</time></trkpt><trkpt lat="59.7737498302" lon="31.0998744797"><ele>37.15</ele><time>2025-08-29T22:41:32Z</time></trkpt><trkpt lat="59.7736867983" lon="31.0998344142"><ele>37.15</ele><time>2025-08-29T22:41:41Z</time></trkpt><trkpt lat="59.7736602277" lon="31.1000181455"><ele>38.11</ele><time>2025-08-29T22:41:52Z</time></trkpt><trkpt lat="59.7736264486" lon="31.1000417825"><ele>37.63</ele><time>2025-08-29T22:42:07Z</time></trkpt><trkpt lat="59.7736272030" lon="31.1000634078"><ele>37.63</ele><time>2025-08-29T22:42:24Z</time></trkpt><trkpt lat="59.7736292984" lon="31.1000749748"><ele>37.63</ele><time>2025-08-29T22:42:42Z</time></trkpt><trkpt lat="59.7736213356" lon="31.1001060717"><ele>36.67</ele><time>2025-08-29T22:42:50Z</time></trkpt><trkpt lat="59.7736211680" lon="31.1000937503"><ele>36.67</ele><time>2025-08-29T22:42:59Z</time></trkpt><trkpt lat="59.7736449726" lon="31.1001225840"><ele>36.67</ele><time>2025-08-29T22:43:07Z</time></trkpt><trkpt lat="59.7736272868" lon="31.1001459695"><ele>36.67</ele><time>2025-08-29T22:43:17Z</time></trkpt><trkpt lat="59.7736089304" lon="31.1001321394"><ele>36.67</ele><time>2025-08-29T22:43:28Z</time></trkpt><trkpt lat="59.7735935915" lon="31.1001303792"><ele>36.19</ele><time>2025-08-29T22:43:38Z</time></trkpt><trkpt lat="59.7735509276" lon="31.1002181377"><ele>36.67</ele><time>2025-08-29T22:43:47Z</time></trkpt><trkpt lat="59.7735383548" lon="31.1003651563"><ele>36.19</ele><time>2025-08-29T22:44:00Z</time></trkpt><trkpt lat="59.7734904941" lon="31.1004366539"><ele>36.67</ele><time>2025-08-29T22:44:08Z</time></trkpt><trkpt lat="59.7734973673" lon="31.1005319562"><ele>36.19</ele><time>2025-08-29T22:44:15Z</time></trkpt><trkpt lat="59.7734869737" lon="31.1006179545"><ele>36.19</ele><time>2025-08-29T22:44:22Z</time></trkpt><trkpt lat="59.7734712157" lon="31.1006866861"><ele>36.19</ele><time>2025-08-29T22:44:29Z</time></trkpt><trkpt lat="59.7734343354" lon="31.1007052939"><ele>36.19</ele><time>2025-08-29T22:44:37Z</time></trkpt><trkpt lat="59.7734231874" lon="31.1007568426"><ele>36.19</ele><time>2025-08-29T22:44:49Z</time></trkpt><trkpt lat="59.7733998019" lon="31.1007736903"><ele>36.19</ele><time>2025-08-29T22:44:57Z</time></trkpt><trkpt lat="59.7734083515" lon="31.1008644663"><ele>36.19</ele><time>2025-08-29T22:45:06Z</time></trkpt><trkpt lat="59.7734639235" lon="31.1008426733"><ele>36.19</ele><time>2025-08-29T22:45:13Z</time></trkpt><trkpt lat="59.7734737303" lon="31.1008817330"><ele>36.19</ele><time>2025-08-29T22:45:22Z</time></trkpt><trkpt lat="59.7734785080" lon="31.1009376403"><ele>36.19</ele><time>2025-08-29T22:45:29Z</time></trkpt><trkpt lat="59.7735082638" lon="31.1010258179"><ele>36.19</ele><time>2025-08-29T22:45:38Z</time></trkpt><trkpt lat="59.7735078447" lon="31.1011067033"><ele>36.19</ele><time>2025-08-29T22:45:46Z</time></trkpt><trkpt lat="59.7735297214" lon="31.1011426616"><ele>36.19</ele><time>2025-08-29T22:45:54Z</time></trkpt><trkpt lat="59.7735730559" lon="31.1011270713"><ele>36.19</ele><time>2025-08-29T22:46:02Z</time></trkpt><trkpt lat="59.7736087628" lon="31.1010916159"><ele>36.67</ele><time>2025-08-29T22:46:08Z</time></trkpt><trkpt lat="59.7736421227" lon="31.1011196114"><ele>36.19</ele><time>2025-08-29T22:46:17Z</time></trkpt><trkpt lat="59.7736703698" lon="31.1011777818"><ele>36.19</ele><time>2025-08-29T22:46:25Z</time></trkpt><trkpt lat="59.7736854572" lon="31.1012218706"><ele>36.19</ele><time>2025-08-29T22:46:33Z</time></trkpt><trkpt lat="59.7736841161" lon="31.1012367066"><ele>36.19</ele><time>2025-08-29T22:46:45Z</time></trkpt><trkpt lat="59.7736780811" lon="31.1012391374"><ele>36.19</ele><time>2025-08-29T22:46:57Z</time></trkpt><trkpt lat="59.7736737225" lon="31.1012791190"><ele>35.71</ele><time>2025-08-29T22:47:08Z</time></trkpt><trkpt lat="59.7736780811" lon="31.1012832262"><ele>36.67</ele><time>2025-08-29T22:47:16Z</time></trkpt><trkpt lat="59.7736939229" lon="31.1012956314"><ele>36.19</ele><time>2025-08-29T22:47:27Z</time></trkpt><trkpt lat="59.7737034783" lon="31.1013335176"><ele>36.19</ele><time>2025-08-29T22:47:34Z</time></trkpt><trkpt lat="59.7736904025" lon="31.1014304962"><ele>36.19</ele><time>2025-08-29T22:47:43Z</time></trkpt><trkpt lat="59.7736847866" lon="31.1015446577"><ele>36.67</ele><time>2025-08-29T22:47:51Z</time></trkpt><trkpt lat="59.7737125307" lon="31.1016447376"><ele>36.19</ele><time>2025-08-29T22:48:00Z</time></trkpt><trkpt lat="59.7737354133" lon="31.1016365234"><ele>36.67</ele><time>2025-08-29T22:48:07Z</time></trkpt><trkpt lat="59.7737194877" lon="31.1015990563"><ele>36.67</ele><time>2025-08-29T22:48:14Z</time></trkpt><trkpt lat="59.7736755665" lon="31.1016594898"><ele>36.67</ele><time>2025-08-29T22:48:24Z</time></trkpt><trkpt lat="59.7736600600" lon="31.1017072666"><ele>36.67</ele><time>2025-08-29T22:48:30Z</time></trkpt><trkpt lat="59.7735942621" lon="31.1017261259"><ele>36.67</ele><time>2025-08-29T22:48:39Z</time></trkpt><trkpt lat="59.7735379357" lon="31.1017704662"><ele>36.67</ele><time>2025-08-29T22:48:47Z</time></trkpt><trkpt lat="59.7735791747" lon="31.1018521059"><ele>36.19</ele><time>2025-08-29T22:48:53Z</time></trkpt><trkpt lat="59.7735484969" lon="31.1019239388"><ele>36.67</ele><time>2025-08-29T22:49:02Z</time></trkpt><trkpt lat="59.7735328227" lon="31.1019262858"><ele>36.67</ele><time>2025-08-29T22:49:09Z</time></trkpt><trkpt lat="59.7735514306" lon="31.1019845400"><ele>36.67</ele><time>2025-08-29T22:49:17Z</time></trkpt><trkpt lat="59.7735458985" lon="31.1020648386"><ele>36.67</ele><time>2025-08-29T22:49:26Z</time></trkpt><trkpt lat="59.7735257819" lon="31.1021517590"><ele>36.67</ele><time>2025-08-29T22:49:33Z</time></trkpt><trkpt lat="59.7734982893" lon="31.1021964345"><ele>36.67</ele><time>2025-08-29T22:49:40Z</time></trkpt><trkpt lat="59.7734900750" lon="31.1023030523"><ele>36.67</ele><time>2025-08-29T22:49:47Z</time></trkpt><trkpt lat="59.7735331580" lon="31.1023474764"><ele>37.15</ele><time>2025-08-29T22:49:56Z</time></trkpt><trkpt lat="59.7735643387" lon="31.1024685111"><ele>36.67</ele><time>2025-08-29T22:50:06Z</time></trkpt><trkpt lat="59.7735818569" lon="31.1025423557"><ele>36.67</ele><time>2025-08-29T22:50:13Z</time></trkpt><trkpt lat="59.7735899035" lon="31.1025806610"><ele>36.67</ele><time>2025-08-29T22:50:22Z</time></trkpt><trkpt lat="59.7736101039" lon="31.1026056390"><ele>36.67</ele><time>2025-08-29T22:50:28Z</time></trkpt><trkpt lat="59.7736224253" lon="31.1026436090"><ele>36.67</ele><time>2025-08-29T22:50:37Z</time></trkpt><trkpt lat="59.7736241855" lon="31.1027163640"><ele>36.67</ele><time>2025-08-29T22:50:45Z</time></trkpt><trkpt lat="59.7736476548" lon="31.1027425155"><ele>37.15</ele><time>2025-08-29T22:50:56Z</time></trkpt><trkpt lat="59.7736587189" lon="31.1027368158"><ele>36.67</ele><time>2025-08-29T22:51:10Z</time></trkpt><trkpt lat="59.7736816853" lon="31.1027553398"><ele>36.67</ele><time>2025-08-29T22:51:18Z</time></trkpt><trkpt lat="59.7736511752" lon="31.1027664039"><ele>37.15</ele><time>2025-08-29T22:51:29Z</time></trkpt><trkpt lat="59.7736401949" lon="31.1027754564"><ele>37.15</ele><time>2025-08-29T22:51:38Z</time></trkpt><trkpt lat="59.7736646701" lon="31.1027680803"><ele>36.67</ele><time>2025-08-29T22:51:47Z</time></trkpt><trkpt lat="59.7736570425" lon="31.1027692538"><ele>36.67</ele><time>2025-08-29T22:51:55Z</time></trkpt><trkpt lat="59.7736688610" lon="31.1028212216"><ele>36.19</ele><time>2025-08-29T22:52:04Z</time></trkpt><trkpt lat="59.7736842837" lon="31.1028622929"><ele>36.67</ele><time>2025-08-29T22:52:18Z</time></trkpt><trkpt lat="59.7736753151" lon="31.1028767098"><ele>36.19</ele><time>2025-08-29T22:52:36Z</time></trkpt><trkpt lat="59.7736555338" lon="31.1029161885"><ele>36.67</ele><time>2025-08-29T22:52:42Z</time></trkpt><trkpt lat="59.7736272030" lon="31.1029186193"><ele>36.67</ele><time>2025-08-29T22:52:49Z</time></trkpt><trkpt lat="59.7736321483" lon="31.1029438488"><ele>36.19</ele><time>2025-08-29T22:52:57Z</time></trkpt><trkpt lat="59.7736287117" lon="31.1029564217"><ele>36.67</ele><time>2025-08-29T22:53:05Z</time></trkpt><trkpt lat="59.7736209165" lon="31.1030417494"><ele>36.67</ele><time>2025-08-29T22:53:14Z</time></trkpt><trkpt lat="59.7736264486" lon="31.1030897778"><ele>36.19</ele><time>2025-08-29T22:53:20Z</time></trkpt><trkpt lat="59.7736585513" lon="31.1031185277"><ele>36.19</ele><time>2025-08-29T22:53:28Z</time></trkpt><trkpt lat="59.7736618202" lon="31.1031636223"><ele>36.67</ele><time>2025-08-29T22:53:35Z</time></trkpt><trkpt lat="59.7736373451" lon="31.1032182723"><ele>36.19</ele><time>2025-08-29T22:53:42Z</time></trkpt><trkpt lat="59.7736541927" lon="31.1032567453"><ele>36.19</ele><time>2025-08-29T22:53:50Z</time></trkpt><trkpt lat="59.7736600600" lon="31.1032685637"><ele>36.67</ele><time>2025-08-29T22:54:02Z</time></trkpt><trkpt lat="59.7736593895" lon="31.1033046059"><ele>36.67</ele><time>2025-08-29T22:54:07Z</time></trkpt><trkpt lat="59.7736545280" lon="31.1033429950"><ele>36.67</ele><time>2025-08-29T22:54:16Z</time></trkpt><trkpt lat="59.7736527678" lon="31.1034183484"><ele>36.67</ele><time>2025-08-29T22:54:25Z</time></trkpt><trkpt lat="59.7736475710" lon="31.1034100503"><ele>36.67</ele><time>2025-08-29T22:54:32Z</time></trkpt><trkpt lat="59.7736391053" lon="31.1034061946"><ele>37.63</ele><time>2025-08-29T22:54:46Z</time></trkpt><trkpt lat="59.7736063320" lon="31.1033767741"><ele>37.15</ele><time>2025-08-29T22:55:00Z</time></trkpt><trkpt lat="59.7736180667" lon="31.1034159176"><ele>37.15</ele><time>2025-08-29T22:55:08Z</time></trkpt><trkpt lat="59.7736465652" lon="31.1034864094"><ele>37.15</ele><time>2025-08-29T22:55:17Z</time></trkpt><trkpt lat="59.7736456431" lon="31.1035449151"><ele>37.15</ele><time>2025-08-29T22:55:24Z</time></trkpt><trkpt lat="59.7736361716" lon="31.1036343500"><ele>37.15</ele><time>2025-08-29T22:55:31Z</time></trkpt><trkpt lat="59.7736328188" lon="31.1037427280"><ele>36.67</ele><time>2025-08-29T22:55:38Z</time></trkpt><trkpt lat="59.7736676876" lon="31.1037545465"><ele>36.67</ele><time>2025-08-29T22:55:45Z</time></trkpt><trkpt lat="59.7736941744" lon="31.1037777644"><ele>37.15</ele><time>2025-08-29T22:55:52Z</time></trkpt><trkpt lat="59.7736999579" lon="31.1038694624"><ele>37.15</ele><time>2025-08-29T22:56:01Z</time></trkpt><trkpt lat="59.7736655083" lon="31.1039319914"><ele>36.67</ele><time>2025-08-29T22:56:07Z</time></trkpt><trkpt lat="59.7736727167" lon="31.1040152237"><ele>36.67</ele><time>2025-08-29T22:56:14Z</time></trkpt><trkpt lat="59.7736686934" lon="31.1040574685"><ele>37.15</ele><time>2025-08-29T22:56:23Z</time></trkpt><trkpt lat="59.7736862116" lon="31.1040979531"><ele>36.67</ele><time>2025-08-29T22:56:32Z</time></trkpt><trkpt lat="59.7737042326" lon="31.1041986197"><ele>36.67</ele><time>2025-08-29T22:56:39Z</time></trkpt><trkpt lat="59.7737039812" lon="31.1043057404"><ele>36.67</ele><time>2025-08-29T22:56:48Z</time></trkpt><trkpt lat="59.7737309709" lon="31.1043121945"><ele>36.67</ele><time>2025-08-29T22:57:09Z</time></trkpt><trkpt lat="59.7737207450" lon="31.1043573730"><ele>37.15</ele><time>2025-08-29T22:57:17Z</time></trkpt><trkpt lat="59.7737316415" lon="31.1044065747"><ele>36.67</ele><time>2025-08-29T22:57:24Z</time></trkpt><trkpt lat="59.7737225052" lon="31.1044314690"><ele>36.67</ele><time>2025-08-29T22:57:32Z</time></trkpt><trkpt lat="59.7737137042" lon="31.1044563632"><ele>36.67</ele><time>2025-08-29T22:57:46Z</time></trkpt><trkpt lat="59.7737357486" lon="31.1045300402"><ele>36.67</ele><time>2025-08-29T22:57:55Z</time></trkpt><trkpt lat="59.7737129498" lon="31.1046117637"><ele>37.15</ele><time>2025-08-29T22:58:03Z</time></trkpt><trkpt lat="59.7737427056" lon="31.1046721973"><ele>37.15</ele><time>2025-08-29T22:58:11Z</time></trkpt><trkpt lat="59.7737655882" lon="31.1046778969"><ele>38.11</ele><time>2025-08-29T22:58:19Z</time></trkpt><trkpt lat="59.7737736348" lon="31.1047218181"><ele>36.67</ele><time>2025-08-29T22:58:27Z</time></trkpt><trkpt lat="59.7737809271" lon="31.1047887057"><ele>37.15</ele><time>2025-08-29T22:58:35Z</time></trkpt><trkpt lat="59.7737988643" lon="31.1048343033"><ele>36.67</ele><time>2025-08-29T22:58:42Z</time></trkpt><trkpt lat="59.7737863753" lon="31.1049520690"><ele>36.67</ele><time>2025-08-29T22:58:52Z</time></trkpt><trkpt lat="59.7737688571" lon="31.1050222255"><ele>36.67</ele><time>2025-08-29T22:59:02Z</time></trkpt><trkpt lat="59.7737602238" lon="31.1050716788"><ele>37.15</ele><time>2025-08-29T22:59:09Z</time></trkpt><trkpt lat="59.7737865429" lon="31.1051399913"><ele>37.15</ele><time>2025-08-29T22:59:18Z</time></trkpt><trkpt lat="59.7737784963" lon="31.1052186135"><ele>37.15</ele><time>2025-08-29T22:59:26Z</time></trkpt><trkpt lat="59.7737624869" lon="31.1052788794"><ele>37.63</ele><time>2025-08-29T22:59:33Z</time></trkpt><trkpt lat="59.7737619001" lon="31.1053201184"><ele>37.15</ele><time>2025-08-29T22:59:40Z</time></trkpt><trkpt lat="59.7737603076" lon="31.1054087151"><ele>37.63</ele><time>2025-08-29T22:59:50Z</time></trkpt><trkpt lat="59.7737588827" lon="31.1054269038"><ele>37.63</ele><time>2025-08-29T23:00:00Z</time></trkpt><trkpt lat="59.7737815138" lon="31.1054277420"><ele>37.15</ele><time>2025-08-29T23:00:17Z</time></trkpt><trkpt lat="59.7737730481" lon="31.1054650415"><ele>37.63</ele><time>2025-08-29T23:00:26Z</time></trkpt><trkpt lat="59.7737996187" lon="31.1054989044"><ele>37.15</ele><time>2025-08-29T23:00:35Z</time></trkpt><trkpt lat="59.7737932485" lon="31.1055385508"><ele>37.15</ele><time>2025-08-29T23:00:43Z</time></trkpt><trkpt lat="59.7737664264" lon="31.1055496149"><ele>38.11</ele><time>2025-08-29T23:00:51Z</time></trkpt><trkpt lat="59.7737334017" lon="31.1055488605"><ele>37.63</ele><time>2025-08-29T23:01:02Z</time></trkpt><trkpt lat="59.7737544402" lon="31.1055184342"><ele>37.63</ele><time>2025-08-29T23:01:20Z</time></trkpt><trkpt lat="59.7737449687" lon="31.1054949649"><ele>37.15</ele><time>2025-08-29T23:01:29Z</time></trkpt><trkpt lat="59.7737717908" lon="31.1054892652"><ele>37.15</ele><time>2025-08-29T23:01:41Z</time></trkpt><trkpt lat="59.7737223376" lon="31.1055392213"><ele>37.15</ele><time>2025-08-29T23:01:56Z</time></trkpt><trkpt lat="59.7737068310" lon="31.1055004969"><ele>37.15</ele><time>2025-08-29T23:02:10Z</time></trkpt><trkpt lat="59.7737403587" lon="31.1055203620"><ele>37.15</ele><time>2025-08-29T23:02:25Z</time></trkpt><trkpt lat="59.7737643309" lon="31.1055360362"><ele>37.15</ele><time>2025-08-29T23:02:34Z</time></trkpt><trkpt lat="59.7737941705" lon="31.1055973917"><ele>37.63</ele><time>2025-08-29T23:02:41Z</time></trkpt><trkpt lat="59.7738211602" lon="31.1056741700"><ele>37.63</ele><time>2025-08-29T23:02:51Z</time></trkpt><trkpt lat="59.7738524247" lon="31.1057197675"><ele>37.15</ele><time>2025-08-29T23:03:00Z</time></trkpt><trkpt lat="59.7738945019" lon="31.1056965496"><ele>37.15</ele><time>2025-08-29T23:03:14Z</time></trkpt><trkpt lat="59.7738473956" lon="31.1056858208"><ele>37.15</ele><time>2025-08-29T23:03:24Z</time></trkpt><trkpt lat="59.7738341521" lon="31.1056013312"><ele>36.67</ele><time>2025-08-29T23:03:35Z</time></trkpt><trkpt lat="59.7738406062" lon="31.1055564880"><ele>36.67</ele><time>2025-08-29T23:03:48Z</time></trkpt><trkpt lat="59.7738344874" lon="31.1055139918"><ele>37.15</ele><time>2025-08-29T23:04:05Z</time></trkpt><trkpt lat="59.7738399357" lon="31.1056341045"><ele>37.63</ele><time>2025-08-29T23:04:12Z</time></trkpt><trkpt lat="59.7738274466" lon="31.1057213601"><ele>37.15</ele><time>2025-08-29T23:04:19Z</time></trkpt><trkpt lat="59.7738123592" lon="31.1058398802"><ele>37.63</ele><time>2025-08-29T23:04:26Z</time></trkpt><trkpt lat="59.7737572063" lon="31.1058448255"><ele>37.63</ele><time>2025-08-29T23:04:33Z</time></trkpt><trkpt lat="59.7737346590" lon="31.1058488488"><ele>38.11</ele><time>2025-08-29T23:04:39Z</time></trkpt><trkpt lat="59.7737191524" lon="31.1058627628"><ele>37.63</ele><time>2025-08-29T23:04:49Z</time></trkpt><trkpt lat="59.7737000417" lon="31.1059343442"><ele>37.63</ele><time>2025-08-29T23:04:55Z</time></trkpt><trkpt lat="59.7736795899" lon="31.1059992202"><ele>37.63</ele><time>2025-08-29T23:05:04Z</time></trkpt><trkpt lat="59.7736733872" lon="31.1061013117"><ele>37.63</ele><time>2025-08-29T23:05:11Z</time></trkpt><trkpt lat="59.7736660112" lon="31.1062571313"><ele>38.11</ele><time>2025-08-29T23:05:20Z</time></trkpt><trkpt lat="59.7736884747" lon="31.1063408665"><ele>38.11</ele><time>2025-08-29T23:05:28Z</time></trkpt><trkpt lat="59.7737054899" lon="31.1063463986"><ele>38.11</ele><time>2025-08-29T23:05:36Z</time></trkpt><trkpt lat="59.7737074178" lon="31.1063572112"><ele>38.11</ele><time>2025-08-29T23:05:47Z</time></trkpt><trkpt lat="59.7737383470" lon="31.1063605640"><ele>38.11</ele><time>2025-08-29T23:06:02Z</time></trkpt><trkpt lat="59.7737749759" lon="31.1063611507"><ele>38.11</ele><time>2025-08-29T23:06:10Z</time></trkpt><trkpt lat="59.7737375926" lon="31.1064549442"><ele>38.11</ele><time>2025-08-29T23:06:18Z</time></trkpt><trkpt lat="59.7737424541" lon="31.1065586284"><ele>38.11</ele><time>2025-08-29T23:06:27Z</time></trkpt><trkpt lat="59.7737244330" lon="31.1065989453"><ele>38.11</ele><time>2025-08-29T23:06:39Z</time></trkpt><trkpt lat="59.7737032268" lon="31.1067262664"><ele>38.59</ele><time>2025-08-29T23:06:48Z</time></trkpt><trkpt lat="59.7736932524" lon="31.1068048049"><ele>38.11</ele><time>2025-08-29T23:06:56Z</time></trkpt><trkpt lat="59.7737086751" lon="31.1067940760"><ele>38.11</ele><time>2025-08-29T23:07:08Z</time></trkpt><trkpt lat="59.7736977786" lon="31.1068808287"><ele>38.11</ele><time>2025-08-29T23:07:16Z</time></trkpt><trkpt lat="59.7737412807" lon="31.1070473772"><ele>38.11</ele><time>2025-08-29T23:07:25Z</time></trkpt><trkpt lat="59.7737755626" lon="31.1071002670"><ele>38.59</ele><time>2025-08-29T23:07:35Z</time></trkpt><trkpt lat="59.7737963498" lon="31.1071489658"><ele>38.59</ele><time>2025-08-29T23:07:44Z</time></trkpt><trkpt lat="59.7738247644" lon="31.1071714293"><ele>38.59</ele><time>2025-08-29T23:07:52Z</time></trkpt><trkpt lat="59.7737998702" lon="31.1071860138"><ele>38.11</ele><time>2025-08-29T23:08:01Z</time></trkpt><trkpt lat="59.7738079168" lon="31.1072593555"><ele>38.11</ele><time>2025-08-29T23:08:09Z</time></trkpt><trkpt lat="59.7738048993" lon="31.1072700005"><ele>38.11</ele><time>2025-08-29T23:08:16Z</time></trkpt><trkpt lat="59.7738333978" lon="31.1073070485"><ele>37.63</ele><time>2025-08-29T23:08:25Z</time></trkpt><trkpt lat="59.7738761455" lon="31.1073834077"><ele>38.11</ele><time>2025-08-29T23:08:33Z</time></trkpt><trkpt lat="59.7738760617" lon="31.1074446794"><ele>38.11</ele><time>2025-08-29T23:08:42Z</time></trkpt><trkpt lat="59.7738603875" lon="31.1074512172"><ele>38.59</ele><time>2025-08-29T23:08:48Z</time></trkpt><trkpt lat="59.7738454677" lon="31.1075652950"><ele>38.11</ele><time>2025-08-29T23:08:56Z</time></trkpt><trkpt lat="59.7738279495" lon="31.1076190230"><ele>38.11</ele><time>2025-08-29T23:09:03Z</time></trkpt><trkpt lat="59.7738127783" lon="31.1076704040"><ele>38.11</ele><time>2025-08-29T23:09:10Z</time></trkpt><trkpt lat="59.7738325596" lon="31.1077363696"><ele>38.59</ele><time>2025-08-29T23:09:17Z</time></trkpt><trkpt lat="59.7738220822" lon="31.1078074481"><ele>38.59</ele><time>2025-08-29T23:09:24Z</time></trkpt><trkpt lat="59.7738138679" lon="31.1078636907"><ele>38.59</ele><time>2025-08-29T23:09:32Z</time></trkpt><trkpt lat="59.7738137841" lon="31.1079011578"><ele>38.59</ele><time>2025-08-29T23:09:41Z</time></trkpt><trkpt lat="59.7738082521" lon="31.1079652794"><ele>38.59</ele><time>2025-08-29T23:09:50Z</time></trkpt><trkpt lat="59.7738193162" lon="31.1080055125"><ele>38.11</ele><time>2025-08-29T23:10:00Z</time></trkpt><trkpt lat="59.7738192324" lon="31.1080456618"><ele>38.59</ele><time>2025-08-29T23:10:11Z</time></trkpt><trkpt lat="59.7737871297" lon="31.1079950351"><ele>38.59</ele><time>2025-08-29T23:10:21Z</time></trkpt><trkpt lat="59.7737986129" lon="31.1080970429"><ele>38.11</ele><time>2025-08-29T23:10:30Z</time></trkpt><trkpt lat="59.7737992834" lon="31.1081982125"><ele>38.59</ele><time>2025-08-29T23:10:36Z</time></trkpt><trkpt lat="59.7737801727" lon="31.1082506832"><ele>39.07</ele><time>2025-08-29T23:10:43Z</time></trkpt><trkpt lat="59.7737712041" lon="31.1083027348"><ele>38.59</ele><time>2025-08-29T23:10:50Z</time></trkpt><trkpt lat="59.7737935837" lon="31.1083170678"><ele>38.59</ele><time>2025-08-29T23:10:55Z</time></trkpt><trkpt lat="59.7738197353" lon="31.1083747353"><ele>39.07</ele><time>2025-08-29T23:11:03Z</time></trkpt><trkpt lat="59.7738025524" lon="31.1083832011"><ele>38.59</ele><time>2025-08-29T23:11:12Z</time></trkpt><trkpt lat="59.7737991996" lon="31.1084475741"><ele>39.07</ele><time>2025-08-29T23:11:26Z</time></trkpt><trkpt lat="59.7737865429" lon="31.1084891483"><ele>39.07</ele><time>2025-08-29T23:11:32Z</time></trkpt><trkpt lat="59.7737829387" lon="31.1085417029"><ele>38.59</ele><time>2025-08-29T23:11:38Z</time></trkpt><trkpt lat="59.7737845313" lon="31.1086255219"><ele>39.07</ele><time>2025-08-29T23:11:46Z</time></trkpt><trkpt lat="59.7737685218" lon="31.1086888053"><ele>38.59</ele><time>2025-08-29T23:11:53Z</time></trkpt><trkpt lat="59.7737491596" lon="31.1087794136"><ele>39.07</ele><time>2025-08-29T23:12:02Z</time></trkpt><trkpt lat="59.7737514228" lon="31.1088521685"><ele>39.55</ele><time>2025-08-29T23:12:13Z</time></trkpt><trkpt lat="59.7737281211" lon="31.1088836007"><ele>39.55</ele><time>2025-08-29T23:12:23Z</time></trkpt><trkpt lat="59.7736815177" lon="31.1089596245"><ele>39.07</ele><time>2025-08-29T23:12:31Z</time></trkpt><trkpt lat="59.7736813501" lon="31.1090353969"><ele>39.55</ele><time>2025-08-29T23:12:40Z</time></trkpt><trkpt lat="59.7736949287" lon="31.1090545915"><ele>40.03</ele><time>2025-08-29T23:12:49Z</time></trkpt><trkpt lat="59.7737376764" lon="31.1090041324"><ele>39.07</ele><time>2025-08-29T23:12:56Z</time></trkpt><trkpt lat="59.7737739701" lon="31.1090032104"><ele>39.55</ele><time>2025-08-29T23:13:04Z</time></trkpt><trkpt lat="59.7738017980" lon="31.1090571061"><ele>39.55</ele><time>2025-08-29T23:13:11Z</time></trkpt><trkpt lat="59.7738252673" lon="31.1091323756"><ele>40.03</ele><time>2025-08-29T23:13:18Z</time></trkpt><trkpt lat="59.7738348227" lon="31.1092100758"><ele>39.55</ele><time>2025-08-29T23:13:26Z</time></trkpt><trkpt lat="59.7738185618" lon="31.1092677433"><ele>40.03</ele><time>2025-08-29T23:13:37Z</time></trkpt><trkpt lat="59.7738406062" lon="31.1093152687"><ele>40.03</ele><time>2025-08-29T23:13:56Z</time></trkpt><trkpt lat="59.7738824319" lon="31.1093138438"><ele>40.03</ele><time>2025-08-29T23:14:04Z</time></trkpt><trkpt lat="59.7739489004" lon="31.1092881951"><ele>39.55</ele><time>2025-08-29T23:14:11Z</time></trkpt><trkpt lat="59.7739427816" lon="31.1093224771"><ele>40.03</ele><time>2025-08-29T23:14:19Z</time></trkpt><trkpt lat="59.7739370819" lon="31.1093612853"><ele>40.03</ele><time>2025-08-29T23:14:27Z</time></trkpt><trkpt lat="59.7739225812" lon="31.1093570944"><ele>40.03</ele><time>2025-08-29T23:14:34Z</time></trkpt><trkpt lat="59.7739271913" lon="31.1094276700"><ele>40.03</ele><time>2025-08-29T23:14:43Z</time></trkpt><trkpt lat="59.7739218269" lon="31.1095131654"><ele>40.51</ele><time>2025-08-29T23:14:53Z</time></trkpt><trkpt lat="59.7739233356" lon="31.1095459387"><ele>40.03</ele><time>2025-08-29T23:15:00Z</time></trkpt><trkpt lat="59.7738811746" lon="31.1095793825"><ele>40.03</ele><time>2025-08-29T23:15:07Z</time></trkpt><trkpt lat="59.7738603037" lon="31.1096282490"><ele>40.03</ele><time>2025-08-29T23:15:13Z</time></trkpt><trkpt lat="59.7738634888" lon="31.1096714158"><ele>39.55</ele><time>2025-08-29T23:15:22Z</time></trkpt><trkpt lat="59.7738695238" lon="31.1097690649"><ele>40.03</ele><time>2025-08-29T23:15:31Z</time></trkpt><trkpt lat="59.7738291230" lon="31.1098029278"><ele>40.03</ele><time>2025-08-29T23:15:37Z</time></trkpt><trkpt lat="59.7738131974" lon="31.1098606791"><ele>40.03</ele><time>2025-08-29T23:15:45Z</time></trkpt><trkpt lat="59.7738048155" lon="31.1098969728"><ele>39.55</ele><time>2025-08-29T23:15:53Z</time></trkpt><trkpt lat="59.7737902310" lon="31.1099374574"><ele>40.03</ele><time>2025-08-29T23:16:09Z</time></trkpt><trkpt lat="59.7737808432" lon="31.1099692248"><ele>40.03</ele><time>2025-08-29T23:16:15Z</time></trkpt><trkpt lat="59.7737746406" lon="31.1099686380"><ele>40.03</ele><time>2025-08-29T23:16:18Z</time></trkpt><trkpt lat="59.7737501655" lon="31.1099662911"><ele>40.03</ele><time>2025-08-29T23:16:24Z</time></trkpt><trkpt lat="59.7737756465" lon="31.1100662872"><ele>40.03</ele><time>2025-08-29T23:16:33Z</time></trkpt><trkpt lat="59.7737776581" lon="31.1101606674"><ele>40.03</ele><time>2025-08-29T23:16:40Z</time></trkpt><trkpt lat="59.7738049831" lon="31.1102316622"><ele>40.03</ele><time>2025-08-29T23:16:46Z</time></trkpt><trkpt lat="59.7738525923" lon="31.1102083605"><ele>40.03</ele><time>2025-08-29T23:16:53Z</time></trkpt><trkpt lat="59.7738916520" lon="31.1102168262"><ele>40.03</ele><time>2025-08-29T23:17:00Z</time></trkpt><trkpt lat="59.7738947533" lon="31.1102352664"><ele>40.03</ele><time>2025-08-29T23:17:07Z</time></trkpt><trkpt lat="59.7738742176" lon="31.1102128867"><ele>40.03</ele><time>2025-08-29T23:17:12Z</time></trkpt><trkpt lat="59.7738550231" lon="31.1102551315"><ele>39.55</ele><time>2025-08-29T23:17:20Z</time></trkpt><trkpt lat="59.7738467250" lon="31.1103479192"><ele>40.03</ele><time>2025-08-29T23:17:27Z</time></trkpt><trkpt lat="59.7738458030" lon="31.1104069278"><ele>40.03</ele><time>2025-08-29T23:17:33Z</time></trkpt><trkpt lat="59.7738786601" lon="31.1105045769"><ele>40.03</ele><time>2025-08-29T23:17:42Z</time></trkpt><trkpt lat="59.7738707811" lon="31.1105692014"><ele>40.03</ele><time>2025-08-29T23:17:49Z</time></trkpt><trkpt lat="59.7738551069" lon="31.1106384359"><ele>40.03</ele><time>2025-08-29T23:17:57Z</time></trkpt><trkpt lat="59.7738333140" lon="31.1106997076"><ele>40.03</ele><time>2025-08-29T23:18:06Z</time></trkpt><trkpt lat="59.7738605551" lon="31.1107646674"><ele>39.55</ele><time>2025-08-29T23:18:16Z</time></trkpt><trkpt lat="59.7738710325" lon="31.1109174695"><ele>40.03</ele><time>2025-08-29T23:18:25Z</time></trkpt><trkpt lat="59.7738555260" lon="31.1109663360"><ele>39.55</ele><time>2025-08-29T23:18:31Z</time></trkpt><trkpt lat="59.7738543525" lon="31.1110316310"><ele>40.03</ele><time>2025-08-29T23:18:40Z</time></trkpt><trkpt lat="59.7738367505" lon="31.1110685114"><ele>39.55</ele><time>2025-08-29T23:18:49Z</time></trkpt><trkpt lat="59.7738126107" lon="31.1111379135"><ele>39.55</ele><time>2025-08-29T23:18:56Z</time></trkpt><trkpt lat="59.7738063242" lon="31.1112071481"><ele>39.55</ele><time>2025-08-29T23:19:02Z</time></trkpt><trkpt lat="59.7738198191" lon="31.1112689227"><ele>39.55</ele><time>2025-08-29T23:19:09Z</time></trkpt><trkpt lat="59.7738030553" lon="31.1113184597"><ele>39.55</ele><time>2025-08-29T23:19:15Z</time></trkpt><trkpt lat="59.7737815138" lon="31.1113188788"><ele>39.55</ele><time>2025-08-29T23:19:24Z</time></trkpt><trkpt lat="59.7737520095" lon="31.1113741156"><ele>39.07</ele><time>2025-08-29T23:19:37Z</time></trkpt><trkpt lat="59.7737354133" lon="31.1114644725"><ele>39.55</ele><time>2025-08-29T23:19:44Z</time></trkpt><trkpt lat="59.7737167217" lon="31.1115026940"><ele>39.07</ele><time>2025-08-29T23:19:48Z</time></trkpt><trkpt lat="59.7737007122" lon="31.1116041988"><ele>39.07</ele><time>2025-08-29T23:19:56Z</time></trkpt><trkpt lat="59.7737303842" lon="31.1117026024"><ele>39.07</ele><time>2025-08-29T23:20:04Z</time></trkpt><trkpt lat="59.7737584636" lon="31.1117714178"><ele>39.07</ele><time>2025-08-29T23:20:11Z</time></trkpt><trkpt lat="59.7737963498" lon="31.1117462721"><ele>39.07</ele><time>2025-08-29T23:20:19Z</time></trkpt><trkpt lat="59.7738348227" lon="31.1117368843"><ele>39.07</ele><time>2025-08-29T23:20:26Z</time></trkpt><trkpt lat="59.7738926578" lon="31.1116875987"><ele>39.55</ele><time>2025-08-29T23:20:34Z</time></trkpt><trkpt lat="59.7739293706" lon="31.1117414106"><ele>39.07</ele><time>2025-08-29T23:20:42Z</time></trkpt><trkpt lat="59.7739640716" lon="31.1116695777"><ele>39.07</ele><time>2025-08-29T23:20:52Z</time></trkpt><trkpt lat="59.7739602160" lon="31.1116940528"><ele>39.55</ele><time>2025-08-29T23:21:06Z</time></trkpt><trkpt lat="59.7739705257" lon="31.1116802227"><ele>39.07</ele><time>2025-08-29T23:21:16Z</time></trkpt><trkpt lat="59.7740047239" lon="31.1117177736"><ele>39.55</ele><time>2025-08-29T23:21:23Z</time></trkpt><trkpt lat="59.7740145307" lon="31.1117573362"><ele>39.07</ele><time>2025-08-29T23:21:30Z</time></trkpt><trkpt lat="59.7740197275" lon="31.1118810531"><ele>39.07</ele><time>2025-08-29T23:21:40Z</time></trkpt><trkpt lat="59.7740262654" lon="31.1119880900"><ele>38.59</ele><time>2025-08-29T23:21:49Z</time></trkpt><trkpt lat="59.7739928216" lon="31.1120102182"><ele>38.59</ele><time>2025-08-29T23:21:57Z</time></trkpt><trkpt lat="59.7739497386" lon="31.1120009143"><ele>38.59</ele><time>2025-08-29T23:22:04Z</time></trkpt><trkpt lat="59.7739107627" lon="31.1119533051"><ele>38.59</ele><time>2025-08-29T23:22:12Z</time></trkpt><trkpt lat="59.7738717869" lon="31.1120109726"><ele>38.59</ele><time>2025-08-29T23:22:19Z</time></trkpt><trkpt lat="59.7738328949" lon="31.1120795365"><ele>38.11</ele><time>2025-08-29T23:22:27Z</time></trkpt><trkpt lat="59.7738192324" lon="31.1120994855"><ele>38.11</ele><time>2025-08-29T23:22:40Z</time></trkpt><trkpt lat="59.7738259379" lon="31.1121910997"><ele>38.11</ele><time>2025-08-29T23:22:49Z</time></trkpt><trkpt lat="59.7737997025" lon="31.1122511141"><ele>38.59</ele><time>2025-08-29T23:22:58Z</time></trkpt><trkpt lat="59.7737803403" lon="31.1123293173"><ele>38.59</ele><time>2025-08-29T23:23:04Z</time></trkpt><trkpt lat="59.7737406939" lon="31.1123166606"><ele>38.11</ele><time>2025-08-29T23:23:13Z</time></trkpt><trkpt lat="59.7737111896" lon="31.1123412196"><ele>38.11</ele><time>2025-08-29T23:23:24Z</time></trkpt><trkpt lat="59.7736665141" lon="31.1123842187"><ele>38.11</ele><time>2025-08-29T23:23:32Z</time></trkpt><trkpt lat="59.7736795060" lon="31.1124977097"><ele>37.63</ele><time>2025-08-29T23:23:40Z</time></trkpt><trkpt lat="59.7736687772" lon="31.1125996336"><ele>38.11</ele><time>2025-08-29T23:23:48Z</time></trkpt><trkpt lat="59.7736878879" lon="31.1125592329"><ele>38.11</ele><time>2025-08-29T23:23:55Z</time></trkpt><trkpt lat="59.7737503331" lon="31.1125348415"><ele>38.11</ele><time>2025-08-29T23:24:02Z</time></trkpt><trkpt lat="59.7738302127" lon="31.1125405412"><ele>38.11</ele><time>2025-08-29T23:24:10Z</time></trkpt><trkpt lat="59.7739034705" lon="31.1125493422"><ele>38.11</ele><time>2025-08-29T23:24:19Z</time></trkpt><trkpt lat="59.7738984413" lon="31.1125035770"><ele>38.11</ele><time>2025-08-29T23:24:29Z</time></trkpt><trkpt lat="59.7738826834" lon="31.1125010625"><ele>38.11</ele><time>2025-08-29T23:24:47Z</time></trkpt><trkpt lat="59.7738939151" lon="31.1125371885"><ele>37.63</ele><time>2025-08-29T23:25:00Z</time></trkpt><trkpt lat="59.7738999501" lon="31.1125501804"><ele>38.11</ele><time>2025-08-29T23:25:13Z</time></trkpt><trkpt lat="59.7739187256" lon="31.1125182454"><ele>37.63</ele><time>2025-08-29T23:25:24Z</time></trkpt><trkpt lat="59.7740242537" lon="31.1125468276"><ele>37.63</ele><time>2025-08-29T23:25:33Z</time></trkpt><trkpt lat="59.7740887105" lon="31.1125775892"><ele>37.63</ele><time>2025-08-29T23:25:43Z</time></trkpt><trkpt lat="59.7741046362" lon="31.1125925090"><ele>37.63</ele><time>2025-08-29T23:25:52Z</time></trkpt><trkpt lat="59.7741561010" lon="31.1126346700"><ele>37.63</ele><time>2025-08-29T23:26:00Z</time></trkpt><trkpt lat="59.7741794866" lon="31.1126371007"><ele>37.15</ele><time>2025-08-29T23:26:06Z</time></trkpt><trkpt lat="59.7742141038" lon="31.1127196625"><ele>37.63</ele><time>2025-08-29T23:26:14Z</time></trkpt><trkpt lat="59.7742426023" lon="31.1128261965"><ele>37.15</ele><time>2025-08-29T23:26:33Z</time></trkpt><trkpt lat="59.7742420994" lon="31.1128703691"><ele>37.15</ele><time>2025-08-29T23:26:47Z</time></trkpt><trkpt lat="59.7742248327" lon="31.1128115281"><ele>37.15</ele><time>2025-08-29T23:26:57Z</time></trkpt><trkpt lat="59.7742392495" lon="31.1127534416"><ele>37.15</ele><time>2025-08-29T23:27:04Z</time></trkpt><trkpt lat="59.7742650658" lon="31.1127560399"><ele>37.15</ele><time>2025-08-29T23:27:15Z</time></trkpt><trkpt lat="59.7742439434" lon="31.1127723847"><ele>37.15</ele><time>2025-08-29T23:27:27Z</time></trkpt><trkpt lat="59.7742260061" lon="31.1127690319"><ele>37.15</ele><time>2025-08-29T23:27:41Z</time></trkpt><trkpt lat="59.7742199712" lon="31.1127712112"><ele>37.15</ele><time>2025-08-29T23:27:54Z</time></trkpt><trkpt lat="59.7742206417" lon="31.1127825268"><ele>37.15</ele><time>2025-08-29T23:28:10Z</time></trkpt><trkpt lat="59.7742212284" lon="31.1127872206"><ele>37.15</ele><time>2025-08-29T23:28:23Z</time></trkpt><trkpt lat="59.7742708493" lon="31.1127690319"><ele>37.15</ele><time>2025-08-29T23:28:40Z</time></trkpt><trkpt lat="59.7742514033" lon="31.1127943452"><ele>37.15</ele><time>2025-08-29T23:28:52Z</time></trkpt><trkpt lat="59.7742526606" lon="31.1127801798"><ele>36.67</ele><time>2025-08-29T23:29:02Z</time></trkpt><trkpt lat="59.7742820811" lon="31.1126842909"><ele>36.67</ele><time>2025-08-29T23:29:13Z</time></trkpt><trkpt lat="59.7742840927" lon="31.1126503441"><ele>37.15</ele><time>2025-08-29T23:29:24Z</time></trkpt><trkpt lat="59.7742937319" lon="31.1126384418"><ele>37.15</ele><time>2025-08-29T23:29:37Z</time></trkpt><trkpt lat="59.7743026167" lon="31.1126362626"><ele>37.15</ele><time>2025-08-29T23:29:52Z</time></trkpt><trkpt lat="59.7743157763" lon="31.1125926767"><ele>37.15</ele><time>2025-08-29T23:30:00Z</time></trkpt><trkpt lat="59.7743339650" lon="31.1125307344"><ele>37.15</ele><time>2025-08-29T23:30:08Z</time></trkpt><trkpt lat="59.7743683308" lon="31.1124861427"><ele>36.19</ele><time>2025-08-29T23:30:16Z</time></trkpt><trkpt lat="59.7743605357" lon="31.1124128848"><ele>37.15</ele><time>2025-08-29T23:30:25Z</time></trkpt><trkpt lat="59.7743415926" lon="31.1123190913"><ele>37.15</ele><time>2025-08-29T23:30:32Z</time></trkpt><trkpt lat="59.7742969170" lon="31.1121874116"><ele>36.67</ele><time>2025-08-29T23:30:41Z</time></trkpt><trkpt lat="59.7742856853" lon="31.1120971385"><ele>36.67</ele><time>2025-08-29T23:30:48Z</time></trkpt><trkpt lat="59.7742887866" lon="31.1120294128"><ele>36.67</ele><time>2025-08-29T23:30:56Z</time></trkpt><trkpt lat="59.7742794827" lon="31.1119648721"><ele>36.67</ele><time>2025-08-29T23:31:04Z</time></trkpt><trkpt lat="59.7742934804" lon="31.1119310092"><ele>36.67</ele><time>2025-08-29T23:31:11Z</time></trkpt><trkpt lat="59.7743105795" lon="31.1118372157"><ele>36.67</ele><time>2025-08-29T23:31:19Z</time></trkpt><trkpt lat="59.7743390780" lon="31.1117767822"><ele>36.67</ele><time>2025-08-29T23:31:28Z</time></trkpt><trkpt lat="59.7743205540" lon="31.1117138341"><ele>36.67</ele><time>2025-08-29T23:31:35Z</time></trkpt><trkpt lat="59.7743264213" lon="31.1116146762"><ele>36.67</ele><time>2025-08-29T23:31:43Z</time></trkpt><trkpt lat="59.7743148543" lon="31.1115321983"><ele>36.67</ele><time>2025-08-29T23:31:50Z</time></trkpt><trkpt lat="59.7742701788" lon="31.1114565935"><ele>36.19</ele><time>2025-08-29T23:31:58Z</time></trkpt><trkpt lat="59.7742275987" lon="31.1113895383"><ele>36.67</ele><time>2025-08-29T23:32:05Z</time></trkpt><trkpt lat="59.7742047999" lon="31.1112399213"><ele>36.67</ele><time>2025-08-29T23:32:13Z</time></trkpt><trkpt lat="59.7742068954" lon="31.1111677531"><ele>36.19</ele><time>2025-08-29T23:32:20Z</time></trkpt><trkpt lat="59.7742359806" lon="31.1111397576"><ele>36.19</ele><time>2025-08-29T23:32:28Z</time></trkpt><trkpt lat="59.7742441949" lon="31.1110779829"><ele>36.67</ele><time>2025-08-29T23:32:36Z</time></trkpt><trkpt lat="59.7742659040" lon="31.1110556033"><ele>36.67</ele><time>2025-08-29T23:32:49Z</time></trkpt><trkpt lat="59.7742738668" lon="31.1110383365"><ele>36.67</ele><time>2025-08-29T23:32:59Z</time></trkpt><trkpt lat="59.7743086517" lon="31.1110067368"><ele>36.19</ele><time>2025-08-29T23:33:08Z</time></trkpt><trkpt lat="59.7743757069" lon="31.1110146996"><ele>36.19</ele><time>2025-08-29T23:33:16Z</time></trkpt><trkpt lat="59.7744005173" lon="31.1109412741"><ele>36.19</ele><time>2025-08-29T23:33:23Z</time></trkpt><trkpt lat="59.7744234838" lon="31.1108329799"><ele>35.71</ele><time>2025-08-29T23:33:32Z</time></trkpt><trkpt lat="59.7744037863" lon="31.1107563693"><ele>35.71</ele><time>2025-08-29T23:33:40Z</time></trkpt><trkpt lat="59.7743495554" lon="31.1106759869"><ele>36.19</ele><time>2025-08-29T23:33:48Z</time></trkpt><trkpt lat="59.7742968332" lon="31.1106427945"><ele>36.19</ele><time>2025-08-29T23:33:57Z</time></trkpt><trkpt lat="59.7742566001" lon="31.1106403638"><ele>36.67</ele><time>2025-08-29T23:34:03Z</time></trkpt><trkpt lat="59.7742401715" lon="31.1106427107"><ele>36.19</ele><time>2025-08-29T23:34:09Z</time></trkpt><trkpt lat="59.7741891257" lon="31.1105381884"><ele>36.67</ele><time>2025-08-29T23:34:19Z</time></trkpt><trkpt lat="59.7742082365" lon="31.1105430499"><ele>36.19</ele><time>2025-08-29T23:34:27Z</time></trkpt><trkpt lat="59.7742348909" lon="31.1105371825"><ele>36.67</ele><time>2025-08-29T23:34:35Z</time></trkpt><trkpt lat="59.7742130142" lon="31.1104842927"><ele>35.71</ele><time>2025-08-29T23:34:48Z</time></trkpt><trkpt lat="59.7742144391" lon="31.1104560457"><ele>36.19</ele><time>2025-08-29T23:34:59Z</time></trkpt><trkpt lat="59.7742046323" lon="31.1104832869"><ele>36.19</ele><time>2025-08-29T23:35:12Z</time></trkpt><trkpt lat="59.7741994355" lon="31.1104561295"><ele>36.67</ele><time>2025-08-29T23:35:26Z</time></trkpt><trkpt lat="59.7741994355" lon="31.1104095262"><ele>36.19</ele><time>2025-08-29T23:35:38Z</time></trkpt><trkpt lat="59.7742103320" lon="31.1103754118"><ele>36.19</ele><time>2025-08-29T23:35:45Z</time></trkpt><trkpt lat="59.7741783969" lon="31.1103512719"><ele>36.67</ele><time>2025-08-29T23:35:51Z</time></trkpt><trkpt lat="59.7741664108" lon="31.1103077698"><ele>37.15</ele><time>2025-08-29T23:35:59Z</time></trkpt><trkpt lat="59.7741554305" lon="31.1102904193"><ele>37.15</ele><time>2025-08-29T23:36:13Z</time></trkpt><trkpt lat="59.7741266806" lon="31.1102365237"><ele>36.67</ele><time>2025-08-29T23:36:20Z</time></trkpt><trkpt lat="59.7741003614" lon="31.1101771798"><ele>36.67</ele><time>2025-08-29T23:36:29Z</time></trkpt><trkpt lat="59.7740976792" lon="31.1101265531"><ele>37.15</ele><time>2025-08-29T23:36:35Z</time></trkpt><trkpt lat="59.7741375770" lon="31.1100990605"><ele>36.67</ele><time>2025-08-29T23:36:44Z</time></trkpt><trkpt lat="59.7741864435" lon="31.1100776866"><ele>36.67</ele><time>2025-08-29T23:36:53Z</time></trkpt><trkpt lat="59.7741875332" lon="31.1100774352"><ele>37.15</ele><time>2025-08-29T23:37:01Z</time></trkpt><trkpt lat="59.7741918918" lon="31.1101501063"><ele>37.15</ele><time>2025-08-29T23:37:10Z</time></trkpt><trkpt lat="59.7742142715" lon="31.1101477593"><ele>37.15</ele><time>2025-08-29T23:37:16Z</time></trkpt><trkpt lat="59.7742405906" lon="31.1100286525"><ele>37.15</ele><time>2025-08-29T23:37:24Z</time></trkpt><trkpt lat="59.7742758784" lon="31.1100222822"><ele>37.15</ele><time>2025-08-29T23:37:31Z</time></trkpt><trkpt lat="59.7742942348" lon="31.1099716555"><ele>37.15</ele><time>2025-08-29T23:37:44Z</time></trkpt><trkpt lat="59.7743091546" lon="31.1099113896"><ele>37.63</ele><time>2025-08-29T23:37:58Z</time></trkpt><trkpt lat="59.7742882837" lon="31.1098599248"><ele>37.15</ele><time>2025-08-29T23:38:06Z</time></trkpt><trkpt lat="59.7742597014" lon="31.1098363716"><ele>37.15</ele><time>2025-08-29T23:38:12Z</time></trkpt><trkpt lat="59.7742649820" lon="31.1097885948"><ele>37.63</ele><time>2025-08-29T23:38:19Z</time></trkpt><trkpt lat="59.7742425185" lon="31.1097455956"><ele>37.63</ele><time>2025-08-29T23:38:27Z</time></trkpt><trkpt lat="59.7742180433" lon="31.1097040214"><ele>37.63</ele><time>2025-08-29T23:38:35Z</time></trkpt><trkpt lat="59.7741876170" lon="31.1096036900"><ele>37.63</ele><time>2025-08-29T23:38:44Z</time></trkpt><trkpt lat="59.7741844319" lon="31.1095938832"><ele>37.63</ele><time>2025-08-29T23:38:56Z</time></trkpt><trkpt lat="59.7742072307" lon="31.1095250677"><ele>37.63</ele><time>2025-08-29T23:39:04Z</time></trkpt><trkpt lat="59.7741783131" lon="31.1095565837"><ele>37.15</ele><time>2025-08-29T23:39:10Z</time></trkpt><trkpt lat="59.7741953284" lon="31.1095439270"><ele>38.11</ele><time>2025-08-29T23:39:18Z</time></trkpt><trkpt lat="59.7742426023" lon="31.1095229723"><ele>37.15</ele><time>2025-08-29T23:39:26Z</time></trkpt><trkpt lat="59.7742327955" lon="31.1094095651"><ele>37.63</ele><time>2025-08-29T23:39:34Z</time></trkpt><trkpt lat="59.7741962504" lon="31.1093417555"><ele>37.15</ele><time>2025-08-29T23:39:43Z</time></trkpt><trkpt lat="59.7741915565" lon="31.1092621274"><ele>38.11</ele><time>2025-08-29T23:39:50Z</time></trkpt><trkpt lat="59.7741877008" lon="31.1091975030"><ele>37.15</ele><time>2025-08-29T23:39:57Z</time></trkpt><trkpt lat="59.7742081527" lon="31.1091685016"><ele>37.63</ele><time>2025-08-29T23:40:03Z</time></trkpt><trkpt lat="59.7742312029" lon="31.1091232393"><ele>38.11</ele><time>2025-08-29T23:40:10Z</time></trkpt><trkpt lat="59.7742525768" lon="31.1090413481"><ele>37.63</ele><time>2025-08-29T23:40:18Z</time></trkpt><trkpt lat="59.7742348071" lon="31.1089983489"><ele>37.63</ele><time>2025-08-29T23:40:24Z</time></trkpt><trkpt lat="59.7742240783" lon="31.1089624744"><ele>37.63</ele><time>2025-08-29T23:40:31Z</time></trkpt><trkpt lat="59.7741973400" lon="31.1088851932"><ele>37.63</ele><time>2025-08-29T23:40:46Z</time></trkpt><trkpt lat="59.7741844319" lon="31.1088856962"><ele>37.15</ele><time>2025-08-29T23:40:54Z</time></trkpt><trkpt lat="59.7742001899" lon="31.1088488996"><ele>37.15</ele><time>2025-08-29T23:41:03Z</time></trkpt><trkpt lat="59.7741998546" lon="31.1087407731"><ele>37.63</ele><time>2025-08-29T23:41:11Z</time></trkpt><trkpt lat="59.7742196359" lon="31.1086722929"><ele>36.67</ele><time>2025-08-29T23:41:18Z</time></trkpt><trkpt lat="59.7742281016" lon="31.1086492427"><ele>37.15</ele><time>2025-08-29T23:41:25Z</time></trkpt><trkpt lat="59.7742587794" lon="31.1086197384"><ele>36.67</ele><time>2025-08-29T23:41:32Z</time></trkpt><trkpt lat="59.7742714360" lon="31.1085215025"><ele>36.67</ele><time>2025-08-29T23:41:40Z</time></trkpt><trkpt lat="59.7742922232" lon="31.1084396951"><ele>37.15</ele><time>2025-08-29T23:41:48Z</time></trkpt><trkpt lat="59.7742664907" lon="31.1083706282"><ele>36.67</ele><time>2025-08-29T23:41:55Z</time></trkpt><trkpt lat="59.7742513195" lon="31.1082939338"><ele>36.67</ele><time>2025-08-29T23:42:03Z</time></trkpt><trkpt lat="59.7742350586" lon="31.1082453188"><ele>36.19</ele><time>2025-08-29T23:42:13Z</time></trkpt><trkpt lat="59.7742143553" lon="31.1082008947"><ele>36.19</ele><time>2025-08-29T23:42:28Z</time></trkpt><trkpt lat="59.7742036264" lon="31.1081801075"><ele>36.19</ele><time>2025-08-29T23:42:37Z</time></trkpt><trkpt lat="59.7742209770" lon="31.1080662813"><ele>36.19</ele><time>2025-08-29T23:42:47Z</time></trkpt><trkpt lat="59.7742141038" lon="31.1080309935"><ele>36.67</ele><time>2025-08-29T23:42:55Z</time></trkpt><trkpt lat="59.7741931491" lon="31.1080142297"><ele>36.19</ele><time>2025-08-29T23:43:03Z</time></trkpt><trkpt lat="59.7742027044" lon="31.1079783551"><ele>36.19</ele><time>2025-08-29T23:43:09Z</time></trkpt><trkpt lat="59.7742022853" lon="31.1079406366"><ele>36.19</ele><time>2025-08-29T23:43:17Z</time></trkpt><trkpt lat="59.7741858568" lon="31.1079508625"><ele>35.71</ele><time>2025-08-29T23:43:23Z</time></trkpt><trkpt lat="59.7741659917" lon="31.1079178378"><ele>35.71</ele><time>2025-08-29T23:43:32Z</time></trkpt><trkpt lat="59.7741878685" lon="31.1078713182"><ele>35.71</ele><time>2025-08-29T23:43:39Z</time></trkpt><trkpt lat="59.7741566040" lon="31.1077564862"><ele>35.71</ele><time>2025-08-29T23:43:47Z</time></trkpt><trkpt lat="59.7741663270" lon="31.1077110562"><ele>35.71</ele><time>2025-08-29T23:43:56Z</time></trkpt><trkpt lat="59.7741748765" lon="31.1076758523"><ele>35.71</ele><time>2025-08-29T23:44:05Z</time></trkpt><trkpt lat="59.7741690930" lon="31.1075611878"><ele>35.23</ele><time>2025-08-29T23:44:14Z</time></trkpt><trkpt lat="59.7742224019" lon="31.1075125728"><ele>35.23</ele><time>2025-08-29T23:44:22Z</time></trkpt><trkpt lat="59.7742391657" lon="31.1074484512"><ele>35.23</ele><time>2025-08-29T23:44:31Z</time></trkpt><trkpt lat="59.7742199712" lon="31.1074176896"><ele>35.23</ele><time>2025-08-29T23:44:41Z</time></trkpt><trkpt lat="59.7741743736" lon="31.1073347088"><ele>35.23</ele><time>2025-08-29T23:44:49Z</time></trkpt><trkpt lat="59.7741472162" lon="31.1072869319"><ele>35.71</ele><time>2025-08-29T23:45:01Z</time></trkpt><trkpt lat="59.7741540894" lon="31.1072413344"><ele>35.71</ele><time>2025-08-29T23:45:14Z</time></trkpt><trkpt lat="59.7741860244" lon="31.1072602775"><ele>35.23</ele><time>2025-08-29T23:45:24Z</time></trkpt><trkpt lat="59.7742385790" lon="31.1072265822"><ele>36.19</ele><time>2025-08-29T23:45:33Z</time></trkpt><trkpt lat="59.7743058018" lon="31.1071373988"><ele>35.71</ele><time>2025-08-29T23:45:41Z</time></trkpt><trkpt lat="59.7742942348" lon="31.1071047932"><ele>35.71</ele><time>2025-08-29T23:45:49Z</time></trkpt><trkpt lat="59.7742550913" lon="31.1070799828"><ele>35.23</ele><time>2025-08-29T23:46:01Z</time></trkpt><trkpt lat="59.7742250003" lon="31.1069900449"><ele>35.71</ele><time>2025-08-29T23:46:09Z</time></trkpt><trkpt lat="59.7741485573" lon="31.1070003547"><ele>35.71</ele><time>2025-08-29T23:46:18Z</time></trkpt><trkpt lat="59.7741038818" lon="31.1070135143"><ele>35.71</ele><time>2025-08-29T23:46:26Z</time></trkpt><trkpt lat="59.7740934882" lon="31.1070073117"><ele>35.71</ele><time>2025-08-29T23:46:34Z</time></trkpt><trkpt lat="59.7740537580" lon="31.1069436930"><ele>35.71</ele><time>2025-08-29T23:46:49Z</time></trkpt><trkpt lat="59.7740262654" lon="31.1069757957"><ele>35.71</ele><time>2025-08-29T23:46:59Z</time></trkpt><trkpt lat="59.7740187217" lon="31.1069542542"><ele>35.71</ele><time>2025-08-29T23:47:09Z</time></trkpt><trkpt lat="59.7740302887" lon="31.1067968421"><ele>35.71</ele><time>2025-08-29T23:47:18Z</time></trkpt><trkpt lat="59.7740090825" lon="31.1066981032"><ele>35.71</ele><time>2025-08-29T23:47:28Z</time></trkpt><trkpt lat="59.7740265168" lon="31.1066305451"><ele>35.71</ele><time>2025-08-29T23:47:37Z</time></trkpt><trkpt lat="59.7740348987" lon="31.1065745540"><ele>35.71</ele><time>2025-08-29T23:47:46Z</time></trkpt><trkpt lat="59.7740342282" lon="31.1065128632"><ele>35.71</ele><time>2025-08-29T23:47:55Z</time></trkpt><trkpt lat="59.7740224097" lon="31.1064210813"><ele>35.71</ele><time>2025-08-29T23:48:05Z</time></trkpt><trkpt lat="59.7740338929" lon="31.1063964386"><ele>35.71</ele><time>2025-08-29T23:48:16Z</time></trkpt><trkpt lat="59.7740802448" lon="31.1062310636"><ele>36.19</ele><time>2025-08-29T23:48:27Z</time></trkpt><trkpt lat="59.7741270997" lon="31.1062172335"><ele>35.71</ele><time>2025-08-29T23:48:36Z</time></trkpt><trkpt lat="59.7741279379" lon="31.1060671136"><ele>35.71</ele><time>2025-08-29T23:48:47Z</time></trkpt><trkpt lat="59.7741157003" lon="31.1060101166"><ele>35.71</ele><time>2025-08-29T23:48:54Z</time></trkpt><trkpt lat="59.7740935721" lon="31.1059164070"><ele>35.71</ele><time>2025-08-29T23:49:01Z</time></trkpt><trkpt lat="59.7740492318" lon="31.1058615893"><ele>35.71</ele><time>2025-08-29T23:49:11Z</time></trkpt><trkpt lat="59.7740562726" lon="31.1057990603"><ele>35.71</ele><time>2025-08-29T23:49:24Z</time></trkpt><trkpt lat="59.7740209009" lon="31.1057698913"><ele>35.23</ele><time>2025-08-29T23:49:32Z</time></trkpt><trkpt lat="59.7739894688" lon="31.1056592502"><ele>35.71</ele><time>2025-08-29T23:49:41Z</time></trkpt><trkpt lat="59.7739654966" lon="31.1056178436"><ele>34.74</ele><time>2025-08-29T23:49:49Z</time></trkpt><trkpt lat="59.7739711963" lon="31.1055836454"><ele>35.71</ele><time>2025-08-29T23:49:58Z</time></trkpt><trkpt lat="59.7740030475" lon="31.1055022571"><ele>35.23</ele><time>2025-08-29T23:50:10Z</time></trkpt><trkpt lat="59.7740068194" lon="31.1054402310"><ele>35.23</ele><time>2025-08-29T23:50:17Z</time></trkpt><trkpt lat="59.7740334738" lon="31.1053585075"><ele>35.23</ele><time>2025-08-29T23:50:27Z</time></trkpt><trkpt lat="59.7740391735" lon="31.1053280812"><ele>35.23</ele><time>2025-08-29T23:50:37Z</time></trkpt><trkpt lat="59.7740641516" lon="31.1053929571"><ele>35.71</ele><time>2025-08-29T23:50:45Z</time></trkpt><trkpt lat="59.7740918957" lon="31.1054410692"><ele>35.71</ele><time>2025-08-29T23:50:54Z</time></trkpt><trkpt lat="59.7741114255" lon="31.1054989882"><ele>34.74</ele><time>2025-08-29T23:51:00Z</time></trkpt><trkpt lat="59.7741588671" lon="31.1056112219"><ele>34.74</ele><time>2025-08-29T23:51:08Z</time></trkpt><trkpt lat="59.7742094100" lon="31.1056885868"><ele>35.23</ele><time>2025-08-29T23:51:15Z</time></trkpt><trkpt lat="59.7742338013" lon="31.1056437436"><ele>34.74</ele><time>2025-08-29T23:51:26Z</time></trkpt><trkpt lat="59.7742483858" lon="31.1055972241"><ele>35.23</ele><time>2025-08-29T23:51:35Z</time></trkpt><trkpt lat="59.7742400877" lon="31.1055059452"><ele>34.74</ele><time>2025-08-29T23:51:43Z</time></trkpt><trkpt lat="59.7742168698" lon="31.1054668855"><ele>34.74</ele><time>2025-08-29T23:51:50Z</time></trkpt><trkpt lat="59.7742178757" lon="31.1054124031"><ele>34.74</ele><time>2025-08-29T23:51:58Z</time></trkpt><trkpt lat="59.7742322925" lon="31.1053575017"><ele>34.74</ele><time>2025-08-29T23:52:08Z</time></trkpt><trkpt lat="59.7742509842" lon="31.1052735150"><ele>34.26</ele><time>2025-08-29T23:52:20Z</time></trkpt><trkpt lat="59.7742335498" lon="31.1052055378"><ele>34.74</ele><time>2025-08-29T23:52:29Z</time></trkpt><trkpt lat="59.7742275149" lon="31.1051102355"><ele>34.74</ele><time>2025-08-29T23:52:37Z</time></trkpt><trkpt lat="59.7741971724" lon="31.1050113291"><ele>34.74</ele><time>2025-08-29T23:52:44Z</time></trkpt><trkpt lat="59.7741588671" lon="31.1049868539"><ele>34.74</ele><time>2025-08-29T23:52:51Z</time></trkpt><trkpt lat="59.7741619684" lon="31.1048866902"><ele>34.26</ele><time>2025-08-29T23:53:01Z</time></trkpt><trkpt lat="59.7741448693" lon="31.1048744526"><ele>34.74</ele><time>2025-08-29T23:53:14Z</time></trkpt><trkpt lat="59.7741675004" lon="31.1048593652"><ele>34.26</ele><time>2025-08-29T23:53:27Z</time></trkpt><trkpt lat="59.7741731163" lon="31.1047883704"><ele>34.74</ele><time>2025-08-29T23:53:35Z</time></trkpt><trkpt lat="59.7741640639" lon="31.1047028750"><ele>34.26</ele><time>2025-08-29T23:53:42Z</time></trkpt><trkpt lat="59.7741727810" lon="31.1046219058"><ele>34.26</ele><time>2025-08-29T23:53:49Z</time></trkpt><trkpt lat="59.7741925623" lon="31.1046123505"><ele>33.78</ele><time>2025-08-29T23:54:00Z</time></trkpt><trkpt lat="59.7741645668" lon="31.1045602988"><ele>34.26</ele><time>2025-08-29T23:54:08Z</time></trkpt><trkpt lat="59.7741866950" lon="31.1044846103"><ele>34.26</ele><time>2025-08-29T23:54:17Z</time></trkpt><trkpt lat="59.7742027044" lon="31.1044206563"><ele>34.26</ele><time>2025-08-29T23:54:27Z</time></trkpt><trkpt lat="59.7742088232" lon="31.1043323111"><ele>33.78</ele><time>2025-08-29T23:54:36Z</time></trkpt><trkpt lat="59.7741882876" lon="31.1043013819"><ele>33.78</ele><time>2025-08-29T23:54:45Z</time></trkpt><trkpt lat="59.7742003575" lon="31.1043698620"><ele>33.30</ele><time>2025-08-29T23:54:54Z</time></trkpt><trkpt lat="59.7742346395" lon="31.1044041440"><ele>33.78</ele><time>2025-08-29T23:55:04Z</time></trkpt><trkpt lat="59.7742605396" lon="31.1043454707"><ele>34.26</ele><time>2025-08-29T23:55:14Z</time></trkpt><trkpt lat="59.7742785607" lon="31.1043152120"><ele>33.78</ele><time>2025-08-29T23:55:24Z</time></trkpt><trkpt lat="59.7742880322" lon="31.1042940058"><ele>33.78</ele><time>2025-08-29T23:55:32Z</time></trkpt><trkpt lat="59.7742913011" lon="31.1041464005"><ele>34.26</ele><time>2025-08-29T23:55:42Z</time></trkpt><trkpt lat="59.7742943186" lon="31.1040701251"><ele>33.78</ele><time>2025-08-29T23:55:49Z</time></trkpt><trkpt lat="59.7742757108" lon="31.1040318199"><ele>33.78</ele><time>2025-08-29T23:55:56Z</time></trkpt><trkpt lat="59.7742482182" lon="31.1039830372"><ele>34.26</ele><time>2025-08-29T23:56:05Z</time></trkpt><trkpt lat="59.7742344718" lon="31.1039682850"><ele>33.78</ele><time>2025-08-29T23:56:12Z</time></trkpt><trkpt lat="59.7742055543" lon="31.1039285548"><ele>34.26</ele><time>2025-08-29T23:56:29Z</time></trkpt><trkpt lat="59.7741743736" lon="31.1038770899"><ele>33.78</ele><time>2025-08-29T23:56:38Z</time></trkpt><trkpt lat="59.7741731163" lon="31.1038077716"><ele>33.78</ele><time>2025-08-29T23:56:46Z</time></trkpt><trkpt lat="59.7741571907" lon="31.1037803628"><ele>34.26</ele><time>2025-08-29T23:56:53Z</time></trkpt><trkpt lat="59.7741475515" lon="31.1037506070"><ele>33.78</ele><time>2025-08-29T23:57:01Z</time></trkpt><trkpt lat="59.7741543408" lon="31.1037167441"><ele>34.26</ele><time>2025-08-29T23:57:08Z</time></trkpt><trkpt lat="59.7741390020" lon="31.1036963761"><ele>34.26</ele><time>2025-08-29T23:57:17Z</time></trkpt><trkpt lat="59.7741236631" lon="31.1036418099"><ele>33.78</ele><time>2025-08-29T23:57:24Z</time></trkpt><trkpt lat="59.7741182148" lon="31.1035820469"><ele>34.26</ele><time>2025-08-29T23:57:33Z</time></trkpt><trkpt lat="59.7741138563" lon="31.1035388801"><ele>33.78</ele><time>2025-08-29T23:57:42Z</time></trkpt><trkpt lat="59.7741216514" lon="31.1035031732"><ele>35.23</ele><time>2025-08-29T23:58:00Z</time></trkpt><trkpt lat="59.7741101682" lon="31.1034474336"><ele>34.74</ele><time>2025-08-29T23:58:11Z</time></trkpt><trkpt lat="59.7741060611" lon="31.1034031771"><ele>34.74</ele><time>2025-08-29T23:58:19Z</time></trkpt><trkpt lat="59.7740755510" lon="31.1033969745"><ele>34.74</ele><time>2025-08-29T23:58:27Z</time></trkpt><trkpt lat="59.7740487289" lon="31.1034004949"><ele>34.74</ele><time>2025-08-29T23:58:33Z</time></trkpt><trkpt lat="59.7740292829" lon="31.1034389678"><ele>35.23</ele><time>2025-08-29T23:58:44Z</time></trkpt><trkpt lat="59.7740285285" lon="31.1034457572"><ele>34.26</ele><time>2025-08-29T23:58:52Z</time></trkpt><trkpt lat="59.7740075737" lon="31.1034165043"><ele>34.74</ele><time>2025-08-29T23:59:02Z</time></trkpt><trkpt lat="59.7739996947" lon="31.1034185160"><ele>35.23</ele><time>2025-08-29T23:59:16Z</time></trkpt><trkpt lat="59.7740504891" lon="31.1033954658"><ele>35.23</ele><time>2025-08-29T23:59:24Z</time></trkpt><trkpt lat="59.7740936559" lon="31.1033828929"><ele>34.74</ele><time>2025-08-29T23:59:31Z</time></trkpt><trkpt lat="59.7740953323" lon="31.1033229623"><ele>35.23</ele><time>2025-08-29T23:59:38Z</time></trkpt><trkpt lat="59.7740457952" lon="31.1032925360"><ele>34.74</ele><time>2025-08-29T23:59:44Z</time></trkpt><trkpt lat="59.7740109265" lon="31.1032814719"><ele>35.23</ele><time>2025-08-29T23:59:50Z</time></trkpt><trkpt lat="59.7739696037" lon="31.1032847408"><ele>35.23</ele><time>2025-08-30T00:00:00Z</time></trkpt><trkpt lat="59.7739534266" lon="31.1032528896"><ele>35.71</ele><time>2025-08-30T00:00:10Z</time></trkpt><trkpt lat="59.7739417758" lon="31.1032310128"><ele>35.71</ele><time>2025-08-30T00:00:17Z</time></trkpt><trkpt lat="59.7739687655" lon="31.1032066215"><ele>35.23</ele><time>2025-08-30T00:00:25Z</time></trkpt><trkpt lat="59.7739571147" lon="31.1031135824"><ele>35.23</ele><time>2025-08-30T00:00:34Z</time></trkpt><trkpt lat="59.7739203181" lon="31.1030404922"><ele>35.23</ele><time>2025-08-30T00:00:43Z</time></trkpt><trkpt lat="59.7739027161" lon="31.1029955652"><ele>35.23</ele><time>2025-08-30T00:00:52Z</time></trkpt><trkpt lat="59.7738757264" lon="31.1029481236"><ele>34.74</ele><time>2025-08-30T00:01:01Z</time></trkpt><trkpt lat="59.7738815937" lon="31.1029303540"><ele>34.74</ele><time>2025-08-30T00:01:06Z</time></trkpt><trkpt lat="59.7738866229" lon="31.1028823256"><ele>34.74</ele><time>2025-08-30T00:01:15Z</time></trkpt><trkpt lat="59.7738983575" lon="31.1028708424"><ele>35.23</ele><time>2025-08-30T00:01:23Z</time></trkpt><trkpt lat="59.7738993634" lon="31.1028532404"><ele>34.74</ele><time>2025-08-30T00:01:30Z</time></trkpt><trkpt lat="59.7739099246" lon="31.1028642207"><ele>35.23</ele><time>2025-08-30T00:01:42Z</time></trkpt><trkpt lat="59.7739306279" lon="31.1028172821"><ele>35.23</ele><time>2025-08-30T00:01:50Z</time></trkpt><trkpt lat="59.7739040572" lon="31.1027346365"><ele>34.74</ele><time>2025-08-30T00:01:57Z</time></trkpt><trkpt lat="59.7739165463" lon="31.1026544217"><ele>34.74</ele><time>2025-08-30T00:02:04Z</time></trkpt><trkpt lat="59.7739654966" lon="31.1025992688"><ele>34.74</ele><time>2025-08-30T00:02:13Z</time></trkpt><trkpt lat="59.7739980184" lon="31.1025477201"><ele>34.74</ele><time>2025-08-30T00:02:21Z</time></trkpt><trkpt lat="59.7740189731" lon="31.1025777273"><ele>34.26</ele><time>2025-08-30T00:02:33Z</time></trkpt><trkpt lat="59.7740683425" lon="31.1025903840"><ele>34.26</ele><time>2025-08-30T00:02:43Z</time></trkpt><trkpt lat="59.7741142754" lon="31.1025500670"><ele>34.26</ele><time>2025-08-30T00:02:51Z</time></trkpt><trkpt lat="59.7741559334" lon="31.1024773121"><ele>34.26</ele><time>2025-08-30T00:02:59Z</time></trkpt><trkpt lat="59.7741488088" lon="31.1023358256"><ele>34.74</ele><time>2025-08-30T00:03:08Z</time></trkpt><trkpt lat="59.7740934882" lon="31.1022399366"><ele>34.26</ele><time>2025-08-30T00:03:17Z</time></trkpt><trkpt lat="59.7740602959" lon="31.1021552794"><ele>34.26</ele><time>2025-08-30T00:03:27Z</time></trkpt><trkpt lat="59.7740758024" lon="31.1021329835"><ele>34.74</ele><time>2025-08-30T00:03:35Z</time></trkpt><trkpt lat="59.7740887105" lon="31.1020774953"><ele>34.26</ele><time>2025-08-30T00:03:43Z</time></trkpt><trkpt lat="59.7741081566" lon="31.1019861326"><ele>34.74</ele><time>2025-08-30T00:03:53Z</time></trkpt><trkpt lat="59.7741335537" lon="31.1019141320"><ele>34.74</ele><time>2025-08-30T00:04:03Z</time></trkpt><trkpt lat="59.7741550952" lon="31.1019301414"><ele>34.74</ele><time>2025-08-30T00:04:18Z</time></trkpt><trkpt lat="59.7741772234" lon="31.1018286366"><ele>34.74</ele><time>2025-08-30T00:04:27Z</time></trkpt><trkpt lat="59.7741576936" lon="31.1016733199"><ele>34.74</ele><time>2025-08-30T00:04:36Z</time></trkpt><trkpt lat="59.7741625551" lon="31.1015913449"><ele>35.23</ele><time>2025-08-30T00:04:44Z</time></trkpt><trkpt lat="59.7741582803" lon="31.1014387105"><ele>34.74</ele><time>2025-08-30T00:04:54Z</time></trkpt><trkpt lat="59.7741808277" lon="31.1013626028"><ele>35.23</ele><time>2025-08-30T00:05:03Z</time></trkpt><trkpt lat="59.7742197197" lon="31.1012014188"><ele>35.23</ele><time>2025-08-30T00:05:14Z</time></trkpt><trkpt lat="59.7742036264" lon="31.1011143308"><ele>35.23</ele><time>2025-08-30T00:05:22Z</time></trkpt><trkpt lat="59.7741847672" lon="31.1009907816"><ele>35.23</ele><time>2025-08-30T00:05:32Z</time></trkpt><trkpt lat="59.7742230725" lon="31.1009844113"><ele>35.23</ele><time>2025-08-30T00:05:41Z</time></trkpt><trkpt lat="59.7742436919" lon="31.1008715909"><ele>35.23</ele><time>2025-08-30T00:05:49Z</time></trkpt><trkpt lat="59.7742531635" lon="31.1007450242"><ele>35.23</ele><time>2025-08-30T00:05:59Z</time></trkpt><trkpt lat="59.7742720228" lon="31.1006617080"><ele>35.23</ele><time>2025-08-30T00:06:07Z</time></trkpt><trkpt lat="59.7742876131" lon="31.1005981732"><ele>34.74</ele><time>2025-08-30T00:06:16Z</time></trkpt><trkpt lat="59.7742948215" lon="31.1005181260"><ele>34.74</ele><time>2025-08-30T00:06:23Z</time></trkpt><trkpt lat="59.7743027844" lon="31.1004792340"><ele>34.74</ele><time>2025-08-30T00:06:34Z</time></trkpt><trkpt lat="59.7743059695" lon="31.1005245801"><ele>34.74</ele><time>2025-08-30T00:06:45Z</time></trkpt><trkpt lat="59.7742923908" lon="31.1006311141"><ele>33.78</ele><time>2025-08-30T00:06:57Z</time></trkpt><trkpt lat="59.7742866073" lon="31.1006809864"><ele>33.78</ele><time>2025-08-30T00:07:09Z</time></trkpt><trkpt lat="59.7742775548" lon="31.1007368937"><ele>33.78</ele><time>2025-08-30T00:07:19Z</time></trkpt><trkpt lat="59.7742922232" lon="31.1007321160"><ele>33.30</ele><time>2025-08-30T00:07:33Z</time></trkpt><trkpt lat="59.7743118368" lon="31.1007598601"><ele>33.30</ele><time>2025-08-30T00:07:42Z</time></trkpt><trkpt lat="59.7743805684" lon="31.1007538252"><ele>33.30</ele><time>2025-08-30T00:07:52Z</time></trkpt><trkpt lat="59.7744213045" lon="31.1007704213"><ele>32.82</ele><time>2025-08-30T00:08:01Z</time></trkpt><trkpt lat="59.7744552512" lon="31.1007133406"><ele>32.82</ele><time>2025-08-30T00:08:08Z</time></trkpt><trkpt lat="59.7745026927" lon="31.1006720178"><ele>32.82</ele><time>2025-08-30T00:08:18Z</time></trkpt><trkpt lat="59.7745327000" lon="31.1007042043"><ele>32.34</ele><time>2025-08-30T00:08:29Z</time></trkpt><trkpt lat="59.7745671496" lon="31.1006860994"><ele>32.34</ele><time>2025-08-30T00:08:38Z</time></trkpt><trkpt lat="59.7745731007" lon="31.1006454471"><ele>31.86</ele><time>2025-08-30T00:08:48Z</time></trkpt><trkpt lat="59.7745894454" lon="31.1006327067"><ele>31.86</ele><time>2025-08-30T00:08:55Z</time></trkpt><trkpt lat="59.7746052034" lon="31.1007095687"><ele>32.34</ele><time>2025-08-30T00:09:04Z</time></trkpt><trkpt lat="59.7746144235" lon="31.1007842515"><ele>31.86</ele><time>2025-08-30T00:09:13Z</time></trkpt><trkpt lat="59.7745937202" lon="31.1008157674"><ele>31.86</ele><time>2025-08-30T00:09:33Z</time></trkpt><trkpt lat="59.7745912056" lon="31.1008043680"><ele>31.38</ele><time>2025-08-30T00:09:44Z</time></trkpt><trkpt lat="59.7746184468" lon="31.1007856764"><ele>31.38</ele><time>2025-08-30T00:09:53Z</time></trkpt><trkpt lat="59.7746483702" lon="31.1008513067"><ele>30.90</ele><time>2025-08-30T00:10:01Z</time></trkpt><trkpt lat="59.7746636253" lon="31.1008984130"><ele>31.86</ele><time>2025-08-30T00:10:08Z</time></trkpt><trkpt lat="59.7746984102" lon="31.1009207927"><ele>31.38</ele><time>2025-08-30T00:10:16Z</time></trkpt><trkpt lat="59.7747188620" lon="31.1009688210"><ele>31.38</ele><time>2025-08-30T00:10:25Z</time></trkpt><trkpt lat="59.7747282498" lon="31.1010936275"><ele>31.86</ele><time>2025-08-30T00:10:34Z</time></trkpt><trkpt lat="59.7747298423" lon="31.1011764407"><ele>31.86</ele><time>2025-08-30T00:10:42Z</time></trkpt><trkpt lat="59.7747039422" lon="31.1012605112"><ele>31.38</ele><time>2025-08-30T00:10:51Z</time></trkpt><trkpt lat="59.7747166827" lon="31.1013393849"><ele>31.38</ele><time>2025-08-30T00:10:58Z</time></trkpt><trkpt lat="59.7747369669" lon="31.1013823003"><ele>31.38</ele><time>2025-08-30T00:11:06Z</time></trkpt><trkpt lat="59.7747585922" lon="31.1014352739"><ele>31.38</ele><time>2025-08-30T00:11:14Z</time></trkpt><trkpt lat="59.7747742664" lon="31.1015216913"><ele>31.38</ele><time>2025-08-30T00:11:23Z</time></trkpt><trkpt lat="59.7747523896" lon="31.1015985534"><ele>30.90</ele><time>2025-08-30T00:11:33Z</time></trkpt><trkpt lat="59.7746896930" lon="31.1016790196"><ele>30.90</ele><time>2025-08-30T00:11:43Z</time></trkpt><trkpt lat="59.7746658046" lon="31.1017649341"><ele>30.90</ele><time>2025-08-30T00:11:50Z</time></trkpt><trkpt lat="59.7746549081" lon="31.1017654371"><ele>30.90</ele><time>2025-08-30T00:12:02Z</time></trkpt><trkpt lat="59.7746719234" lon="31.1018152256"><ele>30.90</ele><time>2025-08-30T00:12:19Z</time></trkpt><trkpt lat="59.7746744379" lon="31.1018901598"><ele>30.90</ele><time>2025-08-30T00:12:29Z</time></trkpt><trkpt lat="59.7746974882" lon="31.1019951850"><ele>30.90</ele><time>2025-08-30T00:12:39Z</time></trkpt><trkpt lat="59.7746400721" lon="31.1020101048"><ele>31.38</ele><time>2025-08-30T00:12:47Z</time></trkpt><trkpt lat="59.7746536508" lon="31.1021357495"><ele>30.90</ele><time>2025-08-30T00:12:58Z</time></trkpt><trkpt lat="59.7746277507" lon="31.1022406910"><ele>30.90</ele><time>2025-08-30T00:13:08Z</time></trkpt><trkpt lat="59.7746543214" lon="31.1023660842"><ele>30.42</ele><time>2025-08-30T00:13:17Z</time></trkpt><trkpt lat="59.7746363841" lon="31.1024380010"><ele>30.42</ele><time>2025-08-30T00:13:28Z</time></trkpt><trkpt lat="59.7746064607" lon="31.1024727859"><ele>30.90</ele><time>2025-08-30T00:13:40Z</time></trkpt><trkpt lat="59.7746073827" lon="31.1026193015"><ele>30.90</ele><time>2025-08-30T00:13:48Z</time></trkpt><trkpt lat="59.7745940555" lon="31.1027109995"><ele>30.90</ele><time>2025-08-30T00:13:59Z</time></trkpt><trkpt lat="59.7745747771" lon="31.1028073076"><ele>31.38</ele><time>2025-08-30T00:14:10Z</time></trkpt><trkpt lat="59.7745654732" lon="31.1028623767"><ele>30.90</ele><time>2025-08-30T00:14:22Z</time></trkpt><trkpt lat="59.7745632101" lon="31.1029694136"><ele>30.90</ele><time>2025-08-30T00:14:31Z</time></trkpt><trkpt lat="59.7745699994" lon="31.1030972376"><ele>30.42</ele><time>2025-08-30T00:14:39Z</time></trkpt><trkpt lat="59.7745303530" lon="31.1031538993"><ele>31.38</ele><time>2025-08-30T00:14:50Z</time></trkpt><trkpt lat="59.7745246533" lon="31.1031020992"><ele>30.90</ele><time>2025-08-30T00:15:03Z</time></trkpt><trkpt lat="59.7745196242" lon="31.1030627880"><ele>30.90</ele><time>2025-08-30T00:15:18Z</time></trkpt><trkpt lat="59.7745439317" lon="31.1031258199"><ele>30.90</ele><time>2025-08-30T00:15:36Z</time></trkpt><trkpt lat="59.7745290119" lon="31.1030976567"><ele>30.90</ele><time>2025-08-30T00:15:47Z</time></trkpt><trkpt lat="59.7745109908" lon="31.1030742712"><ele>30.42</ele><time>2025-08-30T00:15:59Z</time></trkpt><trkpt lat="59.7744933888" lon="31.1030883528"><ele>30.90</ele><time>2025-08-30T00:16:13Z</time></trkpt><trkpt lat="59.7745383158" lon="31.1031508818"><ele>31.38</ele><time>2025-08-30T00:16:25Z</time></trkpt><trkpt lat="59.7745327000" lon="31.1031488702"><ele>30.42</ele><time>2025-08-30T00:16:36Z</time></trkpt><trkpt lat="59.7745649703" lon="31.1030780431"><ele>30.90</ele><time>2025-08-30T00:16:55Z</time></trkpt><trkpt lat="59.7745932173" lon="31.1030580942"><ele>31.38</ele><time>2025-08-30T00:17:18Z</time></trkpt><trkpt lat="59.7746129148" lon="31.1030241475"><ele>30.90</ele><time>2025-08-30T00:17:36Z</time></trkpt><trkpt lat="59.7745706700" lon="31.1030270811"><ele>30.90</ele><time>2025-08-30T00:17:53Z</time></trkpt><trkpt lat="59.7745259106" lon="31.1031879298"><ele>30.42</ele><time>2025-08-30T00:18:13Z</time></trkpt><trkpt lat="59.7745453566" lon="31.1031799670"><ele>30.42</ele><time>2025-08-30T00:18:32Z</time></trkpt><trkpt lat="59.7745347954" lon="31.1031409074"><ele>30.90</ele><time>2025-08-30T00:18:49Z</time></trkpt><trkpt lat="59.7745208815" lon="31.1031396501"><ele>30.90</ele><time>2025-08-30T00:19:02Z</time></trkpt><trkpt lat="59.7745347954" lon="31.1031397339"><ele>30.90</ele><time>2025-08-30T00:19:21Z</time></trkpt><trkpt lat="59.7745252401" lon="31.1031771172"><ele>30.90</ele><time>2025-08-30T00:19:42Z</time></trkpt><trkpt lat="59.7745027766" lon="31.1032317672"><ele>30.90</ele><time>2025-08-30T00:19:56Z</time></trkpt><trkpt lat="59.7745529003" lon="31.1031542346"><ele>31.38</ele><time>2025-08-30T00:20:10Z</time></trkpt><trkpt lat="59.7745363880" lon="31.1031109001"><ele>31.38</ele><time>2025-08-30T00:20:18Z</time></trkpt><trkpt lat="59.7745310236" lon="31.1031253170"><ele>31.38</ele><time>2025-08-30T00:20:24Z</time></trkpt><trkpt lat="59.7745166905" lon="31.1032034364"><ele>31.38</ele><time>2025-08-30T00:20:33Z</time></trkpt><trkpt lat="59.7745587677" lon="31.1032859981"><ele>31.86</ele><time>2025-08-30T00:20:42Z</time></trkpt><trkpt lat="59.7745734360" lon="31.1033880897"><ele>31.86</ele><time>2025-08-30T00:20:51Z</time></trkpt><trkpt lat="59.7746036109" lon="31.1034735851"><ele>31.86</ele><time>2025-08-30T00:20:59Z</time></trkpt><trkpt lat="59.7746331990" lon="31.1035334319"><ele>31.38</ele><time>2025-08-30T00:21:08Z</time></trkpt><trkpt lat="59.7746330313" lon="31.1036346853"><ele>31.38</ele><time>2025-08-30T00:21:17Z</time></trkpt><trkpt lat="59.7746366356" lon="31.1037357710"><ele>31.38</ele><time>2025-08-30T00:21:27Z</time></trkpt><trkpt lat="59.7746516392" lon="31.1037788540"><ele>30.90</ele><time>2025-08-30T00:21:38Z</time></trkpt><trkpt lat="59.7746632900" lon="31.1038622539"><ele>31.38</ele><time>2025-08-30T00:21:46Z</time></trkpt><trkpt lat="59.7746830713" lon="31.1039118748"><ele>31.38</ele><time>2025-08-30T00:21:53Z</time></trkpt><trkpt lat="59.7746995836" lon="31.1039929278"><ele>31.86</ele><time>2025-08-30T00:22:01Z</time></trkpt><trkpt lat="59.7746802215" lon="31.1040484998"><ele>31.38</ele><time>2025-08-30T00:22:07Z</time></trkpt><trkpt lat="59.7746791318" lon="31.1040811054"><ele>31.86</ele><time>2025-08-30T00:22:14Z</time></trkpt><trkpt lat="59.7746993322" lon="31.1040865537"><ele>31.38</ele><time>2025-08-30T00:22:25Z</time></trkpt><trkpt lat="59.7747236397" lon="31.1042332370"><ele>31.38</ele><time>2025-08-30T00:22:35Z</time></trkpt><trkpt lat="59.7747117374" lon="31.1042791698"><ele>30.90</ele><time>2025-08-30T00:22:44Z</time></trkpt><trkpt lat="59.7747136652" lon="31.1043242645"><ele>31.86</ele><time>2025-08-30T00:22:52Z</time></trkpt><trkpt lat="59.7747071274" lon="31.1044111848"><ele>31.86</ele><time>2025-08-30T00:23:00Z</time></trkpt><trkpt lat="59.7747277468" lon="31.1044828501"><ele>31.86</ele><time>2025-08-30T00:23:08Z</time></trkpt><trkpt lat="59.7747484501" lon="31.1044354923"><ele>32.34</ele><time>2025-08-30T00:23:16Z</time></trkpt><trkpt lat="59.7747395653" lon="31.1045084987"><ele>31.86</ele><time>2025-08-30T00:23:26Z</time></trkpt><trkpt lat="59.7747048642" lon="31.1045921501"><ele>31.86</ele><time>2025-08-30T00:23:34Z</time></trkpt><trkpt lat="59.7747103125" lon="31.1046429444"><ele>32.34</ele><time>2025-08-30T00:23:41Z</time></trkpt><trkpt lat="59.7746913694" lon="31.1046367418"><ele>32.34</ele><time>2025-08-30T00:23:47Z</time></trkpt><trkpt lat="59.7746720910" lon="31.1046960857"><ele>32.82</ele><time>2025-08-30T00:23:57Z</time></trkpt><trkpt lat="59.7746930458" lon="31.1048003566"><ele>32.34</ele><time>2025-08-30T00:24:05Z</time></trkpt><trkpt lat="59.7746777907" lon="31.1049099080"><ele>32.82</ele><time>2025-08-30T00:24:13Z</time></trkpt><trkpt lat="59.7746855859" lon="31.1049369816"><ele>31.86</ele><time>2025-08-30T00:24:25Z</time></trkpt><trkpt lat="59.7746808082" lon="31.1049700063"><ele>32.34</ele><time>2025-08-30T00:24:38Z</time></trkpt><trkpt lat="59.7746223025" lon="31.1049482971"><ele>32.34</ele><time>2025-08-30T00:24:49Z</time></trkpt><trkpt lat="59.7746305168" lon="31.1049952358"><ele>32.82</ele><time>2025-08-30T00:24:54Z</time></trkpt><trkpt lat="59.7746358812" lon="31.1050757859"><ele>32.82</ele><time>2025-08-30T00:25:01Z</time></trkpt><trkpt lat="59.7746410780" lon="31.1051348783"><ele>32.34</ele><time>2025-08-30T00:25:07Z</time></trkpt><trkpt lat="59.7746228054" lon="31.1051430088"><ele>32.34</ele><time>2025-08-30T00:25:13Z</time></trkpt><trkpt lat="59.7746098973" lon="31.1052245647"><ele>32.34</ele><time>2025-08-30T00:25:20Z</time></trkpt><trkpt lat="59.7745892778" lon="31.1052682344"><ele>32.34</ele><time>2025-08-30T00:25:28Z</time></trkpt><trkpt lat="59.7745808121" lon="31.1053516343"><ele>32.82</ele><time>2025-08-30T00:25:36Z</time></trkpt><trkpt lat="59.7745518107" lon="31.1053848267"><ele>33.30</ele><time>2025-08-30T00:25:43Z</time></trkpt><trkpt lat="59.7745512240" lon="31.1054348666"><ele>32.82</ele><time>2025-08-30T00:25:50Z</time></trkpt><trkpt lat="59.7745601088" lon="31.1054623593"><ele>32.82</ele><time>2025-08-30T00:25:57Z</time></trkpt><trkpt lat="59.7745413333" lon="31.1054778658"><ele>32.82</ele><time>2025-08-30T00:26:04Z</time></trkpt><trkpt lat="59.7745375615" lon="31.1055651214"><ele>32.34</ele><time>2025-08-30T00:26:13Z</time></trkpt><trkpt lat="59.7744957358" lon="31.1055821367"><ele>32.34</ele><time>2025-08-30T00:26:21Z</time></trkpt><trkpt lat="59.7744683269" lon="31.1056191847"><ele>32.82</ele><time>2025-08-30T00:26:29Z</time></trkpt><trkpt lat="59.7744767927" lon="31.1056609266"><ele>32.82</ele><time>2025-08-30T00:26:34Z</time></trkpt><trkpt lat="59.7745019384" lon="31.1056988966"><ele>32.34</ele><time>2025-08-30T00:26:42Z</time></trkpt><trkpt lat="59.7745306045" lon="31.1057139002"><ele>32.82</ele><time>2025-08-30T00:26:49Z</time></trkpt><trkpt lat="59.7745368909" lon="31.1058327556"><ele>32.34</ele><time>2025-08-30T00:26:57Z</time></trkpt><trkpt lat="59.7745393217" lon="31.1059317458"><ele>32.34</ele><time>2025-08-30T00:27:06Z</time></trkpt><trkpt lat="59.7745342087" lon="31.1059700511"><ele>32.34</ele><time>2025-08-30T00:27:15Z</time></trkpt><trkpt lat="59.7745214682" lon="31.1060127988"><ele>31.86</ele><time>2025-08-30T00:27:29Z</time></trkpt><trkpt lat="59.7745221388" lon="31.1060584802"><ele>32.34</ele><time>2025-08-30T00:27:41Z</time></trkpt><trkpt lat="59.7745707538" lon="31.1060536187"><ele>32.82</ele><time>2025-08-30T00:27:51Z</time></trkpt><trkpt lat="59.7746451851" lon="31.1060006451"><ele>33.30</ele><time>2025-08-30T00:27:59Z</time></trkpt><trkpt lat="59.7746954765" lon="31.1060626712"><ele>32.34</ele><time>2025-08-30T00:28:09Z</time></trkpt><trkpt lat="59.7747457679" lon="31.1061503459"><ele>32.34</ele><time>2025-08-30T00:28:17Z</time></trkpt><trkpt lat="59.7747679800" lon="31.1062417086"><ele>32.82</ele><time>2025-08-30T00:28:25Z</time></trkpt><trkpt lat="59.7747603524" lon="31.1063256953"><ele>32.82</ele><time>2025-08-30T00:28:33Z</time></trkpt><trkpt lat="59.7747629508" lon="31.1063995399"><ele>32.34</ele><time>2025-08-30T00:28:46Z</time></trkpt><trkpt lat="59.7747548204" lon="31.1065309681"><ele>32.82</ele><time>2025-08-30T00:28:53Z</time></trkpt><trkpt lat="59.7747805528" lon="31.1066048965"><ele>32.34</ele><time>2025-08-30T00:28:58Z</time></trkpt><trkpt lat="59.7747760266" lon="31.1065629032"><ele>32.34</ele><time>2025-08-30T00:29:07Z</time></trkpt><trkpt lat="59.7747909464" lon="31.1065365840"><ele>32.82</ele><time>2025-08-30T00:29:19Z</time></trkpt><trkpt lat="59.7747931257" lon="31.1065152101"><ele>33.30</ele><time>2025-08-30T00:29:29Z</time></trkpt><trkpt lat="59.7748110630" lon="31.1064456403"><ele>32.82</ele><time>2025-08-30T00:29:41Z</time></trkpt><trkpt lat="59.7748345323" lon="31.1065706145"><ele>32.34</ele><time>2025-08-30T00:29:50Z</time></trkpt><trkpt lat="59.7748803813" lon="31.1066898890"><ele>31.86</ele><time>2025-08-30T00:30:00Z</time></trkpt><trkpt lat="59.7749061976" lon="31.1067421082"><ele>32.34</ele><time>2025-08-30T00:30:09Z</time></trkpt><trkpt lat="59.7748773638" lon="31.1067600455"><ele>31.86</ele><time>2025-08-30T00:30:22Z</time></trkpt><trkpt lat="59.7748476919" lon="31.1066659167"><ele>31.38</ele><time>2025-08-30T00:30:33Z</time></trkpt><trkpt lat="59.7748242225" lon="31.1067794915"><ele>31.38</ele><time>2025-08-30T00:30:40Z</time></trkpt><trkpt lat="59.7748181038" lon="31.1068974249"><ele>31.38</ele><time>2025-08-30T00:30:48Z</time></trkpt><trkpt lat="59.7748014238" lon="31.1070066411"><ele>31.86</ele><time>2025-08-30T00:30:56Z</time></trkpt><trkpt lat="59.7748046927" lon="31.1071734410"><ele>31.86</ele><time>2025-08-30T00:31:07Z</time></trkpt><trkpt lat="59.7748360410" lon="31.1072566733"><ele>32.34</ele><time>2025-08-30T00:31:15Z</time></trkpt><trkpt lat="59.7748624440" lon="31.1073626205"><ele>31.38</ele><time>2025-08-30T00:31:23Z</time></trkpt><trkpt lat="59.7748617735" lon="31.1074065417"><ele>31.38</ele><time>2025-08-30T00:31:30Z</time></trkpt><trkpt lat="59.7749210335" lon="31.1074598506"><ele>31.86</ele><time>2025-08-30T00:31:40Z</time></trkpt><trkpt lat="59.7749391384" lon="31.1075486150"><ele>31.38</ele><time>2025-08-30T00:31:48Z</time></trkpt><trkpt lat="59.7749326844" lon="31.1076320149"><ele>32.34</ele><time>2025-08-30T00:31:56Z</time></trkpt><trkpt lat="59.7749090474" lon="31.1076203641"><ele>31.86</ele><time>2025-08-30T00:32:03Z</time></trkpt><trkpt lat="59.7748913616" lon="31.1076573282"><ele>31.38</ele><time>2025-08-30T00:32:11Z</time></trkpt><trkpt lat="59.7748955525" lon="31.1076823063"><ele>31.38</ele><time>2025-08-30T00:32:13Z</time></trkpt><trkpt lat="59.7748799622" lon="31.1077730823"><ele>31.38</ele><time>2025-08-30T00:32:20Z</time></trkpt><trkpt lat="59.7748810519" lon="31.1078624334"><ele>31.38</ele><time>2025-08-30T00:32:30Z</time></trkpt><trkpt lat="59.7748806328" lon="31.1079373676"><ele>31.38</ele><time>2025-08-30T00:32:37Z</time></trkpt><trkpt lat="59.7748766094" lon="31.1079983879"><ele>30.90</ele><time>2025-08-30T00:32:45Z</time></trkpt><trkpt lat="59.7748867515" lon="31.1080501880"><ele>31.38</ele><time>2025-08-30T00:32:51Z</time></trkpt><trkpt lat="59.7748658806" lon="31.1081118789"><ele>31.38</ele><time>2025-08-30T00:33:00Z</time></trkpt><trkpt lat="59.7748657968" lon="31.1080822069"><ele>31.38</ele><time>2025-08-30T00:33:14Z</time></trkpt><trkpt lat="59.7748559900" lon="31.1080908403"><ele>31.86</ele><time>2025-08-30T00:33:28Z</time></trkpt><trkpt lat="59.7748216242" lon="31.1081599910"><ele>31.38</ele><time>2025-08-30T00:33:38Z</time></trkpt><trkpt lat="59.7748109791" lon="31.1082184967"><ele>31.86</ele><time>2025-08-30T00:33:46Z</time></trkpt><trkpt lat="59.7748010885" lon="31.1082370207"><ele>31.86</ele><time>2025-08-30T00:33:52Z</time></trkpt><trkpt lat="59.7747833189" lon="31.1083144695"><ele>31.86</ele><time>2025-08-30T00:34:01Z</time></trkpt><trkpt lat="59.7747606039" lon="31.1083410401"><ele>31.86</ele><time>2025-08-30T00:34:11Z</time></trkpt><trkpt lat="59.7747784574" lon="31.1084608175"><ele>31.86</ele><time>2025-08-30T00:34:19Z</time></trkpt><trkpt lat="59.7747344524" lon="31.1085272022"><ele>31.86</ele><time>2025-08-30T00:34:28Z</time></trkpt><trkpt lat="59.7746997513" lon="31.1086019687"><ele>31.86</ele><time>2025-08-30T00:34:39Z</time></trkpt><trkpt lat="59.7746566683" lon="31.1086157989"><ele>32.34</ele><time>2025-08-30T00:34:53Z</time></trkpt><trkpt lat="59.7746304329" lon="31.1085351650"><ele>33.30</ele><time>2025-08-30T00:35:07Z</time></trkpt><trkpt lat="59.7746518068" lon="31.1085621547"><ele>32.34</ele><time>2025-08-30T00:35:20Z</time></trkpt><trkpt lat="59.7747061215" lon="31.1087245960"><ele>32.82</ele><time>2025-08-30T00:35:29Z</time></trkpt><trkpt lat="59.7747247294" lon="31.1088424455"><ele>32.82</ele><time>2025-08-30T00:35:37Z</time></trkpt><trkpt lat="59.7747212090" lon="31.1088488158"><ele>33.30</ele><time>2025-08-30T00:35:38Z</time></trkpt><trkpt lat="59.7747038584" lon="31.1088881269"><ele>33.78</ele><time>2025-08-30T00:35:45Z</time></trkpt><trkpt lat="59.7747157607" lon="31.1089479737"><ele>32.34</ele><time>2025-08-30T00:35:53Z</time></trkpt><trkpt lat="59.7747035231" lon="31.1090126820"><ele>33.30</ele><time>2025-08-30T00:35:59Z</time></trkpt><trkpt lat="59.7746829037" lon="31.1090840120"><ele>33.30</ele><time>2025-08-30T00:36:07Z</time></trkpt><trkpt lat="59.7746865917" lon="31.1091151927"><ele>33.30</ele><time>2025-08-30T00:36:12Z</time></trkpt><trkpt lat="59.7746622004" lon="31.1091804039"><ele>33.30</ele><time>2025-08-30T00:36:19Z</time></trkpt><trkpt lat="59.7747068759" lon="31.1092759576"><ele>33.30</ele><time>2025-08-30T00:36:29Z</time></trkpt><trkpt lat="59.7746969853" lon="31.1093407497"><ele>33.30</ele><time>2025-08-30T00:36:37Z</time></trkpt><trkpt lat="59.7746896930" lon="31.1094226409"><ele>33.78</ele><time>2025-08-30T00:36:46Z</time></trkpt><trkpt lat="59.7746742703" lon="31.1095368862"><ele>33.30</ele><time>2025-08-30T00:36:53Z</time></trkpt><trkpt lat="59.7746640444" lon="31.1096391454"><ele>33.30</ele><time>2025-08-30T00:37:00Z</time></trkpt><trkpt lat="59.7746565007" lon="31.1097339448"><ele>34.26</ele><time>2025-08-30T00:37:10Z</time></trkpt><trkpt lat="59.7746616974" lon="31.1098689772"><ele>33.30</ele><time>2025-08-30T00:37:20Z</time></trkpt><trkpt lat="59.7746582609" lon="31.1099486891"><ele>33.78</ele><time>2025-08-30T00:37:28Z</time></trkpt><trkpt lat="59.7746635415" lon="31.1099287402"><ele>33.78</ele><time>2025-08-30T00:37:40Z</time></trkpt><trkpt lat="59.7746443469" lon="31.1099382956"><ele>33.78</ele><time>2025-08-30T00:37:57Z</time></trkpt><trkpt lat="59.7746761981" lon="31.1100159958"><ele>33.30</ele><time>2025-08-30T00:38:06Z</time></trkpt><trkpt lat="59.7746705823" lon="31.1100667901"><ele>33.30</ele><time>2025-08-30T00:38:13Z</time></trkpt><trkpt lat="59.7746934649" lon="31.1101544648"><ele>33.30</ele><time>2025-08-30T00:38:20Z</time></trkpt><trkpt lat="59.7746973205" lon="31.1102793552"><ele>33.78</ele><time>2025-08-30T00:38:28Z</time></trkpt><trkpt lat="59.7746881004" lon="31.1103584804"><ele>33.78</ele><time>2025-08-30T00:38:37Z</time></trkpt><trkpt lat="59.7747015953" lon="31.1104555428"><ele>33.78</ele><time>2025-08-30T00:38:46Z</time></trkpt><trkpt lat="59.7746804729" lon="31.1105797626"><ele>33.78</ele><time>2025-08-30T00:38:54Z</time></trkpt><trkpt lat="59.7746315226" lon="31.1107003782"><ele>33.78</ele><time>2025-08-30T00:39:01Z</time></trkpt><trkpt lat="59.7746192012" lon="31.1108524259"><ele>33.78</ele><time>2025-08-30T00:39:09Z</time></trkpt><trkpt lat="59.7746062092" lon="31.1109524220"><ele>33.78</ele><time>2025-08-30T00:39:15Z</time></trkpt><trkpt lat="59.7746168543" lon="31.1109835189"><ele>33.78</ele><time>2025-08-30T00:39:22Z</time></trkpt><trkpt lat="59.7746269964" lon="31.1109835189"><ele>33.78</ele><time>2025-08-30T00:39:34Z</time></trkpt><trkpt lat="59.7746111546" lon="31.1109711975"><ele>34.26</ele><time>2025-08-30T00:39:43Z</time></trkpt><trkpt lat="59.7745826561" lon="31.1110048089"><ele>33.78</ele><time>2025-08-30T00:39:50Z</time></trkpt><trkpt lat="59.7745912056" lon="31.1110594589"><ele>34.26</ele><time>2025-08-30T00:39:58Z</time></trkpt><trkpt lat="59.7746366356" lon="31.1111780629"><ele>34.26</ele><time>2025-08-30T00:40:07Z</time></trkpt><trkpt lat="59.7746517230" lon="31.1111953296"><ele>33.78</ele><time>2025-08-30T00:40:14Z</time></trkpt><trkpt lat="59.7746639606" lon="31.1113093235"><ele>33.78</ele><time>2025-08-30T00:40:20Z</time></trkpt><trkpt lat="59.7746835742" lon="31.1114059668"><ele>33.30</ele><time>2025-08-30T00:40:28Z</time></trkpt><trkpt lat="59.7746835742" lon="31.1114827450"><ele>33.78</ele><time>2025-08-30T00:40:37Z</time></trkpt><trkpt lat="59.7746730968" lon="31.1115823220"><ele>33.30</ele><time>2025-08-30T00:40:44Z</time></trkpt><trkpt lat="59.7747168504" lon="31.1116436776"><ele>33.78</ele><time>2025-08-30T00:40:51Z</time></trkpt><trkpt lat="59.7747313511" lon="31.1117169354"><ele>32.82</ele><time>2025-08-30T00:40:59Z</time></trkpt><trkpt lat="59.7747291718" lon="31.1117234733"><ele>33.78</ele><time>2025-08-30T00:41:05Z</time></trkpt><trkpt lat="59.7746755276" lon="31.1117418297"><ele>33.78</ele><time>2025-08-30T00:41:12Z</time></trkpt><trkpt lat="59.7746645473" lon="31.1118149199"><ele>33.30</ele><time>2025-08-30T00:41:18Z</time></trkpt><trkpt lat="59.7746642958" lon="31.1118352879"><ele>34.26</ele><time>2025-08-30T00:41:26Z</time></trkpt><trkpt lat="59.7746563330" lon="31.1118331086"><ele>34.26</ele><time>2025-08-30T00:41:37Z</time></trkpt><trkpt lat="59.7746703308" lon="31.1118891835"><ele>33.30</ele><time>2025-08-30T00:41:54Z</time></trkpt><trkpt lat="59.7746871784" lon="31.1119388882"><ele>33.30</ele><time>2025-08-30T00:42:02Z</time></trkpt><trkpt lat="59.7747347876" lon="31.1120165884"><ele>33.30</ele><time>2025-08-30T00:42:12Z</time></trkpt><trkpt lat="59.7747914493" lon="31.1120668799"><ele>33.78</ele><time>2025-08-30T00:42:21Z</time></trkpt><trkpt lat="59.7747701593" lon="31.1121262237"><ele>33.30</ele><time>2025-08-30T00:42:28Z</time></trkpt><trkpt lat="59.7747858334" lon="31.1121735815"><ele>33.30</ele><time>2025-08-30T00:42:34Z</time></trkpt><trkpt lat="59.7748165112" lon="31.1122681294"><ele>32.82</ele><time>2025-08-30T00:42:43Z</time></trkpt><trkpt lat="59.7748368792" lon="31.1123016570"><ele>32.82</ele><time>2025-08-30T00:42:49Z</time></trkpt><trkpt lat="59.7748884279" lon="31.1123079434"><ele>32.34</ele><time>2025-08-30T00:42:57Z</time></trkpt><trkpt lat="59.7749110591" lon="31.1123242043"><ele>32.34</ele><time>2025-08-30T00:43:05Z</time></trkpt><trkpt lat="59.7749370430" lon="31.1123090331"><ele>32.82</ele><time>2025-08-30T00:43:16Z</time></trkpt><trkpt lat="59.7748993244" lon="31.1122858152"><ele>32.82</ele><time>2025-08-30T00:43:29Z</time></trkpt><trkpt lat="59.7749396414" lon="31.1123919301"><ele>33.78</ele><time>2025-08-30T00:43:36Z</time></trkpt><trkpt lat="59.7749475203" lon="31.1125057563"><ele>33.30</ele><time>2025-08-30T00:43:45Z</time></trkpt><trkpt lat="59.7749434970" lon="31.1125457380"><ele>33.78</ele><time>2025-08-30T00:43:53Z</time></trkpt><trkpt lat="59.7749367077" lon="31.1126257852"><ele>32.34</ele><time>2025-08-30T00:44:00Z</time></trkpt><trkpt lat="59.7749108076" lon="31.1126734782"><ele>32.82</ele><time>2025-08-30T00:44:07Z</time></trkpt><trkpt lat="59.7749258950" lon="31.1127401143"><ele>32.82</ele><time>2025-08-30T00:44:15Z</time></trkpt><trkpt lat="59.7749294154" lon="31.1127884779"><ele>31.86</ele><time>2025-08-30T00:44:23Z</time></trkpt><trkpt lat="59.7749175970" lon="31.1128458101"><ele>32.34</ele><time>2025-08-30T00:44:30Z</time></trkpt><trkpt lat="59.7749091312" lon="31.1127962731"><ele>32.82</ele><time>2025-08-30T00:44:40Z</time></trkpt><trkpt lat="59.7749565728" lon="31.1128002126"><ele>32.34</ele><time>2025-08-30T00:44:56Z</time></trkpt><trkpt lat="59.7750368714" lon="31.1128722969"><ele>31.86</ele><time>2025-08-30T00:45:04Z</time></trkpt><trkpt lat="59.7751318384" lon="31.1129389331"><ele>32.34</ele><time>2025-08-30T00:45:13Z</time></trkpt><trkpt lat="59.7752421442" lon="31.1129269470"><ele>32.34</ele><time>2025-08-30T00:45:23Z</time></trkpt><trkpt lat="59.7753514443" lon="31.1129145417"><ele>31.86</ele><time>2025-08-30T00:45:32Z</time></trkpt><trkpt lat="59.7753805295" lon="31.1128990352"><ele>31.86</ele><time>2025-08-30T00:45:35Z</time></trkpt><trkpt lat="59.7754755802" lon="31.1128779966"><ele>31.38</ele><time>2025-08-30T00:45:44Z</time></trkpt><trkpt lat="59.7754863091" lon="31.1128769908"><ele>31.86</ele><time>2025-08-30T00:45:47Z</time></trkpt><trkpt lat="59.7755212616" lon="31.1128031462"><ele>31.38</ele><time>2025-08-30T00:45:55Z</time></trkpt><trkpt lat="59.7755232733" lon="31.1127138790"><ele>31.38</ele><time>2025-08-30T00:46:13Z</time></trkpt><trkpt lat="59.7755096946" lon="31.1126840394"><ele>31.38</ele><time>2025-08-30T00:46:31Z</time></trkpt><trkpt lat="59.7754898295" lon="31.1126567144"><ele>30.90</ele><time>2025-08-30T00:46:38Z</time></trkpt><trkpt lat="59.7755048331" lon="31.1126209237"><ele>31.86</ele><time>2025-08-30T00:46:45Z</time></trkpt><trkpt lat="59.7755112033" lon="31.1126023997"><ele>31.86</ele><time>2025-08-30T00:46:54Z</time></trkpt><trkpt lat="59.7754657734" lon="31.1125682853"><ele>31.38</ele><time>2025-08-30T00:47:02Z</time></trkpt><trkpt lat="59.7753967904" lon="31.1125733145"><ele>31.86</ele><time>2025-08-30T00:47:11Z</time></trkpt><trkpt lat="59.7753940243" lon="31.1125445645"><ele>31.86</ele><time>2025-08-30T00:47:22Z</time></trkpt><trkpt lat="59.7753974609" lon="31.1125210114"><ele>32.34</ele><time>2025-08-30T00:47:34Z</time></trkpt><trkpt lat="59.7753842175" lon="31.1124760844"><ele>31.86</ele><time>2025-08-30T00:47:47Z</time></trkpt><trkpt lat="59.7753745783" lon="31.1124884058"><ele>31.86</ele><time>2025-08-30T00:47:55Z</time></trkpt><trkpt lat="59.7753176652" lon="31.1124969553"><ele>31.38</ele><time>2025-08-30T00:48:01Z</time></trkpt><trkpt lat="59.7752579860" lon="31.1125150602"><ele>31.86</ele><time>2025-08-30T00:48:09Z</time></trkpt><trkpt lat="59.7752255481" lon="31.1124321632"><ele>32.34</ele><time>2025-08-30T00:48:18Z</time></trkpt><trkpt lat="59.7752185073" lon="31.1124142259"><ele>31.86</ele><time>2025-08-30T00:48:23Z</time></trkpt><trkpt lat="59.7751766816" lon="31.1124041677"><ele>32.34</ele><time>2025-08-30T00:48:31Z</time></trkpt><trkpt lat="59.7751563136" lon="31.1123014055"><ele>31.86</ele><time>2025-08-30T00:48:39Z</time></trkpt><trkpt lat="59.7751338501" lon="31.1122471746"><ele>32.34</ele><time>2025-08-30T00:48:46Z</time></trkpt><trkpt lat="59.7751561459" lon="31.1121937819"><ele>31.86</ele><time>2025-08-30T00:48:53Z</time></trkpt><trkpt lat="59.7752429824" lon="31.1121277325"><ele>31.86</ele><time>2025-08-30T00:49:02Z</time></trkpt><trkpt lat="59.7752639372" lon="31.1120527983"><ele>31.86</ele><time>2025-08-30T00:49:10Z</time></trkpt><trkpt lat="59.7752537113" lon="31.1119794566"><ele>31.38</ele><time>2025-08-30T00:49:17Z</time></trkpt><trkpt lat="59.7752605006" lon="31.1119285785"><ele>31.86</ele><time>2025-08-30T00:49:32Z</time></trkpt><trkpt lat="59.7752482630" lon="31.1119947955"><ele>31.86</ele><time>2025-08-30T00:49:38Z</time></trkpt><trkpt lat="59.7752219439" lon="31.1120229587"><ele>31.86</ele><time>2025-08-30T00:49:45Z</time></trkpt><trkpt lat="59.7752200160" lon="31.1120123975"><ele>31.86</ele><time>2025-08-30T00:49:52Z</time></trkpt><trkpt lat="59.7752568964" lon="31.1120088771"><ele>31.86</ele><time>2025-08-30T00:50:05Z</time></trkpt><trkpt lat="59.7752707265" lon="31.1120429914"><ele>32.34</ele><time>2025-08-30T00:50:18Z</time></trkpt><trkpt lat="59.7752817906" lon="31.1120524630"><ele>31.86</ele><time>2025-08-30T00:50:28Z</time></trkpt><trkpt lat="59.7752993088" lon="31.1120471824"><ele>32.34</ele><time>2025-08-30T00:50:51Z</time></trkpt><trkpt lat="59.7752926871" lon="31.1120180972"><ele>31.86</ele><time>2025-08-30T00:51:00Z</time></trkpt><trkpt lat="59.7752761748" lon="31.1119418219"><ele>31.86</ele><time>2025-08-30T00:51:07Z</time></trkpt><trkpt lat="59.7752904240" lon="31.1118542310"><ele>31.38</ele><time>2025-08-30T00:51:12Z</time></trkpt><trkpt lat="59.7752524540" lon="31.1117538996"><ele>31.86</ele><time>2025-08-30T00:51:20Z</time></trkpt><trkpt lat="59.7752253804" lon="31.1117133312"><ele>32.34</ele><time>2025-08-30T00:51:28Z</time></trkpt><trkpt lat="59.7752394620" lon="31.1116373073"><ele>32.34</ele><time>2025-08-30T00:51:37Z</time></trkpt><trkpt lat="59.7752283141" lon="31.1115768738"><ele>32.34</ele><time>2025-08-30T00:51:44Z</time></trkpt><trkpt lat="59.7752183396" lon="31.1114574317"><ele>32.34</ele><time>2025-08-30T00:51:51Z</time></trkpt><trkpt lat="59.7751973849" lon="31.1113748699"><ele>32.34</ele><time>2025-08-30T00:51:57Z</time></trkpt><trkpt lat="59.7752067726" lon="31.1113224830"><ele>32.34</ele><time>2025-08-30T00:52:04Z</time></trkpt><trkpt lat="59.7751920205" lon="31.1112864409"><ele>32.34</ele><time>2025-08-30T00:52:08Z</time></trkpt><trkpt lat="59.7751374543" lon="31.1112496443"><ele>32.82</ele><time>2025-08-30T00:52:17Z</time></trkpt><trkpt lat="59.7751164995" lon="31.1112736166"><ele>32.34</ele><time>2025-08-30T00:52:23Z</time></trkpt><trkpt lat="59.7750888392" lon="31.1112433579"><ele>32.34</ele><time>2025-08-30T00:52:39Z</time></trkpt><trkpt lat="59.7751234565" lon="31.1112705152"><ele>32.34</ele><time>2025-08-30T00:52:55Z</time></trkpt><trkpt lat="59.7751537152" lon="31.1112748738"><ele>32.34</ele><time>2025-08-30T00:53:01Z</time></trkpt><trkpt lat="59.7751690540" lon="31.1112790648"><ele>33.30</ele><time>2025-08-30T00:53:09Z</time></trkpt><trkpt lat="59.7751784418" lon="31.1112185474"><ele>32.82</ele><time>2025-08-30T00:53:20Z</time></trkpt><trkpt lat="59.7751597501" lon="31.1111348122"><ele>32.82</ele><time>2025-08-30T00:53:28Z</time></trkpt><trkpt lat="59.7751506139" lon="31.1110675894"><ele>32.82</ele><time>2025-08-30T00:53:37Z</time></trkpt><trkpt lat="59.7751658689" lon="31.1110022943"><ele>32.82</ele><time>2025-08-30T00:53:47Z</time></trkpt><trkpt lat="59.7751304973" lon="31.1109309644"><ele>33.30</ele><time>2025-08-30T00:53:54Z</time></trkpt><trkpt lat="59.7751199361" lon="31.1108638253"><ele>32.82</ele><time>2025-08-30T00:54:03Z</time></trkpt><trkpt lat="59.7751082852" lon="31.1108013801"><ele>33.30</ele><time>2025-08-30T00:54:11Z</time></trkpt><trkpt lat="59.7750755120" lon="31.1107808445"><ele>32.82</ele><time>2025-08-30T00:54:18Z</time></trkpt><trkpt lat="59.7750574909" lon="31.1108572036"><ele>32.82</ele><time>2025-08-30T00:54:29Z</time></trkpt><trkpt lat="59.7750398889" lon="31.1108327284"><ele>32.82</ele><time>2025-08-30T00:54:38Z</time></trkpt><trkpt lat="59.7750197724" lon="31.1107048206"><ele>33.30</ele><time>2025-08-30T00:54:46Z</time></trkpt><trkpt lat="59.7750008292" lon="31.1107058264"><ele>32.82</ele><time>2025-08-30T00:54:57Z</time></trkpt><trkpt lat="59.7749632783" lon="31.1107224226"><ele>32.82</ele><time>2025-08-30T00:55:06Z</time></trkpt><trkpt lat="59.7749388870" lon="31.1107304692"><ele>32.82</ele><time>2025-08-30T00:55:23Z</time></trkpt><trkpt lat="59.7749469336" lon="31.1106422916"><ele>33.30</ele><time>2025-08-30T00:55:33Z</time></trkpt><trkpt lat="59.7749685589" lon="31.1105669383"><ele>32.82</ele><time>2025-08-30T00:55:41Z</time></trkpt><trkpt lat="59.7749901004" lon="31.1105217598"><ele>32.82</ele><time>2025-08-30T00:55:49Z</time></trkpt><trkpt lat="59.7750017513" lon="31.1105328240"><ele>32.82</ele><time>2025-08-30T00:56:00Z</time></trkpt><trkpt lat="59.7750722431" lon="31.1105767451"><ele>32.82</ele><time>2025-08-30T00:56:08Z</time></trkpt><trkpt lat="59.7751206066" lon="31.1105515156"><ele>32.82</ele><time>2025-08-30T00:56:15Z</time></trkpt><trkpt lat="59.7751704790" lon="31.1105071753"><ele>32.82</ele><time>2025-08-30T00:56:24Z</time></trkpt><trkpt lat="59.7751719877" lon="31.1104288884"><ele>32.34</ele><time>2025-08-30T00:56:34Z</time></trkpt><trkpt lat="59.7751635220" lon="31.1103832908"><ele>33.30</ele><time>2025-08-30T00:56:45Z</time></trkpt><trkpt lat="59.7751581576" lon="31.1102944426"><ele>32.82</ele><time>2025-08-30T00:56:54Z</time></trkpt><trkpt lat="59.7751786094" lon="31.1102231964"><ele>32.82</ele><time>2025-08-30T00:57:02Z</time></trkpt><trkpt lat="59.7751626838" lon="31.1101970449"><ele>32.82</ele><time>2025-08-30T00:57:09Z</time></trkpt><trkpt lat="59.7751413938" lon="31.1102969572"><ele>31.86</ele><time>2025-08-30T00:57:18Z</time></trkpt><trkpt lat="59.7751269769" lon="31.1102547124"><ele>32.34</ele><time>2025-08-30T00:57:27Z</time></trkpt><trkpt lat="59.7751003224" lon="31.1101606674"><ele>32.82</ele><time>2025-08-30T00:57:35Z</time></trkpt><trkpt lat="59.7751051839" lon="31.1100860685"><ele>32.82</ele><time>2025-08-30T00:57:44Z</time></trkpt><trkpt lat="59.7751335148" lon="31.1100851465"><ele>32.82</ele><time>2025-08-30T00:57:58Z</time></trkpt><trkpt lat="59.7751352750" lon="31.1101533752"><ele>32.82</ele><time>2025-08-30T00:58:08Z</time></trkpt><trkpt lat="59.7751331795" lon="31.1100934446"><ele>32.34</ele><time>2025-08-30T00:58:21Z</time></trkpt><trkpt lat="59.7751185950" lon="31.1101054307"><ele>32.82</ele><time>2025-08-30T00:58:33Z</time></trkpt><trkpt lat="59.7751094587" lon="31.1100215279"><ele>32.34</ele><time>2025-08-30T00:58:43Z</time></trkpt><trkpt lat="59.7750217840" lon="31.1098589189"><ele>32.34</ele><time>2025-08-30T00:58:55Z</time></trkpt><trkpt lat="59.7750103846" lon="31.1098471843"><ele>32.34</ele><time>2025-08-30T00:58:56Z</time></trkpt><trkpt lat="59.7749420721" lon="31.1097814701"><ele>32.34</ele><time>2025-08-30T00:59:10Z</time></trkpt><trkpt lat="59.7748631984" lon="31.1096074618"><ele>32.34</ele><time>2025-08-30T00:59:23Z</time></trkpt><trkpt lat="59.7749162558" lon="31.1095489562"><ele>32.34</ele><time>2025-08-30T00:59:33Z</time></trkpt><trkpt lat="59.7750415653" lon="31.1100388784"><ele>32.82</ele><time>2025-08-30T00:59:41Z</time></trkpt><trkpt lat="59.7751243785" lon="31.1101589911"><ele>32.82</ele><time>2025-08-30T01:00:03Z</time></trkpt><trkpt lat="59.7751655336" lon="31.1101781018"><ele>32.82</ele><time>2025-08-30T01:00:13Z</time></trkpt><trkpt lat="59.7752204351" lon="31.1102183349"><ele>32.82</ele><time>2025-08-30T01:00:36Z</time></trkpt><trkpt lat="59.7752019111" lon="31.1101613380"><ele>33.78</ele><time>2025-08-30T01:00:46Z</time></trkpt><trkpt lat="59.7751727421" lon="31.1101154052"><ele>33.30</ele><time>2025-08-30T01:00:58Z</time></trkpt><trkpt lat="59.7750722431" lon="31.1100519542"><ele>33.30</ele><time>2025-08-30T01:01:09Z</time></trkpt><trkpt lat="59.7750748415" lon="31.1100232042"><ele>33.30</ele><time>2025-08-30T01:01:18Z</time></trkpt><trkpt lat="59.7750696447" lon="31.1100159120"><ele>32.82</ele><time>2025-08-30T01:01:30Z</time></trkpt><trkpt lat="59.7750249691" lon="31.1099618487"><ele>33.78</ele><time>2025-08-30T01:01:39Z</time></trkpt><trkpt lat="59.7750080377" lon="31.1099091265"><ele>33.30</ele><time>2025-08-30T01:01:46Z</time></trkpt><trkpt lat="59.7749822214" lon="31.1098792870"><ele>33.78</ele><time>2025-08-30T01:01:55Z</time></trkpt><trkpt lat="59.7749358695" lon="31.1098746769"><ele>33.30</ele><time>2025-08-30T01:02:02Z</time></trkpt><trkpt lat="59.7749333549" lon="31.1098149978"><ele>33.78</ele><time>2025-08-30T01:02:11Z</time></trkpt><trkpt lat="59.7749466822" lon="31.1097910255"><ele>33.78</ele><time>2025-08-30T01:02:20Z</time></trkpt><trkpt lat="59.7749650385" lon="31.1097647063"><ele>33.78</ele><time>2025-08-30T01:02:28Z</time></trkpt><trkpt lat="59.7749858256" lon="31.1096742656"><ele>33.78</ele><time>2025-08-30T01:02:36Z</time></trkpt><trkpt lat="59.7750144079" lon="31.1096357927"><ele>33.30</ele><time>2025-08-30T01:02:45Z</time></trkpt><trkpt lat="59.7749934532" lon="31.1095169373"><ele>33.78</ele><time>2025-08-30T01:02:53Z</time></trkpt><trkpt lat="59.7750272322" lon="31.1094720941"><ele>33.78</ele><time>2025-08-30T01:03:01Z</time></trkpt><trkpt lat="59.7750678007" lon="31.1094116606"><ele>33.78</ele><time>2025-08-30T01:03:09Z</time></trkpt><trkpt lat="59.7750885040" lon="31.1094067153"><ele>33.30</ele><time>2025-08-30T01:03:21Z</time></trkpt><trkpt lat="59.7750920244" lon="31.1093290150"><ele>33.78</ele><time>2025-08-30T01:03:30Z</time></trkpt><trkpt lat="59.7751097102" lon="31.1092602834"><ele>33.78</ele><time>2025-08-30T01:03:38Z</time></trkpt><trkpt lat="59.7751386277" lon="31.1092453636"><ele>33.78</ele><time>2025-08-30T01:03:46Z</time></trkpt><trkpt lat="59.7751806211" lon="31.1092855129"><ele>33.78</ele><time>2025-08-30T01:03:55Z</time></trkpt><trkpt lat="59.7751951218" lon="31.1091824155"><ele>34.26</ele><time>2025-08-30T01:04:05Z</time></trkpt><trkpt lat="59.7752263863" lon="31.1091440264"><ele>34.26</ele><time>2025-08-30T01:04:14Z</time></trkpt><trkpt lat="59.7752454132" lon="31.1091491394"><ele>34.26</ele><time>2025-08-30T01:04:28Z</time></trkpt><trkpt lat="59.7752471734" lon="31.1091177072"><ele>34.26</ele><time>2025-08-30T01:04:43Z</time></trkpt><trkpt lat="59.7752458323" lon="31.1090584472"><ele>34.26</ele><time>2025-08-30T01:04:51Z</time></trkpt><trkpt lat="59.7752939444" lon="31.1091028713"><ele>34.26</ele><time>2025-08-30T01:04:58Z</time></trkpt><trkpt lat="59.7752989735" lon="31.1090428568"><ele>34.74</ele><time>2025-08-30T01:05:05Z</time></trkpt><trkpt lat="59.7753024101" lon="31.1090147775"><ele>34.74</ele><time>2025-08-30T01:05:07Z</time></trkpt><trkpt lat="59.7752981354" lon="31.1089182179"><ele>34.26</ele><time>2025-08-30T01:05:14Z</time></trkpt><trkpt lat="59.7753009014" lon="31.1088490672"><ele>34.26</ele><time>2025-08-30T01:05:21Z</time></trkpt><trkpt lat="59.7753295675" lon="31.1087585427"><ele>34.26</ele><time>2025-08-30T01:05:29Z</time></trkpt><trkpt lat="59.7753330879" lon="31.1087173875"><ele>34.74</ele><time>2025-08-30T01:05:38Z</time></trkpt><trkpt lat="59.7753122170" lon="31.1086623184"><ele>34.74</ele><time>2025-08-30T01:05:54Z</time></trkpt><trkpt lat="59.7753031645" lon="31.1085688602"><ele>34.74</ele><time>2025-08-30T01:06:03Z</time></trkpt><trkpt lat="59.7753480915" lon="31.1085209996"><ele>35.23</ele><time>2025-08-30T01:06:10Z</time></trkpt><trkpt lat="59.7753795236" lon="31.1084577162"><ele>34.74</ele><time>2025-08-30T01:06:19Z</time></trkpt><trkpt lat="59.7754205950" lon="31.1084672716"><ele>35.23</ele><time>2025-08-30T01:06:26Z</time></trkpt><trkpt lat="59.7754791845" lon="31.1084982846"><ele>34.74</ele><time>2025-08-30T01:06:34Z</time></trkpt><trkpt lat="59.7755201720" lon="31.1085258611"><ele>34.74</ele><time>2025-08-30T01:06:41Z</time></trkpt><trkpt lat="59.7755283862" lon="31.1085007153"><ele>34.74</ele><time>2025-08-30T01:06:50Z</time></trkpt><trkpt lat="59.7755060066" lon="31.1084663495"><ele>34.74</ele><time>2025-08-30T01:06:59Z</time></trkpt><trkpt lat="59.7755350079" lon="31.1085115280"><ele>34.74</ele><time>2025-08-30T01:07:10Z</time></trkpt><trkpt lat="59.7755491734" lon="31.1085590534"><ele>35.71</ele><time>2025-08-30T01:07:25Z</time></trkpt><trkpt lat="59.7755470779" lon="31.1084997933"><ele>35.71</ele><time>2025-08-30T01:07:31Z</time></trkpt><trkpt lat="59.7755663563" lon="31.1084028985"><ele>35.23</ele><time>2025-08-30T01:07:37Z</time></trkpt><trkpt lat="59.7756037395" lon="31.1083633360"><ele>35.23</ele><time>2025-08-30T01:07:45Z</time></trkpt><trkpt lat="59.7756143007" lon="31.1083179060"><ele>35.71</ele><time>2025-08-30T01:07:55Z</time></trkpt><trkpt lat="59.7756099422" lon="31.1081991345"><ele>35.71</ele><time>2025-08-30T01:08:05Z</time></trkpt><trkpt lat="59.7756502591" lon="31.1081889085"><ele>35.71</ele><time>2025-08-30T01:08:22Z</time></trkpt><trkpt lat="59.7756416257" lon="31.1082053371"><ele>35.71</ele><time>2025-08-30T01:08:39Z</time></trkpt><trkpt lat="59.7756179050" lon="31.1080720648"><ele>35.71</ele><time>2025-08-30T01:08:49Z</time></trkpt><trkpt lat="59.7755792644" lon="31.1080479249"><ele>35.23</ele><time>2025-08-30T01:08:56Z</time></trkpt><trkpt lat="59.7755200882" lon="31.1080191750"><ele>35.71</ele><time>2025-08-30T01:09:05Z</time></trkpt><trkpt lat="59.7754994687" lon="31.1080064345"><ele>36.67</ele><time>2025-08-30T01:09:14Z</time></trkpt><trkpt lat="59.7754976247" lon="31.1079761758"><ele>36.67</ele><time>2025-08-30T01:09:33Z</time></trkpt><trkpt lat="59.7754602414" lon="31.1079682969"><ele>36.67</ele><time>2025-08-30T01:09:46Z</time></trkpt><trkpt lat="59.7754577268" lon="31.1079292372"><ele>36.19</ele><time>2025-08-30T01:09:53Z</time></trkpt><trkpt lat="59.7754666116" lon="31.1079187598"><ele>36.67</ele><time>2025-08-30T01:10:01Z</time></trkpt><trkpt lat="59.7754671145" lon="31.1079309974"><ele>37.15</ele><time>2025-08-30T01:10:03Z</time></trkpt><trkpt lat="59.7754362691" lon="31.1080034170"><ele>36.19</ele><time>2025-08-30T01:10:10Z</time></trkpt><trkpt lat="59.7753919289" lon="31.1080016568"><ele>36.19</ele><time>2025-08-30T01:10:19Z</time></trkpt><trkpt lat="59.7753459960" lon="31.1079945322"><ele>36.67</ele><time>2025-08-30T01:10:27Z</time></trkpt><trkpt lat="59.7753270529" lon="31.1079832166"><ele>37.15</ele><time>2025-08-30T01:10:36Z</time></trkpt><trkpt lat="59.7753153183" lon="31.1078949552"><ele>36.67</ele><time>2025-08-30T01:10:44Z</time></trkpt><trkpt lat="59.7753073554" lon="31.1077961326"><ele>36.67</ele><time>2025-08-30T01:10:52Z</time></trkpt><trkpt lat="59.7753196768" lon="31.1076890118"><ele>37.15</ele><time>2025-08-30T01:11:00Z</time></trkpt><trkpt lat="59.7752895020" lon="31.1076209508"><ele>37.15</ele><time>2025-08-30T01:11:08Z</time></trkpt><trkpt lat="59.7752584051" lon="31.1075689830"><ele>36.67</ele><time>2025-08-30T01:11:15Z</time></trkpt><trkpt lat="59.7752456646" lon="31.1074800510"><ele>36.67</ele><time>2025-08-30T01:11:23Z</time></trkpt><trkpt lat="59.7752448265" lon="31.1074286699"><ele>36.67</ele><time>2025-08-30T01:11:31Z</time></trkpt><trkpt lat="59.7752762586" lon="31.1074193660"><ele>36.19</ele><time>2025-08-30T01:11:39Z</time></trkpt><trkpt lat="59.7753318306" lon="31.1074564978"><ele>36.19</ele><time>2025-08-30T01:11:47Z</time></trkpt><trkpt lat="59.7753582336" lon="31.1074191984"><ele>37.15</ele><time>2025-08-30T01:11:54Z</time></trkpt><trkpt lat="59.7753957007" lon="31.1073604412"><ele>36.67</ele><time>2025-08-30T01:12:01Z</time></trkpt><trkpt lat="59.7754148953" lon="31.1072745267"><ele>37.15</ele><time>2025-08-30T01:12:08Z</time></trkpt><trkpt lat="59.7754360177" lon="31.1072042026"><ele>37.15</ele><time>2025-08-30T01:12:18Z</time></trkpt><trkpt lat="59.7754482552" lon="31.1072182842"><ele>36.67</ele><time>2025-08-30T01:12:27Z</time></trkpt><trkpt lat="59.7754438128" lon="31.1071661487"><ele>36.19</ele><time>2025-08-30T01:12:40Z</time></trkpt><trkpt lat="59.7754529491" lon="31.1070830841"><ele>36.67</ele><time>2025-08-30T01:12:51Z</time></trkpt><trkpt lat="59.7754848842" lon="31.1070348881"><ele>37.15</ele><time>2025-08-30T01:13:10Z</time></trkpt><trkpt lat="59.7754878178" lon="31.1070411745"><ele>36.67</ele><time>2025-08-30T01:13:17Z</time></trkpt><trkpt lat="59.7755262069" lon="31.1070284341"><ele>36.67</ele><time>2025-08-30T01:13:25Z</time></trkpt><trkpt lat="59.7755407915" lon="31.1069690064"><ele>37.15</ele><time>2025-08-30T01:13:30Z</time></trkpt><trkpt lat="59.7755153943" lon="31.1068571918"><ele>36.67</ele><time>2025-08-30T01:13:37Z</time></trkpt><trkpt lat="59.7755118739" lon="31.1067291163"><ele>36.19</ele><time>2025-08-30T01:13:44Z</time></trkpt><trkpt lat="59.7754946910" lon="31.1067063175"><ele>36.19</ele><time>2025-08-30T01:13:52Z</time></trkpt><trkpt lat="59.7754749935" lon="31.1067294516"><ele>37.15</ele><time>2025-08-30T01:14:02Z</time></trkpt><trkpt lat="59.7755000554" lon="31.1066357419"><ele>37.63</ele><time>2025-08-30T01:14:12Z</time></trkpt><trkpt lat="59.7755215131" lon="31.1064863764"><ele>37.15</ele><time>2025-08-30T01:14:20Z</time></trkpt><trkpt lat="59.7755477484" lon="31.1064231768"><ele>36.19</ele><time>2025-08-30T01:14:28Z</time></trkpt><trkpt lat="59.7755609918" lon="31.1063728854"><ele>36.19</ele><time>2025-08-30T01:14:34Z</time></trkpt><trkpt lat="59.7755199205" lon="31.1063520145"><ele>36.67</ele><time>2025-08-30T01:14:40Z</time></trkpt><trkpt lat="59.7755091079" lon="31.1063124519"><ele>37.15</ele><time>2025-08-30T01:14:47Z</time></trkpt><trkpt lat="59.7755112872" lon="31.1062544491"><ele>37.15</ele><time>2025-08-30T01:14:53Z</time></trkpt><trkpt lat="59.7755029891" lon="31.1061621644"><ele>37.15</ele><time>2025-08-30T01:15:00Z</time></trkpt><trkpt lat="59.7754979599" lon="31.1060787644"><ele>36.67</ele><time>2025-08-30T01:15:07Z</time></trkpt><trkpt lat="59.7755024862" lon="31.1059968732"><ele>36.67</ele><time>2025-08-30T01:15:21Z</time></trkpt><trkpt lat="59.7754589841" lon="31.1059744097"><ele>37.15</ele><time>2025-08-30T01:15:29Z</time></trkpt><trkpt lat="59.7753904201" lon="31.1059623398"><ele>37.63</ele><time>2025-08-30T01:15:37Z</time></trkpt><trkpt lat="59.7753678728" lon="31.1059276387"><ele>37.15</ele><time>2025-08-30T01:15:44Z</time></trkpt><trkpt lat="59.7753318306" lon="31.1059280578"><ele>37.15</ele><time>2025-08-30T01:16:02Z</time></trkpt><trkpt lat="59.7753129713" lon="31.1058949493"><ele>37.15</ele><time>2025-08-30T01:16:12Z</time></trkpt><trkpt lat="59.7753330879" lon="31.1058682110"><ele>36.67</ele><time>2025-08-30T01:16:18Z</time></trkpt><trkpt lat="59.7752999794" lon="31.1058759224"><ele>37.15</ele><time>2025-08-30T01:16:26Z</time></trkpt><trkpt lat="59.7752697207" lon="31.1059216037"><ele>36.19</ele><time>2025-08-30T01:16:32Z</time></trkpt><trkpt lat="59.7752594110" lon="31.1058841366"><ele>36.19</ele><time>2025-08-30T01:16:40Z</time></trkpt><trkpt lat="59.7752445750" lon="31.1058325041"><ele>36.19</ele><time>2025-08-30T01:16:47Z</time></trkpt><trkpt lat="59.7752169147" lon="31.1058415566"><ele>37.15</ele><time>2025-08-30T01:16:55Z</time></trkpt><trkpt lat="59.7751945350" lon="31.1058589071"><ele>37.15</ele><time>2025-08-30T01:17:03Z</time></trkpt><trkpt lat="59.7751928587" lon="31.1059188377"><ele>36.19</ele><time>2025-08-30T01:17:12Z</time></trkpt><trkpt lat="59.7751944512" lon="31.1059910897"><ele>36.67</ele><time>2025-08-30T01:17:19Z</time></trkpt><trkpt lat="59.7751872428" lon="31.1060204264"><ele>36.67</ele><time>2025-08-30T01:17:28Z</time></trkpt><trkpt lat="59.7752088681" lon="31.1059654411"><ele>37.15</ele><time>2025-08-30T01:17:35Z</time></trkpt><trkpt lat="59.7752114665" lon="31.1058834661"><ele>36.67</ele><time>2025-08-30T01:17:42Z</time></trkpt><trkpt lat="59.7751806211" lon="31.1058585718"><ele>37.15</ele><time>2025-08-30T01:17:51Z</time></trkpt><trkpt lat="59.7751372866" lon="31.1058102921"><ele>36.67</ele><time>2025-08-30T01:18:00Z</time></trkpt><trkpt lat="59.7751237080" lon="31.1057487689"><ele>37.15</ele><time>2025-08-30T01:18:09Z</time></trkpt><trkpt lat="59.7751276474" lon="31.1057113018"><ele>36.67</ele><time>2025-08-30T01:18:16Z</time></trkpt><trkpt lat="59.7751160804" lon="31.1056306679"><ele>37.15</ele><time>2025-08-30T01:18:25Z</time></trkpt><trkpt lat="59.7750756796" lon="31.1055718269"><ele>37.15</ele><time>2025-08-30T01:18:35Z</time></trkpt><trkpt lat="59.7750672139" lon="31.1055693962"><ele>37.15</ele><time>2025-08-30T01:18:41Z</time></trkpt><trkpt lat="59.7750872467" lon="31.1055628583"><ele>36.67</ele><time>2025-08-30T01:18:48Z</time></trkpt><trkpt lat="59.7751012444" lon="31.1054958031"><ele>36.67</ele><time>2025-08-30T01:18:59Z</time></trkpt><trkpt lat="59.7751077823" lon="31.1054304242"><ele>37.63</ele><time>2025-08-30T01:19:14Z</time></trkpt><trkpt lat="59.7751425672" lon="31.1053729244"><ele>37.63</ele><time>2025-08-30T01:19:22Z</time></trkpt><trkpt lat="59.7751481831" lon="31.1053135805"><ele>37.63</ele><time>2025-08-30T01:19:28Z</time></trkpt><trkpt lat="59.7751146555" lon="31.1052895244"><ele>37.15</ele><time>2025-08-30T01:19:35Z</time></trkpt><trkpt lat="59.7751019988" lon="31.1052363832"><ele>37.15</ele><time>2025-08-30T01:19:54Z</time></trkpt><trkpt lat="59.7750795353" lon="31.1051867623"><ele>36.67</ele><time>2025-08-30T01:20:08Z</time></trkpt><trkpt lat="59.7750862408" lon="31.1051279213"><ele>37.15</ele><time>2025-08-30T01:20:15Z</time></trkpt><trkpt lat="59.7751106322" lon="31.1050719302"><ele>37.15</ele><time>2025-08-30T01:20:23Z</time></trkpt><trkpt lat="59.7751216963" lon="31.1050082278"><ele>37.15</ele><time>2025-08-30T01:20:31Z</time></trkpt><trkpt lat="59.7750935331" lon="31.1049387418"><ele>37.15</ele><time>2025-08-30T01:20:39Z</time></trkpt><trkpt lat="59.7751061898" lon="31.1049163621"><ele>36.67</ele><time>2025-08-30T01:20:47Z</time></trkpt><trkpt lat="59.7751095425" lon="31.1048730277"><ele>36.67</ele><time>2025-08-30T01:20:54Z</time></trkpt><trkpt lat="59.7751224507" lon="31.1048213951"><ele>37.15</ele><time>2025-08-30T01:20:59Z</time></trkpt><trkpt lat="59.7751624323" lon="31.1048706807"><ele>37.15</ele><time>2025-08-30T01:21:08Z</time></trkpt><trkpt lat="59.7751810402" lon="31.1048610415"><ele>37.63</ele><time>2025-08-30T01:21:15Z</time></trkpt><trkpt lat="59.7751938645" lon="31.1048192997"><ele>37.63</ele><time>2025-08-30T01:21:23Z</time></trkpt><trkpt lat="59.7752040066" lon="31.1048094928"><ele>37.15</ele><time>2025-08-30T01:21:29Z</time></trkpt><trkpt lat="59.7752303258" lon="31.1047419347"><ele>37.63</ele><time>2025-08-30T01:21:37Z</time></trkpt><trkpt lat="59.7752377857" lon="31.1047147773"><ele>37.63</ele><time>2025-08-30T01:21:43Z</time></trkpt><trkpt lat="59.7752475087" lon="31.1047041323"><ele>37.63</ele><time>2025-08-30T01:21:52Z</time></trkpt><trkpt lat="59.7752786893" lon="31.1046343111"><ele>37.63</ele><time>2025-08-30T01:22:02Z</time></trkpt><trkpt lat="59.7753136419" lon="31.1046965048"><ele>38.11</ele><time>2025-08-30T01:22:18Z</time></trkpt><trkpt lat="59.7753245384" lon="31.1047056410"><ele>37.63</ele><time>2025-08-30T01:22:33Z</time></trkpt><trkpt lat="59.7753391229" lon="31.1045381706"><ele>38.11</ele><time>2025-08-30T01:22:43Z</time></trkpt><trkpt lat="59.7753402125" lon="31.1044143699"><ele>37.63</ele><time>2025-08-30T01:22:51Z</time></trkpt><trkpt lat="59.7753399611" lon="31.1043401062"><ele>37.63</ele><time>2025-08-30T01:22:58Z</time></trkpt><trkpt lat="59.7753594909" lon="31.1042451393"><ele>38.11</ele><time>2025-08-30T01:23:06Z</time></trkpt><trkpt lat="59.7753734887" lon="31.1041317321"><ele>38.11</ele><time>2025-08-30T01:23:16Z</time></trkpt><trkpt lat="59.7753501870" lon="31.1039786786"><ele>38.11</ele><time>2025-08-30T01:23:31Z</time></trkpt><trkpt lat="59.7753389552" lon="31.1039274652"><ele>38.11</ele><time>2025-08-30T01:23:38Z</time></trkpt><trkpt lat="59.7753282264" lon="31.1038182490"><ele>38.11</ele><time>2025-08-30T01:23:48Z</time></trkpt><trkpt lat="59.7753345966" lon="31.1037454102"><ele>38.11</ele><time>2025-08-30T01:23:55Z</time></trkpt><trkpt lat="59.7752836347" lon="31.1037115473"><ele>37.63</ele><time>2025-08-30T01:24:02Z</time></trkpt><trkpt lat="59.7752530407" lon="31.1036387086"><ele>37.63</ele><time>2025-08-30T01:24:09Z</time></trkpt><trkpt lat="59.7752356064" lon="31.1035506986"><ele>37.63</ele><time>2025-08-30T01:24:17Z</time></trkpt><trkpt lat="59.7752099577" lon="31.1034888402"><ele>37.63</ele><time>2025-08-30T01:24:24Z</time></trkpt><trkpt lat="59.7752026655" lon="31.1034147441"><ele>37.63</ele><time>2025-08-30T01:24:32Z</time></trkpt><trkpt lat="59.7751866560" lon="31.1033483595"><ele>36.67</ele><time>2025-08-30T01:24:39Z</time></trkpt><trkpt lat="59.7751242109" lon="31.1033186037"><ele>37.63</ele><time>2025-08-30T01:24:48Z</time></trkpt><trkpt lat="59.7750906833" lon="31.1032819748"><ele>38.11</ele><time>2025-08-30T01:24:56Z</time></trkpt><trkpt lat="59.7750513721" lon="31.1032217089"><ele>37.15</ele><time>2025-08-30T01:25:04Z</time></trkpt><trkpt lat="59.7750686388" lon="31.1032137461"><ele>37.63</ele><time>2025-08-30T01:25:10Z</time></trkpt><trkpt lat="59.7750987299" lon="31.1031310167"><ele>37.15</ele><time>2025-08-30T01:25:17Z</time></trkpt><trkpt lat="59.7750949580" lon="31.1030370556"><ele>37.63</ele><time>2025-08-30T01:25:26Z</time></trkpt><trkpt lat="59.7751025856" lon="31.1029274203"><ele>36.67</ele><time>2025-08-30T01:25:34Z</time></trkpt><trkpt lat="59.7751125600" lon="31.1028836668"><ele>37.15</ele><time>2025-08-30T01:25:43Z</time></trkpt><trkpt lat="59.7751350235" lon="31.1028794758"><ele>37.15</ele><time>2025-08-30T01:25:53Z</time></trkpt><trkpt lat="59.7751795314" lon="31.1027938966"><ele>37.15</ele><time>2025-08-30T01:26:02Z</time></trkpt><trkpt lat="59.7751973849" lon="31.1026942357"><ele>37.15</ele><time>2025-08-30T01:26:10Z</time></trkpt><trkpt lat="59.7752117179" lon="31.1026115064"><ele>36.67</ele><time>2025-08-30T01:26:18Z</time></trkpt><trkpt lat="59.7752224468" lon="31.1025265977"><ele>35.71</ele><time>2025-08-30T01:26:24Z</time></trkpt><trkpt lat="59.7752235364" lon="31.1023963429"><ele>37.15</ele><time>2025-08-30T01:26:33Z</time></trkpt><trkpt lat="59.7752384562" lon="31.1023281980"><ele>37.15</ele><time>2025-08-30T01:26:39Z</time></trkpt><trkpt lat="59.7752672900" lon="31.1023332272"><ele>37.15</ele><time>2025-08-30T01:26:46Z</time></trkpt><trkpt lat="59.7752961237" lon="31.1022298783"><ele>37.15</ele><time>2025-08-30T01:26:55Z</time></trkpt><trkpt lat="59.7752671223" lon="31.1020701192"><ele>36.67</ele><time>2025-08-30T01:27:05Z</time></trkpt><trkpt lat="59.7752677090" lon="31.1019839533"><ele>37.15</ele><time>2025-08-30T01:27:13Z</time></trkpt><trkpt lat="59.7752558067" lon="31.1018558778"><ele>37.15</ele><time>2025-08-30T01:27:22Z</time></trkpt><trkpt lat="59.7752145678" lon="31.1017583963"><ele>36.67</ele><time>2025-08-30T01:27:32Z</time></trkpt><trkpt lat="59.7752133943" lon="31.1016851384"><ele>37.15</ele><time>2025-08-30T01:27:38Z</time></trkpt><trkpt lat="59.7751880810" lon="31.1016321648"><ele>36.67</ele><time>2025-08-30T01:27:44Z</time></trkpt><trkpt lat="59.7751772683" lon="31.1015547998"><ele>36.67</ele><time>2025-08-30T01:27:52Z</time></trkpt><trkpt lat="59.7751609236" lon="31.1014637724"><ele>36.67</ele><time>2025-08-30T01:28:01Z</time></trkpt><trkpt lat="59.7752056830" lon="31.1013606749"><ele>36.67</ele><time>2025-08-30T01:28:10Z</time></trkpt><trkpt lat="59.7752371989" lon="31.1012683902"><ele>36.19</ele><time>2025-08-30T01:28:16Z</time></trkpt><trkpt lat="59.7752511129" lon="31.1012222059"><ele>36.67</ele><time>2025-08-30T01:28:23Z</time></trkpt><trkpt lat="59.7752956208" lon="31.1011507921"><ele>37.15</ele><time>2025-08-30T01:28:31Z</time></trkpt><trkpt lat="59.7753080260" lon="31.1011386383"><ele>36.67</ele><time>2025-08-30T01:28:37Z</time></trkpt><trkpt lat="59.7753182519" lon="31.1011553183"><ele>36.67</ele><time>2025-08-30T01:28:46Z</time></trkpt><trkpt lat="59.7753129713" lon="31.1011065356"><ele>36.67</ele><time>2025-08-30T01:28:56Z</time></trkpt><trkpt lat="59.7753784340" lon="31.1010637879"><ele>36.67</ele><time>2025-08-30T01:29:12Z</time></trkpt><trkpt lat="59.7753814515" lon="31.1010517180"><ele>36.19</ele><time>2025-08-30T01:29:21Z</time></trkpt><trkpt lat="59.7753835469" lon="31.1010098923"><ele>36.67</ele><time>2025-08-30T01:29:28Z</time></trkpt><trkpt lat="59.7754090279" lon="31.1010051984"><ele>36.19</ele><time>2025-08-30T01:29:34Z</time></trkpt><trkpt lat="59.7754060943" lon="31.1010004207"><ele>36.19</ele><time>2025-08-30T01:29:35Z</time></trkpt><trkpt lat="59.7753997240" lon="31.1010627821"><ele>36.19</ele><time>2025-08-30T01:29:41Z</time></trkpt><trkpt lat="59.7754047532" lon="31.1010683142"><ele>35.23</ele><time>2025-08-30T01:29:49Z</time></trkpt><trkpt lat="59.7754096147" lon="31.1010684818"><ele>34.26</ele><time>2025-08-30T01:29:55Z</time></trkpt><trkpt lat="59.7754165716" lon="31.1010659672"><ele>36.19</ele><time>2025-08-30T01:30:02Z</time></trkpt><trkpt lat="59.7754231095" lon="31.1010994948"><ele>35.23</ele><time>2025-08-30T01:30:09Z</time></trkpt><trkpt lat="59.7754229419" lon="31.1011124030"><ele>35.23</ele><time>2025-08-30T01:30:19Z</time></trkpt><trkpt lat="59.7754443157" lon="31.1010503769"><ele>35.71</ele><time>2025-08-30T01:30:27Z</time></trkpt><trkpt lat="59.7754627559" lon="31.1009919550"><ele>36.19</ele><time>2025-08-30T01:30:36Z</time></trkpt><trkpt lat="59.7754854709" lon="31.1009373888"><ele>35.71</ele><time>2025-08-30T01:30:41Z</time></trkpt><trkpt lat="59.7754873149" lon="31.1009121593"><ele>35.71</ele><time>2025-08-30T01:30:43Z</time></trkpt><trkpt lat="59.7755015641" lon="31.1008744407"><ele>36.67</ele><time>2025-08-30T01:30:49Z</time></trkpt><trkpt lat="59.7754975408" lon="31.1008771230"><ele>37.63</ele><time>2025-08-30T01:30:54Z</time></trkpt><trkpt lat="59.7754916735" lon="31.1009057052"><ele>38.11</ele><time>2025-08-30T01:30:58Z</time></trkpt><trkpt lat="59.7754762508" lon="31.1009439267"><ele>37.63</ele><time>2025-08-30T01:31:06Z</time></trkpt><trkpt lat="59.7754564695" lon="31.1009080522"><ele>38.11</ele><time>2025-08-30T01:31:13Z</time></trkpt><trkpt lat="59.7754090279" lon="31.1008640472"><ele>38.11</ele><time>2025-08-30T01:31:20Z</time></trkpt><trkpt lat="59.7754743230" lon="31.1009168532"><ele>38.59</ele><time>2025-08-30T01:31:31Z</time></trkpt><trkpt lat="59.7754858062" lon="31.1009165179"><ele>38.59</ele><time>2025-08-30T01:31:32Z</time></trkpt><trkpt lat="59.7755752411" lon="31.1009769514"><ele>38.11</ele><time>2025-08-30T01:31:41Z</time></trkpt><trkpt lat="59.7756350879" lon="31.1010252312"><ele>38.11</ele><time>2025-08-30T01:31:48Z</time></trkpt><trkpt lat="59.7757303901" lon="31.1010886822"><ele>38.59</ele><time>2025-08-30T01:31:58Z</time></trkpt><trkpt lat="59.7758397739" lon="31.1011334416"><ele>38.59</ele><time>2025-08-30T01:32:09Z</time></trkpt><trkpt lat="59.7759075835" lon="31.1011853255"><ele>38.11</ele><time>2025-08-30T01:32:17Z</time></trkpt><trkpt lat="59.7759477329" lon="31.1012203619"><ele>38.11</ele><time>2025-08-30T01:32:25Z</time></trkpt><trkpt lat="59.7759396862" lon="31.1012313422"><ele>37.63</ele><time>2025-08-30T01:32:41Z</time></trkpt><trkpt lat="59.7759119421" lon="31.1012373772"><ele>37.15</ele><time>2025-08-30T01:32:58Z</time></trkpt><trkpt lat="59.7759088408" lon="31.1012353655"><ele>36.67</ele><time>2025-08-30T01:33:10Z</time></trkpt><trkpt lat="59.7759270296" lon="31.1012672167"><ele>36.67</ele><time>2025-08-30T01:33:35Z</time></trkpt><trkpt lat="59.7759444639" lon="31.1013114732"><ele>37.15</ele><time>2025-08-30T01:33:52Z</time></trkpt><trkpt lat="59.7759518400" lon="31.1013167538"><ele>37.15</ele><time>2025-08-30T01:34:08Z</time></trkpt><trkpt lat="59.7759233415" lon="31.1013072822"><ele>37.15</ele><time>2025-08-30T01:34:30Z</time></trkpt><trkpt lat="59.7759152111" lon="31.1013195198"><ele>37.63</ele><time>2025-08-30T01:34:51Z</time></trkpt><trkpt lat="59.7759104334" lon="31.1012559012"><ele>37.63</ele><time>2025-08-30T01:35:12Z</time></trkpt><trkpt lat="59.7759416141" lon="31.1012204457"><ele>38.11</ele><time>2025-08-30T01:35:29Z</time></trkpt><trkpt lat="59.7759477329" lon="31.1012049392"><ele>38.11</ele><time>2025-08-30T01:35:52Z</time></trkpt><trkpt lat="59.7759386804" lon="31.1011770274"><ele>38.11</ele><time>2025-08-30T01:36:14Z</time></trkpt><trkpt lat="59.7759365011" lon="31.1012068670"><ele>38.11</ele><time>2025-08-30T01:36:37Z</time></trkpt><trkpt lat="59.7759365849" lon="31.1012182664"><ele>39.55</ele><time>2025-08-30T01:36:53Z</time></trkpt><trkpt lat="59.7759387642" lon="31.1012716591"><ele>39.55</ele><time>2025-08-30T01:37:15Z</time></trkpt><trkpt lat="59.7759468947" lon="31.1012686417"><ele>39.55</ele><time>2025-08-30T01:37:32Z</time></trkpt><trkpt lat="59.7759499960" lon="31.1012941226"><ele>39.55</ele><time>2025-08-30T01:37:50Z</time></trkpt><trkpt lat="59.7759542707" lon="31.1013111379"><ele>39.55</ele><time>2025-08-30T01:38:06Z</time></trkpt><trkpt lat="59.7759612277" lon="31.1013047677"><ele>39.55</ele><time>2025-08-30T01:38:20Z</time></trkpt><trkpt lat="59.7759450506" lon="31.1012816336"><ele>40.51</ele><time>2025-08-30T01:38:34Z</time></trkpt><trkpt lat="59.7759417817" lon="31.1012921110"><ele>39.07</ele><time>2025-08-30T01:38:44Z</time></trkpt><trkpt lat="59.7759412788" lon="31.1012935359"><ele>39.07</ele><time>2025-08-30T01:38:45Z</time></trkpt><trkpt lat="59.7759307176" lon="31.1013761815"><ele>39.55</ele><time>2025-08-30T01:38:51Z</time></trkpt><trkpt lat="59.7759200726" lon="31.1014076974"><ele>39.07</ele><time>2025-08-30T01:38:58Z</time></trkpt><trkpt lat="59.7759209108" lon="31.1014788598"><ele>38.59</ele><time>2025-08-30T01:39:05Z</time></trkpt><trkpt lat="59.7759229224" lon="31.1015573144"><ele>39.07</ele><time>2025-08-30T01:39:13Z</time></trkpt><trkpt lat="59.7759356629" lon="31.1016060971"><ele>39.07</ele><time>2025-08-30T01:39:20Z</time></trkpt><trkpt lat="59.7759085055" lon="31.1016872339"><ele>38.59</ele><time>2025-08-30T01:39:28Z</time></trkpt><trkpt lat="59.7758779116" lon="31.1017254554"><ele>39.07</ele><time>2025-08-30T01:39:36Z</time></trkpt><trkpt lat="59.7758889757" lon="31.1017695442"><ele>39.07</ele><time>2025-08-30T01:39:46Z</time></trkpt><trkpt lat="59.7758624051" lon="31.1018174887"><ele>39.07</ele><time>2025-08-30T01:39:53Z</time></trkpt><trkpt lat="59.7758102696" lon="31.1018856335"><ele>38.59</ele><time>2025-08-30T01:40:01Z</time></trkpt><trkpt lat="59.7758005466" lon="31.1019116174"><ele>38.59</ele><time>2025-08-30T01:40:11Z</time></trkpt><trkpt lat="59.7757797595" lon="31.1020008847"><ele>39.07</ele><time>2025-08-30T01:40:19Z</time></trkpt><trkpt lat="59.7757603135" lon="31.1021373421"><ele>39.07</ele><time>2025-08-30T01:40:27Z</time></trkpt><trkpt lat="59.7757785022" lon="31.1022926588"><ele>38.11</ele><time>2025-08-30T01:40:37Z</time></trkpt><trkpt lat="59.7757655103" lon="31.1023963429"><ele>38.59</ele><time>2025-08-30T01:40:44Z</time></trkpt><trkpt lat="59.7757745627" lon="31.1025103368"><ele>39.07</ele><time>2025-08-30T01:40:52Z</time></trkpt><trkpt lat="59.7757559549" lon="31.1025474686"><ele>39.07</ele><time>2025-08-30T01:40:59Z</time></trkpt><trkpt lat="59.7757673543" lon="31.1025891267"><ele>39.07</ele><time>2025-08-30T01:41:10Z</time></trkpt><trkpt lat="59.7757885605" lon="31.1026749574"><ele>39.07</ele><time>2025-08-30T01:41:22Z</time></trkpt><trkpt lat="59.7758095153" lon="31.1027239077"><ele>39.07</ele><time>2025-08-30T01:41:29Z</time></trkpt><trkpt lat="59.7757941764" lon="31.1028340459"><ele>39.07</ele><time>2025-08-30T01:41:37Z</time></trkpt><trkpt lat="59.7758055758" lon="31.1028955691"><ele>39.07</ele><time>2025-08-30T01:41:45Z</time></trkpt><trkpt lat="59.7758220043" lon="31.1029519793"><ele>38.11</ele><time>2025-08-30T01:41:52Z</time></trkpt><trkpt lat="59.7758495808" lon="31.1030697450"><ele>38.11</ele><time>2025-08-30T01:42:00Z</time></trkpt><trkpt lat="59.7758498322" lon="31.1031877622"><ele>38.11</ele><time>2025-08-30T01:42:08Z</time></trkpt><trkpt lat="59.7758678533" lon="31.1033249740"><ele>39.07</ele><time>2025-08-30T01:42:17Z</time></trkpt><trkpt lat="59.7758847009" lon="31.1034156661"><ele>38.59</ele><time>2025-08-30T01:42:25Z</time></trkpt><trkpt lat="59.7758974414" lon="31.1034388840"><ele>38.59</ele><time>2025-08-30T01:42:33Z</time></trkpt><trkpt lat="59.7759377584" lon="31.1035051011"><ele>38.59</ele><time>2025-08-30T01:42:40Z</time></trkpt><trkpt lat="59.7759376746" lon="31.1036065221"><ele>38.11</ele><time>2025-08-30T01:42:48Z</time></trkpt><trkpt lat="59.7759720404" lon="31.1036926042"><ele>38.59</ele><time>2025-08-30T01:42:55Z</time></trkpt><trkpt lat="59.7759914026" lon="31.1038169917"><ele>38.11</ele><time>2025-08-30T01:43:05Z</time></trkpt><trkpt lat="59.7760064900" lon="31.1038764194"><ele>38.11</ele><time>2025-08-30T01:43:12Z</time></trkpt><trkpt lat="59.7760231700" lon="31.1039623339"><ele>38.11</ele><time>2025-08-30T01:43:21Z</time></trkpt><trkpt lat="59.7760544345" lon="31.1041247752"><ele>38.11</ele><time>2025-08-30T01:43:30Z</time></trkpt><trkpt lat="59.7760091722" lon="31.1042041518"><ele>38.59</ele><time>2025-08-30T01:43:39Z</time></trkpt><trkpt lat="59.7759636585" lon="31.1042594723"><ele>38.11</ele><time>2025-08-30T01:43:51Z</time></trkpt><trkpt lat="59.7759518400" lon="31.1042730510"><ele>37.63</ele><time>2025-08-30T01:43:59Z</time></trkpt><trkpt lat="59.7759911511" lon="31.1043529306"><ele>38.11</ele><time>2025-08-30T01:44:10Z</time></trkpt><trkpt lat="59.7759732138" lon="31.1043251026"><ele>38.11</ele><time>2025-08-30T01:44:20Z</time></trkpt><trkpt lat="59.7759670950" lon="31.1044096760"><ele>38.59</ele><time>2025-08-30T01:44:27Z</time></trkpt><trkpt lat="59.7759735491" lon="31.1044933274"><ele>37.63</ele><time>2025-08-30T01:44:35Z</time></trkpt><trkpt lat="59.7759869602" lon="31.1045846064"><ele>37.63</ele><time>2025-08-30T01:44:43Z</time></trkpt><trkpt lat="59.7760278638" lon="31.1046920624"><ele>37.63</ele><time>2025-08-30T01:44:51Z</time></trkpt><trkpt lat="59.7759805899" lon="31.1048400868"><ele>37.63</ele><time>2025-08-30T01:45:00Z</time></trkpt><trkpt lat="59.7759413626" lon="31.1048999336"><ele>37.63</ele><time>2025-08-30T01:45:08Z</time></trkpt><trkpt lat="59.7759409435" lon="31.1049986724"><ele>37.63</ele><time>2025-08-30T01:45:18Z</time></trkpt><trkpt lat="59.7759790812" lon="31.1050500534"><ele>37.15</ele><time>2025-08-30T01:45:25Z</time></trkpt><trkpt lat="59.7759976052" lon="31.1051269155"><ele>37.63</ele><time>2025-08-30T01:45:32Z</time></trkpt><trkpt lat="59.7759954259" lon="31.1051172763"><ele>37.15</ele><time>2025-08-30T01:45:42Z</time></trkpt><trkpt lat="59.7759803385" lon="31.1051345430"><ele>37.15</ele><time>2025-08-30T01:45:56Z</time></trkpt><trkpt lat="59.7760131117" lon="31.1051674001"><ele>37.15</ele><time>2025-08-30T01:46:10Z</time></trkpt><trkpt lat="59.7760529257" lon="31.1052621156"><ele>37.15</ele><time>2025-08-30T01:46:20Z</time></trkpt><trkpt lat="59.7760307975" lon="31.1053919513"><ele>36.67</ele><time>2025-08-30T01:46:28Z</time></trkpt><trkpt lat="59.7760561109" lon="31.1054766085"><ele>36.67</ele><time>2025-08-30T01:46:35Z</time></trkpt><trkpt lat="59.7760510817" lon="31.1055543926"><ele>36.67</ele><time>2025-08-30T01:46:44Z</time></trkpt><trkpt lat="59.7760330606" lon="31.1056641955"><ele>36.67</ele><time>2025-08-30T01:46:51Z</time></trkpt><trkpt lat="59.7760440409" lon="31.1057560612"><ele>36.19</ele><time>2025-08-30T01:47:00Z</time></trkpt><trkpt lat="59.7760601342" lon="31.1058664508"><ele>36.67</ele><time>2025-08-30T01:47:09Z</time></trkpt><trkpt lat="59.7761329729" lon="31.1059017386"><ele>36.67</ele><time>2025-08-30T01:47:18Z</time></trkpt><trkpt lat="59.7761897184" lon="31.1059997231"><ele>36.19</ele><time>2025-08-30T01:47:26Z</time></trkpt><trkpt lat="59.7761881258" lon="31.1061381083"><ele>35.71</ele><time>2025-08-30T01:47:33Z</time></trkpt><trkpt lat="59.7761975974" lon="31.1063000467"><ele>35.23</ele><time>2025-08-30T01:47:43Z</time></trkpt><trkpt lat="59.7762236651" lon="31.1063807644"><ele>35.71</ele><time>2025-08-30T01:47:52Z</time></trkpt><trkpt lat="59.7762297001" lon="31.1064519268"><ele>35.23</ele><time>2025-08-30T01:48:00Z</time></trkpt><trkpt lat="59.7761954181" lon="31.1064590514"><ele>35.71</ele><time>2025-08-30T01:48:08Z</time></trkpt><trkpt lat="59.7761452943" lon="31.1065470614"><ele>35.23</ele><time>2025-08-30T01:48:18Z</time></trkpt><trkpt lat="59.7761195619" lon="31.1066420283"><ele>35.71</ele><time>2025-08-30T01:48:28Z</time></trkpt><trkpt lat="59.7760876268" lon="31.1066950858"><ele>35.71</ele><time>2025-08-30T01:48:38Z</time></trkpt><trkpt lat="59.7760880459" lon="31.1067989375"><ele>34.74</ele><time>2025-08-30T01:48:46Z</time></trkpt><trkpt lat="59.7760744672" lon="31.1069601215"><ele>35.23</ele><time>2025-08-30T01:48:56Z</time></trkpt><trkpt lat="59.7760554403" lon="31.1071173660"><ele>35.23</ele><time>2025-08-30T01:49:05Z</time></trkpt><trkpt lat="59.7760623135" lon="31.1071008537"><ele>36.19</ele><time>2025-08-30T01:49:18Z</time></trkpt><trkpt lat="59.7760295402" lon="31.1071347166"><ele>35.71</ele><time>2025-08-30T01:49:31Z</time></trkpt><trkpt lat="59.7760285344" lon="31.1072905362"><ele>35.71</ele><time>2025-08-30T01:49:41Z</time></trkpt><trkpt lat="59.7760477290" lon="31.1074074637"><ele>36.19</ele><time>2025-08-30T01:49:49Z</time></trkpt><trkpt lat="59.7760395147" lon="31.1075429991"><ele>36.19</ele><time>2025-08-30T01:49:58Z</time></trkpt><trkpt lat="59.7760444600" lon="31.1076654587"><ele>36.19</ele><time>2025-08-30T01:50:05Z</time></trkpt><trkpt lat="59.7760253493" lon="31.1078922730"><ele>36.19</ele><time>2025-08-30T01:50:16Z</time></trkpt><trkpt lat="59.7760061547" lon="31.1080214381"><ele>35.71</ele><time>2025-08-30T01:50:25Z</time></trkpt><trkpt lat="59.7760018799" lon="31.1080536246"><ele>36.19</ele><time>2025-08-30T01:50:38Z</time></trkpt><trkpt lat="59.7760096751" lon="31.1082303990"><ele>36.19</ele><time>2025-08-30T01:50:50Z</time></trkpt><trkpt lat="59.7759976890" lon="31.1083726399"><ele>36.19</ele><time>2025-08-30T01:51:01Z</time></trkpt><trkpt lat="59.7759935819" lon="31.1084701214"><ele>36.19</ele><time>2025-08-30T01:51:10Z</time></trkpt><trkpt lat="59.7759997845" lon="31.1085510068"><ele>36.19</ele><time>2025-08-30T01:51:17Z</time></trkpt><trkpt lat="59.7759505827" lon="31.1086376756"><ele>36.19</ele><time>2025-08-30T01:51:25Z</time></trkpt><trkpt lat="59.7759086732" lon="31.1086955946"><ele>36.19</ele><time>2025-08-30T01:51:32Z</time></trkpt><trkpt lat="59.7759065777" lon="31.1087490711"><ele>36.19</ele><time>2025-08-30T01:51:38Z</time></trkpt><trkpt lat="59.7759023029" lon="31.1087564472"><ele>36.19</ele><time>2025-08-30T01:51:39Z</time></trkpt><trkpt lat="59.7758833598" lon="31.1088909768"><ele>35.23</ele><time>2025-08-30T01:51:46Z</time></trkpt><trkpt lat="59.7759240959" lon="31.1090024561"><ele>36.19</ele><time>2025-08-30T01:51:55Z</time></trkpt><trkpt lat="59.7759697773" lon="31.1091706809"><ele>35.71</ele><time>2025-08-30T01:52:03Z</time></trkpt><trkpt lat="59.7760152910" lon="31.1092502251"><ele>36.19</ele><time>2025-08-30T01:52:12Z</time></trkpt><trkpt lat="59.7760613076" lon="31.1092439387"><ele>35.71</ele><time>2025-08-30T01:52:19Z</time></trkpt><trkpt lat="59.7760887165" lon="31.1092929728"><ele>35.71</ele><time>2025-08-30T01:52:31Z</time></trkpt><trkpt lat="59.7761054803" lon="31.1093114968"><ele>35.23</ele><time>2025-08-30T01:52:44Z</time></trkpt><trkpt lat="59.7761072405" lon="31.1093347147"><ele>35.71</ele><time>2025-08-30T01:52:55Z</time></trkpt><trkpt lat="59.7761053964" lon="31.1093195435"><ele>35.23</ele><time>2025-08-30T01:53:10Z</time></trkpt><trkpt lat="59.7761251777" lon="31.1093847547"><ele>34.74</ele><time>2025-08-30T01:53:24Z</time></trkpt><trkpt lat="59.7761454619" lon="31.1094670650"><ele>34.74</ele><time>2025-08-30T01:53:33Z</time></trkpt><trkpt lat="59.7761608846" lon="31.1095641274"><ele>34.74</ele><time>2025-08-30T01:53:41Z</time></trkpt><trkpt lat="59.7761907242" lon="31.1096585914"><ele>34.74</ele><time>2025-08-30T01:53:48Z</time></trkpt><trkpt lat="59.7762338072" lon="31.1096806359"><ele>35.23</ele><time>2025-08-30T01:53:56Z</time></trkpt><trkpt lat="59.7762605455" lon="31.1096715834"><ele>34.74</ele><time>2025-08-30T01:54:04Z</time></trkpt><trkpt lat="59.7762495652" lon="31.1096783727"><ele>34.74</ele><time>2025-08-30T01:54:14Z</time></trkpt><trkpt lat="59.7762283590" lon="31.1096232198"><ele>34.74</ele><time>2025-08-30T01:54:24Z</time></trkpt><trkpt lat="59.7762196418" lon="31.1095829867"><ele>35.23</ele><time>2025-08-30T01:54:34Z</time></trkpt><trkpt lat="59.7761737928" lon="31.1095411610"><ele>35.23</ele><time>2025-08-30T01:54:42Z</time></trkpt><trkpt lat="59.7761401813" lon="31.1095304321"><ele>35.23</ele><time>2025-08-30T01:54:49Z</time></trkpt><trkpt lat="59.7761239205" lon="31.1095912848"><ele>35.23</ele><time>2025-08-30T01:54:55Z</time></trkpt><trkpt lat="59.7761359066" lon="31.1096497066"><ele>35.23</ele><time>2025-08-30T01:55:01Z</time></trkpt><trkpt lat="59.7761193942" lon="31.1097013392"><ele>35.23</ele><time>2025-08-30T01:55:07Z</time></trkpt><trkpt lat="59.7760960925" lon="31.1096630339"><ele>35.23</ele><time>2025-08-30T01:55:14Z</time></trkpt><trkpt lat="59.7760452982" lon="31.1096436717"><ele>35.23</ele><time>2025-08-30T01:55:21Z</time></trkpt><trkpt lat="59.7760164645" lon="31.1096413247"><ele>35.23</ele><time>2025-08-30T01:55:27Z</time></trkpt><trkpt lat="59.7759826016" lon="31.1097053625"><ele>35.71</ele><time>2025-08-30T01:55:33Z</time></trkpt><trkpt lat="59.7760086693" lon="31.1097994912"><ele>35.71</ele><time>2025-08-30T01:55:39Z</time></trkpt><trkpt lat="59.7759812605" lon="31.1099214479"><ele>35.23</ele><time>2025-08-30T01:55:48Z</time></trkpt><trkpt lat="59.7759798355" lon="31.1099657044"><ele>35.71</ele><time>2025-08-30T01:55:56Z</time></trkpt><trkpt lat="59.7759628203" lon="31.1099131498"><ele>35.71</ele><time>2025-08-30T01:56:16Z</time></trkpt><trkpt lat="59.7759634908" lon="31.1099504493"><ele>35.71</ele><time>2025-08-30T01:56:27Z</time></trkpt><trkpt lat="59.7759814281" lon="31.1100491881"><ele>35.23</ele><time>2025-08-30T01:56:34Z</time></trkpt><trkpt lat="59.7759643290" lon="31.1101933569"><ele>34.74</ele><time>2025-08-30T01:56:43Z</time></trkpt><trkpt lat="59.7759400215" lon="31.1103009805"><ele>35.23</ele><time>2025-08-30T01:56:52Z</time></trkpt><trkpt lat="59.7759443801" lon="31.1103966180"><ele>34.74</ele><time>2025-08-30T01:56:58Z</time></trkpt><trkpt lat="59.7759473976" lon="31.1104452331"><ele>34.74</ele><time>2025-08-30T01:57:05Z</time></trkpt><trkpt lat="59.7759147920" lon="31.1105689500"><ele>35.23</ele><time>2025-08-30T01:57:12Z</time></trkpt><trkpt lat="59.7759132832" lon="31.1106448900"><ele>34.74</ele><time>2025-08-30T01:57:18Z</time></trkpt><trkpt lat="59.7759220004" lon="31.1107582133"><ele>34.74</ele><time>2025-08-30T01:57:25Z</time></trkpt><trkpt lat="59.7759155463" lon="31.1108226702"><ele>34.74</ele><time>2025-08-30T01:57:33Z</time></trkpt><trkpt lat="59.7759056557" lon="31.1108508334"><ele>35.23</ele><time>2025-08-30T01:57:39Z</time></trkpt><trkpt lat="59.7759047337" lon="31.1109028012"><ele>34.74</ele><time>2025-08-30T01:57:45Z</time></trkpt><trkpt lat="59.7758712061" lon="31.1109208222"><ele>34.74</ele><time>2025-08-30T01:57:53Z</time></trkpt><trkpt lat="59.7758448031" lon="31.1109292880"><ele>34.26</ele><time>2025-08-30T01:57:59Z</time></trkpt><trkpt lat="59.7758427076" lon="31.1108923238"><ele>34.74</ele><time>2025-08-30T01:58:14Z</time></trkpt><trkpt lat="59.7758056596" lon="31.1108753085"><ele>35.23</ele><time>2025-08-30T01:58:25Z</time></trkpt><trkpt lat="59.7757632472" lon="31.1108706985"><ele>34.74</ele><time>2025-08-30T01:58:31Z</time></trkpt><trkpt lat="59.7757222597" lon="31.1108815111"><ele>34.74</ele><time>2025-08-30T01:58:38Z</time></trkpt><trkpt lat="59.7756907437" lon="31.1109689344"><ele>34.74</ele><time>2025-08-30T01:58:45Z</time></trkpt><trkpt lat="59.7756668553" lon="31.1111044697"><ele>35.23</ele><time>2025-08-30T01:58:53Z</time></trkpt><trkpt lat="59.7756371833" lon="31.1111343931"><ele>35.71</ele><time>2025-08-30T01:59:01Z</time></trkpt><trkpt lat="59.7756248619" lon="31.1111559346"><ele>35.71</ele><time>2025-08-30T01:59:08Z</time></trkpt><trkpt lat="59.7756164800" lon="31.1112239119"><ele>34.74</ele><time>2025-08-30T01:59:16Z</time></trkpt><trkpt lat="59.7756031528" lon="31.1112528294"><ele>34.74</ele><time>2025-08-30T01:59:25Z</time></trkpt><trkpt lat="59.7756106965" lon="31.1111958325"><ele>35.23</ele><time>2025-08-30T01:59:35Z</time></trkpt><trkpt lat="59.7756058350" lon="31.1111763027"><ele>34.26</ele><time>2025-08-30T01:59:44Z</time></trkpt><trkpt lat="59.7756132111" lon="31.1112367362"><ele>34.26</ele><time>2025-08-30T01:59:57Z</time></trkpt><trkpt lat="59.7756243590" lon="31.1113566812"><ele>34.74</ele><time>2025-08-30T02:00:04Z</time></trkpt><trkpt lat="59.7756293882" lon="31.1115334556"><ele>34.74</ele><time>2025-08-30T02:00:12Z</time></trkpt><trkpt lat="59.7756499238" lon="31.1116125807"><ele>34.74</ele><time>2025-08-30T02:00:18Z</time></trkpt><trkpt lat="59.7756614070" lon="31.1117195338"><ele>34.74</ele><time>2025-08-30T02:00:28Z</time></trkpt><trkpt lat="59.7756517678" lon="31.1117330287"><ele>34.74</ele><time>2025-08-30T02:00:31Z</time></trkpt><trkpt lat="59.7756224312" lon="31.1118415743"><ele>34.74</ele><time>2025-08-30T02:00:39Z</time></trkpt><trkpt lat="59.7756445594" lon="31.1119117308"><ele>34.74</ele><time>2025-08-30T02:00:45Z</time></trkpt><trkpt lat="59.7756453138" lon="31.1119589210"><ele>34.74</ele><time>2025-08-30T02:00:51Z</time></trkpt><trkpt lat="59.7756594792" lon="31.1120323464"><ele>34.74</ele><time>2025-08-30T02:00:58Z</time></trkpt><trkpt lat="59.7756705433" lon="31.1120324302"><ele>34.26</ele><time>2025-08-30T02:01:04Z</time></trkpt><trkpt lat="59.7757050768" lon="31.1120877508"><ele>34.74</ele><time>2025-08-30T02:01:10Z</time></trkpt><trkpt lat="59.7757605650" lon="31.1120511219"><ele>34.74</ele><time>2025-08-30T02:01:17Z</time></trkpt><trkpt lat="59.7757974453" lon="31.1120129842"><ele>34.74</ele><time>2025-08-30T02:01:24Z</time></trkpt><trkpt lat="59.7758409474" lon="31.1119879223"><ele>34.74</ele><time>2025-08-30T02:01:32Z</time></trkpt><trkpt lat="59.7759043984" lon="31.1119153351"><ele>34.74</ele><time>2025-08-30T02:01:42Z</time></trkpt><trkpt lat="59.7759602219" lon="31.1119435821"><ele>35.23</ele><time>2025-08-30T02:01:51Z</time></trkpt><trkpt lat="59.7760206554" lon="31.1119799595"><ele>34.74</ele><time>2025-08-30T02:01:59Z</time></trkpt><trkpt lat="59.7760589607" lon="31.1120590009"><ele>34.74</ele><time>2025-08-30T02:02:07Z</time></trkpt><trkpt lat="59.7760618944" lon="31.1120797880"><ele>34.74</ele><time>2025-08-30T02:02:17Z</time></trkpt><trkpt lat="59.7760514170" lon="31.1121061072"><ele>34.74</ele><time>2025-08-30T02:02:36Z</time></trkpt><trkpt lat="59.7760756407" lon="31.1121482681"><ele>34.74</ele><time>2025-08-30T02:02:43Z</time></trkpt><trkpt lat="59.7761278600" lon="31.1121864058"><ele>34.74</ele><time>2025-08-30T02:02:50Z</time></trkpt><trkpt lat="59.7761628963" lon="31.1122299917"><ele>34.26</ele><time>2025-08-30T02:02:58Z</time></trkpt><trkpt lat="59.7761904728" lon="31.1122886650"><ele>34.74</ele><time>2025-08-30T02:03:06Z</time></trkpt><trkpt lat="59.7762131877" lon="31.1122499406"><ele>35.23</ele><time>2025-08-30T02:03:12Z</time></trkpt><trkpt lat="59.7762473021" lon="31.1121907644"><ele>35.23</ele><time>2025-08-30T02:03:24Z</time></trkpt><trkpt lat="59.7763066459" lon="31.1121178418"><ele>34.74</ele><time>2025-08-30T02:03:33Z</time></trkpt><trkpt lat="59.7763339709" lon="31.1120767705"><ele>34.26</ele><time>2025-08-30T02:03:37Z</time></trkpt><trkpt lat="59.7763863578" lon="31.1120140739"><ele>34.74</ele><time>2025-08-30T02:03:44Z</time></trkpt><trkpt lat="59.7764719371" lon="31.1119479407"><ele>34.74</ele><time>2025-08-30T02:03:52Z</time></trkpt><trkpt lat="59.7765635513" lon="31.1118631158"><ele>34.26</ele><time>2025-08-30T02:04:00Z</time></trkpt><trkpt lat="59.7766345460" lon="31.1117637902"><ele>34.26</ele><time>2025-08-30T02:04:08Z</time></trkpt><trkpt lat="59.7766808979" lon="31.1116899457"><ele>34.74</ele><time>2025-08-30T02:04:15Z</time></trkpt><trkpt lat="59.7767336201" lon="31.1115700006"><ele>34.26</ele><time>2025-08-30T02:04:22Z</time></trkpt><trkpt lat="59.7767562512" lon="31.1115121655"><ele>34.26</ele><time>2025-08-30T02:04:29Z</time></trkpt><trkpt lat="59.7767730150" lon="31.1114520673"><ele>34.26</ele><time>2025-08-30T02:04:38Z</time></trkpt><trkpt lat="59.7767470311" lon="31.1114065535"><ele>34.26</ele><time>2025-08-30T02:04:54Z</time></trkpt><trkpt lat="59.7767558321" lon="31.1114082299"><ele>34.26</ele><time>2025-08-30T02:05:11Z</time></trkpt><trkpt lat="59.7767865099" lon="31.1113721039"><ele>34.74</ele><time>2025-08-30T02:05:30Z</time></trkpt><trkpt lat="59.7767672315" lon="31.1113292724"><ele>34.74</ele><time>2025-08-30T02:05:39Z</time></trkpt><trkpt lat="59.7767221369" lon="31.1112442799"><ele>34.74</ele><time>2025-08-30T02:05:48Z</time></trkpt><trkpt lat="59.7767249029" lon="31.1111106724"><ele>34.74</ele><time>2025-08-30T02:05:57Z</time></trkpt><trkpt lat="59.7766793054" lon="31.1110397615"><ele>35.71</ele><time>2025-08-30T02:06:03Z</time></trkpt><trkpt lat="59.7766168602" lon="31.1109718680"><ele>35.23</ele><time>2025-08-30T02:06:11Z</time></trkpt><trkpt lat="59.7765689157" lon="31.1109401006"><ele>35.23</ele><time>2025-08-30T02:06:19Z</time></trkpt><trkpt lat="59.7765409201" lon="31.1109074112"><ele>35.23</ele><time>2025-08-30T02:06:27Z</time></trkpt><trkpt lat="59.7765248269" lon="31.1109023821"><ele>34.26</ele><time>2025-08-30T02:06:35Z</time></trkpt><trkpt lat="59.7765168641" lon="31.1108415294"><ele>35.23</ele><time>2025-08-30T02:06:43Z</time></trkpt><trkpt lat="59.7765393276" lon="31.1107391864"><ele>35.23</ele><time>2025-08-30T02:06:52Z</time></trkpt><trkpt lat="59.7765550856" lon="31.1106181517"><ele>35.23</ele><time>2025-08-30T02:06:59Z</time></trkpt><trkpt lat="59.7765854280" lon="31.1106090154"><ele>35.23</ele><time>2025-08-30T02:07:08Z</time></trkpt><trkpt lat="59.7766396590" lon="31.1106496677"><ele>34.74</ele><time>2025-08-30T02:07:29Z</time></trkpt><trkpt lat="59.7766270023" lon="31.1105916649"><ele>35.23</ele><time>2025-08-30T02:07:36Z</time></trkpt><trkpt lat="59.7766334563" lon="31.1105865519"><ele>35.23</ele><time>2025-08-30T02:07:45Z</time></trkpt><trkpt lat="59.7766085621" lon="31.1104930937"><ele>35.23</ele><time>2025-08-30T02:07:53Z</time></trkpt><trkpt lat="59.7766280081" lon="31.1104702111"><ele>35.23</ele><time>2025-08-30T02:08:00Z</time></trkpt><trkpt lat="59.7766648047" lon="31.1104845442"><ele>35.23</ele><time>2025-08-30T02:08:07Z</time></trkpt><trkpt lat="59.7766868491" lon="31.1103671137"><ele>35.23</ele><time>2025-08-30T02:08:17Z</time></trkpt><trkpt lat="59.7767320275" lon="31.1103034951"><ele>35.23</ele><time>2025-08-30T02:08:28Z</time></trkpt><trkpt lat="59.7767669801" lon="31.1102828756"><ele>34.74</ele><time>2025-08-30T02:08:35Z</time></trkpt><trkpt lat="59.7768071294" lon="31.1102808639"><ele>35.23</ele><time>2025-08-30T02:08:44Z</time></trkpt><trkpt lat="59.7768488713" lon="31.1102215201"><ele>34.74</ele><time>2025-08-30T02:08:51Z</time></trkpt><trkpt lat="59.7768500447" lon="31.1101254635"><ele>34.26</ele><time>2025-08-30T02:08:58Z</time></trkpt><trkpt lat="59.7768108174" lon="31.1100351904"><ele>34.26</ele><time>2025-08-30T02:09:07Z</time></trkpt><trkpt lat="59.7767878510" lon="31.1100155767"><ele>33.78</ele><time>2025-08-30T02:09:16Z</time></trkpt><trkpt lat="59.7767753620" lon="31.1100092065"><ele>33.78</ele><time>2025-08-30T02:09:24Z</time></trkpt><trkpt lat="59.7767744400" lon="31.1099024210"><ele>35.23</ele><time>2025-08-30T02:09:33Z</time></trkpt><trkpt lat="59.7767138388" lon="31.1098143272"><ele>35.23</ele><time>2025-08-30T02:09:41Z</time></trkpt><trkpt lat="59.7767405771" lon="31.1097738426"><ele>35.23</ele><time>2025-08-30T02:09:49Z</time></trkpt><trkpt lat="59.7767528147" lon="31.1097344477"><ele>35.71</ele><time>2025-08-30T02:09:58Z</time></trkpt><trkpt lat="59.7767686564" lon="31.1097583361"><ele>34.74</ele><time>2025-08-30T02:10:13Z</time></trkpt><trkpt lat="59.7767774574" lon="31.1096440908"><ele>35.23</ele><time>2025-08-30T02:10:24Z</time></trkpt><trkpt lat="59.7767317761" lon="31.1095362995"><ele>35.71</ele><time>2025-08-30T02:10:32Z</time></trkpt><trkpt lat="59.7767269146" lon="31.1094671488"><ele>35.71</ele><time>2025-08-30T02:10:40Z</time></trkpt><trkpt lat="59.7767285910" lon="31.1094313581"><ele>35.71</ele><time>2025-08-30T02:10:49Z</time></trkpt><trkpt lat="59.7767382301" lon="31.1094161030"><ele>36.19</ele><time>2025-08-30T02:11:03Z</time></trkpt><trkpt lat="59.7767423373" lon="31.1093565077"><ele>36.19</ele><time>2025-08-30T02:11:10Z</time></trkpt><trkpt lat="59.7767673153" lon="31.1092997622"><ele>35.71</ele><time>2025-08-30T02:11:17Z</time></trkpt><trkpt lat="59.7767434269" lon="31.1092245765"><ele>36.19</ele><time>2025-08-30T02:11:25Z</time></trkpt><trkpt lat="59.7767457739" lon="31.1091623828"><ele>35.71</ele><time>2025-08-30T02:11:31Z</time></trkpt><trkpt lat="59.7767280042" lon="31.1090277694"><ele>36.19</ele><time>2025-08-30T02:11:41Z</time></trkpt><trkpt lat="59.7767398227" lon="31.1090175435"><ele>36.19</ele><time>2025-08-30T02:11:59Z</time></trkpt><trkpt lat="59.7767407447" lon="31.1089778133"><ele>36.19</ele><time>2025-08-30T02:12:18Z</time></trkpt><trkpt lat="59.7766758688" lon="31.1089738738"><ele>36.19</ele><time>2025-08-30T02:12:28Z</time></trkpt><trkpt lat="59.7766464483" lon="31.1089167092"><ele>36.67</ele><time>2025-08-30T02:12:39Z</time></trkpt><trkpt lat="59.7766299360" lon="31.1088524200"><ele>36.67</ele><time>2025-08-30T02:12:44Z</time></trkpt><trkpt lat="59.7765752859" lon="31.1087687686"><ele>36.67</ele><time>2025-08-30T02:12:51Z</time></trkpt><trkpt lat="59.7765661497" lon="31.1087119393"><ele>36.19</ele><time>2025-08-30T02:12:59Z</time></trkpt><trkpt lat="59.7765679937" lon="31.1086187325"><ele>36.19</ele><time>2025-08-30T02:13:06Z</time></trkpt><trkpt lat="59.7765832487" lon="31.1085488275"><ele>36.67</ele><time>2025-08-30T02:13:16Z</time></trkpt><trkpt lat="59.7766077239" lon="31.1084246077"><ele>36.67</ele><time>2025-08-30T02:13:24Z</time></trkpt><trkpt lat="59.7766251583" lon="31.1083903257"><ele>36.67</ele><time>2025-08-30T02:13:32Z</time></trkpt><trkpt lat="59.7766513936" lon="31.1082854681"><ele>37.15</ele><time>2025-08-30T02:13:43Z</time></trkpt><trkpt lat="59.7766469512" lon="31.1081439815"><ele>36.67</ele><time>2025-08-30T02:13:54Z</time></trkpt><trkpt lat="59.7766503878" lon="31.1080804467"><ele>36.19</ele><time>2025-08-30T02:14:03Z</time></trkpt><trkpt lat="59.7766089812" lon="31.1080066860"><ele>37.63</ele><time>2025-08-30T02:14:14Z</time></trkpt><trkpt lat="59.7765923012" lon="31.1079164129"><ele>35.71</ele><time>2025-08-30T02:14:27Z</time></trkpt><trkpt lat="59.7766378149" lon="31.1078380421"><ele>36.19</ele><time>2025-08-30T02:14:37Z</time></trkpt><trkpt lat="59.7766813170" lon="31.1078014132"><ele>36.67</ele><time>2025-08-30T02:14:49Z</time></trkpt><trkpt lat="59.7766965721" lon="31.1077040993"><ele>36.19</ele><time>2025-08-30T02:15:00Z</time></trkpt><trkpt lat="59.7767103184" lon="31.1076509580"><ele>36.19</ele><time>2025-08-30T02:15:11Z</time></trkpt><trkpt lat="59.7767342906" lon="31.1076369602"><ele>36.19</ele><time>2025-08-30T02:15:27Z</time></trkpt><trkpt lat="59.7767520603" lon="31.1076053604"><ele>35.71</ele><time>2025-08-30T02:15:41Z</time></trkpt><trkpt lat="59.7767294291" lon="31.1076000798"><ele>36.67</ele><time>2025-08-30T02:15:52Z</time></trkpt><trkpt lat="59.7767026071" lon="31.1074818112"><ele>36.67</ele><time>2025-08-30T02:16:00Z</time></trkpt><trkpt lat="59.7766480409" lon="31.1074086372"><ele>35.71</ele><time>2025-08-30T02:16:08Z</time></trkpt><trkpt lat="59.7766131721" lon="31.1072896142"><ele>36.67</ele><time>2025-08-30T02:16:17Z</time></trkpt><trkpt lat="59.7765990905" lon="31.1071754526"><ele>36.19</ele><time>2025-08-30T02:16:26Z</time></trkpt><trkpt lat="59.7765819915" lon="31.1071351357"><ele>36.67</ele><time>2025-08-30T02:16:36Z</time></trkpt><trkpt lat="59.7766083106" lon="31.1070154421"><ele>36.19</ele><time>2025-08-30T02:16:44Z</time></trkpt><trkpt lat="59.7766347136" lon="31.1069312040"><ele>36.19</ele><time>2025-08-30T02:16:52Z</time></trkpt><trkpt lat="59.7766655590" lon="31.1069052201"><ele>36.67</ele><time>2025-08-30T02:17:02Z</time></trkpt><trkpt lat="59.7766761202" lon="31.1068107560"><ele>36.19</ele><time>2025-08-30T02:17:12Z</time></trkpt><trkpt lat="59.7766643856" lon="31.1067595426"><ele>36.19</ele><time>2025-08-30T02:17:20Z</time></trkpt><trkpt lat="59.7766787186" lon="31.1066938285"><ele>36.67</ele><time>2025-08-30T02:17:28Z</time></trkpt><trkpt lat="59.7767126653" lon="31.1066665873"><ele>36.19</ele><time>2025-08-30T02:17:37Z</time></trkpt><trkpt lat="59.7767817322" lon="31.1066405196"><ele>36.67</ele><time>2025-08-30T02:17:45Z</time></trkpt><trkpt lat="59.7768404894" lon="31.1065404397"><ele>36.19</ele><time>2025-08-30T02:17:54Z</time></trkpt><trkpt lat="59.7768704128" lon="31.1064262781"><ele>36.19</ele><time>2025-08-30T02:18:03Z</time></trkpt><trkpt lat="59.7768534813" lon="31.1063660122"><ele>36.67</ele><time>2025-08-30T02:18:10Z</time></trkpt><trkpt lat="59.7768259048" lon="31.1063110270"><ele>37.15</ele><time>2025-08-30T02:18:21Z</time></trkpt><trkpt lat="59.7768248152" lon="31.1061749049"><ele>36.67</ele><time>2025-08-30T02:18:32Z</time></trkpt><trkpt lat="59.7768412437" lon="31.1060853861"><ele>36.67</ele><time>2025-08-30T02:18:40Z</time></trkpt><trkpt lat="59.7768501285" lon="31.1059148982"><ele>36.67</ele><time>2025-08-30T02:18:49Z</time></trkpt><trkpt lat="59.7768408246" lon="31.1058735754"><ele>36.19</ele><time>2025-08-30T02:19:02Z</time></trkpt><trkpt lat="59.7768391483" lon="31.1057940312"><ele>36.67</ele><time>2025-08-30T02:19:13Z</time></trkpt><trkpt lat="59.7768023517" lon="31.1056894250"><ele>36.67</ele><time>2025-08-30T02:19:20Z</time></trkpt><trkpt lat="59.7767803911" lon="31.1055850703"><ele>36.19</ele><time>2025-08-30T02:19:30Z</time></trkpt><trkpt lat="59.7767799720" lon="31.1054985691"><ele>36.19</ele><time>2025-08-30T02:19:38Z</time></trkpt><trkpt lat="59.7767736856" lon="31.1054037698"><ele>36.19</ele><time>2025-08-30T02:19:46Z</time></trkpt><trkpt lat="59.7767675668" lon="31.1052699108"><ele>36.19</ele><time>2025-08-30T02:19:55Z</time></trkpt><trkpt lat="59.7767689079" lon="31.1052162666"><ele>36.19</ele><time>2025-08-30T02:20:05Z</time></trkpt><trkpt lat="59.7767459415" lon="31.1051242333"><ele>36.19</ele><time>2025-08-30T02:20:12Z</time></trkpt><trkpt lat="59.7767316923" lon="31.1050506402"><ele>36.19</ele><time>2025-08-30T02:20:19Z</time></trkpt><trkpt lat="59.7767365538" lon="31.1049691681"><ele>36.19</ele><time>2025-08-30T02:20:30Z</time></trkpt><trkpt lat="59.7767404094" lon="31.1049150210"><ele>36.19</ele><time>2025-08-30T02:20:43Z</time></trkpt><trkpt lat="59.7766953148" lon="31.1048809066"><ele>36.19</ele><time>2025-08-30T02:20:51Z</time></trkpt><trkpt lat="59.7766726837" lon="31.1048292741"><ele>36.19</ele><time>2025-08-30T02:21:01Z</time></trkpt><trkpt lat="59.7766580991" lon="31.1048167851"><ele>36.19</ele><time>2025-08-30T02:21:17Z</time></trkpt><trkpt lat="59.7766848374" lon="31.1049338803"><ele>36.19</ele><time>2025-08-30T02:21:27Z</time></trkpt><trkpt lat="59.7766844183" lon="31.1049179547"><ele>36.19</ele><time>2025-08-30T02:21:41Z</time></trkpt><trkpt lat="59.7766369767" lon="31.1048643105"><ele>36.19</ele><time>2025-08-30T02:21:51Z</time></trkpt><trkpt lat="59.7766178660" lon="31.1047774740"><ele>36.19</ele><time>2025-08-30T02:21:58Z</time></trkpt><trkpt lat="59.7766126692" lon="31.1046122666"><ele>36.19</ele><time>2025-08-30T02:22:08Z</time></trkpt><trkpt lat="59.7766574286" lon="31.1045233347"><ele>35.71</ele><time>2025-08-30T02:22:18Z</time></trkpt><trkpt lat="59.7766557522" lon="31.1045105942"><ele>36.19</ele><time>2025-08-30T02:22:28Z</time></trkpt><trkpt lat="59.7766661458" lon="31.1044529267"><ele>36.19</ele><time>2025-08-30T02:22:37Z</time></trkpt><trkpt lat="59.7766768746" lon="31.1044161301"><ele>36.19</ele><time>2025-08-30T02:22:47Z</time></trkpt><trkpt lat="59.7766883578" lon="31.1044034734"><ele>35.71</ele><time>2025-08-30T02:22:55Z</time></trkpt><trkpt lat="59.7766828258" lon="31.1043186486"><ele>35.71</ele><time>2025-08-30T02:23:05Z</time></trkpt><trkpt lat="59.7766815685" lon="31.1042189877"><ele>35.71</ele><time>2025-08-30T02:23:13Z</time></trkpt><trkpt lat="59.7767040320" lon="31.1040890682"><ele>35.71</ele><time>2025-08-30T02:23:23Z</time></trkpt><trkpt lat="59.7767275013" lon="31.1040038243"><ele>35.71</ele><time>2025-08-30T02:23:31Z</time></trkpt><trkpt lat="59.7767503839" lon="31.1038837954"><ele>35.71</ele><time>2025-08-30T02:23:40Z</time></trkpt><trkpt lat="59.7768037766" lon="31.1038507707"><ele>35.71</ele><time>2025-08-30T02:23:55Z</time></trkpt><trkpt lat="59.7768027708" lon="31.1038555484"><ele>35.71</ele><time>2025-08-30T02:24:10Z</time></trkpt><trkpt lat="59.7767674830" lon="31.1037782673"><ele>35.71</ele><time>2025-08-30T02:24:20Z</time></trkpt><trkpt lat="59.7767476179" lon="31.1037589889"><ele>36.19</ele><time>2025-08-30T02:24:27Z</time></trkpt><trkpt lat="59.7767497972" lon="31.1037041713"><ele>36.19</ele><time>2025-08-30T02:24:36Z</time></trkpt><trkpt lat="59.7767528147" lon="31.1036180891"><ele>35.71</ele><time>2025-08-30T02:24:45Z</time></trkpt><trkpt lat="59.7767373081" lon="31.1036844738"><ele>36.19</ele><time>2025-08-30T02:24:55Z</time></trkpt><trkpt lat="59.7767446004" lon="31.1037098709"><ele>36.19</ele><time>2025-08-30T02:25:03Z</time></trkpt><trkpt lat="59.7767114919" lon="31.1036484316"><ele>36.19</ele><time>2025-08-30T02:25:11Z</time></trkpt><trkpt lat="59.7767004278" lon="31.1035301629"><ele>36.19</ele><time>2025-08-30T02:25:19Z</time></trkpt><trkpt lat="59.7767074686" lon="31.1034097988"><ele>35.71</ele><time>2025-08-30T02:25:28Z</time></trkpt><trkpt lat="59.7766842507" lon="31.1033192743"><ele>35.71</ele><time>2025-08-30T02:25:40Z</time></trkpt><trkpt lat="59.7766711749" lon="31.1032918654"><ele>35.71</ele><time>2025-08-30T02:25:52Z</time></trkpt><trkpt lat="59.7766648047" lon="31.1032885965"><ele>35.71</ele><time>2025-08-30T02:25:53Z</time></trkpt><trkpt lat="59.7766042873" lon="31.1033372954"><ele>35.23</ele><time>2025-08-30T02:26:01Z</time></trkpt><trkpt lat="59.7765617911" lon="31.1033034325"><ele>35.71</ele><time>2025-08-30T02:26:11Z</time></trkpt><trkpt lat="59.7765327059" lon="31.1031747703"><ele>35.23</ele><time>2025-08-30T02:26:20Z</time></trkpt><trkpt lat="59.7765521519" lon="31.1030417494"><ele>36.19</ele><time>2025-08-30T02:26:29Z</time></trkpt><trkpt lat="59.7765763756" lon="31.1030116584"><ele>35.71</ele><time>2025-08-30T02:26:38Z</time></trkpt><trkpt lat="59.7766134236" lon="31.1029026937"><ele>35.71</ele><time>2025-08-30T02:26:46Z</time></trkpt><trkpt lat="59.7765965760" lon="31.1028562579"><ele>35.71</ele><time>2025-08-30T02:26:55Z</time></trkpt><trkpt lat="59.7766223922" lon="31.1027391627"><ele>35.23</ele><time>2025-08-30T02:27:05Z</time></trkpt><trkpt lat="59.7766342107" lon="31.1026159488"><ele>34.74</ele><time>2025-08-30T02:27:13Z</time></trkpt><trkpt lat="59.7766766232" lon="31.1025482230"><ele>35.23</ele><time>2025-08-30T02:27:21Z</time></trkpt><trkpt lat="59.7766795568" lon="31.1025099177"><ele>35.23</ele><time>2025-08-30T02:27:32Z</time></trkpt><trkpt lat="59.7767168563" lon="31.1025379132"><ele>35.23</ele><time>2025-08-30T02:27:43Z</time></trkpt><trkpt lat="59.7767492104" lon="31.1025048885"><ele>35.71</ele><time>2025-08-30T02:27:51Z</time></trkpt><trkpt lat="59.7768212110" lon="31.1024088319"><ele>35.23</ele><time>2025-08-30T02:28:01Z</time></trkpt><trkpt lat="59.7768482007" lon="31.1023364961"><ele>35.23</ele><time>2025-08-30T02:28:08Z</time></trkpt><trkpt lat="59.7768377233" lon="31.1022458877"><ele>34.74</ele><time>2025-08-30T02:28:16Z</time></trkpt><trkpt lat="59.7768341191" lon="31.1021401081"><ele>34.74</ele><time>2025-08-30T02:28:24Z</time></trkpt><trkpt lat="59.7768415790" lon="31.1021272838"><ele>34.74</ele><time>2025-08-30T02:28:31Z</time></trkpt><trkpt lat="59.7768405732" lon="31.1020248570"><ele>35.23</ele><time>2025-08-30T02:28:40Z</time></trkpt><trkpt lat="59.7768468596" lon="31.1019288842"><ele>34.26</ele><time>2025-08-30T02:28:47Z</time></trkpt><trkpt lat="59.7768763639" lon="31.1018330790"><ele>35.23</ele><time>2025-08-30T02:28:54Z</time></trkpt><trkpt lat="59.7768943012" lon="31.1017455719"><ele>35.23</ele><time>2025-08-30T02:29:00Z</time></trkpt><trkpt lat="59.7769197822" lon="31.1016657762"><ele>34.26</ele><time>2025-08-30T02:29:07Z</time></trkpt><trkpt lat="59.7769411560" lon="31.1015969608"><ele>35.23</ele><time>2025-08-30T02:29:14Z</time></trkpt><trkpt lat="59.7769949678" lon="31.1015960388"><ele>35.23</ele><time>2025-08-30T02:29:20Z</time></trkpt><trkpt lat="59.7770812176" lon="31.1016530357"><ele>35.23</ele><time>2025-08-30T02:29:30Z</time></trkpt><trkpt lat="59.7770875879" lon="31.1016662791"><ele>35.71</ele><time>2025-08-30T02:29:38Z</time></trkpt><trkpt lat="59.7771428246" lon="31.1016982980"><ele>35.71</ele><time>2025-08-30T02:29:45Z</time></trkpt><trkpt lat="59.7771534696" lon="31.1017032433"><ele>35.71</ele><time>2025-08-30T02:29:46Z</time></trkpt><trkpt lat="59.7772403061" lon="31.1017465778"><ele>35.71</ele><time>2025-08-30T02:29:54Z</time></trkpt><trkpt lat="59.7773431521" lon="31.1018076818"><ele>36.19</ele><time>2025-08-30T02:30:04Z</time></trkpt><trkpt lat="59.7774702217" lon="31.1018897407"><ele>36.19</ele><time>2025-08-30T02:30:16Z</time></trkpt><trkpt lat="59.7775551304" lon="31.1019383557"><ele>35.71</ele><time>2025-08-30T02:30:24Z</time></trkpt><trkpt lat="59.7776438948" lon="31.1019822769"><ele>35.23</ele><time>2025-08-30T02:30:32Z</time></trkpt><trkpt lat="59.7777070105" lon="31.1020355858"><ele>35.23</ele><time>2025-08-30T02:30:40Z</time></trkpt><trkpt lat="59.7776593175" lon="31.1020166427"><ele>35.23</ele><time>2025-08-30T02:30:46Z</time></trkpt><trkpt lat="59.7775896639" lon="31.1019412894"><ele>35.23</ele><time>2025-08-30T02:30:52Z</time></trkpt><trkpt lat="59.7775366902" lon="31.1019210890"><ele>35.23</ele><time>2025-08-30T02:30:58Z</time></trkpt><trkpt lat="59.7774960380" lon="31.1019311473"><ele>34.26</ele><time>2025-08-30T02:31:07Z</time></trkpt><trkpt lat="59.7775015701" lon="31.1019674409"><ele>34.26</ele><time>2025-08-30T02:31:17Z</time></trkpt><trkpt lat="59.7774745803" lon="31.1020694487"><ele>34.26</ele><time>2025-08-30T02:31:25Z</time></trkpt><trkpt lat="59.7774926852" lon="31.1020552833"><ele>33.78</ele><time>2025-08-30T02:31:31Z</time></trkpt><trkpt lat="59.7775121313" lon="31.1020480748"><ele>34.74</ele><time>2025-08-30T02:31:41Z</time></trkpt><trkpt lat="59.7775159869" lon="31.1020551156"><ele>34.74</ele><time>2025-08-30T02:31:50Z</time></trkpt><trkpt lat="59.7775020730" lon="31.1020673532"><ele>34.74</ele><time>2025-08-30T02:32:08Z</time></trkpt><trkpt lat="59.7775035817" lon="31.1020992883"><ele>35.23</ele><time>2025-08-30T02:32:21Z</time></trkpt><trkpt lat="59.7775104549" lon="31.1021811794"><ele>34.26</ele><time>2025-08-30T02:32:29Z</time></trkpt><trkpt lat="59.7775257938" lon="31.1022425350"><ele>34.26</ele><time>2025-08-30T02:32:37Z</time></trkpt><trkpt lat="59.7775097005" lon="31.1022996157"><ele>34.26</ele><time>2025-08-30T02:32:47Z</time></trkpt><trkpt lat="59.7774749994" lon="31.1024109274"><ele>34.74</ele><time>2025-08-30T02:32:55Z</time></trkpt><trkpt lat="59.7773947008" lon="31.1024276074"><ele>34.74</ele><time>2025-08-30T02:33:05Z</time></trkpt><trkpt lat="59.7773116361" lon="31.1024533398"><ele>34.74</ele><time>2025-08-30T02:33:14Z</time></trkpt><trkpt lat="59.7772677988" lon="31.1025526654"><ele>34.74</ele><time>2025-08-30T02:33:22Z</time></trkpt><trkpt lat="59.7772075329" lon="31.1026621331"><ele>34.74</ele><time>2025-08-30T02:33:31Z</time></trkpt><trkpt lat="59.7771648690" lon="31.1027857661"><ele>34.74</ele><time>2025-08-30T02:33:40Z</time></trkpt><trkpt lat="59.7771698982" lon="31.1028678250"><ele>34.74</ele><time>2025-08-30T02:33:48Z</time></trkpt><trkpt lat="59.7771727480" lon="31.1029359698"><ele>34.74</ele><time>2025-08-30T02:33:57Z</time></trkpt><trkpt lat="59.7771696467" lon="31.1029621214"><ele>34.26</ele><time>2025-08-30T02:34:15Z</time></trkpt><trkpt lat="59.7771413159" lon="31.1029991694"><ele>34.26</ele><time>2025-08-30T02:34:32Z</time></trkpt><trkpt lat="59.7771201096" lon="31.1030326970"><ele>34.26</ele><time>2025-08-30T02:34:50Z</time></trkpt><trkpt lat="59.7772164177" lon="31.1031171866"><ele>34.74</ele><time>2025-08-30T02:34:59Z</time></trkpt><trkpt lat="59.7772082873" lon="31.1032117344"><ele>34.26</ele><time>2025-08-30T02:35:07Z</time></trkpt><trkpt lat="59.7772062756" lon="31.1033244710"><ele>34.74</ele><time>2025-08-30T02:35:17Z</time></trkpt><trkpt lat="59.7771983128" lon="31.1034418177"><ele>34.74</ele><time>2025-08-30T02:35:26Z</time></trkpt><trkpt lat="59.7772279009" lon="31.1035745870"><ele>35.23</ele><time>2025-08-30T02:35:35Z</time></trkpt><trkpt lat="59.7772154119" lon="31.1035765149"><ele>34.74</ele><time>2025-08-30T02:35:43Z</time></trkpt><trkpt lat="59.7772197705" lon="31.1037173308"><ele>34.26</ele><time>2025-08-30T02:35:53Z</time></trkpt><trkpt lat="59.7772667091" lon="31.1038096994"><ele>35.23</ele><time>2025-08-30T02:36:01Z</time></trkpt><trkpt lat="59.7772882506" lon="31.1039669439"><ele>34.74</ele><time>2025-08-30T02:36:10Z</time></trkpt><trkpt lat="59.7772777732" lon="31.1040857993"><ele>34.74</ele><time>2025-08-30T02:36:19Z</time></trkpt><trkpt lat="59.7772674635" lon="31.1041667685"><ele>35.23</ele><time>2025-08-30T02:36:30Z</time></trkpt><trkpt lat="59.7772707324" lon="31.1043442972"><ele>35.23</ele><time>2025-08-30T02:36:39Z</time></trkpt><trkpt lat="59.7772226203" lon="31.1044198181"><ele>35.71</ele><time>2025-08-30T02:36:47Z</time></trkpt><trkpt lat="59.7771802917" lon="31.1044727918"><ele>35.23</ele><time>2025-08-30T02:36:55Z</time></trkpt><trkpt lat="59.7771698143" lon="31.1045466363"><ele>35.23</ele><time>2025-08-30T02:37:03Z</time></trkpt><trkpt lat="59.7771647014" lon="31.1046631448"><ele>35.23</ele><time>2025-08-30T02:37:11Z</time></trkpt><trkpt lat="59.7771709040" lon="31.1047324631"><ele>35.71</ele><time>2025-08-30T02:37:19Z</time></trkpt><trkpt lat="59.7771966364" lon="31.1047954950"><ele>35.71</ele><time>2025-08-30T02:37:27Z</time></trkpt><trkpt lat="59.7771970555" lon="31.1048382428"><ele>35.23</ele><time>2025-08-30T02:37:41Z</time></trkpt><trkpt lat="59.7772319242" lon="31.1048441101"><ele>35.23</ele><time>2025-08-30T02:37:52Z</time></trkpt><trkpt lat="59.7772548907" lon="31.1049328744"><ele>36.19</ele><time>2025-08-30T02:38:04Z</time></trkpt><trkpt lat="59.7772895917" lon="31.1050698347"><ele>35.71</ele><time>2025-08-30T02:38:13Z</time></trkpt><trkpt lat="59.7773026675" lon="31.1051329505"><ele>35.71</ele><time>2025-08-30T02:38:21Z</time></trkpt><trkpt lat="59.7772880830" lon="31.1052787118"><ele>35.23</ele><time>2025-08-30T02:38:34Z</time></trkpt><trkpt lat="59.7773014940" lon="31.1053844914"><ele>35.71</ele><time>2025-08-30T02:38:43Z</time></trkpt><trkpt lat="59.7773001529" lon="31.1054808833"><ele>35.71</ele><time>2025-08-30T02:38:53Z</time></trkpt><trkpt lat="59.7772611771" lon="31.1055630259"><ele>36.19</ele><time>2025-08-30T02:39:03Z</time></trkpt><trkpt lat="59.7772408929" lon="31.1055948772"><ele>35.71</ele><time>2025-08-30T02:39:14Z</time></trkpt><trkpt lat="59.7772643622" lon="31.1057164147"><ele>35.23</ele><time>2025-08-30T02:39:25Z</time></trkpt><trkpt lat="59.7772132326" lon="31.1057978030"><ele>35.71</ele><time>2025-08-30T02:39:35Z</time></trkpt><trkpt lat="59.7771916073" lon="31.1058745813"><ele>35.71</ele><time>2025-08-30T02:39:44Z</time></trkpt><trkpt lat="59.7771809623" lon="31.1060022376"><ele>35.71</ele><time>2025-08-30T02:39:52Z</time></trkpt><trkpt lat="59.7771753464" lon="31.1061509326"><ele>35.71</ele><time>2025-08-30T02:40:02Z</time></trkpt><trkpt lat="59.7771773580" lon="31.1061587278"><ele>35.71</ele><time>2025-08-30T02:40:12Z</time></trkpt><trkpt lat="59.7771973908" lon="31.1062758230"><ele>35.71</ele><time>2025-08-30T02:40:19Z</time></trkpt><trkpt lat="59.7772410605" lon="31.1063686945"><ele>36.19</ele><time>2025-08-30T02:40:30Z</time></trkpt><trkpt lat="59.7773170844" lon="31.1065188143"><ele>36.19</ele><time>2025-08-30T02:40:40Z</time></trkpt><trkpt lat="59.7773576528" lon="31.1065820977"><ele>35.71</ele><time>2025-08-30T02:40:49Z</time></trkpt><trkpt lat="59.7773689684" lon="31.1066386756"><ele>36.19</ele><time>2025-08-30T02:41:02Z</time></trkpt><trkpt lat="59.7773713991" lon="31.1066436209"><ele>36.19</ele><time>2025-08-30T02:41:10Z</time></trkpt><trkpt lat="59.7773742490" lon="31.1066603847"><ele>36.67</ele><time>2025-08-30T02:41:18Z</time></trkpt><trkpt lat="59.7773483489" lon="31.1066832673"><ele>36.19</ele><time>2025-08-30T02:41:28Z</time></trkpt><trkpt lat="59.7773019969" lon="31.1066965945"><ele>36.19</ele><time>2025-08-30T02:41:36Z</time></trkpt><trkpt lat="59.7773013264" lon="31.1067512445"><ele>36.19</ele><time>2025-08-30T02:41:48Z</time></trkpt><trkpt lat="59.7773003206" lon="31.1067279428"><ele>36.67</ele><time>2025-08-30T02:42:02Z</time></trkpt><trkpt lat="59.7773218621" lon="31.1067118496"><ele>36.67</ele><time>2025-08-30T02:42:14Z</time></trkpt><trkpt lat="59.7773160785" lon="31.1066846084"><ele>36.19</ele><time>2025-08-30T02:42:28Z</time></trkpt><trkpt lat="59.7773157433" lon="31.1067395099"><ele>35.71</ele><time>2025-08-30T02:42:39Z</time></trkpt><trkpt lat="59.7773149889" lon="31.1067582853"><ele>36.19</ele><time>2025-08-30T02:42:40Z</time></trkpt><trkpt lat="59.7772852331" lon="31.1068728659"><ele>36.19</ele><time>2025-08-30T02:42:50Z</time></trkpt><trkpt lat="59.7772514541" lon="31.1069576908"><ele>36.19</ele><time>2025-08-30T02:42:58Z</time></trkpt><trkpt lat="59.7772914357" lon="31.1070625484"><ele>35.71</ele><time>2025-08-30T02:43:07Z</time></trkpt><trkpt lat="59.7772908490" lon="31.1071761232"><ele>36.19</ele><time>2025-08-30T02:43:16Z</time></trkpt><trkpt lat="59.7773270588" lon="31.1072487105"><ele>36.19</ele><time>2025-08-30T02:43:25Z</time></trkpt><trkpt lat="59.7773660347" lon="31.1073811445"><ele>36.19</ele><time>2025-08-30T02:43:38Z</time></trkpt><trkpt lat="59.7773974668" lon="31.1074119061"><ele>36.19</ele><time>2025-08-30T02:43:47Z</time></trkpt><trkpt lat="59.7774097882" lon="31.1074585095"><ele>36.67</ele><time>2025-08-30T02:43:54Z</time></trkpt><trkpt lat="59.7774147335" lon="31.1075347010"><ele>36.67</ele><time>2025-08-30T02:44:06Z</time></trkpt><trkpt lat="59.7773804516" lon="31.1076569092"><ele>36.67</ele><time>2025-08-30T02:44:15Z</time></trkpt><trkpt lat="59.7773610055" lon="31.1076936219"><ele>36.67</ele><time>2025-08-30T02:44:22Z</time></trkpt><trkpt lat="59.7773652803" lon="31.1077671312"><ele>36.19</ele><time>2025-08-30T02:44:31Z</time></trkpt><trkpt lat="59.7773546353" lon="31.1078597512"><ele>36.19</ele><time>2025-08-30T02:44:45Z</time></trkpt><trkpt lat="59.7772841435" lon="31.1079263873"><ele>36.19</ele><time>2025-08-30T02:44:52Z</time></trkpt><trkpt lat="59.7772871610" lon="31.1080238689"><ele>36.19</ele><time>2025-08-30T02:44:58Z</time></trkpt><trkpt lat="59.7772780247" lon="31.1081957817"><ele>36.19</ele><time>2025-08-30T02:45:06Z</time></trkpt><trkpt lat="59.7772696428" lon="31.1082516052"><ele>36.19</ele><time>2025-08-30T02:45:14Z</time></trkpt><trkpt lat="59.7772511188" lon="31.1083702091"><ele>36.19</ele><time>2025-08-30T02:45:23Z</time></trkpt><trkpt lat="59.7772347741" lon="31.1084078439"><ele>36.67</ele><time>2025-08-30T02:45:32Z</time></trkpt><trkpt lat="59.7772310022" lon="31.1084885616"><ele>36.19</ele><time>2025-08-30T02:45:49Z</time></trkpt><trkpt lat="59.7772577405" lon="31.1085417029"><ele>36.19</ele><time>2025-08-30T02:45:57Z</time></trkpt><trkpt lat="59.7772316728" lon="31.1086274497"><ele>36.19</ele><time>2025-08-30T02:46:05Z</time></trkpt><trkpt lat="59.7772247996" lon="31.1086924095"><ele>36.19</ele><time>2025-08-30T02:46:14Z</time></trkpt><trkpt lat="59.7772481851" lon="31.1087781563"><ele>36.19</ele><time>2025-08-30T02:46:23Z</time></trkpt><trkpt lat="59.7772914357" lon="31.1088623106"><ele>36.19</ele><time>2025-08-30T02:46:32Z</time></trkpt><trkpt lat="59.7773024999" lon="31.1089895479"><ele>36.19</ele><time>2025-08-30T02:46:40Z</time></trkpt><trkpt lat="59.7772521246" lon="31.1090726126"><ele>36.19</ele><time>2025-08-30T02:46:48Z</time></trkpt><trkpt lat="59.7772035096" lon="31.1091141868"><ele>36.19</ele><time>2025-08-30T02:46:56Z</time></trkpt><trkpt lat="59.7771354485" lon="31.1091514025"><ele>36.67</ele><time>2025-08-30T02:47:05Z</time></trkpt><trkpt lat="59.7770992387" lon="31.1092776340"><ele>36.19</ele><time>2025-08-30T02:47:16Z</time></trkpt><trkpt lat="59.7770924494" lon="31.1093886942"><ele>35.71</ele><time>2025-08-30T02:47:26Z</time></trkpt><trkpt lat="59.7770890966" lon="31.1095233075"><ele>36.19</ele><time>2025-08-30T02:47:34Z</time></trkpt><trkpt lat="59.7771132365" lon="31.1096038576"><ele>35.71</ele><time>2025-08-30T02:47:42Z</time></trkpt><trkpt lat="59.7771583311" lon="31.1096766125"><ele>36.67</ele><time>2025-08-30T02:47:52Z</time></trkpt><trkpt lat="59.7772159148" lon="31.1097054463"><ele>36.19</ele><time>2025-08-30T02:48:00Z</time></trkpt><trkpt lat="59.7772859037" lon="31.1098199431"><ele>36.19</ele><time>2025-08-30T02:48:09Z</time></trkpt><trkpt lat="59.7773413919" lon="31.1098830588"><ele>36.19</ele><time>2025-08-30T02:48:19Z</time></trkpt><trkpt lat="59.7773680463" lon="31.1099569034"><ele>36.19</ele><time>2025-08-30T02:48:27Z</time></trkpt><trkpt lat="59.7773870733" lon="31.1100667901"><ele>36.19</ele><time>2025-08-30T02:48:36Z</time></trkpt><trkpt lat="59.7773624305" lon="31.1101432331"><ele>36.19</ele><time>2025-08-30T02:48:42Z</time></trkpt><trkpt lat="59.7773669567" lon="31.1101948656"><ele>36.19</ele><time>2025-08-30T02:48:52Z</time></trkpt><trkpt lat="59.7773853969" lon="31.1102997232"><ele>36.19</ele><time>2025-08-30T02:48:59Z</time></trkpt><trkpt lat="59.7773423977" lon="31.1103637610"><ele>36.19</ele><time>2025-08-30T02:49:07Z</time></trkpt><trkpt lat="59.7773108818" lon="31.1103757471"><ele>36.19</ele><time>2025-08-30T02:49:15Z</time></trkpt><trkpt lat="59.7772734985" lon="31.1104030721"><ele>35.71</ele><time>2025-08-30T02:49:22Z</time></trkpt><trkpt lat="59.7772405576" lon="31.1104065925"><ele>35.71</ele><time>2025-08-30T02:49:28Z</time></trkpt><trkpt lat="59.7772192676" lon="31.1104658525"><ele>34.74</ele><time>2025-08-30T02:49:36Z</time></trkpt><trkpt lat="59.7772385459" lon="31.1105593108"><ele>35.23</ele><time>2025-08-30T02:49:44Z</time></trkpt><trkpt lat="59.7772768512" lon="31.1106406990"><ele>36.19</ele><time>2025-08-30T02:49:53Z</time></trkpt><trkpt lat="59.7772831377" lon="31.1106873024"><ele>35.71</ele><time>2025-08-30T02:50:02Z</time></trkpt><trkpt lat="59.7772981413" lon="31.1107437965"><ele>35.71</ele><time>2025-08-30T02:50:13Z</time></trkpt><trkpt lat="59.7772979736" lon="31.1108475644"><ele>35.23</ele><time>2025-08-30T02:50:23Z</time></trkpt><trkpt lat="59.7773921024" lon="31.1108092591"><ele>35.23</ele><time>2025-08-30T02:50:30Z</time></trkpt><trkpt lat="59.7774338443" lon="31.1108180601"><ele>35.71</ele><time>2025-08-30T02:50:36Z</time></trkpt><trkpt lat="59.7775135562" lon="31.1107940879"><ele>35.23</ele><time>2025-08-30T02:50:45Z</time></trkpt><trkpt lat="59.7775870655" lon="31.1107827723"><ele>35.23</ele><time>2025-08-30T02:50:54Z</time></trkpt><trkpt lat="59.7776112054" lon="31.1107650027"><ele>35.23</ele><time>2025-08-30T02:50:57Z</time></trkpt><trkpt lat="59.7777137160" lon="31.1106830277"><ele>35.23</ele><time>2025-08-30T02:51:08Z</time></trkpt><trkpt lat="59.7777727246" lon="31.1105835345"><ele>35.23</ele><time>2025-08-30T02:51:17Z</time></trkpt><trkpt lat="59.7777735628" lon="31.1106026452"><ele>35.23</ele><time>2025-08-30T02:51:30Z</time></trkpt><trkpt lat="59.7777458187" lon="31.1106051598"><ele>34.74</ele><time>2025-08-30T02:51:50Z</time></trkpt><trkpt lat="59.7777263727" lon="31.1106049083"><ele>34.74</ele><time>2025-08-30T02:52:12Z</time></trkpt><trkpt lat="59.7776906658" lon="31.1106705386"><ele>34.74</ele><time>2025-08-30T02:52:32Z</time></trkpt><trkpt lat="59.7776984610" lon="31.1106074229"><ele>34.74</ele><time>2025-08-30T02:52:46Z</time></trkpt><trkpt lat="59.7777493391" lon="31.1105248611"><ele>34.74</ele><time>2025-08-30T02:53:06Z</time></trkpt><trkpt lat="59.7777322400" lon="31.1106079258"><ele>34.74</ele><time>2025-08-30T02:53:24Z</time></trkpt><trkpt lat="59.7777371854" lon="31.1106391903"><ele>34.74</ele><time>2025-08-30T02:53:44Z</time></trkpt><trkpt lat="59.7777590621" lon="31.1106703710"><ele>35.23</ele><time>2025-08-30T02:54:04Z</time></trkpt><trkpt lat="59.7777985409" lon="31.1106096860"><ele>35.23</ele><time>2025-08-30T02:54:23Z</time></trkpt><trkpt lat="59.7778115328" lon="31.1106412858"><ele>35.23</ele><time>2025-08-30T02:54:41Z</time></trkpt><trkpt lat="59.7778088506" lon="31.1106243543"><ele>36.67</ele><time>2025-08-30T02:54:49Z</time></trkpt><trkpt lat="59.7777889017" lon="31.1105629988"><ele>36.19</ele><time>2025-08-30T02:55:04Z</time></trkpt><trkpt lat="59.7778303083" lon="31.1105142999"><ele>36.19</ele><time>2025-08-30T02:55:11Z</time></trkpt><trkpt lat="59.7778810188" lon="31.1103910860"><ele>36.19</ele><time>2025-08-30T02:55:20Z</time></trkpt><trkpt lat="59.7779127024" lon="31.1102437321"><ele>36.19</ele><time>2025-08-30T02:55:30Z</time></trkpt><trkpt lat="59.7779326513" lon="31.1101758387"><ele>37.15</ele><time>2025-08-30T02:55:37Z</time></trkpt><trkpt lat="59.7779584676" lon="31.1100960430"><ele>37.15</ele><time>2025-08-30T02:55:47Z</time></trkpt><trkpt lat="59.7779607307" lon="31.1100610066"><ele>37.15</ele><time>2025-08-30T02:55:57Z</time></trkpt><trkpt lat="59.7779723816" lon="31.1100615934"><ele>37.63</ele><time>2025-08-30T02:55:59Z</time></trkpt><trkpt lat="59.7779515944" lon="31.1099665426"><ele>37.63</ele><time>2025-08-30T02:56:06Z</time></trkpt><trkpt lat="59.7778984532" lon="31.1099584959"><ele>37.63</ele><time>2025-08-30T02:56:15Z</time></trkpt><trkpt lat="59.7778618243" lon="31.1099732481"><ele>37.15</ele><time>2025-08-30T02:56:22Z</time></trkpt><trkpt lat="59.7778125387" lon="31.1099881679"><ele>37.15</ele><time>2025-08-30T02:56:30Z</time></trkpt><trkpt lat="59.7777457349" lon="31.1099852342"><ele>37.63</ele><time>2025-08-30T02:56:39Z</time></trkpt><trkpt lat="59.7776946053" lon="31.1098942067"><ele>37.63</ele><time>2025-08-30T02:56:49Z</time></trkpt><trkpt lat="59.7776361834" lon="31.1098205298"><ele>37.63</ele><time>2025-08-30T02:56:57Z</time></trkpt><trkpt lat="59.7776324116" lon="31.1097521335"><ele>37.63</ele><time>2025-08-30T02:57:05Z</time></trkpt><trkpt lat="59.7776630893" lon="31.1096340325"><ele>37.63</ele><time>2025-08-30T02:57:16Z</time></trkpt><trkpt lat="59.7776469123" lon="31.1094836611"><ele>38.11</ele><time>2025-08-30T02:57:26Z</time></trkpt><trkpt lat="59.7776303161" lon="31.1094203778"><ele>38.11</ele><time>2025-08-30T02:57:37Z</time></trkpt><trkpt lat="59.7776695434" lon="31.1093978304"><ele>38.59</ele><time>2025-08-30T02:57:46Z</time></trkpt><trkpt lat="59.7776753269" lon="31.1093943100"><ele>38.59</ele><time>2025-08-30T02:57:56Z</time></trkpt><trkpt lat="59.7777120396" lon="31.1093795579"><ele>38.59</ele><time>2025-08-30T02:58:07Z</time></trkpt><trkpt lat="59.7776870616" lon="31.1092420947"><ele>39.55</ele><time>2025-08-30T02:58:16Z</time></trkpt><trkpt lat="59.7776646819" lon="31.1091464572"><ele>39.07</ele><time>2025-08-30T02:58:24Z</time></trkpt><trkpt lat="59.7776573896" lon="31.1089255102"><ele>39.07</ele><time>2025-08-30T02:58:33Z</time></trkpt><trkpt lat="59.7776405420" lon="31.1088295374"><ele>39.07</ele><time>2025-08-30T02:58:40Z</time></trkpt><trkpt lat="59.7776344232" lon="31.1086931638"><ele>38.59</ele><time>2025-08-30T02:58:49Z</time></trkpt><trkpt lat="59.7776931804" lon="31.1086243484"><ele>39.07</ele><time>2025-08-30T02:58:57Z</time></trkpt><trkpt lat="59.7777596489" lon="31.1086278688"><ele>39.55</ele><time>2025-08-30T02:59:05Z</time></trkpt><trkpt lat="59.7778023966" lon="31.1085436307"><ele>39.07</ele><time>2025-08-30T02:59:14Z</time></trkpt><trkpt lat="59.7778169811" lon="31.1084172316"><ele>39.55</ele><time>2025-08-30T02:59:24Z</time></trkpt><trkpt lat="59.7778044082" lon="31.1083614081"><ele>39.55</ele><time>2025-08-30T02:59:28Z</time></trkpt><trkpt lat="59.7777839564" lon="31.1082355119"><ele>39.55</ele><time>2025-08-30T02:59:36Z</time></trkpt><trkpt lat="59.7777444776" lon="31.1080680415"><ele>39.55</ele><time>2025-08-30T02:59:46Z</time></trkpt><trkpt lat="59.7777648456" lon="31.1078522913"><ele>40.03</ele><time>2025-08-30T02:59:55Z</time></trkpt><trkpt lat="59.7777597327" lon="31.1077176780"><ele>39.55</ele><time>2025-08-30T03:00:01Z</time></trkpt><trkpt lat="59.7777276300" lon="31.1075877585"><ele>39.55</ele><time>2025-08-30T03:00:12Z</time></trkpt><trkpt lat="59.7777325753" lon="31.1075186916"><ele>40.03</ele><time>2025-08-30T03:00:22Z</time></trkpt><trkpt lat="59.7777380235" lon="31.1075135786"><ele>39.55</ele><time>2025-08-30T03:00:30Z</time></trkpt><trkpt lat="59.7777495068" lon="31.1075371318"><ele>40.03</ele><time>2025-08-30T03:00:44Z</time></trkpt><trkpt lat="59.7777034901" lon="31.1075440049"><ele>39.55</ele><time>2025-08-30T03:00:55Z</time></trkpt><trkpt lat="59.7777527757" lon="31.1074691545"><ele>39.55</ele><time>2025-08-30T03:01:09Z</time></trkpt><trkpt lat="59.7778365947" lon="31.1073089764"><ele>40.03</ele><time>2025-08-30T03:01:18Z</time></trkpt><trkpt lat="59.7778185736" lon="31.1072144285"><ele>39.55</ele><time>2025-08-30T03:01:25Z</time></trkpt><trkpt lat="59.7777738981" lon="31.1071164440"><ele>40.03</ele><time>2025-08-30T03:01:33Z</time></trkpt><trkpt lat="59.7777897399" lon="31.1070040427"><ele>40.51</ele><time>2025-08-30T03:01:41Z</time></trkpt><trkpt lat="59.7778335772" lon="31.1069377419"><ele>40.51</ele><time>2025-08-30T03:01:49Z</time></trkpt><trkpt lat="59.7778951004" lon="31.1068669148"><ele>40.03</ele><time>2025-08-30T03:01:58Z</time></trkpt><trkpt lat="59.7779165581" lon="31.1067566089"><ele>39.55</ele><time>2025-08-30T03:02:07Z</time></trkpt><trkpt lat="59.7779909894" lon="31.1066644918"><ele>40.51</ele><time>2025-08-30T03:02:17Z</time></trkpt><trkpt lat="59.7779235151" lon="31.1064959317"><ele>39.55</ele><time>2025-08-30T03:02:28Z</time></trkpt><trkpt lat="59.7778583039" lon="31.1064170580"><ele>40.99</ele><time>2025-08-30T03:02:39Z</time></trkpt><trkpt lat="59.7778313980" lon="31.1063261144"><ele>40.03</ele><time>2025-08-30T03:02:46Z</time></trkpt><trkpt lat="59.7778361756" lon="31.1062406190"><ele>40.03</ele><time>2025-08-30T03:02:56Z</time></trkpt><trkpt lat="59.7778396122" lon="31.1061811913"><ele>40.03</ele><time>2025-08-30T03:03:03Z</time></trkpt><trkpt lat="59.7778124548" lon="31.1061812751"><ele>40.51</ele><time>2025-08-30T03:03:18Z</time></trkpt><trkpt lat="59.7778184898" lon="31.1061095260"><ele>40.03</ele><time>2025-08-30T03:03:29Z</time></trkpt><trkpt lat="59.7777663544" lon="31.1059970409"><ele>40.51</ele><time>2025-08-30T03:03:38Z</time></trkpt><trkpt lat="59.7777427174" lon="31.1058841366"><ele>40.51</ele><time>2025-08-30T03:03:46Z</time></trkpt><trkpt lat="59.7777016461" lon="31.1057546362"><ele>40.03</ele><time>2025-08-30T03:03:54Z</time></trkpt><trkpt lat="59.7776548751" lon="31.1056226213"><ele>40.51</ele><time>2025-08-30T03:04:02Z</time></trkpt><trkpt lat="59.7776747402" lon="31.1055467650"><ele>40.51</ele><time>2025-08-30T03:04:09Z</time></trkpt><trkpt lat="59.7776973713" lon="31.1055077054"><ele>40.03</ele><time>2025-08-30T03:04:15Z</time></trkpt><trkpt lat="59.7776400391" lon="31.1054756865"><ele>40.51</ele><time>2025-08-30T03:04:25Z</time></trkpt><trkpt lat="59.7776433919" lon="31.1054087151"><ele>40.03</ele><time>2025-08-30T03:04:35Z</time></trkpt><trkpt lat="59.7777028196" lon="31.1052918714"><ele>40.03</ele><time>2025-08-30T03:04:44Z</time></trkpt><trkpt lat="59.7777380235" lon="31.1051861756"><ele>40.51</ele><time>2025-08-30T03:04:51Z</time></trkpt><trkpt lat="59.7777073458" lon="31.1050896160"><ele>40.51</ele><time>2025-08-30T03:05:02Z</time></trkpt><trkpt lat="59.7777477466" lon="31.1050307751"><ele>40.51</ele><time>2025-08-30T03:05:10Z</time></trkpt><trkpt lat="59.7777868062" lon="31.1049780529"><ele>40.03</ele><time>2025-08-30T03:05:18Z</time></trkpt><trkpt lat="59.7777958587" lon="31.1048452836"><ele>40.03</ele><time>2025-08-30T03:05:28Z</time></trkpt><trkpt lat="59.7777832020" lon="31.1046708561"><ele>40.51</ele><time>2025-08-30T03:05:39Z</time></trkpt><trkpt lat="59.7778132092" lon="31.1045524199"><ele>40.03</ele><time>2025-08-30T03:05:48Z</time></trkpt><trkpt lat="59.7778060008" lon="31.1045065708"><ele>40.51</ele><time>2025-08-30T03:05:56Z</time></trkpt><trkpt lat="59.7778142150" lon="31.1044120230"><ele>40.99</ele><time>2025-08-30T03:06:02Z</time></trkpt><trkpt lat="59.7778130416" lon="31.1043943372"><ele>40.03</ele><time>2025-08-30T03:06:09Z</time></trkpt><trkpt lat="59.7778345831" lon="31.1043149605"><ele>40.03</ele><time>2025-08-30T03:06:24Z</time></trkpt><trkpt lat="59.7778484132" lon="31.1042752303"><ele>40.03</ele><time>2025-08-30T03:06:33Z</time></trkpt><trkpt lat="59.7778635006" lon="31.1042054091"><ele>40.03</ele><time>2025-08-30T03:06:43Z</time></trkpt><trkpt lat="59.7778852098" lon="31.1041687801"><ele>40.03</ele><time>2025-08-30T03:06:50Z</time></trkpt><trkpt lat="59.7779184859" lon="31.1040614080"><ele>40.03</ele><time>2025-08-30T03:06:59Z</time></trkpt><trkpt lat="59.7778849583" lon="31.1040143017"><ele>40.03</ele><time>2025-08-30T03:07:07Z</time></trkpt><trkpt lat="59.7779248562" lon="31.1038959492"><ele>40.51</ele><time>2025-08-30T03:07:16Z</time></trkpt><trkpt lat="59.7779673524" lon="31.1037854757"><ele>40.51</ele><time>2025-08-30T03:07:26Z</time></trkpt><trkpt lat="59.7780334856" lon="31.1037006509"><ele>39.55</ele><time>2025-08-30T03:07:37Z</time></trkpt><trkpt lat="59.7780689411" lon="31.1035680491"><ele>40.03</ele><time>2025-08-30T03:07:47Z</time></trkpt><trkpt lat="59.7780660074" lon="31.1034594197"><ele>39.55</ele><time>2025-08-30T03:07:54Z</time></trkpt><trkpt lat="59.7780800890" lon="31.1034617666"><ele>39.55</ele><time>2025-08-30T03:08:01Z</time></trkpt><trkpt lat="59.7780930810" lon="31.1034190189"><ele>39.55</ele><time>2025-08-30T03:08:14Z</time></trkpt><trkpt lat="59.7781477310" lon="31.1032592598"><ele>39.07</ele><time>2025-08-30T03:08:23Z</time></trkpt><trkpt lat="59.7781520057" lon="31.1032217927"><ele>39.55</ele><time>2025-08-30T03:08:29Z</time></trkpt><trkpt lat="59.7781250160" lon="31.1030856706"><ele>39.07</ele><time>2025-08-30T03:08:36Z</time></trkpt><trkpt lat="59.7781623155" lon="31.1030483712"><ele>39.07</ele><time>2025-08-30T03:08:44Z</time></trkpt><trkpt lat="59.7781914007" lon="31.1029431783"><ele>39.07</ele><time>2025-08-30T03:08:50Z</time></trkpt><trkpt lat="59.7782057337" lon="31.1028411705"><ele>40.03</ele><time>2025-08-30T03:08:57Z</time></trkpt><trkpt lat="59.7782306280" lon="31.1027882807"><ele>39.07</ele><time>2025-08-30T03:09:06Z</time></trkpt><trkpt lat="59.7782671731" lon="31.1027292721"><ele>39.07</ele><time>2025-08-30T03:09:12Z</time></trkpt><trkpt lat="59.7782783210" lon="31.1026523262"><ele>39.07</ele><time>2025-08-30T03:09:20Z</time></trkpt><trkpt lat="59.7783429455" lon="31.1026372388"><ele>38.59</ele><time>2025-08-30T03:09:28Z</time></trkpt><trkpt lat="59.7783773951" lon="31.1025436968"><ele>38.59</ele><time>2025-08-30T03:09:36Z</time></trkpt><trkpt lat="59.7784004454" lon="31.1024878733"><ele>39.07</ele><time>2025-08-30T03:09:42Z</time></trkpt><trkpt lat="59.7784611303" lon="31.1024776474"><ele>38.59</ele><time>2025-08-30T03:09:50Z</time></trkpt><trkpt lat="59.7784787323" lon="31.1024833471"><ele>38.59</ele><time>2025-08-30T03:10:01Z</time></trkpt><trkpt lat="59.7785136010" lon="31.1024967581"><ele>38.59</ele><time>2025-08-30T03:10:14Z</time></trkpt><trkpt lat="59.7785679996" lon="31.1025443673"><ele>38.59</ele><time>2025-08-30T03:10:23Z</time></trkpt><trkpt lat="59.7785814945" lon="31.1025737878"><ele>38.11</ele><time>2025-08-30T03:10:26Z</time></trkpt><trkpt lat="59.7786572669" lon="31.1026265100"><ele>38.11</ele><time>2025-08-30T03:10:34Z</time></trkpt><trkpt lat="59.7787172813" lon="31.1026559304"><ele>38.11</ele><time>2025-08-30T03:10:41Z</time></trkpt><trkpt lat="59.7787884437" lon="31.1026975047"><ele>38.11</ele><time>2025-08-30T03:10:49Z</time></trkpt><trkpt lat="59.7788648028" lon="31.1027333792"><ele>38.11</ele><time>2025-08-30T03:10:57Z</time></trkpt><trkpt lat="59.7788504697" lon="31.1027734447"><ele>38.11</ele><time>2025-08-30T03:11:06Z</time></trkpt><trkpt lat="59.7788786329" lon="31.1028584372"><ele>38.11</ele><time>2025-08-30T03:11:13Z</time></trkpt><trkpt lat="59.7789103165" lon="31.1029498000"><ele>37.15</ele><time>2025-08-30T03:11:23Z</time></trkpt><trkpt lat="59.7789772879" lon="31.1029812321"><ele>37.63</ele><time>2025-08-30T03:11:32Z</time></trkpt><trkpt lat="59.7790186945" lon="31.1030480359"><ele>37.15</ele><time>2025-08-30T03:11:39Z</time></trkpt><trkpt lat="59.7790192813" lon="31.1031002551"><ele>37.15</ele><time>2025-08-30T03:11:50Z</time></trkpt><trkpt lat="59.7790431697" lon="31.1031725910"><ele>37.15</ele><time>2025-08-30T03:12:09Z</time></trkpt><trkpt lat="59.7790332790" lon="31.1031826492"><ele>37.15</ele><time>2025-08-30T03:12:11Z</time></trkpt><trkpt lat="59.7790403198" lon="31.1032683961"><ele>37.15</ele><time>2025-08-30T03:12:18Z</time></trkpt><trkpt lat="59.7789998353" lon="31.1033235490"><ele>37.15</ele><time>2025-08-30T03:12:26Z</time></trkpt><trkpt lat="59.7789731808" lon="31.1034320947"><ele>37.15</ele><time>2025-08-30T03:12:34Z</time></trkpt><trkpt lat="59.7789513879" lon="31.1034491938"><ele>37.15</ele><time>2025-08-30T03:12:46Z</time></trkpt><trkpt lat="59.7789420001" lon="31.1034976412"><ele>37.15</ele><time>2025-08-30T03:12:55Z</time></trkpt><trkpt lat="59.7789448500" lon="31.1035508662"><ele>37.15</ele><time>2025-08-30T03:12:59Z</time></trkpt><trkpt lat="59.7789083887" lon="31.1036288179"><ele>37.15</ele><time>2025-08-30T03:13:07Z</time></trkpt><trkpt lat="59.7788905352" lon="31.1036520358"><ele>37.63</ele><time>2025-08-30T03:13:14Z</time></trkpt><trkpt lat="59.7788623720" lon="31.1037013214"><ele>37.15</ele><time>2025-08-30T03:13:22Z</time></trkpt><trkpt lat="59.7788127512" lon="31.1037489306"><ele>37.63</ele><time>2025-08-30T03:13:29Z</time></trkpt><trkpt lat="59.7788053751" lon="31.1038475856"><ele>37.63</ele><time>2025-08-30T03:13:49Z</time></trkpt><trkpt lat="59.7787768766" lon="31.1038347613"><ele>37.15</ele><time>2025-08-30T03:13:58Z</time></trkpt><trkpt lat="59.7787224781" lon="31.1038255412"><ele>37.15</ele><time>2025-08-30T03:14:06Z</time></trkpt><trkpt lat="59.7786532436" lon="31.1038798559"><ele>37.63</ele><time>2025-08-30T03:14:13Z</time></trkpt><trkpt lat="59.7786273435" lon="31.1039044987"><ele>37.63</ele><time>2025-08-30T03:14:19Z</time></trkpt><trkpt lat="59.7785676643" lon="31.1039908323"><ele>37.15</ele><time>2025-08-30T03:14:27Z</time></trkpt><trkpt lat="59.7785105836" lon="31.1040335800"><ele>38.11</ele><time>2025-08-30T03:14:38Z</time></trkpt><trkpt lat="59.7784961667" lon="31.1041477416"><ele>37.63</ele><time>2025-08-30T03:14:45Z</time></trkpt><trkpt lat="59.7784530837" lon="31.1042731348"><ele>37.63</ele><time>2025-08-30T03:14:54Z</time></trkpt><trkpt lat="59.7784078214" lon="31.1043342389"><ele>38.11</ele><time>2025-08-30T03:15:02Z</time></trkpt><trkpt lat="59.7784193046" lon="31.1044011265"><ele>38.11</ele><time>2025-08-30T03:15:10Z</time></trkpt><trkpt lat="59.7784043849" lon="31.1045219097"><ele>37.63</ele><time>2025-08-30T03:15:21Z</time></trkpt><trkpt lat="59.7783851903" lon="31.1046039686"><ele>37.15</ele><time>2025-08-30T03:15:29Z</time></trkpt><trkpt lat="59.7783657443" lon="31.1046942417"><ele>38.11</ele><time>2025-08-30T03:15:38Z</time></trkpt><trkpt lat="59.7783297021" lon="31.1048053857"><ele>38.59</ele><time>2025-08-30T03:15:46Z</time></trkpt><trkpt lat="59.7783217393" lon="31.1049840879"><ele>38.59</ele><time>2025-08-30T03:15:56Z</time></trkpt><trkpt lat="59.7782970965" lon="31.1050152685"><ele>37.63</ele><time>2025-08-30T03:16:06Z</time></trkpt><trkpt lat="59.7782764770" lon="31.1050984170"><ele>38.11</ele><time>2025-08-30T03:16:17Z</time></trkpt><trkpt lat="59.7782540135" lon="31.1051146779"><ele>38.11</ele><time>2025-08-30T03:16:19Z</time></trkpt><trkpt lat="59.7781874612" lon="31.1051777098"><ele>38.11</ele><time>2025-08-30T03:16:28Z</time></trkpt><trkpt lat="59.7781535983" lon="31.1052881833"><ele>37.63</ele><time>2025-08-30T03:16:38Z</time></trkpt><trkpt lat="59.7781725414" lon="31.1054641195"><ele>38.11</ele><time>2025-08-30T03:16:50Z</time></trkpt><trkpt lat="59.7781437077" lon="31.1055600084"><ele>38.11</ele><time>2025-08-30T03:16:58Z</time></trkpt><trkpt lat="59.7781360801" lon="31.1056129821"><ele>38.11</ele><time>2025-08-30T03:17:09Z</time></trkpt><trkpt lat="59.7781297099" lon="31.1056775227"><ele>38.59</ele><time>2025-08-30T03:17:17Z</time></trkpt><trkpt lat="59.7781699430" lon="31.1057301611"><ele>38.59</ele><time>2025-08-30T03:17:25Z</time></trkpt><trkpt lat="59.7782152891" lon="31.1057062726"><ele>38.59</ele><time>2025-08-30T03:17:33Z</time></trkpt><trkpt lat="59.7782471403" lon="31.1058540456"><ele>38.59</ele><time>2025-08-30T03:17:43Z</time></trkpt><trkpt lat="59.7782490682" lon="31.1060248688"><ele>38.59</ele><time>2025-08-30T03:17:51Z</time></trkpt><trkpt lat="59.7782634851" lon="31.1061235238"><ele>38.11</ele><time>2025-08-30T03:18:02Z</time></trkpt><trkpt lat="59.7782964259" lon="31.1062240228"><ele>38.59</ele><time>2025-08-30T03:18:11Z</time></trkpt><trkpt lat="59.7782986891" lon="31.1062795948"><ele>38.59</ele><time>2025-08-30T03:18:18Z</time></trkpt><trkpt lat="59.7783124354" lon="31.1062741466"><ele>38.59</ele><time>2025-08-30T03:18:31Z</time></trkpt><trkpt lat="59.7782959230" lon="31.1062864680"><ele>39.07</ele><time>2025-08-30T03:18:44Z</time></trkpt><trkpt lat="59.7783058975" lon="31.1063647550"><ele>38.59</ele><time>2025-08-30T03:18:51Z</time></trkpt><trkpt lat="59.7783504054" lon="31.1064583808"><ele>38.59</ele><time>2025-08-30T03:18:58Z</time></trkpt><trkpt lat="59.7783953324" lon="31.1065613106"><ele>38.59</ele><time>2025-08-30T03:19:06Z</time></trkpt><trkpt lat="59.7784493119" lon="31.1067127716"><ele>38.11</ele><time>2025-08-30T03:19:16Z</time></trkpt><trkpt lat="59.7784970049" lon="31.1068176292"><ele>38.11</ele><time>2025-08-30T03:19:24Z</time></trkpt><trkpt lat="59.7785220668" lon="31.1068594549"><ele>38.11</ele><time>2025-08-30T03:19:34Z</time></trkpt><trkpt lat="59.7785180435" lon="31.1069257557"><ele>38.11</ele><time>2025-08-30T03:19:41Z</time></trkpt><trkpt lat="59.7785213962" lon="31.1070540827"><ele>38.11</ele><time>2025-08-30T03:19:53Z</time></trkpt><trkpt lat="59.7784789838" lon="31.1072151829"><ele>38.11</ele><time>2025-08-30T03:20:02Z</time></trkpt><trkpt lat="59.7784420196" lon="31.1072779633"><ele>38.11</ele><time>2025-08-30T03:20:10Z</time></trkpt><trkpt lat="59.7784400079" lon="31.1072911229"><ele>38.59</ele><time>2025-08-30T03:20:20Z</time></trkpt><trkpt lat="59.7784074862" lon="31.1072575953"><ele>38.11</ele><time>2025-08-30T03:20:35Z</time></trkpt><trkpt lat="59.7783589549" lon="31.1073910352"><ele>37.63</ele><time>2025-08-30T03:20:43Z</time></trkpt><trkpt lat="59.7783510759" lon="31.1075609364"><ele>38.11</ele><time>2025-08-30T03:20:52Z</time></trkpt><trkpt lat="59.7783585358" lon="31.1076506227"><ele>37.63</ele><time>2025-08-30T03:21:00Z</time></trkpt><trkpt lat="59.7783940751" lon="31.1077317595"><ele>37.15</ele><time>2025-08-30T03:21:09Z</time></trkpt><trkpt lat="59.7783718631" lon="31.1078387126"><ele>36.67</ele><time>2025-08-30T03:21:17Z</time></trkpt><trkpt lat="59.7783994395" lon="31.1079397146"><ele>36.67</ele><time>2025-08-30T03:21:24Z</time></trkpt><trkpt lat="59.7784151975" lon="31.1080395430"><ele>37.63</ele><time>2025-08-30T03:21:31Z</time></trkpt><trkpt lat="59.7784401756" lon="31.1081401259"><ele>37.63</ele><time>2025-08-30T03:21:38Z</time></trkpt><trkpt lat="59.7784690931" lon="31.1082037445"><ele>36.67</ele><time>2025-08-30T03:21:44Z</time></trkpt><trkpt lat="59.7784882039" lon="31.1083241086"><ele>36.67</ele><time>2025-08-30T03:21:52Z</time></trkpt><trkpt lat="59.7784765530" lon="31.1083942652"><ele>36.19</ele><time>2025-08-30T03:22:03Z</time></trkpt><trkpt lat="59.7784688417" lon="31.1085114442"><ele>36.19</ele><time>2025-08-30T03:22:09Z</time></trkpt><trkpt lat="59.7784865275" lon="31.1086141225"><ele>37.15</ele><time>2025-08-30T03:22:16Z</time></trkpt><trkpt lat="59.7785601206" lon="31.1085731350"><ele>35.71</ele><time>2025-08-30T03:22:22Z</time></trkpt><trkpt lat="59.7786156088" lon="31.1084800959"><ele>35.71</ele><time>2025-08-30T03:22:29Z</time></trkpt><trkpt lat="59.7786830831" lon="31.1083197501"><ele>35.71</ele><time>2025-08-30T03:22:39Z</time></trkpt><trkpt lat="59.7787457798" lon="31.1081679538"><ele>35.23</ele><time>2025-08-30T03:22:48Z</time></trkpt><trkpt lat="59.7787695844" lon="31.1081137229"><ele>35.23</ele><time>2025-08-30T03:22:52Z</time></trkpt><trkpt lat="59.7788009327" lon="31.1080356874"><ele>35.23</ele><time>2025-08-30T03:22:57Z</time></trkpt><trkpt lat="59.7788532358" lon="31.1078874953"><ele>34.74</ele><time>2025-08-30T03:23:04Z</time></trkpt><trkpt lat="59.7788850032" lon="31.1077643652"><ele>34.26</ele><time>2025-08-30T03:23:12Z</time></trkpt><trkpt lat="59.7788799740" lon="31.1076375470"><ele>34.26</ele><time>2025-08-30T03:23:21Z</time></trkpt><trkpt lat="59.7789051197" lon="31.1076543946"><ele>33.78</ele><time>2025-08-30T03:23:30Z</time></trkpt><trkpt lat="59.7788975760" lon="31.1076661292"><ele>33.30</ele><time>2025-08-30T03:23:49Z</time></trkpt><trkpt lat="59.7789227217" lon="31.1076659616"><ele>32.82</ele><time>2025-08-30T03:24:06Z</time></trkpt><trkpt lat="59.7789042816" lon="31.1076592561"><ele>32.82</ele><time>2025-08-30T03:24:27Z</time></trkpt><trkpt lat="59.7789465263" lon="31.1076720804"><ele>32.82</ele><time>2025-08-30T03:24:47Z</time></trkpt><trkpt lat="59.7789430898" lon="31.1076746788"><ele>34.26</ele><time>2025-08-30T03:24:59Z</time></trkpt><trkpt lat="59.7789463587" lon="31.1076744273"><ele>34.26</ele><time>2025-08-30T03:25:00Z</time></trkpt><trkpt lat="59.7789496277" lon="31.1076461803"><ele>33.78</ele><time>2025-08-30T03:25:13Z</time></trkpt><trkpt lat="59.7789732646" lon="31.1076002475"><ele>34.26</ele><time>2025-08-30T03:25:20Z</time></trkpt><trkpt lat="59.7789604403" lon="31.1075745150"><ele>34.26</ele><time>2025-08-30T03:25:28Z</time></trkpt><trkpt lat="59.7789373063" lon="31.1075790413"><ele>34.26</ele><time>2025-08-30T03:25:41Z</time></trkpt><trkpt lat="59.7789630387" lon="31.1075880099"><ele>34.26</ele><time>2025-08-30T03:25:49Z</time></trkpt><trkpt lat="59.7789933812" lon="31.1075262353"><ele>34.74</ele><time>2025-08-30T03:25:55Z</time></trkpt><trkpt lat="59.7790272441" lon="31.1075274087"><ele>35.23</ele><time>2025-08-30T03:26:02Z</time></trkpt><trkpt lat="59.7790880129" lon="31.1074912827"><ele>35.23</ele><time>2025-08-30T03:26:08Z</time></trkpt><trkpt lat="59.7791694850" lon="31.1074630357"><ele>35.23</ele><time>2025-08-30T03:26:17Z</time></trkpt><trkpt lat="59.7791367956" lon="31.1074217129"><ele>35.71</ele><time>2025-08-30T03:26:24Z</time></trkpt><trkpt lat="59.7791164275" lon="31.1073909514"><ele>36.19</ele><time>2025-08-30T03:26:34Z</time></trkpt><trkpt lat="59.7790942993" lon="31.1073466111"><ele>36.67</ele><time>2025-08-30T03:26:45Z</time></trkpt><trkpt lat="59.7791087162" lon="31.1073047854"><ele>36.19</ele><time>2025-08-30T03:26:52Z</time></trkpt><trkpt lat="59.7791033518" lon="31.1071699206"><ele>36.67</ele><time>2025-08-30T03:27:02Z</time></trkpt><trkpt lat="59.7790471930" lon="31.1071319506"><ele>36.67</ele><time>2025-08-30T03:27:11Z</time></trkpt><trkpt lat="59.7790423315" lon="31.1070391629"><ele>36.19</ele><time>2025-08-30T03:27:23Z</time></trkpt><trkpt lat="59.7789919563" lon="31.1069711018"><ele>36.67</ele><time>2025-08-30T03:27:33Z</time></trkpt><trkpt lat="59.7789663076" lon="31.1069016159"><ele>36.19</ele><time>2025-08-30T03:27:42Z</time></trkpt><trkpt lat="59.7789611109" lon="31.1068966705"><ele>36.19</ele><time>2025-08-30T03:27:50Z</time></trkpt><trkpt lat="59.7788852546" lon="31.1069163680"><ele>36.19</ele><time>2025-08-30T03:27:58Z</time></trkpt><trkpt lat="59.7788671497" lon="31.1068178806"><ele>37.15</ele><time>2025-08-30T03:28:06Z</time></trkpt><trkpt lat="59.7787934728" lon="31.1067180522"><ele>36.67</ele><time>2025-08-30T03:28:15Z</time></trkpt><trkpt lat="59.7787420079" lon="31.1066959240"><ele>36.19</ele><time>2025-08-30T03:28:23Z</time></trkpt><trkpt lat="59.7787585203" lon="31.1066420283"><ele>36.19</ele><time>2025-08-30T03:28:36Z</time></trkpt><trkpt lat="59.7787068039" lon="31.1066328920"><ele>36.67</ele><time>2025-08-30T03:28:43Z</time></trkpt><trkpt lat="59.7786705103" lon="31.1066267733"><ele>36.67</ele><time>2025-08-30T03:28:50Z</time></trkpt><trkpt lat="59.7786684148" lon="31.1065535154"><ele>36.67</ele><time>2025-08-30T03:28:58Z</time></trkpt><trkpt lat="59.7786549199" lon="31.1064296309"><ele>35.71</ele><time>2025-08-30T03:29:06Z</time></trkpt><trkpt lat="59.7786465380" lon="31.1064064130"><ele>36.19</ele><time>2025-08-30T03:29:19Z</time></trkpt><trkpt lat="59.7786612064" lon="31.1063683592"><ele>35.71</ele><time>2025-08-30T03:29:35Z</time></trkpt><trkpt lat="59.7786664031" lon="31.1062964424"><ele>35.71</ele><time>2025-08-30T03:29:43Z</time></trkpt><trkpt lat="59.7786843404" lon="31.1062115338"><ele>35.71</ele><time>2025-08-30T03:29:50Z</time></trkpt><trkpt lat="59.7787034512" lon="31.1061801855"><ele>35.71</ele><time>2025-08-30T03:29:58Z</time></trkpt><trkpt lat="59.7787491325" lon="31.1061677802"><ele>35.71</ele><time>2025-08-30T03:30:05Z</time></trkpt><trkpt lat="59.7787899524" lon="31.1061013117"><ele>35.71</ele><time>2025-08-30T03:30:14Z</time></trkpt><trkpt lat="59.7787871026" lon="31.1060117092"><ele>35.23</ele><time>2025-08-30T03:30:23Z</time></trkpt><trkpt lat="59.7787837498" lon="31.1059782654"><ele>35.23</ele><time>2025-08-30T03:30:36Z</time></trkpt><trkpt lat="59.7787926346" lon="31.1058662832"><ele>35.23</ele><time>2025-08-30T03:30:43Z</time></trkpt><trkpt lat="59.7787678242" lon="31.1057815421"><ele>35.23</ele><time>2025-08-30T03:30:50Z</time></trkpt><trkpt lat="59.7787125036" lon="31.1058064364"><ele>35.23</ele><time>2025-08-30T03:30:57Z</time></trkpt><trkpt lat="59.7786904592" lon="31.1058604997"><ele>34.74</ele><time>2025-08-30T03:31:04Z</time></trkpt><trkpt lat="59.7786451969" lon="31.1058322527"><ele>35.23</ele><time>2025-08-30T03:31:12Z</time></trkpt><trkpt lat="59.7786141001" lon="31.1057939474"><ele>35.23</ele><time>2025-08-30T03:31:19Z</time></trkpt><trkpt lat="59.7785665747" lon="31.1057643592"><ele>35.23</ele><time>2025-08-30T03:31:28Z</time></trkpt><trkpt lat="59.7785270959" lon="31.1056621838"><ele>34.74</ele><time>2025-08-30T03:31:36Z</time></trkpt><trkpt lat="59.7785164509" lon="31.1055574100"><ele>35.23</ele><time>2025-08-30T03:31:45Z</time></trkpt><trkpt lat="59.7785183787" lon="31.1053936277"><ele>35.23</ele><time>2025-08-30T03:31:53Z</time></trkpt><trkpt lat="59.7785296105" lon="31.1053295061"><ele>35.23</ele><time>2025-08-30T03:32:01Z</time></trkpt><trkpt lat="59.7785174567" lon="31.1052677315"><ele>35.23</ele><time>2025-08-30T03:32:13Z</time></trkpt><trkpt lat="59.7784840129" lon="31.1052430887"><ele>35.23</ele><time>2025-08-30T03:32:32Z</time></trkpt><trkpt lat="59.7785443626" lon="31.1052643787"><ele>35.71</ele><time>2025-08-30T03:32:42Z</time></trkpt><trkpt lat="59.7785933129" lon="31.1051901989"><ele>35.23</ele><time>2025-08-30T03:32:49Z</time></trkpt><trkpt lat="59.7786411736" lon="31.1051533185"><ele>35.23</ele><time>2025-08-30T03:32:57Z</time></trkpt><trkpt lat="59.7786499746" lon="31.1051332019"><ele>35.71</ele><time>2025-08-30T03:33:02Z</time></trkpt><trkpt lat="59.7786569316" lon="31.1051085591"><ele>35.71</ele><time>2025-08-30T03:33:08Z</time></trkpt><trkpt lat="59.7786625475" lon="31.1051178630"><ele>35.23</ele><time>2025-08-30T03:33:14Z</time></trkpt><trkpt lat="59.7786685824" lon="31.1052054539"><ele>35.23</ele><time>2025-08-30T03:33:19Z</time></trkpt><trkpt lat="59.7787006013" lon="31.1053027678"><ele>35.23</ele><time>2025-08-30T03:33:26Z</time></trkpt><trkpt lat="59.7787304409" lon="31.1053350382"><ele>35.71</ele><time>2025-08-30T03:33:33Z</time></trkpt><trkpt lat="59.7787737753" lon="31.1053938791"><ele>35.71</ele><time>2025-08-30T03:33:42Z</time></trkpt><trkpt lat="59.7788228933" lon="31.1054854095"><ele>35.23</ele><time>2025-08-30T03:33:50Z</time></trkpt><trkpt lat="59.7788493801" lon="31.1054996587"><ele>35.23</ele><time>2025-08-30T03:33:58Z</time></trkpt><trkpt lat="59.7788995877" lon="31.1054677237"><ele>35.23</ele><time>2025-08-30T03:34:08Z</time></trkpt><trkpt lat="59.7789575066" lon="31.1054864991"><ele>35.23</ele><time>2025-08-30T03:34:14Z</time></trkpt><trkpt lat="59.7790399007" lon="31.1054803804"><ele>35.71</ele><time>2025-08-30T03:34:23Z</time></trkpt><trkpt lat="59.7790611908" lon="31.1054107267"><ele>35.23</ele><time>2025-08-30T03:34:31Z</time></trkpt><trkpt lat="59.7790937964" lon="31.1053109821"><ele>34.74</ele><time>2025-08-30T03:34:39Z</time></trkpt><trkpt lat="59.7790937126" lon="31.1051830743"><ele>34.74</ele><time>2025-08-30T03:34:47Z</time></trkpt><trkpt lat="59.7790900245" lon="31.1050849222"><ele>34.74</ele><time>2025-08-30T03:34:54Z</time></trkpt><trkpt lat="59.7790689860" lon="31.1050285958"><ele>34.26</ele><time>2025-08-30T03:35:10Z</time></trkpt><trkpt lat="59.7790844087" lon="31.1050315294"><ele>35.23</ele><time>2025-08-30T03:35:24Z</time></trkpt><trkpt lat="59.7790406551" lon="31.1049277615"><ele>34.74</ele><time>2025-08-30T03:35:37Z</time></trkpt><trkpt lat="59.7790176887" lon="31.1048021168"><ele>34.74</ele><time>2025-08-30T03:35:46Z</time></trkpt><trkpt lat="59.7790389787" lon="31.1047058087"><ele>34.74</ele><time>2025-08-30T03:35:53Z</time></trkpt><trkpt lat="59.7790245619" lon="31.1046614684"><ele>35.71</ele><time>2025-08-30T03:35:59Z</time></trkpt><trkpt lat="59.7790239751" lon="31.1045866180"><ele>35.23</ele><time>2025-08-30T03:36:07Z</time></trkpt><trkpt lat="59.7790347878" lon="31.1044890527"><ele>34.74</ele><time>2025-08-30T03:36:15Z</time></trkpt><trkpt lat="59.7790280823" lon="31.1043914035"><ele>35.23</ele><time>2025-08-30T03:36:22Z</time></trkpt><trkpt lat="59.7790350392" lon="31.1042104382"><ele>35.23</ele><time>2025-08-30T03:36:29Z</time></trkpt><trkpt lat="59.7790385596" lon="31.1041205842"><ele>34.26</ele><time>2025-08-30T03:36:37Z</time></trkpt><trkpt lat="59.7790387273" lon="31.1041688640"><ele>34.26</ele><time>2025-08-30T03:36:53Z</time></trkpt><trkpt lat="59.7790934611" lon="31.1041004676"><ele>35.23</ele><time>2025-08-30T03:37:03Z</time></trkpt><trkpt lat="59.7791616898" lon="31.1040472426"><ele>34.74</ele><time>2025-08-30T03:37:13Z</time></trkpt><trkpt lat="59.7792014200" lon="31.1040407885"><ele>34.74</ele><time>2025-08-30T03:37:20Z</time></trkpt><trkpt lat="59.7792412341" lon="31.1040282156"><ele>35.23</ele><time>2025-08-30T03:37:28Z</time></trkpt><trkpt lat="59.7792766895" lon="31.1040521879"><ele>34.26</ele><time>2025-08-30T03:37:38Z</time></trkpt><trkpt lat="59.7793180961" lon="31.1040565465"><ele>34.74</ele><time>2025-08-30T03:37:45Z</time></trkpt><trkpt lat="59.7793828044" lon="31.1040471587"><ele>35.23</ele><time>2025-08-30T03:37:53Z</time></trkpt><trkpt lat="59.7794080339" lon="31.1040364299"><ele>34.74</ele><time>2025-08-30T03:38:02Z</time></trkpt><trkpt lat="59.7794480994" lon="31.1040180735"><ele>34.74</ele><time>2025-08-30T03:38:11Z</time></trkpt><trkpt lat="59.7795264702" lon="31.1039911676"><ele>34.26</ele><time>2025-08-30T03:38:21Z</time></trkpt><trkpt lat="59.7795827128" lon="31.1039443966"><ele>34.26</ele><time>2025-08-30T03:38:28Z</time></trkpt><trkpt lat="59.7796231974" lon="31.1038723122"><ele>34.74</ele><time>2025-08-30T03:38:35Z</time></trkpt><trkpt lat="59.7796780150" lon="31.1037989706"><ele>34.26</ele><time>2025-08-30T03:38:42Z</time></trkpt><trkpt lat="59.7797120456" lon="31.1036983877"><ele>34.26</ele><time>2025-08-30T03:38:50Z</time></trkpt><trkpt lat="59.7796873190" lon="31.1036799476"><ele>34.26</ele><time>2025-08-30T03:38:55Z</time></trkpt><trkpt lat="59.7796679568" lon="31.1036268063"><ele>33.78</ele><time>2025-08-30T03:38:59Z</time></trkpt><trkpt lat="59.7796504386" lon="31.1035337672"><ele>34.26</ele><time>2025-08-30T03:39:07Z</time></trkpt><trkpt lat="59.7796692979" lon="31.1034203600"><ele>34.26</ele><time>2025-08-30T03:39:15Z</time></trkpt><trkpt lat="59.7796727344" lon="31.1032919493"><ele>34.26</ele><time>2025-08-30T03:39:23Z</time></trkpt><trkpt lat="59.7796458285" lon="31.1032212898"><ele>34.26</ele><time>2025-08-30T03:39:31Z</time></trkpt><trkpt lat="59.7796685435" lon="31.1031324416"><ele>35.23</ele><time>2025-08-30T03:39:39Z</time></trkpt><trkpt lat="59.7796830442" lon="31.1030859221"><ele>34.74</ele><time>2025-08-30T03:39:46Z</time></trkpt><trkpt lat="59.7796785180" lon="31.1030762829"><ele>34.74</ele><time>2025-08-30T03:40:05Z</time></trkpt><trkpt lat="59.7796798591" lon="31.1030865926"><ele>34.74</ele><time>2025-08-30T03:40:28Z</time></trkpt><trkpt lat="59.7796938568" lon="31.1031121574"><ele>34.74</ele><time>2025-08-30T03:40:48Z</time></trkpt><trkpt lat="59.7796951979" lon="31.1030844133"><ele>34.74</ele><time>2025-08-30T03:41:02Z</time></trkpt><trkpt lat="59.7796860617" lon="31.1030701641"><ele>34.26</ele><time>2025-08-30T03:41:09Z</time></trkpt><trkpt lat="59.7797045019" lon="31.1031023506"><ele>34.26</ele><time>2025-08-30T03:41:25Z</time></trkpt><trkpt lat="59.7797069326" lon="31.1031113192"><ele>34.26</ele><time>2025-08-30T03:41:35Z</time></trkpt><trkpt lat="59.7797057591" lon="31.1031258199"><ele>34.26</ele><time>2025-08-30T03:41:52Z</time></trkpt><trkpt lat="59.7797091119" lon="31.1030736845"><ele>33.78</ele><time>2025-08-30T03:42:07Z</time></trkpt><trkpt lat="59.7797058430" lon="31.1030803062"><ele>33.78</ele><time>2025-08-30T03:42:27Z</time></trkpt><trkpt lat="59.7797295637" lon="31.1031109001"><ele>33.78</ele><time>2025-08-30T03:42:49Z</time></trkpt><trkpt lat="59.7797004785" lon="31.1030849162"><ele>33.78</ele><time>2025-08-30T03:43:06Z</time></trkpt><trkpt lat="59.7796697170" lon="31.1030888557"><ele>33.78</ele><time>2025-08-30T03:43:27Z</time></trkpt><trkpt lat="59.7796925995" lon="31.1031163484"><ele>33.78</ele><time>2025-08-30T03:43:46Z</time></trkpt><trkpt lat="59.7797132190" lon="31.1030886043"><ele>33.78</ele><time>2025-08-30T03:44:07Z</time></trkpt><trkpt lat="59.7797001433" lon="31.1030844133"><ele>33.78</ele><time>2025-08-30T03:44:24Z</time></trkpt><trkpt lat="59.7796868999" lon="31.1030913703"><ele>33.30</ele><time>2025-08-30T03:44:43Z</time></trkpt><trkpt lat="59.7796951141" lon="31.1030659731"><ele>33.78</ele><time>2025-08-30T03:45:01Z</time></trkpt><trkpt lat="59.7796879895" lon="31.1030535679"><ele>33.30</ele><time>2025-08-30T03:45:17Z</time></trkpt><trkpt lat="59.7796679568" lon="31.1030380614"><ele>34.26</ele><time>2025-08-30T03:45:31Z</time></trkpt><trkpt lat="59.7796450742" lon="31.1030118261"><ele>33.78</ele><time>2025-08-30T03:45:40Z</time></trkpt><trkpt lat="59.7796480078" lon="31.1030167714"><ele>33.30</ele><time>2025-08-30T03:45:51Z</time></trkpt><trkpt lat="59.7796521150" lon="31.1030100659"><ele>33.30</ele><time>2025-08-30T03:45:55Z</time></trkpt><trkpt lat="59.7796642687" lon="31.1030699965"><ele>33.78</ele><time>2025-08-30T03:46:02Z</time></trkpt><trkpt lat="59.7796571441" lon="31.1030145921"><ele>34.74</ele><time>2025-08-30T03:46:07Z</time></trkpt><trkpt lat="59.7796139773" lon="31.1029607803"><ele>34.26</ele><time>2025-08-30T03:46:13Z</time></trkpt><trkpt lat="59.7795460839" lon="31.1029328685"><ele>34.26</ele><time>2025-08-30T03:46:20Z</time></trkpt><trkpt lat="59.7794499435" lon="31.1028649751"><ele>35.23</ele><time>2025-08-30T03:46:30Z</time></trkpt><trkpt lat="59.7793870792" lon="31.1028347164"><ele>34.74</ele><time>2025-08-30T03:46:39Z</time></trkpt><trkpt lat="59.7793203592" lon="31.1028146837"><ele>34.26</ele><time>2025-08-30T03:46:46Z</time></trkpt><trkpt lat="59.7792332713" lon="31.1027790606"><ele>33.78</ele><time>2025-08-30T03:46:55Z</time></trkpt><trkpt lat="59.7791404836" lon="31.1027327925"><ele>34.74</ele><time>2025-08-30T03:47:04Z</time></trkpt><trkpt lat="59.7790516354" lon="31.1026901286"><ele>34.26</ele><time>2025-08-30T03:47:12Z</time></trkpt><trkpt lat="59.7790124919" lon="31.1026804056"><ele>34.26</ele><time>2025-08-30T03:47:17Z</time></trkpt><trkpt lat="59.7789461073" lon="31.1026206426"><ele>34.26</ele><time>2025-08-30T03:47:23Z</time></trkpt><trkpt lat="59.7788632941" lon="31.1025700998"><ele>34.74</ele><time>2025-08-30T03:47:30Z</time></trkpt><trkpt lat="59.7787761223" lon="31.1025251728"><ele>34.26</ele><time>2025-08-30T03:47:38Z</time></trkpt><trkpt lat="59.7787056305" lon="31.1024837662"><ele>34.26</ele><time>2025-08-30T03:47:45Z</time></trkpt><trkpt lat="59.7786135133" lon="31.1024208181"><ele>34.26</ele><time>2025-08-30T03:47:53Z</time></trkpt><trkpt lat="59.7785458714" lon="31.1024041381"><ele>34.26</ele><time>2025-08-30T03:48:00Z</time></trkpt><trkpt lat="59.7784332186" lon="31.1023627315"><ele>34.26</ele><time>2025-08-30T03:48:10Z</time></trkpt><trkpt lat="59.7783182189" lon="31.1023068242"><ele>34.26</ele><time>2025-08-30T03:48:21Z</time></trkpt><trkpt lat="59.7782213241" lon="31.1022637412"><ele>34.26</ele><time>2025-08-30T03:48:30Z</time></trkpt><trkpt lat="59.7781137843" lon="31.1022069119"><ele>34.26</ele><time>2025-08-30T03:48:40Z</time></trkpt><trkpt lat="59.7780436277" lon="31.1021584645"><ele>34.74</ele><time>2025-08-30T03:48:47Z</time></trkpt><trkpt lat="59.7779635806" lon="31.1021251045"><ele>34.74</ele><time>2025-08-30T03:48:54Z</time></trkpt><trkpt lat="59.7778826952" lon="31.1020918284"><ele>34.26</ele><time>2025-08-30T03:49:01Z</time></trkpt><trkpt lat="59.7777940985" lon="31.1020426266"><ele>35.23</ele><time>2025-08-30T03:49:09Z</time></trkpt><trkpt lat="59.7777029872" lon="31.1019981187"><ele>34.74</ele><time>2025-08-30T03:49:17Z</time></trkpt><trkpt lat="59.7775811143" lon="31.1019370146"><ele>35.23</ele><time>2025-08-30T03:49:28Z</time></trkpt><trkpt lat="59.7774728201" lon="31.1018806882"><ele>35.23</ele><time>2025-08-30T03:49:37Z</time></trkpt><trkpt lat="59.7773803677" lon="31.1018244456"><ele>35.23</ele><time>2025-08-30T03:49:45Z</time></trkpt><trkpt lat="59.7772800364" lon="31.1017716397"><ele>35.23</ele><time>2025-08-30T03:49:54Z</time></trkpt><trkpt lat="59.7771783639" lon="31.1017293949"><ele>35.23</ele><time>2025-08-30T03:50:03Z</time></trkpt><trkpt lat="59.7770632803" lon="31.1016802769"><ele>35.71</ele><time>2025-08-30T03:50:13Z</time></trkpt><trkpt lat="59.7769787069" lon="31.1016358528"><ele>35.23</ele><time>2025-08-30T03:50:21Z</time></trkpt><trkpt lat="59.7768704966" lon="31.1015672050"><ele>35.23</ele><time>2025-08-30T03:50:30Z</time></trkpt><trkpt lat="59.7767668962" lon="31.1015016586"><ele>35.71</ele><time>2025-08-30T03:50:39Z</time></trkpt><trkpt lat="59.7766674869" lon="31.1014493555"><ele>35.71</ele><time>2025-08-30T03:50:48Z</time></trkpt><trkpt lat="59.7765803151" lon="31.1014103796"><ele>35.71</ele><time>2025-08-30T03:50:56Z</time></trkpt><trkpt lat="59.7764481325" lon="31.1013485212"><ele>35.23</ele><time>2025-08-30T03:51:07Z</time></trkpt><trkpt lat="59.7763410956" lon="31.1013054382"><ele>34.74</ele><time>2025-08-30T03:51:16Z</time></trkpt><trkpt lat="59.7762443684" lon="31.1012651213"><ele>35.71</ele><time>2025-08-30T03:51:25Z</time></trkpt><trkpt lat="59.7761506587" lon="31.1012163386"><ele>35.71</ele><time>2025-08-30T03:51:33Z</time></trkpt><trkpt lat="59.7760626487" lon="31.1011690646"><ele>35.23</ele><time>2025-08-30T03:51:41Z</time></trkpt><trkpt lat="59.7759535164" lon="31.1011248920"><ele>35.23</ele><time>2025-08-30T03:51:50Z</time></trkpt><trkpt lat="59.7758606449" lon="31.1010906938"><ele>35.23</ele><time>2025-08-30T03:51:58Z</time></trkpt><trkpt lat="59.7758232616" lon="31.1010767799"><ele>35.71</ele><time>2025-08-30T03:52:01Z</time></trkpt><trkpt lat="59.7757164761" lon="31.1010132451"><ele>35.23</ele><time>2025-08-30T03:52:11Z</time></trkpt><trkpt lat="59.7756188270" lon="31.1009625345"><ele>35.23</ele><time>2025-08-30T03:52:19Z</time></trkpt><trkpt lat="59.7755388636" lon="31.1009257380"><ele>35.23</ele><time>2025-08-30T03:52:26Z</time></trkpt><trkpt lat="59.7754372749" lon="31.1008785479"><ele>35.23</ele><time>2025-08-30T03:52:35Z</time></trkpt><trkpt lat="59.7754089441" lon="31.1008705013"><ele>36.19</ele><time>2025-08-30T03:52:37Z</time></trkpt><trkpt lat="59.7753394581" lon="31.1008070502"><ele>35.23</ele><time>2025-08-30T03:52:44Z</time></trkpt><trkpt lat="59.7752497718" lon="31.1007686611"><ele>35.23</ele><time>2025-08-30T03:52:52Z</time></trkpt><trkpt lat="59.7751519550" lon="31.1007117480"><ele>35.23</ele><time>2025-08-30T03:53:00Z</time></trkpt><trkpt lat="59.7750693094" lon="31.1006695870"><ele>35.23</ele><time>2025-08-30T03:53:07Z</time></trkpt><trkpt lat="59.7749674693" lon="31.1006114166"><ele>35.23</ele><time>2025-08-30T03:53:16Z</time></trkpt><trkpt lat="59.7748723347" lon="31.1005656514"><ele>35.23</ele><time>2025-08-30T03:53:24Z</time></trkpt><trkpt lat="59.7747971490" lon="31.1005241610"><ele>35.23</ele><time>2025-08-30T03:53:31Z</time></trkpt><trkpt lat="59.7747212928" lon="31.1004985962"><ele>35.71</ele><time>2025-08-30T03:53:38Z</time></trkpt><trkpt lat="59.7746607754" lon="31.1004566029"><ele>35.23</ele><time>2025-08-30T03:53:44Z</time></trkpt><trkpt lat="59.7745739389" lon="31.1004176270"><ele>35.23</ele><time>2025-08-30T03:53:52Z</time></trkpt><trkpt lat="59.7745457757" lon="31.1004344746"><ele>35.23</ele><time>2025-08-30T03:53:59Z</time></trkpt><trkpt lat="59.7745294310" lon="31.1003927328"><ele>35.23</ele><time>2025-08-30T03:54:11Z</time></trkpt><trkpt lat="59.7745290957" lon="31.1003976781"><ele>35.23</ele><time>2025-08-30T03:54:28Z</time></trkpt></trkseg><trkseg><trkpt lat="59.7745443508" lon="31.1004083231"><ele>35.23</ele><time>2025-08-30T03:54:49Z</time></trkpt><trkpt lat="59.7745435126" lon="31.1004125979"><ele>35.23</ele><time>2025-08-30T03:54:51Z</time></trkpt></trkseg><trkseg><trkpt lat="60.8968408685" lon="30.1593287196"><ele>-5.15</ele><time>2025-09-14T14:43:12Z</time></trkpt><trkpt lat="60.8968334924" lon="30.1593082678"><ele>-0.34</ele><time>2025-09-14T14:43:14Z</time></trkpt><trkpt lat="60.8968225960" lon="30.1592850499"><ele>1.58</ele><time>2025-09-14T14:43:16Z</time></trkpt><trkpt lat="60.8968163095" lon="30.1592836250"><ele>6.39</ele><time>2025-09-14T14:43:17Z</time></trkpt><trkpt lat="60.8968134597" lon="30.1592768356"><ele>10.71</ele><time>2025-09-14T14:43:19Z</time></trkpt><trkpt lat="60.8968162257" lon="30.1592697948"><ele>14.08</ele><time>2025-09-14T14:43:21Z</time></trkpt><trkpt lat="60.8968111966" lon="30.1592657715"><ele>17.44</ele><time>2025-09-14T14:43:23Z</time></trkpt><trkpt lat="60.8967995457" lon="30.1592762489"><ele>20.81</ele><time>2025-09-14T14:43:25Z</time></trkpt><trkpt lat="60.8967798483" lon="30.1592989638"><ele>24.17</ele><time>2025-09-14T14:43:27Z</time></trkpt><trkpt lat="60.8967547026" lon="30.1593350060"><ele>27.53</ele><time>2025-09-14T14:43:30Z</time></trkpt><trkpt lat="60.8967310656" lon="30.1593528595"><ele>31.38</ele><time>2025-09-14T14:43:33Z</time></trkpt><trkpt lat="60.8967310656" lon="30.1593592297"><ele>34.74</ele><time>2025-09-14T14:43:36Z</time></trkpt><trkpt lat="60.8967305627" lon="30.1593658514"><ele>38.11</ele><time>2025-09-14T14:43:40Z</time></trkpt><trkpt lat="60.8967270423" lon="30.1593713835"><ele>40.03</ele><time>2025-09-14T14:43:42Z</time></trkpt><trkpt lat="60.8967141341" lon="30.1593741495"><ele>42.92</ele><time>2025-09-14T14:43:45Z</time></trkpt><trkpt lat="60.8966871444" lon="30.1593905780"><ele>45.80</ele><time>2025-09-14T14:43:50Z</time></trkpt><trkpt lat="60.8966795169" lon="30.1593941823"><ele>47.24</ele><time>2025-09-14T14:43:52Z</time></trkpt><trkpt lat="60.8966690395" lon="30.1594011392"><ele>50.61</ele><time>2025-09-14T14:43:59Z</time></trkpt><trkpt lat="60.8966717217" lon="30.1594157238"><ele>53.97</ele><time>2025-09-14T14:44:09Z</time></trkpt><trkpt lat="60.8966566343" lon="30.1594209205"><ele>57.34</ele><time>2025-09-14T14:44:19Z</time></trkpt><trkpt lat="60.8966481686" lon="30.1594408695"><ele>60.22</ele><time>2025-09-14T14:44:30Z</time></trkpt><trkpt lat="60.8966701292" lon="30.1594362594"><ele>63.10</ele><time>2025-09-14T14:44:46Z</time></trkpt><trkpt lat="60.8966790978" lon="30.1594365109"><ele>65.99</ele><time>2025-09-14T14:44:56Z</time></trkpt><trkpt lat="60.8966901619" lon="30.1593962777"><ele>65.51</ele><time>2025-09-14T14:45:05Z</time></trkpt><trkpt lat="60.8966839593" lon="30.1593459025"><ele>66.47</ele><time>2025-09-14T14:45:11Z</time></trkpt><trkpt lat="60.8966999687" lon="30.1594040729"><ele>66.47</ele><time>2025-09-14T14:45:22Z</time></trkpt><trkpt lat="60.8967049140" lon="30.1594319008"><ele>66.47</ele><time>2025-09-14T14:45:40Z</time></trkpt><trkpt lat="60.8967231028" lon="30.1594243571"><ele>65.99</ele><time>2025-09-14T14:45:47Z</time></trkpt><trkpt lat="60.8967290539" lon="30.1594114490"><ele>66.47</ele><time>2025-09-14T14:45:59Z</time></trkpt><trkpt lat="60.8967438899" lon="30.1594345830"><ele>66.47</ele><time>2025-09-14T14:46:12Z</time></trkpt><trkpt lat="60.8966984600" lon="30.1594381873"><ele>65.99</ele><time>2025-09-14T14:46:23Z</time></trkpt><trkpt lat="60.8967148885" lon="30.1594521850"><ele>65.99</ele><time>2025-09-14T14:46:33Z</time></trkpt><trkpt lat="60.8967153076" lon="30.1593905780"><ele>66.47</ele><time>2025-09-14T14:46:45Z</time></trkpt><trkpt lat="60.8966796007" lon="30.1594189927"><ele>66.47</ele><time>2025-09-14T14:46:53Z</time></trkpt><trkpt lat="60.8967159782" lon="30.1593935955"><ele>65.99</ele><time>2025-09-14T14:47:03Z</time></trkpt><trkpt lat="60.8967452310" lon="30.1594153885"><ele>65.51</ele><time>2025-09-14T14:47:17Z</time></trkpt><trkpt lat="60.8966961969" lon="30.1594816893"><ele>65.99</ele><time>2025-09-14T14:47:29Z</time></trkpt><trkpt lat="60.8967095241" lon="30.1595126186"><ele>66.47</ele><time>2025-09-14T14:47:42Z</time></trkpt><trkpt lat="60.8967118710" lon="30.1594570465"><ele>66.47</ele><time>2025-09-14T14:47:51Z</time></trkpt><trkpt lat="60.8967138827" lon="30.1595033985"><ele>66.47</ele><time>2025-09-14T14:48:05Z</time></trkpt><trkpt lat="60.8967124578" lon="30.1594976149"><ele>66.47</ele><time>2025-09-14T14:48:15Z</time></trkpt><trkpt lat="60.8967324067" lon="30.1594552863"><ele>66.47</ele><time>2025-09-14T14:48:33Z</time></trkpt><trkpt lat="60.8967077639" lon="30.1594883110"><ele>66.47</ele><time>2025-09-14T14:48:50Z</time></trkpt><trkpt lat="60.8967009746" lon="30.1595191564"><ele>66.47</ele><time>2025-09-14T14:49:02Z</time></trkpt><trkpt lat="60.8966778405" lon="30.1594199147"><ele>67.43</ele><time>2025-09-14T14:49:13Z</time></trkpt><trkpt lat="60.8966806065" lon="30.1592427213"><ele>66.95</ele><time>2025-09-14T14:49:27Z</time></trkpt><trkpt lat="60.8967414591" lon="30.1592062600"><ele>66.95</ele><time>2025-09-14T14:49:35Z</time></trkpt><trkpt lat="60.8967985399" lon="30.1591609977"><ele>66.47</ele><time>2025-09-14T14:49:41Z</time></trkpt><trkpt lat="60.8968458977" lon="30.1590900868"><ele>67.43</ele><time>2025-09-14T14:49:49Z</time></trkpt><trkpt lat="60.8968390245" lon="30.1590541285"><ele>65.99</ele><time>2025-09-14T14:49:55Z</time></trkpt><trkpt lat="60.8968382701" lon="30.1590255462"><ele>65.99</ele><time>2025-09-14T14:50:07Z</time></trkpt><trkpt lat="60.8968620747" lon="30.1589921024"><ele>66.47</ele><time>2025-09-14T14:50:15Z</time></trkpt><trkpt lat="60.8968988713" lon="30.1588493586"><ele>66.47</ele><time>2025-09-14T14:50:22Z</time></trkpt><trkpt lat="60.8969161380" lon="30.1587983966"><ele>65.03</ele><time>2025-09-14T14:50:25Z</time></trkpt><trkpt lat="60.8969648369" lon="30.1586287469"><ele>66.95</ele><time>2025-09-14T14:50:34Z</time></trkpt><trkpt lat="60.8969967719" lon="30.1584373880"><ele>66.47</ele><time>2025-09-14T14:50:43Z</time></trkpt><trkpt lat="60.8970338199" lon="30.1583193708"><ele>66.47</ele><time>2025-09-14T14:50:50Z</time></trkpt><trkpt lat="60.8970682696" lon="30.1581550017"><ele>66.47</ele><time>2025-09-14T14:50:59Z</time></trkpt><trkpt lat="60.8971180581" lon="30.1580480486"><ele>65.99</ele><time>2025-09-14T14:51:08Z</time></trkpt><trkpt lat="60.8971955907" lon="30.1581217255"><ele>65.99</ele><time>2025-09-14T14:51:16Z</time></trkpt><trkpt lat="60.8972396795" lon="30.1582073048"><ele>65.99</ele><time>2025-09-14T14:51:25Z</time></trkpt><trkpt lat="60.8972509112" lon="30.1581648085"><ele>66.47</ele><time>2025-09-14T14:51:37Z</time></trkpt><trkpt lat="60.8973305393" lon="30.1582166925"><ele>66.47</ele><time>2025-09-14T14:51:47Z</time></trkpt><trkpt lat="60.8973832615" lon="30.1582736894"><ele>66.47</ele><time>2025-09-14T14:51:55Z</time></trkpt><trkpt lat="60.8974546753" lon="30.1581753697"><ele>66.95</ele><time>2025-09-14T14:52:04Z</time></trkpt><trkpt lat="60.8974360675" lon="30.1581502240"><ele>66.47</ele><time>2025-09-14T14:52:15Z</time></trkpt><trkpt lat="60.8974397555" lon="30.1581039559"><ele>66.47</ele><time>2025-09-14T14:52:26Z</time></trkpt><trkpt lat="60.8974369895" lon="30.1580861025"><ele>66.47</ele><time>2025-09-14T14:52:39Z</time></trkpt><trkpt lat="60.8974426053" lon="30.1580842584"><ele>66.47</ele><time>2025-09-14T14:52:53Z</time></trkpt><trkpt lat="60.8974877838" lon="30.1581500564"><ele>66.47</ele><time>2025-09-14T14:53:05Z</time></trkpt><trkpt lat="60.8975060564" lon="30.1581570972"><ele>66.47</ele><time>2025-09-14T14:53:16Z</time></trkpt><trkpt lat="60.8975146897" lon="30.1581798960"><ele>65.99</ele><time>2025-09-14T14:53:27Z</time></trkpt><trkpt lat="60.8975511510" lon="30.1582130883"><ele>66.47</ele><time>2025-09-14T14:53:35Z</time></trkpt><trkpt lat="60.8976313658" lon="30.1582866814"><ele>66.47</ele><time>2025-09-14T14:53:46Z</time></trkpt><trkpt lat="60.8977099042" lon="30.1582527347"><ele>66.47</ele><time>2025-09-14T14:53:55Z</time></trkpt><trkpt lat="60.8977825753" lon="30.1582994219"><ele>66.47</ele><time>2025-09-14T14:54:04Z</time></trkpt><trkpt lat="60.8978253230" lon="30.1583777927"><ele>66.95</ele><time>2025-09-14T14:54:13Z</time></trkpt><trkpt lat="60.8979057893" lon="30.1583760325"><ele>67.43</ele><time>2025-09-14T14:54:21Z</time></trkpt><trkpt lat="60.8979494590" lon="30.1584116556"><ele>67.43</ele><time>2025-09-14T14:54:27Z</time></trkpt><trkpt lat="60.8979958948" lon="30.1583978254"><ele>67.43</ele><time>2025-09-14T14:54:35Z</time></trkpt><trkpt lat="60.8980281651" lon="30.1584285870"><ele>67.43</ele><time>2025-09-14T14:54:43Z</time></trkpt><trkpt lat="60.8980344515" lon="30.1584317721"><ele>67.43</ele><time>2025-09-14T14:54:54Z</time></trkpt><trkpt lat="60.8981258981" lon="30.1584508829"><ele>67.43</ele><time>2025-09-14T14:55:02Z</time></trkpt><trkpt lat="60.8981297538" lon="30.1585954707"><ele>67.43</ele><time>2025-09-14T14:55:10Z</time></trkpt><trkpt lat="60.8981839009" lon="30.1586303394"><ele>67.91</ele><time>2025-09-14T14:55:18Z</time></trkpt><trkpt lat="60.8982238825" lon="30.1585390605"><ele>67.91</ele><time>2025-09-14T14:55:24Z</time></trkpt><trkpt lat="60.8982791193" lon="30.1585868374"><ele>67.43</ele><time>2025-09-14T14:55:31Z</time></trkpt><trkpt lat="60.8983252198" lon="30.1586381346"><ele>67.43</ele><time>2025-09-14T14:55:39Z</time></trkpt><trkpt lat="60.8983645309" lon="30.1586886775"><ele>67.91</ele><time>2025-09-14T14:55:49Z</time></trkpt><trkpt lat="60.8984151576" lon="30.1586228795"><ele>67.43</ele><time>2025-09-14T14:55:57Z</time></trkpt><trkpt lat="60.8984570671" lon="30.1585231349"><ele>67.91</ele><time>2025-09-14T14:56:04Z</time></trkpt><trkpt lat="60.8985040896" lon="30.1586165093"><ele>67.43</ele><time>2025-09-14T14:56:11Z</time></trkpt><trkpt lat="60.8985434845" lon="30.1586402301"><ele>67.43</ele><time>2025-09-14T14:56:20Z</time></trkpt><trkpt lat="60.8985891659" lon="30.1586402301"><ele>67.43</ele><time>2025-09-14T14:56:27Z</time></trkpt><trkpt lat="60.8986242022" lon="30.1586559042"><ele>67.91</ele><time>2025-09-14T14:56:34Z</time></trkpt><trkpt lat="60.8986437321" lon="30.1586996578"><ele>67.91</ele><time>2025-09-14T14:56:40Z</time></trkpt><trkpt lat="60.8986718953" lon="30.1586684771"><ele>67.91</ele><time>2025-09-14T14:56:47Z</time></trkpt><trkpt lat="60.8986996394" lon="30.1586954668"><ele>67.91</ele><time>2025-09-14T14:56:54Z</time></trkpt><trkpt lat="60.8987476677" lon="30.1586676389"><ele>67.91</ele><time>2025-09-14T14:57:01Z</time></trkpt><trkpt lat="60.8988324925" lon="30.1586895995"><ele>67.91</ele><time>2025-09-14T14:57:09Z</time></trkpt><trkpt lat="60.8988749050" lon="30.1587401424"><ele>67.91</ele><time>2025-09-14T14:57:16Z</time></trkpt><trkpt lat="60.8989275433" lon="30.1586952154"><ele>67.43</ele><time>2025-09-14T14:57:23Z</time></trkpt><trkpt lat="60.8989165630" lon="30.1587078720"><ele>67.43</ele><time>2025-09-14T14:57:32Z</time></trkpt><trkpt lat="60.8989432175" lon="30.1587680541"><ele>67.43</ele><time>2025-09-14T14:57:47Z</time></trkpt><trkpt lat="60.8989678603" lon="30.1587987319"><ele>66.95</ele><time>2025-09-14T14:57:58Z</time></trkpt><trkpt lat="60.8990593906" lon="30.1587506197"><ele>66.95</ele><time>2025-09-14T14:58:08Z</time></trkpt><trkpt lat="60.8990975283" lon="30.1586532220"><ele>66.47</ele><time>2025-09-14T14:58:15Z</time></trkpt><trkpt lat="60.8991402760" lon="30.1585830655"><ele>66.95</ele><time>2025-09-14T14:58:25Z</time></trkpt><trkpt lat="60.8992073312" lon="30.1584646292"><ele>66.95</ele><time>2025-09-14T14:58:33Z</time></trkpt><trkpt lat="60.8992476482" lon="30.1584283356"><ele>66.95</ele><time>2025-09-14T14:58:40Z</time></trkpt><trkpt lat="60.8992780745" lon="30.1585363783"><ele>66.95</ele><time>2025-09-14T14:58:48Z</time></trkpt><trkpt lat="60.8993131947" lon="30.1586158387"><ele>67.43</ele><time>2025-09-14T14:58:55Z</time></trkpt><trkpt lat="60.8993362449" lon="30.1586600114"><ele>66.95</ele><time>2025-09-14T14:59:00Z</time></trkpt><trkpt lat="60.8993474767" lon="30.1586370450"><ele>66.95</ele><time>2025-09-14T14:59:08Z</time></trkpt><trkpt lat="60.8993922360" lon="30.1586445887"><ele>66.95</ele><time>2025-09-14T14:59:15Z</time></trkpt><trkpt lat="60.8994556870" lon="30.1586543955"><ele>67.43</ele><time>2025-09-14T14:59:22Z</time></trkpt><trkpt lat="60.8994999435" lon="30.1587033458"><ele>66.95</ele><time>2025-09-14T14:59:29Z</time></trkpt><trkpt lat="60.8995640650" lon="30.1586466003"><ele>67.43</ele><time>2025-09-14T14:59:38Z</time></trkpt><trkpt lat="60.8996071480" lon="30.1586655434"><ele>67.43</ele><time>2025-09-14T14:59:44Z</time></trkpt><trkpt lat="60.8996529132" lon="30.1587522961"><ele>66.95</ele><time>2025-09-14T14:59:55Z</time></trkpt><trkpt lat="60.8997040428" lon="30.1587873325"><ele>67.43</ele><time>2025-09-14T15:00:02Z</time></trkpt><trkpt lat="60.8997318707" lon="30.1587351132"><ele>67.43</ele><time>2025-09-14T15:00:09Z</time></trkpt><trkpt lat="60.8997550048" lon="30.1586286630"><ele>67.43</ele><time>2025-09-14T15:00:17Z</time></trkpt><trkpt lat="60.8997873589" lon="30.1585534774"><ele>67.43</ele><time>2025-09-14T15:00:23Z</time></trkpt><trkpt lat="60.8998441044" lon="30.1585217938"><ele>67.43</ele><time>2025-09-14T15:00:31Z</time></trkpt><trkpt lat="60.8998875227" lon="30.1584748551"><ele>66.95</ele><time>2025-09-14T15:00:38Z</time></trkpt><trkpt lat="60.8999040350" lon="30.1584413275"><ele>67.43</ele><time>2025-09-14T15:00:44Z</time></trkpt><trkpt lat="60.8999127522" lon="30.1583572570"><ele>67.43</ele><time>2025-09-14T15:00:51Z</time></trkpt><trkpt lat="60.8999610320" lon="30.1584413275"><ele>67.43</ele><time>2025-09-14T15:00:59Z</time></trkpt><trkpt lat="60.9000222199" lon="30.1585572492"><ele>67.91</ele><time>2025-09-14T15:01:07Z</time></trkpt><trkpt lat="60.9000586811" lon="30.1585815568"><ele>67.91</ele><time>2025-09-14T15:01:15Z</time></trkpt><trkpt lat="60.9000871796" lon="30.1585137472"><ele>67.43</ele><time>2025-09-14T15:01:22Z</time></trkpt><trkpt lat="60.9000985790" lon="30.1584950555"><ele>67.43</ele><time>2025-09-14T15:01:29Z</time></trkpt><trkpt lat="60.9001441766" lon="30.1584584266"><ele>67.91</ele><time>2025-09-14T15:01:35Z</time></trkpt><trkpt lat="60.9002196975" lon="30.1584255695"><ele>67.91</ele><time>2025-09-14T15:01:42Z</time></trkpt><trkpt lat="60.9002442565" lon="30.1583860070"><ele>67.91</ele><time>2025-09-14T15:01:49Z</time></trkpt><trkpt lat="60.9002489503" lon="30.1582366414"><ele>67.43</ele><time>2025-09-14T15:01:57Z</time></trkpt><trkpt lat="60.9002476092" lon="30.1581964921"><ele>67.43</ele><time>2025-09-14T15:02:00Z</time></trkpt><trkpt lat="60.9002582543" lon="30.1580099110"><ele>67.43</ele><time>2025-09-14T15:02:08Z</time></trkpt><trkpt lat="60.9002469387" lon="30.1579620503"><ele>67.43</ele><time>2025-09-14T15:02:15Z</time></trkpt><trkpt lat="60.9002570808" lon="30.1578773092"><ele>67.43</ele><time>2025-09-14T15:02:21Z</time></trkpt><trkpt lat="60.9002603497" lon="30.1577389240"><ele>67.43</ele><time>2025-09-14T15:02:29Z</time></trkpt><trkpt lat="60.9002703242" lon="30.1576100104"><ele>66.95</ele><time>2025-09-14T15:02:35Z</time></trkpt><trkpt lat="60.9002655465" lon="30.1575779077"><ele>67.43</ele><time>2025-09-14T15:02:44Z</time></trkpt><trkpt lat="60.9002832323" lon="30.1575026382"><ele>67.43</ele><time>2025-09-14T15:02:50Z</time></trkpt><trkpt lat="60.9002801310" lon="30.1574182324"><ele>67.43</ele><time>2025-09-14T15:02:57Z</time></trkpt><trkpt lat="60.9002942964" lon="30.1574307214"><ele>67.43</ele><time>2025-09-14T15:03:06Z</time></trkpt><trkpt lat="60.9003154188" lon="30.1573575474"><ele>67.43</ele><time>2025-09-14T15:03:15Z</time></trkpt><trkpt lat="60.9003059473" lon="30.1575063262"><ele>66.95</ele><time>2025-09-14T15:03:22Z</time></trkpt><trkpt lat="60.9003075399" lon="30.1576282829"><ele>66.95</ele><time>2025-09-14T15:03:28Z</time></trkpt><trkpt lat="60.9002893511" lon="30.1577920653"><ele>67.91</ele><time>2025-09-14T15:03:37Z</time></trkpt><trkpt lat="60.9002911951" lon="30.1579338033"><ele>67.43</ele><time>2025-09-14T15:03:44Z</time></trkpt><trkpt lat="60.9002940450" lon="30.1580058876"><ele>67.43</ele><time>2025-09-14T15:03:48Z</time></trkpt><trkpt lat="60.9002601821" lon="30.1582199614"><ele>67.43</ele><time>2025-09-14T15:03:56Z</time></trkpt><trkpt lat="60.9002455976" lon="30.1584622823"><ele>67.91</ele><time>2025-09-14T15:04:05Z</time></trkpt><trkpt lat="60.9002193622" lon="30.1586318482"><ele>68.87</ele><time>2025-09-14T15:04:11Z</time></trkpt><trkpt lat="60.9001998324" lon="30.1588551421"><ele>68.39</ele><time>2025-09-14T15:04:20Z</time></trkpt><trkpt lat="60.9001891874" lon="30.1589869056"><ele>68.87</ele><time>2025-09-14T15:04:27Z</time></trkpt><trkpt lat="60.9001724236" lon="30.1590551343"><ele>69.35</ele><time>2025-09-14T15:04:36Z</time></trkpt><trkpt lat="60.9001267422" lon="30.1591977943"><ele>69.35</ele><time>2025-09-14T15:04:44Z</time></trkpt><trkpt lat="60.9001050331" lon="30.1593287196"><ele>69.83</ele><time>2025-09-14T15:04:51Z</time></trkpt><trkpt lat="60.9000658058" lon="30.1594452281"><ele>69.83</ele><time>2025-09-14T15:04:58Z</time></trkpt><trkpt lat="60.9000505507" lon="30.1595932525"><ele>70.31</ele><time>2025-09-14T15:05:07Z</time></trkpt><trkpt lat="60.8999700006" lon="30.1596061606"><ele>69.35</ele><time>2025-09-14T15:05:14Z</time></trkpt><trkpt lat="60.8999436814" lon="30.1596306358"><ele>69.35</ele><time>2025-09-14T15:05:17Z</time></trkpt><trkpt lat="60.8998235688" lon="30.1596412808"><ele>68.87</ele><time>2025-09-14T15:05:25Z</time></trkpt><trkpt lat="60.8997325413" lon="30.1596399397"><ele>68.39</ele><time>2025-09-14T15:05:32Z</time></trkpt><trkpt lat="60.8996229898" lon="30.1596530154"><ele>67.91</ele><time>2025-09-14T15:05:40Z</time></trkpt><trkpt lat="60.8995687589" lon="30.1596462261"><ele>68.87</ele><time>2025-09-14T15:05:46Z</time></trkpt><trkpt lat="60.8994385879" lon="30.1596774068"><ele>68.87</ele><time>2025-09-14T15:05:55Z</time></trkpt><trkpt lat="60.8992852829" lon="30.1597211603"><ele>68.39</ele><time>2025-09-14T15:06:05Z</time></trkpt><trkpt lat="60.8991665952" lon="30.1596973557"><ele>68.39</ele><time>2025-09-14T15:06:13Z</time></trkpt><trkpt lat="60.8990538586" lon="30.1596824359"><ele>68.87</ele><time>2025-09-14T15:06:21Z</time></trkpt><trkpt lat="60.8989571314" lon="30.1596817654"><ele>68.39</ele><time>2025-09-14T15:06:28Z</time></trkpt><trkpt lat="60.8988699596" lon="30.1596872136"><ele>68.39</ele><time>2025-09-14T15:06:34Z</time></trkpt><trkpt lat="60.8988459874" lon="30.1596929971"><ele>68.39</ele><time>2025-09-14T15:06:36Z</time></trkpt><trkpt lat="60.8988318220" lon="30.1596953440"><ele>68.39</ele><time>2025-09-14T15:06:37Z</time></trkpt><trkpt lat="60.8988157287" lon="30.1596935000"><ele>68.39</ele><time>2025-09-14T15:06:38Z</time></trkpt><trkpt lat="60.8987274673" lon="30.1596913207"><ele>68.39</ele><time>2025-09-14T15:06:44Z</time></trkpt><trkpt lat="60.8987086080" lon="30.1596949250"><ele>68.39</ele><time>2025-09-14T15:06:45Z</time></trkpt><trkpt lat="60.8985933568" lon="30.1597012952"><ele>67.91</ele><time>2025-09-14T15:06:53Z</time></trkpt><trkpt lat="60.8984992281" lon="30.1596967690"><ele>68.39</ele><time>2025-09-14T15:07:00Z</time></trkpt><trkpt lat="60.8984342683" lon="30.1596714556"><ele>68.39</ele><time>2025-09-14T15:07:05Z</time></trkpt><trkpt lat="60.8984182589" lon="30.1596722938"><ele>68.39</ele><time>2025-09-14T15:07:06Z</time></trkpt><trkpt lat="60.8983325958" lon="30.1596762333"><ele>67.91</ele><time>2025-09-14T15:07:13Z</time></trkpt><trkpt lat="60.8982434124" lon="30.1596937515"><ele>68.39</ele><time>2025-09-14T15:07:20Z</time></trkpt><trkpt lat="60.8981516305" lon="30.1596863754"><ele>68.39</ele><time>2025-09-14T15:07:27Z</time></trkpt><trkpt lat="60.8980635367" lon="30.1596766524"><ele>67.91</ele><time>2025-09-14T15:07:34Z</time></trkpt><trkpt lat="60.8979694080" lon="30.1596716233"><ele>68.87</ele><time>2025-09-14T15:07:42Z</time></trkpt><trkpt lat="60.8978728484" lon="30.1596438792"><ele>67.91</ele><time>2025-09-14T15:07:49Z</time></trkpt><trkpt lat="60.8978419192" lon="30.1596511714"><ele>67.91</ele><time>2025-09-14T15:07:52Z</time></trkpt><trkpt lat="60.8978233114" lon="30.1596574578"><ele>67.91</ele><time>2025-09-14T15:07:53Z</time></trkpt><trkpt lat="60.8978053741" lon="30.1596584637"><ele>67.91</ele><time>2025-09-14T15:07:54Z</time></trkpt><trkpt lat="60.8977037016" lon="30.1596746407"><ele>67.91</ele><time>2025-09-14T15:08:01Z</time></trkpt><trkpt lat="60.8976476267" lon="30.1596649177"><ele>67.43</ele><time>2025-09-14T15:08:06Z</time></trkpt><trkpt lat="60.8975741174" lon="30.1596373413"><ele>67.91</ele><time>2025-09-14T15:08:12Z</time></trkpt><trkpt lat="60.8975599520" lon="30.1596334856"><ele>67.91</ele><time>2025-09-14T15:08:13Z</time></trkpt><trkpt lat="60.8975414280" lon="30.1596300490"><ele>67.43</ele><time>2025-09-14T15:08:14Z</time></trkpt><trkpt lat="60.8974729478" lon="30.1596523449"><ele>67.91</ele><time>2025-09-14T15:08:19Z</time></trkpt><trkpt lat="60.8974564355" lon="30.1596505009"><ele>67.43</ele><time>2025-09-14T15:08:20Z</time></trkpt><trkpt lat="60.8974364027" lon="30.1596401073"><ele>67.91</ele><time>2025-09-14T15:08:21Z</time></trkpt><trkpt lat="60.8973668329" lon="30.1595984492"><ele>67.43</ele><time>2025-09-14T15:08:27Z</time></trkpt><trkpt lat="60.8972588740" lon="30.1595772430"><ele>67.43</ele><time>2025-09-14T15:08:35Z</time></trkpt><trkpt lat="60.8971691877" lon="30.1595536899"><ele>66.95</ele><time>2025-09-14T15:08:42Z</time></trkpt><trkpt lat="60.8971029706" lon="30.1595450565"><ele>66.47</ele><time>2025-09-14T15:08:48Z</time></trkpt><trkpt lat="60.8970774896" lon="30.1595353335"><ele>66.47</ele><time>2025-09-14T15:08:50Z</time></trkpt><trkpt lat="60.8970607258" lon="30.1595262811"><ele>66.95</ele><time>2025-09-14T15:08:51Z</time></trkpt><trkpt lat="60.8969575446" lon="30.1595345791"><ele>66.47</ele><time>2025-09-14T15:08:58Z</time></trkpt><trkpt lat="60.8968737256" lon="30.1595909055"><ele>66.47</ele><time>2025-09-14T15:09:04Z</time></trkpt><trkpt lat="60.8967714664" lon="30.1596263610"><ele>65.99</ele><time>2025-09-14T15:09:10Z</time></trkpt><trkpt lat="60.8966996334" lon="30.1595878880"><ele>65.99</ele><time>2025-09-14T15:09:15Z</time></trkpt><trkpt lat="60.8966977894" lon="30.1595307235"><ele>65.99</ele><time>2025-09-14T15:09:17Z</time></trkpt><trkpt lat="60.8966751583" lon="30.1594176516"><ele>65.99</ele><time>2025-09-14T15:09:24Z</time></trkpt><trkpt lat="60.8966710512" lon="30.1594003011"><ele>65.51</ele><time>2025-09-14T15:09:33Z</time></trkpt><trkpt lat="60.8966807742" lon="30.1593540329"><ele>65.51</ele><time>2025-09-14T15:09:43Z</time></trkpt><trkpt lat="60.8966971189" lon="30.1593767479"><ele>65.51</ele><time>2025-09-14T15:09:50Z</time></trkpt><trkpt lat="60.8967079315" lon="30.1593834534"><ele>65.51</ele><time>2025-09-14T15:09:57Z</time></trkpt><trkpt lat="60.8966910001" lon="30.1593925897"><ele>65.51</ele><time>2025-09-14T15:10:08Z</time></trkpt><trkpt lat="60.8966641780" lon="30.1592754945"><ele>65.03</ele><time>2025-09-14T15:10:21Z</time></trkpt><trkpt lat="60.8966688719" lon="30.1593002211"><ele>65.51</ele><time>2025-09-14T15:10:32Z</time></trkpt><trkpt lat="60.8966673631" lon="30.1592599880"><ele>65.51</ele><time>2025-09-14T15:10:42Z</time></trkpt><trkpt lat="60.8966899943" lon="30.1592401229"><ele>65.99</ele><time>2025-09-14T15:10:50Z</time></trkpt><trkpt lat="60.8967049979" lon="30.1592295617"><ele>65.99</ele><time>2025-09-14T15:11:06Z</time></trkpt><trkpt lat="60.8967040759" lon="30.1592344232"><ele>65.51</ele><time>2025-09-14T15:11:15Z</time></trkpt><trkpt lat="60.8967043273" lon="30.1591981295"><ele>65.51</ele><time>2025-09-14T15:11:30Z</time></trkpt><trkpt lat="60.8967143856" lon="30.1592133846"><ele>65.51</ele><time>2025-09-14T15:11:44Z</time></trkpt><trkpt lat="60.8966955263" lon="30.1591782644"><ele>65.99</ele><time>2025-09-14T15:11:59Z</time></trkpt></trkseg><trkseg><trkpt lat="60.8967125416" lon="30.1592496783"><ele>66.47</ele><time>2025-09-14T15:12:09Z</time></trkpt><trkpt lat="60.8967232704" lon="30.1593153924"><ele>66.47</ele><time>2025-09-14T15:12:14Z</time></trkpt></trkseg><trkseg><trkpt lat="59.7269027028" lon="30.2131941821"><ele>94.83</ele><time>2025-11-09T07:17:17Z</time></trkpt><trkpt lat="59.7268431913" lon="30.2132235188"><ele>94.83</ele><time>2025-11-09T07:17:35Z</time></trkpt><trkpt lat="59.7268465441" lon="30.2132381033"><ele>95.31</ele><time>2025-11-09T07:17:45Z</time></trkpt><trkpt lat="59.7277020849" lon="30.2122652158"><ele>96.27</ele><time>2025-11-09T11:09:33Z</time></trkpt><trkpt lat="59.7276981454" lon="30.2122336999"><ele>93.39</ele><time>2025-11-09T11:09:46Z</time></trkpt><trkpt lat="59.7276885062" lon="30.2122283354"><ele>91.94</ele><time>2025-11-09T11:09:53Z</time></trkpt><trkpt lat="59.7276663780" lon="30.2122125775"><ele>89.54</ele><time>2025-11-09T11:10:05Z</time></trkpt><trkpt lat="59.7276704013" lon="30.2122192830"><ele>89.06</ele><time>2025-11-09T11:10:17Z</time></trkpt><trkpt lat="59.7276739217" lon="30.2122347057"><ele>88.58</ele><time>2025-11-09T11:10:28Z</time></trkpt><trkpt lat="59.7276605945" lon="30.2122358792"><ele>88.58</ele><time>2025-11-09T11:10:47Z</time></trkpt><trkpt lat="59.7276602592" lon="30.2122439258"><ele>88.58</ele><time>2025-11-09T11:11:01Z</time></trkpt><trkpt lat="59.7276666295" lon="30.2122483682"><ele>88.58</ele><time>2025-11-09T11:11:05Z</time></trkpt></trkseg><trkseg><trkpt lat="60.8555792738" lon="30.2514864039"><ele>49.65</ele><time>2026-08-22T08:53:31Z</time></trkpt><trkpt lat="60.8555760048" lon="30.2514846437"><ele>49.65</ele><time>2026-08-22T08:53:32Z</time></trkpt><trkpt lat="60.8555725683" lon="30.2514721546"><ele>45.80</ele><time>2026-08-22T08:53:35Z</time></trkpt><trkpt lat="60.8555610012" lon="30.2515447419"><ele>42.44</ele><time>2026-08-22T08:53:39Z</time></trkpt><trkpt lat="60.8555463329" lon="30.2515948657"><ele>39.07</ele><time>2026-08-22T08:53:43Z</time></trkpt><trkpt lat="60.8555237856" lon="30.2516874857"><ele>35.23</ele><time>2026-08-22T08:53:48Z</time></trkpt><trkpt lat="60.8555796929" lon="30.2513320092"><ele>32.82</ele><time>2026-08-22T08:53:52Z</time></trkpt><trkpt lat="60.8555697184" lon="30.2513102163"><ele>29.46</ele><time>2026-08-22T08:54:01Z</time></trkpt><trkpt lat="60.8555695508" lon="30.2513281535"><ele>26.57</ele><time>2026-08-22T08:54:18Z</time></trkpt><trkpt lat="60.8555481769" lon="30.2513308357"><ele>25.61</ele><time>2026-08-22T08:54:29Z</time></trkpt><trkpt lat="60.8555581514" lon="30.2513401397"><ele>24.17</ele><time>2026-08-22T08:54:41Z</time></trkpt><trkpt lat="60.8555551339" lon="30.2513309196"><ele>24.17</ele><time>2026-08-22T08:54:55Z</time></trkpt><trkpt lat="60.8555553015" lon="30.2513343561"><ele>24.17</ele><time>2026-08-22T08:55:12Z</time></trkpt><trkpt lat="60.8555699699" lon="30.2513324283"><ele>24.65</ele><time>2026-08-22T08:55:27Z</time></trkpt><trkpt lat="60.8555511944" lon="30.2513427380"><ele>24.65</ele><time>2026-08-22T08:55:40Z</time></trkpt><trkpt lat="60.8555320837" lon="30.2513216157"><ele>24.65</ele><time>2026-08-22T08:56:02Z</time></trkpt><trkpt lat="60.8555332571" lon="30.2512866631"><ele>24.65</ele><time>2026-08-22T08:56:22Z</time></trkpt><trkpt lat="60.8555195946" lon="30.2513064444"><ele>24.65</ele><time>2026-08-22T08:56:34Z</time></trkpt><trkpt lat="60.8555125538" lon="30.2513497788"><ele>24.17</ele><time>2026-08-22T08:56:44Z</time></trkpt><trkpt lat="60.8555049263" lon="30.2513635252"><ele>24.17</ele><time>2026-08-22T08:56:51Z</time></trkpt><trkpt lat="60.8554905932" lon="30.2513558976"><ele>24.17</ele><time>2026-08-22T08:57:06Z</time></trkpt><trkpt lat="60.8554869052" lon="30.2513473481"><ele>24.65</ele><time>2026-08-22T08:57:20Z</time></trkpt><trkpt lat="60.8554909285" lon="30.2513237111"><ele>24.65</ele><time>2026-08-22T08:57:34Z</time></trkpt><trkpt lat="60.8554883301" lon="30.2512973081"><ele>25.13</ele><time>2026-08-22T08:57:50Z</time></trkpt><trkpt lat="60.8554887492" lon="30.2513066959"><ele>25.61</ele><time>2026-08-22T08:58:08Z</time></trkpt><trkpt lat="60.8555052616" lon="30.2513262257"><ele>25.13</ele><time>2026-08-22T08:58:28Z</time></trkpt><trkpt lat="60.8555056807" lon="30.2513369545"><ele>25.13</ele><time>2026-08-22T08:58:44Z</time></trkpt><trkpt lat="60.8555019926" lon="30.2513140719"><ele>24.65</ele><time>2026-08-22T08:58:59Z</time></trkpt><trkpt lat="60.8555067703" lon="30.2512972243"><ele>25.13</ele><time>2026-08-22T08:59:15Z</time></trkpt><trkpt lat="60.8555222768" lon="30.2512684744"><ele>25.61</ele><time>2026-08-22T08:59:37Z</time></trkpt><trkpt lat="60.8555057645" lon="30.2512815502"><ele>25.13</ele><time>2026-08-22T08:59:55Z</time></trkpt><trkpt lat="60.8555193432" lon="30.2512896806"><ele>25.13</ele><time>2026-08-22T09:00:14Z</time></trkpt><trkpt lat="60.8555223607" lon="30.2513708174"><ele>25.13</ele><time>2026-08-22T09:00:33Z</time></trkpt><trkpt lat="60.8555103745" lon="30.2513635252"><ele>25.61</ele><time>2026-08-22T09:00:55Z</time></trkpt><trkpt lat="60.8555096202" lon="30.2513435762"><ele>25.61</ele><time>2026-08-22T09:01:12Z</time></trkpt><trkpt lat="60.8555054292" lon="30.2513422351"><ele>25.61</ele><time>2026-08-22T09:01:27Z</time></trkpt><trkpt lat="60.8554921020" lon="30.2512947936"><ele>25.61</ele><time>2026-08-22T09:01:41Z</time></trkpt><trkpt lat="60.8555125538" lon="30.2513519581"><ele>25.61</ele><time>2026-08-22T09:01:59Z</time></trkpt><trkpt lat="60.8555124700" lon="30.2513426542"><ele>26.09</ele><time>2026-08-22T09:02:15Z</time></trkpt><trkpt lat="60.8554975502" lon="30.2513301652"><ele>26.09</ele><time>2026-08-22T09:02:37Z</time></trkpt><trkpt lat="60.8554894198" lon="30.2513555624"><ele>26.09</ele><time>2026-08-22T09:02:53Z</time></trkpt><trkpt lat="60.8554842230" lon="30.2513268124"><ele>26.09</ele><time>2026-08-22T09:03:11Z</time></trkpt><trkpt lat="60.8554890007" lon="30.2513339370"><ele>26.09</ele><time>2026-08-22T09:03:34Z</time></trkpt><trkpt lat="60.8555115480" lon="30.2513365354"><ele>26.09</ele><time>2026-08-22T09:03:54Z</time></trkpt><trkpt lat="60.8555121347" lon="30.2513374574"><ele>26.09</ele><time>2026-08-22T09:04:07Z</time></trkpt><trkpt lat="60.8554830495" lon="30.2513515390"><ele>26.09</ele><time>2026-08-22T09:04:29Z</time></trkpt><trkpt lat="60.8554949518" lon="30.2513285726"><ele>26.09</ele><time>2026-08-22T09:04:47Z</time></trkpt><trkpt lat="60.8554950356" lon="30.2513175923"><ele>26.09</ele><time>2026-08-22T09:05:01Z</time></trkpt><trkpt lat="60.8554675430" lon="30.2512920275"><ele>26.09</ele><time>2026-08-22T09:05:17Z</time></trkpt><trkpt lat="60.8554559760" lon="30.2512774430"><ele>26.57</ele><time>2026-08-22T09:05:32Z</time></trkpt><trkpt lat="60.8554032538" lon="30.2513595019"><ele>26.57</ele><time>2026-08-22T09:05:43Z</time></trkpt><trkpt lat="60.8554232866" lon="30.2513698116"><ele>26.57</ele><time>2026-08-22T09:05:53Z</time></trkpt><trkpt lat="60.8554833010" lon="30.2513828874"><ele>26.57</ele><time>2026-08-22T09:06:12Z</time></trkpt><trkpt lat="60.8554781042" lon="30.2514106315"><ele>26.57</ele><time>2026-08-22T09:06:23Z</time></trkpt><trkpt lat="60.8555019926" lon="30.2513668779"><ele>26.57</ele><time>2026-08-22T09:06:42Z</time></trkpt><trkpt lat="60.8554522879" lon="30.2514163312"><ele>26.57</ele><time>2026-08-22T09:06:51Z</time></trkpt><trkpt lat="60.8554382902" lon="30.2515277267"><ele>27.05</ele><time>2026-08-22T09:07:06Z</time></trkpt><trkpt lat="60.8554220293" lon="30.2514839731"><ele>26.57</ele><time>2026-08-22T09:07:19Z</time></trkpt><trkpt lat="60.8553812094" lon="30.2515251283"><ele>26.09</ele><time>2026-08-22T09:07:33Z</time></trkpt><trkpt lat="60.8553566504" lon="30.2516221907"><ele>27.53</ele><time>2026-08-22T09:07:47Z</time></trkpt><trkpt lat="60.8553606737" lon="30.2517172415"><ele>26.57</ele><time>2026-08-22T09:08:02Z</time></trkpt><trkpt lat="60.8553856518" lon="30.2518000547"><ele>27.05</ele><time>2026-08-22T09:08:16Z</time></trkpt><trkpt lat="60.8553833049" lon="30.2518074308"><ele>27.05</ele><time>2026-08-22T09:08:29Z</time></trkpt><trkpt lat="60.8553972188" lon="30.2518007252"><ele>27.05</ele><time>2026-08-22T09:08:44Z</time></trkpt><trkpt lat="60.8553743362" lon="30.2517605759"><ele>27.05</ele><time>2026-08-22T09:09:00Z</time></trkpt><trkpt lat="60.8552518766" lon="30.2518443111"><ele>27.05</ele><time>2026-08-22T09:09:15Z</time></trkpt><trkpt lat="60.8552420698" lon="30.2518720552"><ele>27.53</ele><time>2026-08-22T09:09:17Z</time></trkpt><trkpt lat="60.8552085422" lon="30.2521903161"><ele>27.05</ele><time>2026-08-22T09:09:33Z</time></trkpt><trkpt lat="60.8552153315" lon="30.2524053119"><ele>27.05</ele><time>2026-08-22T09:09:46Z</time></trkpt><trkpt lat="60.8551595081" lon="30.2524121013"><ele>27.53</ele><time>2026-08-22T09:09:50Z</time></trkpt><trkpt lat="60.8549421653" lon="30.2523134463"><ele>27.05</ele><time>2026-08-22T09:10:05Z</time></trkpt><trkpt lat="60.8546310291" lon="30.2521896455"><ele>27.05</ele><time>2026-08-22T09:10:27Z</time></trkpt><trkpt lat="60.8543499839" lon="30.2520989534"><ele>26.57</ele><time>2026-08-22T09:10:47Z</time></trkpt><trkpt lat="60.8542070724" lon="30.2520546969"><ele>27.05</ele><time>2026-08-22T09:10:57Z</time></trkpt><trkpt lat="60.8539971896" lon="30.2519738954"><ele>27.05</ele><time>2026-08-22T09:11:12Z</time></trkpt><trkpt lat="60.8536809403" lon="30.2518399525"><ele>27.53</ele><time>2026-08-22T09:11:35Z</time></trkpt><trkpt lat="60.8534486778" lon="30.2518086880"><ele>27.05</ele><time>2026-08-22T09:11:53Z</time></trkpt><trkpt lat="60.8532576542" lon="30.2517848834"><ele>27.05</ele><time>2026-08-22T09:12:09Z</time></trkpt><trkpt lat="60.8530534711" lon="30.2517678682"><ele>27.53</ele><time>2026-08-22T09:12:27Z</time></trkpt><trkpt lat="60.8528802171" lon="30.2518267930"><ele>27.05</ele><time>2026-08-22T09:12:44Z</time></trkpt><trkpt lat="60.8526576776" lon="30.2519439720"><ele>27.05</ele><time>2026-08-22T09:13:05Z</time></trkpt><trkpt lat="60.8524710126" lon="30.2520700358"><ele>27.05</ele><time>2026-08-22T09:13:23Z</time></trkpt><trkpt lat="60.8522233274" lon="30.2522276156"><ele>27.53</ele><time>2026-08-22T09:13:47Z</time></trkpt><trkpt lat="60.8520454634" lon="30.2523528412"><ele>27.53</ele><time>2026-08-22T09:13:59Z</time></trkpt><trkpt lat="60.8517364226" lon="30.2526955772"><ele>27.53</ele><time>2026-08-22T09:14:15Z</time></trkpt><trkpt lat="60.8514472470" lon="30.2529280074"><ele>28.02</ele><time>2026-08-22T09:14:29Z</time></trkpt><trkpt lat="60.8510689717" lon="30.2532387245"><ele>28.02</ele><time>2026-08-22T09:14:46Z</time></trkpt><trkpt lat="60.8507177699" lon="30.2535320912"><ele>28.50</ele><time>2026-08-22T09:15:00Z</time></trkpt><trkpt lat="60.8503881935" lon="30.2539774217"><ele>28.50</ele><time>2026-08-22T09:15:09Z</time></trkpt><trkpt lat="60.8500292804" lon="30.2545473073"><ele>27.53</ele><time>2026-08-22T09:15:16Z</time></trkpt><trkpt lat="60.8493611589" lon="30.2556542214"><ele>28.50</ele><time>2026-08-22T09:15:28Z</time></trkpt><trkpt lat="60.8485403191" lon="30.2569255885"><ele>28.50</ele><time>2026-08-22T09:15:42Z</time></trkpt><trkpt lat="60.8476678468" lon="30.2583116200"><ele>28.50</ele><time>2026-08-22T09:15:57Z</time></trkpt><trkpt lat="60.8468470071" lon="30.2596118208"><ele>28.50</ele><time>2026-08-22T09:16:11Z</time></trkpt><trkpt lat="60.8461169433" lon="30.2607517596"><ele>28.98</ele><time>2026-08-22T09:16:23Z</time></trkpt><trkpt lat="60.8451843727" lon="30.2621935308"><ele>28.50</ele><time>2026-08-22T09:16:38Z</time></trkpt><trkpt lat="60.8445125632" lon="30.2630187292"><ele>28.50</ele><time>2026-08-22T09:16:49Z</time></trkpt><trkpt lat="60.8437543362" lon="30.2638061251"><ele>28.02</ele><time>2026-08-22T09:17:01Z</time></trkpt><trkpt lat="60.8432678506" lon="30.2640462667"><ele>28.50</ele><time>2026-08-22T09:17:08Z</time></trkpt><trkpt lat="60.8425914310" lon="30.2644300740"><ele>28.50</ele><time>2026-08-22T09:17:18Z</time></trkpt><trkpt lat="60.8415198885" lon="30.2650547773"><ele>28.50</ele><time>2026-08-22T09:17:34Z</time></trkpt><trkpt lat="60.8408022299" lon="30.2656068094"><ele>28.50</ele><time>2026-08-22T09:17:45Z</time></trkpt><trkpt lat="60.8401986491" lon="30.2663181815"><ele>28.50</ele><time>2026-08-22T09:17:55Z</time></trkpt><trkpt lat="60.8396745287" lon="30.2672418673"><ele>28.50</ele><time>2026-08-22T09:18:05Z</time></trkpt><trkpt lat="60.8388792537" lon="30.2688230295"><ele>28.50</ele><time>2026-08-22T09:18:21Z</time></trkpt><trkpt lat="60.8379729185" lon="30.2705745120"><ele>28.50</ele><time>2026-08-22T09:18:39Z</time></trkpt><trkpt lat="60.8370518312" lon="30.2722599450"><ele>28.50</ele><time>2026-08-22T09:18:57Z</time></trkpt><trkpt lat="60.8362477552" lon="30.2738003712"><ele>28.50</ele><time>2026-08-22T09:19:13Z</time></trkpt><trkpt lat="60.8355358802" lon="30.2751200181"><ele>28.02</ele><time>2026-08-22T09:19:27Z</time></trkpt><trkpt lat="60.8347678464" lon="30.2764863521"><ele>28.50</ele><time>2026-08-22T09:19:42Z</time></trkpt><trkpt lat="60.8342123777" lon="30.2777187433"><ele>28.50</ele><time>2026-08-22T09:19:54Z</time></trkpt><trkpt lat="60.8334038593" lon="30.2792952955"><ele>28.50</ele><time>2026-08-22T09:20:10Z</time></trkpt><trkpt lat="60.8328201436" lon="30.2804769762"><ele>28.02</ele><time>2026-08-22T09:20:22Z</time></trkpt><trkpt lat="60.8322257828" lon="30.2816983033"><ele>28.02</ele><time>2026-08-22T09:20:34Z</time></trkpt><trkpt lat="60.8315146621" lon="30.2830949798"><ele>28.02</ele><time>2026-08-22T09:20:48Z</time></trkpt><trkpt lat="60.8310477901" lon="30.2839045040"><ele>28.02</ele><time>2026-08-22T09:20:57Z</time></trkpt><trkpt lat="60.8303955942" lon="30.2851685788"><ele>28.50</ele><time>2026-08-22T09:21:10Z</time></trkpt><trkpt lat="60.8299687877" lon="30.2860724833"><ele>28.02</ele><time>2026-08-22T09:21:19Z</time></trkpt><trkpt lat="60.8294689748" lon="30.2870602906"><ele>28.02</ele><time>2026-08-22T09:21:29Z</time></trkpt><trkpt lat="60.8288063854" lon="30.2882558852"><ele>27.53</ele><time>2026-08-22T09:21:42Z</time></trkpt><trkpt lat="60.8281871304" lon="30.2893092390"><ele>28.02</ele><time>2026-08-22T09:21:54Z</time></trkpt><trkpt lat="60.8275260497" lon="30.2906879783"><ele>28.02</ele><time>2026-08-22T09:22:08Z</time></trkpt><trkpt lat="60.8269026875" lon="30.2918034419"><ele>28.02</ele><time>2026-08-22T09:22:20Z</time></trkpt><trkpt lat="60.8262179699" lon="30.2929612342"><ele>28.02</ele><time>2026-08-22T09:22:33Z</time></trkpt><trkpt lat="60.8255532011" lon="30.2942352835"><ele>28.02</ele><time>2026-08-22T09:22:46Z</time></trkpt><trkpt lat="60.8247828204" lon="30.2957334649"><ele>27.53</ele><time>2026-08-22T09:23:01Z</time></trkpt><trkpt lat="60.8242286928" lon="30.2968386188"><ele>27.53</ele><time>2026-08-22T09:23:12Z</time></trkpt><trkpt lat="60.8234753273" lon="30.2981242351"><ele>28.02</ele><time>2026-08-22T09:23:26Z</time></trkpt><trkpt lat="60.8227731753" lon="30.2993134595"><ele>28.02</ele><time>2026-08-22T09:23:39Z</time></trkpt><trkpt lat="60.8217971865" lon="30.3010538779"><ele>27.53</ele><time>2026-08-22T09:23:57Z</time></trkpt><trkpt lat="60.8210386243" lon="30.3023228981"><ele>28.02</ele><time>2026-08-22T09:24:11Z</time></trkpt><trkpt lat="60.8202151023" lon="30.3037168924"><ele>28.02</ele><time>2026-08-22T09:24:26Z</time></trkpt><trkpt lat="60.8195513394" lon="30.3050491121"><ele>27.53</ele><time>2026-08-22T09:24:39Z</time></trkpt><trkpt lat="60.8189761732" lon="30.3061132785"><ele>28.02</ele><time>2026-08-22T09:24:50Z</time></trkpt><trkpt lat="60.8182191197" lon="30.3071061987"><ele>28.02</ele><time>2026-08-22T09:25:03Z</time></trkpt><trkpt lat="60.8172505908" lon="30.3084818367"><ele>28.02</ele><time>2026-08-22T09:25:20Z</time></trkpt><trkpt lat="60.8164646197" lon="30.3094998188"><ele>28.02</ele><time>2026-08-22T09:25:33Z</time></trkpt><trkpt lat="60.8155790716" lon="30.3107568529"><ele>28.02</ele><time>2026-08-22T09:25:48Z</time></trkpt><trkpt lat="60.8149705455" lon="30.3115616832"><ele>28.02</ele><time>2026-08-22T09:25:58Z</time></trkpt><trkpt lat="60.8141211234" lon="30.3124348260"><ele>27.53</ele><time>2026-08-22T09:26:11Z</time></trkpt><trkpt lat="60.8132270258" lon="30.3131061327"><ele>27.05</ele><time>2026-08-22T09:26:24Z</time></trkpt><trkpt lat="60.8126495965" lon="30.3132946417"><ele>27.53</ele><time>2026-08-22T09:26:32Z</time></trkpt><trkpt lat="60.8120051958" lon="30.3132534865"><ele>28.02</ele><time>2026-08-22T09:26:41Z</time></trkpt><trkpt lat="60.8113666624" lon="30.3132540733"><ele>28.02</ele><time>2026-08-22T09:26:50Z</time></trkpt><trkpt lat="60.8105768356" lon="30.3132874332"><ele>28.02</ele><time>2026-08-22T09:27:01Z</time></trkpt><trkpt lat="60.8097388130" lon="30.3133251518"><ele>28.02</ele><time>2026-08-22T09:27:13Z</time></trkpt><trkpt lat="60.8088350762" lon="30.3134231362"><ele>27.53</ele><time>2026-08-22T09:27:26Z</time></trkpt><trkpt lat="60.8079305850" lon="30.3135154210"><ele>28.02</ele><time>2026-08-22T09:27:39Z</time></trkpt><trkpt lat="60.8072274271" lon="30.3136486933"><ele>27.53</ele><time>2026-08-22T09:27:49Z</time></trkpt><trkpt lat="60.8065344114" lon="30.3137697279"><ele>28.02</ele><time>2026-08-22T09:27:59Z</time></trkpt><trkpt lat="60.8056266513" lon="30.3138128109"><ele>28.02</ele><time>2026-08-22T09:28:12Z</time></trkpt><trkpt lat="60.8049366530" lon="30.3139000665"><ele>27.05</ele><time>2026-08-22T09:28:22Z</time></trkpt><trkpt lat="60.8042758238" lon="30.3143015597"><ele>27.53</ele><time>2026-08-22T09:28:32Z</time></trkpt><trkpt lat="60.8035507891" lon="30.3150542546"><ele>28.02</ele><time>2026-08-22T09:28:44Z</time></trkpt><trkpt lat="60.8028450329" lon="30.3159867413"><ele>27.53</ele><time>2026-08-22T09:28:56Z</time></trkpt><trkpt lat="60.8018805273" lon="30.3171207290"><ele>27.05</ele><time>2026-08-22T09:29:12Z</time></trkpt><trkpt lat="60.8013258129" lon="30.3176177759"><ele>27.05</ele><time>2026-08-22T09:29:21Z</time></trkpt><trkpt lat="60.8011942171" lon="30.3177825641"><ele>27.05</ele><time>2026-08-22T09:29:24Z</time></trkpt><trkpt lat="60.8010369726" lon="30.3182958718"><ele>26.09</ele><time>2026-08-22T09:29:31Z</time></trkpt><trkpt lat="60.8010263275" lon="30.3183778469"><ele>26.57</ele><time>2026-08-22T09:29:32Z</time></trkpt><trkpt lat="60.8009881899" lon="30.3193364851"><ele>27.05</ele><time>2026-08-22T09:29:42Z</time></trkpt><trkpt lat="60.8009780478" lon="30.3202894237"><ele>26.57</ele><time>2026-08-22T09:29:49Z</time></trkpt><trkpt lat="60.8009521477" lon="30.3224744182"><ele>27.53</ele><time>2026-08-22T09:30:03Z</time></trkpt><trkpt lat="60.8010078873" lon="30.3240773734"><ele>27.05</ele><time>2026-08-22T09:30:13Z</time></trkpt><trkpt lat="60.8010785468" lon="30.3257920593"><ele>27.05</ele><time>2026-08-22T09:30:24Z</time></trkpt><trkpt lat="60.8011835720" lon="30.3274073359"><ele>27.05</ele><time>2026-08-22T09:30:35Z</time></trkpt><trkpt lat="60.8012617752" lon="30.3288616799"><ele>26.09</ele><time>2026-08-22T09:30:45Z</time></trkpt><trkpt lat="60.8014404774" lon="30.3305172734"><ele>27.05</ele><time>2026-08-22T09:30:57Z</time></trkpt><trkpt lat="60.8015002403" lon="30.3317759838"><ele>27.05</ele><time>2026-08-22T09:31:06Z</time></trkpt><trkpt lat="60.8015264757" lon="30.3329290822"><ele>26.57</ele><time>2026-08-22T09:31:14Z</time></trkpt><trkpt lat="60.8016376197" lon="30.3346217237"><ele>27.05</ele><time>2026-08-22T09:31:26Z</time></trkpt><trkpt lat="60.8016660344" lon="30.3361683525"><ele>26.57</ele><time>2026-08-22T09:31:37Z</time></trkpt><trkpt lat="60.8016400505" lon="30.3374665417"><ele>26.09</ele><time>2026-08-22T09:31:48Z</time></trkpt><trkpt lat="60.8015673794" lon="30.3389268368"><ele>26.57</ele><time>2026-08-22T09:32:01Z</time></trkpt><trkpt lat="60.8015742525" lon="30.3397607524"><ele>26.57</ele><time>2026-08-22T09:32:09Z</time></trkpt><trkpt lat="60.8016107976" lon="30.3404620662"><ele>26.57</ele><time>2026-08-22T09:32:17Z</time></trkpt><trkpt lat="60.8016429842" lon="30.3409024514"><ele>26.09</ele><time>2026-08-22T09:32:25Z</time></trkpt><trkpt lat="60.8017014898" lon="30.3414445929"><ele>26.09</ele><time>2026-08-22T09:32:39Z</time></trkpt><trkpt lat="60.8018154837" lon="30.3419850580"><ele>25.61</ele><time>2026-08-22T09:32:54Z</time></trkpt><trkpt lat="60.8018684573" lon="30.3424339090"><ele>25.61</ele><time>2026-08-22T09:33:07Z</time></trkpt><trkpt lat="60.8019113727" lon="30.3428520821"><ele>26.09</ele><time>2026-08-22T09:33:23Z</time></trkpt><trkpt lat="60.8019432239" lon="30.3431738634"><ele>25.61</ele><time>2026-08-22T09:33:40Z</time></trkpt><trkpt lat="60.8019871451" lon="30.3435654659"><ele>25.61</ele><time>2026-08-22T09:33:54Z</time></trkpt><trkpt lat="60.8020226005" lon="30.3436989058"><ele>26.09</ele><time>2026-08-22T09:34:05Z</time></trkpt><trkpt lat="60.8020811062" lon="30.3437388036"><ele>26.09</ele><time>2026-08-22T09:34:25Z</time></trkpt><trkpt lat="60.8021250274" lon="30.3437034320"><ele>26.09</ele><time>2026-08-22T09:34:44Z</time></trkpt><trkpt lat="60.8021601476" lon="30.3436327726"><ele>25.61</ele><time>2026-08-22T09:35:02Z</time></trkpt><trkpt lat="60.8021940105" lon="30.3435673099"><ele>26.09</ele><time>2026-08-22T09:35:19Z</time></trkpt><trkpt lat="60.8022236824" lon="30.3435249813"><ele>25.61</ele><time>2026-08-22T09:35:37Z</time></trkpt><trkpt lat="60.8022628259" lon="30.3435010929"><ele>26.09</ele><time>2026-08-22T09:35:54Z</time></trkpt><trkpt lat="60.8022916596" lon="30.3434646316"><ele>26.09</ele><time>2026-08-22T09:36:06Z</time></trkpt><trkpt lat="60.8023409452" lon="30.3434317745"><ele>25.61</ele><time>2026-08-22T09:36:22Z</time></trkpt><trkpt lat="60.8023827709" lon="30.3433710057"><ele>26.09</ele><time>2026-08-22T09:36:44Z</time></trkpt><trkpt lat="60.8024174720" lon="30.3433106560"><ele>26.09</ele><time>2026-08-22T09:37:01Z</time></trkpt><trkpt lat="60.8024276979" lon="30.3432859294"><ele>22.73</ele><time>2026-08-22T09:37:09Z</time></trkpt><trkpt lat="60.8024333976" lon="30.3432762064"><ele>26.09</ele><time>2026-08-22T09:37:11Z</time></trkpt><trkpt lat="60.8024455514" lon="30.3432553355"><ele>26.09</ele><time>2026-08-22T09:37:16Z</time></trkpt><trkpt lat="60.8024536818" lon="30.3432423435"><ele>28.98</ele><time>2026-08-22T09:37:20Z</time></trkpt><trkpt lat="60.8024556935" lon="30.3432388231"><ele>24.17</ele><time>2026-08-22T09:37:21Z</time></trkpt><trkpt lat="60.8024583757" lon="30.3432367276"><ele>24.17</ele><time>2026-08-22T09:37:22Z</time></trkpt><trkpt lat="60.8024680149" lon="30.3432308603"><ele>26.57</ele><time>2026-08-22T09:37:25Z</time></trkpt><trkpt lat="60.8024911489" lon="30.3432033677"><ele>25.61</ele><time>2026-08-22T09:37:39Z</time></trkpt><trkpt lat="60.8025079127" lon="30.3431749530"><ele>29.46</ele><time>2026-08-22T09:37:50Z</time></trkpt><trkpt lat="60.8025088347" lon="30.3431721870"><ele>29.46</ele><time>2026-08-22T09:37:51Z</time></trkpt><trkpt lat="60.8025099244" lon="30.3431694210"><ele>25.61</ele><time>2026-08-22T09:37:52Z</time></trkpt><trkpt lat="60.8025107626" lon="30.3431675769"><ele>26.09</ele><time>2026-08-22T09:37:53Z</time></trkpt><trkpt lat="60.8025201503" lon="30.3431565966"><ele>22.73</ele><time>2026-08-22T09:37:58Z</time></trkpt><trkpt lat="60.8025225811" lon="30.3431515675"><ele>26.57</ele><time>2026-08-22T09:37:59Z</time></trkpt><trkpt lat="60.8025442064" lon="30.3430917207"><ele>25.61</ele><time>2026-08-22T09:38:13Z</time></trkpt><trkpt lat="60.8025700226" lon="30.3430228215"><ele>26.09</ele><time>2026-08-22T09:38:30Z</time></trkpt><trkpt lat="60.8026005328" lon="30.3429525811"><ele>25.61</ele><time>2026-08-22T09:38:45Z</time></trkpt><trkpt lat="60.8026322164" lon="30.3429265134"><ele>26.09</ele><time>2026-08-22T09:39:02Z</time></trkpt><trkpt lat="60.8026613854" lon="30.3428812511"><ele>26.09</ele><time>2026-08-22T09:39:20Z</time></trkpt><trkpt lat="60.8026887104" lon="30.3428264335"><ele>25.61</ele><time>2026-08-22T09:39:37Z</time></trkpt><trkpt lat="60.8027155325" lon="30.3428034671"><ele>26.09</ele><time>2026-08-22T09:39:48Z</time></trkpt><trkpt lat="60.8027410135" lon="30.3427773155"><ele>25.61</ele><time>2026-08-22T09:40:05Z</time></trkpt><trkpt lat="60.8027718589" lon="30.3427402675"><ele>26.09</ele><time>2026-08-22T09:40:19Z</time></trkpt><trkpt lat="60.8028173726" lon="30.3426879644"><ele>25.61</ele><time>2026-08-22T09:40:35Z</time></trkpt><trkpt lat="60.8028627187" lon="30.3426270280"><ele>26.09</ele><time>2026-08-22T09:40:52Z</time></trkpt><trkpt lat="60.8029085677" lon="30.3425535187"><ele>25.61</ele><time>2026-08-22T09:41:11Z</time></trkpt><trkpt lat="60.8029702585" lon="30.3424538579"><ele>26.09</ele><time>2026-08-22T09:41:31Z</time></trkpt><trkpt lat="60.8030104917" lon="30.3423629142"><ele>25.61</ele><time>2026-08-22T09:41:48Z</time></trkpt><trkpt lat="60.8030324522" lon="30.3422639240"><ele>26.09</ele><time>2026-08-22T09:42:03Z</time></trkpt><trkpt lat="60.8030612860" lon="30.3421899118"><ele>25.61</ele><time>2026-08-22T09:42:19Z</time></trkpt><trkpt lat="60.8030963223" lon="30.3421259578"><ele>26.09</ele><time>2026-08-22T09:42:36Z</time></trkpt><trkpt lat="60.8031379804" lon="30.3420257103"><ele>25.61</ele><time>2026-08-22T09:42:56Z</time></trkpt><trkpt lat="60.8031877689" lon="30.3419211879"><ele>26.09</ele><time>2026-08-22T09:43:18Z</time></trkpt><trkpt lat="60.8032552432" lon="30.3418183420"><ele>26.09</ele><time>2026-08-22T09:43:41Z</time></trkpt><trkpt lat="60.8032706659" lon="30.3417310026"><ele>25.61</ele><time>2026-08-22T09:44:00Z</time></trkpt><trkpt lat="60.8033238072" lon="30.3416476026"><ele>25.61</ele><time>2026-08-22T09:44:20Z</time></trkpt><trkpt lat="60.8033581730" lon="30.3415730037"><ele>26.09</ele><time>2026-08-22T09:44:37Z</time></trkpt><trkpt lat="60.8033909462" lon="30.3414709121"><ele>26.09</ele><time>2026-08-22T09:44:57Z</time></trkpt><trkpt lat="60.8034355380" lon="30.3413989954"><ele>25.61</ele><time>2026-08-22T09:45:16Z</time></trkpt><trkpt lat="60.8034617733" lon="30.3413498774"><ele>26.09</ele><time>2026-08-22T09:45:25Z</time></trkpt><trkpt lat="60.8035851549" lon="30.3414624464"><ele>26.09</ele><time>2026-08-22T09:45:34Z</time></trkpt><trkpt lat="60.8036032598" lon="30.3415233828"><ele>26.09</ele><time>2026-08-22T09:45:36Z</time></trkpt><trkpt lat="60.8036432415" lon="30.3418434039"><ele>26.09</ele><time>2026-08-22T09:45:49Z</time></trkpt><trkpt lat="60.8036427386" lon="30.3421205934"><ele>26.09</ele><time>2026-08-22T09:46:00Z</time></trkpt><trkpt lat="60.8035844006" lon="30.3424789198"><ele>25.61</ele><time>2026-08-22T09:46:12Z</time></trkpt><trkpt lat="60.8034501225" lon="30.3427733760"><ele>25.61</ele><time>2026-08-22T09:46:24Z</time></trkpt><trkpt lat="60.8033072948" lon="30.3429658245"><ele>26.09</ele><time>2026-08-22T09:46:35Z</time></trkpt><trkpt lat="60.8031109907" lon="30.3434051201"><ele>25.61</ele><time>2026-08-22T09:46:53Z</time></trkpt><trkpt lat="60.8029519022" lon="30.3439108841"><ele>26.09</ele><time>2026-08-22T09:47:13Z</time></trkpt><trkpt lat="60.8028303646" lon="30.3443053365"><ele>25.61</ele><time>2026-08-22T09:47:30Z</time></trkpt><trkpt lat="60.8026550990" lon="30.3444864694"><ele>25.61</ele><time>2026-08-22T09:47:43Z</time></trkpt><trkpt lat="60.8024523407" lon="30.3445158061"><ele>26.09</ele><time>2026-08-22T09:48:00Z</time></trkpt><trkpt lat="60.8022360876" lon="30.3444764949"><ele>25.61</ele><time>2026-08-22T09:48:15Z</time></trkpt><trkpt lat="60.8019471634" lon="30.3443755768"><ele>25.61</ele><time>2026-08-22T09:48:35Z</time></trkpt><trkpt lat="60.8017121349" lon="30.3442697134"><ele>25.61</ele><time>2026-08-22T09:48:53Z</time></trkpt><trkpt lat="60.8015156630" lon="30.3443417978"><ele>25.13</ele><time>2026-08-22T09:49:10Z</time></trkpt><trkpt lat="60.8013522997" lon="30.3445966076"><ele>25.61</ele><time>2026-08-22T09:49:27Z</time></trkpt><trkpt lat="60.8012016769" lon="30.3448728751"><ele>25.61</ele><time>2026-08-22T09:49:41Z</time></trkpt><trkpt lat="60.8010183647" lon="30.3450938221"><ele>25.61</ele><time>2026-08-22T09:49:57Z</time></trkpt><trkpt lat="60.8008677419" lon="30.3453130927"><ele>25.61</ele><time>2026-08-22T09:50:11Z</time></trkpt><trkpt lat="60.8007423487" lon="30.3455676511"><ele>25.61</ele><time>2026-08-22T09:50:24Z</time></trkpt><trkpt lat="60.8006537519" lon="30.3458389733"><ele>25.13</ele><time>2026-08-22T09:50:36Z</time></trkpt><trkpt lat="60.8006048016" lon="30.3461047634"><ele>25.61</ele><time>2026-08-22T09:50:46Z</time></trkpt><trkpt lat="60.8005448710" lon="30.3464050032"><ele>25.61</ele><time>2026-08-22T09:50:58Z</time></trkpt><trkpt lat="60.8004403487" lon="30.3466028161"><ele>25.61</ele><time>2026-08-22T09:51:09Z</time></trkpt><trkpt lat="60.8003354911" lon="30.3468110226"><ele>26.57</ele><time>2026-08-22T09:51:20Z</time></trkpt><trkpt lat="60.8002518397" lon="30.3470827639"><ele>26.57</ele><time>2026-08-22T09:51:32Z</time></trkpt><trkpt lat="60.8001895621" lon="30.3474688344"><ele>26.09</ele><time>2026-08-22T09:51:47Z</time></trkpt><trkpt lat="60.8001275361" lon="30.3477788810"><ele>26.09</ele><time>2026-08-22T09:51:59Z</time></trkpt><trkpt lat="60.8000415377" lon="30.3480559029"><ele>26.09</ele><time>2026-08-22T09:52:12Z</time></trkpt><trkpt lat="60.7999213412" lon="30.3483657818"><ele>26.09</ele><time>2026-08-22T09:52:26Z</time></trkpt><trkpt lat="60.7997793518" lon="30.3486490063"><ele>26.57</ele><time>2026-08-22T09:52:41Z</time></trkpt><trkpt lat="60.7996861450" lon="30.3488837834"><ele>26.57</ele><time>2026-08-22T09:52:53Z</time></trkpt><trkpt lat="60.7995828800" lon="30.3492606338"><ele>26.57</ele><time>2026-08-22T09:53:10Z</time></trkpt><trkpt lat="60.7995406352" lon="30.3495047987"><ele>26.09</ele><time>2026-08-22T09:53:20Z</time></trkpt><trkpt lat="60.7994505297" lon="30.3498452716"><ele>26.09</ele><time>2026-08-22T09:53:34Z</time></trkpt><trkpt lat="60.7993049361" lon="30.3501152527"><ele>26.09</ele><time>2026-08-22T09:53:49Z</time></trkpt><trkpt lat="60.7991794590" lon="30.3504028358"><ele>26.09</ele><time>2026-08-22T09:54:04Z</time></trkpt><trkpt lat="60.7990950532" lon="30.3506637644"><ele>26.09</ele><time>2026-08-22T09:54:16Z</time></trkpt><trkpt lat="60.7990074623" lon="30.3509344161"><ele>26.57</ele><time>2026-08-22T09:54:28Z</time></trkpt><trkpt lat="60.7988932170" lon="30.3511601407"><ele>26.57</ele><time>2026-08-22T09:54:43Z</time></trkpt><trkpt lat="60.7987724338" lon="30.3512341529"><ele>26.09</ele><time>2026-08-22T09:54:59Z</time></trkpt><trkpt lat="60.7986933924" lon="30.3511751443"><ele>26.09</ele><time>2026-08-22T09:55:13Z</time></trkpt><trkpt lat="60.7986455318" lon="30.3510599770"><ele>26.09</ele><time>2026-08-22T09:55:31Z</time></trkpt><trkpt lat="60.7986441068" lon="30.3509165626"><ele>26.09</ele><time>2026-08-22T09:55:52Z</time></trkpt><trkpt lat="60.7986391615" lon="30.3507625032"><ele>25.61</ele><time>2026-08-22T09:56:09Z</time></trkpt><trkpt lat="60.7985818293" lon="30.3507764172"><ele>25.61</ele><time>2026-08-22T09:56:23Z</time></trkpt><trkpt lat="60.7985778060" lon="30.3508394491"><ele>25.61</ele><time>2026-08-22T09:56:27Z</time></trkpt><trkpt lat="60.7986233197" lon="30.3512098454"><ele>26.09</ele><time>2026-08-22T09:56:44Z</time></trkpt><trkpt lat="60.7987203822" lon="30.3515188023"><ele>25.61</ele><time>2026-08-22T09:56:58Z</time></trkpt><trkpt lat="60.7987167779" lon="30.3518560901"><ele>26.09</ele><time>2026-08-22T09:57:12Z</time></trkpt><trkpt lat="60.7986419275" lon="30.3521204554"><ele>26.09</ele><time>2026-08-22T09:57:24Z</time></trkpt><trkpt lat="60.7984892931" lon="30.3524766862"><ele>26.09</ele><time>2026-08-22T09:57:43Z</time></trkpt><trkpt lat="60.7983775623" lon="30.3527606651"><ele>26.09</ele><time>2026-08-22T09:57:59Z</time></trkpt><trkpt lat="60.7983373292" lon="30.3527252935"><ele>25.61</ele><time>2026-08-22T09:58:11Z</time></trkpt><trkpt lat="60.7983450405" lon="30.3525412269"><ele>25.61</ele><time>2026-08-22T09:58:28Z</time></trkpt><trkpt lat="60.7983064000" lon="30.3525159974"><ele>25.61</ele><time>2026-08-22T09:58:34Z</time></trkpt><trkpt lat="60.7982811704" lon="30.3526696377"><ele>25.61</ele><time>2026-08-22T09:58:45Z</time></trkpt><trkpt lat="60.7982986886" lon="30.3527382016"><ele>25.61</ele><time>2026-08-22T09:58:49Z</time></trkpt><trkpt lat="60.7983674202" lon="30.3530668560"><ele>25.61</ele><time>2026-08-22T09:59:02Z</time></trkpt><trkpt lat="60.7984294463" lon="30.3533748072"><ele>25.61</ele><time>2026-08-22T09:59:16Z</time></trkpt><trkpt lat="60.7985129301" lon="30.3535984363"><ele>25.13</ele><time>2026-08-22T09:59:29Z</time></trkpt><trkpt lat="60.7986349706" lon="30.3538585268"><ele>25.61</ele><time>2026-08-22T09:59:47Z</time></trkpt><trkpt lat="60.7986968290" lon="30.3541264962"><ele>25.61</ele><time>2026-08-22T10:00:02Z</time></trkpt><trkpt lat="60.7987074740" lon="30.3544073738"><ele>26.09</ele><time>2026-08-22T10:00:17Z</time></trkpt><trkpt lat="60.7987524848" lon="30.3545862436"><ele>25.13</ele><time>2026-08-22T10:00:28Z</time></trkpt><trkpt lat="60.7988612819" lon="30.3548990563"><ele>25.61</ele><time>2026-08-22T10:00:48Z</time></trkpt><trkpt lat="60.7989446819" lon="30.3552533593"><ele>25.61</ele><time>2026-08-22T10:01:09Z</time></trkpt><trkpt lat="60.7989878487" lon="30.3553650901"><ele>25.61</ele><time>2026-08-22T10:01:24Z</time></trkpt><trkpt lat="60.7990041096" lon="30.3553475719"><ele>25.61</ele><time>2026-08-22T10:01:39Z</time></trkpt><trkpt lat="60.7990000863" lon="30.3553236835"><ele>26.09</ele><time>2026-08-22T10:01:55Z</time></trkpt><trkpt lat="60.7990117371" lon="30.3553310595"><ele>25.13</ele><time>2026-08-22T10:02:11Z</time></trkpt><trkpt lat="60.7990128268" lon="30.3553225938"><ele>25.61</ele><time>2026-08-22T10:02:29Z</time></trkpt><trkpt lat="60.7990271598" lon="30.3553208336"><ele>26.09</ele><time>2026-08-22T10:02:47Z</time></trkpt><trkpt lat="60.7990223821" lon="30.3553217556"><ele>26.09</ele><time>2026-08-22T10:03:04Z</time></trkpt><trkpt lat="60.7990264054" lon="30.3553502541"><ele>26.09</ele><time>2026-08-22T10:03:18Z</time></trkpt><trkpt lat="60.7990260702" lon="30.3553301375"><ele>26.09</ele><time>2026-08-22T10:03:33Z</time></trkpt><trkpt lat="60.7990222983" lon="30.3553169779"><ele>26.57</ele><time>2026-08-22T10:03:42Z</time></trkpt><trkpt lat="60.7990121562" lon="30.3553176485"><ele>26.57</ele><time>2026-08-22T10:03:56Z</time></trkpt><trkpt lat="60.7990153413" lon="30.3553212527"><ele>26.57</ele><time>2026-08-22T10:04:12Z</time></trkpt><trkpt lat="60.7990137488" lon="30.3553080093"><ele>26.09</ele><time>2026-08-22T10:04:27Z</time></trkpt><trkpt lat="60.7990181074" lon="30.3552932572"><ele>26.57</ele><time>2026-08-22T10:04:44Z</time></trkpt><trkpt lat="60.7990286686" lon="30.3553023096"><ele>27.05</ele><time>2026-08-22T10:05:00Z</time></trkpt><trkpt lat="60.7990177721" lon="30.3553111106"><ele>26.57</ele><time>2026-08-22T10:05:25Z</time></trkpt><trkpt lat="60.7990248967" lon="30.3552988730"><ele>27.05</ele><time>2026-08-22T10:05:39Z</time></trkpt><trkpt lat="60.7990118209" lon="30.3552945144"><ele>27.53</ele><time>2026-08-22T10:05:51Z</time></trkpt><trkpt lat="60.7990163472" lon="30.3552992083"><ele>27.53</ele><time>2026-08-22T10:06:06Z</time></trkpt><trkpt lat="60.7990097255" lon="30.3552917484"><ele>27.05</ele><time>2026-08-22T10:06:22Z</time></trkpt><trkpt lat="60.7990122400" lon="30.3552904911"><ele>27.05</ele><time>2026-08-22T10:06:36Z</time></trkpt><trkpt lat="60.7989891060" lon="30.3552784212"><ele>27.53</ele><time>2026-08-22T10:06:57Z</time></trkpt><trkpt lat="60.7989633735" lon="30.3552870546"><ele>27.05</ele><time>2026-08-22T10:07:14Z</time></trkpt><trkpt lat="60.7989751920" lon="30.3553619049"><ele>26.57</ele><time>2026-08-22T10:07:28Z</time></trkpt><trkpt lat="60.7990038581" lon="30.3554707859"><ele>26.57</ele><time>2026-08-22T10:07:44Z</time></trkpt><trkpt lat="60.7990539819" lon="30.3556085844"><ele>27.05</ele><time>2026-08-22T10:08:02Z</time></trkpt><trkpt lat="60.7990935445" lon="30.3557339776"><ele>27.05</ele><time>2026-08-22T10:08:18Z</time></trkpt><trkpt lat="60.7991205342" lon="30.3557991888"><ele>26.57</ele><time>2026-08-22T10:08:35Z</time></trkpt><trkpt lat="60.7991747651" lon="30.3558466304"><ele>26.57</ele><time>2026-08-22T10:08:51Z</time></trkpt><trkpt lat="60.7991994917" lon="30.3558050562"><ele>27.05</ele><time>2026-08-22T10:09:03Z</time></trkpt><trkpt lat="60.7992328517" lon="30.3557091672"><ele>27.05</ele><time>2026-08-22T10:09:21Z</time></trkpt><trkpt lat="60.7992580812" lon="30.3555729613"><ele>27.05</ele><time>2026-08-22T10:09:36Z</time></trkpt><trkpt lat="60.7992801256" lon="30.3554302175"><ele>26.57</ele><time>2026-08-22T10:09:51Z</time></trkpt><trkpt lat="60.7992974762" lon="30.3553217556"><ele>27.05</ele><time>2026-08-22T10:10:04Z</time></trkpt><trkpt lat="60.7993102167" lon="30.3552649263"><ele>27.05</ele><time>2026-08-22T10:10:17Z</time></trkpt><trkpt lat="60.7993023377" lon="30.3552426305"><ele>27.05</ele><time>2026-08-22T10:10:33Z</time></trkpt><trkpt lat="60.7992872503" lon="30.3552043252"><ele>27.05</ele><time>2026-08-22T10:10:48Z</time></trkpt><trkpt lat="60.7992473524" lon="30.3551391978"><ele>27.05</ele><time>2026-08-22T10:11:01Z</time></trkpt><trkpt lat="60.7992042694" lon="30.3550702985"><ele>26.57</ele><time>2026-08-22T10:11:14Z</time></trkpt><trkpt lat="60.7991414052" lon="30.3549907543"><ele>27.05</ele><time>2026-08-22T10:11:30Z</time></trkpt><trkpt lat="60.7990803849" lon="30.3549064323"><ele>27.05</ele><time>2026-08-22T10:11:44Z</time></trkpt><trkpt lat="60.7990105636" lon="30.3548107110"><ele>26.57</ele><time>2026-08-22T10:12:00Z</time></trkpt><trkpt lat="60.7989475317" lon="30.3547702264"><ele>27.05</ele><time>2026-08-22T10:12:13Z</time></trkpt><trkpt lat="60.7989009283" lon="30.3547082841"><ele>26.57</ele><time>2026-08-22T10:12:26Z</time></trkpt><trkpt lat="60.7988487929" lon="30.3546723258"><ele>26.57</ele><time>2026-08-22T10:12:40Z</time></trkpt><trkpt lat="60.7988086436" lon="30.3546152450"><ele>27.05</ele><time>2026-08-22T10:12:55Z</time></trkpt><trkpt lat="60.7987863477" lon="30.3545636963"><ele>27.05</ele><time>2026-08-22T10:13:10Z</time></trkpt><trkpt lat="60.7987754513" lon="30.3545039333"><ele>26.57</ele><time>2026-08-22T10:13:27Z</time></trkpt><trkpt lat="60.7987684943" lon="30.3544451762"><ele>26.57</ele><time>2026-08-22T10:13:38Z</time></trkpt><trkpt lat="60.7986746170" lon="30.3541192040"><ele>27.05</ele><time>2026-08-22T10:13:51Z</time></trkpt><trkpt lat="60.7985366508" lon="30.3536608815"><ele>27.05</ele><time>2026-08-22T10:14:06Z</time></trkpt><trkpt lat="60.7983810827" lon="30.3533772379"><ele>27.05</ele><time>2026-08-22T10:14:19Z</time></trkpt><trkpt lat="60.7982450444" lon="30.3534307145"><ele>27.05</ele><time>2026-08-22T10:14:30Z</time></trkpt><trkpt lat="60.7980473991" lon="30.3536596242"><ele>26.57</ele><time>2026-08-22T10:14:46Z</time></trkpt><trkpt lat="60.7978952676" lon="30.3539840877"><ele>27.05</ele><time>2026-08-22T10:15:02Z</time></trkpt><trkpt lat="60.7977610733" lon="30.3540580161"><ele>26.57</ele><time>2026-08-22T10:15:12Z</time></trkpt><trkpt lat="60.7975886576" lon="30.3542220499"><ele>27.05</ele><time>2026-08-22T10:15:27Z</time></trkpt><trkpt lat="60.7974309940" lon="30.3543150891"><ele>27.05</ele><time>2026-08-22T10:15:39Z</time></trkpt><trkpt lat="60.7972006593" lon="30.3544442542"><ele>27.05</ele><time>2026-08-22T10:15:57Z</time></trkpt><trkpt lat="60.7970802113" lon="30.3544290829"><ele>27.05</ele><time>2026-08-22T10:16:11Z</time></trkpt><trkpt lat="60.7970605139" lon="30.3542235587"><ele>27.05</ele><time>2026-08-22T10:16:24Z</time></trkpt><trkpt lat="60.7971502002" lon="30.3540498856"><ele>27.05</ele><time>2026-08-22T10:16:39Z</time></trkpt><trkpt lat="60.7972934470" lon="30.3539176192"><ele>27.05</ele><time>2026-08-22T10:16:58Z</time></trkpt><trkpt lat="60.7974619232" lon="30.3537349775"><ele>27.05</ele><time>2026-08-22T10:17:21Z</time></trkpt><trkpt lat="60.7975848019" lon="30.3536032978"><ele>27.05</ele><time>2026-08-22T10:17:38Z</time></trkpt><trkpt lat="60.7976787630" lon="30.3536913916"><ele>27.53</ele><time>2026-08-22T10:17:53Z</time></trkpt><trkpt lat="60.7976404577" lon="30.3538579401"><ele>27.53</ele><time>2026-08-22T10:18:05Z</time></trkpt><trkpt lat="60.7975682896" lon="30.3539359756"><ele>27.05</ele><time>2026-08-22T10:18:14Z</time></trkpt><trkpt lat="60.7974777650" lon="30.3540463652"><ele>27.05</ele><time>2026-08-22T10:18:28Z</time></trkpt><trkpt lat="60.7972999010" lon="30.3543257341"><ele>27.05</ele><time>2026-08-22T10:18:47Z</time></trkpt><trkpt lat="60.7971183490" lon="30.3545413166"><ele>27.05</ele><time>2026-08-22T10:19:05Z</time></trkpt><trkpt lat="60.7969306782" lon="30.3546951246"><ele>27.05</ele><time>2026-08-22T10:19:21Z</time></trkpt><trkpt lat="60.7966979966" lon="30.3549882397"><ele>27.05</ele><time>2026-08-22T10:19:43Z</time></trkpt><trkpt lat="60.7965111639" lon="30.3550931811"><ele>27.05</ele><time>2026-08-22T10:19:58Z</time></trkpt><trkpt lat="60.7963197213" lon="30.3550420515"><ele>27.05</ele><time>2026-08-22T10:20:14Z</time></trkpt><trkpt lat="60.7962155342" lon="30.3550309874"><ele>27.05</ele><time>2026-08-22T10:20:29Z</time></trkpt><trkpt lat="60.7961946633" lon="30.3550976235"><ele>27.05</ele><time>2026-08-22T10:20:40Z</time></trkpt><trkpt lat="60.7962553483" lon="30.3551723063"><ele>27.05</ele><time>2026-08-22T10:20:57Z</time></trkpt><trkpt lat="60.7963242475" lon="30.3552224301"><ele>26.57</ele><time>2026-08-22T10:21:12Z</time></trkpt><trkpt lat="60.7963876985" lon="30.3552567959"><ele>27.05</ele><time>2026-08-22T10:21:31Z</time></trkpt><trkpt lat="60.7964058034" lon="30.3552105278"><ele>27.05</ele><time>2026-08-22T10:21:48Z</time></trkpt><trkpt lat="60.7963737007" lon="30.3552023973"><ele>27.05</ele><time>2026-08-22T10:22:00Z</time></trkpt><trkpt lat="60.7963364851" lon="30.3551124595"><ele>27.05</ele><time>2026-08-22T10:22:16Z</time></trkpt><trkpt lat="60.7962843496" lon="30.3550060932"><ele>27.05</ele><time>2026-08-22T10:22:33Z</time></trkpt><trkpt lat="60.7962419372" lon="30.3549262136"><ele>27.05</ele><time>2026-08-22T10:22:49Z</time></trkpt><trkpt lat="60.7961946633" lon="30.3549250402"><ele>27.05</ele><time>2026-08-22T10:23:04Z</time></trkpt><trkpt lat="60.7960530929" lon="30.3549738228"><ele>27.05</ele><time>2026-08-22T10:23:18Z</time></trkpt><trkpt lat="60.7958277874" lon="30.3550367709"><ele>27.05</ele><time>2026-08-22T10:23:34Z</time></trkpt><trkpt lat="60.7955776714" lon="30.3550667781"><ele>27.53</ele><time>2026-08-22T10:23:52Z</time></trkpt><trkpt lat="60.7953028288" lon="30.3551069275"><ele>27.05</ele><time>2026-08-22T10:24:13Z</time></trkpt><trkpt lat="60.7950806245" lon="30.3552262858"><ele>27.05</ele><time>2026-08-22T10:24:31Z</time></trkpt><trkpt lat="60.7948888466" lon="30.3554821014"><ele>27.05</ele><time>2026-08-22T10:24:48Z</time></trkpt><trkpt lat="60.7946263254" lon="30.3556562774"><ele>27.05</ele><time>2026-08-22T10:25:08Z</time></trkpt><trkpt lat="60.7944019418" lon="30.3558044694"><ele>27.05</ele><time>2026-08-22T10:25:25Z</time></trkpt><trkpt lat="60.7941608783" lon="30.3559157811"><ele>27.05</ele><time>2026-08-22T10:25:43Z</time></trkpt><trkpt lat="60.7938905619" lon="30.3561320342"><ele>27.53</ele><time>2026-08-22T10:26:05Z</time></trkpt><trkpt lat="60.7937936671" lon="30.3563334513"><ele>27.53</ele><time>2026-08-22T10:26:17Z</time></trkpt><trkpt lat="60.7935923338" lon="30.3563860897"><ele>27.05</ele><time>2026-08-22T10:26:33Z</time></trkpt><trkpt lat="60.7933955267" lon="30.3563646320"><ele>27.05</ele><time>2026-08-22T10:26:48Z</time></trkpt><trkpt lat="60.7932345103" lon="30.3563472815"><ele>27.05</ele><time>2026-08-22T10:27:02Z</time></trkpt><trkpt lat="60.7930528745" lon="30.3564252332"><ele>27.05</ele><time>2026-08-22T10:27:18Z</time></trkpt><trkpt lat="60.7928909361" lon="30.3566709906"><ele>26.57</ele><time>2026-08-22T10:27:34Z</time></trkpt><trkpt lat="60.7926802151" lon="30.3567544743"><ele>27.05</ele><time>2026-08-22T10:27:50Z</time></trkpt><trkpt lat="60.7924854197" lon="30.3568253852"><ele>26.57</ele><time>2026-08-22T10:28:07Z</time></trkpt><trkpt lat="60.7923818193" lon="30.3571382817"><ele>27.05</ele><time>2026-08-22T10:28:22Z</time></trkpt><trkpt lat="60.7922052965" lon="30.3573644254"><ele>26.57</ele><time>2026-08-22T10:28:38Z</time></trkpt><trkpt lat="60.7919885404" lon="30.3573913313"><ele>26.57</ele><time>2026-08-22T10:28:55Z</time></trkpt><trkpt lat="60.7918132748" lon="30.3574805986"><ele>27.05</ele><time>2026-08-22T10:29:10Z</time></trkpt><trkpt lat="60.7916255202" lon="30.3574499208"><ele>27.05</ele><time>2026-08-22T10:29:28Z</time></trkpt><trkpt lat="60.7914029807" lon="30.3573507629"><ele>26.57</ele><time>2026-08-22T10:29:50Z</time></trkpt><trkpt lat="60.7912123762" lon="30.3573570494"><ele>27.05</ele><time>2026-08-22T10:30:09Z</time></trkpt><trkpt lat="60.7910228614" lon="30.3573940974"><ele>26.57</ele><time>2026-08-22T10:30:28Z</time></trkpt><trkpt lat="60.7908787765" lon="30.3575946763"><ele>27.05</ele><time>2026-08-22T10:30:45Z</time></trkpt><trkpt lat="60.7906918600" lon="30.3578728717"><ele>27.05</ele><time>2026-08-22T10:31:08Z</time></trkpt><trkpt lat="60.7905823085" lon="30.3580805752"><ele>26.57</ele><time>2026-08-22T10:31:24Z</time></trkpt><trkpt lat="60.7904987410" lon="30.3580746241"><ele>26.57</ele><time>2026-08-22T10:31:38Z</time></trkpt><trkpt lat="60.7904450130" lon="30.3580747917"><ele>26.09</ele><time>2026-08-22T10:31:44Z</time></trkpt><trkpt lat="60.7901932206" lon="30.3581896238"><ele>26.57</ele><time>2026-08-22T10:32:08Z</time></trkpt><trkpt lat="60.7900011074" lon="30.3583055455"><ele>26.09</ele><time>2026-08-22T10:32:27Z</time></trkpt><trkpt lat="60.7898495626" lon="30.3584021050"><ele>27.05</ele><time>2026-08-22T10:32:43Z</time></trkpt><trkpt lat="60.7896960899" lon="30.3586510476"><ele>27.05</ele><time>2026-08-22T10:32:59Z</time></trkpt><trkpt lat="60.7894575410" lon="30.3589743376"><ele>26.57</ele><time>2026-08-22T10:33:20Z</time></trkpt><trkpt lat="60.7892679423" lon="30.3591292351"><ele>26.57</ele><time>2026-08-22T10:33:35Z</time></trkpt><trkpt lat="60.7890122104" lon="30.3591907583"><ele>26.57</ele><time>2026-08-22T10:33:53Z</time></trkpt><trkpt lat="60.7886952069" lon="30.3592170775"><ele>27.05</ele><time>2026-08-22T10:34:15Z</time></trkpt><trkpt lat="60.7884182688" lon="30.3591712285"><ele>26.09</ele><time>2026-08-22T10:34:35Z</time></trkpt><trkpt lat="60.7881609444" lon="30.3591753356"><ele>26.57</ele><time>2026-08-22T10:34:53Z</time></trkpt><trkpt lat="60.7879586052" lon="30.3593158163"><ele>26.57</ele><time>2026-08-22T10:35:08Z</time></trkpt><trkpt lat="60.7877674978" lon="30.3591908421"><ele>26.57</ele><time>2026-08-22T10:35:22Z</time></trkpt><trkpt lat="60.7875866164" lon="30.3590061050"><ele>26.57</ele><time>2026-08-22T10:35:38Z</time></trkpt><trkpt lat="60.7874238398" lon="30.3590585757"><ele>26.57</ele><time>2026-08-22T10:35:55Z</time></trkpt><trkpt lat="60.7872164715" lon="30.3590904269"><ele>26.57</ele><time>2026-08-22T10:36:12Z</time></trkpt><trkpt lat="60.7870671060" lon="30.3590616770"><ele>26.57</ele><time>2026-08-22T10:36:26Z</time></trkpt><trkpt lat="60.7869097777" lon="30.3592270520"><ele>26.57</ele><time>2026-08-22T10:36:41Z</time></trkpt><trkpt lat="60.7867447380" lon="30.3591019101"><ele>26.57</ele><time>2026-08-22T10:36:55Z</time></trkpt><trkpt lat="60.7865662035" lon="30.3588733356"><ele>26.09</ele><time>2026-08-22T10:37:12Z</time></trkpt><trkpt lat="60.7863367908" lon="30.3584640473"><ele>26.57</ele><time>2026-08-22T10:37:36Z</time></trkpt><trkpt lat="60.7861191966" lon="30.3581217304"><ele>26.57</ele><time>2026-08-22T10:37:58Z</time></trkpt><trkpt lat="60.7858837489" lon="30.3578589577"><ele>26.57</ele><time>2026-08-22T10:38:19Z</time></trkpt><trkpt lat="60.7856177911" lon="30.3576365020"><ele>26.57</ele><time>2026-08-22T10:38:42Z</time></trkpt><trkpt lat="60.7853742130" lon="30.3574473225"><ele>27.05</ele><time>2026-08-22T10:39:03Z</time></trkpt><trkpt lat="60.7851821836" lon="30.3573081829"><ele>27.05</ele><time>2026-08-22T10:39:19Z</time></trkpt><trkpt lat="60.7849716302" lon="30.3571620025"><ele>27.05</ele><time>2026-08-22T10:39:37Z</time></trkpt><trkpt lat="60.7847671956" lon="30.3570137266"><ele>27.05</ele><time>2026-08-22T10:39:55Z</time></trkpt><trkpt lat="60.7845423929" lon="30.3568686359"><ele>26.57</ele><time>2026-08-22T10:40:14Z</time></trkpt><trkpt lat="60.7842284068" lon="30.3567647841"><ele>26.57</ele><time>2026-08-22T10:40:39Z</time></trkpt><trkpt lat="60.7839996647" lon="30.3566637821"><ele>27.05</ele><time>2026-08-22T10:40:57Z</time></trkpt><trkpt lat="60.7837809809" lon="30.3566340264"><ele>26.57</ele><time>2026-08-22T10:41:15Z</time></trkpt><trkpt lat="60.7835358102" lon="30.3566286620"><ele>26.57</ele><time>2026-08-22T10:41:34Z</time></trkpt><trkpt lat="60.7832916453" lon="30.3565442562"><ele>26.57</ele><time>2026-08-22T10:41:53Z</time></trkpt><trkpt lat="60.7830520067" lon="30.3564326093"><ele>26.57</ele><time>2026-08-22T10:42:13Z</time></trkpt><trkpt lat="60.7828595582" lon="30.3563787136"><ele>26.57</ele><time>2026-08-22T10:42:28Z</time></trkpt><trkpt lat="60.7826650981" lon="30.3562529013"><ele>26.57</ele><time>2026-08-22T10:42:44Z</time></trkpt><trkpt lat="60.7824779302" lon="30.3560521547"><ele>26.57</ele><time>2026-08-22T10:43:01Z</time></trkpt><trkpt lat="60.7822582405" lon="30.3558903839"><ele>26.57</ele><time>2026-08-22T10:43:20Z</time></trkpt><trkpt lat="60.7819426619" lon="30.3557134420"><ele>26.57</ele><time>2026-08-22T10:43:46Z</time></trkpt><trkpt lat="60.7817011792" lon="30.3555268608"><ele>26.57</ele><time>2026-08-22T10:44:07Z</time></trkpt><trkpt lat="60.7815338764" lon="30.3555002902"><ele>26.57</ele><time>2026-08-22T10:44:23Z</time></trkpt><trkpt lat="60.7812795695" lon="30.3554349113"><ele>26.57</ele><time>2026-08-22T10:44:43Z</time></trkpt><trkpt lat="60.7811106741" lon="30.3551372699"><ele>26.57</ele><time>2026-08-22T10:45:00Z</time></trkpt><trkpt lat="60.7809656672" lon="30.3546213638"><ele>26.57</ele><time>2026-08-22T10:45:23Z</time></trkpt><trkpt lat="60.7808704488" lon="30.3542180266"><ele>26.09</ele><time>2026-08-22T10:45:41Z</time></trkpt><trkpt lat="60.7807285432" lon="30.3537747078"><ele>26.09</ele><time>2026-08-22T10:46:03Z</time></trkpt><trkpt lat="60.7805345021" lon="30.3535896353"><ele>26.09</ele><time>2026-08-22T10:46:22Z</time></trkpt><trkpt lat="60.7804490067" lon="30.3535634000"><ele>26.09</ele><time>2026-08-22T10:46:37Z</time></trkpt><trkpt lat="60.7804034930" lon="30.3535164613"><ele>25.61</ele><time>2026-08-22T10:46:52Z</time></trkpt><trkpt lat="60.7803873159" lon="30.3534566984"><ele>26.09</ele><time>2026-08-22T10:47:12Z</time></trkpt><trkpt lat="60.7804350927" lon="30.3535043076"><ele>26.09</ele><time>2026-08-22T10:47:24Z</time></trkpt><trkpt lat="60.7804969512" lon="30.3535974305"><ele>26.09</ele><time>2026-08-22T10:47:39Z</time></trkpt><trkpt lat="60.7805484161" lon="30.3537242487"><ele>26.09</ele><time>2026-08-22T10:47:55Z</time></trkpt><trkpt lat="60.7805354241" lon="30.3537894599"><ele>26.09</ele><time>2026-08-22T10:48:08Z</time></trkpt><trkpt lat="60.7805085182" lon="30.3537459578"><ele>26.09</ele><time>2026-08-22T10:48:22Z</time></trkpt><trkpt lat="60.7804676145" lon="30.3536421061"><ele>26.09</ele><time>2026-08-22T10:48:34Z</time></trkpt><trkpt lat="60.7804410439" lon="30.3535425290"><ele>26.57</ele><time>2026-08-22T10:48:50Z</time></trkpt><trkpt lat="60.7804047503" lon="30.3534444608"><ele>26.09</ele><time>2026-08-22T10:49:09Z</time></trkpt><trkpt lat="60.7803915069" lon="30.3533997852"><ele>26.09</ele><time>2026-08-22T10:49:13Z</time></trkpt><trkpt lat="60.7802717295" lon="30.3530516848"><ele>26.57</ele><time>2026-08-22T10:49:33Z</time></trkpt><trkpt lat="60.7800952904" lon="30.3526805341"><ele>26.57</ele><time>2026-08-22T10:49:53Z</time></trkpt><trkpt lat="60.7799051888" lon="30.3523559030"><ele>26.57</ele><time>2026-08-22T10:50:13Z</time></trkpt><trkpt lat="60.7797086332" lon="30.3519995045"><ele>26.09</ele><time>2026-08-22T10:50:33Z</time></trkpt><trkpt lat="60.7795096468" lon="30.3517265059"><ele>26.57</ele><time>2026-08-22T10:50:52Z</time></trkpt><trkpt lat="60.7793916296" lon="30.3514639847"><ele>26.09</ele><time>2026-08-22T10:51:07Z</time></trkpt><trkpt lat="60.7793132588" lon="30.3512087557"><ele>26.09</ele><time>2026-08-22T10:51:23Z</time></trkpt><trkpt lat="60.7792485505" lon="30.3509484138"><ele>26.57</ele><time>2026-08-22T10:51:36Z</time></trkpt><trkpt lat="60.7791179605" lon="30.3503643628"><ele>26.57</ele><time>2026-08-22T10:52:00Z</time></trkpt><trkpt lat="60.7789708581" lon="30.3499685694"><ele>26.57</ele><time>2026-08-22T10:52:18Z</time></trkpt><trkpt lat="60.7788256835" lon="30.3496923856"><ele>27.53</ele><time>2026-08-22T10:52:31Z</time></trkpt><trkpt lat="60.7786401082" lon="30.3493330535"><ele>27.05</ele><time>2026-08-22T10:52:47Z</time></trkpt><trkpt lat="60.7784606516" lon="30.3490536846"><ele>26.57</ele><time>2026-08-22T10:53:02Z</time></trkpt><trkpt lat="60.7782632578" lon="30.3489121981"><ele>26.57</ele><time>2026-08-22T10:53:17Z</time></trkpt><trkpt lat="60.7780235354" lon="30.3487920016"><ele>27.05</ele><time>2026-08-22T10:53:33Z</time></trkpt><trkpt lat="60.7777293306" lon="30.3486752417"><ele>26.57</ele><time>2026-08-22T10:53:52Z</time></trkpt><trkpt lat="60.7773908693" lon="30.3484825417"><ele>27.05</ele><time>2026-08-22T10:54:14Z</time></trkpt><trkpt lat="60.7771775499" lon="30.3482428193"><ele>26.57</ele><time>2026-08-22T10:54:29Z</time></trkpt><trkpt lat="60.7770625502" lon="30.3478661366"><ele>26.57</ele><time>2026-08-22T10:54:43Z</time></trkpt><trkpt lat="60.7768936548" lon="30.3474418446"><ele>26.57</ele><time>2026-08-22T10:55:00Z</time></trkpt><trkpt lat="60.7766774856" lon="30.3470435366"><ele>26.57</ele><time>2026-08-22T10:55:19Z</time></trkpt><trkpt lat="60.7765322272" lon="30.3468882199"><ele>26.57</ele><time>2026-08-22T10:55:31Z</time></trkpt><trkpt lat="60.7763684448" lon="30.3466885630"><ele>26.57</ele><time>2026-08-22T10:55:50Z</time></trkpt><trkpt lat="60.7762811892" lon="30.3466724698"><ele>26.09</ele><time>2026-08-22T10:56:06Z</time></trkpt><trkpt lat="60.7761896588" lon="30.3468889743"><ele>26.57</ele><time>2026-08-22T10:56:25Z</time></trkpt><trkpt lat="60.7760977931" lon="30.3470129427"><ele>26.57</ele><time>2026-08-22T10:56:42Z</time></trkpt><trkpt lat="60.7760599069" lon="30.3470727056"><ele>26.09</ele><time>2026-08-22T10:57:00Z</time></trkpt><trkpt lat="60.7760706358" lon="30.3470678441"><ele>26.57</ele><time>2026-08-22T10:57:13Z</time></trkpt><trkpt lat="60.7761300635" lon="30.3469845280"><ele>26.09</ele><time>2026-08-22T10:57:26Z</time></trkpt><trkpt lat="60.7762118708" lon="30.3468137048"><ele>26.09</ele><time>2026-08-22T10:57:44Z</time></trkpt><trkpt lat="60.7762391120" lon="30.3466078453"><ele>26.09</ele><time>2026-08-22T10:57:58Z</time></trkpt><trkpt lat="60.7762398664" lon="30.3465610743"><ele>26.57</ele><time>2026-08-22T10:58:02Z</time></trkpt><trkpt lat="60.7763945125" lon="30.3464506846"><ele>26.09</ele><time>2026-08-22T10:58:13Z</time></trkpt><trkpt lat="60.7764630765" lon="30.3462210204"><ele>26.09</ele><time>2026-08-22T10:58:23Z</time></trkpt><trkpt lat="60.7763777487" lon="30.3460311703"><ele>26.09</ele><time>2026-08-22T10:58:33Z</time></trkpt><trkpt lat="60.7761231903" lon="30.3457154240"><ele>26.57</ele><time>2026-08-22T10:58:53Z</time></trkpt><trkpt lat="60.7758719847" lon="30.3453697544"><ele>27.05</ele><time>2026-08-22T10:59:13Z</time></trkpt><trkpt lat="60.7757912669" lon="30.3449439537"><ele>26.09</ele><time>2026-08-22T10:59:27Z</time></trkpt><trkpt lat="60.7758248784" lon="30.3446000442"><ele>26.57</ele><time>2026-08-22T10:59:41Z</time></trkpt><trkpt lat="60.7758147363" lon="30.3441335075"><ele>26.57</ele><time>2026-08-22T10:59:58Z</time></trkpt><trkpt lat="60.7758133952" lon="30.3437089641"><ele>26.09</ele><time>2026-08-22T11:00:14Z</time></trkpt><trkpt lat="60.7759117149" lon="30.3432755359"><ele>25.61</ele><time>2026-08-22T11:00:31Z</time></trkpt><trkpt lat="60.7759949472" lon="30.3427690174"><ele>26.09</ele><time>2026-08-22T11:00:51Z</time></trkpt><trkpt lat="60.7760359347" lon="30.3422620799"><ele>26.09</ele><time>2026-08-22T11:01:10Z</time></trkpt><trkpt lat="60.7761401217" lon="30.3419584874"><ele>26.09</ele><time>2026-08-22T11:01:23Z</time></trkpt><trkpt lat="60.7762471586" lon="30.3416797053"><ele>26.09</ele><time>2026-08-22T11:01:38Z</time></trkpt><trkpt lat="60.7762869727" lon="30.3413414117"><ele>26.09</ele><time>2026-08-22T11:01:53Z</time></trkpt><trkpt lat="60.7764202449" lon="30.3411699180"><ele>26.09</ele><time>2026-08-22T11:02:06Z</time></trkpt><trkpt lat="60.7766042277" lon="30.3409907967"><ele>26.09</ele><time>2026-08-22T11:02:22Z</time></trkpt><trkpt lat="60.7767079119" lon="30.3406692669"><ele>26.09</ele><time>2026-08-22T11:02:36Z</time></trkpt><trkpt lat="60.7768525835" lon="30.3403847851"><ele>26.09</ele><time>2026-08-22T11:02:51Z</time></trkpt><trkpt lat="60.7769943215" lon="30.3401474096"><ele>26.09</ele><time>2026-08-22T11:03:05Z</time></trkpt><trkpt lat="60.7772079762" lon="30.3401232697"><ele>25.61</ele><time>2026-08-22T11:03:21Z</time></trkpt><trkpt lat="60.7774234749" lon="30.3400702123"><ele>25.61</ele><time>2026-08-22T11:03:37Z</time></trkpt><trkpt lat="60.7775362954" lon="30.3402148001"><ele>26.09</ele><time>2026-08-22T11:03:48Z</time></trkpt><trkpt lat="60.7776647061" lon="30.3403547779"><ele>25.61</ele><time>2026-08-22T11:03:59Z</time></trkpt><trkpt lat="60.7778141554" lon="30.3401224315"><ele>25.61</ele><time>2026-08-22T11:04:11Z</time></trkpt><trkpt lat="60.7779463381" lon="30.3398703877"><ele>25.61</ele><time>2026-08-22T11:04:22Z</time></trkpt><trkpt lat="60.7781297341" lon="30.3397041745"><ele>25.61</ele><time>2026-08-22T11:04:37Z</time></trkpt><trkpt lat="60.7782608271" lon="30.3396061063"><ele>25.13</ele><time>2026-08-22T11:04:50Z</time></trkpt><trkpt lat="60.7784594782" lon="30.3395734169"><ele>25.61</ele><time>2026-08-22T11:05:05Z</time></trkpt><trkpt lat="60.7785882242" lon="30.3395207785"><ele>24.65</ele><time>2026-08-22T11:05:20Z</time></trkpt><trkpt lat="60.7787067443" lon="30.3395311721"><ele>25.13</ele><time>2026-08-22T11:05:33Z</time></trkpt><trkpt lat="60.7788567804" lon="30.3396800347"><ele>25.13</ele><time>2026-08-22T11:05:47Z</time></trkpt><trkpt lat="60.7790578622" lon="30.3397943638"><ele>25.13</ele><time>2026-08-22T11:06:03Z</time></trkpt><trkpt lat="60.7792338822" lon="30.3398150671"><ele>25.13</ele><time>2026-08-22T11:06:16Z</time></trkpt><trkpt lat="60.7795275003" lon="30.3399131354"><ele>24.65</ele><time>2026-08-22T11:06:35Z</time></trkpt><trkpt lat="60.7798232976" lon="30.3399543744"><ele>25.61</ele><time>2026-08-22T11:06:54Z</time></trkpt><trkpt lat="60.7800527103" lon="30.3399693780"><ele>25.13</ele><time>2026-08-22T11:07:08Z</time></trkpt><trkpt lat="60.7803176623" lon="30.3400112037"><ele>25.13</ele><time>2026-08-22T11:07:24Z</time></trkpt><trkpt lat="60.7805749867" lon="30.3400493413"><ele>25.61</ele><time>2026-08-22T11:07:40Z</time></trkpt><trkpt lat="60.7808681857" lon="30.3400577232"><ele>25.61</ele><time>2026-08-22T11:07:58Z</time></trkpt><trkpt lat="60.7811824232" lon="30.3400423843"><ele>25.13</ele><time>2026-08-22T11:08:16Z</time></trkpt><trkpt lat="60.7814627141" lon="30.3400324937"><ele>25.13</ele><time>2026-08-22T11:08:32Z</time></trkpt><trkpt lat="60.7817914523" lon="30.3400091082"><ele>25.13</ele><time>2026-08-22T11:08:51Z</time></trkpt><trkpt lat="60.7820826396" lon="30.3399333358"><ele>25.61</ele><time>2026-08-22T11:09:08Z</time></trkpt><trkpt lat="60.7823926862" lon="30.3398678731"><ele>26.09</ele><time>2026-08-22T11:09:26Z</time></trkpt><trkpt lat="60.7826918364" lon="30.3397801146"><ele>25.61</ele><time>2026-08-22T11:09:45Z</time></trkpt><trkpt lat="60.7828010526" lon="30.3397392947"><ele>26.09</ele><time>2026-08-22T11:09:56Z</time></trkpt><trkpt lat="60.7828356698" lon="30.3396781906"><ele>26.09</ele><time>2026-08-22T11:10:11Z</time></trkpt><trkpt lat="60.7827868871" lon="30.3397542145"><ele>26.09</ele><time>2026-08-22T11:10:23Z</time></trkpt><trkpt lat="60.7827673573" lon="30.3397746664"><ele>25.61</ele><time>2026-08-22T11:10:33Z</time></trkpt><trkpt lat="60.7827557065" lon="30.3398037516"><ele>26.09</ele><time>2026-08-22T11:10:35Z</time></trkpt><trkpt lat="60.7826911658" lon="30.3399594035"><ele>26.09</ele><time>2026-08-22T11:10:47Z</time></trkpt><trkpt lat="60.7826775871" lon="30.3400630038"><ele>26.57</ele><time>2026-08-22T11:10:58Z</time></trkpt><trkpt lat="60.7827116176" lon="30.3400745708"><ele>26.09</ele><time>2026-08-22T11:11:02Z</time></trkpt><trkpt lat="60.7828269526" lon="30.3399193380"><ele>25.61</ele><time>2026-08-22T11:11:13Z</time></trkpt><trkpt lat="60.7830371708" lon="30.3398442362"><ele>25.61</ele><time>2026-08-22T11:11:26Z</time></trkpt><trkpt lat="60.7833666634" lon="30.3398680408"><ele>26.09</ele><time>2026-08-22T11:11:46Z</time></trkpt><trkpt lat="60.7837148476" lon="30.3399630077"><ele>26.57</ele><time>2026-08-22T11:12:05Z</time></trkpt><trkpt lat="60.7840493694" lon="30.3399635106"><ele>25.61</ele><time>2026-08-22T11:12:23Z</time></trkpt><trkpt lat="60.7843382936" lon="30.3399822861"><ele>25.61</ele><time>2026-08-22T11:12:38Z</time></trkpt><trkpt lat="60.7846297324" lon="30.3400503471"><ele>26.09</ele><time>2026-08-22T11:12:54Z</time></trkpt><trkpt lat="60.7849078439" lon="30.3401178215"><ele>26.09</ele><time>2026-08-22T11:13:09Z</time></trkpt><trkpt lat="60.7852475625" lon="30.3402474895"><ele>26.09</ele><time>2026-08-22T11:13:27Z</time></trkpt><trkpt lat="60.7855804916" lon="30.3403427079"><ele>26.09</ele><time>2026-08-22T11:13:44Z</time></trkpt><trkpt lat="60.7858769596" lon="30.3404087573"><ele>26.09</ele><time>2026-08-22T11:13:59Z</time></trkpt><trkpt lat="60.7861464377" lon="30.3404825181"><ele>26.09</ele><time>2026-08-22T11:14:13Z</time></trkpt><trkpt lat="60.7865092903" lon="30.3404701967"><ele>26.09</ele><time>2026-08-22T11:14:33Z</time></trkpt><trkpt lat="60.7867762540" lon="30.3403458092"><ele>25.61</ele><time>2026-08-22T11:14:50Z</time></trkpt><trkpt lat="60.7870128751" lon="30.3401682805"><ele>26.09</ele><time>2026-08-22T11:15:06Z</time></trkpt><trkpt lat="60.7872332353" lon="30.3400478326"><ele>26.09</ele><time>2026-08-22T11:15:20Z</time></trkpt><trkpt lat="60.7874817587" lon="30.3399655223"><ele>26.09</ele><time>2026-08-22T11:15:37Z</time></trkpt><trkpt lat="60.7876975089" lon="30.3398682084"><ele>26.09</ele><time>2026-08-22T11:15:52Z</time></trkpt><trkpt lat="60.7879032847" lon="30.3398097865"><ele>26.09</ele><time>2026-08-22T11:16:06Z</time></trkpt><trkpt lat="60.7880904526" lon="30.3398109600"><ele>26.09</ele><time>2026-08-22T11:16:19Z</time></trkpt><trkpt lat="60.7882800512" lon="30.3398080263"><ele>25.61</ele><time>2026-08-22T11:16:33Z</time></trkpt></trkseg><trkseg><trkpt lat="59.4540820643" lon="31.1006734427"><ele>95.79</ele><time>2026-09-01T16:01:08Z</time></trkpt><trkpt lat="59.4540863391" lon="31.1006177869"><ele>95.31</ele><time>2026-09-01T16:01:20Z</time></trkpt><trkpt lat="59.4540803879" lon="31.1006047949"><ele>95.31</ele><time>2026-09-01T16:01:29Z</time></trkpt><trkpt lat="59.4540933799" lon="31.1006124225"><ele>95.31</ele><time>2026-09-01T16:01:39Z</time></trkpt><trkpt lat="59.4540812261" lon="31.1006576847"><ele>95.31</ele><time>2026-09-01T16:01:48Z</time></trkpt><trkpt lat="59.4540675636" lon="31.1006708443"><ele>95.31</ele><time>2026-09-01T16:01:59Z</time></trkpt><trkpt lat="59.4540777896" lon="31.1006620433"><ele>94.83</ele><time>2026-09-01T16:02:07Z</time></trkpt><trkpt lat="59.4540932123" lon="31.1006420106"><ele>94.83</ele><time>2026-09-01T16:02:15Z</time></trkpt><trkpt lat="59.4540829863" lon="31.1006378196"><ele>94.35</ele><time>2026-09-01T16:02:22Z</time></trkpt><trkpt lat="59.4540653005" lon="31.1006108299"><ele>93.87</ele><time>2026-09-01T16:02:31Z</time></trkpt><trkpt lat="59.4540857524" lon="31.1006752029"><ele>93.39</ele><time>2026-09-01T16:02:43Z</time></trkpt><trkpt lat="59.4540861715" lon="31.1006741133"><ele>92.90</ele><time>2026-09-01T16:02:58Z</time></trkpt><trkpt lat="59.4540503807" lon="31.1006738618"><ele>92.42</ele><time>2026-09-01T16:03:23Z</time></trkpt><trkpt lat="59.4540918712" lon="31.1006629653"><ele>91.94</ele><time>2026-09-01T16:03:35Z</time></trkpt><trkpt lat="59.4540943019" lon="31.1006557569"><ele>91.94</ele><time>2026-09-01T16:03:49Z</time></trkpt><trkpt lat="59.4540997501" lon="31.1006970797"><ele>91.46</ele><time>2026-09-01T16:04:03Z</time></trkpt><trkpt lat="59.4541217946" lon="31.1006962415"><ele>90.98</ele><time>2026-09-01T16:04:20Z</time></trkpt><trkpt lat="59.4541271590" lon="31.1006920505"><ele>90.98</ele><time>2026-09-01T16:04:29Z</time></trkpt><trkpt lat="59.4541279972" lon="31.1006160267"><ele>90.50</ele><time>2026-09-01T16:04:39Z</time></trkpt><trkpt lat="59.4541181903" lon="31.1006056331"><ele>90.50</ele><time>2026-09-01T16:04:48Z</time></trkpt><trkpt lat="59.4541274942" lon="31.1005949043"><ele>90.50</ele><time>2026-09-01T16:05:04Z</time></trkpt><trkpt lat="59.4541326072" lon="31.1005787272"><ele>90.02</ele><time>2026-09-01T16:05:21Z</time></trkpt><trkpt lat="59.4541362952" lon="31.1006190442"><ele>90.02</ele><time>2026-09-01T16:05:38Z</time></trkpt><trkpt lat="59.4541364629" lon="31.1006300244"><ele>89.54</ele><time>2026-09-01T16:05:57Z</time></trkpt><trkpt lat="59.4541289192" lon="31.1005722731"><ele>89.06</ele><time>2026-09-01T16:06:17Z</time></trkpt><trkpt lat="59.4541005045" lon="31.1005755421"><ele>88.58</ele><time>2026-09-01T16:06:35Z</time></trkpt><trkpt lat="59.4541191123" lon="31.1005816609"><ele>88.10</ele><time>2026-09-01T16:06:52Z</time></trkpt><trkpt lat="59.4541309308" lon="31.1005782243"><ele>87.62</ele><time>2026-09-01T16:07:10Z</time></trkpt><trkpt lat="59.4541380554" lon="31.1005819123"><ele>87.14</ele><time>2026-09-01T16:07:28Z</time></trkpt><trkpt lat="59.4541430846" lon="31.1005907133"><ele>87.14</ele><time>2026-09-01T16:07:45Z</time></trkpt><trkpt lat="59.4541383069" lon="31.1006244086"><ele>86.66</ele><time>2026-09-01T16:08:04Z</time></trkpt><trkpt lat="59.4541397318" lon="31.1006189603"><ele>86.66</ele><time>2026-09-01T16:08:24Z</time></trkpt><trkpt lat="59.4541428331" lon="31.1006030347"><ele>86.18</ele><time>2026-09-01T16:08:40Z</time></trkpt><trkpt lat="59.4541362114" lon="31.1006090697"><ele>86.18</ele><time>2026-09-01T16:08:55Z</time></trkpt><trkpt lat="59.4541275781" lon="31.1006023642"><ele>85.69</ele><time>2026-09-01T16:09:15Z</time></trkpt><trkpt lat="59.4541274104" lon="31.1005916353"><ele>85.69</ele><time>2026-09-01T16:09:30Z</time></trkpt><trkpt lat="59.4541106466" lon="31.1006075609"><ele>85.69</ele><time>2026-09-01T16:09:46Z</time></trkpt><trkpt lat="59.4541059528" lon="31.1005930603"><ele>85.21</ele><time>2026-09-01T16:10:08Z</time></trkpt><trkpt lat="59.4541096408" lon="31.1005875282"><ele>84.73</ele><time>2026-09-01T16:10:26Z</time></trkpt><trkpt lat="59.4541170169" lon="31.1005845945"><ele>84.73</ele><time>2026-09-01T16:10:47Z</time></trkpt><trkpt lat="59.4541104790" lon="31.1005672440"><ele>84.25</ele><time>2026-09-01T16:11:13Z</time></trkpt><trkpt lat="59.4541071262" lon="31.1005718540"><ele>83.29</ele><time>2026-09-01T16:11:35Z</time></trkpt><trkpt lat="59.4541073777" lon="31.1005633045"><ele>83.29</ele><time>2026-09-01T16:11:59Z</time></trkpt><trkpt lat="59.4541134126" lon="31.1006005201"><ele>83.29</ele><time>2026-09-01T16:12:23Z</time></trkpt><trkpt lat="59.4541191962" lon="31.1006182060"><ele>82.81</ele><time>2026-09-01T16:12:40Z</time></trkpt><trkpt lat="59.4541082159" lon="31.1005737819"><ele>82.81</ele><time>2026-09-01T16:12:56Z</time></trkpt><trkpt lat="59.4541045278" lon="31.1005666573"><ele>82.81</ele><time>2026-09-01T16:13:09Z</time></trkpt><trkpt lat="59.4541142508" lon="31.1005472112"><ele>82.33</ele><time>2026-09-01T16:13:26Z</time></trkpt><trkpt lat="59.4541210402" lon="31.1005310342"><ele>82.33</ele><time>2026-09-01T16:13:48Z</time></trkpt><trkpt lat="59.4541370496" lon="31.1005685013"><ele>81.85</ele><time>2026-09-01T16:14:06Z</time></trkpt><trkpt lat="59.4541274942" lon="31.1005362310"><ele>81.85</ele><time>2026-09-01T16:14:26Z</time></trkpt><trkpt lat="59.4541147538" lon="31.1005230714"><ele>81.37</ele><time>2026-09-01T16:14:39Z</time></trkpt><trkpt lat="59.4541166816" lon="31.1005674116"><ele>81.37</ele><time>2026-09-01T16:14:58Z</time></trkpt><trkpt lat="59.4541434199" lon="31.1005922221"><ele>80.89</ele><time>2026-09-01T16:15:12Z</time></trkpt><trkpt lat="59.4541155919" lon="31.1005719379"><ele>80.89</ele><time>2026-09-01T16:15:28Z</time></trkpt><trkpt lat="59.4540999178" lon="31.1005597003"><ele>80.41</ele><time>2026-09-01T16:15:47Z</time></trkpt><trkpt lat="59.4540890213" lon="31.1005581915"><ele>80.41</ele><time>2026-09-01T16:16:06Z</time></trkpt><trkpt lat="59.4541019294" lon="31.1005384941"><ele>80.41</ele><time>2026-09-01T16:16:27Z</time></trkpt><trkpt lat="59.4541240577" lon="31.1005804036"><ele>79.93</ele><time>2026-09-01T16:16:47Z</time></trkpt><trkpt lat="59.4541165140" lon="31.1006092373"><ele>79.45</ele><time>2026-09-01T16:17:04Z</time></trkpt><trkpt lat="59.4541212078" lon="31.1006014422"><ele>79.45</ele><time>2026-09-01T16:17:24Z</time></trkpt><trkpt lat="59.4541027676" lon="31.1005569343"><ele>79.45</ele><time>2026-09-01T16:17:42Z</time></trkpt><trkpt lat="59.4541030191" lon="31.1005626339"><ele>78.48</ele><time>2026-09-01T16:17:57Z</time></trkpt><trkpt lat="59.4541287515" lon="31.1006137636"><ele>78.97</ele><time>2026-09-01T16:18:11Z</time></trkpt><trkpt lat="59.4541269913" lon="31.1006051302"><ele>78.97</ele><time>2026-09-01T16:18:31Z</time></trkpt><trkpt lat="59.4541299250" lon="31.1005971674"><ele>78.97</ele><time>2026-09-01T16:18:54Z</time></trkpt><trkpt lat="59.4541378878" lon="31.1006217264"><ele>78.97</ele><time>2026-09-01T16:19:03Z</time></trkpt><trkpt lat="59.4541300088" lon="31.1006128415"><ele>78.00</ele><time>2026-09-01T16:19:18Z</time></trkpt><trkpt lat="59.4541170169" lon="31.1006083991"><ele>78.00</ele><time>2026-09-01T16:19:36Z</time></trkpt><trkpt lat="59.4541184418" lon="31.1006280966"><ele>78.00</ele><time>2026-09-01T16:19:54Z</time></trkpt><trkpt lat="59.4541318528" lon="31.1006420106"><ele>78.00</ele><time>2026-09-01T16:20:10Z</time></trkpt><trkpt lat="59.4541400671" lon="31.1006842554"><ele>78.00</ele><time>2026-09-01T16:20:17Z</time></trkpt><trkpt lat="59.4541015103" lon="31.1007011030"><ele>77.52</ele><time>2026-09-01T16:20:23Z</time></trkpt><trkpt lat="59.4541062880" lon="31.1006855126"><ele>77.04</ele><time>2026-09-01T16:20:34Z</time></trkpt><trkpt lat="59.4541077130" lon="31.1007151008"><ele>77.04</ele><time>2026-09-01T16:20:51Z</time></trkpt><trkpt lat="59.4541193638" lon="31.1007023603"><ele>77.04</ele><time>2026-09-01T16:21:04Z</time></trkpt><trkpt lat="59.4541180227" lon="31.1006948166"><ele>77.04</ele><time>2026-09-01T16:21:16Z</time></trkpt><trkpt lat="59.4540903624" lon="31.1007334571"><ele>77.52</ele><time>2026-09-01T16:21:38Z</time></trkpt><trkpt lat="59.4541398995" lon="31.1006459501"><ele>77.04</ele><time>2026-09-01T16:21:52Z</time></trkpt><trkpt lat="59.4541255664" lon="31.1006660666"><ele>77.04</ele><time>2026-09-01T16:22:04Z</time></trkpt><trkpt lat="59.4541474432" lon="31.1006898712"><ele>77.04</ele><time>2026-09-01T16:22:14Z</time></trkpt><trkpt lat="59.4541604351" lon="31.1006980855"><ele>77.52</ele><time>2026-09-01T16:22:29Z</time></trkpt><trkpt lat="59.4541602675" lon="31.1006716825"><ele>77.04</ele><time>2026-09-01T16:22:41Z</time></trkpt><trkpt lat="59.4541512150" lon="31.1006713472"><ele>77.04</ele><time>2026-09-01T16:22:55Z</time></trkpt><trkpt lat="59.4541286677" lon="31.1006620433"><ele>77.04</ele><time>2026-09-01T16:23:11Z</time></trkpt><trkpt lat="59.4541279133" lon="31.1006508116"><ele>77.04</ele><time>2026-09-01T16:23:20Z</time></trkpt><trkpt lat="59.4541277457" lon="31.1006637197"><ele>77.04</ele><time>2026-09-01T16:23:31Z</time></trkpt><trkpt lat="59.4541354571" lon="31.1006990913"><ele>77.04</ele><time>2026-09-01T16:23:46Z</time></trkpt><trkpt lat="59.4541176036" lon="31.1006795615"><ele>76.08</ele><time>2026-09-01T16:24:00Z</time></trkpt><trkpt lat="59.4540811423" lon="31.1006415915"><ele>76.08</ele><time>2026-09-01T16:24:14Z</time></trkpt><trkpt lat="59.4540680666" lon="31.1006253306"><ele>75.60</ele><time>2026-09-01T16:24:37Z</time></trkpt><trkpt lat="59.4540760294" lon="31.1006242409"><ele>75.60</ele><time>2026-09-01T16:24:53Z</time></trkpt><trkpt lat="59.4540819805" lon="31.1006273422"><ele>75.60</ele><time>2026-09-01T16:25:16Z</time></trkpt><trkpt lat="59.4540913682" lon="31.1006557569"><ele>75.60</ele><time>2026-09-01T16:25:33Z</time></trkpt><trkpt lat="59.4540867582" lon="31.1006617919"><ele>75.60</ele><time>2026-09-01T16:25:54Z</time></trkpt><trkpt lat="59.4541160110" lon="31.1006653123"><ele>76.56</ele><time>2026-09-01T16:26:16Z</time></trkpt><trkpt lat="59.4541199505" lon="31.1006593611"><ele>76.56</ele><time>2026-09-01T16:26:25Z</time></trkpt><trkpt lat="59.4541097246" lon="31.1006767116"><ele>75.60</ele><time>2026-09-01T16:26:35Z</time></trkpt><trkpt lat="59.4540920388" lon="31.1007031146"><ele>75.12</ele><time>2026-09-01T16:26:51Z</time></trkpt><trkpt lat="59.4540986605" lon="31.1006602831"><ele>75.12</ele><time>2026-09-01T16:27:14Z</time></trkpt><trkpt lat="59.4540742692" lon="31.1007145140"><ele>74.64</ele><time>2026-09-01T16:27:35Z</time></trkpt><trkpt lat="59.4540505484" lon="31.1007203814"><ele>75.12</ele><time>2026-09-01T16:27:54Z</time></trkpt><trkpt lat="59.4540885184" lon="31.1007684935"><ele>75.60</ele><time>2026-09-01T16:28:01Z</time></trkpt><trkpt lat="59.4541230518" lon="31.1007739417"><ele>75.12</ele><time>2026-09-01T16:28:07Z</time></trkpt><trkpt lat="59.4541575853" lon="31.1008342076"><ele>75.12</ele><time>2026-09-01T16:28:15Z</time></trkpt><trkpt lat="59.4541748520" lon="31.1008660588"><ele>75.12</ele><time>2026-09-01T16:28:26Z</time></trkpt><trkpt lat="59.4541913643" lon="31.1009255704"><ele>75.12</ele><time>2026-09-01T16:28:34Z</time></trkpt><trkpt lat="59.4541897718" lon="31.1009189487"><ele>75.12</ele><time>2026-09-01T16:28:43Z</time></trkpt><trkpt lat="59.4541714992" lon="31.1008529831"><ele>75.12</ele><time>2026-09-01T16:28:51Z</time></trkpt><trkpt lat="59.4541885983" lon="31.1009079684"><ele>75.12</ele><time>2026-09-01T16:29:00Z</time></trkpt><trkpt lat="59.4542082958" lon="31.1009024363"><ele>75.12</ele><time>2026-09-01T16:29:23Z</time></trkpt><trkpt lat="59.4541951362" lon="31.1009025201"><ele>74.64</ele><time>2026-09-01T16:29:35Z</time></trkpt><trkpt lat="59.4542087149" lon="31.1009275820"><ele>74.64</ele><time>2026-09-01T16:29:49Z</time></trkpt><trkpt lat="59.4542268198" lon="31.1010108981"><ele>74.16</ele><time>2026-09-01T16:29:56Z</time></trkpt><trkpt lat="59.4542586710" lon="31.1010979023"><ele>74.16</ele><time>2026-09-01T16:30:03Z</time></trkpt><trkpt lat="59.4542791229" lon="31.1011236347"><ele>74.64</ele><time>2026-09-01T16:30:10Z</time></trkpt><trkpt lat="59.4543132372" lon="31.1010574177"><ele>74.16</ele><time>2026-09-01T16:30:17Z</time></trkpt><trkpt lat="59.4543603435" lon="31.1009984091"><ele>74.16</ele><time>2026-09-01T16:30:25Z</time></trkpt><trkpt lat="59.4543752633" lon="31.1010755226"><ele>74.16</ele><time>2026-09-01T16:30:33Z</time></trkpt><trkpt lat="59.4543869141" lon="31.1011446733"><ele>74.16</ele><time>2026-09-01T16:30:41Z</time></trkpt><trkpt lat="59.4543937035" lon="31.1011756025"><ele>74.16</ele><time>2026-09-01T16:30:48Z</time></trkpt><trkpt lat="59.4543570746" lon="31.1012879200"><ele>73.68</ele><time>2026-09-01T16:30:56Z</time></trkpt><trkpt lat="59.4543585833" lon="31.1013401393"><ele>73.68</ele><time>2026-09-01T16:31:02Z</time></trkpt><trkpt lat="59.4543491956" lon="31.1014566477"><ele>73.68</ele><time>2026-09-01T16:31:10Z</time></trkpt><trkpt lat="59.4543605112" lon="31.1014528759"><ele>74.16</ele><time>2026-09-01T16:31:16Z</time></trkpt><trkpt lat="59.4543454237" lon="31.1015413050"><ele>73.68</ele><time>2026-09-01T16:31:21Z</time></trkpt><trkpt lat="59.4543467648" lon="31.1015886627"><ele>74.16</ele><time>2026-09-01T16:31:24Z</time></trkpt><trkpt lat="59.4543419871" lon="31.1017288081"><ele>73.68</ele><time>2026-09-01T16:31:33Z</time></trkpt><trkpt lat="59.4543887582" lon="31.1018074304"><ele>73.68</ele><time>2026-09-01T16:31:41Z</time></trkpt><trkpt lat="59.4544176757" lon="31.1018252838"><ele>73.68</ele><time>2026-09-01T16:31:45Z</time></trkpt><trkpt lat="59.4544445816" lon="31.1018290557"><ele>73.68</ele><time>2026-09-01T16:31:48Z</time></trkpt><trkpt lat="59.4544864073" lon="31.1019298900"><ele>73.68</ele><time>2026-09-01T16:31:56Z</time></trkpt><trkpt lat="59.4544912688" lon="31.1019710451"><ele>73.68</ele><time>2026-09-01T16:31:58Z</time></trkpt><trkpt lat="59.4545020815" lon="31.1020189896"><ele>73.68</ele><time>2026-09-01T16:32:01Z</time></trkpt><trkpt lat="59.4545242935" lon="31.1020500027"><ele>73.68</ele><time>2026-09-01T16:32:04Z</time></trkpt><trkpt lat="59.4545643590" lon="31.1021657567"><ele>73.68</ele><time>2026-09-01T16:32:12Z</time></trkpt><trkpt lat="59.4546232000" lon="31.1022372544"><ele>73.20</ele><time>2026-09-01T16:32:20Z</time></trkpt><trkpt lat="59.4546759222" lon="31.1023398489"><ele>73.20</ele><time>2026-09-01T16:32:28Z</time></trkpt><trkpt lat="59.4547170773" lon="31.1023339815"><ele>73.20</ele><time>2026-09-01T16:32:34Z</time></trkpt><trkpt lat="59.4547599927" lon="31.1022703629"><ele>73.20</ele><time>2026-09-01T16:32:39Z</time></trkpt><trkpt lat="59.4548014831" lon="31.1022871267"><ele>73.20</ele><time>2026-09-01T16:32:44Z</time></trkpt><trkpt lat="59.4548415486" lon="31.1023156252"><ele>72.72</ele><time>2026-09-01T16:32:51Z</time></trkpt><trkpt lat="59.4548893254" lon="31.1022809241"><ele>72.72</ele><time>2026-09-01T16:32:59Z</time></trkpt><trkpt lat="59.4549252838" lon="31.1022920720"><ele>72.72</ele><time>2026-09-01T16:33:06Z</time></trkpt><trkpt lat="59.4549455680" lon="31.1023047287"><ele>72.24</ele><time>2026-09-01T16:33:09Z</time></trkpt><trkpt lat="59.4549494237" lon="31.1024235841"><ele>72.72</ele><time>2026-09-01T16:33:17Z</time></trkpt><trkpt lat="59.4549593981" lon="31.1024893820"><ele>72.72</ele><time>2026-09-01T16:33:26Z</time></trkpt><trkpt lat="59.4549776707" lon="31.1025490612"><ele>72.72</ele><time>2026-09-01T16:33:33Z</time></trkpt><trkpt lat="59.4550018944" lon="31.1025734525"><ele>72.72</ele><time>2026-09-01T16:33:41Z</time></trkpt><trkpt lat="59.4550272916" lon="31.1026151944"><ele>72.72</ele><time>2026-09-01T16:33:47Z</time></trkpt><trkpt lat="59.4550455641" lon="31.1027384084"><ele>72.72</ele><time>2026-09-01T16:33:59Z</time></trkpt><trkpt lat="59.4550258666" lon="31.1028196290"><ele>72.24</ele><time>2026-09-01T16:34:07Z</time></trkpt><trkpt lat="59.4549983740" lon="31.1028589401"><ele>72.72</ele><time>2026-09-01T16:34:14Z</time></trkpt><trkpt lat="59.4550038222" lon="31.1028704233"><ele>72.72</ele><time>2026-09-01T16:34:19Z</time></trkpt><trkpt lat="59.4550051633" lon="31.1028977484"><ele>72.72</ele><time>2026-09-01T16:34:27Z</time></trkpt><trkpt lat="59.4550190773" lon="31.1029372271"><ele>72.24</ele><time>2026-09-01T16:34:33Z</time></trkpt><trkpt lat="59.4550262857" lon="31.1029773764"><ele>72.24</ele><time>2026-09-01T16:34:40Z</time></trkpt><trkpt lat="59.4550291356" lon="31.1029830761"><ele>72.24</ele><time>2026-09-01T16:34:43Z</time></trkpt><trkpt lat="59.4550478272" lon="31.1029769573"><ele>72.24</ele><time>2026-09-01T16:34:47Z</time></trkpt><trkpt lat="59.4550417922" lon="31.1030190345"><ele>71.76</ele><time>2026-09-01T16:34:53Z</time></trkpt><trkpt lat="59.4550391939" lon="31.1030311044"><ele>72.24</ele><time>2026-09-01T16:34:59Z</time></trkpt><trkpt lat="59.4550357573" lon="31.1030242313"><ele>71.27</ele><time>2026-09-01T16:35:05Z</time></trkpt><trkpt lat="59.4550120365" lon="31.1030379776"><ele>71.76</ele><time>2026-09-01T16:35:12Z</time></trkpt><trkpt lat="59.4549997151" lon="31.1030455213"><ele>71.76</ele><time>2026-09-01T16:35:19Z</time></trkpt><trkpt lat="59.4549972843" lon="31.1030171905"><ele>71.76</ele><time>2026-09-01T16:35:27Z</time></trkpt><trkpt lat="59.4549895730" lon="31.1030006781"><ele>71.76</ele><time>2026-09-01T16:35:34Z</time></trkpt><trkpt lat="59.4549914170" lon="31.1030185316"><ele>69.83</ele><time>2026-09-01T16:35:37Z</time></trkpt><trkpt lat="59.4549887348" lon="31.1030295119"><ele>71.76</ele><time>2026-09-01T16:35:39Z</time></trkpt><trkpt lat="59.4549752399" lon="31.1030696612"><ele>71.76</ele><time>2026-09-01T16:35:45Z</time></trkpt><trkpt lat="59.4549655169" lon="31.1030587647"><ele>71.76</ele><time>2026-09-01T16:35:54Z</time></trkpt><trkpt lat="59.4549582247" lon="31.1030675657"><ele>71.76</ele><time>2026-09-01T16:35:59Z</time></trkpt><trkpt lat="59.4549666066" lon="31.1031495407"><ele>71.27</ele><time>2026-09-01T16:36:07Z</time></trkpt><trkpt lat="59.4549244456" lon="31.1031325255"><ele>71.76</ele><time>2026-09-01T16:36:17Z</time></trkpt><trkpt lat="59.4549055863" lon="31.1030898616"><ele>71.76</ele><time>2026-09-01T16:36:23Z</time></trkpt><trkpt lat="59.4548804406" lon="31.1030662246"><ele>71.76</ele><time>2026-09-01T16:36:29Z</time></trkpt><trkpt lat="59.4548862241" lon="31.1031195335"><ele>71.27</ele><time>2026-09-01T16:36:40Z</time></trkpt><trkpt lat="59.4548979588" lon="31.1031141691"><ele>71.76</ele><time>2026-09-01T16:36:56Z</time></trkpt><trkpt lat="59.4548909180" lon="31.1031373870"><ele>71.76</ele><time>2026-09-01T16:37:07Z</time></trkpt><trkpt lat="59.4548825361" lon="31.1032389756"><ele>71.76</ele><time>2026-09-01T16:37:15Z</time></trkpt><trkpt lat="59.4548926782" lon="31.1032813042"><ele>71.27</ele><time>2026-09-01T16:37:20Z</time></trkpt><trkpt lat="59.4549198356" lon="31.1034077033"><ele>71.27</ele><time>2026-09-01T16:37:29Z</time></trkpt><trkpt lat="59.4549630862" lon="31.1034563184"><ele>71.27</ele><time>2026-09-01T16:37:36Z</time></trkpt><trkpt lat="59.4549940154" lon="31.1035102978"><ele>71.27</ele><time>2026-09-01T16:37:45Z</time></trkpt><trkpt lat="59.4550180715" lon="31.1035159975"><ele>70.79</ele><time>2026-09-01T16:37:52Z</time></trkpt><trkpt lat="59.4550023135" lon="31.1035325099"><ele>70.79</ele><time>2026-09-01T16:38:02Z</time></trkpt><trkpt lat="59.4550168142" lon="31.1035487708"><ele>71.27</ele><time>2026-09-01T16:38:23Z</time></trkpt><trkpt lat="59.4550311472" lon="31.1035457533"><ele>71.27</ele><time>2026-09-01T16:38:41Z</time></trkpt><trkpt lat="59.4550184906" lon="31.1035449151"><ele>70.31</ele><time>2026-09-01T16:38:54Z</time></trkpt><trkpt lat="59.4550148025" lon="31.1035581585"><ele>69.83</ele><time>2026-09-01T16:39:01Z</time></trkpt><trkpt lat="59.4550142996" lon="31.1035405565"><ele>70.31</ele><time>2026-09-01T16:39:10Z</time></trkpt><trkpt lat="59.4550122879" lon="31.1035185121"><ele>69.83</ele><time>2026-09-01T16:39:24Z</time></trkpt><trkpt lat="59.4549966138" lon="31.1036057677"><ele>69.83</ele><time>2026-09-01T16:39:32Z</time></trkpt><trkpt lat="59.4550115336" lon="31.1036313325"><ele>69.83</ele><time>2026-09-01T16:39:40Z</time></trkpt><trkpt lat="59.4550075103" lon="31.1037046742"><ele>70.79</ele><time>2026-09-01T16:39:49Z</time></trkpt><trkpt lat="59.4549604040" lon="31.1037888285"><ele>71.27</ele><time>2026-09-01T16:39:57Z</time></trkpt><trkpt lat="59.4549670257" lon="31.1039071810"><ele>70.79</ele><time>2026-09-01T16:40:05Z</time></trkpt><trkpt lat="59.4549700432" lon="31.1039775051"><ele>70.79</ele><time>2026-09-01T16:40:14Z</time></trkpt><trkpt lat="59.4549676962" lon="31.1040530261"><ele>70.79</ele><time>2026-09-01T16:40:21Z</time></trkpt><trkpt lat="59.4549671933" lon="31.1041421257"><ele>70.31</ele><time>2026-09-01T16:40:29Z</time></trkpt><trkpt lat="59.4550168980" lon="31.1042209994"><ele>70.79</ele><time>2026-09-01T16:40:37Z</time></trkpt><trkpt lat="59.4550463185" lon="31.1042955983"><ele>69.83</ele><time>2026-09-01T16:40:45Z</time></trkpt><trkpt lat="59.4550562929" lon="31.1043659225"><ele>70.31</ele><time>2026-09-01T16:40:52Z</time></trkpt><trkpt lat="59.4550576340" lon="31.1043983605"><ele>70.31</ele><time>2026-09-01T16:41:01Z</time></trkpt><trkpt lat="59.4550506771" lon="31.1044871248"><ele>70.79</ele><time>2026-09-01T16:41:12Z</time></trkpt><trkpt lat="59.4550713804" lon="31.1045832653"><ele>70.31</ele><time>2026-09-01T16:41:22Z</time></trkpt><trkpt lat="59.4550619926" lon="31.1046718620"><ele>69.83</ele><time>2026-09-01T16:41:31Z</time></trkpt><trkpt lat="59.4550724700" lon="31.1047230754"><ele>69.83</ele><time>2026-09-01T16:41:42Z</time></trkpt><trkpt lat="59.4550623279" lon="31.1048156116"><ele>70.31</ele><time>2026-09-01T16:41:50Z</time></trkpt><trkpt lat="59.4551090151" lon="31.1048344709"><ele>69.83</ele><time>2026-09-01T16:41:59Z</time></trkpt><trkpt lat="59.4551419560" lon="31.1048687529"><ele>69.83</ele><time>2026-09-01T16:42:08Z</time></trkpt><trkpt lat="59.4551631622" lon="31.1049230676"><ele>69.35</ele><time>2026-09-01T16:42:16Z</time></trkpt><trkpt lat="59.4551826920" lon="31.1049868539"><ele>69.83</ele><time>2026-09-01T16:42:28Z</time></trkpt><trkpt lat="59.4551648386" lon="31.1050476227"><ele>69.35</ele><time>2026-09-01T16:42:36Z</time></trkpt><trkpt lat="59.4551214203" lon="31.1051515583"><ele>69.35</ele><time>2026-09-01T16:42:47Z</time></trkpt><trkpt lat="59.4551105238" lon="31.1052497104"><ele>69.35</ele><time>2026-09-01T16:42:55Z</time></trkpt><trkpt lat="59.4550816063" lon="31.1053475272"><ele>69.35</ele><time>2026-09-01T16:43:04Z</time></trkpt><trkpt lat="59.4550717156" lon="31.1054373812"><ele>69.35</ele><time>2026-09-01T16:43:13Z</time></trkpt><trkpt lat="59.4550787564" lon="31.1055486929"><ele>69.35</ele><time>2026-09-01T16:43:23Z</time></trkpt><trkpt lat="59.4550865516" lon="31.1057007406"><ele>69.35</ele><time>2026-09-01T16:43:34Z</time></trkpt><trkpt lat="59.4550541136" lon="31.1058000661"><ele>69.35</ele><time>2026-09-01T16:43:43Z</time></trkpt><trkpt lat="59.4550268725" lon="31.1059288122"><ele>69.35</ele><time>2026-09-01T16:43:53Z</time></trkpt><trkpt lat="59.4549583923" lon="31.1061040778"><ele>69.83</ele><time>2026-09-01T16:44:03Z</time></trkpt><trkpt lat="59.4549526088" lon="31.1061510164"><ele>69.83</ele><time>2026-09-01T16:44:12Z</time></trkpt><trkpt lat="59.4549444783" lon="31.1061968654"><ele>69.83</ele><time>2026-09-01T16:44:23Z</time></trkpt><trkpt lat="59.4549428858" lon="31.1062155571"><ele>69.35</ele><time>2026-09-01T16:44:30Z</time></trkpt><trkpt lat="59.4549645949" lon="31.1062463187"><ele>68.87</ele><time>2026-09-01T16:44:41Z</time></trkpt><trkpt lat="59.4549932610" lon="31.1062272079"><ele>68.87</ele><time>2026-09-01T16:44:50Z</time></trkpt><trkpt lat="59.4549917523" lon="31.1061535310"><ele>69.35</ele><time>2026-09-01T16:45:03Z</time></trkpt><trkpt lat="59.4550353382" lon="31.1062132940"><ele>68.87</ele><time>2026-09-01T16:45:19Z</time></trkpt><trkpt lat="59.4550233521" lon="31.1062219273"><ele>68.87</ele><time>2026-09-01T16:45:33Z</time></trkpt><trkpt lat="59.4550567120" lon="31.1062129587"><ele>68.87</ele><time>2026-09-01T16:45:45Z</time></trkpt><trkpt lat="59.4550699554" lon="31.1062978674"><ele>69.35</ele><time>2026-09-01T16:45:57Z</time></trkpt><trkpt lat="59.4550707098" lon="31.1063396931"><ele>69.35</ele><time>2026-09-01T16:46:05Z</time></trkpt><trkpt lat="59.4550816901" lon="31.1062864680"><ele>68.87</ele><time>2026-09-01T16:46:15Z</time></trkpt><trkpt lat="59.4550847914" lon="31.1062549520"><ele>68.87</ele><time>2026-09-01T16:46:19Z</time></trkpt><trkpt lat="59.4550919160" lon="31.1061992124"><ele>68.87</ele><time>2026-09-01T16:46:26Z</time></trkpt><trkpt lat="59.4551350828" lon="31.1061833706"><ele>68.87</ele><time>2026-09-01T16:46:36Z</time></trkpt><trkpt lat="59.4552090950" lon="31.1061993800"><ele>68.39</ele><time>2026-09-01T16:46:49Z</time></trkpt><trkpt lat="59.4552267808" lon="31.1062268727"><ele>68.87</ele><time>2026-09-01T16:47:00Z</time></trkpt><trkpt lat="59.4552538544" lon="31.1062306445"><ele>68.39</ele><time>2026-09-01T16:47:07Z</time></trkpt><trkpt lat="59.4552611466" lon="31.1062279623"><ele>67.43</ele><time>2026-09-01T16:47:08Z</time></trkpt><trkpt lat="59.4553130306" lon="31.1062359251"><ele>67.91</ele><time>2026-09-01T16:47:16Z</time></trkpt><trkpt lat="59.4553168863" lon="31.1062303092"><ele>68.39</ele><time>2026-09-01T16:47:18Z</time></trkpt><trkpt lat="59.4553610589" lon="31.1062034871"><ele>67.91</ele><time>2026-09-01T16:47:26Z</time></trkpt><trkpt lat="59.4554183073" lon="31.1062185746"><ele>68.39</ele><time>2026-09-01T16:47:36Z</time></trkpt><trkpt lat="59.4554845244" lon="31.1062089354"><ele>67.91</ele><time>2026-09-01T16:47:45Z</time></trkpt><trkpt lat="59.4554936606" lon="31.1062049959"><ele>66.95</ele><time>2026-09-01T16:47:46Z</time></trkpt><trkpt lat="59.4555801619" lon="31.1061879806"><ele>67.91</ele><time>2026-09-01T16:47:55Z</time></trkpt><trkpt lat="59.4556472171" lon="31.1061455682"><ele>67.91</ele><time>2026-09-01T16:48:05Z</time></trkpt><trkpt lat="59.4556735363" lon="31.1060322449"><ele>67.43</ele><time>2026-09-01T16:48:15Z</time></trkpt><trkpt lat="59.4557486381" lon="31.1059413850"><ele>67.91</ele><time>2026-09-01T16:48:25Z</time></trkpt><trkpt lat="59.4558218960" lon="31.1058569793"><ele>68.39</ele><time>2026-09-01T16:48:36Z</time></trkpt><trkpt lat="59.4558183756" lon="31.1057754233"><ele>68.39</ele><time>2026-09-01T16:48:44Z</time></trkpt><trkpt lat="59.4558267575" lon="31.1057497747"><ele>66.47</ele><time>2026-09-01T16:48:48Z</time></trkpt><trkpt lat="59.4558281824" lon="31.1057422310"><ele>70.79</ele><time>2026-09-01T16:48:49Z</time></trkpt><trkpt lat="59.4558291044" lon="31.1057263892"><ele>67.91</ele><time>2026-09-01T16:48:51Z</time></trkpt><trkpt lat="59.4559068047" lon="31.1054641195"><ele>67.91</ele><time>2026-09-01T16:49:06Z</time></trkpt><trkpt lat="59.4559387397" lon="31.1054545641"><ele>67.91</ele><time>2026-09-01T16:49:17Z</time></trkpt><trkpt lat="59.4560326170" lon="31.1054056976"><ele>67.91</ele><time>2026-09-01T16:49:27Z</time></trkpt><trkpt lat="59.4560860097" lon="31.1053605191"><ele>67.43</ele><time>2026-09-01T16:49:40Z</time></trkpt><trkpt lat="59.4560684916" lon="31.1053327750"><ele>67.43</ele><time>2026-09-01T16:49:56Z</time></trkpt><trkpt lat="59.4560000114" lon="31.1053196993"><ele>67.43</ele><time>2026-09-01T16:50:09Z</time></trkpt><trkpt lat="59.4560545776" lon="31.1053186096"><ele>66.95</ele><time>2026-09-01T16:50:22Z</time></trkpt><trkpt lat="59.4561605249" lon="31.1053815577"><ele>67.43</ele><time>2026-09-01T16:50:34Z</time></trkpt><trkpt lat="59.4562682323" lon="31.1053964775"><ele>67.43</ele><time>2026-09-01T16:50:46Z</time></trkpt><trkpt lat="59.4563279953" lon="31.1053356249"><ele>66.95</ele><time>2026-09-01T16:50:57Z</time></trkpt><trkpt lat="59.4562899414" lon="31.1052369699"><ele>66.95</ele><time>2026-09-01T16:51:10Z</time></trkpt><trkpt lat="59.4563212059" lon="31.1052418314"><ele>66.47</ele><time>2026-09-01T16:51:21Z</time></trkpt><trkpt lat="59.4563665520" lon="31.1052383948"><ele>65.03</ele><time>2026-09-01T16:51:35Z</time></trkpt><trkpt lat="59.4564000797" lon="31.1052228883"><ele>66.95</ele><time>2026-09-01T16:51:47Z</time></trkpt><trkpt lat="59.4564267341" lon="31.1052003410"><ele>67.43</ele><time>2026-09-01T16:51:56Z</time></trkpt><trkpt lat="59.4564719126" lon="31.1051217187"><ele>66.95</ele><time>2026-09-01T16:52:07Z</time></trkpt><trkpt lat="59.4565580785" lon="31.1050564237"><ele>66.95</ele><time>2026-09-01T16:52:17Z</time></trkpt><trkpt lat="59.4566210266" lon="31.1049778853"><ele>66.47</ele><time>2026-09-01T16:52:29Z</time></trkpt><trkpt lat="59.4566003233" lon="31.1049178708"><ele>66.47</ele><time>2026-09-01T16:52:40Z</time></trkpt><trkpt lat="59.4565906003" lon="31.1047999375"><ele>66.95</ele><time>2026-09-01T16:52:52Z</time></trkpt><trkpt lat="59.4566465914" lon="31.1047033779"><ele>66.95</ele><time>2026-09-01T16:53:01Z</time></trkpt><trkpt lat="59.4566925243" lon="31.1045787390"><ele>66.47</ele><time>2026-09-01T16:53:12Z</time></trkpt><trkpt lat="59.4567709789" lon="31.1044711992"><ele>67.43</ele><time>2026-09-01T16:53:21Z</time></trkpt><trkpt lat="59.4568267185" lon="31.1045125220"><ele>66.95</ele><time>2026-09-01T16:53:33Z</time></trkpt><trkpt lat="59.4568567257" lon="31.1045763921"><ele>66.95</ele><time>2026-09-01T16:53:46Z</time></trkpt><trkpt lat="59.4569117110" lon="31.1045364104"><ele>66.95</ele><time>2026-09-01T16:53:55Z</time></trkpt><trkpt lat="59.4569783472" lon="31.1044993624"><ele>66.95</ele><time>2026-09-01T16:54:03Z</time></trkpt><trkpt lat="59.4569941889" lon="31.1045148689"><ele>66.95</ele><time>2026-09-01T16:54:11Z</time></trkpt><trkpt lat="59.4570146408" lon="31.1045276932"><ele>66.47</ele><time>2026-09-01T16:54:23Z</time></trkpt><trkpt lat="59.4570356794" lon="31.1045035534"><ele>66.47</ele><time>2026-09-01T16:54:30Z</time></trkpt><trkpt lat="59.4570632558" lon="31.1044693552"><ele>66.47</ele><time>2026-09-01T16:54:39Z</time></trkpt><trkpt lat="59.4571125414" lon="31.1044085864"><ele>66.47</ele><time>2026-09-01T16:54:48Z</time></trkpt><trkpt lat="59.4571655151" lon="31.1044168007"><ele>66.47</ele><time>2026-09-01T16:54:58Z</time></trkpt><trkpt lat="59.4572066702" lon="31.1044573691"><ele>66.47</ele><time>2026-09-01T16:55:05Z</time></trkpt><trkpt lat="59.4572754018" lon="31.1044510826"><ele>66.47</ele><time>2026-09-01T16:55:15Z</time></trkpt><trkpt lat="59.4573200773" lon="31.1045077443"><ele>66.95</ele><time>2026-09-01T16:55:22Z</time></trkpt><trkpt lat="59.4573899824" lon="31.1045709439"><ele>65.99</ele><time>2026-09-01T16:55:30Z</time></trkpt><trkpt lat="59.4574410282" lon="31.1046500690"><ele>65.99</ele><time>2026-09-01T16:55:40Z</time></trkpt><trkpt lat="59.4574743882" lon="31.1046747956"><ele>65.99</ele><time>2026-09-01T16:55:47Z</time></trkpt><trkpt lat="59.4574884698" lon="31.1046980973"><ele>65.99</ele><time>2026-09-01T16:56:00Z</time></trkpt><trkpt lat="59.4574734662" lon="31.1047436111"><ele>65.99</ele><time>2026-09-01T16:56:16Z</time></trkpt><trkpt lat="59.4574530143" lon="31.1048187129"><ele>65.99</ele><time>2026-09-01T16:56:23Z</time></trkpt><trkpt lat="59.4574245159" lon="31.1048859358"><ele>65.99</ele><time>2026-09-01T16:56:31Z</time></trkpt><trkpt lat="59.4574260246" lon="31.1049998458"><ele>65.99</ele><time>2026-09-01T16:56:43Z</time></trkpt><trkpt lat="59.4574256893" lon="31.1050949804"><ele>65.99</ele><time>2026-09-01T16:56:51Z</time></trkpt><trkpt lat="59.4574450515" lon="31.1051561683"><ele>65.99</ele><time>2026-09-01T16:56:58Z</time></trkpt><trkpt lat="59.4574967679" lon="31.1052109022"><ele>65.51</ele><time>2026-09-01T16:57:07Z</time></trkpt><trkpt lat="59.4575117715" lon="31.1053053662"><ele>65.51</ele><time>2026-09-01T16:57:14Z</time></trkpt><trkpt lat="59.4575401861" lon="31.1053865030"><ele>65.51</ele><time>2026-09-01T16:57:21Z</time></trkpt><trkpt lat="59.4575730432" lon="31.1054335255"><ele>65.51</ele><time>2026-09-01T16:57:29Z</time></trkpt><trkpt lat="59.4575930759" lon="31.1054831464"><ele>65.03</ele><time>2026-09-01T16:57:37Z</time></trkpt><trkpt lat="59.4575584587" lon="31.1054836493"><ele>65.51</ele><time>2026-09-01T16:57:48Z</time></trkpt><trkpt lat="59.4575412758" lon="31.1054972280"><ele>65.51</ele><time>2026-09-01T16:58:00Z</time></trkpt><trkpt lat="59.4575306308" lon="31.1055678874"><ele>65.03</ele><time>2026-09-01T16:58:11Z</time></trkpt><trkpt lat="59.4575272780" lon="31.1056418158"><ele>65.03</ele><time>2026-09-01T16:58:20Z</time></trkpt><trkpt lat="59.4574957620" lon="31.1056951247"><ele>64.55</ele><time>2026-09-01T16:58:28Z</time></trkpt><trkpt lat="59.4574844465" lon="31.1056077853"><ele>65.03</ele><time>2026-09-01T16:58:35Z</time></trkpt><trkpt lat="59.4574453030" lon="31.1055460945"><ele>65.51</ele><time>2026-09-01T16:58:42Z</time></trkpt><trkpt lat="59.4573963527" lon="31.1056177597"><ele>65.03</ele><time>2026-09-01T16:58:50Z</time></trkpt><trkpt lat="59.4573601428" lon="31.1056746729"><ele>64.07</ele><time>2026-09-01T16:58:58Z</time></trkpt><trkpt lat="59.4573221728" lon="31.1057008244"><ele>64.07</ele><time>2026-09-01T16:59:04Z</time></trkpt><trkpt lat="59.4572605658" lon="31.1058035865"><ele>64.55</ele><time>2026-09-01T16:59:13Z</time></trkpt><trkpt lat="59.4572361745" lon="31.1058332585"><ele>64.55</ele><time>2026-09-01T16:59:20Z</time></trkpt><trkpt lat="59.4572373480" lon="31.1058517825"><ele>65.03</ele><time>2026-09-01T16:59:31Z</time></trkpt><trkpt lat="59.4572302233" lon="31.1058395449"><ele>65.03</ele><time>2026-09-01T16:59:38Z</time></trkpt><trkpt lat="59.4572721329" lon="31.1058707256"><ele>64.55</ele><time>2026-09-01T16:59:57Z</time></trkpt><trkpt lat="59.4572800118" lon="31.1058110464"><ele>64.55</ele><time>2026-09-01T17:00:16Z</time></trkpt><trkpt lat="59.4572816044" lon="31.1058127228"><ele>64.07</ele><time>2026-09-01T17:00:35Z</time></trkpt><trkpt lat="59.4572579674" lon="31.1057802849"><ele>63.58</ele><time>2026-09-01T17:00:51Z</time></trkpt><trkpt lat="59.4572847895" lon="31.1058651935"><ele>63.58</ele><time>2026-09-01T17:01:07Z</time></trkpt><trkpt lat="59.4572942611" lon="31.1059368588"><ele>62.62</ele><time>2026-09-01T17:01:16Z</time></trkpt><trkpt lat="59.4572957698" lon="31.1060144752"><ele>62.14</ele><time>2026-09-01T17:01:23Z</time></trkpt><trkpt lat="59.4572681095" lon="31.1060218513"><ele>61.18</ele><time>2026-09-01T17:01:31Z</time></trkpt><trkpt lat="59.4572468195" lon="31.1060261261"><ele>61.66</ele><time>2026-09-01T17:01:40Z</time></trkpt><trkpt lat="59.4572593085" lon="31.1060438957"><ele>62.62</ele><time>2026-09-01T17:01:48Z</time></trkpt><trkpt lat="59.4572715461" lon="31.1060897447"><ele>62.62</ele><time>2026-09-01T17:01:55Z</time></trkpt><trkpt lat="59.4572628289" lon="31.1061610747"><ele>63.10</ele><time>2026-09-01T17:02:03Z</time></trkpt><trkpt lat="59.4572377671" lon="31.1062412895"><ele>63.10</ele><time>2026-09-01T17:02:12Z</time></trkpt><trkpt lat="59.4572303910" lon="31.1062249448"><ele>63.10</ele><time>2026-09-01T17:02:19Z</time></trkpt><trkpt lat="59.4572563749" lon="31.1062926706"><ele>63.10</ele><time>2026-09-01T17:02:26Z</time></trkpt><trkpt lat="59.4572520163" lon="31.1064051557"><ele>63.10</ele><time>2026-09-01T17:02:33Z</time></trkpt><trkpt lat="59.4572518487" lon="31.1064332351"><ele>63.58</ele><time>2026-09-01T17:02:41Z</time></trkpt><trkpt lat="59.4572222605" lon="31.1064313911"><ele>62.14</ele><time>2026-09-01T17:02:46Z</time></trkpt><trkpt lat="59.4572477415" lon="31.1064408626"><ele>62.14</ele><time>2026-09-01T17:02:55Z</time></trkpt><trkpt lat="59.4572890643" lon="31.1064068321"><ele>61.66</ele><time>2026-09-01T17:03:00Z</time></trkpt><trkpt lat="59.4573101867" lon="31.1064149626"><ele>61.66</ele><time>2026-09-01T17:03:04Z</time></trkpt><trkpt lat="59.4573154673" lon="31.1064483225"><ele>62.14</ele><time>2026-09-01T17:03:15Z</time></trkpt><trkpt lat="59.4573256932" lon="31.1064705346"><ele>62.14</ele><time>2026-09-01T17:03:19Z</time></trkpt><trkpt lat="59.4573309738" lon="31.1065250169"><ele>61.66</ele><time>2026-09-01T17:03:23Z</time></trkpt><trkpt lat="59.4573341589" lon="31.1065456364"><ele>61.66</ele><time>2026-09-01T17:03:25Z</time></trkpt><trkpt lat="59.4573428761" lon="31.1065743025"><ele>60.70</ele><time>2026-09-01T17:03:27Z</time></trkpt><trkpt lat="59.4573163893" lon="31.1066482309"><ele>61.66</ele><time>2026-09-01T17:03:33Z</time></trkpt><trkpt lat="59.4573057443" lon="31.1066652462"><ele>61.66</ele><time>2026-09-01T17:03:35Z</time></trkpt><trkpt lat="59.4572984520" lon="31.1066926550"><ele>61.66</ele><time>2026-09-01T17:03:40Z</time></trkpt><trkpt lat="59.4573218375" lon="31.1066965107"><ele>61.66</ele><time>2026-09-01T17:03:57Z</time></trkpt><trkpt lat="59.4573215023" lon="31.1067100056"><ele>61.66</ele><time>2026-09-01T17:04:12Z</time></trkpt><trkpt lat="59.4573389366" lon="31.1067575309"><ele>61.18</ele><time>2026-09-01T17:04:17Z</time></trkpt><trkpt lat="59.4573564548" lon="31.1067647394"><ele>60.70</ele><time>2026-09-01T17:04:19Z</time></trkpt><trkpt lat="59.4573679380" lon="31.1067806650"><ele>61.18</ele><time>2026-09-01T17:04:21Z</time></trkpt><trkpt lat="59.4573790021" lon="31.1068691779"><ele>61.18</ele><time>2026-09-01T17:04:26Z</time></trkpt><trkpt lat="59.4574131165" lon="31.1069355626"><ele>61.66</ele><time>2026-09-01T17:04:33Z</time></trkpt><trkpt lat="59.4574386813" lon="31.1069572717"><ele>61.66</ele><time>2026-09-01T17:04:38Z</time></trkpt><trkpt lat="59.4574473985" lon="31.1069879495"><ele>61.18</ele><time>2026-09-01T17:04:40Z</time></trkpt><trkpt lat="59.4574892242" lon="31.1070359778"><ele>61.18</ele><time>2026-09-01T17:04:47Z</time></trkpt><trkpt lat="59.4574891403" lon="31.1071057152"><ele>61.18</ele><time>2026-09-01T17:04:50Z</time></trkpt><trkpt lat="59.4575010426" lon="31.1071457807"><ele>61.66</ele><time>2026-09-01T17:04:52Z</time></trkpt><trkpt lat="59.4575118553" lon="31.1071829125"><ele>61.66</ele><time>2026-09-01T17:04:55Z</time></trkpt><trkpt lat="59.4575033896" lon="31.1072277557"><ele>61.66</ele><time>2026-09-01T17:04:58Z</time></trkpt><trkpt lat="59.4575122744" lon="31.1073133349"><ele>61.18</ele><time>2026-09-01T17:05:03Z</time></trkpt><trkpt lat="59.4575429522" lon="31.1073963996"><ele>60.70</ele><time>2026-09-01T17:05:10Z</time></trkpt><trkpt lat="59.4575532619" lon="31.1074047815"><ele>60.70</ele><time>2026-09-01T17:05:12Z</time></trkpt><trkpt lat="59.4575727917" lon="31.1074143369"><ele>60.22</ele><time>2026-09-01T17:05:15Z</time></trkpt><trkpt lat="59.4575842749" lon="31.1074793804"><ele>61.18</ele><time>2026-09-01T17:05:21Z</time></trkpt><trkpt lat="59.4576043077" lon="31.1075264029"><ele>60.22</ele><time>2026-09-01T17:05:30Z</time></trkpt><trkpt lat="59.4576152880" lon="31.1075445078"><ele>60.70</ele><time>2026-09-01T17:05:32Z</time></trkpt><trkpt lat="59.4576221611" lon="31.1076061986"><ele>61.18</ele><time>2026-09-01T17:05:38Z</time></trkpt><trkpt lat="59.4576385897" lon="31.1076762713"><ele>61.18</ele><time>2026-09-01T17:05:44Z</time></trkpt><trkpt lat="59.4576302078" lon="31.1077586655"><ele>60.22</ele><time>2026-09-01T17:05:51Z</time></trkpt><trkpt lat="59.4576254301" lon="31.1077705678"><ele>60.22</ele><time>2026-09-01T17:05:57Z</time></trkpt><trkpt lat="59.4576419424" lon="31.1077400576"><ele>61.18</ele><time>2026-09-01T17:06:03Z</time></trkpt><trkpt lat="59.4576633163" lon="31.1077704839"><ele>60.70</ele><time>2026-09-01T17:06:09Z</time></trkpt><trkpt lat="59.4576738775" lon="31.1077884212"><ele>60.22</ele><time>2026-09-01T17:06:25Z</time></trkpt><trkpt lat="59.4577063993" lon="31.1078320071"><ele>60.70</ele><time>2026-09-01T17:06:31Z</time></trkpt><trkpt lat="59.4577094167" lon="31.1078425683"><ele>60.22</ele><time>2026-09-01T17:06:32Z</time></trkpt><trkpt lat="59.4577084947" lon="31.1078978051"><ele>59.26</ele><time>2026-09-01T17:06:39Z</time></trkpt><trkpt lat="59.4577105064" lon="31.1079173349"><ele>60.70</ele><time>2026-09-01T17:06:42Z</time></trkpt><trkpt lat="59.4577092491" lon="31.1079761758"><ele>60.70</ele><time>2026-09-01T17:06:47Z</time></trkpt><trkpt lat="59.4577112608" lon="31.1080017406"><ele>59.26</ele><time>2026-09-01T17:06:49Z</time></trkpt><trkpt lat="59.4577199779" lon="31.1080279760"><ele>59.74</ele><time>2026-09-01T17:06:56Z</time></trkpt><trkpt lat="59.4577301200" lon="31.1080283951"><ele>60.70</ele><time>2026-09-01T17:07:09Z</time></trkpt><trkpt lat="59.4577313773" lon="31.1080241203"><ele>60.22</ele><time>2026-09-01T17:07:20Z</time></trkpt><trkpt lat="59.4577087462" lon="31.1080185045"><ele>60.70</ele><time>2026-09-01T17:07:32Z</time></trkpt><trkpt lat="59.4577150326" lon="31.1080215219"><ele>60.22</ele><time>2026-09-01T17:07:44Z</time></trkpt><trkpt lat="59.4576679263" lon="31.1080293171"><ele>59.74</ele><time>2026-09-01T17:07:53Z</time></trkpt><trkpt lat="59.4575994462" lon="31.1080230307"><ele>60.22</ele><time>2026-09-01T17:08:05Z</time></trkpt><trkpt lat="59.4575666729" lon="31.1080027465"><ele>61.18</ele><time>2026-09-01T17:08:12Z</time></trkpt><trkpt lat="59.4575314689" lon="31.1079844739"><ele>58.78</ele><time>2026-09-01T17:08:21Z</time></trkpt><trkpt lat="59.4575017970" lon="31.1079954542"><ele>59.74</ele><time>2026-09-01T17:08:30Z</time></trkpt><trkpt lat="59.4574836083" lon="31.1080099549"><ele>59.74</ele><time>2026-09-01T17:08:38Z</time></trkpt><trkpt lat="59.4574838597" lon="31.1080264673"><ele>59.74</ele><time>2026-09-01T17:08:45Z</time></trkpt><trkpt lat="59.4574378431" lon="31.1080789380"><ele>60.22</ele><time>2026-09-01T17:08:53Z</time></trkpt><trkpt lat="59.4573931675" lon="31.1080772616"><ele>59.26</ele><time>2026-09-01T17:09:00Z</time></trkpt><trkpt lat="59.4573782478" lon="31.1081563868"><ele>58.78</ele><time>2026-09-01T17:09:06Z</time></trkpt><trkpt lat="59.4573701173" lon="31.1082029901"><ele>60.70</ele><time>2026-09-01T17:09:11Z</time></trkpt><trkpt lat="59.4573541917" lon="31.1082697101"><ele>59.74</ele><time>2026-09-01T17:09:16Z</time></trkpt><trkpt lat="59.4573422894" lon="31.1083660182"><ele>59.74</ele><time>2026-09-01T17:09:22Z</time></trkpt><trkpt lat="59.4573302194" lon="31.1084775813"><ele>59.26</ele><time>2026-09-01T17:09:29Z</time></trkpt><trkpt lat="59.4573251065" lon="31.1085717101"><ele>59.74</ele><time>2026-09-01T17:09:35Z</time></trkpt><trkpt lat="59.4573229272" lon="31.1086245161"><ele>59.26</ele><time>2026-09-01T17:09:38Z</time></trkpt><trkpt lat="59.4573208317" lon="31.1086628214"><ele>59.74</ele><time>2026-09-01T17:09:41Z</time></trkpt><trkpt lat="59.4573141262" lon="31.1087391805"><ele>60.70</ele><time>2026-09-01T17:09:45Z</time></trkpt><trkpt lat="59.4573218375" lon="31.1087776534"><ele>59.74</ele><time>2026-09-01T17:09:47Z</time></trkpt><trkpt lat="59.4573405292" lon="31.1088818405"><ele>59.26</ele><time>2026-09-01T17:09:54Z</time></trkpt><trkpt lat="59.4573433790" lon="31.1088966765"><ele>59.26</ele><time>2026-09-01T17:09:55Z</time></trkpt><trkpt lat="59.4573456421" lon="31.1089058127"><ele>60.22</ele><time>2026-09-01T17:09:56Z</time></trkpt><trkpt lat="59.4573526829" lon="31.1089452077"><ele>60.22</ele><time>2026-09-01T17:09:59Z</time></trkpt><trkpt lat="59.4573616516" lon="31.1090397555"><ele>59.26</ele><time>2026-09-01T17:10:04Z</time></trkpt><trkpt lat="59.4573618192" lon="31.1091275141"><ele>59.26</ele><time>2026-09-01T17:10:08Z</time></trkpt><trkpt lat="59.4573817682" lon="31.1091705970"><ele>59.26</ele><time>2026-09-01T17:10:14Z</time></trkpt><trkpt lat="59.4574126974" lon="31.1092059687"><ele>59.26</ele><time>2026-09-01T17:10:20Z</time></trkpt><trkpt lat="59.4574261922" lon="31.1092150211"><ele>58.78</ele><time>2026-09-01T17:10:27Z</time></trkpt><trkpt lat="59.4574259408" lon="31.1092928890"><ele>58.78</ele><time>2026-09-01T17:10:32Z</time></trkpt><trkpt lat="59.4574198220" lon="31.1093451921"><ele>58.78</ele><time>2026-09-01T17:10:38Z</time></trkpt><trkpt lat="59.4574200734" lon="31.1093663983"><ele>59.74</ele><time>2026-09-01T17:10:43Z</time></trkpt><trkpt lat="59.4573900662" lon="31.1094571743"><ele>60.22</ele><time>2026-09-01T17:10:49Z</time></trkpt><trkpt lat="59.4573800080" lon="31.1095337011"><ele>59.74</ele><time>2026-09-01T17:10:55Z</time></trkpt><trkpt lat="59.4573909044" lon="31.1095698271"><ele>58.78</ele><time>2026-09-01T17:11:01Z</time></trkpt><trkpt lat="59.4574052375" lon="31.1096310988"><ele>59.26</ele><time>2026-09-01T17:11:06Z</time></trkpt><trkpt lat="59.4574132841" lon="31.1096658837"><ele>60.22</ele><time>2026-09-01T17:11:12Z</time></trkpt><trkpt lat="59.4574240968" lon="31.1096953042"><ele>59.74</ele><time>2026-09-01T17:11:20Z</time></trkpt><trkpt lat="59.4574255217" lon="31.1097494513"><ele>59.26</ele><time>2026-09-01T17:11:28Z</time></trkpt><trkpt lat="59.4574244320" lon="31.1097685620"><ele>59.74</ele><time>2026-09-01T17:11:33Z</time></trkpt><trkpt lat="59.4574373402" lon="31.1098012514"><ele>60.22</ele><time>2026-09-01T17:11:39Z</time></trkpt><trkpt lat="59.4574494939" lon="31.1098414008"><ele>59.26</ele><time>2026-09-01T17:11:43Z</time></trkpt><trkpt lat="59.4574669283" lon="31.1099077016"><ele>59.26</ele><time>2026-09-01T17:11:50Z</time></trkpt><trkpt lat="59.4574591331" lon="31.1099031754"><ele>59.74</ele><time>2026-09-01T17:12:00Z</time></trkpt><trkpt lat="59.4574630726" lon="31.1098864954"><ele>59.74</ele><time>2026-09-01T17:12:09Z</time></trkpt><trkpt lat="59.4574732985" lon="31.1098940391"><ele>60.70</ele><time>2026-09-01T17:12:11Z</time></trkpt><trkpt lat="59.4574899785" lon="31.1099100485"><ele>59.26</ele><time>2026-09-01T17:12:13Z</time></trkpt><trkpt lat="59.4575495739" lon="31.1099360324"><ele>60.22</ele><time>2026-09-01T17:12:18Z</time></trkpt><trkpt lat="59.4575646613" lon="31.1099506170"><ele>59.74</ele><time>2026-09-01T17:12:20Z</time></trkpt><trkpt lat="59.4575825986" lon="31.1099573225"><ele>59.74</ele><time>2026-09-01T17:12:22Z</time></trkpt><trkpt lat="59.4576015417" lon="31.1099803727"><ele>59.26</ele><time>2026-09-01T17:12:25Z</time></trkpt><trkpt lat="59.4576198142" lon="31.1100239586"><ele>59.74</ele><time>2026-09-01T17:12:28Z</time></trkpt><trkpt lat="59.4576227479" lon="31.1101128906"><ele>59.26</ele><time>2026-09-01T17:12:33Z</time></trkpt><trkpt lat="59.4576030504" lon="31.1102320813"><ele>59.74</ele><time>2026-09-01T17:12:41Z</time></trkpt><trkpt lat="59.4576247595" lon="31.1102610826"><ele>59.74</ele><time>2026-09-01T17:12:49Z</time></trkpt><trkpt lat="59.4576447923" lon="31.1102473363"><ele>60.22</ele><time>2026-09-01T17:12:51Z</time></trkpt><trkpt lat="59.4576954190" lon="31.1103210133"><ele>60.22</ele><time>2026-09-01T17:12:58Z</time></trkpt><trkpt lat="59.4577136915" lon="31.1104033235"><ele>60.70</ele><time>2026-09-01T17:13:05Z</time></trkpt><trkpt lat="59.4577162899" lon="31.1105281301"><ele>59.26</ele><time>2026-09-01T17:13:11Z</time></trkpt><trkpt lat="59.4577342272" lon="31.1105723027"><ele>59.26</ele><time>2026-09-01T17:13:15Z</time></trkpt><trkpt lat="59.4577489793" lon="31.1106035672"><ele>59.26</ele><time>2026-09-01T17:13:22Z</time></trkpt><trkpt lat="59.4577573612" lon="31.1106119491"><ele>59.26</ele><time>2026-09-01T17:13:37Z</time></trkpt><trkpt lat="59.4577763882" lon="31.1106557027"><ele>59.26</ele><time>2026-09-01T17:13:42Z</time></trkpt><trkpt lat="59.4578012824" lon="31.1107496638"><ele>59.26</ele><time>2026-09-01T17:13:49Z</time></trkpt><trkpt lat="59.4578195550" lon="31.1107790843"><ele>59.26</ele><time>2026-09-01T17:13:52Z</time></trkpt><trkpt lat="59.4578251708" lon="31.1107985303"><ele>59.26</ele><time>2026-09-01T17:13:59Z</time></trkpt><trkpt lat="59.4578271825" lon="31.1108002067"><ele>58.78</ele><time>2026-09-01T17:14:01Z</time></trkpt><trkpt lat="59.4578820840" lon="31.1108560301"><ele>59.26</ele><time>2026-09-01T17:14:07Z</time></trkpt><trkpt lat="59.4579249155" lon="31.1108894739"><ele>59.26</ele><time>2026-09-01T17:14:11Z</time></trkpt><trkpt lat="59.4579618797" lon="31.1109645758"><ele>59.26</ele><time>2026-09-01T17:14:15Z</time></trkpt><trkpt lat="59.4579830021" lon="31.1111082416"><ele>58.78</ele><time>2026-09-01T17:14:21Z</time></trkpt><trkpt lat="59.4579948206" lon="31.1111653224"><ele>58.78</ele><time>2026-09-01T17:14:25Z</time></trkpt><trkpt lat="59.4580307789" lon="31.1112149432"><ele>58.78</ele><time>2026-09-01T17:14:31Z</time></trkpt><trkpt lat="59.4580407534" lon="31.1112545058"><ele>58.78</ele><time>2026-09-01T17:14:34Z</time></trkpt><trkpt lat="59.4580607023" lon="31.1113077309"><ele>58.78</ele><time>2026-09-01T17:14:38Z</time></trkpt><trkpt lat="59.4580969121" lon="31.1113902926"><ele>58.78</ele><time>2026-09-01T17:14:44Z</time></trkpt><trkpt lat="59.4581103232" lon="31.1114729382"><ele>58.78</ele><time>2026-09-01T17:14:50Z</time></trkpt><trkpt lat="59.4581456948" lon="31.1114761233"><ele>58.78</ele><time>2026-09-01T17:14:57Z</time></trkpt><trkpt lat="59.4581900351" lon="31.1115295161"><ele>58.30</ele><time>2026-09-01T17:15:04Z</time></trkpt><trkpt lat="59.4582306035" lon="31.1115840822"><ele>58.30</ele><time>2026-09-01T17:15:11Z</time></trkpt><trkpt lat="59.4582670648" lon="31.1116693262"><ele>58.30</ele><time>2026-09-01T17:15:18Z</time></trkpt><trkpt lat="59.4582891092" lon="31.1117070448"><ele>58.30</ele><time>2026-09-01T17:15:22Z</time></trkpt><trkpt lat="59.4583420828" lon="31.1117927916"><ele>58.78</ele><time>2026-09-01T17:15:29Z</time></trkpt><trkpt lat="59.4583831541" lon="31.1118778680"><ele>57.82</ele><time>2026-09-01T17:15:34Z</time></trkpt><trkpt lat="59.4583983254" lon="31.1119781993"><ele>58.30</ele><time>2026-09-01T17:15:40Z</time></trkpt><trkpt lat="59.4584032707" lon="31.1120324302"><ele>58.30</ele><time>2026-09-01T17:15:43Z</time></trkpt><trkpt lat="59.4584124908" lon="31.1120986473"><ele>58.30</ele><time>2026-09-01T17:15:47Z</time></trkpt><trkpt lat="59.4584218785" lon="31.1122049298"><ele>58.78</ele><time>2026-09-01T17:15:54Z</time></trkpt><trkpt lat="59.4584309310" lon="31.1123029143"><ele>58.78</ele><time>2026-09-01T17:16:00Z</time></trkpt><trkpt lat="59.4584405702" lon="31.1123534571"><ele>58.78</ele><time>2026-09-01T17:16:02Z</time></trkpt><trkpt lat="59.4584430009" lon="31.1124833766"><ele>59.26</ele><time>2026-09-01T17:16:10Z</time></trkpt><trkpt lat="59.4584527239" lon="31.1125818640"><ele>58.30</ele><time>2026-09-01T17:16:17Z</time></trkpt><trkpt lat="59.4584528916" lon="31.1125677824"><ele>58.30</ele><time>2026-09-01T17:16:28Z</time></trkpt><trkpt lat="59.4584713317" lon="31.1126014777"><ele>58.30</ele><time>2026-09-01T17:16:43Z</time></trkpt><trkpt lat="59.4584984891" lon="31.1127070058"><ele>57.82</ele><time>2026-09-01T17:16:50Z</time></trkpt><trkpt lat="59.4585054461" lon="31.1128075048"><ele>58.30</ele><time>2026-09-01T17:16:55Z</time></trkpt><trkpt lat="59.4585164264" lon="31.1128877196"><ele>58.30</ele><time>2026-09-01T17:17:00Z</time></trkpt><trkpt lat="59.4585274905" lon="31.1129834410"><ele>57.82</ele><time>2026-09-01T17:17:05Z</time></trkpt><trkpt lat="59.4585423265" lon="31.1130458023"><ele>57.82</ele><time>2026-09-01T17:17:09Z</time></trkpt><trkpt lat="59.4585413206" lon="31.1130974349"><ele>57.82</ele><time>2026-09-01T17:17:12Z</time></trkpt><trkpt lat="59.4585477747" lon="31.1131472234"><ele>58.30</ele><time>2026-09-01T17:17:15Z</time></trkpt><trkpt lat="59.4585586712" lon="31.1132119317"><ele>58.30</ele><time>2026-09-01T17:17:19Z</time></trkpt><trkpt lat="59.4585788716" lon="31.1133084912"><ele>58.30</ele><time>2026-09-01T17:17:25Z</time></trkpt><trkpt lat="59.4585876726" lon="31.1134379916"><ele>57.82</ele><time>2026-09-01T17:17:31Z</time></trkpt><trkpt lat="59.4585917797" lon="31.1135553382"><ele>58.78</ele><time>2026-09-01T17:17:37Z</time></trkpt><trkpt lat="59.4585875049" lon="31.1135958228"><ele>58.30</ele><time>2026-09-01T17:17:39Z</time></trkpt><trkpt lat="59.4585839845" lon="31.1137508880"><ele>58.78</ele><time>2026-09-01T17:17:47Z</time></trkpt><trkpt lat="59.4585951325" lon="31.1137979943"><ele>58.78</ele><time>2026-09-01T17:17:50Z</time></trkpt><trkpt lat="59.4586019218" lon="31.1138956435"><ele>58.78</ele><time>2026-09-01T17:17:57Z</time></trkpt><trkpt lat="59.4585953001" lon="31.1140322685"><ele>58.30</ele><time>2026-09-01T17:18:05Z</time></trkpt><trkpt lat="59.4586059451" lon="31.1141395569"><ele>58.30</ele><time>2026-09-01T17:18:13Z</time></trkpt><trkpt lat="59.4586064480" lon="31.1141403113"><ele>57.82</ele><time>2026-09-01T17:18:26Z</time></trkpt><trkpt lat="59.4586138241" lon="31.1142243817"><ele>57.82</ele><time>2026-09-01T17:18:36Z</time></trkpt><trkpt lat="59.4586300850" lon="31.1143455841"><ele>57.82</ele><time>2026-09-01T17:18:44Z</time></trkpt><trkpt lat="59.4586509559" lon="31.1144366954"><ele>57.34</ele><time>2026-09-01T17:18:50Z</time></trkpt><trkpt lat="59.4586545601" lon="31.1144639365"><ele>57.82</ele><time>2026-09-01T17:18:52Z</time></trkpt><trkpt lat="59.4586613495" lon="31.1144781858"><ele>57.82</ele><time>2026-09-01T17:18:54Z</time></trkpt><trkpt lat="59.4586726651" lon="31.1145107076"><ele>57.34</ele><time>2026-09-01T17:19:01Z</time></trkpt><trkpt lat="59.4586889260" lon="31.1146159843"><ele>57.34</ele><time>2026-09-01T17:19:07Z</time></trkpt><trkpt lat="59.4586911891" lon="31.1146265455"><ele>57.34</ele><time>2026-09-01T17:19:08Z</time></trkpt><trkpt lat="59.4587265607" lon="31.1146982107"><ele>56.86</ele><time>2026-09-01T17:19:14Z</time></trkpt><trkpt lat="59.4587361999" lon="31.1148058344"><ele>57.34</ele><time>2026-09-01T17:19:20Z</time></trkpt><trkpt lat="59.4587522093" lon="31.1148813553"><ele>57.34</ele><time>2026-09-01T17:19:25Z</time></trkpt><trkpt lat="59.4587783609" lon="31.1149716284"><ele>57.34</ele><time>2026-09-01T17:19:31Z</time></trkpt><trkpt lat="59.4587859046" lon="31.1150377616"><ele>57.34</ele><time>2026-09-01T17:19:35Z</time></trkpt><trkpt lat="59.4587535504" lon="31.1151298787"><ele>57.34</ele><time>2026-09-01T17:19:42Z</time></trkpt><trkpt lat="59.4587282371" lon="31.1152041424"><ele>57.34</ele><time>2026-09-01T17:19:49Z</time></trkpt><trkpt lat="59.4587236270" lon="31.1152329762"><ele>56.86</ele><time>2026-09-01T17:19:52Z</time></trkpt><trkpt lat="59.4587273989" lon="31.1153110955"><ele>56.86</ele><time>2026-09-01T17:19:58Z</time></trkpt><trkpt lat="59.4587178435" lon="31.1153639015"><ele>57.34</ele><time>2026-09-01T17:20:04Z</time></trkpt><trkpt lat="59.4587087072" lon="31.1154151987"><ele>56.86</ele><time>2026-09-01T17:20:09Z</time></trkpt><trkpt lat="59.4587220345" lon="31.1154409312"><ele>56.86</ele><time>2026-09-01T17:20:13Z</time></trkpt><trkpt lat="59.4587272312" lon="31.1154749617"><ele>56.37</ele><time>2026-09-01T17:20:15Z</time></trkpt><trkpt lat="59.4587237108" lon="31.1155164521"><ele>56.37</ele><time>2026-09-01T17:20:22Z</time></trkpt><trkpt lat="59.4587102998" lon="31.1155721080"><ele>56.86</ele><time>2026-09-01T17:20:26Z</time></trkpt><trkpt lat="59.4587023370" lon="31.1156110000"><ele>56.86</ele><time>2026-09-01T17:20:32Z</time></trkpt><trkpt lat="59.4586901832" lon="31.1156888679"><ele>57.34</ele><time>2026-09-01T17:20:39Z</time></trkpt><trkpt lat="59.4586771075" lon="31.1157139298"><ele>56.86</ele><time>2026-09-01T17:20:42Z</time></trkpt><trkpt lat="59.4586578291" lon="31.1157353874"><ele>56.86</ele><time>2026-09-01T17:20:45Z</time></trkpt><trkpt lat="59.4586691447" lon="31.1158272531"><ele>56.86</ele><time>2026-09-01T17:20:51Z</time></trkpt><trkpt lat="59.4586697314" lon="31.1158717610"><ele>56.86</ele><time>2026-09-01T17:20:54Z</time></trkpt><trkpt lat="59.4586702343" lon="31.1159803066"><ele>57.34</ele><time>2026-09-01T17:21:00Z</time></trkpt><trkpt lat="59.4586773589" lon="31.1160565820"><ele>57.34</ele><time>2026-09-01T17:21:04Z</time></trkpt><trkpt lat="59.4586869981" lon="31.1161486153"><ele>57.34</ele><time>2026-09-01T17:21:09Z</time></trkpt><trkpt lat="59.4586920273" lon="31.1162787024"><ele>56.86</ele><time>2026-09-01T17:21:15Z</time></trkpt><trkpt lat="59.4586952124" lon="31.1163919419"><ele>57.34</ele><time>2026-09-01T17:21:21Z</time></trkpt><trkpt lat="59.4587007444" lon="31.1164991464"><ele>56.86</ele><time>2026-09-01T17:21:27Z</time></trkpt><trkpt lat="59.4587025885" lon="31.1165114678"><ele>56.86</ele><time>2026-09-01T17:21:28Z</time></trkpt><trkpt lat="59.4587160833" lon="31.1165580712"><ele>57.34</ele><time>2026-09-01T17:21:31Z</time></trkpt><trkpt lat="59.4587214477" lon="31.1166023277"><ele>56.86</ele><time>2026-09-01T17:21:34Z</time></trkpt><trkpt lat="59.4587444980" lon="31.1166951992"><ele>56.37</ele><time>2026-09-01T17:21:41Z</time></trkpt><trkpt lat="59.4587602559" lon="31.1168024875"><ele>56.37</ele><time>2026-09-01T17:21:47Z</time></trkpt><trkpt lat="59.4587693084" lon="31.1168828700"><ele>56.37</ele><time>2026-09-01T17:21:52Z</time></trkpt><trkpt lat="59.4587794505" lon="31.1170006357"><ele>56.86</ele><time>2026-09-01T17:21:59Z</time></trkpt><trkpt lat="59.4587816298" lon="31.1170195788"><ele>56.86</ele><time>2026-09-01T17:22:00Z</time></trkpt><trkpt lat="59.4587814622" lon="31.1170717143"><ele>56.37</ele><time>2026-09-01T17:22:03Z</time></trkpt><trkpt lat="59.4587900117" lon="31.1171246041"><ele>56.37</ele><time>2026-09-01T17:22:06Z</time></trkpt><trkpt lat="59.4588035904" lon="31.1171600595"><ele>56.86</ele><time>2026-09-01T17:22:09Z</time></trkpt><trkpt lat="59.4588056859" lon="31.1172460578"><ele>57.34</ele><time>2026-09-01T17:22:13Z</time></trkpt><trkpt lat="59.4588163309" lon="31.1172916554"><ele>56.86</ele><time>2026-09-01T17:22:16Z</time></trkpt><trkpt lat="59.4588412251" lon="31.1173293740"><ele>56.37</ele><time>2026-09-01T17:22:20Z</time></trkpt><trkpt lat="59.4588508643" lon="31.1174516659"><ele>56.86</ele><time>2026-09-01T17:22:26Z</time></trkpt><trkpt lat="59.4588554744" lon="31.1175302882"><ele>56.37</ele><time>2026-09-01T17:22:31Z</time></trkpt><trkpt lat="59.4588590786" lon="31.1175811663"><ele>56.86</ele><time>2026-09-01T17:22:34Z</time></trkpt><trkpt lat="59.4588774350" lon="31.1177190486"><ele>56.86</ele><time>2026-09-01T17:22:41Z</time></trkpt><trkpt lat="59.4588864036" lon="31.1178274266"><ele>56.86</ele><time>2026-09-01T17:22:46Z</time></trkpt><trkpt lat="59.4588887505" lon="31.1179235671"><ele>56.86</ele><time>2026-09-01T17:22:51Z</time></trkpt><trkpt lat="59.4588880800" lon="31.1179379839"><ele>56.37</ele><time>2026-09-01T17:22:52Z</time></trkpt><trkpt lat="59.4589047600" lon="31.1180814821"><ele>56.86</ele><time>2026-09-01T17:22:59Z</time></trkpt><trkpt lat="59.4589170814" lon="31.1181676481"><ele>56.86</ele><time>2026-09-01T17:23:06Z</time></trkpt><trkpt lat="59.4589244574" lon="31.1181527283"><ele>56.37</ele><time>2026-09-01T17:23:19Z</time></trkpt><trkpt lat="59.4589342643" lon="31.1182043608"><ele>56.37</ele><time>2026-09-01T17:23:36Z</time></trkpt><trkpt lat="59.4589273911" lon="31.1182405706"><ele>56.37</ele><time>2026-09-01T17:23:38Z</time></trkpt><trkpt lat="59.4589241222" lon="31.1182812229"><ele>56.37</ele><time>2026-09-01T17:23:42Z</time></trkpt><trkpt lat="59.4589341804" lon="31.1183704901"><ele>56.37</ele><time>2026-09-01T17:23:48Z</time></trkpt><trkpt lat="59.4589477591" lon="31.1184750125"><ele>56.37</ele><time>2026-09-01T17:23:55Z</time></trkpt><trkpt lat="59.4589605834" lon="31.1185584962"><ele>56.37</ele><time>2026-09-01T17:24:00Z</time></trkpt><trkpt lat="59.4589636009" lon="31.1185678001"><ele>56.37</ele><time>2026-09-01T17:24:01Z</time></trkpt><trkpt lat="59.4589782692" lon="31.1186639406"><ele>56.86</ele><time>2026-09-01T17:24:08Z</time></trkpt><trkpt lat="59.4589807000" lon="31.1186903436"><ele>55.89</ele><time>2026-09-01T17:24:11Z</time></trkpt><trkpt lat="59.4589960389" lon="31.1187532917"><ele>56.37</ele><time>2026-09-01T17:24:15Z</time></trkpt><trkpt lat="59.4589982182" lon="31.1188786849"><ele>57.34</ele><time>2026-09-01T17:24:22Z</time></trkpt><trkpt lat="59.4590025768" lon="31.1189335864"><ele>56.86</ele><time>2026-09-01T17:24:25Z</time></trkpt><trkpt lat="59.4590124674" lon="31.1189687066"><ele>56.86</ele><time>2026-09-01T17:24:27Z</time></trkpt><trkpt lat="59.4589854777" lon="31.1191201676"><ele>56.86</ele><time>2026-09-01T17:24:36Z</time></trkpt><trkpt lat="59.4589813706" lon="31.1192227621"><ele>56.86</ele><time>2026-09-01T17:24:41Z</time></trkpt><trkpt lat="59.4590139762" lon="31.1194023024"><ele>56.86</ele><time>2026-09-01T17:24:50Z</time></trkpt><trkpt lat="59.4590428937" lon="31.1195165478"><ele>56.86</ele><time>2026-09-01T17:24:57Z</time></trkpt><trkpt lat="59.4590721466" lon="31.1196412705"><ele>56.86</ele><time>2026-09-01T17:25:04Z</time></trkpt><trkpt lat="59.4590969570" lon="31.1197831761"><ele>56.37</ele><time>2026-09-01T17:25:14Z</time></trkpt><trkpt lat="59.4590969570" lon="31.1198143568"><ele>56.37</ele><time>2026-09-01T17:25:16Z</time></trkpt><trkpt lat="59.4591180794" lon="31.1199184600"><ele>55.89</ele><time>2026-09-01T17:25:23Z</time></trkpt><trkpt lat="59.4591268804" lon="31.1200252455"><ele>56.37</ele><time>2026-09-01T17:25:30Z</time></trkpt><trkpt lat="59.4591459073" lon="31.1201003473"><ele>56.37</ele><time>2026-09-01T17:25:36Z</time></trkpt><trkpt lat="59.4591672812" lon="31.1201861780"><ele>56.37</ele><time>2026-09-01T17:25:42Z</time></trkpt><trkpt lat="59.4591677841" lon="31.1202219687"><ele>56.37</ele><time>2026-09-01T17:25:44Z</time></trkpt><trkpt lat="59.4591754116" lon="31.1203431711"><ele>56.37</ele><time>2026-09-01T17:25:51Z</time></trkpt><trkpt lat="59.4591861404" lon="31.1204073764"><ele>56.37</ele><time>2026-09-01T17:25:55Z</time></trkpt><trkpt lat="59.4592002220" lon="31.1204528902"><ele>55.89</ele><time>2026-09-01T17:25:59Z</time></trkpt><trkpt lat="59.4592089392" lon="31.1205361225"><ele>55.89</ele><time>2026-09-01T17:26:05Z</time></trkpt><trkpt lat="59.4591986295" lon="31.1205954663"><ele>55.89</ele><time>2026-09-01T17:26:08Z</time></trkpt><trkpt lat="59.4592043292" lon="31.1206500325"><ele>55.89</ele><time>2026-09-01T17:26:11Z</time></trkpt><trkpt lat="59.4592075143" lon="31.1207191832"><ele>56.37</ele><time>2026-09-01T17:26:15Z</time></trkpt><trkpt lat="59.4592332467" lon="31.1208480969"><ele>55.89</ele><time>2026-09-01T17:26:22Z</time></trkpt><trkpt lat="59.4592437241" lon="31.1209589895"><ele>55.89</ele><time>2026-09-01T17:26:28Z</time></trkpt><trkpt lat="59.4592953566" lon="31.1210677866"><ele>56.37</ele><time>2026-09-01T17:26:35Z</time></trkpt><trkpt lat="59.4593390264" lon="31.1211536173"><ele>56.37</ele><time>2026-09-01T17:26:42Z</time></trkpt><trkpt lat="59.4593555387" lon="31.1211712193"><ele>56.37</ele><time>2026-09-01T17:26:44Z</time></trkpt><trkpt lat="59.4594251085" lon="31.1211850494"><ele>56.37</ele><time>2026-09-01T17:26:51Z</time></trkpt><trkpt lat="59.4594661798" lon="31.1212357599"><ele>55.89</ele><time>2026-09-01T17:26:58Z</time></trkpt><trkpt lat="59.4594971929" lon="31.1213448923"><ele>55.41</ele><time>2026-09-01T17:27:05Z</time></trkpt><trkpt lat="59.4595163036" lon="31.1215422023"><ele>55.89</ele><time>2026-09-01T17:27:14Z</time></trkpt><trkpt lat="59.4595548604" lon="31.1216568667"><ele>56.37</ele><time>2026-09-01T17:27:21Z</time></trkpt><trkpt lat="59.4595991168" lon="31.1218161229"><ele>56.37</ele><time>2026-09-01T17:27:30Z</time></trkpt><trkpt lat="59.4596335664" lon="31.1218825914"><ele>54.93</ele><time>2026-09-01T17:27:39Z</time></trkpt><trkpt lat="59.4596332312" lon="31.1218503211"><ele>54.93</ele><time>2026-09-01T17:27:57Z</time></trkpt><trkpt lat="59.4596365001" lon="31.1218098365"><ele>54.93</ele><time>2026-09-01T17:28:18Z</time></trkpt><trkpt lat="59.4596056547" lon="31.1218001135"><ele>54.93</ele><time>2026-09-01T17:28:34Z</time></trkpt><trkpt lat="59.4596078340" lon="31.1218127701"><ele>54.93</ele><time>2026-09-01T17:28:53Z</time></trkpt><trkpt lat="59.4596214965" lon="31.1218675040"><ele>55.89</ele><time>2026-09-01T17:29:10Z</time></trkpt><trkpt lat="59.4596481510" lon="31.1219179630"><ele>55.41</ele><time>2026-09-01T17:29:19Z</time></trkpt><trkpt lat="59.4596717041" lon="31.1219545081"><ele>55.89</ele><time>2026-09-01T17:29:30Z</time></trkpt><trkpt lat="59.4596545212" lon="31.1219024565"><ele>55.89</ele><time>2026-09-01T17:29:38Z</time></trkpt><trkpt lat="59.4596578740" lon="31.1219365709"><ele>55.41</ele><time>2026-09-01T17:29:50Z</time></trkpt><trkpt lat="59.4596844446" lon="31.1220039614"><ele>55.41</ele><time>2026-09-01T17:29:59Z</time></trkpt><trkpt lat="59.4597005378" lon="31.1220560968"><ele>55.41</ele><time>2026-09-01T17:30:06Z</time></trkpt><trkpt lat="59.4597375020" lon="31.1221325397"><ele>55.41</ele><time>2026-09-01T17:30:14Z</time></trkpt><trkpt lat="59.4597523380" lon="31.1221570149"><ele>55.41</ele><time>2026-09-01T17:30:24Z</time></trkpt><trkpt lat="59.4597583730" lon="31.1222150177"><ele>55.89</ele><time>2026-09-01T17:30:31Z</time></trkpt><trkpt lat="59.4597588759" lon="31.1222874373"><ele>55.89</ele><time>2026-09-01T17:30:38Z</time></trkpt><trkpt lat="59.4598374143" lon="31.1223627906"><ele>55.41</ele><time>2026-09-01T17:30:49Z</time></trkpt><trkpt lat="59.4598577823" lon="31.1224522255"><ele>55.89</ele><time>2026-09-01T17:30:57Z</time></trkpt><trkpt lat="59.4598855264" lon="31.1225264892"><ele>55.41</ele><time>2026-09-01T17:31:06Z</time></trkpt><trkpt lat="59.4599043857" lon="31.1225596815"><ele>55.89</ele><time>2026-09-01T17:31:14Z</time></trkpt><trkpt lat="59.4598878734" lon="31.1225912813"><ele>55.41</ele><time>2026-09-01T17:31:20Z</time></trkpt><trkpt lat="59.4599194732" lon="31.1226233002"><ele>55.41</ele><time>2026-09-01T17:31:26Z</time></trkpt><trkpt lat="59.4599667471" lon="31.1226561572"><ele>56.37</ele><time>2026-09-01T17:31:33Z</time></trkpt><trkpt lat="59.4599986821" lon="31.1227139924"><ele>55.41</ele><time>2026-09-01T17:31:41Z</time></trkpt><trkpt lat="59.4600291923" lon="31.1227925308"><ele>55.89</ele><time>2026-09-01T17:31:50Z</time></trkpt><trkpt lat="59.4600489736" lon="31.1228487734"><ele>56.37</ele><time>2026-09-01T17:32:08Z</time></trkpt><trkpt lat="59.4600627199" lon="31.1228334345"><ele>56.37</ele><time>2026-09-01T17:32:25Z</time></trkpt><trkpt lat="59.4600742869" lon="31.1228429060"><ele>56.37</ele><time>2026-09-01T17:32:38Z</time></trkpt><trkpt lat="59.4601003546" lon="31.1229813751"><ele>56.37</ele><time>2026-09-01T17:32:48Z</time></trkpt><trkpt lat="59.4601226505" lon="31.1230651103"><ele>56.37</ele><time>2026-09-01T17:32:55Z</time></trkpt><trkpt lat="59.4601535797" lon="31.1230973806"><ele>55.89</ele><time>2026-09-01T17:33:02Z</time></trkpt><trkpt lat="59.4601569325" lon="31.1230926029"><ele>56.86</ele><time>2026-09-01T17:33:20Z</time></trkpt><trkpt lat="59.4601618778" lon="31.1231453251"><ele>56.37</ele><time>2026-09-01T17:33:37Z</time></trkpt><trkpt lat="59.4602053799" lon="31.1232377775"><ele>57.34</ele><time>2026-09-01T17:33:45Z</time></trkpt><trkpt lat="59.4602112472" lon="31.1232826207"><ele>57.34</ele><time>2026-09-01T17:33:53Z</time></trkpt><trkpt lat="59.4602370635" lon="31.1233214289"><ele>57.34</ele><time>2026-09-01T17:34:03Z</time></trkpt><trkpt lat="59.4602593593" lon="31.1232356820"><ele>57.34</ele><time>2026-09-01T17:34:14Z</time></trkpt><trkpt lat="59.4602916297" lon="31.1232828721"><ele>56.86</ele><time>2026-09-01T17:34:27Z</time></trkpt><trkpt lat="59.4603101537" lon="31.1233770847"><ele>57.34</ele><time>2026-09-01T17:34:35Z</time></trkpt><trkpt lat="59.4603235647" lon="31.1234146357"><ele>57.34</ele><time>2026-09-01T17:34:43Z</time></trkpt><trkpt lat="59.4603403285" lon="31.1234525219"><ele>57.34</ele><time>2026-09-01T17:34:55Z</time></trkpt><trkpt lat="59.4603834115" lon="31.1234926712"><ele>57.34</ele><time>2026-09-01T17:35:06Z</time></trkpt><trkpt lat="59.4603679050" lon="31.1234991252"><ele>57.34</ele><time>2026-09-01T17:35:14Z</time></trkpt><trkpt lat="59.4603965711" lon="31.1235607322"><ele>57.34</ele><time>2026-09-01T17:35:22Z</time></trkpt><trkpt lat="59.4604004268" lon="31.1235942598"><ele>56.86</ele><time>2026-09-01T17:35:29Z</time></trkpt><trkpt lat="59.4604176935" lon="31.1235282943"><ele>57.34</ele><time>2026-09-01T17:35:43Z</time></trkpt><trkpt lat="59.4604169391" lon="31.1234992929"><ele>57.34</ele><time>2026-09-01T17:36:00Z</time></trkpt><trkpt lat="59.4604762830" lon="31.1236903165"><ele>57.34</ele><time>2026-09-01T17:36:09Z</time></trkpt><trkpt lat="59.4605566654" lon="31.1238289531"><ele>57.34</ele><time>2026-09-01T17:36:18Z</time></trkpt><trkpt lat="59.4606217090" lon="31.1239021271"><ele>57.34</ele><time>2026-09-01T17:36:27Z</time></trkpt><trkpt lat="59.4606512133" lon="31.1239804141"><ele>57.82</ele><time>2026-09-01T17:36:35Z</time></trkpt><trkpt lat="59.4606881775" lon="31.1241077352"><ele>57.82</ele><time>2026-09-01T17:36:45Z</time></trkpt><trkpt lat="59.4607767742" lon="31.1243049614"><ele>57.82</ele><time>2026-09-01T17:36:56Z</time></trkpt><trkpt lat="59.4607973099" lon="31.1243396625"><ele>57.82</ele><time>2026-09-01T17:37:04Z</time></trkpt><trkpt lat="59.4608185161" lon="31.1244343780"><ele>57.34</ele><time>2026-09-01T17:37:11Z</time></trkpt><trkpt lat="59.4608474337" lon="31.1245458573"><ele>57.34</ele><time>2026-09-01T17:37:19Z</time></trkpt><trkpt lat="59.4608664606" lon="31.1246353760"><ele>57.34</ele><time>2026-09-01T17:37:27Z</time></trkpt><trkpt lat="59.4608929474" lon="31.1247386411"><ele>57.34</ele><time>2026-09-01T17:37:35Z</time></trkpt><trkpt lat="59.4608988147" lon="31.1247626133"><ele>57.34</ele><time>2026-09-01T17:37:41Z</time></trkpt><trkpt lat="59.4609152433" lon="31.1248243041"><ele>57.82</ele><time>2026-09-01T17:37:49Z</time></trkpt><trkpt lat="59.4609307498" lon="31.1247979011"><ele>57.34</ele><time>2026-09-01T17:37:58Z</time></trkpt><trkpt lat="59.4609459210" lon="31.1247756053"><ele>57.34</ele><time>2026-09-01T17:38:09Z</time></trkpt><trkpt lat="59.4609336834" lon="31.1247802153"><ele>57.82</ele><time>2026-09-01T17:38:22Z</time></trkpt><trkpt lat="59.4609516207" lon="31.1248861626"><ele>57.34</ele><time>2026-09-01T17:38:30Z</time></trkpt><trkpt lat="59.4609687198" lon="31.1249801237"><ele>57.34</ele><time>2026-09-01T17:38:37Z</time></trkpt><trkpt lat="59.4609973021" lon="31.1250298284"><ele>57.34</ele><time>2026-09-01T17:38:44Z</time></trkpt><trkpt lat="59.4610234536" lon="31.1250249669"><ele>55.89</ele><time>2026-09-01T17:38:54Z</time></trkpt><trkpt lat="59.4610548019" lon="31.1249901820"><ele>56.86</ele><time>2026-09-01T17:39:05Z</time></trkpt><trkpt lat="59.4610586576" lon="31.1250515375"><ele>57.34</ele><time>2026-09-01T17:39:22Z</time></trkpt><trkpt lat="59.4610938616" lon="31.1250867415"><ele>56.86</ele><time>2026-09-01T17:39:30Z</time></trkpt><trkpt lat="59.4611093681" lon="31.1250673793"><ele>56.86</ele><time>2026-09-01T17:39:38Z</time></trkpt><trkpt lat="59.4611517806" lon="31.1250272300"><ele>56.86</ele><time>2026-09-01T17:39:47Z</time></trkpt><trkpt lat="59.4612013176" lon="31.1250657029"><ele>56.86</ele><time>2026-09-01T17:39:55Z</time></trkpt><trkpt lat="59.4612352643" lon="31.1250481848"><ele>57.34</ele><time>2026-09-01T17:40:04Z</time></trkpt><trkpt lat="59.4612698816" lon="31.1250753421"><ele>56.86</ele><time>2026-09-01T17:40:12Z</time></trkpt><trkpt lat="59.4612999726" lon="31.1250681337"><ele>57.34</ele><time>2026-09-01T17:40:20Z</time></trkpt><trkpt lat="59.4613177422" lon="31.1250707321"><ele>57.34</ele><time>2026-09-01T17:40:26Z</time></trkpt><trkpt lat="59.4613578916" lon="31.1251098756"><ele>56.86</ele><time>2026-09-01T17:40:33Z</time></trkpt><trkpt lat="59.4613990467" lon="31.1250720732"><ele>57.34</ele><time>2026-09-01T17:40:40Z</time></trkpt><trkpt lat="59.4614350889" lon="31.1250856519"><ele>57.34</ele><time>2026-09-01T17:40:47Z</time></trkpt><trkpt lat="59.4614917506" lon="31.1251692194"><ele>56.86</ele><time>2026-09-01T17:40:56Z</time></trkpt><trkpt lat="59.4615342468" lon="31.1252451595"><ele>57.34</ele><time>2026-09-01T17:41:04Z</time></trkpt><trkpt lat="59.4616317283" lon="31.1252077762"><ele>57.82</ele><time>2026-09-01T17:41:13Z</time></trkpt><trkpt lat="59.4616551138" lon="31.1252098717"><ele>57.82</ele><time>2026-09-01T17:41:23Z</time></trkpt><trkpt lat="59.4617229234" lon="31.1252066866"><ele>57.82</ele><time>2026-09-01T17:41:44Z</time></trkpt><trkpt lat="59.4617212471" lon="31.1251200177"><ele>57.82</ele><time>2026-09-01T17:41:51Z</time></trkpt><trkpt lat="59.4617080037" lon="31.1250845622"><ele>57.34</ele><time>2026-09-01T17:42:01Z</time></trkpt><trkpt lat="59.4617454708" lon="31.1251431517"><ele>57.34</ele><time>2026-09-01T17:42:09Z</time></trkpt><trkpt lat="59.4617998693" lon="31.1251644418"><ele>57.82</ele><time>2026-09-01T17:42:17Z</time></trkpt><trkpt lat="59.4617825188" lon="31.1252700537"><ele>57.82</ele><time>2026-09-01T17:42:24Z</time></trkpt><trkpt lat="59.4618064910" lon="31.1252802797"><ele>57.34</ele><time>2026-09-01T17:42:32Z</time></trkpt><trkpt lat="59.4618181419" lon="31.1253016535"><ele>57.34</ele><time>2026-09-01T17:42:42Z</time></trkpt><trkpt lat="59.4618504960" lon="31.1252437346"><ele>57.34</ele><time>2026-09-01T17:42:53Z</time></trkpt><trkpt lat="59.4619064871" lon="31.1251517013"><ele>57.34</ele><time>2026-09-01T17:43:04Z</time></trkpt><trkpt lat="59.4619818404" lon="31.1250242963"><ele>57.34</ele><time>2026-09-01T17:43:15Z</time></trkpt><trkpt lat="59.4620327186" lon="31.1250396352"><ele>57.34</ele><time>2026-09-01T17:43:24Z</time></trkpt><trkpt lat="59.4620977622" lon="31.1251312494"><ele>57.82</ele><time>2026-09-01T17:43:35Z</time></trkpt><trkpt lat="59.4620929845" lon="31.1251345184"><ele>57.82</ele><time>2026-09-01T17:43:45Z</time></trkpt><trkpt lat="59.4621209800" lon="31.1250711512"><ele>57.34</ele><time>2026-09-01T17:43:55Z</time></trkpt><trkpt lat="59.4621799886" lon="31.1251557246"><ele>57.34</ele><time>2026-09-01T17:44:08Z</time></trkpt><trkpt lat="59.4622216467" lon="31.1251926050"><ele>57.34</ele><time>2026-09-01T17:44:19Z</time></trkpt><trkpt lat="59.4622747879" lon="31.1251498573"><ele>57.34</ele><time>2026-09-01T17:44:36Z</time></trkpt><trkpt lat="59.4623623788" lon="31.1252599955"><ele>56.86</ele><time>2026-09-01T17:44:47Z</time></trkpt><trkpt lat="59.4624047074" lon="31.1253435630"><ele>57.34</ele><time>2026-09-01T17:44:56Z</time></trkpt><trkpt lat="59.4624120835" lon="31.1253034137"><ele>57.34</ele><time>2026-09-01T17:45:12Z</time></trkpt><trkpt lat="59.4624147657" lon="31.1251227837"><ele>56.86</ele><time>2026-09-01T17:45:29Z</time></trkpt><trkpt lat="59.4624337927" lon="31.1251703091"><ele>56.86</ele><time>2026-09-01T17:45:42Z</time></trkpt><trkpt lat="59.4624387380" lon="31.1252047587"><ele>57.34</ele><time>2026-09-01T17:45:49Z</time></trkpt><trkpt lat="59.4624966569" lon="31.1252735741"><ele>57.34</ele><time>2026-09-01T17:45:58Z</time></trkpt><trkpt lat="59.4625555817" lon="31.1252729036"><ele>57.34</ele><time>2026-09-01T17:46:06Z</time></trkpt><trkpt lat="59.4626107346" lon="31.1252860632"><ele>57.82</ele><time>2026-09-01T17:46:16Z</time></trkpt><trkpt lat="59.4626325276" lon="31.1252732389"><ele>56.86</ele><time>2026-09-01T17:46:28Z</time></trkpt><trkpt lat="59.4626623672" lon="31.1252918467"><ele>57.82</ele><time>2026-09-01T17:46:40Z</time></trkpt><trkpt lat="59.4627083838" lon="31.1253086105"><ele>57.82</ele><time>2026-09-01T17:46:50Z</time></trkpt><trkpt lat="59.4627237227" lon="31.1252064351"><ele>57.82</ele><time>2026-09-01T17:47:01Z</time></trkpt><trkpt lat="59.4627932087" lon="31.1251391284"><ele>57.34</ele><time>2026-09-01T17:47:13Z</time></trkpt><trkpt lat="59.4629054423" lon="31.1251242086"><ele>57.34</ele><time>2026-09-01T17:47:26Z</time></trkpt><trkpt lat="59.4629735034" lon="31.1251026671"><ele>57.82</ele><time>2026-09-01T17:47:36Z</time></trkpt><trkpt lat="59.4630584959" lon="31.1250958778"><ele>56.86</ele><time>2026-09-01T17:47:47Z</time></trkpt><trkpt lat="59.4631060213" lon="31.1251168326"><ele>56.86</ele><time>2026-09-01T17:47:56Z</time></trkpt><trkpt lat="59.4631582405" lon="31.1251327582"><ele>57.82</ele><time>2026-09-01T17:48:08Z</time></trkpt><trkpt lat="59.4632226136" lon="31.1251394637"><ele>57.34</ele><time>2026-09-01T17:48:19Z</time></trkpt><trkpt lat="59.4632274751" lon="31.1251459178"><ele>57.82</ele><time>2026-09-01T17:48:30Z</time></trkpt><trkpt lat="59.4632775988" lon="31.1251534615"><ele>57.34</ele><time>2026-09-01T17:48:39Z</time></trkpt><trkpt lat="59.4633612502" lon="31.1251341831"><ele>57.34</ele><time>2026-09-01T17:48:51Z</time></trkpt><trkpt lat="59.4634316582" lon="31.1251454987"><ele>57.82</ele><time>2026-09-01T17:49:02Z</time></trkpt><trkpt lat="59.4634878170" lon="31.1251531262"><ele>57.82</ele><time>2026-09-01T17:49:12Z</time></trkpt><trkpt lat="59.4636151381" lon="31.1250771862"><ele>57.82</ele><time>2026-09-01T17:49:34Z</time></trkpt><trkpt lat="59.4636319019" lon="31.1252747476"><ele>58.78</ele><time>2026-09-01T17:49:50Z</time></trkpt><trkpt lat="59.4636914134" lon="31.1252845544"><ele>59.74</ele><time>2026-09-01T17:50:01Z</time></trkpt><trkpt lat="59.4637360051" lon="31.1252486799"><ele>57.82</ele><time>2026-09-01T17:50:14Z</time></trkpt><trkpt lat="59.4637546968" lon="31.1252625100"><ele>58.30</ele><time>2026-09-01T17:50:26Z</time></trkpt><trkpt lat="59.4638147112" lon="31.1253179144"><ele>58.30</ele><time>2026-09-01T17:50:38Z</time></trkpt><trkpt lat="59.4638520945" lon="31.1253525317"><ele>58.30</ele><time>2026-09-01T17:50:49Z</time></trkpt><trkpt lat="59.4639373384" lon="31.1252469197"><ele>57.82</ele><time>2026-09-01T17:51:01Z</time></trkpt><trkpt lat="59.4640273601" lon="31.1252098717"><ele>58.30</ele><time>2026-09-01T17:51:11Z</time></trkpt><trkpt lat="59.4640599657" lon="31.1252484284"><ele>58.30</ele><time>2026-09-01T17:51:23Z</time></trkpt><trkpt lat="59.4640749693" lon="31.1252303235"><ele>57.82</ele><time>2026-09-01T17:51:36Z</time></trkpt><trkpt lat="59.4641105924" lon="31.1251616757"><ele>58.30</ele><time>2026-09-01T17:51:48Z</time></trkpt><trkpt lat="59.4641397614" lon="31.1251007393"><ele>58.30</ele><time>2026-09-01T17:52:00Z</time></trkpt><trkpt lat="59.4641947467" lon="31.1250941176"><ele>58.78</ele><time>2026-09-01T17:52:16Z</time></trkpt><trkpt lat="59.4642488938" lon="31.1251560599"><ele>58.30</ele><time>2026-09-01T17:52:25Z</time></trkpt><trkpt lat="59.4642729498" lon="31.1252320837"><ele>57.82</ele><time>2026-09-01T17:52:35Z</time></trkpt><trkpt lat="59.4642841816" lon="31.1252514459"><ele>58.30</ele><time>2026-09-01T17:52:39Z</time></trkpt><trkpt lat="59.4643504824" lon="31.1252767593"><ele>58.30</ele><time>2026-09-01T17:52:47Z</time></trkpt><trkpt lat="59.4643852673" lon="31.1252211034"><ele>57.82</ele><time>2026-09-01T17:52:59Z</time></trkpt><trkpt lat="59.4644561782" lon="31.1252575647"><ele>57.82</ele><time>2026-09-01T17:53:11Z</time></trkpt><trkpt lat="59.4644793961" lon="31.1252413038"><ele>57.82</ele><time>2026-09-01T17:53:28Z</time></trkpt><trkpt lat="59.4645380694" lon="31.1253015697"><ele>57.82</ele><time>2026-09-01T17:53:41Z</time></trkpt><trkpt lat="59.4645942282" lon="31.1253199261"><ele>57.82</ele><time>2026-09-01T17:53:50Z</time></trkpt><trkpt lat="59.4646350481" lon="31.1253133882"><ele>58.30</ele><time>2026-09-01T17:54:00Z</time></trkpt><trkpt lat="59.4646807294" lon="31.1252687965"><ele>57.82</ele><time>2026-09-01T17:54:10Z</time></trkpt><trkpt lat="59.4647662248" lon="31.1252997257"><ele>57.82</ele><time>2026-09-01T17:54:20Z</time></trkpt><trkpt lat="59.4648621138" lon="31.1253438145"><ele>57.82</ele><time>2026-09-01T17:54:32Z</time></trkpt><trkpt lat="59.4648950547" lon="31.1253595725"><ele>57.82</ele><time>2026-09-01T17:54:40Z</time></trkpt><trkpt lat="59.4649337791" lon="31.1253460776"><ele>58.30</ele><time>2026-09-01T17:54:54Z</time></trkpt><trkpt lat="59.4649692345" lon="31.1253066827"><ele>57.82</ele><time>2026-09-01T17:55:02Z</time></trkpt><trkpt lat="59.4650436658" lon="31.1253047548"><ele>57.82</ele><time>2026-09-01T17:55:12Z</time></trkpt><trkpt lat="59.4651320111" lon="31.1253117956"><ele>58.30</ele><time>2026-09-01T17:55:21Z</time></trkpt><trkpt lat="59.4652037602" lon="31.1253526993"><ele>58.30</ele><time>2026-09-01T17:55:29Z</time></trkpt><trkpt lat="59.4652159140" lon="31.1255158111"><ele>57.82</ele><time>2026-09-01T17:55:35Z</time></trkpt><trkpt lat="59.4652367011" lon="31.1255908292"><ele>57.82</ele><time>2026-09-01T17:55:42Z</time></trkpt><trkpt lat="59.4652516209" lon="31.1256168131"><ele>58.30</ele><time>2026-09-01T17:55:50Z</time></trkpt><trkpt lat="59.4652667083" lon="31.1256445572"><ele>57.82</ele><time>2026-09-01T17:55:58Z</time></trkpt><trkpt lat="59.4653198496" lon="31.1255832016"><ele>58.30</ele><time>2026-09-01T17:56:09Z</time></trkpt><trkpt lat="59.4653421454" lon="31.1256326549"><ele>57.82</ele><time>2026-09-01T17:56:17Z</time></trkpt><trkpt lat="59.4653730746" lon="31.1256806832"><ele>58.30</ele><time>2026-09-01T17:56:24Z</time></trkpt><trkpt lat="59.4654313289" lon="31.1257443018"><ele>58.30</ele><time>2026-09-01T17:56:33Z</time></trkpt><trkpt lat="59.4655124657" lon="31.1258251872"><ele>58.30</ele><time>2026-09-01T17:56:43Z</time></trkpt><trkpt lat="59.4655516930" lon="31.1258453876"><ele>58.30</ele><time>2026-09-01T17:56:53Z</time></trkpt><trkpt lat="59.4655702170" lon="31.1259715352"><ele>59.74</ele><time>2026-09-01T17:57:02Z</time></trkpt><trkpt lat="59.4655526150" lon="31.1260955036"><ele>57.82</ele><time>2026-09-01T17:57:18Z</time></trkpt><trkpt lat="59.4655544590" lon="31.1260971799"><ele>58.30</ele><time>2026-09-01T17:57:19Z</time></trkpt><trkpt lat="59.4655935187" lon="31.1259648297"><ele>58.30</ele><time>2026-09-01T17:57:32Z</time></trkpt><trkpt lat="59.4656203408" lon="31.1259359960"><ele>58.30</ele><time>2026-09-01T17:57:41Z</time></trkpt><trkpt lat="59.4656028226" lon="31.1259058211"><ele>58.78</ele><time>2026-09-01T17:57:53Z</time></trkpt><trkpt lat="59.4656259567" lon="31.1259038094"><ele>58.78</ele><time>2026-09-01T17:58:02Z</time></trkpt><trkpt lat="59.4656556286" lon="31.1258978583"><ele>58.30</ele><time>2026-09-01T17:58:14Z</time></trkpt><trkpt lat="59.4656740688" lon="31.1258713715"><ele>58.30</ele><time>2026-09-01T17:58:27Z</time></trkpt><trkpt lat="59.4657267071" lon="31.1258385982"><ele>58.30</ele><time>2026-09-01T17:58:38Z</time></trkpt><trkpt lat="59.4657582231" lon="31.1258303840"><ele>58.78</ele><time>2026-09-01T17:58:51Z</time></trkpt><trkpt lat="59.4657649286" lon="31.1258727126"><ele>58.78</ele><time>2026-09-01T17:59:04Z</time></trkpt><trkpt lat="59.4658334088" lon="31.1259220820"><ele>57.82</ele><time>2026-09-01T17:59:18Z</time></trkpt><trkpt lat="59.4658950996" lon="31.1260204017"><ele>58.30</ele><time>2026-09-01T17:59:27Z</time></trkpt><trkpt lat="59.4659287110" lon="31.1260932405"><ele>57.82</ele><time>2026-09-01T17:59:33Z</time></trkpt><trkpt lat="59.4659611490" lon="31.1261487287"><ele>57.82</ele><time>2026-09-01T17:59:40Z</time></trkpt><trkpt lat="59.4659711234" lon="31.1261549313"><ele>58.30</ele><time>2026-09-01T17:59:51Z</time></trkpt><trkpt lat="59.4661345705" lon="31.1261993553"><ele>57.34</ele><time>2026-09-01T18:00:03Z</time></trkpt><trkpt lat="59.4661609735" lon="31.1261980981"><ele>58.30</ele><time>2026-09-01T18:00:16Z</time></trkpt><trkpt lat="59.4661923219" lon="31.1263083201"><ele>58.78</ele><time>2026-09-01T18:00:23Z</time></trkpt><trkpt lat="59.4662188925" lon="31.1264142673"><ele>58.78</ele><time>2026-09-01T18:00:31Z</time></trkpt><trkpt lat="59.4662416074" lon="31.1264721025"><ele>58.78</ele><time>2026-09-01T18:00:39Z</time></trkpt><trkpt lat="59.4662458822" lon="31.1264619604"><ele>58.78</ele><time>2026-09-01T18:00:46Z</time></trkpt><trkpt lat="59.4662219938" lon="31.1264602840"><ele>57.82</ele><time>2026-09-01T18:01:06Z</time></trkpt><trkpt lat="59.4662571978" lon="31.1264448613"><ele>58.30</ele><time>2026-09-01T18:01:13Z</time></trkpt><trkpt lat="59.4662590418" lon="31.1264440231"><ele>58.30</ele><time>2026-09-01T18:01:14Z</time></trkpt><trkpt lat="59.4662835170" lon="31.1264626309"><ele>58.30</ele><time>2026-09-01T18:01:21Z</time></trkpt><trkpt lat="59.4663294498" lon="31.1264928058"><ele>58.30</ele><time>2026-09-01T18:01:29Z</time></trkpt><trkpt lat="59.4663726166" lon="31.1265370622"><ele>58.30</ele><time>2026-09-01T18:01:36Z</time></trkpt><trkpt lat="59.4664447010" lon="31.1266487930"><ele>58.78</ele><time>2026-09-01T18:01:44Z</time></trkpt><trkpt lat="59.4664605428" lon="31.1267832387"><ele>58.78</ele><time>2026-09-01T18:01:51Z</time></trkpt><trkpt lat="59.4664772227" lon="31.1268892698"><ele>58.78</ele><time>2026-09-01T18:01:59Z</time></trkpt><trkpt lat="59.4665143546" lon="31.1268566642"><ele>57.82</ele><time>2026-09-01T18:02:08Z</time></trkpt><trkpt lat="59.4665263407" lon="31.1269674730"><ele>58.30</ele><time>2026-09-01T18:02:17Z</time></trkpt><trkpt lat="59.4665429369" lon="31.1270217877"><ele>58.30</ele><time>2026-09-01T18:02:26Z</time></trkpt><trkpt lat="59.4665734470" lon="31.1271080375"><ele>58.30</ele><time>2026-09-01T18:02:35Z</time></trkpt><trkpt lat="59.4665880315" lon="31.1272334307"><ele>57.82</ele><time>2026-09-01T18:02:44Z</time></trkpt><trkpt lat="59.4665784761" lon="31.1273472570"><ele>58.30</ele><time>2026-09-01T18:02:56Z</time></trkpt><trkpt lat="59.4665821642" lon="31.1274769250"><ele>58.30</ele><time>2026-09-01T18:03:06Z</time></trkpt><trkpt lat="59.4665896241" lon="31.1275073513"><ele>57.82</ele><time>2026-09-01T18:03:10Z</time></trkpt><trkpt lat="59.4665738661" lon="31.1276106164"><ele>58.30</ele><time>2026-09-01T18:03:19Z</time></trkpt><trkpt lat="59.4665908813" lon="31.1276814435"><ele>57.34</ele><time>2026-09-01T18:03:27Z</time></trkpt><trkpt lat="59.4666437712" lon="31.1276961118"><ele>57.82</ele><time>2026-09-01T18:03:36Z</time></trkpt><trkpt lat="59.4666785561" lon="31.1277997959"><ele>57.82</ele><time>2026-09-01T18:03:45Z</time></trkpt><trkpt lat="59.4666772150" lon="31.1279086769"><ele>58.30</ele><time>2026-09-01T18:03:52Z</time></trkpt><trkpt lat="59.4666699227" lon="31.1280265264"><ele>57.82</ele><time>2026-09-01T18:04:03Z</time></trkpt><trkpt lat="59.4666537456" lon="31.1280925758"><ele>57.34</ele><time>2026-09-01T18:04:22Z</time></trkpt><trkpt lat="59.4666146021" lon="31.1282128561"><ele>57.34</ele><time>2026-09-01T18:04:39Z</time></trkpt><trkpt lat="59.4666652288" lon="31.1281608045"><ele>57.34</ele><time>2026-09-01T18:04:55Z</time></trkpt><trkpt lat="59.4667104911" lon="31.1281292047"><ele>57.34</ele><time>2026-09-01T18:05:10Z</time></trkpt><trkpt lat="59.4666794781" lon="31.1280932464"><ele>58.78</ele><time>2026-09-01T18:05:29Z</time></trkpt><trkpt lat="59.4666682463" lon="31.1280755606"><ele>54.93</ele><time>2026-09-01T18:05:32Z</time></trkpt><trkpt lat="59.4666725211" lon="31.1280722078"><ele>59.74</ele><time>2026-09-01T18:05:33Z</time></trkpt><trkpt lat="59.4666085672" lon="31.1281385925"><ele>57.34</ele><time>2026-09-01T18:05:43Z</time></trkpt><trkpt lat="59.4665776379" lon="31.1282950826"><ele>57.34</ele><time>2026-09-01T18:05:53Z</time></trkpt><trkpt lat="59.4665802363" lon="31.1283962522"><ele>57.82</ele><time>2026-09-01T18:06:01Z</time></trkpt><trkpt lat="59.4665581081" lon="31.1284996849"><ele>57.82</ele><time>2026-09-01T18:06:11Z</time></trkpt><trkpt lat="59.4665768836" lon="31.1285964120"><ele>57.82</ele><time>2026-09-01T18:06:21Z</time></trkpt><trkpt lat="59.4665617123" lon="31.1286952347"><ele>57.34</ele><time>2026-09-01T18:06:34Z</time></trkpt><trkpt lat="59.4665954076" lon="31.1286671553"><ele>57.82</ele><time>2026-09-01T18:06:46Z</time></trkpt><trkpt lat="59.4665426016" lon="31.1287265830"><ele>57.82</ele><time>2026-09-01T18:07:01Z</time></trkpt><trkpt lat="59.4665377401" lon="31.1287529860"><ele>58.30</ele><time>2026-09-01T18:07:11Z</time></trkpt><trkpt lat="59.4665335491" lon="31.1287459452"><ele>57.82</ele><time>2026-09-01T18:07:20Z</time></trkpt><trkpt lat="59.4665252510" lon="31.1285523232"><ele>57.82</ele><time>2026-09-01T18:07:31Z</time></trkpt><trkpt lat="59.4666456990" lon="31.1285426002"><ele>57.34</ele><time>2026-09-01T18:07:42Z</time></trkpt><trkpt lat="59.4667061325" lon="31.1284821667"><ele>57.82</ele><time>2026-09-01T18:07:53Z</time></trkpt><trkpt lat="59.4668209646" lon="31.1285287701"><ele>57.82</ele><time>2026-09-01T18:08:04Z</time></trkpt><trkpt lat="59.4668982457" lon="31.1285509821"><ele>57.82</ele><time>2026-09-01T18:08:12Z</time></trkpt><trkpt lat="59.4669311028" lon="31.1285790615"><ele>58.30</ele><time>2026-09-01T18:08:25Z</time></trkpt><trkpt lat="59.4669592660" lon="31.1286446080"><ele>57.34</ele><time>2026-09-01T18:08:32Z</time></trkpt><trkpt lat="59.4670525566" lon="31.1286369804"><ele>57.82</ele><time>2026-09-01T18:08:41Z</time></trkpt><trkpt lat="59.4671186898" lon="31.1286525708"><ele>57.82</ele><time>2026-09-01T18:08:50Z</time></trkpt><trkpt lat="59.4671414047" lon="31.1286227312"><ele>57.82</ele><time>2026-09-01T18:08:57Z</time></trkpt><trkpt lat="59.4671616890" lon="31.1285782233"><ele>57.34</ele><time>2026-09-01T18:09:04Z</time></trkpt><trkpt lat="59.4671843201" lon="31.1285581905"><ele>57.34</ele><time>2026-09-01T18:09:10Z</time></trkpt><trkpt lat="59.4672367908" lon="31.1284659058"><ele>56.86</ele><time>2026-09-01T18:09:20Z</time></trkpt><trkpt lat="59.4672787841" lon="31.1284156982"><ele>57.34</ele><time>2026-09-01T18:09:30Z</time></trkpt><trkpt lat="59.4672985654" lon="31.1282873712"><ele>57.34</ele><time>2026-09-01T18:09:40Z</time></trkpt><trkpt lat="59.4673315063" lon="31.1282799114"><ele>57.82</ele><time>2026-09-01T18:09:49Z</time></trkpt><trkpt lat="59.4673185144" lon="31.1281977687"><ele>57.82</ele><time>2026-09-01T18:10:05Z</time></trkpt><trkpt lat="59.4673507847" lon="31.1281027179"><ele>57.34</ele><time>2026-09-01T18:10:12Z</time></trkpt><trkpt lat="59.4674284011" lon="31.1279083416"><ele>57.34</ele><time>2026-09-01T18:10:22Z</time></trkpt><trkpt lat="59.4674212765" lon="31.1278275400"><ele>57.34</ele><time>2026-09-01T18:10:29Z</time></trkpt><trkpt lat="59.4674263056" lon="31.1277356744"><ele>57.34</ele><time>2026-09-01T18:10:37Z</time></trkpt><trkpt lat="59.4674142357" lon="31.1276014801"><ele>57.34</ele><time>2026-09-01T18:10:45Z</time></trkpt><trkpt lat="59.4674003217" lon="31.1275233608"><ele>57.82</ele><time>2026-09-01T18:10:54Z</time></trkpt><trkpt lat="59.4673631899" lon="31.1274315789"><ele>57.82</ele><time>2026-09-01T18:11:02Z</time></trkpt><trkpt lat="59.4673322607" lon="31.1273106281"><ele>57.34</ele><time>2026-09-01T18:11:11Z</time></trkpt><trkpt lat="59.4672234636" lon="31.1272099614"><ele>57.82</ele><time>2026-09-01T18:11:21Z</time></trkpt><trkpt lat="59.4671514630" lon="31.1272106320"><ele>58.30</ele><time>2026-09-01T18:11:32Z</time></trkpt><trkpt lat="59.4671342801" lon="31.1272294074"><ele>57.82</ele><time>2026-09-01T18:11:37Z</time></trkpt><trkpt lat="59.4671341963" lon="31.1271092948"><ele>57.82</ele><time>2026-09-01T18:11:47Z</time></trkpt><trkpt lat="59.4671475235" lon="31.1270592548"><ele>57.82</ele><time>2026-09-01T18:11:50Z</time></trkpt><trkpt lat="59.4672489446" lon="31.1269704066"><ele>57.82</ele><time>2026-09-01T18:11:58Z</time></trkpt><trkpt lat="59.4672402274" lon="31.1269155890"><ele>57.82</ele><time>2026-09-01T18:12:05Z</time></trkpt><trkpt lat="59.4672514591" lon="31.1268145870"><ele>57.82</ele><time>2026-09-01T18:12:13Z</time></trkpt><trkpt lat="59.4672402274" lon="31.1267435085"><ele>57.82</ele><time>2026-09-01T18:12:20Z</time></trkpt><trkpt lat="59.4672968891" lon="31.1267452687"><ele>57.82</ele><time>2026-09-01T18:12:30Z</time></trkpt><trkpt lat="59.4673254713" lon="31.1267028563"><ele>57.82</ele><time>2026-09-01T18:12:37Z</time></trkpt><trkpt lat="59.4673178438" lon="31.1266505532"><ele>58.30</ele><time>2026-09-01T18:12:44Z</time></trkpt><trkpt lat="59.4673001580" lon="31.1266113259"><ele>57.82</ele><time>2026-09-01T18:12:50Z</time></trkpt><trkpt lat="59.4672946259" lon="31.1265151855"><ele>57.82</ele><time>2026-09-01T18:12:58Z</time></trkpt><trkpt lat="59.4673112221" lon="31.1264427658"><ele>57.82</ele><time>2026-09-01T18:13:06Z</time></trkpt><trkpt lat="59.4673367869" lon="31.1263654009"><ele>58.30</ele><time>2026-09-01T18:13:14Z</time></trkpt><trkpt lat="59.4673065282" lon="31.1262397561"><ele>57.82</ele><time>2026-09-01T18:13:29Z</time></trkpt><trkpt lat="59.4672748446" lon="31.1261794902"><ele>57.82</ele><time>2026-09-01T18:13:40Z</time></trkpt><trkpt lat="59.4672740903" lon="31.1261660792"><ele>57.82</ele><time>2026-09-01T18:13:41Z</time></trkpt><trkpt lat="59.4672802929" lon="31.1261507403"><ele>57.82</ele><time>2026-09-01T18:13:43Z</time></trkpt><trkpt lat="59.4673040975" lon="31.1260845233"><ele>57.82</ele><time>2026-09-01T18:13:50Z</time></trkpt><trkpt lat="59.4672984816" lon="31.1260572821"><ele>57.82</ele><time>2026-09-01T18:14:00Z</time></trkpt><trkpt lat="59.4672833104" lon="31.1260960903"><ele>58.30</ele><time>2026-09-01T18:14:12Z</time></trkpt><trkpt lat="59.4672474358" lon="31.1260849424"><ele>58.30</ele><time>2026-09-01T18:14:22Z</time></trkpt><trkpt lat="59.4672229607" lon="31.1259485688"><ele>58.30</ele><time>2026-09-01T18:14:29Z</time></trkpt><trkpt lat="59.4671554025" lon="31.1259540170"><ele>58.78</ele><time>2026-09-01T18:14:35Z</time></trkpt><trkpt lat="59.4671374653" lon="31.1260240898"><ele>58.78</ele><time>2026-09-01T18:14:43Z</time></trkpt><trkpt lat="59.4670993276" lon="31.1259391811"><ele>58.78</ele><time>2026-09-01T18:14:52Z</time></trkpt><trkpt lat="59.4671037700" lon="31.1259510834"><ele>58.78</ele><time>2026-09-01T18:15:02Z</time></trkpt><trkpt lat="59.4670798816" lon="31.1259700265"><ele>58.78</ele><time>2026-09-01T18:15:16Z</time></trkpt><trkpt lat="59.4670664705" lon="31.1259167176"><ele>58.78</ele><time>2026-09-01T18:15:25Z</time></trkpt><trkpt lat="59.4670388103" lon="31.1258863751"><ele>58.30</ele><time>2026-09-01T18:15:35Z</time></trkpt><trkpt lat="59.4670251478" lon="31.1258505844"><ele>58.78</ele><time>2026-09-01T18:15:47Z</time></trkpt><trkpt lat="59.4669896085" lon="31.1258265283"><ele>59.26</ele><time>2026-09-01T18:15:55Z</time></trkpt><trkpt lat="59.4670338649" lon="31.1257914081"><ele>59.26</ele><time>2026-09-01T18:16:04Z</time></trkpt><trkpt lat="59.4670707453" lon="31.1258192360"><ele>58.78</ele><time>2026-09-01T18:16:12Z</time></trkpt><trkpt lat="59.4671326876" lon="31.1258389335"><ele>58.78</ele><time>2026-09-01T18:16:21Z</time></trkpt><trkpt lat="59.4670872577" lon="31.1258124467"><ele>58.78</ele><time>2026-09-01T18:16:28Z</time></trkpt><trkpt lat="59.4670474436" lon="31.1257459782"><ele>58.78</ele><time>2026-09-01T18:16:36Z</time></trkpt><trkpt lat="59.4670031872" lon="31.1257500853"><ele>58.78</ele><time>2026-09-01T18:16:43Z</time></trkpt><trkpt lat="59.4670252316" lon="31.1256960221"><ele>58.78</ele><time>2026-09-01T18:16:52Z</time></trkpt><trkpt lat="59.4670935441" lon="31.1256884784"><ele>59.26</ele><time>2026-09-01T18:16:59Z</time></trkpt><trkpt lat="59.4671478588" lon="31.1255822796"><ele>59.26</ele><time>2026-09-01T18:17:08Z</time></trkpt><trkpt lat="59.4671838172" lon="31.1255404539"><ele>59.26</ele><time>2026-09-01T18:17:16Z</time></trkpt><trkpt lat="59.4671916962" lon="31.1255406216"><ele>59.74</ele><time>2026-09-01T18:17:23Z</time></trkpt><trkpt lat="59.4672482740" lon="31.1255350895"><ele>58.78</ele><time>2026-09-01T18:17:32Z</time></trkpt><trkpt lat="59.4672651216" lon="31.1255676951"><ele>59.26</ele><time>2026-09-01T18:17:40Z</time></trkpt><trkpt lat="59.4672992360" lon="31.1255821958"><ele>59.26</ele><time>2026-09-01T18:17:47Z</time></trkpt><trkpt lat="59.4673021697" lon="31.1256480776"><ele>59.26</ele><time>2026-09-01T18:17:56Z</time></trkpt><trkpt lat="59.4673418161" lon="31.1256132089"><ele>59.26</ele><time>2026-09-01T18:18:01Z</time></trkpt><trkpt lat="59.4673839770" lon="31.1256514303"><ele>59.74</ele><time>2026-09-01T18:18:09Z</time></trkpt><trkpt lat="59.4673769362" lon="31.1255992111"><ele>59.74</ele><time>2026-09-01T18:18:19Z</time></trkpt><trkpt lat="59.4673924427" lon="31.1256137956"><ele>59.26</ele><time>2026-09-01T18:18:30Z</time></trkpt><trkpt lat="59.4673853181" lon="31.1256652605"><ele>59.26</ele><time>2026-09-01T18:18:39Z</time></trkpt><trkpt lat="59.4673736673" lon="31.1256933399"><ele>59.26</ele><time>2026-09-01T18:18:47Z</time></trkpt><trkpt lat="59.4674141519" lon="31.1257113609"><ele>59.26</ele><time>2026-09-01T18:18:55Z</time></trkpt><trkpt lat="59.4674350228" lon="31.1256831139"><ele>59.74</ele><time>2026-09-01T18:19:01Z</time></trkpt><trkpt lat="59.4674745854" lon="31.1256801803"><ele>59.26</ele><time>2026-09-01T18:19:09Z</time></trkpt><trkpt lat="59.4674779382" lon="31.1257238500"><ele>60.22</ele><time>2026-09-01T18:19:16Z</time></trkpt><trkpt lat="59.4674807042" lon="31.1257295497"><ele>60.22</ele><time>2026-09-01T18:19:18Z</time></trkpt><trkpt lat="59.4675130583" lon="31.1257442180"><ele>59.74</ele><time>2026-09-01T18:19:24Z</time></trkpt><trkpt lat="59.4675561413" lon="31.1257702019"><ele>59.74</ele><time>2026-09-01T18:19:30Z</time></trkpt><trkpt lat="59.4676214363" lon="31.1258523446"><ele>59.74</ele><time>2026-09-01T18:19:37Z</time></trkpt><trkpt lat="59.4676705543" lon="31.1258715391"><ele>59.26</ele><time>2026-09-01T18:19:45Z</time></trkpt><trkpt lat="59.4677083567" lon="31.1258613132"><ele>59.26</ele><time>2026-09-01T18:19:56Z</time></trkpt><trkpt lat="59.4677418005" lon="31.1259000376"><ele>59.74</ele><time>2026-09-01T18:20:06Z</time></trkpt><trkpt lat="59.4677679520" lon="31.1259369180"><ele>59.74</ele><time>2026-09-01T18:20:15Z</time></trkpt><trkpt lat="59.4677412137" lon="31.1260253470"><ele>59.74</ele><time>2026-09-01T18:20:32Z</time></trkpt><trkpt lat="59.4677625876" lon="31.1261399277"><ele>59.26</ele><time>2026-09-01T18:20:48Z</time></trkpt><trkpt lat="59.4678330794" lon="31.1260836013"><ele>59.74</ele><time>2026-09-01T18:20:58Z</time></trkpt><trkpt lat="59.4678811915" lon="31.1260497384"><ele>59.74</ele><time>2026-09-01T18:21:06Z</time></trkpt><trkpt lat="59.4679158926" lon="31.1260024644"><ele>59.74</ele><time>2026-09-01T18:21:14Z</time></trkpt><trkpt lat="59.4680176489" lon="31.1260327231"><ele>59.74</ele><time>2026-09-01T18:21:22Z</time></trkpt><trkpt lat="59.4680819381" lon="31.1260094214"><ele>59.74</ele><time>2026-09-01T18:21:29Z</time></trkpt><trkpt lat="59.4681376778" lon="31.1259520892"><ele>59.74</ele><time>2026-09-01T18:21:36Z</time></trkpt><trkpt lat="59.4681727141" lon="31.1259160470"><ele>59.74</ele><time>2026-09-01T18:21:45Z</time></trkpt><trkpt lat="59.4682486542" lon="31.1259754747"><ele>60.22</ele><time>2026-09-01T18:21:54Z</time></trkpt><trkpt lat="59.4682893902" lon="31.1260247603"><ele>59.74</ele><time>2026-09-01T18:22:03Z</time></trkpt><trkpt lat="59.4683368318" lon="31.1260680109"><ele>60.22</ele><time>2026-09-01T18:22:11Z</time></trkpt><trkpt lat="59.4684352353" lon="31.1261322163"><ele>60.70</ele><time>2026-09-01T18:22:21Z</time></trkpt><trkpt lat="59.4684384204" lon="31.1261225771"><ele>59.74</ele><time>2026-09-01T18:22:30Z</time></trkpt><trkpt lat="59.4684778154" lon="31.1261383351"><ele>60.22</ele><time>2026-09-01T18:22:43Z</time></trkpt><trkpt lat="59.4685141928" lon="31.1261739582"><ele>60.70</ele><time>2026-09-01T18:22:56Z</time></trkpt><trkpt lat="59.4685281906" lon="31.1260593776"><ele>60.22</ele><time>2026-09-01T18:23:05Z</time></trkpt><trkpt lat="59.4685603771" lon="31.1260426976"><ele>60.70</ele><time>2026-09-01T18:23:09Z</time></trkpt><trkpt lat="59.4686346408" lon="31.1260750517"><ele>60.70</ele><time>2026-09-01T18:23:17Z</time></trkpt><trkpt lat="59.4686749578" lon="31.1260356568"><ele>60.70</ele><time>2026-09-01T18:23:24Z</time></trkpt><trkpt lat="59.4687385764" lon="31.1260062363"><ele>60.70</ele><time>2026-09-01T18:23:31Z</time></trkpt><trkpt lat="59.4687778875" lon="31.1260235030"><ele>60.70</ele><time>2026-09-01T18:23:38Z</time></trkpt><trkpt lat="59.4687910471" lon="31.1260027159"><ele>60.70</ele><time>2026-09-01T18:23:45Z</time></trkpt><trkpt lat="59.4688025303" lon="31.1260530911"><ele>60.70</ele><time>2026-09-01T18:23:50Z</time></trkpt><trkpt lat="59.4688039552" lon="31.1260815896"><ele>60.70</ele><time>2026-09-01T18:23:58Z</time></trkpt><trkpt lat="59.4688275922" lon="31.1260904744"><ele>60.70</ele><time>2026-09-01T18:24:04Z</time></trkpt><trkpt lat="59.4688599464" lon="31.1261097528"><ele>61.18</ele><time>2026-09-01T18:24:12Z</time></trkpt><trkpt lat="59.4688937254" lon="31.1261083279"><ele>61.18</ele><time>2026-09-01T18:24:18Z</time></trkpt><trkpt lat="59.4689093158" lon="31.1261382513"><ele>61.18</ele><time>2026-09-01T18:24:25Z</time></trkpt><trkpt lat="59.4689544942" lon="31.1261929013"><ele>61.18</ele><time>2026-09-01T18:24:32Z</time></trkpt><trkpt lat="59.4690057077" lon="31.1262142751"><ele>61.18</ele><time>2026-09-01T18:24:39Z</time></trkpt><trkpt lat="59.4689966552" lon="31.1262760498"><ele>60.22</ele><time>2026-09-01T18:24:49Z</time></trkpt><trkpt lat="59.4689313602" lon="31.1262708530"><ele>60.22</ele><time>2026-09-01T18:25:07Z</time></trkpt><trkpt lat="59.4688973296" lon="31.1262292787"><ele>60.22</ele><time>2026-09-01T18:25:28Z</time></trkpt><trkpt lat="59.4688986707" lon="31.1262339726"><ele>60.22</ele><time>2026-09-01T18:25:46Z</time></trkpt><trkpt lat="59.4688941445" lon="31.1262426060"><ele>60.22</ele><time>2026-09-01T18:26:03Z</time></trkpt><trkpt lat="59.4690010138" lon="31.1262509041"><ele>60.22</ele><time>2026-09-01T18:26:17Z</time></trkpt><trkpt lat="59.4689610321" lon="31.1262543406"><ele>60.22</ele><time>2026-09-01T18:26:32Z</time></trkpt><trkpt lat="59.4690364692" lon="31.1261695158"><ele>61.66</ele><time>2026-09-01T18:26:44Z</time></trkpt><trkpt lat="59.4690899458" lon="31.1261249240"><ele>61.18</ele><time>2026-09-01T18:26:50Z</time></trkpt><trkpt lat="59.4691259041" lon="31.1261150334"><ele>61.18</ele><time>2026-09-01T18:27:00Z</time></trkpt><trkpt lat="59.4691515528" lon="31.1260995269"><ele>61.18</ele><time>2026-09-01T18:27:07Z</time></trkpt><trkpt lat="59.4691908639" lon="31.1261431966"><ele>61.18</ele><time>2026-09-01T18:27:15Z</time></trkpt><trkpt lat="59.4692229666" lon="31.1261546798"><ele>61.18</ele><time>2026-09-01T18:27:22Z</time></trkpt><trkpt lat="59.4692361262" lon="31.1261244211"><ele>61.66</ele><time>2026-09-01T18:27:30Z</time></trkpt><trkpt lat="59.4692711625" lon="31.1261324678"><ele>61.66</ele><time>2026-09-01T18:27:38Z</time></trkpt><trkpt lat="59.4692782871" lon="31.1260707770"><ele>62.14</ele><time>2026-09-01T18:27:48Z</time></trkpt><trkpt lat="59.4692859147" lon="31.1260655802"><ele>61.66</ele><time>2026-09-01T18:27:57Z</time></trkpt><trkpt lat="59.4693060312" lon="31.1261278577"><ele>62.14</ele><time>2026-09-01T18:28:07Z</time></trkpt><trkpt lat="59.4693098031" lon="31.1261144467"><ele>62.62</ele><time>2026-09-01T18:28:21Z</time></trkpt><trkpt lat="59.4693269860" lon="31.1261596251"><ele>62.14</ele><time>2026-09-01T18:28:29Z</time></trkpt><trkpt lat="59.4693583343" lon="31.1262229085"><ele>61.66</ele><time>2026-09-01T18:28:36Z</time></trkpt><trkpt lat="59.4694040157" lon="31.1262184661"><ele>62.14</ele><time>2026-09-01T18:28:40Z</time></trkpt><trkpt lat="59.4694300834" lon="31.1262525804"><ele>62.14</ele><time>2026-09-01T18:28:45Z</time></trkpt><trkpt lat="59.4694321789" lon="31.1262451205"><ele>62.62</ele><time>2026-09-01T18:28:47Z</time></trkpt><trkpt lat="59.4694574922" lon="31.1262415163"><ele>62.14</ele><time>2026-09-01T18:28:53Z</time></trkpt><trkpt lat="59.4694812130" lon="31.1262358166"><ele>62.14</ele><time>2026-09-01T18:29:00Z</time></trkpt><trkpt lat="59.4695237931" lon="31.1262399238"><ele>62.62</ele><time>2026-09-01T18:29:07Z</time></trkpt><trkpt lat="59.4695350248" lon="31.1262509041"><ele>62.14</ele><time>2026-09-01T18:29:14Z</time></trkpt><trkpt lat="59.4695611764" lon="31.1263233237"><ele>61.66</ele><time>2026-09-01T18:29:24Z</time></trkpt><trkpt lat="59.4696325902" lon="31.1263622995"><ele>61.66</ele><time>2026-09-01T18:29:32Z</time></trkpt><trkpt lat="59.4696968794" lon="31.1263597850"><ele>61.66</ele><time>2026-09-01T18:29:42Z</time></trkpt><trkpt lat="59.4697419740" lon="31.1263585277"><ele>61.18</ele><time>2026-09-01T18:29:51Z</time></trkpt><trkpt lat="59.4697444048" lon="31.1263135169"><ele>61.66</ele><time>2026-09-01T18:29:59Z</time></trkpt><trkpt lat="59.4698023237" lon="31.1263316218"><ele>62.14</ele><time>2026-09-01T18:30:07Z</time></trkpt><trkpt lat="59.4698033296" lon="31.1263705976"><ele>61.66</ele><time>2026-09-01T18:30:15Z</time></trkpt><trkpt lat="59.4697750825" lon="31.1264050473"><ele>61.18</ele><time>2026-09-01T18:30:28Z</time></trkpt><trkpt lat="59.4697907567" lon="31.1264079809"><ele>61.18</ele><time>2026-09-01T18:30:39Z</time></trkpt><trkpt lat="59.4697942771" lon="31.1263299454"><ele>61.18</ele><time>2026-09-01T18:30:47Z</time></trkpt><trkpt lat="59.4698455743" lon="31.1263589468"><ele>60.70</ele><time>2026-09-01T18:30:53Z</time></trkpt><trkpt lat="59.4698649365" lon="31.1263879482"><ele>60.70</ele><time>2026-09-01T18:30:55Z</time></trkpt><trkpt lat="59.4698920939" lon="31.1264175363"><ele>60.70</ele><time>2026-09-01T18:30:58Z</time></trkpt><trkpt lat="59.4699373562" lon="31.1264340486"><ele>60.70</ele><time>2026-09-01T18:31:07Z</time></trkpt><trkpt lat="59.4699796848" lon="31.1264328752"><ele>61.18</ele><time>2026-09-01T18:31:21Z</time></trkpt><trkpt lat="59.4699621666" lon="31.1264109146"><ele>60.70</ele><time>2026-09-01T18:31:26Z</time></trkpt><trkpt lat="59.4700097758" lon="31.1263697594"><ele>60.70</ele><time>2026-09-01T18:31:33Z</time></trkpt><trkpt lat="59.4700523559" lon="31.1264151055"><ele>60.22</ele><time>2026-09-01T18:31:41Z</time></trkpt><trkpt lat="59.4700956065" lon="31.1264399998"><ele>60.22</ele><time>2026-09-01T18:31:49Z</time></trkpt><trkpt lat="59.4701986201" lon="31.1263713520"><ele>60.70</ele><time>2026-09-01T18:31:58Z</time></trkpt><trkpt lat="59.4702665135" lon="31.1263886187"><ele>60.70</ele><time>2026-09-01T18:32:08Z</time></trkpt><trkpt lat="59.4703266118" lon="31.1264450289"><ele>60.70</ele><time>2026-09-01T18:32:17Z</time></trkpt><trkpt lat="59.4703686889" lon="31.1264897045"><ele>60.70</ele><time>2026-09-01T18:32:22Z</time></trkpt><trkpt lat="59.4704318047" lon="31.1264907103"><ele>60.70</ele><time>2026-09-01T18:32:31Z</time></trkpt><trkpt lat="59.4705085829" lon="31.1264801491"><ele>60.22</ele><time>2026-09-01T18:32:40Z</time></trkpt><trkpt lat="59.4705677591" lon="31.1264988407"><ele>60.70</ele><time>2026-09-01T18:32:48Z</time></trkpt><trkpt lat="59.4706256781" lon="31.1265210528"><ele>60.70</ele><time>2026-09-01T18:32:57Z</time></trkpt><trkpt lat="59.4705907255" lon="31.1264042091"><ele>60.70</ele><time>2026-09-01T18:33:08Z</time></trkpt><trkpt lat="59.4706562720" lon="31.1264614575"><ele>60.22</ele><time>2026-09-01T18:33:17Z</time></trkpt><trkpt lat="59.4706912246" lon="31.1264854297"><ele>60.22</ele><time>2026-09-01T18:33:25Z</time></trkpt><trkpt lat="59.4707118440" lon="31.1264304444"><ele>60.22</ele><time>2026-09-01T18:33:35Z</time></trkpt><trkpt lat="59.4707700144" lon="31.1264483817"><ele>61.18</ele><time>2026-09-01T18:33:45Z</time></trkpt><trkpt lat="59.4708096609" lon="31.1265161913"><ele>60.70</ele><time>2026-09-01T18:33:51Z</time></trkpt><trkpt lat="59.4708273467" lon="31.1266125832"><ele>60.22</ele><time>2026-09-01T18:34:00Z</time></trkpt><trkpt lat="59.4708699267" lon="31.1266333703"><ele>60.70</ele><time>2026-09-01T18:34:09Z</time></trkpt><trkpt lat="59.4708904624" lon="31.1266352143"><ele>60.70</ele><time>2026-09-01T18:34:17Z</time></trkpt><trkpt lat="59.4708811585" lon="31.1264968291"><ele>61.18</ele><time>2026-09-01T18:34:28Z</time></trkpt><trkpt lat="59.4708492234" lon="31.1264149379"><ele>60.70</ele><time>2026-09-01T18:34:44Z</time></trkpt><trkpt lat="59.4708620477" lon="31.1264626309"><ele>60.70</ele><time>2026-09-01T18:34:57Z</time></trkpt><trkpt lat="59.4709462859" lon="31.1265053786"><ele>61.18</ele><time>2026-09-01T18:35:05Z</time></trkpt><trkpt lat="59.4709809031" lon="31.1266690772"><ele>61.18</ele><time>2026-09-01T18:35:13Z</time></trkpt><trkpt lat="59.4709898718" lon="31.1266678199"><ele>60.70</ele><time>2026-09-01T18:35:20Z</time></trkpt><trkpt lat="59.4710582681" lon="31.1266649701"><ele>60.70</ele><time>2026-09-01T18:35:28Z</time></trkpt><trkpt lat="59.4711101521" lon="31.1265764572"><ele>60.70</ele><time>2026-09-01T18:35:37Z</time></trkpt><trkpt lat="59.4711365551" lon="31.1266008485"><ele>60.70</ele><time>2026-09-01T18:35:49Z</time></trkpt><trkpt lat="59.4710910413" lon="31.1265313625"><ele>61.66</ele><time>2026-09-01T18:35:59Z</time></trkpt><trkpt lat="59.4710502215" lon="31.1265189573"><ele>61.66</ele><time>2026-09-01T18:36:12Z</time></trkpt><trkpt lat="59.4710883591" lon="31.1265925504"><ele>61.18</ele><time>2026-09-01T18:36:20Z</time></trkpt><trkpt lat="59.4711049553" lon="31.1266995873"><ele>61.18</ele><time>2026-09-01T18:36:28Z</time></trkpt><trkpt lat="59.4711089786" lon="31.1267926265"><ele>60.70</ele><time>2026-09-01T18:36:38Z</time></trkpt><trkpt lat="59.4711124990" lon="31.1267892737"><ele>61.18</ele><time>2026-09-01T18:36:44Z</time></trkpt><trkpt lat="59.4711177796" lon="31.1268615257"><ele>60.70</ele><time>2026-09-01T18:36:52Z</time></trkpt><trkpt lat="59.4712236430" lon="31.1267805565"><ele>61.18</ele><time>2026-09-01T18:37:07Z</time></trkpt><trkpt lat="59.4712331984" lon="31.1267958116"><ele>60.70</ele><time>2026-09-01T18:37:15Z</time></trkpt><trkpt lat="59.4712642953" lon="31.1267936323"><ele>60.22</ele><time>2026-09-01T18:37:23Z</time></trkpt><trkpt lat="59.4713237230" lon="31.1268461868"><ele>60.70</ele><time>2026-09-01T18:37:33Z</time></trkpt><trkpt lat="59.4714026805" lon="31.1268404033"><ele>61.18</ele><time>2026-09-01T18:37:40Z</time></trkpt><trkpt lat="59.4714366272" lon="31.1269180197"><ele>60.70</ele><time>2026-09-01T18:37:46Z</time></trkpt><trkpt lat="59.4714619406" lon="31.1268723384"><ele>61.18</ele><time>2026-09-01T18:37:56Z</time></trkpt><trkpt lat="59.4715010840" lon="31.1268692371"><ele>60.70</ele><time>2026-09-01T18:38:03Z</time></trkpt><trkpt lat="59.4714321010" lon="31.1268936284"><ele>60.22</ele><time>2026-09-01T18:38:10Z</time></trkpt><trkpt lat="59.4714688137" lon="31.1269036867"><ele>60.22</ele><time>2026-09-01T18:38:19Z</time></trkpt><trkpt lat="59.4715030957" lon="31.1268892698"><ele>60.70</ele><time>2026-09-01T18:38:25Z</time></trkpt><trkpt lat="59.4715257268" lon="31.1269521341"><ele>61.18</ele><time>2026-09-01T18:38:33Z</time></trkpt><trkpt lat="59.4715315942" lon="31.1270191893"><ele>60.70</ele><time>2026-09-01T18:38:40Z</time></trkpt><trkpt lat="59.4714963902" lon="31.1271569878"><ele>60.70</ele><time>2026-09-01T18:38:56Z</time></trkpt><trkpt lat="59.4714627787" lon="31.1271496117"><ele>60.22</ele><time>2026-09-01T18:39:09Z</time></trkpt><trkpt lat="59.4714877568" lon="31.1271438282"><ele>60.70</ele><time>2026-09-01T18:39:17Z</time></trkpt><trkpt lat="59.4714827277" lon="31.1271400563"><ele>59.74</ele><time>2026-09-01T18:39:29Z</time></trkpt><trkpt lat="59.4714949653" lon="31.1271517072"><ele>60.70</ele><time>2026-09-01T18:39:44Z</time></trkpt><trkpt lat="59.4715457596" lon="31.1271431576"><ele>60.70</ele><time>2026-09-01T18:39:55Z</time></trkpt><trkpt lat="59.4715928659" lon="31.1272333469"><ele>60.70</ele><time>2026-09-01T18:40:02Z</time></trkpt><trkpt lat="59.4716496114" lon="31.1273053475"><ele>60.70</ele><time>2026-09-01T18:40:13Z</time></trkpt><trkpt lat="59.4716252200" lon="31.1273757555"><ele>60.22</ele><time>2026-09-01T18:40:25Z</time></trkpt><trkpt lat="59.4716221187" lon="31.1273883283"><ele>60.70</ele><time>2026-09-01T18:40:38Z</time></trkpt><trkpt lat="59.4716482703" lon="31.1274532042"><ele>60.22</ele><time>2026-09-01T18:40:48Z</time></trkpt><trkpt lat="59.4716425706" lon="31.1274595745"><ele>60.70</ele><time>2026-09-01T18:40:56Z</time></trkpt><trkpt lat="59.4715217035" lon="31.1274209339"><ele>60.70</ele><time>2026-09-01T18:41:06Z</time></trkpt><trkpt lat="59.4714821409" lon="31.1274941079"><ele>60.70</ele><time>2026-09-01T18:41:15Z</time></trkpt><trkpt lat="59.4714626949" lon="31.1275987979"><ele>60.22</ele><time>2026-09-01T18:41:23Z</time></trkpt><trkpt lat="59.4714545645" lon="31.1277406197"><ele>60.70</ele><time>2026-09-01T18:41:32Z</time></trkpt><trkpt lat="59.4714318495" lon="31.1278359219"><ele>60.70</ele><time>2026-09-01T18:41:40Z</time></trkpt><trkpt lat="59.4714599289" lon="31.1279328167"><ele>60.22</ele><time>2026-09-01T18:41:49Z</time></trkpt><trkpt lat="59.4714474399" lon="31.1280788295"><ele>60.70</ele><time>2026-09-01T18:41:58Z</time></trkpt><trkpt lat="59.4713796303" lon="31.1281400174"><ele>60.70</ele><time>2026-09-01T18:42:14Z</time></trkpt><trkpt lat="59.4713999145" lon="31.1281606369"><ele>60.22</ele><time>2026-09-01T18:42:24Z</time></trkpt><trkpt lat="59.4714282453" lon="31.1283007823"><ele>60.70</ele><time>2026-09-01T18:42:35Z</time></trkpt><trkpt lat="59.4714352023" lon="31.1284362338"><ele>60.22</ele><time>2026-09-01T18:42:43Z</time></trkpt><trkpt lat="59.4714913610" lon="31.1284585297"><ele>60.22</ele><time>2026-09-01T18:42:53Z</time></trkpt><trkpt lat="59.4714689814" lon="31.1285198852"><ele>60.70</ele><time>2026-09-01T18:43:01Z</time></trkpt><trkpt lat="59.4714885112" lon="31.1285692547"><ele>59.74</ele><time>2026-09-01T18:43:07Z</time></trkpt><trkpt lat="59.4714803807" lon="31.1286051292"><ele>60.22</ele><time>2026-09-01T18:43:16Z</time></trkpt><trkpt lat="59.4714852422" lon="31.1286683287"><ele>60.70</ele><time>2026-09-01T18:43:23Z</time></trkpt><trkpt lat="59.4714375492" lon="31.1287317798"><ele>60.22</ele><time>2026-09-01T18:43:32Z</time></trkpt><trkpt lat="59.4714029320" lon="31.1288000923"><ele>60.22</ele><time>2026-09-01T18:43:38Z</time></trkpt><trkpt lat="59.4713837374" lon="31.1288171913"><ele>60.70</ele><time>2026-09-01T18:43:45Z</time></trkpt><trkpt lat="59.4713787921" lon="31.1288629565"><ele>59.74</ele><time>2026-09-01T18:43:54Z</time></trkpt><trkpt lat="59.4713997468" lon="31.1288376432"><ele>60.22</ele><time>2026-09-01T18:44:05Z</time></trkpt><trkpt lat="59.4715042692" lon="31.1287108250"><ele>59.74</ele><time>2026-09-01T18:44:20Z</time></trkpt><trkpt lat="59.4715811312" lon="31.1288699135"><ele>59.74</ele><time>2026-09-01T18:44:34Z</time></trkpt><trkpt lat="59.4715672173" lon="31.1291236337"><ele>60.22</ele><time>2026-09-01T18:44:47Z</time></trkpt><trkpt lat="59.4716046844" lon="31.1292465962"><ele>59.74</ele><time>2026-09-01T18:45:01Z</time></trkpt><trkpt lat="59.4716272317" lon="31.1293805391"><ele>59.26</ele><time>2026-09-01T18:45:15Z</time></trkpt><trkpt lat="59.4716154132" lon="31.1294599995"><ele>59.26</ele><time>2026-09-01T18:45:28Z</time></trkpt><trkpt lat="59.4715876691" lon="31.1295754183"><ele>59.26</ele><time>2026-09-01T18:45:40Z</time></trkpt><trkpt lat="59.4715831429" lon="31.1296653561"><ele>59.74</ele><time>2026-09-01T18:45:53Z</time></trkpt><trkpt lat="59.4716520421" lon="31.1296640988"><ele>59.26</ele><time>2026-09-01T18:46:07Z</time></trkpt><trkpt lat="59.4716972206" lon="31.1297603231"><ele>59.26</ele><time>2026-09-01T18:46:18Z</time></trkpt><trkpt lat="59.4716536347" lon="31.1299489159"><ele>59.74</ele><time>2026-09-01T18:46:27Z</time></trkpt><trkpt lat="59.4716491923" lon="31.1300594732"><ele>59.74</ele><time>2026-09-01T18:46:37Z</time></trkpt><trkpt lat="59.4716033433" lon="31.1301914882"><ele>59.26</ele><time>2026-09-01T18:46:47Z</time></trkpt><trkpt lat="59.4716049358" lon="31.1302488204"><ele>59.74</ele><time>2026-09-01T18:46:57Z</time></trkpt><trkpt lat="59.4715911057" lon="31.1303516664"><ele>59.26</ele><time>2026-09-01T18:47:09Z</time></trkpt><trkpt lat="59.4714357052" lon="31.1304558534"><ele>60.22</ele><time>2026-09-01T18:47:20Z</time></trkpt><trkpt lat="59.4714222942" lon="31.1305032112"><ele>59.74</ele><time>2026-09-01T18:47:35Z</time></trkpt><trkpt lat="59.4714240544" lon="31.1305107549"><ele>59.26</ele><time>2026-09-01T18:47:49Z</time></trkpt><trkpt lat="59.4714430813" lon="31.1306585278"><ele>59.74</ele><time>2026-09-01T18:48:01Z</time></trkpt><trkpt lat="59.4715403952" lon="31.1307988409"><ele>59.26</ele><time>2026-09-01T18:48:14Z</time></trkpt><trkpt lat="59.4715434127" lon="31.1309465300"><ele>59.74</ele><time>2026-09-01T18:48:27Z</time></trkpt><trkpt lat="59.4715159200" lon="31.1310513876"><ele>59.74</ele><time>2026-09-01T18:48:37Z</time></trkpt><trkpt lat="59.4715156686" lon="31.1313093826"><ele>59.26</ele><time>2026-09-01T18:48:51Z</time></trkpt><trkpt lat="59.4715464301" lon="31.1313517950"><ele>59.26</ele><time>2026-09-01T18:49:00Z</time></trkpt><trkpt lat="59.4715405628" lon="31.1315506138"><ele>59.26</ele><time>2026-09-01T18:49:13Z</time></trkpt><trkpt lat="59.4715814665" lon="31.1317360215"><ele>59.74</ele><time>2026-09-01T18:49:23Z</time></trkpt><trkpt lat="59.4715552311" lon="31.1318005621"><ele>59.26</ele><time>2026-09-01T18:49:35Z</time></trkpt><trkpt lat="59.4715638645" lon="31.1319556274"><ele>59.26</ele><time>2026-09-01T18:49:46Z</time></trkpt><trkpt lat="59.4715596735" lon="31.1320332438"><ele>59.74</ele><time>2026-09-01T18:49:56Z</time></trkpt><trkpt lat="59.4715284929" lon="31.1321718805"><ele>58.78</ele><time>2026-09-01T18:50:07Z</time></trkpt><trkpt lat="59.4714885950" lon="31.1323362496"><ele>59.74</ele><time>2026-09-01T18:50:19Z</time></trkpt><trkpt lat="59.4715028442" lon="31.1325189751"><ele>58.30</ele><time>2026-09-01T18:50:30Z</time></trkpt><trkpt lat="59.4714916125" lon="31.1326033808"><ele>59.26</ele><time>2026-09-01T18:50:41Z</time></trkpt><trkpt lat="59.4715164229" lon="31.1326908879"><ele>58.78</ele><time>2026-09-01T18:50:54Z</time></trkpt><trkpt lat="59.4715764374" lon="31.1328252498"><ele>59.26</ele><time>2026-09-01T18:51:05Z</time></trkpt><trkpt lat="59.4715644512" lon="31.1329941452"><ele>59.26</ele><time>2026-09-01T18:51:15Z</time></trkpt><trkpt lat="59.4715585001" lon="31.1331057921"><ele>58.78</ele><time>2026-09-01T18:51:26Z</time></trkpt><trkpt lat="59.4715339411" lon="31.1332982406"><ele>59.26</ele><time>2026-09-01T18:51:40Z</time></trkpt><trkpt lat="59.4715122320" lon="31.1333502922"><ele>58.78</ele><time>2026-09-01T18:51:55Z</time></trkpt><trkpt lat="59.4715673011" lon="31.1333500408"><ele>59.26</ele><time>2026-09-01T18:52:14Z</time></trkpt><trkpt lat="59.4715516269" lon="31.1334596761"><ele>58.78</ele><time>2026-09-01T18:52:24Z</time></trkpt><trkpt lat="59.4715559017" lon="31.1336046830"><ele>59.26</ele><time>2026-09-01T18:52:37Z</time></trkpt><trkpt lat="59.4715453405" lon="31.1337151565"><ele>58.78</ele><time>2026-09-01T18:52:47Z</time></trkpt><trkpt lat="59.4715060294" lon="31.1338660307"><ele>59.26</ele><time>2026-09-01T18:52:58Z</time></trkpt><trkpt lat="59.4715144113" lon="31.1339656916"><ele>59.26</ele><time>2026-09-01T18:53:07Z</time></trkpt><trkpt lat="59.4715247210" lon="31.1340403743"><ele>58.78</ele><time>2026-09-01T18:53:17Z</time></trkpt><trkpt lat="59.4715313427" lon="31.1340402067"><ele>58.78</ele><time>2026-09-01T18:53:31Z</time></trkpt><trkpt lat="59.4715134054" lon="31.1339707207"><ele>58.30</ele><time>2026-09-01T18:53:44Z</time></trkpt><trkpt lat="59.4714802969" lon="31.1339560524"><ele>58.78</ele><time>2026-09-01T18:53:53Z</time></trkpt><trkpt lat="59.4714777824" lon="31.1339475028"><ele>57.82</ele><time>2026-09-01T18:54:09Z</time></trkpt><trkpt lat="59.4714737590" lon="31.1340718903"><ele>58.78</ele><time>2026-09-01T18:54:19Z</time></trkpt><trkpt lat="59.4713457674" lon="31.1341171525"><ele>58.30</ele><time>2026-09-01T18:54:31Z</time></trkpt><trkpt lat="59.4714467693" lon="31.1341686174"><ele>59.26</ele><time>2026-09-01T18:54:42Z</time></trkpt><trkpt lat="59.4714840688" lon="31.1343075894"><ele>59.26</ele><time>2026-09-01T18:54:50Z</time></trkpt><trkpt lat="59.4714455958" lon="31.1344106868"><ele>58.30</ele><time>2026-09-01T18:54:58Z</time></trkpt><trkpt lat="59.4714874215" lon="31.1346213240"><ele>58.78</ele><time>2026-09-01T18:55:06Z</time></trkpt><trkpt lat="59.4714967255" lon="31.1347395089"><ele>58.78</ele><time>2026-09-01T18:55:16Z</time></trkpt><trkpt lat="59.4715354498" lon="31.1348697636"><ele>59.26</ele><time>2026-09-01T18:55:26Z</time></trkpt><trkpt lat="59.4715573266" lon="31.1349853501"><ele>59.74</ele><time>2026-09-01T18:55:36Z</time></trkpt><trkpt lat="59.4715523813" lon="31.1351258308"><ele>59.26</ele><time>2026-09-01T18:55:46Z</time></trkpt><trkpt lat="59.4715123158" lon="31.1352262460"><ele>58.30</ele><time>2026-09-01T18:55:55Z</time></trkpt><trkpt lat="59.4715450890" lon="31.1353518907"><ele>58.30</ele><time>2026-09-01T18:56:04Z</time></trkpt><trkpt lat="59.4715343602" lon="31.1354703270"><ele>58.78</ele><time>2026-09-01T18:56:14Z</time></trkpt><trkpt lat="59.4715468492" lon="31.1356135737"><ele>58.78</ele><time>2026-09-01T18:56:26Z</time></trkpt><trkpt lat="59.4715323485" lon="31.1356898490"><ele>58.30</ele><time>2026-09-01T18:56:35Z</time></trkpt><trkpt lat="59.4715931173" lon="31.1358556431"><ele>58.30</ele><time>2026-09-01T18:56:50Z</time></trkpt><trkpt lat="59.4714565761" lon="31.1360085290"><ele>58.78</ele><time>2026-09-01T18:57:04Z</time></trkpt><trkpt lat="59.4714560732" lon="31.1360251252"><ele>59.26</ele><time>2026-09-01T18:57:13Z</time></trkpt><trkpt lat="59.4714737590" lon="31.1359832995"><ele>57.82</ele><time>2026-09-01T18:57:23Z</time></trkpt><trkpt lat="59.4714712445" lon="31.1360197607"><ele>58.30</ele><time>2026-09-01T18:57:34Z</time></trkpt><trkpt lat="59.4714601804" lon="31.1361005623"><ele>57.82</ele><time>2026-09-01T18:57:42Z</time></trkpt><trkpt lat="59.4714779500" lon="31.1362907477"><ele>57.34</ele><time>2026-09-01T18:57:54Z</time></trkpt><trkpt lat="59.4714322686" lon="31.1364158057"><ele>57.82</ele><time>2026-09-01T18:58:04Z</time></trkpt><trkpt lat="59.4714435842" lon="31.1365165561"><ele>57.34</ele><time>2026-09-01T18:58:13Z</time></trkpt><trkpt lat="59.4714436680" lon="31.1366557796"><ele>57.34</ele><time>2026-09-01T18:58:21Z</time></trkpt><trkpt lat="59.4714372139" lon="31.1367316358"><ele>56.86</ele><time>2026-09-01T18:58:30Z</time></trkpt><trkpt lat="59.4715513755" lon="31.1369348969"><ele>57.82</ele><time>2026-09-01T18:58:42Z</time></trkpt><trkpt lat="59.4715440832" lon="31.1369771417"><ele>57.82</ele><time>2026-09-01T18:58:51Z</time></trkpt><trkpt lat="59.4715573266" lon="31.1370462086"><ele>57.34</ele><time>2026-09-01T18:59:01Z</time></trkpt><trkpt lat="59.4715300016" lon="31.1371180415"><ele>57.34</ele><time>2026-09-01T18:59:10Z</time></trkpt><trkpt lat="59.4715072867" lon="31.1371944845"><ele>56.37</ele><time>2026-09-01T18:59:19Z</time></trkpt><trkpt lat="59.4714739267" lon="31.1373064667"><ele>56.86</ele><time>2026-09-01T18:59:26Z</time></trkpt><trkpt lat="59.4714528881" lon="31.1374394037"><ele>56.86</ele><time>2026-09-01T18:59:35Z</time></trkpt><trkpt lat="59.4714495353" lon="31.1375881825"><ele>56.86</ele><time>2026-09-01T18:59:44Z</time></trkpt><trkpt lat="59.4714393932" lon="31.1377240531"><ele>56.37</ele><time>2026-09-01T18:59:54Z</time></trkpt><trkpt lat="59.4714350346" lon="31.1376689840"><ele>56.86</ele><time>2026-09-01T19:00:08Z</time></trkpt><trkpt lat="59.4714067876" lon="31.1376452632"><ele>57.34</ele><time>2026-09-01T19:00:19Z</time></trkpt><trkpt lat="59.4713554904" lon="31.1377606820"><ele>56.37</ele><time>2026-09-01T19:00:32Z</time></trkpt><trkpt lat="59.4713880960" lon="31.1378554814"><ele>56.86</ele><time>2026-09-01T19:00:43Z</time></trkpt><trkpt lat="59.4713109825" lon="31.1378259771"><ele>56.37</ele><time>2026-09-01T19:00:51Z</time></trkpt><trkpt lat="59.4713324402" lon="31.1378608458"><ele>56.86</ele><time>2026-09-01T19:00:58Z</time></trkpt><trkpt lat="59.4713696558" lon="31.1379087903"><ele>56.37</ele><time>2026-09-01T19:01:09Z</time></trkpt><trkpt lat="59.4713281654" lon="31.1379176751"><ele>56.37</ele><time>2026-09-01T19:01:22Z</time></trkpt><trkpt lat="59.4712285884" lon="31.1379957106"><ele>56.86</ele><time>2026-09-01T19:01:38Z</time></trkpt><trkpt lat="59.4712577574" lon="31.1379058566"><ele>56.37</ele><time>2026-09-01T19:01:47Z</time></trkpt><trkpt lat="59.4712758623" lon="31.1379688885"><ele>56.37</ele><time>2026-09-01T19:01:55Z</time></trkpt><trkpt lat="59.4713123236" lon="31.1380900908"><ele>56.37</ele><time>2026-09-01T19:02:07Z</time></trkpt><trkpt lat="59.4713352062" lon="31.1381532904"><ele>56.37</ele><time>2026-09-01T19:02:18Z</time></trkpt><trkpt lat="59.4713511318" lon="31.1382361874"><ele>56.37</ele><time>2026-09-01T19:02:26Z</time></trkpt><trkpt lat="59.4714090507" lon="31.1382594053"><ele>56.86</ele><time>2026-09-01T19:02:36Z</time></trkpt><trkpt lat="59.4714857452" lon="31.1383811943"><ele>55.89</ele><time>2026-09-01T19:02:44Z</time></trkpt><trkpt lat="59.4715506211" lon="31.1384326592"><ele>56.37</ele><time>2026-09-01T19:02:56Z</time></trkpt><trkpt lat="59.4715792872" lon="31.1384314857"><ele>56.37</ele><time>2026-09-01T19:03:00Z</time></trkpt><trkpt lat="59.4715500344" lon="31.1386608146"><ele>55.41</ele><time>2026-09-01T19:03:08Z</time></trkpt><trkpt lat="59.4715093821" lon="31.1388376728"><ele>56.86</ele><time>2026-09-01T19:03:20Z</time></trkpt><trkpt lat="59.4715400599" lon="31.1389777344"><ele>56.37</ele><time>2026-09-01T19:03:31Z</time></trkpt><trkpt lat="59.4715493638" lon="31.1391921435"><ele>55.89</ele><time>2026-09-01T19:03:41Z</time></trkpt><trkpt lat="59.4715082925" lon="31.1392517388"><ele>55.89</ele><time>2026-09-01T19:03:54Z</time></trkpt><trkpt lat="59.4714782014" lon="31.1393647268"><ele>55.89</ele><time>2026-09-01T19:04:06Z</time></trkpt><trkpt lat="59.4714823924" lon="31.1392845958"><ele>55.89</ele><time>2026-09-01T19:04:19Z</time></trkpt><trkpt lat="59.4715388864" lon="31.1394185387"><ele>55.89</ele><time>2026-09-01T19:04:32Z</time></trkpt><trkpt lat="59.4715326000" lon="31.1396527290"><ele>55.89</ele><time>2026-09-01T19:04:44Z</time></trkpt><trkpt lat="59.4715944584" lon="31.1396567523"><ele>55.41</ele><time>2026-09-01T19:04:59Z</time></trkpt><trkpt lat="59.4715179317" lon="31.1397821456"><ele>55.41</ele><time>2026-09-01T19:05:11Z</time></trkpt><trkpt lat="59.4715450052" lon="31.1398604326"><ele>55.41</ele><time>2026-09-01T19:05:20Z</time></trkpt><trkpt lat="59.4715886749" lon="31.1399912741"><ele>54.93</ele><time>2026-09-01T19:05:32Z</time></trkpt><trkpt lat="59.4715608470" lon="31.1401250493"><ele>56.37</ele><time>2026-09-01T19:05:38Z</time></trkpt><trkpt lat="59.4715818856" lon="31.1402356904"><ele>54.93</ele><time>2026-09-01T19:05:46Z</time></trkpt><trkpt lat="59.4715445023" lon="31.1402248777"><ele>54.93</ele><time>2026-09-01T19:06:03Z</time></trkpt><trkpt lat="59.4716064446" lon="31.1402891669"><ele>54.93</ele><time>2026-09-01T19:06:21Z</time></trkpt><trkpt lat="59.4715989847" lon="31.1403886601"><ele>54.45</ele><time>2026-09-01T19:06:31Z</time></trkpt><trkpt lat="59.4715656247" lon="31.1405041628"><ele>54.93</ele><time>2026-09-01T19:06:42Z</time></trkpt><trkpt lat="59.4715571590" lon="31.1406210903"><ele>54.93</ele><time>2026-09-01T19:06:50Z</time></trkpt><trkpt lat="59.4715788681" lon="31.1407300550"><ele>56.86</ele><time>2026-09-01T19:06:59Z</time></trkpt><trkpt lat="59.4715368748" lon="31.1408649199"><ele>54.93</ele><time>2026-09-01T19:07:10Z</time></trkpt><trkpt lat="59.4715103880" lon="31.1410147045"><ele>54.45</ele><time>2026-09-01T19:07:19Z</time></trkpt><trkpt lat="59.4714747649" lon="31.1411110964"><ele>54.45</ele><time>2026-09-01T19:07:29Z</time></trkpt><trkpt lat="59.4714619406" lon="31.1412621383"><ele>54.45</ele><time>2026-09-01T19:07:38Z</time></trkpt><trkpt lat="59.4714587554" lon="31.1413500644"><ele>54.93</ele><time>2026-09-01T19:07:46Z</time></trkpt><trkpt lat="59.4713956397" lon="31.1413961649"><ele>54.45</ele><time>2026-09-01T19:07:59Z</time></trkpt><trkpt lat="59.4714170974" lon="31.1414428521"><ele>53.97</ele><time>2026-09-01T19:08:08Z</time></trkpt><trkpt lat="59.4714557379" lon="31.1415003520"><ele>53.97</ele><time>2026-09-01T19:08:15Z</time></trkpt><trkpt lat="59.4714905228" lon="31.1415268388"><ele>53.97</ele><time>2026-09-01T19:08:25Z</time></trkpt><trkpt lat="59.4714810513" lon="31.1416280083"><ele>53.97</ele><time>2026-09-01T19:08:35Z</time></trkpt><trkpt lat="59.4714723341" lon="31.1417150963"><ele>53.97</ele><time>2026-09-01T19:08:46Z</time></trkpt><trkpt lat="59.4714770280" lon="31.1417494621"><ele>53.97</ele><time>2026-09-01T19:08:49Z</time></trkpt><trkpt lat="59.4715282414" lon="31.1417858396"><ele>53.97</ele><time>2026-09-01T19:08:57Z</time></trkpt><trkpt lat="59.4715082925" lon="31.1418400705"><ele>53.49</ele><time>2026-09-01T19:09:10Z</time></trkpt><trkpt lat="59.4714970607" lon="31.1417979933"><ele>53.97</ele><time>2026-09-01T19:09:19Z</time></trkpt><trkpt lat="59.4715165906" lon="31.1418207083"><ele>53.97</ele><time>2026-09-01T19:09:38Z</time></trkpt><trkpt lat="59.4714999944" lon="31.1418249831"><ele>53.49</ele><time>2026-09-01T19:09:57Z</time></trkpt><trkpt lat="59.4714403991" lon="31.1418275815"><ele>51.09</ele><time>2026-09-01T19:10:07Z</time></trkpt><trkpt lat="59.4714391418" lon="31.1418307666"><ele>55.41</ele><time>2026-09-01T19:10:08Z</time></trkpt><trkpt lat="59.4714915287" lon="31.1418967322"><ele>53.49</ele><time>2026-09-01T19:10:20Z</time></trkpt><trkpt lat="59.4715301692" lon="31.1420414038"><ele>53.49</ele><time>2026-09-01T19:10:29Z</time></trkpt><trkpt lat="59.4715069514" lon="31.1421516258"><ele>53.97</ele><time>2026-09-01T19:10:37Z</time></trkpt><trkpt lat="59.4714913610" lon="31.1421518773"><ele>53.97</ele><time>2026-09-01T19:10:50Z</time></trkpt><trkpt lat="59.4714796264" lon="31.1422023363"><ele>53.97</ele><time>2026-09-01T19:10:57Z</time></trkpt><trkpt lat="59.4714765251" lon="31.1422987282"><ele>53.97</ele><time>2026-09-01T19:11:05Z</time></trkpt><trkpt lat="59.4714992400" lon="31.1423716508"><ele>53.97</ele><time>2026-09-01T19:11:15Z</time></trkpt><trkpt lat="59.4714431651" lon="31.1424431484"><ele>53.97</ele><time>2026-09-01T19:11:23Z</time></trkpt><trkpt lat="59.4714181870" lon="31.1424482614"><ele>53.97</ele><time>2026-09-01T19:11:31Z</time></trkpt><trkpt lat="59.4713967294" lon="31.1424765922"><ele>53.97</ele><time>2026-09-01T19:11:39Z</time></trkpt><trkpt lat="59.4713871740" lon="31.1424527038"><ele>53.49</ele><time>2026-09-01T19:11:53Z</time></trkpt><trkpt lat="59.4713637047" lon="31.1424438190"><ele>53.49</ele><time>2026-09-01T19:12:03Z</time></trkpt><trkpt lat="59.4713184424" lon="31.1424092855"><ele>54.45</ele><time>2026-09-01T19:12:12Z</time></trkpt><trkpt lat="59.4712906983" lon="31.1423599999"><ele>54.45</ele><time>2026-09-01T19:12:19Z</time></trkpt><trkpt lat="59.4712943863" lon="31.1424252111"><ele>53.97</ele><time>2026-09-01T19:12:29Z</time></trkpt><trkpt lat="59.4712572545" lon="31.1424779333"><ele>54.45</ele><time>2026-09-01T19:12:36Z</time></trkpt><trkpt lat="59.4711893611" lon="31.1424667854"><ele>54.45</ele><time>2026-09-01T19:12:46Z</time></trkpt><trkpt lat="59.4711218029" lon="31.1424517818"><ele>54.45</ele><time>2026-09-01T19:12:53Z</time></trkpt><trkpt lat="59.4710640516" lon="31.1424394604"><ele>53.49</ele><time>2026-09-01T19:13:01Z</time></trkpt><trkpt lat="59.4710138440" lon="31.1424430646"><ele>53.97</ele><time>2026-09-01T19:13:10Z</time></trkpt><trkpt lat="59.4710006844" lon="31.1424184218"><ele>53.49</ele><time>2026-09-01T19:13:17Z</time></trkpt><trkpt lat="59.4709453639" lon="31.1424112134"><ele>54.45</ele><time>2026-09-01T19:13:25Z</time></trkpt><trkpt lat="59.4709263369" lon="31.1423073616"><ele>53.97</ele><time>2026-09-01T19:13:33Z</time></trkpt><trkpt lat="59.4708592817" lon="31.1422800366"><ele>53.97</ele><time>2026-09-01T19:13:42Z</time></trkpt><trkpt lat="59.4708084036" lon="31.1422612611"><ele>53.49</ele><time>2026-09-01T19:13:50Z</time></trkpt><trkpt lat="59.4708101638" lon="31.1422094610"><ele>53.49</ele><time>2026-09-01T19:13:57Z</time></trkpt><trkpt lat="59.4708135165" lon="31.1421812978"><ele>53.49</ele><time>2026-09-01T19:14:05Z</time></trkpt><trkpt lat="59.4708006922" lon="31.1421700660"><ele>53.97</ele><time>2026-09-01T19:14:14Z</time></trkpt><trkpt lat="59.4708095770" lon="31.1422106344"><ele>53.97</ele><time>2026-09-01T19:14:26Z</time></trkpt><trkpt lat="59.4707733672" lon="31.1421579123"><ele>53.49</ele><time>2026-09-01T19:14:36Z</time></trkpt><trkpt lat="59.4707659911" lon="31.1420802120"><ele>53.49</ele><time>2026-09-01T19:14:47Z</time></trkpt><trkpt lat="59.4707475509" lon="31.1420829780"><ele>54.45</ele><time>2026-09-01T19:14:53Z</time></trkpt><trkpt lat="59.4706826750" lon="31.1420442536"><ele>53.97</ele><time>2026-09-01T19:15:00Z</time></trkpt><trkpt lat="59.4706478901" lon="31.1419608537"><ele>54.45</ele><time>2026-09-01T19:15:07Z</time></trkpt><trkpt lat="59.4706498180" lon="31.1419179384"><ele>53.97</ele><time>2026-09-01T19:15:14Z</time></trkpt><trkpt lat="59.4706359040" lon="31.1419117358"><ele>53.49</ele><time>2026-09-01T19:15:22Z</time></trkpt><trkpt lat="59.4706103392" lon="31.1420137435"><ele>53.97</ele><time>2026-09-01T19:15:29Z</time></trkpt><trkpt lat="59.4705670048" lon="31.1421125662"><ele>53.49</ele><time>2026-09-01T19:15:35Z</time></trkpt><trkpt lat="59.4705583714" lon="31.1421851534"><ele>53.49</ele><time>2026-09-01T19:15:43Z</time></trkpt><trkpt lat="59.4705314655" lon="31.1422115564"><ele>54.45</ele><time>2026-09-01T19:15:50Z</time></trkpt><trkpt lat="59.4705440383" lon="31.1423167493"><ele>53.49</ele><time>2026-09-01T19:15:57Z</time></trkpt><trkpt lat="59.4705304597" lon="31.1424260493"><ele>53.01</ele><time>2026-09-01T19:16:04Z</time></trkpt><trkpt lat="59.4704704452" lon="31.1424585711"><ele>53.49</ele><time>2026-09-01T19:16:12Z</time></trkpt><trkpt lat="59.4704390969" lon="31.1423887499"><ele>53.49</ele><time>2026-09-01T19:16:20Z</time></trkpt><trkpt lat="59.4704382587" lon="31.1424511950"><ele>53.49</ele><time>2026-09-01T19:16:27Z</time></trkpt><trkpt lat="59.4704174716" lon="31.1424926016"><ele>53.97</ele><time>2026-09-01T19:16:35Z</time></trkpt><trkpt lat="59.4703945890" lon="31.1425390374"><ele>53.97</ele><time>2026-09-01T19:16:47Z</time></trkpt><trkpt lat="59.4703800883" lon="31.1425292306"><ele>54.93</ele><time>2026-09-01T19:17:07Z</time></trkpt><trkpt lat="59.4703721255" lon="31.1424838006"><ele>54.45</ele><time>2026-09-01T19:17:14Z</time></trkpt><trkpt lat="59.4703447167" lon="31.1425026599"><ele>54.45</ele><time>2026-09-01T19:17:21Z</time></trkpt><trkpt lat="59.4703309704" lon="31.1425250396"><ele>53.97</ele><time>2026-09-01T19:17:33Z</time></trkpt><trkpt lat="59.4702698663" lon="31.1424918473"><ele>53.97</ele><time>2026-09-01T19:17:40Z</time></trkpt><trkpt lat="59.4702323992" lon="31.1424594093"><ele>53.49</ele><time>2026-09-01T19:17:50Z</time></trkpt><trkpt lat="59.4701969437" lon="31.1424474232"><ele>53.49</ele><time>2026-09-01T19:17:57Z</time></trkpt><trkpt lat="59.4701733906" lon="31.1424076930"><ele>53.49</ele><time>2026-09-01T19:18:13Z</time></trkpt><trkpt lat="59.4701606501" lon="31.1424338445"><ele>53.49</ele><time>2026-09-01T19:18:23Z</time></trkpt><trkpt lat="59.4701485801" lon="31.1423850618"><ele>53.49</ele><time>2026-09-01T19:18:39Z</time></trkpt><trkpt lat="59.4701723009" lon="31.1423628498"><ele>53.49</ele><time>2026-09-01T19:18:53Z</time></trkpt><trkpt lat="59.4701841194" lon="31.1423320044"><ele>53.49</ele><time>2026-09-01T19:18:59Z</time></trkpt><trkpt lat="59.4702107739" lon="31.1422780249"><ele>53.01</ele><time>2026-09-01T19:19:05Z</time></trkpt><trkpt lat="59.4702235144" lon="31.1423021648"><ele>53.97</ele><time>2026-09-01T19:19:10Z</time></trkpt><trkpt lat="59.4702184852" lon="31.1422918551"><ele>54.45</ele><time>2026-09-01T19:19:22Z</time></trkpt><trkpt lat="59.4702287950" lon="31.1422772706"><ele>54.45</ele><time>2026-09-01T19:19:45Z</time></trkpt><trkpt lat="59.4702596404" lon="31.1422979739"><ele>54.45</ele><time>2026-09-01T19:20:02Z</time></trkpt><trkpt lat="59.4702704530" lon="31.1422908492"><ele>54.45</ele><time>2026-09-01T19:20:09Z</time></trkpt><trkpt lat="59.4702914916" lon="31.1422924418"><ele>53.97</ele><time>2026-09-01T19:20:20Z</time></trkpt><trkpt lat="59.4703087583" lon="31.1423431523"><ele>53.97</ele><time>2026-09-01T19:20:31Z</time></trkpt><trkpt lat="59.4703048188" lon="31.1423491035"><ele>54.45</ele><time>2026-09-01T19:20:48Z</time></trkpt><trkpt lat="59.4703079201" lon="31.1422217824"><ele>54.93</ele><time>2026-09-01T19:20:57Z</time></trkpt><trkpt lat="59.4703191519" lon="31.1421243008"><ele>54.45</ele><time>2026-09-01T19:21:05Z</time></trkpt><trkpt lat="59.4703772385" lon="31.1420464329"><ele>53.97</ele><time>2026-09-01T19:21:16Z</time></trkpt><trkpt lat="59.4703880511" lon="31.1419915315"><ele>53.97</ele><time>2026-09-01T19:21:24Z</time></trkpt><trkpt lat="59.4703800045" lon="31.1419105623"><ele>54.45</ele><time>2026-09-01T19:21:31Z</time></trkpt><trkpt lat="59.4703230076" lon="31.1418281682"><ele>54.45</ele><time>2026-09-01T19:21:38Z</time></trkpt><trkpt lat="59.4702810980" lon="31.1417476181"><ele>54.45</ele><time>2026-09-01T19:21:46Z</time></trkpt><trkpt lat="59.4702762365" lon="31.1416964047"><ele>53.97</ele><time>2026-09-01T19:21:54Z</time></trkpt><trkpt lat="59.4702140428" lon="31.1415599473"><ele>54.45</ele><time>2026-09-01T19:22:03Z</time></trkpt><trkpt lat="59.4701511785" lon="31.1414186284"><ele>53.97</ele><time>2026-09-01T19:22:11Z</time></trkpt><trkpt lat="59.4701298885" lon="31.1413307860"><ele>53.97</ele><time>2026-09-01T19:22:19Z</time></trkpt><trkpt lat="59.4701313972" lon="31.1412908044"><ele>53.97</ele><time>2026-09-01T19:22:27Z</time></trkpt><trkpt lat="59.4701543637" lon="31.1412244197"><ele>54.45</ele><time>2026-09-01T19:22:34Z</time></trkpt><trkpt lat="59.4701603148" lon="31.1411706917"><ele>53.97</ele><time>2026-09-01T19:22:40Z</time></trkpt><trkpt lat="59.4701588061" lon="31.1410882138"><ele>54.45</ele><time>2026-09-01T19:22:46Z</time></trkpt><trkpt lat="59.4701865502" lon="31.1409953423"><ele>54.45</ele><time>2026-09-01T19:22:55Z</time></trkpt><trkpt lat="59.4701512624" lon="31.1409352440"><ele>54.45</ele><time>2026-09-01T19:23:01Z</time></trkpt><trkpt lat="59.4701267872" lon="31.1408127844"><ele>54.45</ele><time>2026-09-01T19:23:09Z</time></trkpt><trkpt lat="59.4701042399" lon="31.1407025624"><ele>54.45</ele><time>2026-09-01T19:23:17Z</time></trkpt><trkpt lat="59.4701229315" lon="31.1406709626"><ele>53.97</ele><time>2026-09-01T19:23:28Z</time></trkpt><trkpt lat="59.4701357558" lon="31.1406373512"><ele>53.97</ele><time>2026-09-01T19:23:41Z</time></trkpt><trkpt lat="59.4701135438" lon="31.1406075954"><ele>53.97</ele><time>2026-09-01T19:23:47Z</time></trkpt><trkpt lat="59.4700795971" lon="31.1405694578"><ele>53.97</ele><time>2026-09-01T19:23:55Z</time></trkpt><trkpt lat="59.4700330775" lon="31.1405252852"><ele>54.45</ele><time>2026-09-01T19:24:02Z</time></trkpt><trkpt lat="59.4699720573" lon="31.1404007301"><ele>54.45</ele><time>2026-09-01T19:24:11Z</time></trkpt><trkpt lat="59.4699270464" lon="31.1403129715"><ele>54.45</ele><time>2026-09-01T19:24:20Z</time></trkpt><trkpt lat="59.4699206762" lon="31.1402467545"><ele>53.97</ele><time>2026-09-01T19:24:29Z</time></trkpt><trkpt lat="59.4699272979" lon="31.1401551403"><ele>53.49</ele><time>2026-09-01T19:24:37Z</time></trkpt><trkpt lat="59.4699200056" lon="31.1400347762"><ele>54.45</ele><time>2026-09-01T19:24:44Z</time></trkpt><trkpt lat="59.4699063431" lon="31.1398978159"><ele>54.45</ele><time>2026-09-01T19:24:54Z</time></trkpt><trkpt lat="59.4699441455" lon="31.1398201995"><ele>54.93</ele><time>2026-09-01T19:25:02Z</time></trkpt><trkpt lat="59.4699901622" lon="31.1397339497"><ele>54.93</ele><time>2026-09-01T19:25:09Z</time></trkpt><trkpt lat="59.4699899107" lon="31.1395867635"><ele>53.97</ele><time>2026-09-01T19:25:18Z</time></trkpt><trkpt lat="59.4699977059" lon="31.1394740269"><ele>54.45</ele><time>2026-09-01T19:25:25Z</time></trkpt><trkpt lat="59.4700018968" lon="31.1394526530"><ele>53.97</ele><time>2026-09-01T19:25:35Z</time></trkpt><trkpt lat="59.4700365979" lon="31.1394299380"><ele>53.97</ele><time>2026-09-01T19:25:43Z</time></trkpt><trkpt lat="59.4700779207" lon="31.1393558420"><ele>53.97</ele><time>2026-09-01T19:25:52Z</time></trkpt><trkpt lat="59.4701221772" lon="31.1392741185"><ele>53.97</ele><time>2026-09-01T19:26:02Z</time></trkpt><trkpt lat="59.4701329898" lon="31.1392208934"><ele>54.93</ele><time>2026-09-01T19:26:07Z</time></trkpt><trkpt lat="59.4701614045" lon="31.1391620524"><ele>54.93</ele><time>2026-09-01T19:26:16Z</time></trkpt><trkpt lat="59.4701879751" lon="31.1390831787"><ele>54.45</ele><time>2026-09-01T19:26:24Z</time></trkpt><trkpt lat="59.4702127855" lon="31.1389768962"><ele>54.45</ele><time>2026-09-01T19:26:32Z</time></trkpt><trkpt lat="59.4702480733" lon="31.1388479825"><ele>53.97</ele><time>2026-09-01T19:26:41Z</time></trkpt><trkpt lat="59.4703002088" lon="31.1387732159"><ele>53.49</ele><time>2026-09-01T19:26:52Z</time></trkpt><trkpt lat="59.4703352451" lon="31.1387225892"><ele>53.97</ele><time>2026-09-01T19:27:03Z</time></trkpt><trkpt lat="59.4703282043" lon="31.1386973597"><ele>53.49</ele><time>2026-09-01T19:27:14Z</time></trkpt><trkpt lat="59.4702826906" lon="31.1386602279"><ele>53.49</ele><time>2026-09-01T19:27:23Z</time></trkpt><trkpt lat="59.4702405296" lon="31.1385635845"><ele>54.45</ele><time>2026-09-01T19:27:32Z</time></trkpt><trkpt lat="59.4702130370" lon="31.1384087708"><ele>54.45</ele><time>2026-09-01T19:27:40Z</time></trkpt><trkpt lat="59.4701595604" lon="31.1382818688"><ele>54.45</ele><time>2026-09-01T19:27:47Z</time></trkpt><trkpt lat="59.4701392762" lon="31.1381767597"><ele>54.45</ele><time>2026-09-01T19:27:56Z</time></trkpt><trkpt lat="59.4701142143" lon="31.1381176673"><ele>54.93</ele><time>2026-09-01T19:28:04Z</time></trkpt><trkpt lat="59.4701049104" lon="31.1380494386"><ele>54.45</ele><time>2026-09-01T19:28:12Z</time></trkpt><trkpt lat="59.4701078441" lon="31.1379456706"><ele>53.97</ele><time>2026-09-01T19:28:20Z</time></trkpt><trkpt lat="59.4700723048" lon="31.1378968880"><ele>53.97</ele><time>2026-09-01T19:28:31Z</time></trkpt><trkpt lat="59.4700476620" lon="31.1378968880"><ele>54.93</ele><time>2026-09-01T19:28:45Z</time></trkpt><trkpt lat="59.4700940978" lon="31.1378646176"><ele>54.93</ele><time>2026-09-01T19:28:53Z</time></trkpt><trkpt lat="59.4701134600" lon="31.1377895158"><ele>53.97</ele><time>2026-09-01T19:29:01Z</time></trkpt><trkpt lat="59.4700772502" lon="31.1377166770"><ele>53.97</ele><time>2026-09-01T19:29:10Z</time></trkpt><trkpt lat="59.4700573850" lon="31.1375768669"><ele>53.97</ele><time>2026-09-01T19:29:17Z</time></trkpt><trkpt lat="59.4700847939" lon="31.1374856718"><ele>55.41</ele><time>2026-09-01T19:29:26Z</time></trkpt><trkpt lat="59.4700681139" lon="31.1373174470"><ele>54.45</ele><time>2026-09-01T19:29:36Z</time></trkpt><trkpt lat="59.4700702932" lon="31.1371982563"><ele>54.45</ele><time>2026-09-01T19:29:45Z</time></trkpt><trkpt lat="59.4700662699" lon="31.1370402575"><ele>54.45</ele><time>2026-09-01T19:29:54Z</time></trkpt><trkpt lat="59.4700423814" lon="31.1369706877"><ele>54.45</ele><time>2026-09-01T19:30:02Z</time></trkpt><trkpt lat="59.4700471591" lon="31.1369353998"><ele>55.41</ele><time>2026-09-01T19:30:11Z</time></trkpt><trkpt lat="59.4700576365" lon="31.1368906405"><ele>54.45</ele><time>2026-09-01T19:30:18Z</time></trkpt><trkpt lat="59.4700542837" lon="31.1368109286"><ele>54.45</ele><time>2026-09-01T19:30:26Z</time></trkpt><trkpt lat="59.4700465724" lon="31.1367230862"><ele>54.45</ele><time>2026-09-01T19:30:33Z</time></trkpt><trkpt lat="59.4701106939" lon="31.1366208270"><ele>54.93</ele><time>2026-09-01T19:30:40Z</time></trkpt><trkpt lat="59.4701175671" lon="31.1365639139"><ele>54.93</ele><time>2026-09-01T19:30:48Z</time></trkpt><trkpt lat="59.4701320678" lon="31.1365147121"><ele>54.93</ele><time>2026-09-01T19:30:55Z</time></trkpt><trkpt lat="59.4701439701" lon="31.1364375986"><ele>54.93</ele><time>2026-09-01T19:31:12Z</time></trkpt><trkpt lat="59.4701453112" lon="31.1363712139"><ele>54.45</ele><time>2026-09-01T19:31:26Z</time></trkpt><trkpt lat="59.4701509271" lon="31.1363490857"><ele>53.97</ele><time>2026-09-01T19:31:32Z</time></trkpt><trkpt lat="59.4701846223" lon="31.1362684518"><ele>53.97</ele><time>2026-09-01T19:31:40Z</time></trkpt><trkpt lat="59.4701829460" lon="31.1361943558"><ele>53.97</ele><time>2026-09-01T19:31:46Z</time></trkpt><trkpt lat="59.4701907411" lon="31.1361458246"><ele>53.97</ele><time>2026-09-01T19:31:52Z</time></trkpt><trkpt lat="59.4701837003" lon="31.1360910907"><ele>54.45</ele><time>2026-09-01T19:31:58Z</time></trkpt><trkpt lat="59.4702035654" lon="31.1360060144"><ele>54.45</ele><time>2026-09-01T19:32:05Z</time></trkpt><trkpt lat="59.4701962732" lon="31.1359379534"><ele>54.93</ele><time>2026-09-01T19:32:13Z</time></trkpt><trkpt lat="59.4701876398" lon="31.1358591635"><ele>54.45</ele><time>2026-09-01T19:32:21Z</time></trkpt><trkpt lat="59.4701637514" lon="31.1358123925"><ele>53.49</ele><time>2026-09-01T19:32:27Z</time></trkpt><trkpt lat="59.4701665174" lon="31.1357285734"><ele>53.49</ele><time>2026-09-01T19:32:34Z</time></trkpt><trkpt lat="59.4701769948" lon="31.1356463470"><ele>53.49</ele><time>2026-09-01T19:32:41Z</time></trkpt><trkpt lat="59.4702104386" lon="31.1355261505"><ele>53.49</ele><time>2026-09-01T19:32:48Z</time></trkpt><trkpt lat="59.4702448044" lon="31.1354036909"><ele>53.49</ele><time>2026-09-01T19:32:56Z</time></trkpt><trkpt lat="59.4702791702" lon="31.1353058740"><ele>53.49</ele><time>2026-09-01T19:33:04Z</time></trkpt><trkpt lat="59.4703047350" lon="31.1352543253"><ele>53.01</ele><time>2026-09-01T19:33:11Z</time></trkpt><trkpt lat="59.4703136198" lon="31.1351656448"><ele>53.49</ele><time>2026-09-01T19:33:19Z</time></trkpt><trkpt lat="59.4702976942" lon="31.1350249965"><ele>53.97</ele><time>2026-09-01T19:33:26Z</time></trkpt><trkpt lat="59.4702721294" lon="31.1348510720"><ele>53.97</ele><time>2026-09-01T19:33:36Z</time></trkpt><trkpt lat="59.4702436309" lon="31.1347616371"><ele>54.45</ele><time>2026-09-01T19:33:45Z</time></trkpt><trkpt lat="59.4702489115" lon="31.1347051430"><ele>54.45</ele><time>2026-09-01T19:33:52Z</time></trkpt><trkpt lat="59.4702374283" lon="31.1346582044"><ele>53.97</ele><time>2026-09-01T19:34:01Z</time></trkpt><trkpt lat="59.4702284597" lon="31.1345920712"><ele>53.97</ele><time>2026-09-01T19:34:10Z</time></trkpt><trkpt lat="59.4702038169" lon="31.1345205735"><ele>53.01</ele><time>2026-09-01T19:34:21Z</time></trkpt><trkpt lat="59.4701818563" lon="31.1345158797"><ele>52.05</ele><time>2026-09-01T19:34:28Z</time></trkpt><trkpt lat="59.4701731391" lon="31.1344746407"><ele>53.49</ele><time>2026-09-01T19:34:40Z</time></trkpt><trkpt lat="59.4702395238" lon="31.1345165502"><ele>53.01</ele><time>2026-09-01T19:34:50Z</time></trkpt><trkpt lat="59.4702406973" lon="31.1344940029"><ele>53.97</ele><time>2026-09-01T19:34:57Z</time></trkpt><trkpt lat="59.4702030625" lon="31.1344033107"><ele>54.45</ele><time>2026-09-01T19:35:05Z</time></trkpt><trkpt lat="59.4701876398" lon="31.1343409494"><ele>54.45</ele><time>2026-09-01T19:35:15Z</time></trkpt><trkpt lat="59.4701899029" lon="31.1343201622"><ele>53.49</ele><time>2026-09-01T19:35:32Z</time></trkpt><trkpt lat="59.4702053256" lon="31.1343494989"><ele>53.97</ele><time>2026-09-01T19:35:49Z</time></trkpt><trkpt lat="59.4701985363" lon="31.1342794262"><ele>53.97</ele><time>2026-09-01T19:36:12Z</time></trkpt><trkpt lat="59.4701645896" lon="31.1342824437"><ele>53.97</ele><time>2026-09-01T19:36:33Z</time></trkpt><trkpt lat="59.4701778330" lon="31.1342748161"><ele>53.97</ele><time>2026-09-01T19:36:56Z</time></trkpt><trkpt lat="59.4701691158" lon="31.1343717948"><ele>53.97</ele><time>2026-09-01T19:37:23Z</time></trkpt><trkpt lat="59.4701826107" lon="31.1343953479"><ele>54.45</ele><time>2026-09-01T19:37:42Z</time></trkpt><trkpt lat="59.4701511785" lon="31.1343642510"><ele>54.45</ele><time>2026-09-01T19:38:08Z</time></trkpt><trkpt lat="59.4701192435" lon="31.1344468128"><ele>54.45</ele><time>2026-09-01T19:38:28Z</time></trkpt><trkpt lat="59.4701105263" lon="31.1344561167"><ele>54.93</ele><time>2026-09-01T19:38:46Z</time></trkpt><trkpt lat="59.4701270387" lon="31.1344181467"><ele>54.93</ele><time>2026-09-01T19:39:08Z</time></trkpt><trkpt lat="59.4701778330" lon="31.1344429571"><ele>54.93</ele><time>2026-09-01T19:39:36Z</time></trkpt><trkpt lat="59.4702065829" lon="31.1344201583"><ele>55.41</ele><time>2026-09-01T19:40:02Z</time></trkpt><trkpt lat="59.4702086784" lon="31.1343578808"><ele>54.93</ele><time>2026-09-01T19:40:25Z</time></trkpt><trkpt lat="59.4702293817" lon="31.1342896521"><ele>54.93</ele><time>2026-09-01T19:40:49Z</time></trkpt><trkpt lat="59.4702205807" lon="31.1343252752"><ele>55.41</ele><time>2026-09-01T19:41:09Z</time></trkpt><trkpt lat="59.4702355005" lon="31.1342698708"><ele>55.41</ele><time>2026-09-01T19:41:22Z</time></trkpt><trkpt lat="59.4702348299" lon="31.1342446413"><ele>55.41</ele><time>2026-09-01T19:41:33Z</time></trkpt><trkpt lat="59.4702434633" lon="31.1342249438"><ele>55.41</ele><time>2026-09-01T19:41:45Z</time></trkpt><trkpt lat="59.4702266157" lon="31.1341642588"><ele>56.37</ele><time>2026-09-01T19:41:50Z</time></trkpt><trkpt lat="59.4702614006" lon="31.1340971198"><ele>55.41</ele><time>2026-09-01T19:41:58Z</time></trkpt><trkpt lat="59.4702717103" lon="31.1340267956"><ele>54.93</ele><time>2026-09-01T19:42:07Z</time></trkpt><trkpt lat="59.4702715427" lon="31.1339888256"><ele>54.93</ele><time>2026-09-01T19:42:18Z</time></trkpt><trkpt lat="59.4702654239" lon="31.1340215988"><ele>55.89</ele><time>2026-09-01T19:42:27Z</time></trkpt><trkpt lat="59.4702518452" lon="31.1339918431"><ele>54.93</ele><time>2026-09-01T19:42:34Z</time></trkpt><trkpt lat="59.4702210836" lon="31.1339458264"><ele>54.93</ele><time>2026-09-01T19:42:43Z</time></trkpt><trkpt lat="59.4701800961" lon="31.1339997221"><ele>55.41</ele><time>2026-09-01T19:42:52Z</time></trkpt><trkpt lat="59.4701260328" lon="31.1339192558"><ele>55.41</ele><time>2026-09-01T19:43:01Z</time></trkpt><trkpt lat="59.4700696226" lon="31.1339242849"><ele>55.41</ele><time>2026-09-01T19:43:10Z</time></trkpt><trkpt lat="59.4700394478" lon="31.1338854767"><ele>54.93</ele><time>2026-09-01T19:43:17Z</time></trkpt><trkpt lat="59.4700197503" lon="31.1338118836"><ele>54.93</ele><time>2026-09-01T19:43:27Z</time></trkpt><trkpt lat="59.4699750748" lon="31.1337248795"><ele>54.93</ele><time>2026-09-01T19:43:37Z</time></trkpt><trkpt lat="59.4699573889" lon="31.1336717382"><ele>54.93</ele><time>2026-09-01T19:43:44Z</time></trkpt><trkpt lat="59.4698977936" lon="31.1336849816"><ele>55.41</ele><time>2026-09-01T19:43:53Z</time></trkpt><trkpt lat="59.4698563032" lon="31.1337153241"><ele>55.89</ele><time>2026-09-01T19:43:59Z</time></trkpt><trkpt lat="59.4698040839" lon="31.1337123904"><ele>54.93</ele><time>2026-09-01T19:44:07Z</time></trkpt><trkpt lat="59.4697866496" lon="31.1336717382"><ele>54.93</ele><time>2026-09-01T19:44:16Z</time></trkpt><trkpt lat="59.4697692152" lon="31.1335647013"><ele>54.93</ele><time>2026-09-01T19:44:25Z</time></trkpt><trkpt lat="59.4697842188" lon="31.1334895156"><ele>55.41</ele><time>2026-09-01T19:44:35Z</time></trkpt><trkpt lat="59.4697392918" lon="31.1333745997"><ele>55.41</ele><time>2026-09-01T19:44:42Z</time></trkpt><trkpt lat="59.4697247073" lon="31.1333139148"><ele>55.41</ele><time>2026-09-01T19:44:50Z</time></trkpt><trkpt lat="59.4697436504" lon="31.1331345420"><ele>54.93</ele><time>2026-09-01T19:44:57Z</time></trkpt><trkpt lat="59.4697546307" lon="31.1330238171"><ele>54.93</ele><time>2026-09-01T19:45:04Z</time></trkpt><trkpt lat="59.4697676226" lon="31.1329585221"><ele>54.45</ele><time>2026-09-01T19:45:11Z</time></trkpt><trkpt lat="59.4697605819" lon="31.1329657305"><ele>54.45</ele><time>2026-09-01T19:45:22Z</time></trkpt><trkpt lat="59.4697510265" lon="31.1329874396"><ele>54.93</ele><time>2026-09-01T19:45:32Z</time></trkpt><trkpt lat="59.4697540440" lon="31.1329427641"><ele>54.93</ele><time>2026-09-01T19:45:41Z</time></trkpt><trkpt lat="59.4698503520" lon="31.1329363938"><ele>55.41</ele><time>2026-09-01T19:45:50Z</time></trkpt><trkpt lat="59.4699098635" lon="31.1329355557"><ele>54.93</ele><time>2026-09-01T19:45:57Z</time></trkpt><trkpt lat="59.4699536171" lon="31.1328622978"><ele>54.93</ele><time>2026-09-01T19:46:04Z</time></trkpt><trkpt lat="59.4699682854" lon="31.1327560991"><ele>54.45</ele><time>2026-09-01T19:46:13Z</time></trkpt><trkpt lat="59.4699910842" lon="31.1326336395"><ele>54.93</ele><time>2026-09-01T19:46:22Z</time></trkpt><trkpt lat="59.4700129610" lon="31.1325080786"><ele>54.45</ele><time>2026-09-01T19:46:31Z</time></trkpt><trkpt lat="59.4700191636" lon="31.1325013731"><ele>54.45</ele><time>2026-09-01T19:46:32Z</time></trkpt><trkpt lat="59.4700437225" lon="31.1323864572"><ele>55.41</ele><time>2026-09-01T19:46:41Z</time></trkpt><trkpt lat="59.4699964486" lon="31.1321888119"><ele>55.41</ele><time>2026-09-01T19:46:51Z</time></trkpt><trkpt lat="59.4700406212" lon="31.1321081780"><ele>54.93</ele><time>2026-09-01T19:46:58Z</time></trkpt><trkpt lat="59.4700118713" lon="31.1320452299"><ele>54.93</ele><time>2026-09-01T19:47:05Z</time></trkpt><trkpt lat="59.4700530265" lon="31.1319510173"><ele>54.45</ele><time>2026-09-01T19:47:12Z</time></trkpt><trkpt lat="59.4701346662" lon="31.1318308208"><ele>54.93</ele><time>2026-09-01T19:47:23Z</time></trkpt><trkpt lat="59.4701431319" lon="31.1317408830"><ele>55.41</ele><time>2026-09-01T19:47:31Z</time></trkpt><trkpt lat="59.4701561239" lon="31.1316714808"><ele>55.41</ele><time>2026-09-01T19:47:39Z</time></trkpt><trkpt lat="59.4701830298" lon="31.1315463390"><ele>55.89</ele><time>2026-09-01T19:47:48Z</time></trkpt><trkpt lat="59.4701764081" lon="31.1314481031"><ele>54.93</ele><time>2026-09-01T19:47:56Z</time></trkpt><trkpt lat="59.4701809343" lon="31.1313455924"><ele>54.93</ele><time>2026-09-01T19:48:04Z</time></trkpt><trkpt lat="59.4702065829" lon="31.1313070357"><ele>55.41</ele><time>2026-09-01T19:48:11Z</time></trkpt><trkpt lat="59.4702310581" lon="31.1312859971"><ele>54.93</ele><time>2026-09-01T19:48:24Z</time></trkpt><trkpt lat="59.4702537730" lon="31.1312310118"><ele>55.41</ele><time>2026-09-01T19:48:37Z</time></trkpt><trkpt lat="59.4702810980" lon="31.1311050318"><ele>55.41</ele><time>2026-09-01T19:48:50Z</time></trkpt><trkpt lat="59.4702830259" lon="31.1310558300"><ele>55.89</ele><time>2026-09-01T19:48:52Z</time></trkpt><trkpt lat="59.4702920783" lon="31.1309441831"><ele>55.41</ele><time>2026-09-01T19:48:59Z</time></trkpt><trkpt lat="59.4702800084" lon="31.1308779661"><ele>55.89</ele><time>2026-09-01T19:49:07Z</time></trkpt><trkpt lat="59.4702924136" lon="31.1307778023"><ele>55.89</ele><time>2026-09-01T19:49:15Z</time></trkpt><trkpt lat="59.4702895638" lon="31.1306555104"><ele>55.89</ele><time>2026-09-01T19:49:22Z</time></trkpt><trkpt lat="59.4702965207" lon="31.1306100804"><ele>54.93</ele><time>2026-09-01T19:49:30Z</time></trkpt><trkpt lat="59.4702810980" lon="31.1305224895"><ele>54.93</ele><time>2026-09-01T19:49:39Z</time></trkpt><trkpt lat="59.4702419546" lon="31.1304998584"><ele>55.41</ele><time>2026-09-01T19:49:47Z</time></trkpt><trkpt lat="59.4702323992" lon="31.1304788198"><ele>54.93</ele><time>2026-09-01T19:49:59Z</time></trkpt><trkpt lat="59.4701756537" lon="31.1304849386"><ele>54.93</ele><time>2026-09-01T19:50:10Z</time></trkpt><trkpt lat="59.4701660145" lon="31.1304338928"><ele>54.93</ele><time>2026-09-01T19:50:20Z</time></trkpt><trkpt lat="59.4702314772" lon="31.1303261016"><ele>55.89</ele><time>2026-09-01T19:50:31Z</time></trkpt><trkpt lat="59.4702195749" lon="31.1301932484"><ele>55.41</ele><time>2026-09-01T19:50:39Z</time></trkpt><trkpt lat="59.4701944292" lon="31.1301271990"><ele>55.89</ele><time>2026-09-01T19:50:48Z</time></trkpt><trkpt lat="59.4702214189" lon="31.1301052384"><ele>55.41</ele><time>2026-09-01T19:50:58Z</time></trkpt><trkpt lat="59.4702168088" lon="31.1301430408"><ele>55.89</ele><time>2026-09-01T19:51:17Z</time></trkpt><trkpt lat="59.4702244364" lon="31.1301505007"><ele>55.41</ele><time>2026-09-01T19:51:27Z</time></trkpt><trkpt lat="59.4701595604" lon="31.1301723775"><ele>55.41</ele><time>2026-09-01T19:51:37Z</time></trkpt><trkpt lat="59.4700997137" lon="31.1302577890"><ele>55.41</ele><time>2026-09-01T19:51:46Z</time></trkpt><trkpt lat="59.4700191636" lon="31.1302619800"><ele>54.93</ele><time>2026-09-01T19:51:54Z</time></trkpt><trkpt lat="59.4699563831" lon="31.1303064041"><ele>55.89</ele><time>2026-09-01T19:52:04Z</time></trkpt><trkpt lat="59.4699013140" lon="31.1303844396"><ele>55.89</ele><time>2026-09-01T19:52:14Z</time></trkpt><trkpt lat="59.4698407967" lon="31.1303369980"><ele>55.89</ele><time>2026-09-01T19:52:22Z</time></trkpt><trkpt lat="59.4697986357" lon="31.1303417757"><ele>55.41</ele><time>2026-09-01T19:52:31Z</time></trkpt><trkpt lat="59.4697787706" lon="31.1302578729"><ele>56.37</ele><time>2026-09-01T19:52:44Z</time></trkpt><trkpt lat="59.4697286468" lon="31.1301969364"><ele>55.89</ele><time>2026-09-01T19:52:53Z</time></trkpt><trkpt lat="59.4696966279" lon="31.1302323919"><ele>55.89</ele><time>2026-09-01T19:53:01Z</time></trkpt><trkpt lat="59.4696093723" lon="31.1302048992"><ele>54.93</ele><time>2026-09-01T19:53:12Z</time></trkpt><trkpt lat="59.4695604220" lon="31.1302976031"><ele>54.93</ele><time>2026-09-01T19:53:20Z</time></trkpt><trkpt lat="59.4694890082" lon="31.1303030513"><ele>55.41</ele><time>2026-09-01T19:53:29Z</time></trkpt><trkpt lat="59.4694309216" lon="31.1303163785"><ele>55.89</ele><time>2026-09-01T19:53:38Z</time></trkpt><trkpt lat="59.4693771098" lon="31.1303390935"><ele>55.41</ele><time>2026-09-01T19:53:48Z</time></trkpt><trkpt lat="59.4693258964" lon="31.1303355731"><ele>54.93</ele><time>2026-09-01T19:53:57Z</time></trkpt><trkpt lat="59.4692738447" lon="31.1303763092"><ele>55.89</ele><time>2026-09-01T19:54:07Z</time></trkpt><trkpt lat="59.4692381378" lon="31.1302778218"><ele>55.41</ele><time>2026-09-01T19:54:15Z</time></trkpt><trkpt lat="59.4692016765" lon="31.1301815975"><ele>55.41</ele><time>2026-09-01T19:54:24Z</time></trkpt><trkpt lat="59.4691659696" lon="31.1301092617"><ele>54.45</ele><time>2026-09-01T19:54:32Z</time></trkpt><trkpt lat="59.4691283349" lon="31.1300566234"><ele>54.93</ele><time>2026-09-01T19:54:40Z</time></trkpt><trkpt lat="59.4691247307" lon="31.1300677713"><ele>54.93</ele><time>2026-09-01T19:54:55Z</time></trkpt><trkpt lat="59.4691544026" lon="31.1301137041"><ele>54.93</ele><time>2026-09-01T19:55:09Z</time></trkpt><trkpt lat="59.4690163527" lon="31.1301308032"><ele>55.41</ele><time>2026-09-01T19:55:20Z</time></trkpt><trkpt lat="59.4689593557" lon="31.1301511712"><ele>55.41</ele><time>2026-09-01T19:55:29Z</time></trkpt><trkpt lat="59.4688850082" lon="31.1301384307"><ele>55.41</ele><time>2026-09-01T19:55:39Z</time></trkpt><trkpt lat="59.4688259996" lon="31.1301769037"><ele>55.41</ele><time>2026-09-01T19:55:47Z</time></trkpt><trkpt lat="59.4687731098" lon="31.1301987804"><ele>54.93</ele><time>2026-09-01T19:55:54Z</time></trkpt><trkpt lat="59.4687578548" lon="31.1302187294"><ele>54.93</ele><time>2026-09-01T19:56:03Z</time></trkpt><trkpt lat="59.4687610399" lon="31.1302374210"><ele>55.41</ele><time>2026-09-01T19:56:16Z</time></trkpt><trkpt lat="59.4687516522" lon="31.1302849464"><ele>54.45</ele><time>2026-09-01T19:56:34Z</time></trkpt><trkpt lat="59.4687547535" lon="31.1302794982"><ele>55.89</ele><time>2026-09-01T19:56:50Z</time></trkpt><trkpt lat="59.4687881973" lon="31.1303451285"><ele>56.37</ele><time>2026-09-01T19:56:59Z</time></trkpt><trkpt lat="59.4688000996" lon="31.1304201465"><ele>55.41</ele><time>2026-09-01T19:57:08Z</time></trkpt><trkpt lat="59.4688464515" lon="31.1305035464"><ele>55.41</ele><time>2026-09-01T19:57:17Z</time></trkpt><trkpt lat="59.4688931387" lon="31.1305818334"><ele>55.89</ele><time>2026-09-01T19:57:25Z</time></trkpt><trkpt lat="59.4689141773" lon="31.1306634732"><ele>55.89</ele><time>2026-09-01T19:57:32Z</time></trkpt><trkpt lat="59.4689468667" lon="31.1307699233"><ele>55.89</ele><time>2026-09-01T19:57:39Z</time></trkpt><trkpt lat="59.4690262433" lon="31.1308482941"><ele>55.89</ele><time>2026-09-01T19:57:48Z</time></trkpt><trkpt lat="59.4690430909" lon="31.1308775470"><ele>55.41</ele><time>2026-09-01T19:57:53Z</time></trkpt><trkpt lat="59.4690225553" lon="31.1310006771"><ele>54.93</ele><time>2026-09-01T19:58:01Z</time></trkpt><trkpt lat="59.4690098148" lon="31.1311188620"><ele>55.41</ele><time>2026-09-01T19:58:09Z</time></trkpt><trkpt lat="59.4689989183" lon="31.1312587559"><ele>55.89</ele><time>2026-09-01T19:58:19Z</time></trkpt><trkpt lat="59.4689902849" lon="31.1313661281"><ele>55.89</ele><time>2026-09-01T19:58:26Z</time></trkpt><trkpt lat="59.4689801428" lon="31.1315160803"><ele>55.41</ele><time>2026-09-01T19:58:35Z</time></trkpt><trkpt lat="59.4689408317" lon="31.1316173337"><ele>55.41</ele><time>2026-09-01T19:58:43Z</time></trkpt><trkpt lat="59.4688997604" lon="31.1316494364"><ele>55.41</ele><time>2026-09-01T19:58:51Z</time></trkpt><trkpt lat="59.4688529894" lon="31.1316565610"><ele>55.89</ele><time>2026-09-01T19:59:01Z</time></trkpt><trkpt lat="59.4688101579" lon="31.1316166632"><ele>55.41</ele><time>2026-09-01T19:59:08Z</time></trkpt><trkpt lat="59.4687892869" lon="31.1315719038"><ele>55.89</ele><time>2026-09-01T19:59:15Z</time></trkpt><trkpt lat="59.4687459525" lon="31.1315709818"><ele>54.93</ele><time>2026-09-01T19:59:21Z</time></trkpt><trkpt lat="59.4687234052" lon="31.1315986421"><ele>55.41</ele><time>2026-09-01T19:59:30Z</time></trkpt><trkpt lat="59.4686755445" lon="31.1316708103"><ele>55.41</ele><time>2026-09-01T19:59:35Z</time></trkpt><trkpt lat="59.4686134346" lon="31.1317796074"><ele>54.93</ele><time>2026-09-01T19:59:44Z</time></trkpt><trkpt lat="59.4686106686" lon="31.1318332516"><ele>55.41</ele><time>2026-09-01T19:59:50Z</time></trkpt><trkpt lat="59.4685909711" lon="31.1319523584"><ele>55.41</ele><time>2026-09-01T19:59:57Z</time></trkpt><trkpt lat="59.4685621373" lon="31.1320052482"><ele>55.41</ele><time>2026-09-01T20:00:09Z</time></trkpt><trkpt lat="59.4685809128" lon="31.1320341658"><ele>54.93</ele><time>2026-09-01T20:00:25Z</time></trkpt><trkpt lat="59.4685776439" lon="31.1320681125"><ele>54.93</ele><time>2026-09-01T20:00:32Z</time></trkpt><trkpt lat="59.4685374945" lon="31.1321119498"><ele>54.45</ele><time>2026-09-01T20:00:40Z</time></trkpt><trkpt lat="59.4685263466" lon="31.1321463156"><ele>54.45</ele><time>2026-09-01T20:00:45Z</time></trkpt><trkpt lat="59.4684981834" lon="31.1321922485"><ele>54.93</ele><time>2026-09-01T20:00:51Z</time></trkpt><trkpt lat="59.4685231615" lon="31.1322410312"><ele>54.45</ele><time>2026-09-01T20:01:01Z</time></trkpt><trkpt lat="59.4685778953" lon="31.1323021352"><ele>54.93</ele><time>2026-09-01T20:01:11Z</time></trkpt><trkpt lat="59.4685971737" lon="31.1322934180"><ele>54.93</ele><time>2026-09-01T20:01:24Z</time></trkpt><trkpt lat="59.4686275162" lon="31.1323459726"><ele>54.45</ele><time>2026-09-01T20:01:32Z</time></trkpt><trkpt lat="59.4686844293" lon="31.1324633192"><ele>54.45</ele><time>2026-09-01T20:01:39Z</time></trkpt><trkpt lat="59.4687182922" lon="31.1326196417"><ele>53.97</ele><time>2026-09-01T20:01:48Z</time></trkpt><trkpt lat="59.4687141012" lon="31.1326661613"><ele>53.97</ele><time>2026-09-01T20:01:56Z</time></trkpt><trkpt lat="59.4687370677" lon="31.1327382457"><ele>54.45</ele><time>2026-09-01T20:02:04Z</time></trkpt><trkpt lat="59.4687449466" lon="31.1328011937"><ele>54.45</ele><time>2026-09-01T20:02:12Z</time></trkpt><trkpt lat="59.4687918015" lon="31.1328560114"><ele>54.93</ele><time>2026-09-01T20:02:20Z</time></trkpt><trkpt lat="59.4688142650" lon="31.1329816561"><ele>54.45</ele><time>2026-09-01T20:02:28Z</time></trkpt><trkpt lat="59.4688175339" lon="31.1330603622"><ele>54.93</ele><time>2026-09-01T20:02:37Z</time></trkpt><trkpt lat="59.4688076433" lon="31.1331189517"><ele>54.93</ele><time>2026-09-01T20:02:43Z</time></trkpt><trkpt lat="59.4688422605" lon="31.1331746075"><ele>54.93</ele><time>2026-09-01T20:02:50Z</time></trkpt><trkpt lat="59.4688544981" lon="31.1332119070"><ele>54.45</ele><time>2026-09-01T20:02:57Z</time></trkpt><trkpt lat="59.4688746985" lon="31.1332220491"><ele>54.93</ele><time>2026-09-01T20:03:03Z</time></trkpt><trkpt lat="59.4689103216" lon="31.1332546547"><ele>53.97</ele><time>2026-09-01T20:03:10Z</time></trkpt><trkpt lat="59.4689508900" lon="31.1332634557"><ele>54.45</ele><time>2026-09-01T20:03:17Z</time></trkpt><trkpt lat="59.4689715933" lon="31.1332933791"><ele>54.45</ele><time>2026-09-01T20:03:20Z</time></trkpt><trkpt lat="59.4690014329" lon="31.1334093846"><ele>53.97</ele><time>2026-09-01T20:03:26Z</time></trkpt><trkpt lat="59.4689998403" lon="31.1334361229"><ele>54.45</ele><time>2026-09-01T20:03:35Z</time></trkpt><trkpt lat="59.4690000080" lon="31.1334300041"><ele>54.45</ele><time>2026-09-01T20:03:45Z</time></trkpt><trkpt lat="59.4690092281" lon="31.1334420741"><ele>54.45</ele><time>2026-09-01T20:03:52Z</time></trkpt><trkpt lat="59.4690120779" lon="31.1334291659"><ele>54.45</ele><time>2026-09-01T20:04:03Z</time></trkpt><trkpt lat="59.4690189511" lon="31.1333743483"><ele>54.45</ele><time>2026-09-01T20:04:09Z</time></trkpt><trkpt lat="59.4690828212" lon="31.1333288345"><ele>53.97</ele><time>2026-09-01T20:04:17Z</time></trkpt><trkpt lat="59.4691409916" lon="31.1333878431"><ele>54.45</ele><time>2026-09-01T20:04:25Z</time></trkpt><trkpt lat="59.4691682328" lon="31.1334360391"><ele>53.97</ele><time>2026-09-01T20:04:32Z</time></trkpt><trkpt lat="59.4691816438" lon="31.1335372087"><ele>53.97</ele><time>2026-09-01T20:04:39Z</time></trkpt><trkpt lat="59.4692018442" lon="31.1336723249"><ele>53.97</ele><time>2026-09-01T20:04:46Z</time></trkpt><trkpt lat="59.4691945519" lon="31.1337302439"><ele>53.97</ele><time>2026-09-01T20:04:52Z</time></trkpt><trkpt lat="59.4691756926" lon="31.1337795295"><ele>53.97</ele><time>2026-09-01T20:04:59Z</time></trkpt><trkpt lat="59.4691429194" lon="31.1338614207"><ele>53.97</ele><time>2026-09-01T20:05:09Z</time></trkpt><trkpt lat="59.4691178575" lon="31.1339281406"><ele>53.97</ele><time>2026-09-01T20:05:17Z</time></trkpt><trkpt lat="59.4690824021" lon="31.1340740696"><ele>53.97</ele><time>2026-09-01T20:05:27Z</time></trkpt><trkpt lat="59.4691137504" lon="31.1340325791"><ele>53.97</ele><time>2026-09-01T20:05:34Z</time></trkpt><trkpt lat="59.4691439252" lon="31.1340803560"><ele>54.93</ele><time>2026-09-01T20:05:41Z</time></trkpt><trkpt lat="59.4691334479" lon="31.1341314018"><ele>53.01</ele><time>2026-09-01T20:05:49Z</time></trkpt><trkpt lat="59.4691309333" lon="31.1341873091"><ele>53.97</ele><time>2026-09-01T20:06:06Z</time></trkpt><trkpt lat="59.4691399019" lon="31.1341903266"><ele>53.97</ele><time>2026-09-01T20:06:25Z</time></trkpt><trkpt lat="59.4691445958" lon="31.1342668533"><ele>53.97</ele><time>2026-09-01T20:06:34Z</time></trkpt><trkpt lat="59.4691639580" lon="31.1343184020"><ele>53.49</ele><time>2026-09-01T20:06:42Z</time></trkpt><trkpt lat="59.4692308456" lon="31.1343511753"><ele>53.97</ele><time>2026-09-01T20:06:49Z</time></trkpt><trkpt lat="59.4693009183" lon="31.1344287079"><ele>53.49</ele><time>2026-09-01T20:06:57Z</time></trkpt><trkpt lat="59.4693459291" lon="31.1344600562"><ele>53.01</ele><time>2026-09-01T20:07:05Z</time></trkpt><trkpt lat="59.4693702366" lon="31.1344994511"><ele>53.49</ele><time>2026-09-01T20:07:14Z</time></trkpt><trkpt lat="59.4693664648" lon="31.1345064919"><ele>53.01</ele><time>2026-09-01T20:07:22Z</time></trkpt><trkpt lat="59.4693592563" lon="31.1345090903"><ele>53.97</ele><time>2026-09-01T20:07:25Z</time></trkpt><trkpt lat="59.4693554845" lon="31.1345349904"><ele>53.97</ele><time>2026-09-01T20:07:37Z</time></trkpt><trkpt lat="59.4693935383" lon="31.1344304681"><ele>53.49</ele><time>2026-09-01T20:07:48Z</time></trkpt><trkpt lat="59.4693857431" lon="31.1344567034"><ele>54.45</ele><time>2026-09-01T20:08:00Z</time></trkpt><trkpt lat="59.4693884254" lon="31.1345262732"><ele>54.93</ele><time>2026-09-01T20:08:09Z</time></trkpt><trkpt lat="59.4693817198" lon="31.1345851142"><ele>54.45</ele><time>2026-09-01T20:08:19Z</time></trkpt><trkpt lat="59.4693750981" lon="31.1346608028"><ele>53.97</ele><time>2026-09-01T20:08:26Z</time></trkpt><trkpt lat="59.4692880940" lon="31.1347835138"><ele>54.45</ele><time>2026-09-01T20:08:37Z</time></trkpt><trkpt lat="59.4692864176" lon="31.1348369066"><ele>54.45</ele><time>2026-09-01T20:08:45Z</time></trkpt><trkpt lat="59.4692056999" lon="31.1349011119"><ele>54.45</ele><time>2026-09-01T20:08:54Z</time></trkpt><trkpt lat="59.4691741839" lon="31.1349631380"><ele>54.45</ele><time>2026-09-01T20:09:02Z</time></trkpt><trkpt lat="59.4691454340" lon="31.1350667384"><ele>54.45</ele><time>2026-09-01T20:09:10Z</time></trkpt><trkpt lat="59.4691275805" lon="31.1350963265"><ele>54.93</ele><time>2026-09-01T20:09:19Z</time></trkpt><trkpt lat="59.4690647162" lon="31.1352012679"><ele>54.93</ele><time>2026-09-01T20:09:29Z</time></trkpt><trkpt lat="59.4690156821" lon="31.1351959873"><ele>54.93</ele><time>2026-09-01T20:09:39Z</time></trkpt><trkpt lat="59.4689575117" lon="31.1352232285"><ele>54.45</ele><time>2026-09-01T20:09:48Z</time></trkpt><trkpt lat="59.4689707551" lon="31.1352955643"><ele>54.45</ele><time>2026-09-01T20:09:58Z</time></trkpt><trkpt lat="59.4689869322" lon="31.1353540700"><ele>54.45</ele><time>2026-09-01T20:10:11Z</time></trkpt><trkpt lat="59.4689743593" lon="31.1353479512"><ele>54.93</ele><time>2026-09-01T20:10:20Z</time></trkpt><trkpt lat="59.4689504709" lon="31.1354024336"><ele>53.97</ele><time>2026-09-01T20:10:28Z</time></trkpt><trkpt lat="59.4689422566" lon="31.1354660522"><ele>54.45</ele><time>2026-09-01T20:10:35Z</time></trkpt><trkpt lat="59.4689036161" lon="31.1355745979"><ele>53.97</ele><time>2026-09-01T20:10:43Z</time></trkpt><trkpt lat="59.4688923843" lon="31.1356444191"><ele>53.97</ele><time>2026-09-01T20:10:50Z</time></trkpt><trkpt lat="59.4689017721" lon="31.1357264780"><ele>53.97</ele><time>2026-09-01T20:10:57Z</time></trkpt><trkpt lat="59.4688859303" lon="31.1357218679"><ele>54.45</ele><time>2026-09-01T20:11:09Z</time></trkpt><trkpt lat="59.4688662328" lon="31.1357294954"><ele>54.45</ele><time>2026-09-01T20:11:20Z</time></trkpt><trkpt lat="59.4688512292" lon="31.1357895937"><ele>54.93</ele><time>2026-09-01T20:11:29Z</time></trkpt><trkpt lat="59.4689005986" lon="31.1357589997"><ele>53.49</ele><time>2026-09-01T20:11:38Z</time></trkpt><trkpt lat="59.4688997604" lon="31.1357719917"><ele>53.97</ele><time>2026-09-01T20:11:52Z</time></trkpt><trkpt lat="59.4689129200" lon="31.1357352789"><ele>53.97</ele><time>2026-09-01T20:12:02Z</time></trkpt><trkpt lat="59.4688927196" lon="31.1356959678"><ele>53.97</ele><time>2026-09-01T20:12:17Z</time></trkpt><trkpt lat="59.4688783865" lon="31.1356790364"><ele>54.45</ele><time>2026-09-01T20:12:25Z</time></trkpt><trkpt lat="59.4688477926" lon="31.1356834788"><ele>54.45</ele><time>2026-09-01T20:12:39Z</time></trkpt><trkpt lat="59.4688441046" lon="31.1357142404"><ele>54.45</ele><time>2026-09-01T20:12:48Z</time></trkpt><trkpt lat="59.4688533247" lon="31.1358081177"><ele>54.93</ele><time>2026-09-01T20:12:58Z</time></trkpt><trkpt lat="59.4688731059" lon="31.1358617619"><ele>54.45</ele><time>2026-09-01T20:13:03Z</time></trkpt><trkpt lat="59.4688721839" lon="31.1358952057"><ele>54.45</ele><time>2026-09-01T20:13:10Z</time></trkpt><trkpt lat="59.4688825775" lon="31.1359078623"><ele>54.93</ele><time>2026-09-01T20:13:21Z</time></trkpt><trkpt lat="59.4689062983" lon="31.1359299067"><ele>54.93</ele><time>2026-09-01T20:13:31Z</time></trkpt><trkpt lat="59.4688995089" lon="31.1359579023"><ele>54.45</ele><time>2026-09-01T20:13:36Z</time></trkpt><trkpt lat="59.4688529056" lon="31.1360109597"><ele>54.45</ele><time>2026-09-01T20:13:46Z</time></trkpt><trkpt lat="59.4689023588" lon="31.1360547971"><ele>55.41</ele><time>2026-09-01T20:13:56Z</time></trkpt><trkpt lat="59.4689171948" lon="31.1361203436"><ele>54.93</ele><time>2026-09-01T20:14:03Z</time></trkpt><trkpt lat="59.4689207152" lon="31.1361609120"><ele>54.93</ele><time>2026-09-01T20:14:17Z</time></trkpt><trkpt lat="59.4689292647" lon="31.1362028215"><ele>54.93</ele><time>2026-09-01T20:14:24Z</time></trkpt><trkpt lat="59.4690083899" lon="31.1363624968"><ele>55.41</ele><time>2026-09-01T20:14:36Z</time></trkpt><trkpt lat="59.4690461922" lon="31.1364079267"><ele>54.93</ele><time>2026-09-01T20:14:45Z</time></trkpt><trkpt lat="59.4690270815" lon="31.1364463996"><ele>55.41</ele><time>2026-09-01T20:14:53Z</time></trkpt><trkpt lat="59.4690573402" lon="31.1365438811"><ele>55.41</ele><time>2026-09-01T20:15:01Z</time></trkpt><trkpt lat="59.4690384809" lon="31.1366167199"><ele>55.41</ele><time>2026-09-01T20:15:09Z</time></trkpt><trkpt lat="59.4690008461" lon="31.1366467271"><ele>55.41</ele><time>2026-09-01T20:15:17Z</time></trkpt><trkpt lat="59.4689625409" lon="31.1366580427"><ele>55.41</ele><time>2026-09-01T20:15:22Z</time></trkpt><trkpt lat="59.4689190388" lon="31.1367325578"><ele>55.41</ele><time>2026-09-01T20:15:31Z</time></trkpt><trkpt lat="59.4688436855" lon="31.1368002836"><ele>55.41</ele><time>2026-09-01T20:15:42Z</time></trkpt><trkpt lat="59.4687932264" lon="31.1368155386"><ele>55.41</ele><time>2026-09-01T20:15:50Z</time></trkpt><trkpt lat="59.4687707629" lon="31.1369014531"><ele>55.41</ele><time>2026-09-01T20:15:59Z</time></trkpt><trkpt lat="59.4687435217" lon="31.1369737890"><ele>55.41</ele><time>2026-09-01T20:16:06Z</time></trkpt><trkpt lat="59.4687101617" lon="31.1370240804"><ele>55.41</ele><time>2026-09-01T20:16:16Z</time></trkpt><trkpt lat="59.4686820824" lon="31.1371186282"><ele>55.41</ele><time>2026-09-01T20:16:26Z</time></trkpt><trkpt lat="59.4687015284" lon="31.1372838356"><ele>55.41</ele><time>2026-09-01T20:16:34Z</time></trkpt><trkpt lat="59.4687239919" lon="31.1373337917"><ele>55.41</ele><time>2026-09-01T20:16:43Z</time></trkpt><trkpt lat="59.4687326252" lon="31.1373620387"><ele>54.93</ele><time>2026-09-01T20:16:57Z</time></trkpt><trkpt lat="59.4687296916" lon="31.1374417506"><ele>54.93</ele><time>2026-09-01T20:17:05Z</time></trkpt><trkpt lat="59.4687331282" lon="31.1375080515"><ele>55.41</ele><time>2026-09-01T20:17:13Z</time></trkpt><trkpt lat="59.4687353913" lon="31.1375232227"><ele>55.89</ele><time>2026-09-01T20:17:19Z</time></trkpt><trkpt lat="59.4687234890" lon="31.1375430878"><ele>55.89</ele><time>2026-09-01T20:17:33Z</time></trkpt><trkpt lat="59.4687280152" lon="31.1376137473"><ele>55.41</ele><time>2026-09-01T20:17:45Z</time></trkpt><trkpt lat="59.4687598664" lon="31.1376549024"><ele>55.41</ele><time>2026-09-01T20:17:55Z</time></trkpt><trkpt lat="59.4687695894" lon="31.1377604306"><ele>55.41</ele><time>2026-09-01T20:18:04Z</time></trkpt><trkpt lat="59.4687599503" lon="31.1378791183"><ele>55.41</ele><time>2026-09-01T20:18:13Z</time></trkpt><trkpt lat="59.4687793963" lon="31.1379786953"><ele>54.93</ele><time>2026-09-01T20:18:22Z</time></trkpt><trkpt lat="59.4687686674" lon="31.1380399670"><ele>55.89</ele><time>2026-09-01T20:18:29Z</time></trkpt><trkpt lat="59.4687543344" lon="31.1380579043"><ele>55.41</ele><time>2026-09-01T20:18:37Z</time></trkpt><trkpt lat="59.4687463716" lon="31.1380712315"><ele>55.41</ele><time>2026-09-01T20:18:49Z</time></trkpt><trkpt lat="59.4687494729" lon="31.1381283961"><ele>55.41</ele><time>2026-09-01T20:19:01Z</time></trkpt><trkpt lat="59.4687268417" lon="31.1381890811"><ele>55.41</ele><time>2026-09-01T20:19:11Z</time></trkpt><trkpt lat="59.4687664043" lon="31.1383547075"><ele>55.41</ele><time>2026-09-01T20:19:20Z</time></trkpt><trkpt lat="59.4687713496" lon="31.1384226847"><ele>55.89</ele><time>2026-09-01T20:19:26Z</time></trkpt><trkpt lat="59.4687411748" lon="31.1384862196"><ele>55.41</ele><time>2026-09-01T20:19:34Z</time></trkpt><trkpt lat="59.4687266741" lon="31.1385112815"><ele>55.89</ele><time>2026-09-01T20:19:40Z</time></trkpt><trkpt lat="59.4686721917" lon="31.1386375129"><ele>55.89</ele><time>2026-09-01T20:19:48Z</time></trkpt><trkpt lat="59.4686965831" lon="31.1387461424"><ele>55.89</ele><time>2026-09-01T20:19:54Z</time></trkpt><trkpt lat="59.4686895423" lon="31.1387915723"><ele>55.89</ele><time>2026-09-01T20:20:03Z</time></trkpt><trkpt lat="59.4687055517" lon="31.1388730444"><ele>56.37</ele><time>2026-09-01T20:20:10Z</time></trkpt><trkpt lat="59.4687161129" lon="31.1389805842"><ele>55.89</ele><time>2026-09-01T20:20:17Z</time></trkpt><trkpt lat="59.4687389955" lon="31.1390131898"><ele>56.37</ele><time>2026-09-01T20:20:25Z</time></trkpt><trkpt lat="59.4687365647" lon="31.1390553508"><ele>56.37</ele><time>2026-09-01T20:20:32Z</time></trkpt><trkpt lat="59.4687153585" lon="31.1390724499"><ele>56.37</ele><time>2026-09-01T20:20:38Z</time></trkpt><trkpt lat="59.4687270094" lon="31.1391504854"><ele>55.89</ele><time>2026-09-01T20:20:45Z</time></trkpt><trkpt lat="59.4687373191" lon="31.1392026208"><ele>55.89</ele><time>2026-09-01T20:20:55Z</time></trkpt><trkpt lat="59.4687613752" lon="31.1392285209"><ele>56.37</ele><time>2026-09-01T20:21:03Z</time></trkpt><trkpt lat="59.4687616266" lon="31.1392317060"><ele>56.37</ele><time>2026-09-01T20:21:12Z</time></trkpt><trkpt lat="59.4687653985" lon="31.1392260902"><ele>55.89</ele><time>2026-09-01T20:21:20Z</time></trkpt><trkpt lat="59.4687360618" lon="31.1391962506"><ele>56.86</ele><time>2026-09-01T20:21:28Z</time></trkpt><trkpt lat="59.4686959963" lon="31.1391049717"><ele>55.89</ele><time>2026-09-01T20:21:37Z</time></trkpt><trkpt lat="59.4686699286" lon="31.1390539259"><ele>55.89</ele><time>2026-09-01T20:21:46Z</time></trkpt><trkpt lat="59.4686560985" lon="31.1389922351"><ele>55.89</ele><time>2026-09-01T20:21:53Z</time></trkpt><trkpt lat="59.4686175417" lon="31.1390068196"><ele>56.37</ele><time>2026-09-01T20:22:03Z</time></trkpt><trkpt lat="59.4686042145" lon="31.1390902195"><ele>56.37</ele><time>2026-09-01T20:22:12Z</time></trkpt><trkpt lat="59.4685890432" lon="31.1391512398"><ele>56.37</ele><time>2026-09-01T20:22:21Z</time></trkpt><trkpt lat="59.4686015323" lon="31.1391440313"><ele>56.86</ele><time>2026-09-01T20:22:27Z</time></trkpt><trkpt lat="59.4686063938" lon="31.1391602922"><ele>56.86</ele><time>2026-09-01T20:22:34Z</time></trkpt><trkpt lat="59.4686276838" lon="31.1391436961"><ele>56.37</ele><time>2026-09-01T20:22:39Z</time></trkpt><trkpt lat="59.4686351437" lon="31.1391472165"><ele>56.86</ele><time>2026-09-01T20:22:43Z</time></trkpt><trkpt lat="59.4686169550" lon="31.1392187979"><ele>55.89</ele><time>2026-09-01T20:22:48Z</time></trkpt><trkpt lat="59.4686356466" lon="31.1393757910"><ele>56.37</ele><time>2026-09-01T20:22:56Z</time></trkpt><trkpt lat="59.4686818309" lon="31.1394531559"><ele>56.37</ele><time>2026-09-01T20:23:03Z</time></trkpt><trkpt lat="59.4686766341" lon="31.1395270843"><ele>56.86</ele><time>2026-09-01T20:23:10Z</time></trkpt><trkpt lat="59.4686506502" lon="31.1395509727"><ele>56.37</ele><time>2026-09-01T20:23:18Z</time></trkpt><trkpt lat="59.4686073996" lon="31.1396338698"><ele>56.86</ele><time>2026-09-01T20:23:25Z</time></trkpt><trkpt lat="59.4685711898" lon="31.1397303455"><ele>55.89</ele><time>2026-09-01T20:23:34Z</time></trkpt><trkpt lat="59.4685883727" lon="31.1398130748"><ele>56.37</ele><time>2026-09-01T20:23:41Z</time></trkpt><trkpt lat="59.4685884565" lon="31.1399263982"><ele>56.37</ele><time>2026-09-01T20:23:49Z</time></trkpt><trkpt lat="59.4685411826" lon="31.1399904359"><ele>56.37</ele><time>2026-09-01T20:23:57Z</time></trkpt><trkpt lat="59.4685283583" lon="31.1401118059"><ele>56.37</ele><time>2026-09-01T20:24:05Z</time></trkpt><trkpt lat="59.4685195573" lon="31.1401548050"><ele>56.37</ele><time>2026-09-01T20:24:12Z</time></trkpt><trkpt lat="59.4684829284" lon="31.1401886679"><ele>56.37</ele><time>2026-09-01T20:24:20Z</time></trkpt><trkpt lat="59.4684452936" lon="31.1402304098"><ele>55.89</ele><time>2026-09-01T20:24:26Z</time></trkpt><trkpt lat="59.4684393425" lon="31.1403164081"><ele>56.86</ele><time>2026-09-01T20:24:33Z</time></trkpt><trkpt lat="59.4684150349" lon="31.1404256243"><ele>56.37</ele><time>2026-09-01T20:24:39Z</time></trkpt><trkpt lat="59.4683888834" lon="31.1405376904"><ele>55.89</ele><time>2026-09-01T20:24:46Z</time></trkpt><trkpt lat="59.4683484826" lon="31.1405661888"><ele>54.93</ele><time>2026-09-01T20:24:55Z</time></trkpt><trkpt lat="59.4683246780" lon="31.1405906640"><ele>55.41</ele><time>2026-09-01T20:25:06Z</time></trkpt><trkpt lat="59.4683249295" lon="31.1406339146"><ele>55.89</ele><time>2026-09-01T20:25:17Z</time></trkpt><trkpt lat="59.4684013724" lon="31.1405781750"><ele>56.37</ele><time>2026-09-01T20:25:27Z</time></trkpt><trkpt lat="59.4684775639" lon="31.1406391952"><ele>56.37</ele><time>2026-09-01T20:25:35Z</time></trkpt><trkpt lat="59.4685202278" lon="31.1407028977"><ele>55.89</ele><time>2026-09-01T20:25:43Z</time></trkpt><trkpt lat="59.4684975967" lon="31.1407469027"><ele>55.89</ele><time>2026-09-01T20:25:51Z</time></trkpt><trkpt lat="59.4685127679" lon="31.1408354156"><ele>56.37</ele><time>2026-09-01T20:25:59Z</time></trkpt><trkpt lat="59.4684928190" lon="31.1409334838"><ele>55.89</ele><time>2026-09-01T20:26:06Z</time></trkpt><trkpt lat="59.4685016200" lon="31.1409415305"><ele>56.86</ele><time>2026-09-01T20:26:12Z</time></trkpt><trkpt lat="59.4685070682" lon="31.1409732141"><ele>55.41</ele><time>2026-09-01T20:26:21Z</time></trkpt><trkpt lat="59.4685126003" lon="31.1410548538"><ele>56.37</ele><time>2026-09-01T20:26:30Z</time></trkpt><trkpt lat="59.4684647396" lon="31.1411389243"><ele>55.89</ele><time>2026-09-01T20:26:41Z</time></trkpt><trkpt lat="59.4684256800" lon="31.1412118468"><ele>56.37</ele><time>2026-09-01T20:26:51Z</time></trkpt><trkpt lat="59.4684304576" lon="31.1412791535"><ele>55.41</ele><time>2026-09-01T20:26:59Z</time></trkpt><trkpt lat="59.4684123527" lon="31.1413587816"><ele>54.93</ele><time>2026-09-01T20:27:07Z</time></trkpt><trkpt lat="59.4683556072" lon="31.1414261721"><ele>55.41</ele><time>2026-09-01T20:27:16Z</time></trkpt><trkpt lat="59.4683408551" lon="31.1415626295"><ele>55.89</ele><time>2026-09-01T20:27:24Z</time></trkpt><trkpt lat="59.4683452975" lon="31.1417021882"><ele>55.41</ele><time>2026-09-01T20:27:31Z</time></trkpt><trkpt lat="59.4683666714" lon="31.1417591013"><ele>56.37</ele><time>2026-09-01T20:27:39Z</time></trkpt><trkpt lat="59.4683690183" lon="31.1418090574"><ele>55.89</ele><time>2026-09-01T20:27:48Z</time></trkpt><trkpt lat="59.4683501590" lon="31.1418719217"><ele>54.93</ele><time>2026-09-01T20:27:59Z</time></trkpt><trkpt lat="59.4683764782" lon="31.1418266594"><ele>55.89</ele><time>2026-09-01T20:28:11Z</time></trkpt><trkpt lat="59.4683807530" lon="31.1418798007"><ele>55.41</ele><time>2026-09-01T20:28:26Z</time></trkpt><trkpt lat="59.4683415256" lon="31.1419405695"><ele>55.89</ele><time>2026-09-01T20:28:42Z</time></trkpt><trkpt lat="59.4683339819" lon="31.1419220455"><ele>55.41</ele><time>2026-09-01T20:28:54Z</time></trkpt><trkpt lat="59.4683302101" lon="31.1419280805"><ele>55.41</ele><time>2026-09-01T20:29:06Z</time></trkpt><trkpt lat="59.4683432858" lon="31.1420019250"><ele>54.93</ele><time>2026-09-01T20:29:18Z</time></trkpt><trkpt lat="59.4683279470" lon="31.1420507077"><ele>54.45</ele><time>2026-09-01T20:29:30Z</time></trkpt><trkpt lat="59.4683712814" lon="31.1418705806"><ele>56.37</ele><time>2026-09-01T20:29:40Z</time></trkpt><trkpt lat="59.4683471415" lon="31.1418229714"><ele>55.89</ele><time>2026-09-01T20:29:59Z</time></trkpt><trkpt lat="59.4684442878" lon="31.1418750230"><ele>55.89</ele><time>2026-09-01T20:30:14Z</time></trkpt><trkpt lat="59.4684126042" lon="31.1418798845"><ele>55.89</ele><time>2026-09-01T20:30:30Z</time></trkpt><trkpt lat="59.4684032165" lon="31.1418940499"><ele>55.41</ele><time>2026-09-01T20:30:43Z</time></trkpt><trkpt lat="59.4684181362" lon="31.1418329459"><ele>55.89</ele><time>2026-09-01T20:30:54Z</time></trkpt><trkpt lat="59.4683861174" lon="31.1418590974"><ele>54.93</ele><time>2026-09-01T20:31:03Z</time></trkpt><trkpt lat="59.4683803339" lon="31.1418567505"><ele>54.93</ele><time>2026-09-01T20:31:16Z</time></trkpt><trkpt lat="59.4683589600" lon="31.1419134960"><ele>55.41</ele><time>2026-09-01T20:31:26Z</time></trkpt><trkpt lat="59.4683671743" lon="31.1419808026"><ele>55.41</ele><time>2026-09-01T20:31:35Z</time></trkpt><trkpt lat="59.4683560263" lon="31.1420461815"><ele>54.93</ele><time>2026-09-01T20:31:43Z</time></trkpt><trkpt lat="59.4683071598" lon="31.1420947965"><ele>54.45</ele><time>2026-09-01T20:31:51Z</time></trkpt><trkpt lat="59.4682340696" lon="31.1419165134"><ele>53.97</ele><time>2026-09-01T20:32:00Z</time></trkpt><trkpt lat="59.4682364166" lon="31.1417953111"><ele>53.97</ele><time>2026-09-01T20:32:09Z</time></trkpt><trkpt lat="59.4682144560" lon="31.1417979095"><ele>54.45</ele><time>2026-09-01T20:32:20Z</time></trkpt><trkpt lat="59.4682093430" lon="31.1419292539"><ele>55.41</ele><time>2026-09-01T20:32:28Z</time></trkpt><trkpt lat="59.4681861252" lon="31.1418981571"><ele>54.93</ele><time>2026-09-01T20:32:39Z</time></trkpt><trkpt lat="59.4681944232" lon="31.1419041920"><ele>54.45</ele><time>2026-09-01T20:32:48Z</time></trkpt><trkpt lat="59.4681909028" lon="31.1419327743"><ele>54.45</ele><time>2026-09-01T20:32:59Z</time></trkpt><trkpt lat="59.4681685232" lon="31.1419857480"><ele>54.45</ele><time>2026-09-01T20:33:07Z</time></trkpt><trkpt lat="59.4681350794" lon="31.1419853289"><ele>54.93</ele><time>2026-09-01T20:33:19Z</time></trkpt><trkpt lat="59.4681398571" lon="31.1420771945"><ele>54.93</ele><time>2026-09-01T20:33:27Z</time></trkpt><trkpt lat="59.4681464788" lon="31.1421268992"><ele>54.93</ele><time>2026-09-01T20:33:35Z</time></trkpt><trkpt lat="59.4681692775" lon="31.1420974787"><ele>54.93</ele><time>2026-09-01T20:33:44Z</time></trkpt><trkpt lat="59.4681342412" lon="31.1419951357"><ele>54.93</ele><time>2026-09-01T20:33:54Z</time></trkpt><trkpt lat="59.4681150466" lon="31.1419802159"><ele>54.93</ele><time>2026-09-01T20:34:02Z</time></trkpt><trkpt lat="59.4681047369" lon="31.1420320161"><ele>53.97</ele><time>2026-09-01T20:34:12Z</time></trkpt><trkpt lat="59.4681101851" lon="31.1420373805"><ele>53.97</ele><time>2026-09-01T20:34:25Z</time></trkpt><trkpt lat="59.4681076705" lon="31.1420543119"><ele>55.41</ele><time>2026-09-01T20:34:33Z</time></trkpt><trkpt lat="59.4681084249" lon="31.1421374604"><ele>55.41</ele><time>2026-09-01T20:34:41Z</time></trkpt><trkpt lat="59.4681001268" lon="31.1422107182"><ele>55.41</ele><time>2026-09-01T20:34:48Z</time></trkpt><trkpt lat="59.4680743944" lon="31.1422428209"><ele>55.41</ele><time>2026-09-01T20:35:01Z</time></trkpt><trkpt lat="59.4680350833" lon="31.1422791984"><ele>54.93</ele><time>2026-09-01T20:35:09Z</time></trkpt><trkpt lat="59.4680096861" lon="31.1423143186"><ele>54.93</ele><time>2026-09-01T20:35:16Z</time></trkpt><trkpt lat="59.4679781701" lon="31.1423328426"><ele>54.93</ele><time>2026-09-01T20:35:23Z</time></trkpt><trkpt lat="59.4679455645" lon="31.1422415636"><ele>54.93</ele><time>2026-09-01T20:35:32Z</time></trkpt><trkpt lat="59.4679655135" lon="31.1421359517"><ele>54.93</ele><time>2026-09-01T20:35:40Z</time></trkpt><trkpt lat="59.4679436367" lon="31.1420751829"><ele>55.89</ele><time>2026-09-01T20:35:47Z</time></trkpt><trkpt lat="59.4679298904" lon="31.1420689803"><ele>54.93</ele><time>2026-09-01T20:35:55Z</time></trkpt><trkpt lat="59.4679320697" lon="31.1419894360"><ele>55.89</ele><time>2026-09-01T20:36:05Z</time></trkpt><trkpt lat="59.4679288007" lon="31.1419155076"><ele>55.41</ele><time>2026-09-01T20:36:13Z</time></trkpt><trkpt lat="59.4678949378" lon="31.1418548226"><ele>55.89</ele><time>2026-09-01T20:36:19Z</time></trkpt><trkpt lat="59.4679007214" lon="31.1418314371"><ele>54.93</ele><time>2026-09-01T20:36:23Z</time></trkpt><trkpt lat="59.4679018110" lon="31.1418427527"><ele>55.89</ele><time>2026-09-01T20:36:33Z</time></trkpt><trkpt lat="59.4679156411" lon="31.1418368854"><ele>55.89</ele><time>2026-09-01T20:36:44Z</time></trkpt><trkpt lat="59.4679248612" lon="31.1418281682"><ele>55.41</ele><time>2026-09-01T20:36:57Z</time></trkpt><trkpt lat="59.4679165632" lon="31.1418219656"><ele>55.41</ele><time>2026-09-01T20:37:04Z</time></trkpt><trkpt lat="59.4678955246" lon="31.1418079678"><ele>54.93</ele><time>2026-09-01T20:37:13Z</time></trkpt><trkpt lat="59.4678833708" lon="31.1417860072"><ele>55.41</ele><time>2026-09-01T20:37:21Z</time></trkpt><trkpt lat="59.4678691216" lon="31.1417593528"><ele>54.93</ele><time>2026-09-01T20:37:31Z</time></trkpt><trkpt lat="59.4679093547" lon="31.1417202931"><ele>54.45</ele><time>2026-09-01T20:37:39Z</time></trkpt><trkpt lat="59.4679048285" lon="31.1416428443"><ele>54.93</ele><time>2026-09-01T20:37:49Z</time></trkpt><trkpt lat="59.4678799342" lon="31.1415559240"><ele>54.45</ele><time>2026-09-01T20:37:58Z</time></trkpt><trkpt lat="59.4678747375" lon="31.1414865218"><ele>54.93</ele><time>2026-09-01T20:38:06Z</time></trkpt><trkpt lat="59.4678897411" lon="31.1414002720"><ele>55.89</ele><time>2026-09-01T20:38:12Z</time></trkpt><trkpt lat="59.4678941835" lon="31.1413508188"><ele>55.41</ele><time>2026-09-01T20:38:19Z</time></trkpt><trkpt lat="59.4678621646" lon="31.1413031258"><ele>55.41</ele><time>2026-09-01T20:38:27Z</time></trkpt><trkpt lat="59.4678343367" lon="31.1413333844"><ele>55.89</ele><time>2026-09-01T20:38:34Z</time></trkpt><trkpt lat="59.4678103644" lon="31.1413224041"><ele>55.41</ele><time>2026-09-01T20:38:42Z</time></trkpt><trkpt lat="59.4677392021" lon="31.1413438618"><ele>55.41</ele><time>2026-09-01T20:38:50Z</time></trkpt><trkpt lat="59.4677323289" lon="31.1413372401"><ele>55.89</ele><time>2026-09-01T20:39:00Z</time></trkpt><trkpt lat="59.4677069318" lon="31.1413114239"><ele>55.41</ele><time>2026-09-01T20:39:11Z</time></trkpt><trkpt lat="59.4676489290" lon="31.1413098313"><ele>55.41</ele><time>2026-09-01T20:39:19Z</time></trkpt><trkpt lat="59.4676424749" lon="31.1412716936"><ele>54.93</ele><time>2026-09-01T20:39:26Z</time></trkpt><trkpt lat="59.4676506892" lon="31.1411836836"><ele>54.93</ele><time>2026-09-01T20:39:32Z</time></trkpt><trkpt lat="59.4676086120" lon="31.1411822587"><ele>54.93</ele><time>2026-09-01T20:39:39Z</time></trkpt><trkpt lat="59.4675609190" lon="31.1411466356"><ele>55.89</ele><time>2026-09-01T20:39:45Z</time></trkpt><trkpt lat="59.4674964622" lon="31.1410872918"><ele>55.41</ele><time>2026-09-01T20:39:53Z</time></trkpt><trkpt lat="59.4674566481" lon="31.1411530897"><ele>55.89</ele><time>2026-09-01T20:40:01Z</time></trkpt><trkpt lat="59.4674198516" lon="31.1412255093"><ele>56.37</ele><time>2026-09-01T20:40:09Z</time></trkpt><trkpt lat="59.4673896767" lon="31.1412731186"><ele>56.37</ele><time>2026-09-01T20:40:20Z</time></trkpt><trkpt lat="59.4673805404" lon="31.1412685923"><ele>56.37</ele><time>2026-09-01T20:40:33Z</time></trkpt><trkpt lat="59.4674118049" lon="31.1412701011"><ele>57.34</ele><time>2026-09-01T20:40:44Z</time></trkpt><trkpt lat="59.4674197678" lon="31.1412867811"><ele>56.37</ele><time>2026-09-01T20:40:55Z</time></trkpt><trkpt lat="59.4674420636" lon="31.1412922293"><ele>55.41</ele><time>2026-09-01T20:41:09Z</time></trkpt><trkpt lat="59.4675527886" lon="31.1413519923"><ele>55.89</ele><time>2026-09-01T20:41:27Z</time></trkpt><trkpt lat="59.4676428940" lon="31.1413476337"><ele>55.41</ele><time>2026-09-01T20:41:46Z</time></trkpt><trkpt lat="59.4675742462" lon="31.1413281877"><ele>55.89</ele><time>2026-09-01T20:42:01Z</time></trkpt><trkpt lat="59.4674822967" lon="31.1412620544"><ele>57.34</ele><time>2026-09-01T20:42:13Z</time></trkpt><trkpt lat="59.4674692210" lon="31.1412391718"><ele>57.34</ele><time>2026-09-01T20:42:26Z</time></trkpt><trkpt lat="59.4673790317" lon="31.1413137708"><ele>57.82</ele><time>2026-09-01T20:42:36Z</time></trkpt><trkpt lat="59.4673302490" lon="31.1413500644"><ele>56.86</ele><time>2026-09-01T20:42:45Z</time></trkpt><trkpt lat="59.4673159998" lon="31.1414073966"><ele>57.34</ele><time>2026-09-01T20:42:53Z</time></trkpt><trkpt lat="59.4673026726" lon="31.1414560117"><ele>57.34</ele><time>2026-09-01T20:43:01Z</time></trkpt><trkpt lat="59.4673153292" lon="31.1414061394"><ele>58.30</ele><time>2026-09-01T20:43:09Z</time></trkpt><trkpt lat="59.4673015829" lon="31.1413918901"><ele>57.82</ele><time>2026-09-01T20:43:15Z</time></trkpt><trkpt lat="59.4672790356" lon="31.1414146889"><ele>58.30</ele><time>2026-09-01T20:43:23Z</time></trkpt><trkpt lat="59.4672672171" lon="31.1414652318"><ele>57.82</ele><time>2026-09-01T20:43:29Z</time></trkpt><trkpt lat="59.4672159199" lon="31.1414580233"><ele>58.30</ele><time>2026-09-01T20:43:36Z</time></trkpt><trkpt lat="59.4671932887" lon="31.1414706800"><ele>58.30</ele><time>2026-09-01T20:43:40Z</time></trkpt><trkpt lat="59.4671767764" lon="31.1415275931"><ele>57.82</ele><time>2026-09-01T20:43:46Z</time></trkpt><trkpt lat="59.4671647903" lon="31.1416629609"><ele>58.30</ele><time>2026-09-01T20:43:57Z</time></trkpt><trkpt lat="59.4671533071" lon="31.1417131685"><ele>58.78</ele><time>2026-09-01T20:44:05Z</time></trkpt><trkpt lat="59.4671326876" lon="31.1417808942"><ele>58.30</ele><time>2026-09-01T20:44:13Z</time></trkpt><trkpt lat="59.4670974836" lon="31.1418638751"><ele>58.30</ele><time>2026-09-01T20:44:20Z</time></trkpt><trkpt lat="59.4671148341" lon="31.1418580078"><ele>57.82</ele><time>2026-09-01T20:44:27Z</time></trkpt><trkpt lat="59.4671427459" lon="31.1418445129"><ele>58.30</ele><time>2026-09-01T20:44:42Z</time></trkpt><trkpt lat="59.4671280775" lon="31.1418611091"><ele>57.82</ele><time>2026-09-01T20:44:51Z</time></trkpt><trkpt lat="59.4671393093" lon="31.1419232190"><ele>58.78</ele><time>2026-09-01T20:44:59Z</time></trkpt><trkpt lat="59.4671292510" lon="31.1419553217"><ele>58.30</ele><time>2026-09-01T20:45:08Z</time></trkpt><trkpt lat="59.4671547320" lon="31.1419962253"><ele>58.30</ele><time>2026-09-01T20:45:17Z</time></trkpt><trkpt lat="59.4671430811" lon="31.1420196109"><ele>58.30</ele><time>2026-09-01T20:45:26Z</time></trkpt><trkpt lat="59.4671139959" lon="31.1419615243"><ele>58.30</ele><time>2026-09-01T20:45:40Z</time></trkpt><trkpt lat="59.4670740981" lon="31.1419991590"><ele>58.30</ele><time>2026-09-01T20:45:55Z</time></trkpt><trkpt lat="59.4670936279" lon="31.1420755181"><ele>57.34</ele><time>2026-09-01T20:46:06Z</time></trkpt><trkpt lat="59.4670703262" lon="31.1421082914"><ele>57.34</ele><time>2026-09-01T20:46:26Z</time></trkpt><trkpt lat="59.4670647942" lon="31.1420978140"><ele>57.82</ele><time>2026-09-01T20:46:42Z</time></trkpt><trkpt lat="59.4670601841" lon="31.1420745961"><ele>57.82</ele><time>2026-09-01T20:47:02Z</time></trkpt><trkpt lat="59.4670844916" lon="31.1420805473"><ele>57.34</ele><time>2026-09-01T20:47:21Z</time></trkpt><trkpt lat="59.4671217911" lon="31.1420874204"><ele>57.82</ele><time>2026-09-01T20:47:43Z</time></trkpt><trkpt lat="59.4671476074" lon="31.1420783680"><ele>58.30</ele><time>2026-09-01T20:48:03Z</time></trkpt><trkpt lat="59.4671703223" lon="31.1420626100"><ele>57.82</ele><time>2026-09-01T20:48:18Z</time></trkpt><trkpt lat="59.4671687298" lon="31.1420395598"><ele>58.30</ele><time>2026-09-01T20:48:31Z</time></trkpt><trkpt lat="59.4672186021" lon="31.1420443375"><ele>57.82</ele><time>2026-09-01T20:48:54Z</time></trkpt><trkpt lat="59.4671739265" lon="31.1421195231"><ele>58.30</ele><time>2026-09-01T20:49:13Z</time></trkpt><trkpt lat="59.4671622757" lon="31.1421175953"><ele>58.30</ele><time>2026-09-01T20:49:27Z</time></trkpt><trkpt lat="59.4671532232" lon="31.1421065312"><ele>59.74</ele><time>2026-09-01T20:49:29Z</time></trkpt><trkpt lat="59.4671034347" lon="31.1420735903"><ele>59.74</ele><time>2026-09-01T20:49:42Z</time></trkpt><trkpt lat="59.4670154247" lon="31.1420620233"><ele>59.74</ele><time>2026-09-01T20:49:52Z</time></trkpt><trkpt lat="59.4669359643" lon="31.1420679744"><ele>59.26</ele><time>2026-09-01T20:50:01Z</time></trkpt><trkpt lat="59.4668836612" lon="31.1420517135"><ele>59.26</ele><time>2026-09-01T20:50:10Z</time></trkpt><trkpt lat="59.4667697512" lon="31.1420688964"><ele>59.74</ele><time>2026-09-01T20:50:21Z</time></trkpt><trkpt lat="59.4666872732" lon="31.1420080438"><ele>59.74</ele><time>2026-09-01T20:50:29Z</time></trkpt><trkpt lat="59.4666488841" lon="31.1420128215"><ele>59.74</ele><time>2026-09-01T20:50:37Z</time></trkpt><trkpt lat="59.4665744528" lon="31.1420117319"><ele>59.74</ele><time>2026-09-01T20:50:47Z</time></trkpt><trkpt lat="59.4665610418" lon="31.1419733427"><ele>60.22</ele><time>2026-09-01T20:50:51Z</time></trkpt><trkpt lat="59.4664904661" lon="31.1419406533"><ele>59.26</ele><time>2026-09-01T20:51:00Z</time></trkpt><trkpt lat="59.4664295297" lon="31.1419400666"><ele>59.74</ele><time>2026-09-01T20:51:07Z</time></trkpt><trkpt lat="59.4663763884" lon="31.1419510469"><ele>60.22</ele><time>2026-09-01T20:51:15Z</time></trkpt><trkpt lat="59.4663107581" lon="31.1419343669"><ele>59.74</ele><time>2026-09-01T20:51:23Z</time></trkpt><trkpt lat="59.4662142824" lon="31.1419183575"><ele>59.74</ele><time>2026-09-01T20:51:33Z</time></trkpt><trkpt lat="59.4662022963" lon="31.1419213749"><ele>59.26</ele><time>2026-09-01T20:51:35Z</time></trkpt><trkpt lat="59.4661240932" lon="31.1419273261"><ele>58.78</ele><time>2026-09-01T20:51:43Z</time></trkpt><trkpt lat="59.4660951756" lon="31.1419207044"><ele>60.22</ele><time>2026-09-01T20:51:46Z</time></trkpt><trkpt lat="59.4660463929" lon="31.1419347022"><ele>59.74</ele><time>2026-09-01T20:51:53Z</time></trkpt><trkpt lat="59.4660020526" lon="31.1419331934"><ele>60.22</ele><time>2026-09-01T20:52:00Z</time></trkpt><trkpt lat="59.4659507554" lon="31.1419294216"><ele>59.74</ele><time>2026-09-01T20:52:07Z</time></trkpt><trkpt lat="59.4658983685" lon="31.1419117358"><ele>58.78</ele><time>2026-09-01T20:52:15Z</time></trkpt><trkpt lat="59.4658174831" lon="31.1418990791"><ele>58.78</ele><time>2026-09-01T20:52:25Z</time></trkpt><trkpt lat="59.4657516852" lon="31.1418108176"><ele>58.78</ele><time>2026-09-01T20:52:35Z</time></trkpt><trkpt lat="59.4656727277" lon="31.1418127455"><ele>58.78</ele><time>2026-09-01T20:52:47Z</time></trkpt><trkpt lat="59.4656070974" lon="31.1417005956"><ele>59.26</ele><time>2026-09-01T20:52:54Z</time></trkpt><trkpt lat="59.4655677024" lon="31.1416848376"><ele>59.26</ele><time>2026-09-01T20:53:01Z</time></trkpt><trkpt lat="59.4655409642" lon="31.1416772101"><ele>58.78</ele><time>2026-09-01T20:53:09Z</time></trkpt><trkpt lat="59.4654623419" lon="31.1416768748"><ele>58.78</ele><time>2026-09-01T20:53:19Z</time></trkpt><trkpt lat="59.4653781038" lon="31.1416448560"><ele>58.78</ele><time>2026-09-01T20:53:27Z</time></trkpt><trkpt lat="59.4653017446" lon="31.1416484602"><ele>59.26</ele><time>2026-09-01T20:53:38Z</time></trkpt><trkpt lat="59.4652481843" lon="31.1416487116"><ele>58.78</ele><time>2026-09-01T20:53:46Z</time></trkpt><trkpt lat="59.4651476014" lon="31.1416168604"><ele>59.26</ele><time>2026-09-01T20:53:56Z</time></trkpt><trkpt lat="59.4650813844" lon="31.1416251585"><ele>58.78</ele><time>2026-09-01T20:54:04Z</time></trkpt><trkpt lat="59.4650436658" lon="31.1416262481"><ele>59.26</ele><time>2026-09-01T20:54:09Z</time></trkpt><trkpt lat="59.4649985712" lon="31.1415980011"><ele>59.26</ele><time>2026-09-01T20:54:16Z</time></trkpt><trkpt lat="59.4649459329" lon="31.1415898707"><ele>59.26</ele><time>2026-09-01T20:54:24Z</time></trkpt><trkpt lat="59.4648815598" lon="31.1415399145"><ele>58.78</ele><time>2026-09-01T20:54:35Z</time></trkpt><trkpt lat="59.4648255687" lon="31.1415391602"><ele>59.26</ele><time>2026-09-01T20:54:44Z</time></trkpt><trkpt lat="59.4647596031" lon="31.1415269226"><ele>59.26</ele><time>2026-09-01T20:54:52Z</time></trkpt><trkpt lat="59.4646487944" lon="31.1415353045"><ele>59.26</ele><time>2026-09-01T20:55:00Z</time></trkpt><trkpt lat="59.4645896181" lon="31.1415302753"><ele>59.26</ele><time>2026-09-01T20:55:09Z</time></trkpt><trkpt lat="59.4645013567" lon="31.1415121704"><ele>59.74</ele><time>2026-09-01T20:55:18Z</time></trkpt><trkpt lat="59.4644545019" lon="31.1415050458"><ele>59.74</ele><time>2026-09-01T20:55:26Z</time></trkpt><trkpt lat="59.4644170348" lon="31.1415010225"><ele>59.26</ele><time>2026-09-01T20:55:35Z</time></trkpt><trkpt lat="59.4644139335" lon="31.1414822470"><ele>60.22</ele><time>2026-09-01T20:55:42Z</time></trkpt><trkpt lat="59.4644400850" lon="31.1415276770"><ele>59.74</ele><time>2026-09-01T20:55:55Z</time></trkpt><trkpt lat="59.4644244108" lon="31.1414857674"><ele>59.74</ele><time>2026-09-01T20:56:08Z</time></trkpt><trkpt lat="59.4643815793" lon="31.1414711829"><ele>59.74</ele><time>2026-09-01T20:56:14Z</time></trkpt><trkpt lat="59.4642752968" lon="31.1414467916"><ele>59.74</ele><time>2026-09-01T20:56:23Z</time></trkpt><trkpt lat="59.4642248377" lon="31.1414747871"><ele>60.22</ele><time>2026-09-01T20:56:30Z</time></trkpt><trkpt lat="59.4641421922" lon="31.1414788943"><ele>60.22</ele><time>2026-09-01T20:56:41Z</time></trkpt><trkpt lat="59.4640293717" lon="31.1414892878"><ele>60.70</ele><time>2026-09-01T20:56:52Z</time></trkpt><trkpt lat="59.4639741350" lon="31.1414720211"><ele>60.70</ele><time>2026-09-01T20:56:55Z</time></trkpt><trkpt lat="59.4638346601" lon="31.1414799839"><ele>60.70</ele><time>2026-09-01T20:57:05Z</time></trkpt><trkpt lat="59.4637464825" lon="31.1416135915"><ele>61.66</ele><time>2026-09-01T20:57:13Z</time></trkpt><trkpt lat="59.4636617415" lon="31.1416171957"><ele>61.66</ele><time>2026-09-01T20:57:20Z</time></trkpt><trkpt lat="59.4635869749" lon="31.1416252423"><ele>61.66</ele><time>2026-09-01T20:57:28Z</time></trkpt><trkpt lat="59.4635292236" lon="31.1416518129"><ele>61.18</ele><time>2026-09-01T20:57:35Z</time></trkpt><trkpt lat="59.4634824526" lon="31.1416259967"><ele>61.66</ele><time>2026-09-01T20:57:42Z</time></trkpt><trkpt lat="59.4634137210" lon="31.1416275892"><ele>61.18</ele><time>2026-09-01T20:57:49Z</time></trkpt><trkpt lat="59.4633760862" lon="31.1415138468"><ele>61.18</ele><time>2026-09-01T20:58:01Z</time></trkpt><trkpt lat="59.4633075222" lon="31.1414420977"><ele>59.74</ele><time>2026-09-01T20:58:10Z</time></trkpt><trkpt lat="59.4632176682" lon="31.1414042115"><ele>60.22</ele><time>2026-09-01T20:58:18Z</time></trkpt><trkpt lat="59.4631667063" lon="31.1413980927"><ele>60.22</ele><time>2026-09-01T20:58:25Z</time></trkpt><trkpt lat="59.4631533790" lon="31.1413883697"><ele>58.78</ele><time>2026-09-01T20:58:28Z</time></trkpt><trkpt lat="59.4631136488" lon="31.1414850969"><ele>60.70</ele><time>2026-09-01T20:58:38Z</time></trkpt><trkpt lat="59.4631306641" lon="31.1415473744"><ele>60.70</ele><time>2026-09-01T20:58:56Z</time></trkpt><trkpt lat="59.4630376250" lon="31.1415533256"><ele>61.66</ele><time>2026-09-01T20:59:08Z</time></trkpt><trkpt lat="59.4629932009" lon="31.1415214743"><ele>61.66</ele><time>2026-09-01T20:59:19Z</time></trkpt><trkpt lat="59.4628699031" lon="31.1415636353"><ele>61.18</ele><time>2026-09-01T20:59:33Z</time></trkpt><trkpt lat="59.4628728367" lon="31.1415488832"><ele>60.22</ele><time>2026-09-01T20:59:47Z</time></trkpt><trkpt lat="59.4628491998" lon="31.1415674910"><ele>60.70</ele><time>2026-09-01T20:59:55Z</time></trkpt><trkpt lat="59.4628523849" lon="31.1416447721"><ele>60.22</ele><time>2026-09-01T21:00:05Z</time></trkpt><trkpt lat="59.4628412370" lon="31.1416518968"><ele>60.70</ele><time>2026-09-01T21:00:15Z</time></trkpt><trkpt lat="59.4628167618" lon="31.1417087261"><ele>61.18</ele><time>2026-09-01T21:00:24Z</time></trkpt><trkpt lat="59.4627995789" lon="31.1417807266"><ele>61.18</ele><time>2026-09-01T21:00:33Z</time></trkpt><trkpt lat="59.4627181906" lon="31.1418186128"><ele>60.70</ele><time>2026-09-01T21:00:44Z</time></trkpt><trkpt lat="59.4627184421" lon="31.1417901143"><ele>62.62</ele><time>2026-09-01T21:00:55Z</time></trkpt><trkpt lat="59.4627464376" lon="31.1416751146"><ele>60.70</ele><time>2026-09-01T21:01:05Z</time></trkpt><trkpt lat="59.4627361279" lon="31.1415851768"><ele>61.18</ele><time>2026-09-01T21:01:13Z</time></trkpt><trkpt lat="59.4627311826" lon="31.1415743642"><ele>60.22</ele><time>2026-09-01T21:01:14Z</time></trkpt><trkpt lat="59.4626973197" lon="31.1415316164"><ele>60.70</ele><time>2026-09-01T21:01:20Z</time></trkpt><trkpt lat="59.4627078809" lon="31.1415382382"><ele>59.74</ele><time>2026-09-01T21:01:25Z</time></trkpt><trkpt lat="59.4626251515" lon="31.1414923053"><ele>59.74</ele><time>2026-09-01T21:01:34Z</time></trkpt><trkpt lat="59.4625751954" lon="31.1415134277"><ele>61.18</ele><time>2026-09-01T21:01:42Z</time></trkpt><trkpt lat="59.4625567552" lon="31.1414871924"><ele>60.70</ele><time>2026-09-01T21:01:53Z</time></trkpt><trkpt lat="59.4625266641" lon="31.1414665729"><ele>62.14</ele><time>2026-09-01T21:02:00Z</time></trkpt><trkpt lat="59.4625074696" lon="31.1414508987"><ele>60.70</ele><time>2026-09-01T21:02:07Z</time></trkpt><trkpt lat="59.4624904543" lon="31.1414368171"><ele>61.18</ele><time>2026-09-01T21:02:13Z</time></trkpt><trkpt lat="59.4625154324" lon="31.1414467078"><ele>61.66</ele><time>2026-09-01T21:02:29Z</time></trkpt><trkpt lat="59.4624674041" lon="31.1414611246"><ele>61.66</ele><time>2026-09-01T21:02:34Z</time></trkpt><trkpt lat="59.4623925537" lon="31.1414464563"><ele>61.18</ele><time>2026-09-01T21:02:42Z</time></trkpt><trkpt lat="59.4623114169" lon="31.1414864380"><ele>61.66</ele><time>2026-09-01T21:02:48Z</time></trkpt><trkpt lat="59.4622467924" lon="31.1414615437"><ele>61.66</ele><time>2026-09-01T21:02:54Z</time></trkpt><trkpt lat="59.4622196350" lon="31.1414275970"><ele>61.66</ele><time>2026-09-01T21:03:00Z</time></trkpt><trkpt lat="59.4621805754" lon="31.1414353922"><ele>62.14</ele><time>2026-09-01T21:03:08Z</time></trkpt><trkpt lat="59.4621305354" lon="31.1414363142"><ele>63.10</ele><time>2026-09-01T21:03:17Z</time></trkpt><trkpt lat="59.4620877877" lon="31.1413849331"><ele>62.62</ele><time>2026-09-01T21:03:27Z</time></trkpt><trkpt lat="59.4620836806" lon="31.1413835082"><ele>62.14</ele><time>2026-09-01T21:03:31Z</time></trkpt><trkpt lat="59.4619165454" lon="31.1413189676"><ele>62.62</ele><time>2026-09-01T21:03:42Z</time></trkpt><trkpt lat="59.4618524238" lon="31.1413186323"><ele>63.10</ele><time>2026-09-01T21:03:50Z</time></trkpt><trkpt lat="59.4618294574" lon="31.1413284391"><ele>62.62</ele><time>2026-09-01T21:04:00Z</time></trkpt><trkpt lat="59.4617894758" lon="31.1412887089"><ele>62.62</ele><time>2026-09-01T21:04:11Z</time></trkpt><trkpt lat="59.4617600553" lon="31.1413025390"><ele>63.58</ele><time>2026-09-01T21:04:18Z</time></trkpt><trkpt lat="59.4617976900" lon="31.1413229071"><ele>63.58</ele><time>2026-09-01T21:04:34Z</time></trkpt><trkpt lat="59.4618621469" lon="31.1412659101"><ele>63.58</ele><time>2026-09-01T21:04:50Z</time></trkpt><trkpt lat="59.4618153758" lon="31.1412640661"><ele>62.62</ele><time>2026-09-01T21:05:10Z</time></trkpt><trkpt lat="59.4618563633" lon="31.1412843503"><ele>62.62</ele><time>2026-09-01T21:05:26Z</time></trkpt><trkpt lat="59.4618883822" lon="31.1413562670"><ele>63.10</ele><time>2026-09-01T21:05:33Z</time></trkpt><trkpt lat="59.4618999492" lon="31.1414021160"><ele>63.58</ele><time>2026-09-01T21:05:40Z</time></trkpt><trkpt lat="59.4619797450" lon="31.1413455382"><ele>63.58</ele><time>2026-09-01T21:05:49Z</time></trkpt><trkpt lat="59.4620330539" lon="31.1413762160"><ele>63.58</ele><time>2026-09-01T21:05:57Z</time></trkpt><trkpt lat="59.4620321319" lon="31.1414112523"><ele>63.10</ele><time>2026-09-01T21:06:05Z</time></trkpt><trkpt lat="59.4620366581" lon="31.1414179578"><ele>63.10</ele><time>2026-09-01T21:06:10Z</time></trkpt><trkpt lat="59.4620880391" lon="31.1414313689"><ele>62.14</ele><time>2026-09-01T21:06:17Z</time></trkpt><trkpt lat="59.4621276855" lon="31.1414188799"><ele>62.14</ele><time>2026-09-01T21:06:23Z</time></trkpt><trkpt lat="59.4621457905" lon="31.1414211430"><ele>61.66</ele><time>2026-09-01T21:06:25Z</time></trkpt><trkpt lat="59.4622171205" lon="31.1413978413"><ele>61.66</ele><time>2026-09-01T21:06:34Z</time></trkpt><trkpt lat="59.4622070622" lon="31.1414188799"><ele>61.18</ele><time>2026-09-01T21:06:42Z</time></trkpt><trkpt lat="59.4622193836" lon="31.1414472107"><ele>62.14</ele><time>2026-09-01T21:06:53Z</time></trkpt><trkpt lat="59.4622528274" lon="31.1414560117"><ele>61.66</ele><time>2026-09-01T21:07:01Z</time></trkpt><trkpt lat="59.4623498060" lon="31.1414412595"><ele>61.66</ele><time>2026-09-01T21:07:09Z</time></trkpt><trkpt lat="59.4623877760" lon="31.1414218973"><ele>61.18</ele><time>2026-09-01T21:07:17Z</time></trkpt><trkpt lat="59.4623974990" lon="31.1413438618"><ele>61.18</ele><time>2026-09-01T21:07:24Z</time></trkpt><trkpt lat="59.4624270033" lon="31.1412118468"><ele>61.18</ele><time>2026-09-01T21:07:33Z</time></trkpt><trkpt lat="59.4624226447" lon="31.1411447916"><ele>60.70</ele><time>2026-09-01T21:07:41Z</time></trkpt><trkpt lat="59.4624248240" lon="31.1411038879"><ele>60.70</ele><time>2026-09-01T21:07:47Z</time></trkpt><trkpt lat="59.4624326192" lon="31.1410561949"><ele>61.18</ele><time>2026-09-01T21:07:53Z</time></trkpt><trkpt lat="59.4624404982" lon="31.1410201527"><ele>60.70</ele><time>2026-09-01T21:07:59Z</time></trkpt><trkpt lat="59.4624257460" lon="31.1410361622"><ele>60.22</ele><time>2026-09-01T21:08:07Z</time></trkpt><trkpt lat="59.4624314457" lon="31.1409795005"><ele>59.74</ele><time>2026-09-01T21:08:18Z</time></trkpt><trkpt lat="59.4624218065" lon="31.1409663409"><ele>59.74</ele><time>2026-09-01T21:08:30Z</time></trkpt><trkpt lat="59.4624034502" lon="31.1409136187"><ele>59.74</ele><time>2026-09-01T21:08:39Z</time></trkpt><trkpt lat="59.4624176994" lon="31.1408134550"><ele>60.22</ele><time>2026-09-01T21:08:47Z</time></trkpt><trkpt lat="59.4624228962" lon="31.1406903248"><ele>60.22</ele><time>2026-09-01T21:08:56Z</time></trkpt><trkpt lat="59.4624543283" lon="31.1405927595"><ele>59.74</ele><time>2026-09-01T21:09:05Z</time></trkpt><trkpt lat="59.4624576811" lon="31.1405257881"><ele>59.74</ele><time>2026-09-01T21:09:14Z</time></trkpt><trkpt lat="59.4624332059" lon="31.1404485069"><ele>59.74</ele><time>2026-09-01T21:09:21Z</time></trkpt><trkpt lat="59.4623630494" lon="31.1403988861"><ele>59.26</ele><time>2026-09-01T21:09:34Z</time></trkpt><trkpt lat="59.4623685814" lon="31.1403538752"><ele>59.26</ele><time>2026-09-01T21:09:45Z</time></trkpt><trkpt lat="59.4623855967" lon="31.1402709782"><ele>59.26</ele><time>2026-09-01T21:09:54Z</time></trkpt><trkpt lat="59.4623967446" lon="31.1402137298"><ele>59.74</ele><time>2026-09-01T21:10:02Z</time></trkpt><trkpt lat="59.4624183699" lon="31.1401456688"><ele>59.26</ele><time>2026-09-01T21:10:09Z</time></trkpt><trkpt lat="59.4624053780" lon="31.1400843970"><ele>58.78</ele><time>2026-09-01T21:10:14Z</time></trkpt><trkpt lat="59.4624250755" lon="31.1399949621"><ele>58.78</ele><time>2026-09-01T21:10:21Z</time></trkpt><trkpt lat="59.4624392409" lon="31.1399251409"><ele>58.78</ele><time>2026-09-01T21:10:30Z</time></trkpt><trkpt lat="59.4624575134" lon="31.1397550721"><ele>58.78</ele><time>2026-09-01T21:10:39Z</time></trkpt><trkpt lat="59.4624252431" lon="31.1396994162"><ele>58.78</ele><time>2026-09-01T21:10:46Z</time></trkpt><trkpt lat="59.4624045398" lon="31.1395981628"><ele>58.78</ele><time>2026-09-01T21:10:54Z</time></trkpt><trkpt lat="59.4624410011" lon="31.1394869350"><ele>58.78</ele><time>2026-09-01T21:11:07Z</time></trkpt><trkpt lat="59.4624589384" lon="31.1393313669"><ele>58.30</ele><time>2026-09-01T21:11:18Z</time></trkpt><trkpt lat="59.4624208845" lon="31.1392283533"><ele>58.30</ele><time>2026-09-01T21:11:30Z</time></trkpt><trkpt lat="59.4623824116" lon="31.1391394213"><ele>57.82</ele><time>2026-09-01T21:11:38Z</time></trkpt><trkpt lat="59.4624417555" lon="31.1390312947"><ele>58.30</ele><time>2026-09-01T21:11:45Z</time></trkpt><trkpt lat="59.4624570105" lon="31.1389709450"><ele>58.30</ele><time>2026-09-01T21:11:50Z</time></trkpt><trkpt lat="59.4624232315" lon="31.1388795823"><ele>57.82</ele><time>2026-09-01T21:11:59Z</time></trkpt><trkpt lat="59.4624062162" lon="31.1387997866"><ele>58.30</ele><time>2026-09-01T21:12:08Z</time></trkpt><trkpt lat="59.4624125864" lon="31.1386906542"><ele>57.82</ele><time>2026-09-01T21:12:17Z</time></trkpt><trkpt lat="59.4624311943" lon="31.1386055779"><ele>57.34</ele><time>2026-09-01T21:12:25Z</time></trkpt><trkpt lat="59.4624135923" lon="31.1385042407"><ele>57.34</ele><time>2026-09-01T21:12:34Z</time></trkpt><trkpt lat="59.4624223933" lon="31.1384601519"><ele>58.30</ele><time>2026-09-01T21:12:36Z</time></trkpt><trkpt lat="59.4624714274" lon="31.1383499298"><ele>58.78</ele><time>2026-09-01T21:12:44Z</time></trkpt><trkpt lat="59.4624573458" lon="31.1382335890"><ele>57.82</ele><time>2026-09-01T21:12:51Z</time></trkpt><trkpt lat="59.4624382351" lon="31.1381085310"><ele>57.82</ele><time>2026-09-01T21:12:58Z</time></trkpt><trkpt lat="59.4624402467" lon="31.1380617600"><ele>57.82</ele><time>2026-09-01T21:13:07Z</time></trkpt><trkpt lat="59.4624505565" lon="31.1379616801"><ele>58.30</ele><time>2026-09-01T21:13:16Z</time></trkpt><trkpt lat="59.4624303561" lon="31.1378930323"><ele>59.26</ele><time>2026-09-01T21:13:24Z</time></trkpt><trkpt lat="59.4624219742" lon="31.1378812138"><ele>57.82</ele><time>2026-09-01T21:13:34Z</time></trkpt><trkpt lat="59.4624273386" lon="31.1378584150"><ele>57.34</ele><time>2026-09-01T21:13:41Z</time></trkpt><trkpt lat="59.4624306075" lon="31.1377752665"><ele>57.34</ele><time>2026-09-01T21:13:49Z</time></trkpt><trkpt lat="59.4624373131" lon="31.1377072893"><ele>57.34</ele><time>2026-09-01T21:13:54Z</time></trkpt><trkpt lat="59.4624580164" lon="31.1376431677"><ele>56.86</ele><time>2026-09-01T21:14:00Z</time></trkpt><trkpt lat="59.4624715950" lon="31.1375949718"><ele>57.34</ele><time>2026-09-01T21:14:04Z</time></trkpt><trkpt lat="59.4624508079" lon="31.1375404894"><ele>57.34</ele><time>2026-09-01T21:14:11Z</time></trkpt><trkpt lat="59.4624661468" lon="31.1375133321"><ele>55.41</ele><time>2026-09-01T21:14:20Z</time></trkpt><trkpt lat="59.4624787197" lon="31.1375591811"><ele>56.37</ele><time>2026-09-01T21:14:25Z</time></trkpt><trkpt lat="59.4624953996" lon="31.1375817284"><ele>57.34</ele><time>2026-09-01T21:14:33Z</time></trkpt><trkpt lat="59.4625709206" lon="31.1375295091"><ele>56.86</ele><time>2026-09-01T21:14:41Z</time></trkpt><trkpt lat="59.4625735190" lon="31.1374327820"><ele>56.86</ele><time>2026-09-01T21:14:48Z</time></trkpt><trkpt lat="59.4625337888" lon="31.1373420060"><ele>56.86</ele><time>2026-09-01T21:14:57Z</time></trkpt><trkpt lat="59.4625180308" lon="31.1372700054"><ele>55.89</ele><time>2026-09-01T21:15:05Z</time></trkpt><trkpt lat="59.4625601079" lon="31.1371468753"><ele>56.37</ele><time>2026-09-01T21:15:16Z</time></trkpt><trkpt lat="59.4625599403" lon="31.1370309535"><ele>56.86</ele><time>2026-09-01T21:15:24Z</time></trkpt><trkpt lat="59.4625969045" lon="31.1369454581"><ele>56.86</ele><time>2026-09-01T21:15:32Z</time></trkpt><trkpt lat="59.4626145065" lon="31.1368665006"><ele>56.86</ele><time>2026-09-01T21:15:40Z</time></trkpt><trkpt lat="59.4625877682" lon="31.1368449591"><ele>56.37</ele><time>2026-09-01T21:15:54Z</time></trkpt><trkpt lat="59.4626206253" lon="31.1367799994"><ele>56.37</ele><time>2026-09-01T21:16:02Z</time></trkpt><trkpt lat="59.4626259059" lon="31.1367118545"><ele>56.37</ele><time>2026-09-01T21:16:11Z</time></trkpt><trkpt lat="59.4625854213" lon="31.1365556996"><ele>56.37</ele><time>2026-09-01T21:16:21Z</time></trkpt><trkpt lat="59.4625685737" lon="31.1364396103"><ele>56.86</ele><time>2026-09-01T21:16:33Z</time></trkpt><trkpt lat="59.4624473713" lon="31.1363782547"><ele>56.37</ele><time>2026-09-01T21:16:42Z</time></trkpt><trkpt lat="59.4623999298" lon="31.1363235209"><ele>56.37</ele><time>2026-09-01T21:16:53Z</time></trkpt><trkpt lat="59.4624254107" lon="31.1361975409"><ele>56.37</ele><time>2026-09-01T21:17:02Z</time></trkpt><trkpt lat="59.4624319486" lon="31.1361127160"><ele>55.89</ele><time>2026-09-01T21:17:10Z</time></trkpt><trkpt lat="59.4624294341" lon="31.1360202637"><ele>56.37</ele><time>2026-09-01T21:17:16Z</time></trkpt><trkpt lat="59.4624698348" lon="31.1359413061"><ele>56.37</ele><time>2026-09-01T21:17:25Z</time></trkpt><trkpt lat="59.4625034463" lon="31.1359275598"><ele>55.89</ele><time>2026-09-01T21:17:36Z</time></trkpt><trkpt lat="59.4625077210" lon="31.1358442437"><ele>56.37</ele><time>2026-09-01T21:17:44Z</time></trkpt><trkpt lat="59.4625154324" lon="31.1357296631"><ele>55.89</ele><time>2026-09-01T21:17:54Z</time></trkpt><trkpt lat="59.4625439309" lon="31.1356258113"><ele>55.41</ele><time>2026-09-01T21:18:00Z</time></trkpt><trkpt lat="59.4625623710" lon="31.1355460156"><ele>55.89</ele><time>2026-09-01T21:18:05Z</time></trkpt><trkpt lat="59.4625223894" lon="31.1354918685"><ele>55.89</ele><time>2026-09-01T21:18:13Z</time></trkpt><trkpt lat="59.4625585154" lon="31.1354981549"><ele>55.89</ele><time>2026-09-01T21:18:21Z</time></trkpt><trkpt lat="59.4625602756" lon="31.1354691535"><ele>55.89</ele><time>2026-09-01T21:18:31Z</time></trkpt><trkpt lat="59.4625628740" lon="31.1353997514"><ele>55.89</ele><time>2026-09-01T21:18:40Z</time></trkpt><trkpt lat="59.4625080563" lon="31.1353098135"><ele>55.89</ele><time>2026-09-01T21:18:50Z</time></trkpt><trkpt lat="59.4624486286" lon="31.1352412496"><ele>56.37</ele><time>2026-09-01T21:18:58Z</time></trkpt><trkpt lat="59.4624420907" lon="31.1351689138"><ele>56.37</ele><time>2026-09-01T21:19:07Z</time></trkpt><trkpt lat="59.4624213036" lon="31.1350510642"><ele>55.89</ele><time>2026-09-01T21:19:16Z</time></trkpt><trkpt lat="59.4624285959" lon="31.1348830070"><ele>55.41</ele><time>2026-09-01T21:19:24Z</time></trkpt><trkpt lat="59.4624450244" lon="31.1347959191"><ele>55.41</ele><time>2026-09-01T21:19:34Z</time></trkpt><trkpt lat="59.4623911288" lon="31.1347737070"><ele>54.93</ele><time>2026-09-01T21:19:45Z</time></trkpt><trkpt lat="59.4624073058" lon="31.1348566879"><ele>55.89</ele><time>2026-09-01T21:19:59Z</time></trkpt><trkpt lat="59.4624021929" lon="31.1348492280"><ele>55.41</ele><time>2026-09-01T21:20:01Z</time></trkpt><trkpt lat="59.4623901229" lon="31.1347491480"><ele>55.41</ele><time>2026-09-01T21:20:09Z</time></trkpt><trkpt lat="59.4623734429" lon="31.1347167101"><ele>55.89</ele><time>2026-09-01T21:20:18Z</time></trkpt><trkpt lat="59.4623864349" lon="31.1346627306"><ele>54.45</ele><time>2026-09-01T21:20:29Z</time></trkpt><trkpt lat="59.4624058809" lon="31.1346673407"><ele>54.93</ele><time>2026-09-01T21:20:37Z</time></trkpt><trkpt lat="59.4625062961" lon="31.1347149499"><ele>53.97</ele><time>2026-09-01T21:20:48Z</time></trkpt><trkpt lat="59.4625218026" lon="31.1347497348"><ele>54.93</ele><time>2026-09-01T21:20:56Z</time></trkpt><trkpt lat="59.4625024404" lon="31.1347483099"><ele>54.93</ele><time>2026-09-01T21:21:05Z</time></trkpt><trkpt lat="59.4625042006" lon="31.1347146146"><ele>54.45</ele><time>2026-09-01T21:21:13Z</time></trkpt><trkpt lat="59.4624964893" lon="31.1346301250"><ele>54.93</ele><time>2026-09-01T21:21:21Z</time></trkpt><trkpt lat="59.4624772109" lon="31.1345878802"><ele>55.41</ele><time>2026-09-01T21:21:32Z</time></trkpt><trkpt lat="59.4624565076" lon="31.1345074978"><ele>55.41</ele><time>2026-09-01T21:21:40Z</time></trkpt><trkpt lat="59.4624596927" lon="31.1343960185"><ele>56.37</ele><time>2026-09-01T21:21:46Z</time></trkpt><trkpt lat="59.4624387380" lon="31.1343293823"><ele>55.89</ele><time>2026-09-01T21:21:53Z</time></trkpt><trkpt lat="59.4624453597" lon="31.1342024803"><ele>55.41</ele><time>2026-09-01T21:21:59Z</time></trkpt><trkpt lat="59.4624555018" lon="31.1340853013"><ele>55.89</ele><time>2026-09-01T21:22:05Z</time></trkpt><trkpt lat="59.4624649733" lon="31.1340616643"><ele>55.41</ele><time>2026-09-01T21:22:12Z</time></trkpt><trkpt lat="59.4624736905" lon="31.1340369377"><ele>55.89</ele><time>2026-09-01T21:22:21Z</time></trkpt><trkpt lat="59.4624612853" lon="31.1339447368"><ele>55.89</ele><time>2026-09-01T21:22:30Z</time></trkpt><trkpt lat="59.4624829944" lon="31.1337907612"><ele>55.89</ele><time>2026-09-01T21:22:37Z</time></trkpt><trkpt lat="59.4624446053" lon="31.1336987279"><ele>56.37</ele><time>2026-09-01T21:22:46Z</time></trkpt><trkpt lat="59.4624488801" lon="31.1336644460"><ele>55.89</ele><time>2026-09-01T21:22:53Z</time></trkpt><trkpt lat="59.4624550827" lon="31.1336144898"><ele>56.37</ele><time>2026-09-01T21:23:00Z</time></trkpt><trkpt lat="59.4624611177" lon="31.1335526314"><ele>56.37</ele><time>2026-09-01T21:23:08Z</time></trkpt><trkpt lat="59.4624891132" lon="31.1333365459"><ele>56.86</ele><time>2026-09-01T21:23:21Z</time></trkpt><trkpt lat="59.4624910410" lon="31.1332849134"><ele>57.82</ele><time>2026-09-01T21:23:30Z</time></trkpt><trkpt lat="59.4624519814" lon="31.1332249828"><ele>57.82</ele><time>2026-09-01T21:23:44Z</time></trkpt><trkpt lat="59.4623918831" lon="31.1332803033"><ele>57.82</ele><time>2026-09-01T21:24:00Z</time></trkpt><trkpt lat="59.4624319486" lon="31.1331771221"><ele>56.86</ele><time>2026-09-01T21:24:11Z</time></trkpt><trkpt lat="59.4624262489" lon="31.1331155151"><ele>56.86</ele><time>2026-09-01T21:24:20Z</time></trkpt><trkpt lat="59.4624162745" lon="31.1330213863"><ele>56.37</ele><time>2026-09-01T21:24:27Z</time></trkpt><trkpt lat="59.4624161068" lon="31.1329738609"><ele>56.37</ele><time>2026-09-01T21:24:30Z</time></trkpt><trkpt lat="59.4624038693" lon="31.1328819953"><ele>56.37</ele><time>2026-09-01T21:24:37Z</time></trkpt><trkpt lat="59.4623964932" lon="31.1328161974"><ele>55.89</ele><time>2026-09-01T21:24:44Z</time></trkpt><trkpt lat="59.4624099042" lon="31.1327467952"><ele>56.86</ele><time>2026-09-01T21:24:49Z</time></trkpt><trkpt lat="59.4623942301" lon="31.1327192187"><ele>56.86</ele><time>2026-09-01T21:24:56Z</time></trkpt><trkpt lat="59.4623836689" lon="31.1326994374"><ele>56.86</ele><time>2026-09-01T21:24:59Z</time></trkpt><trkpt lat="59.4623783045" lon="31.1326766387"><ele>55.41</ele><time>2026-09-01T21:25:01Z</time></trkpt><trkpt lat="59.4623714313" lon="31.1326285265"><ele>56.86</ele><time>2026-09-01T21:25:07Z</time></trkpt><trkpt lat="59.4623967446" lon="31.1325613037"><ele>55.89</ele><time>2026-09-01T21:25:12Z</time></trkpt><trkpt lat="59.4623821601" lon="31.1325432826"><ele>56.86</ele><time>2026-09-01T21:25:19Z</time></trkpt><trkpt lat="59.4623472076" lon="31.1326047219"><ele>56.86</ele><time>2026-09-01T21:25:28Z</time></trkpt><trkpt lat="59.4622995984" lon="31.1326533370"><ele>57.34</ele><time>2026-09-01T21:25:37Z</time></trkpt><trkpt lat="59.4622514024" lon="31.1325705238"><ele>56.37</ele><time>2026-09-01T21:25:44Z</time></trkpt><trkpt lat="59.4622373208" lon="31.1325062346"><ele>56.86</ele><time>2026-09-01T21:25:52Z</time></trkpt><trkpt lat="59.4622129295" lon="31.1324367486"><ele>56.86</ele><time>2026-09-01T21:25:58Z</time></trkpt><trkpt lat="59.4621510711" lon="31.1323950905"><ele>58.30</ele><time>2026-09-01T21:26:08Z</time></trkpt><trkpt lat="59.4621345587" lon="31.1323248502"><ele>57.34</ele><time>2026-09-01T21:26:18Z</time></trkpt><trkpt lat="59.4621569384" lon="31.1322486587"><ele>57.82</ele><time>2026-09-01T21:26:26Z</time></trkpt><trkpt lat="59.4621835090" lon="31.1321956851"><ele>57.82</ele><time>2026-09-01T21:26:41Z</time></trkpt><trkpt lat="59.4621720258" lon="31.1322581302"><ele>58.78</ele><time>2026-09-01T21:26:50Z</time></trkpt><trkpt lat="59.4621726964" lon="31.1322606448"><ele>58.30</ele><time>2026-09-01T21:27:03Z</time></trkpt><trkpt lat="59.4621525798" lon="31.1322142091"><ele>57.82</ele><time>2026-09-01T21:27:17Z</time></trkpt><trkpt lat="59.4621480536" lon="31.1321412027"><ele>56.86</ele><time>2026-09-01T21:27:26Z</time></trkpt><trkpt lat="59.4621291943" lon="31.1320516840"><ele>56.86</ele><time>2026-09-01T21:27:36Z</time></trkpt><trkpt lat="59.4620661624" lon="31.1319828685"><ele>56.37</ele><time>2026-09-01T21:27:46Z</time></trkpt><trkpt lat="59.4620618876" lon="31.1319469940"><ele>56.86</ele><time>2026-09-01T21:27:56Z</time></trkpt><trkpt lat="59.4620426092" lon="31.1318565533"><ele>56.86</ele><time>2026-09-01T21:28:04Z</time></trkpt><trkpt lat="59.4620712753" lon="31.1317100376"><ele>55.89</ele><time>2026-09-01T21:28:17Z</time></trkpt><trkpt lat="59.4620372448" lon="31.1316980515"><ele>56.37</ele><time>2026-09-01T21:28:28Z</time></trkpt><trkpt lat="59.4620337244" lon="31.1316771805"><ele>56.86</ele><time>2026-09-01T21:28:36Z</time></trkpt><trkpt lat="59.4619556889" lon="31.1316633504"><ele>56.86</ele><time>2026-09-01T21:28:45Z</time></trkpt><trkpt lat="59.4619278610" lon="31.1316038389"><ele>57.82</ele><time>2026-09-01T21:28:52Z</time></trkpt><trkpt lat="59.4618533459" lon="31.1315743346"><ele>56.86</ele><time>2026-09-01T21:29:02Z</time></trkpt><trkpt lat="59.4618327264" lon="31.1315082852"><ele>57.34</ele><time>2026-09-01T21:29:11Z</time></trkpt><trkpt lat="59.4618207403" lon="31.1314654537"><ele>56.86</ele><time>2026-09-01T21:29:21Z</time></trkpt><trkpt lat="59.4617862068" lon="31.1314830557"><ele>57.34</ele><time>2026-09-01T21:29:30Z</time></trkpt><trkpt lat="59.4617620669" lon="31.1314346921"><ele>57.34</ele><time>2026-09-01T21:29:39Z</time></trkpt><trkpt lat="59.4617309701" lon="31.1314718239"><ele>57.34</ele><time>2026-09-01T21:29:49Z</time></trkpt><trkpt lat="59.4617012981" lon="31.1314550601"><ele>56.86</ele><time>2026-09-01T21:29:56Z</time></trkpt><trkpt lat="59.4616538566" lon="31.1314118933"><ele>57.34</ele><time>2026-09-01T21:30:03Z</time></trkpt><trkpt lat="59.4616116956" lon="31.1314210296"><ele>57.34</ele><time>2026-09-01T21:30:11Z</time></trkpt><trkpt lat="59.4615626615" lon="31.1313667987"><ele>57.34</ele><time>2026-09-01T21:30:19Z</time></trkpt><trkpt lat="59.4615727197" lon="31.1313682236"><ele>57.82</ele><time>2026-09-01T21:30:30Z</time></trkpt><trkpt lat="59.4615785033" lon="31.1314197723"><ele>57.34</ele><time>2026-09-01T21:30:44Z</time></trkpt><trkpt lat="59.4615770783" lon="31.1314372905"><ele>58.78</ele><time>2026-09-01T21:30:49Z</time></trkpt><trkpt lat="59.4615699537" lon="31.1315269768"><ele>58.78</ele><time>2026-09-01T21:31:03Z</time></trkpt><trkpt lat="59.4615405332" lon="31.1315731611"><ele>58.78</ele><time>2026-09-01T21:31:15Z</time></trkpt><trkpt lat="59.4616002962" lon="31.1316067725"><ele>59.26</ele><time>2026-09-01T21:31:28Z</time></trkpt><trkpt lat="59.4615878910" lon="31.1314940359"><ele>58.78</ele><time>2026-09-01T21:31:43Z</time></trkpt><trkpt lat="59.4615826104" lon="31.1314804573"><ele>59.26</ele><time>2026-09-01T21:31:44Z</time></trkpt><trkpt lat="59.4614645932" lon="31.1311443429"><ele>58.78</ele><time>2026-09-01T21:31:59Z</time></trkpt><trkpt lat="59.4613314886" lon="31.1308583524"><ele>58.78</ele><time>2026-09-01T21:32:10Z</time></trkpt><trkpt lat="59.4613050856" lon="31.1308058817"><ele>58.78</ele><time>2026-09-01T21:32:20Z</time></trkpt><trkpt lat="59.4613872282" lon="31.1309122480"><ele>58.30</ele><time>2026-09-01T21:32:30Z</time></trkpt><trkpt lat="59.4615542796" lon="31.1311026849"><ele>58.30</ele><time>2026-09-01T21:32:43Z</time></trkpt><trkpt lat="59.4615746476" lon="31.1314421520"><ele>58.30</ele><time>2026-09-01T21:33:00Z</time></trkpt><trkpt lat="59.4615547825" lon="31.1314113904"><ele>58.78</ele><time>2026-09-01T21:33:11Z</time></trkpt><trkpt lat="59.4615925010" lon="31.1313830595"><ele>58.30</ele><time>2026-09-01T21:33:20Z</time></trkpt><trkpt lat="59.4615873881" lon="31.1313314270"><ele>57.82</ele><time>2026-09-01T21:33:34Z</time></trkpt><trkpt lat="59.4615708757" lon="31.1312884279"><ele>58.30</ele><time>2026-09-01T21:33:47Z</time></trkpt><trkpt lat="59.4615059998" lon="31.1310714204"><ele>57.82</ele><time>2026-09-01T21:34:00Z</time></trkpt><trkpt lat="59.4614778366" lon="31.1310415808"><ele>58.78</ele><time>2026-09-01T21:34:13Z</time></trkpt><trkpt lat="59.4614496734" lon="31.1309307721"><ele>58.30</ele><time>2026-09-01T21:34:24Z</time></trkpt><trkpt lat="59.4615025632" lon="31.1308782175"><ele>58.30</ele><time>2026-09-01T21:34:33Z</time></trkpt><trkpt lat="59.4615592249" lon="31.1308598612"><ele>58.30</ele><time>2026-09-01T21:34:55Z</time></trkpt><trkpt lat="59.4615882263" lon="31.1308304407"><ele>58.78</ele><time>2026-09-01T21:35:12Z</time></trkpt><trkpt lat="59.4615357555" lon="31.1307529919"><ele>58.78</ele><time>2026-09-01T21:35:27Z</time></trkpt><trkpt lat="59.4614657667" lon="31.1306146067"><ele>58.30</ele><time>2026-09-01T21:35:40Z</time></trkpt><trkpt lat="59.4614692871" lon="31.1304822564"><ele>57.82</ele><time>2026-09-01T21:35:54Z</time></trkpt><trkpt lat="59.4614582229" lon="31.1303881276"><ele>57.82</ele><time>2026-09-01T21:36:11Z</time></trkpt><trkpt lat="59.4614734780" lon="31.1304455437"><ele>57.34</ele><time>2026-09-01T21:36:23Z</time></trkpt><trkpt lat="59.4614806864" lon="31.1304516625"><ele>57.34</ele><time>2026-09-01T21:36:33Z</time></trkpt><trkpt lat="59.4614512660" lon="31.1304771435"><ele>57.82</ele><time>2026-09-01T21:36:43Z</time></trkpt><trkpt lat="59.4614090212" lon="31.1304044724"><ele>57.34</ele><time>2026-09-01T21:36:52Z</time></trkpt><trkpt lat="59.4613220170" lon="31.1302818451"><ele>56.86</ele><time>2026-09-01T21:37:04Z</time></trkpt><trkpt lat="59.4612599909" lon="31.1302043963"><ele>57.34</ele><time>2026-09-01T21:37:14Z</time></trkpt><trkpt lat="59.4612206798" lon="31.1300966889"><ele>55.89</ele><time>2026-09-01T21:37:26Z</time></trkpt><trkpt lat="59.4612014852" lon="31.1300419550"><ele>56.37</ele><time>2026-09-01T21:37:36Z</time></trkpt><trkpt lat="59.4612288103" lon="31.1299519334"><ele>56.37</ele><time>2026-09-01T21:37:47Z</time></trkpt><trkpt lat="59.4611683767" lon="31.1298551224"><ele>56.37</ele><time>2026-09-01T21:37:58Z</time></trkpt><trkpt lat="59.4611708075" lon="31.1297645979"><ele>57.34</ele><time>2026-09-01T21:38:07Z</time></trkpt><trkpt lat="59.4611695502" lon="31.1297324114"><ele>56.37</ele><time>2026-09-01T21:38:16Z</time></trkpt><trkpt lat="59.4611788541" lon="31.1296718940"><ele>56.86</ele><time>2026-09-01T21:38:24Z</time></trkpt><trkpt lat="59.4611625094" lon="31.1296062637"><ele>55.89</ele><time>2026-09-01T21:38:33Z</time></trkpt><trkpt lat="59.4611257128" lon="31.1296071857"><ele>55.89</ele><time>2026-09-01T21:38:42Z</time></trkpt><trkpt lat="59.4611101225" lon="31.1296521965"><ele>55.41</ele><time>2026-09-01T21:38:56Z</time></trkpt><trkpt lat="59.4610939454" lon="31.1297101155"><ele>55.41</ele><time>2026-09-01T21:39:08Z</time></trkpt><trkpt lat="59.4610613398" lon="31.1297432240"><ele>55.89</ele><time>2026-09-01T21:39:21Z</time></trkpt><trkpt lat="59.4609968830" lon="31.1295247916"><ele>55.89</ele><time>2026-09-01T21:39:34Z</time></trkpt><trkpt lat="59.4610464200" lon="31.1294558086"><ele>55.89</ele><time>2026-09-01T21:39:43Z</time></trkpt><trkpt lat="59.4609883334" lon="31.1294297408"><ele>56.37</ele><time>2026-09-01T21:39:54Z</time></trkpt><trkpt lat="59.4609952066" lon="31.1292070337"><ele>56.37</ele><time>2026-09-01T21:40:04Z</time></trkpt><trkpt lat="59.4610494375" lon="31.1290823948"><ele>55.89</ele><time>2026-09-01T21:40:14Z</time></trkpt><trkpt lat="59.4610475935" lon="31.1289985757"><ele>56.37</ele><time>2026-09-01T21:40:24Z</time></trkpt><trkpt lat="59.4610514492" lon="31.1289709155"><ele>56.86</ele><time>2026-09-01T21:40:36Z</time></trkpt><trkpt lat="59.4610691350" lon="31.1289921217"><ele>58.30</ele><time>2026-09-01T21:40:43Z</time></trkpt><trkpt lat="59.4610274769" lon="31.1289968155"><ele>57.34</ele><time>2026-09-01T21:40:52Z</time></trkpt><trkpt lat="59.4609268103" lon="31.1289941333"><ele>56.86</ele><time>2026-09-01T21:41:03Z</time></trkpt><trkpt lat="59.4609159976" lon="31.1289211269"><ele>56.86</ele><time>2026-09-01T21:41:13Z</time></trkpt><trkpt lat="59.4609139860" lon="31.1287974101"><ele>57.34</ele><time>2026-09-01T21:41:23Z</time></trkpt><trkpt lat="59.4608447514" lon="31.1287107412"><ele>57.34</ele><time>2026-09-01T21:41:33Z</time></trkpt><trkpt lat="59.4608326815" lon="31.1286166962"><ele>57.82</ele><time>2026-09-01T21:41:44Z</time></trkpt><trkpt lat="59.4608056080" lon="31.1284797359"><ele>57.82</ele><time>2026-09-01T21:41:52Z</time></trkpt><trkpt lat="59.4607604295" lon="31.1284538358"><ele>57.82</ele><time>2026-09-01T21:42:02Z</time></trkpt><trkpt lat="59.4607768580" lon="31.1284913030"><ele>57.82</ele><time>2026-09-01T21:42:15Z</time></trkpt><trkpt lat="59.4607931189" lon="31.1284447834"><ele>57.82</ele><time>2026-09-01T21:42:35Z</time></trkpt><trkpt lat="59.4607455097" lon="31.1284571886"><ele>57.82</ele><time>2026-09-01T21:42:46Z</time></trkpt><trkpt lat="59.4607745111" lon="31.1285021994"><ele>57.34</ele><time>2026-09-01T21:42:57Z</time></trkpt><trkpt lat="59.4607455097" lon="31.1284715217"><ele>57.82</ele><time>2026-09-01T21:43:08Z</time></trkpt><trkpt lat="59.4607349485" lon="31.1284872796"><ele>57.82</ele><time>2026-09-01T21:43:19Z</time></trkpt><trkpt lat="59.4606771134" lon="31.1284914706"><ele>57.82</ele><time>2026-09-01T21:43:30Z</time></trkpt><trkpt lat="59.4606032688" lon="31.1284742877"><ele>58.30</ele><time>2026-09-01T21:43:43Z</time></trkpt><trkpt lat="59.4605285861" lon="31.1284617987"><ele>57.34</ele><time>2026-09-01T21:43:55Z</time></trkpt><trkpt lat="59.4604722597" lon="31.1284162849"><ele>58.30</ele><time>2026-09-01T21:44:07Z</time></trkpt><trkpt lat="59.4603932183" lon="31.1281805858"><ele>58.30</ele><time>2026-09-01T21:44:20Z</time></trkpt><trkpt lat="59.4604352117" lon="31.1281968467"><ele>58.30</ele><time>2026-09-01T21:44:39Z</time></trkpt><trkpt lat="59.4604307692" lon="31.1281836033"><ele>58.78</ele><time>2026-09-01T21:44:51Z</time></trkpt><trkpt lat="59.4604305178" lon="31.1281701922"><ele>58.30</ele><time>2026-09-01T21:45:00Z</time></trkpt><trkpt lat="59.4604405761" lon="31.1281406879"><ele>58.78</ele><time>2026-09-01T21:45:14Z</time></trkpt><trkpt lat="59.4604228903" lon="31.1281405203"><ele>58.78</ele><time>2026-09-01T21:45:34Z</time></trkpt><trkpt lat="59.4604516402" lon="31.1281292047"><ele>57.34</ele><time>2026-09-01T21:45:50Z</time></trkpt><trkpt lat="59.4604535680" lon="31.1281271931"><ele>60.70</ele><time>2026-09-01T21:45:51Z</time></trkpt><trkpt lat="59.4604151789" lon="31.1282113474"><ele>58.78</ele><time>2026-09-01T21:46:08Z</time></trkpt><trkpt lat="59.4603045378" lon="31.1281122733"><ele>58.78</ele><time>2026-09-01T21:46:20Z</time></trkpt><trkpt lat="59.4603623729" lon="31.1280228384"><ele>58.78</ele><time>2026-09-01T21:46:36Z</time></trkpt><trkpt lat="59.4604572561" lon="31.1279032286"><ele>58.78</ele><time>2026-09-01T21:46:48Z</time></trkpt><trkpt lat="59.4604115747" lon="31.1278713774"><ele>60.22</ele><time>2026-09-01T21:47:00Z</time></trkpt><trkpt lat="59.4603530690" lon="31.1276792642"><ele>58.78</ele><time>2026-09-01T21:47:11Z</time></trkpt><trkpt lat="59.4603788853" lon="31.1276186630"><ele>58.78</ele><time>2026-09-01T21:47:21Z</time></trkpt><trkpt lat="59.4603332877" lon="31.1274580657"><ele>59.26</ele><time>2026-09-01T21:47:38Z</time></trkpt><trkpt lat="59.4603283424" lon="31.1272594146"><ele>59.26</ele><time>2026-09-01T21:47:49Z</time></trkpt><trkpt lat="59.4603384007" lon="31.1271042656"><ele>59.26</ele><time>2026-09-01T21:48:00Z</time></trkpt><trkpt lat="59.4602961559" lon="31.1270201113"><ele>59.26</ele><time>2026-09-01T21:48:12Z</time></trkpt><trkpt lat="59.4603761192" lon="31.1268879287"><ele>57.82</ele><time>2026-09-01T21:48:24Z</time></trkpt><trkpt lat="59.4604222197" lon="31.1267962307"><ele>59.26</ele><time>2026-09-01T21:48:37Z</time></trkpt><trkpt lat="59.4604452699" lon="31.1267096456"><ele>58.78</ele><time>2026-09-01T21:48:48Z</time></trkpt><trkpt lat="59.4604647160" lon="31.1266072188"><ele>59.26</ele><time>2026-09-01T21:48:58Z</time></trkpt><trkpt lat="59.4604699127" lon="31.1265031155"><ele>58.78</ele><time>2026-09-01T21:49:10Z</time></trkpt><trkpt lat="59.4604507182" lon="31.1263737828"><ele>58.78</ele><time>2026-09-01T21:49:22Z</time></trkpt><trkpt lat="59.4604165200" lon="31.1262842640"><ele>58.78</ele><time>2026-09-01T21:49:33Z</time></trkpt><trkpt lat="59.4603731018" lon="31.1261702701"><ele>58.30</ele><time>2026-09-01T21:49:43Z</time></trkpt><trkpt lat="59.4603591878" lon="31.1260344833"><ele>58.78</ele><time>2026-09-01T21:49:51Z</time></trkpt><trkpt lat="59.4602979999" lon="31.1260954197"><ele>58.30</ele><time>2026-09-01T21:50:06Z</time></trkpt><trkpt lat="59.4602849241" lon="31.1259551067"><ele>58.30</ele><time>2026-09-01T21:50:19Z</time></trkpt><trkpt lat="59.4603420887" lon="31.1258756462"><ele>58.78</ele><time>2026-09-01T21:50:34Z</time></trkpt><trkpt lat="59.4603275042" lon="31.1258638278"><ele>58.30</ele><time>2026-09-01T21:50:50Z</time></trkpt><trkpt lat="59.4603465311" lon="31.1257419549"><ele>58.30</ele><time>2026-09-01T21:51:03Z</time></trkpt><trkpt lat="59.4603259955" lon="31.1257965211"><ele>58.78</ele><time>2026-09-01T21:51:22Z</time></trkpt><trkpt lat="59.4603130873" lon="31.1257961020"><ele>58.30</ele><time>2026-09-01T21:51:37Z</time></trkpt><trkpt lat="59.4604043663" lon="31.1258014664"><ele>58.78</ele><time>2026-09-01T21:51:51Z</time></trkpt><trkpt lat="59.4603283424" lon="31.1257567909"><ele>58.30</ele><time>2026-09-01T21:52:06Z</time></trkpt><trkpt lat="59.4602942280" lon="31.1258711200"><ele>58.30</ele><time>2026-09-01T21:52:28Z</time></trkpt><trkpt lat="59.4602793083" lon="31.1258883867"><ele>57.82</ele><time>2026-09-01T21:52:45Z</time></trkpt><trkpt lat="59.4602986705" lon="31.1259023007"><ele>57.82</ele><time>2026-09-01T21:52:56Z</time></trkpt><trkpt lat="59.4603261631" lon="31.1258821841"><ele>57.82</ele><time>2026-09-01T21:53:10Z</time></trkpt><trkpt lat="59.4604092278" lon="31.1258526798"><ele>57.82</ele><time>2026-09-01T21:53:29Z</time></trkpt><trkpt lat="59.4603960682" lon="31.1258384306"><ele>57.82</ele><time>2026-09-01T21:53:47Z</time></trkpt><trkpt lat="59.4604045339" lon="31.1257981975"><ele>57.34</ele><time>2026-09-01T21:54:01Z</time></trkpt><trkpt lat="59.4603850041" lon="31.1257799249"><ele>57.34</ele><time>2026-09-01T21:54:13Z</time></trkpt><trkpt lat="59.4604418334" lon="31.1258456390"><ele>57.34</ele><time>2026-09-01T21:54:25Z</time></trkpt><trkpt lat="59.4603148475" lon="31.1258437112"><ele>57.34</ele><time>2026-09-01T21:54:36Z</time></trkpt><trkpt lat="59.4602324534" lon="31.1258413643"><ele>57.34</ele><time>2026-09-01T21:54:49Z</time></trkpt><trkpt lat="59.4603189547" lon="31.1259318050"><ele>57.34</ele><time>2026-09-01T21:55:01Z</time></trkpt><trkpt lat="59.4602923002" lon="31.1258175597"><ele>57.82</ele><time>2026-09-01T21:55:16Z</time></trkpt><trkpt lat="59.4603317790" lon="31.1256870534"><ele>57.34</ele><time>2026-09-01T21:55:27Z</time></trkpt><trkpt lat="59.4603234809" lon="31.1255904939"><ele>57.34</ele><time>2026-09-01T21:55:36Z</time></trkpt><trkpt lat="59.4602919649" lon="31.1254349258"><ele>56.86</ele><time>2026-09-01T21:55:50Z</time></trkpt><trkpt lat="59.4602639694" lon="31.1254559644"><ele>56.37</ele><time>2026-09-01T21:56:03Z</time></trkpt><trkpt lat="59.4603819028" lon="31.1253495142"><ele>56.37</ele><time>2026-09-01T21:56:13Z</time></trkpt><trkpt lat="59.4603814837" lon="31.1252298206"><ele>56.37</ele><time>2026-09-01T21:56:26Z</time></trkpt><trkpt lat="59.4604883529" lon="31.1251456663"><ele>55.89</ele><time>2026-09-01T21:56:38Z</time></trkpt><trkpt lat="59.4604660571" lon="31.1251330934"><ele>55.41</ele><time>2026-09-01T21:56:53Z</time></trkpt><trkpt lat="59.4604004268" lon="31.1252511106"><ele>55.89</ele><time>2026-09-01T21:57:09Z</time></trkpt><trkpt lat="59.4604435936" lon="31.1251639389"><ele>56.37</ele><time>2026-09-01T21:57:24Z</time></trkpt><trkpt lat="59.4604808930" lon="31.1250827182"><ele>56.86</ele><time>2026-09-01T21:57:37Z</time></trkpt><trkpt lat="59.4605001714" lon="31.1248737574"><ele>57.82</ele><time>2026-09-01T21:57:49Z</time></trkpt><trkpt lat="59.4604930468" lon="31.1246461049"><ele>57.82</ele><time>2026-09-01T21:58:02Z</time></trkpt><trkpt lat="59.4606055319" lon="31.1245594360"><ele>57.82</ele><time>2026-09-01T21:58:13Z</time></trkpt><trkpt lat="59.4605847448" lon="31.1244974937"><ele>58.30</ele><time>2026-09-01T21:58:37Z</time></trkpt><trkpt lat="59.4605999161" lon="31.1244339589"><ele>57.82</ele><time>2026-09-01T21:58:47Z</time></trkpt><trkpt lat="59.4605992455" lon="31.1244346295"><ele>58.30</ele><time>2026-09-01T21:58:51Z</time></trkpt><trkpt lat="59.4605985750" lon="31.1243276764"><ele>58.30</ele><time>2026-09-01T21:58:58Z</time></trkpt><trkpt lat="59.4606111478" lon="31.1241605412"><ele>58.78</ele><time>2026-09-01T21:59:08Z</time></trkpt><trkpt lat="59.4606222119" lon="31.1240894627"><ele>58.78</ele><time>2026-09-01T21:59:16Z</time></trkpt><trkpt lat="59.4606593437" lon="31.1240050569"><ele>58.30</ele><time>2026-09-01T21:59:24Z</time></trkpt><trkpt lat="59.4606174342" lon="31.1239411030"><ele>58.78</ele><time>2026-09-01T21:59:35Z</time></trkpt><trkpt lat="59.4606033526" lon="31.1238930747"><ele>58.30</ele><time>2026-09-01T21:59:39Z</time></trkpt><trkpt lat="59.4605426677" lon="31.1238582060"><ele>59.26</ele><time>2026-09-01T21:59:47Z</time></trkpt><trkpt lat="59.4604596030" lon="31.1237854511"><ele>58.78</ele><time>2026-09-01T21:59:56Z</time></trkpt><trkpt lat="59.4603792205" lon="31.1236696970"><ele>58.78</ele><time>2026-09-01T22:00:06Z</time></trkpt><trkpt lat="59.4603164401" lon="31.1235915776"><ele>59.26</ele><time>2026-09-01T22:00:17Z</time></trkpt><trkpt lat="59.4603306893" lon="31.1236490775"><ele>58.78</ele><time>2026-09-01T22:00:31Z</time></trkpt><trkpt lat="59.4603386521" lon="31.1236209143"><ele>58.78</ele><time>2026-09-01T22:00:40Z</time></trkpt><trkpt lat="59.4602925517" lon="31.1236075871"><ele>59.26</ele><time>2026-09-01T22:00:49Z</time></trkpt><trkpt lat="59.4602705073" lon="31.1235644203"><ele>58.78</ele><time>2026-09-01T22:00:55Z</time></trkpt><trkpt lat="59.4602194615" lon="31.1234848760"><ele>58.78</ele><time>2026-09-01T22:01:09Z</time></trkpt><trkpt lat="59.4602347165" lon="31.1234796792"><ele>58.78</ele><time>2026-09-01T22:01:17Z</time></trkpt><trkpt lat="59.4601800665" lon="31.1234714650"><ele>58.78</ele><time>2026-09-01T22:01:24Z</time></trkpt><trkpt lat="59.4601357263" lon="31.1234231014"><ele>59.26</ele><time>2026-09-01T22:01:32Z</time></trkpt><trkpt lat="59.4600266777" lon="31.1234297231"><ele>58.30</ele><time>2026-09-01T22:01:40Z</time></trkpt><trkpt lat="59.4599928148" lon="31.1234687828"><ele>58.30</ele><time>2026-09-01T22:01:46Z</time></trkpt><trkpt lat="59.4599504862" lon="31.1234380212"><ele>58.30</ele><time>2026-09-01T22:01:55Z</time></trkpt><trkpt lat="59.4599542581" lon="31.1233640090"><ele>57.82</ele><time>2026-09-01T22:02:05Z</time></trkpt><trkpt lat="59.4599682558" lon="31.1233670264"><ele>57.82</ele><time>2026-09-01T22:02:15Z</time></trkpt><trkpt lat="59.4600032922" lon="31.1232819501"><ele>58.78</ele><time>2026-09-01T22:02:23Z</time></trkpt><trkpt lat="59.4600176252" lon="31.1231718957"><ele>59.26</ele><time>2026-09-01T22:02:31Z</time></trkpt><trkpt lat="59.4600269292" lon="31.1230799463"><ele>58.78</ele><time>2026-09-01T22:02:38Z</time></trkpt><trkpt lat="59.4600436091" lon="31.1229543854"><ele>57.82</ele><time>2026-09-01T22:02:48Z</time></trkpt><trkpt lat="59.4600208942" lon="31.1228475999"><ele>57.82</ele><time>2026-09-01T22:02:56Z</time></trkpt><trkpt lat="59.4600001071" lon="31.1227251403"><ele>58.78</ele><time>2026-09-01T22:03:05Z</time></trkpt><trkpt lat="59.4600242469" lon="31.1226356216"><ele>58.78</ele><time>2026-09-01T22:03:13Z</time></trkpt><trkpt lat="59.4600304496" lon="31.1225534789"><ele>58.78</ele><time>2026-09-01T22:03:20Z</time></trkpt><trkpt lat="59.4600357302" lon="31.1225312669"><ele>58.78</ele><time>2026-09-01T22:03:23Z</time></trkpt><trkpt lat="59.4600219838" lon="31.1225373857"><ele>59.26</ele><time>2026-09-01T22:03:26Z</time></trkpt><trkpt lat="59.4599693455" lon="31.1225180235"><ele>58.78</ele><time>2026-09-01T22:03:33Z</time></trkpt><trkpt lat="59.4599407632" lon="31.1224735994"><ele>58.30</ele><time>2026-09-01T22:03:39Z</time></trkpt><trkpt lat="59.4598789886" lon="31.1223994195"><ele>58.30</ele><time>2026-09-01T22:03:47Z</time></trkpt><trkpt lat="59.4598308764" lon="31.1222734395"><ele>58.78</ele><time>2026-09-01T22:03:57Z</time></trkpt><trkpt lat="59.4597924035" lon="31.1221990082"><ele>58.78</ele><time>2026-09-01T22:04:07Z</time></trkpt><trkpt lat="59.4597561937" lon="31.1222295184"><ele>58.78</ele><time>2026-09-01T22:04:14Z</time></trkpt><trkpt lat="59.4597318862" lon="31.1221879441"><ele>58.78</ele><time>2026-09-01T22:04:22Z</time></trkpt><trkpt lat="59.4596811756" lon="31.1221394129"><ele>58.78</ele><time>2026-09-01T22:04:29Z</time></trkpt><trkpt lat="59.4596690219" lon="31.1220517382"><ele>58.30</ele><time>2026-09-01T22:04:36Z</time></trkpt><trkpt lat="59.4596692733" lon="31.1219747923"><ele>58.78</ele><time>2026-09-01T22:04:43Z</time></trkpt><trkpt lat="59.4596818462" lon="31.1219682544"><ele>58.78</ele><time>2026-09-01T22:04:51Z</time></trkpt><trkpt lat="59.4596664235" lon="31.1219014507"><ele>58.78</ele><time>2026-09-01T22:04:58Z</time></trkpt><trkpt lat="59.4596401881" lon="31.1218113452"><ele>59.26</ele><time>2026-09-01T22:05:05Z</time></trkpt><trkpt lat="59.4596041460" lon="31.1217172164"><ele>59.26</ele><time>2026-09-01T22:05:10Z</time></trkpt><trkpt lat="59.4595556986" lon="31.1216580402"><ele>59.26</ele><time>2026-09-01T22:05:19Z</time></trkpt><trkpt lat="59.4595387671" lon="31.1216354091"><ele>59.74</ele><time>2026-09-01T22:05:35Z</time></trkpt><trkpt lat="59.4595432933" lon="31.1215941701"><ele>59.26</ele><time>2026-09-01T22:05:42Z</time></trkpt><trkpt lat="59.4595422037" lon="31.1215828545"><ele>59.26</ele><time>2026-09-01T22:05:55Z</time></trkpt><trkpt lat="59.4595453888" lon="31.1215890571"><ele>59.26</ele><time>2026-09-01T22:06:08Z</time></trkpt><trkpt lat="59.4595572073" lon="31.1215821002"><ele>59.26</ele><time>2026-09-01T22:06:19Z</time></trkpt><trkpt lat="59.4595476519" lon="31.1215552781"><ele>59.74</ele><time>2026-09-01T22:06:24Z</time></trkpt><trkpt lat="59.4595311396" lon="31.1215183977"><ele>59.74</ele><time>2026-09-01T22:06:31Z</time></trkpt><trkpt lat="59.4595073350" lon="31.1214191560"><ele>59.26</ele><time>2026-09-01T22:06:37Z</time></trkpt><trkpt lat="59.4594765734" lon="31.1212383583"><ele>59.74</ele><time>2026-09-01T22:06:47Z</time></trkpt><trkpt lat="59.4594733045" lon="31.1212162301"><ele>59.74</ele><time>2026-09-01T22:06:48Z</time></trkpt><trkpt lat="59.4594259467" lon="31.1210951116"><ele>59.74</ele><time>2026-09-01T22:06:56Z</time></trkpt><trkpt lat="59.4593842048" lon="31.1209113803"><ele>59.74</ele><time>2026-09-01T22:07:06Z</time></trkpt><trkpt lat="59.4593547843" lon="31.1207993980"><ele>58.78</ele><time>2026-09-01T22:07:15Z</time></trkpt><trkpt lat="59.4593412057" lon="31.1206444167"><ele>59.74</ele><time>2026-09-01T22:07:23Z</time></trkpt><trkpt lat="59.4593212567" lon="31.1205139942"><ele>59.74</ele><time>2026-09-01T22:07:30Z</time></trkpt><trkpt lat="59.4592926744" lon="31.1203435902"><ele>59.26</ele><time>2026-09-01T22:07:38Z</time></trkpt><trkpt lat="59.4592474122" lon="31.1201717611"><ele>59.74</ele><time>2026-09-01T22:07:46Z</time></trkpt><trkpt lat="59.4592493400" lon="31.1201168597"><ele>59.26</ele><time>2026-09-01T22:07:50Z</time></trkpt><trkpt lat="59.4592321571" lon="31.1199748702"><ele>59.26</ele><time>2026-09-01T22:07:57Z</time></trkpt><trkpt lat="59.4592058379" lon="31.1198222358"><ele>59.26</ele><time>2026-09-01T22:08:04Z</time></trkpt><trkpt lat="59.4591962826" lon="31.1197208147"><ele>59.74</ele><time>2026-09-01T22:08:10Z</time></trkpt><trkpt lat="59.4591874816" lon="31.1196012888"><ele>59.26</ele><time>2026-09-01T22:08:16Z</time></trkpt><trkpt lat="59.4591836259" lon="31.1194326449"><ele>59.74</ele><time>2026-09-01T22:08:24Z</time></trkpt><trkpt lat="59.4591700472" lon="31.1193002947"><ele>59.26</ele><time>2026-09-01T22:08:31Z</time></trkpt><trkpt lat="59.4591537025" lon="31.1191912461"><ele>59.74</ele><time>2026-09-01T22:08:36Z</time></trkpt><trkpt lat="59.4591435604" lon="31.1190381087"><ele>59.74</ele><time>2026-09-01T22:08:43Z</time></trkpt><trkpt lat="59.4591239467" lon="31.1188832950"><ele>59.26</ele><time>2026-09-01T22:08:49Z</time></trkpt><trkpt lat="59.4591202587" lon="31.1187241226"><ele>59.74</ele><time>2026-09-01T22:08:56Z</time></trkpt><trkpt lat="59.4591080211" lon="31.1186075304"><ele>58.78</ele><time>2026-09-01T22:09:02Z</time></trkpt><trkpt lat="59.4591117930" lon="31.1185940355"><ele>59.26</ele><time>2026-09-01T22:09:04Z</time></trkpt><trkpt lat="59.4591177441" lon="31.1184640322"><ele>59.74</ele><time>2026-09-01T22:09:11Z</time></trkpt><trkpt lat="59.4591103680" lon="31.1183296703"><ele>59.26</ele><time>2026-09-01T22:09:17Z</time></trkpt><trkpt lat="59.4591039140" lon="31.1181805562"><ele>59.74</ele><time>2026-09-01T22:09:24Z</time></trkpt><trkpt lat="59.4590806961" lon="31.1180904508"><ele>59.74</ele><time>2026-09-01T22:09:28Z</time></trkpt><trkpt lat="59.4590657763" lon="31.1180254910"><ele>59.74</ele><time>2026-09-01T22:09:31Z</time></trkpt><trkpt lat="59.4590755831" lon="31.1179090664"><ele>59.74</ele><time>2026-09-01T22:09:37Z</time></trkpt><trkpt lat="59.4590688776" lon="31.1178233195"><ele>59.26</ele><time>2026-09-01T22:09:42Z</time></trkpt><trkpt lat="59.4590682071" lon="31.1177576054"><ele>59.74</ele><time>2026-09-01T22:09:45Z</time></trkpt><trkpt lat="59.4590609986" lon="31.1177088227"><ele>59.74</ele><time>2026-09-01T22:09:47Z</time></trkpt><trkpt lat="59.4590564724" lon="31.1175369099"><ele>59.26</ele><time>2026-09-01T22:09:54Z</time></trkpt><trkpt lat="59.4590452407" lon="31.1173825990"><ele>59.74</ele><time>2026-09-01T22:10:01Z</time></trkpt><trkpt lat="59.4590414688" lon="31.1172349937"><ele>59.74</ele><time>2026-09-01T22:10:07Z</time></trkpt><trkpt lat="59.4590351824" lon="31.1170732230"><ele>59.74</ele><time>2026-09-01T22:10:13Z</time></trkpt><trkpt lat="59.4590283930" lon="31.1169284675"><ele>59.74</ele><time>2026-09-01T22:10:19Z</time></trkpt><trkpt lat="59.4590247888" lon="31.1167651881"><ele>59.74</ele><time>2026-09-01T22:10:26Z</time></trkpt><trkpt lat="59.4590160716" lon="31.1166556366"><ele>58.78</ele><time>2026-09-01T22:10:30Z</time></trkpt><trkpt lat="59.4589978829" lon="31.1163491942"><ele>60.22</ele><time>2026-09-01T22:10:40Z</time></trkpt><trkpt lat="59.4589863159" lon="31.1161536444"><ele>60.22</ele><time>2026-09-01T22:10:50Z</time></trkpt><trkpt lat="59.4589858968" lon="31.1160741840"><ele>60.22</ele><time>2026-09-01T22:10:54Z</time></trkpt><trkpt lat="59.4589801971" lon="31.1158477888"><ele>60.22</ele><time>2026-09-01T22:11:04Z</time></trkpt><trkpt lat="59.4589754194" lon="31.1156386603"><ele>59.74</ele><time>2026-09-01T22:11:14Z</time></trkpt><trkpt lat="59.4589797780" lon="31.1155100819"><ele>60.22</ele><time>2026-09-01T22:11:20Z</time></trkpt><trkpt lat="59.4589743298" lon="31.1153606325"><ele>60.70</ele><time>2026-09-01T22:11:27Z</time></trkpt><trkpt lat="59.4589776825" lon="31.1151712853"><ele>59.74</ele><time>2026-09-01T22:11:35Z</time></trkpt><trkpt lat="59.4589698035" lon="31.1150226742"><ele>59.74</ele><time>2026-09-01T22:11:44Z</time></trkpt><trkpt lat="59.4589567278" lon="31.1149805132"><ele>59.74</ele><time>2026-09-01T22:11:47Z</time></trkpt><trkpt lat="59.4589547999" lon="31.1148231011"><ele>59.26</ele><time>2026-09-01T22:11:55Z</time></trkpt><trkpt lat="59.4589487650" lon="31.1146433093"><ele>59.74</ele><time>2026-09-01T22:12:04Z</time></trkpt><trkpt lat="59.4589579850" lon="31.1145101208"><ele>59.74</ele><time>2026-09-01T22:12:11Z</time></trkpt><trkpt lat="59.4589412212" lon="31.1143319216"><ele>60.22</ele><time>2026-09-01T22:12:20Z</time></trkpt><trkpt lat="59.4589216914" lon="31.1141231284"><ele>59.74</ele><time>2026-09-01T22:12:30Z</time></trkpt><trkpt lat="59.4589029159" lon="31.1139414925"><ele>60.22</ele><time>2026-09-01T22:12:38Z</time></trkpt><trkpt lat="59.4588915166" lon="31.1137555819"><ele>59.74</ele><time>2026-09-01T22:12:47Z</time></trkpt><trkpt lat="59.4588960428" lon="31.1135636363"><ele>60.22</ele><time>2026-09-01T22:12:56Z</time></trkpt><trkpt lat="59.4588963781" lon="31.1133803241"><ele>60.22</ele><time>2026-09-01T22:13:04Z</time></trkpt><trkpt lat="59.4588964619" lon="31.1132081598"><ele>59.74</ele><time>2026-09-01T22:13:12Z</time></trkpt><trkpt lat="59.4588960428" lon="31.1130059045"><ele>59.74</ele><time>2026-09-01T22:13:21Z</time></trkpt><trkpt lat="59.4588796142" lon="31.1128097679"><ele>59.74</ele><time>2026-09-01T22:13:30Z</time></trkpt><trkpt lat="59.4588798657" lon="31.1125905812"><ele>60.22</ele><time>2026-09-01T22:13:40Z</time></trkpt><trkpt lat="59.4588675443" lon="31.1124318279"><ele>59.74</ele><time>2026-09-01T22:13:48Z</time></trkpt><trkpt lat="59.4588644430" lon="31.1122491863"><ele>60.22</ele><time>2026-09-01T22:13:56Z</time></trkpt><trkpt lat="59.4588507805" lon="31.1120549776"><ele>60.22</ele><time>2026-09-01T22:14:03Z</time></trkpt><trkpt lat="59.4588424824" lon="31.1118418258"><ele>60.22</ele><time>2026-09-01T22:14:12Z</time></trkpt><trkpt lat="59.4588359445" lon="31.1118017603"><ele>60.22</ele><time>2026-09-01T22:14:14Z</time></trkpt><trkpt lat="59.4588398840" lon="31.1117654666"><ele>60.22</ele><time>2026-09-01T22:14:16Z</time></trkpt><trkpt lat="59.4588251319" lon="31.1115767062"><ele>60.70</ele><time>2026-09-01T22:14:24Z</time></trkpt><trkpt lat="59.4588071946" lon="31.1113875266"><ele>60.70</ele><time>2026-09-01T22:14:33Z</time></trkpt><trkpt lat="59.4587757625" lon="31.1112067290"><ele>60.70</ele><time>2026-09-01T22:14:42Z</time></trkpt><trkpt lat="59.4587496109" lon="31.1110732052"><ele>60.22</ele><time>2026-09-01T22:14:50Z</time></trkpt><trkpt lat="59.4587318413" lon="31.1109580379"><ele>60.22</ele><time>2026-09-01T22:14:56Z</time></trkpt><trkpt lat="59.4587131497" lon="31.1108093429"><ele>60.22</ele><time>2026-09-01T22:15:03Z</time></trkpt><trkpt lat="59.4586999062" lon="31.1107028928"><ele>60.70</ele><time>2026-09-01T22:15:08Z</time></trkpt><trkpt lat="59.4586830586" lon="31.1106020585"><ele>60.22</ele><time>2026-09-01T22:15:13Z</time></trkpt><trkpt lat="59.4586664625" lon="31.1104949377"><ele>60.70</ele><time>2026-09-01T22:15:19Z</time></trkpt><trkpt lat="59.4586458430" lon="31.1103686225"><ele>60.70</ele><time>2026-09-01T22:15:25Z</time></trkpt><trkpt lat="59.4586309232" lon="31.1102708057"><ele>60.22</ele><time>2026-09-01T22:15:30Z</time></trkpt><trkpt lat="59.4586172607" lon="31.1101687979"><ele>60.70</ele><time>2026-09-01T22:15:35Z</time></trkpt><trkpt lat="59.4586049393" lon="31.1100368667"><ele>60.22</ele><time>2026-09-01T22:15:41Z</time></trkpt><trkpt lat="59.4585966412" lon="31.1099965498"><ele>60.70</ele><time>2026-09-01T22:15:43Z</time></trkpt><trkpt lat="59.4586039335" lon="31.1098548956"><ele>60.22</ele><time>2026-09-01T22:15:49Z</time></trkpt><trkpt lat="59.4585954677" lon="31.1097567435"><ele>60.22</ele><time>2026-09-01T22:15:55Z</time></trkpt><trkpt lat="59.4585814700" lon="31.1096434202"><ele>60.22</ele><time>2026-09-01T22:16:01Z</time></trkpt><trkpt lat="59.4585751835" lon="31.1095087230"><ele>60.70</ele><time>2026-09-01T22:16:08Z</time></trkpt><trkpt lat="59.4585756026" lon="31.1094174441"><ele>60.70</ele><time>2026-09-01T22:16:12Z</time></trkpt><trkpt lat="59.4585572463" lon="31.1092663184"><ele>60.70</ele><time>2026-09-01T22:16:19Z</time></trkpt><trkpt lat="59.4585524686" lon="31.1091249157"><ele>60.22</ele><time>2026-09-01T22:16:25Z</time></trkpt><trkpt lat="59.4585441705" lon="31.1089908052"><ele>60.70</ele><time>2026-09-01T22:16:31Z</time></trkpt><trkpt lat="59.4585325196" lon="31.1088933237"><ele>60.70</ele><time>2026-09-01T22:16:37Z</time></trkpt><trkpt lat="59.4585258141" lon="31.1088047270"><ele>60.22</ele><time>2026-09-01T22:16:41Z</time></trkpt><trkpt lat="59.4585346151" lon="31.1087303795"><ele>60.22</ele><time>2026-09-01T22:16:45Z</time></trkpt><trkpt lat="59.4585264008" lon="31.1085811816"><ele>60.70</ele><time>2026-09-01T22:16:52Z</time></trkpt><trkpt lat="59.4585257303" lon="31.1084234342"><ele>60.22</ele><time>2026-09-01T22:16:59Z</time></trkpt><trkpt lat="59.4585129898" lon="31.1082921736"><ele>60.22</ele><time>2026-09-01T22:17:06Z</time></trkpt><trkpt lat="59.4585092179" lon="31.1081600748"><ele>60.70</ele><time>2026-09-01T22:17:12Z</time></trkpt><trkpt lat="59.4585159235" lon="31.1081099510"><ele>60.22</ele><time>2026-09-01T22:17:15Z</time></trkpt><trkpt lat="59.4585435838" lon="31.1079882458"><ele>60.22</ele><time>2026-09-01T22:17:20Z</time></trkpt><trkpt lat="59.4585466012" lon="31.1078545544"><ele>60.22</ele><time>2026-09-01T22:17:27Z</time></trkpt><trkpt lat="59.4585555699" lon="31.1077155825"><ele>60.22</ele><time>2026-09-01T22:17:33Z</time></trkpt><trkpt lat="59.4585813861" lon="31.1075759400"><ele>60.22</ele><time>2026-09-01T22:17:39Z</time></trkpt><trkpt lat="59.4585836492" lon="31.1075670552"><ele>60.22</ele><time>2026-09-01T22:17:40Z</time></trkpt><trkpt lat="59.4585978147" lon="31.1074254010"><ele>60.22</ele><time>2026-09-01T22:17:47Z</time></trkpt><trkpt lat="59.4586025085" lon="31.1072927993"><ele>60.70</ele><time>2026-09-01T22:17:53Z</time></trkpt><trkpt lat="59.4586046040" lon="31.1071429309"><ele>60.70</ele><time>2026-09-01T22:17:59Z</time></trkpt><trkpt lat="59.4586053584" lon="31.1071096547"><ele>60.22</ele><time>2026-09-01T22:18:01Z</time></trkpt><trkpt lat="59.4585984014" lon="31.1069791485"><ele>60.22</ele><time>2026-09-01T22:18:08Z</time></trkpt><trkpt lat="59.4586051069" lon="31.1068263464"><ele>60.22</ele><time>2026-09-01T22:18:14Z</time></trkpt><trkpt lat="59.4586180151" lon="31.1067478079"><ele>60.22</ele><time>2026-09-01T22:18:17Z</time></trkpt><trkpt lat="59.4586443342" lon="31.1065962631"><ele>60.70</ele><time>2026-09-01T22:18:24Z</time></trkpt><trkpt lat="59.4586714078" lon="31.1064804252"><ele>60.22</ele><time>2026-09-01T22:18:30Z</time></trkpt><trkpt lat="59.4587132335" lon="31.1062454805"><ele>61.18</ele><time>2026-09-01T22:18:38Z</time></trkpt><trkpt lat="59.4587514549" lon="31.1060777586"><ele>61.18</ele><time>2026-09-01T22:18:47Z</time></trkpt><trkpt lat="59.4588030875" lon="31.1059122160"><ele>61.18</ele><time>2026-09-01T22:18:56Z</time></trkpt><trkpt lat="59.4588365313" lon="31.1057198513"><ele>61.18</ele><time>2026-09-01T22:19:05Z</time></trkpt><trkpt lat="59.4588483498" lon="31.1056695599"><ele>60.70</ele><time>2026-09-01T22:19:08Z</time></trkpt><trkpt lat="59.4588863198" lon="31.1056348588"><ele>60.22</ele><time>2026-09-01T22:19:12Z</time></trkpt><trkpt lat="59.4589218590" lon="31.1056134012"><ele>60.70</ele><time>2026-09-01T22:19:16Z</time></trkpt><trkpt lat="59.4589578174" lon="31.1055062804"><ele>60.70</ele><time>2026-09-01T22:19:24Z</time></trkpt><trkpt lat="59.4589580689" lon="31.1054753512"><ele>61.66</ele><time>2026-09-01T22:19:34Z</time></trkpt><trkpt lat="59.4589651935" lon="31.1054756027"><ele>61.66</ele><time>2026-09-01T22:19:53Z</time></trkpt><trkpt lat="59.4589650258" lon="31.1054716632"><ele>61.66</ele><time>2026-09-01T22:20:07Z</time></trkpt><trkpt lat="59.4589727372" lon="31.1054459307"><ele>61.18</ele><time>2026-09-01T22:20:19Z</time></trkpt><trkpt lat="59.4589773472" lon="31.1054165103"><ele>60.70</ele><time>2026-09-01T22:20:25Z</time></trkpt><trkpt lat="59.4589891657" lon="31.1054039374"><ele>60.70</ele><time>2026-09-01T22:20:34Z</time></trkpt><trkpt lat="59.4590038341" lon="31.1054065358"><ele>60.70</ele><time>2026-09-01T22:20:41Z</time></trkpt><trkpt lat="59.4590217713" lon="31.1053279135"><ele>60.70</ele><time>2026-09-01T22:20:45Z</time></trkpt><trkpt lat="59.4590749964" lon="31.1052302644"><ele>60.70</ele><time>2026-09-01T22:20:52Z</time></trkpt><trkpt lat="59.4590971246" lon="31.1051567551"><ele>60.70</ele><time>2026-09-01T22:20:56Z</time></trkpt><trkpt lat="59.4591516908" lon="31.1050513946"><ele>60.70</ele><time>2026-09-01T22:21:03Z</time></trkpt><trkpt lat="59.4591835421" lon="31.1049561761"><ele>60.70</ele><time>2026-09-01T22:21:08Z</time></trkpt><trkpt lat="59.4592250325" lon="31.1048953235"><ele>60.22</ele><time>2026-09-01T22:21:13Z</time></trkpt><trkpt lat="59.4592490047" lon="31.1048010271"><ele>60.70</ele><time>2026-09-01T22:21:19Z</time></trkpt><trkpt lat="59.4593094382" lon="31.1046404298"><ele>60.70</ele><time>2026-09-01T22:21:26Z</time></trkpt><trkpt lat="59.4593496714" lon="31.1045520846"><ele>60.70</ele><time>2026-09-01T22:21:32Z</time></trkpt><trkpt lat="59.4593940116" lon="31.1044601351"><ele>60.70</ele><time>2026-09-01T22:21:38Z</time></trkpt><trkpt lat="59.4594062492" lon="31.1044238415"><ele>60.70</ele><time>2026-09-01T22:21:40Z</time></trkpt><trkpt lat="59.4594131224" lon="31.1044012103"><ele>60.70</ele><time>2026-09-01T22:21:42Z</time></trkpt><trkpt lat="59.4594787527" lon="31.1042752303"><ele>60.70</ele><time>2026-09-01T22:21:51Z</time></trkpt><trkpt lat="59.4595646672" lon="31.1040975340"><ele>60.70</ele><time>2026-09-01T22:22:03Z</time></trkpt><trkpt lat="59.4596372545" lon="31.1039330810"><ele>60.70</ele><time>2026-09-01T22:22:12Z</time></trkpt><trkpt lat="59.4597187266" lon="31.1037427280"><ele>61.18</ele><time>2026-09-01T22:22:23Z</time></trkpt><trkpt lat="59.4597673416" lon="31.1035815440"><ele>61.18</ele><time>2026-09-01T22:22:33Z</time></trkpt><trkpt lat="59.4597889669" lon="31.1035413109"><ele>61.18</ele><time>2026-09-01T22:22:36Z</time></trkpt><trkpt lat="59.4598022103" lon="31.1034789495"><ele>61.18</ele><time>2026-09-01T22:22:39Z</time></trkpt><trkpt lat="59.4598143641" lon="31.1034546420"><ele>60.70</ele><time>2026-09-01T22:22:41Z</time></trkpt><trkpt lat="59.4598795753" lon="31.1032428313"><ele>60.70</ele><time>2026-09-01T22:22:53Z</time></trkpt><trkpt lat="59.4598810840" lon="31.1030935496"><ele>59.26</ele><time>2026-09-01T22:23:00Z</time></trkpt><trkpt lat="59.4598609675" lon="31.1030316912"><ele>60.70</ele><time>2026-09-01T22:23:04Z</time></trkpt><trkpt lat="59.4597955048" lon="31.1028582696"><ele>60.70</ele><time>2026-09-01T22:23:14Z</time></trkpt><trkpt lat="59.4597372506" lon="31.1026928108"><ele>61.18</ele><time>2026-09-01T22:23:24Z</time></trkpt><trkpt lat="59.4596893899" lon="31.1025135219"><ele>60.70</ele><time>2026-09-01T22:23:35Z</time></trkpt><trkpt lat="59.4596243463" lon="31.1023334786"><ele>61.18</ele><time>2026-09-01T22:23:46Z</time></trkpt><trkpt lat="59.4595426228" lon="31.1021400243"><ele>60.70</ele><time>2026-09-01T22:23:58Z</time></trkpt><trkpt lat="59.4594806805" lon="31.1019665189"><ele>60.70</ele><time>2026-09-01T22:24:08Z</time></trkpt><trkpt lat="59.4594272040" lon="31.1018252838"><ele>60.70</ele><time>2026-09-01T22:24:18Z</time></trkpt><trkpt lat="59.4593886472" lon="31.1017625872"><ele>60.70</ele><time>2026-09-01T22:24:24Z</time></trkpt><trkpt lat="59.4593168981" lon="31.1015676241"><ele>60.22</ele><time>2026-09-01T22:24:35Z</time></trkpt><trkpt lat="59.4592521060" lon="31.1013732478"><ele>60.70</ele><time>2026-09-01T22:24:45Z</time></trkpt><trkpt lat="59.4592438918" lon="31.1013569031"><ele>60.70</ele><time>2026-09-01T22:24:46Z</time></trkpt><trkpt lat="59.4591884874" lon="31.1011892650"><ele>60.70</ele><time>2026-09-01T22:24:55Z</time></trkpt><trkpt lat="59.4590993039" lon="31.1010006722"><ele>60.70</ele><time>2026-09-01T22:25:08Z</time></trkpt><trkpt lat="59.4590726495" lon="31.1009326112"><ele>60.70</ele><time>2026-09-01T22:25:12Z</time></trkpt><trkpt lat="59.4590014033" lon="31.1007451080"><ele>60.70</ele><time>2026-09-01T22:25:23Z</time></trkpt><trkpt lat="59.4589465018" lon="31.1006146856"><ele>60.70</ele><time>2026-09-01T22:25:32Z</time></trkpt><trkpt lat="59.4589406345" lon="31.1005942337"><ele>60.70</ele><time>2026-09-01T22:25:33Z</time></trkpt><trkpt lat="59.4588768482" lon="31.1004447844"><ele>60.70</ele><time>2026-09-01T22:25:42Z</time></trkpt><trkpt lat="59.4588643592" lon="31.1004098319"><ele>60.70</ele><time>2026-09-01T22:25:44Z</time></trkpt><trkpt lat="59.4588483498" lon="31.1003345624"><ele>60.70</ele><time>2026-09-01T22:25:51Z</time></trkpt><trkpt lat="59.4588429853" lon="31.1002951674"><ele>61.18</ele><time>2026-09-01T22:25:58Z</time></trkpt><trkpt lat="59.4587622676" lon="31.1003245041"><ele>61.18</ele><time>2026-09-01T22:26:06Z</time></trkpt><trkpt lat="59.4587032590" lon="31.1003656592"><ele>61.18</ele><time>2026-09-01T22:26:14Z</time></trkpt><trkpt lat="59.4586968049" lon="31.1003683414"><ele>61.18</ele><time>2026-09-01T22:26:26Z</time></trkpt><trkpt lat="59.4586718269" lon="31.1004033778"><ele>61.18</ele><time>2026-09-01T22:26:34Z</time></trkpt><trkpt lat="59.4586275704" lon="31.1004377436"><ele>60.70</ele><time>2026-09-01T22:26:42Z</time></trkpt><trkpt lat="59.4585901871" lon="31.1004737858"><ele>60.70</ele><time>2026-09-01T22:26:49Z</time></trkpt><trkpt lat="59.4585637003" lon="31.1004845146"><ele>60.70</ele><time>2026-09-01T22:26:53Z</time></trkpt><trkpt lat="59.4585041888" lon="31.1004180461"><ele>61.18</ele><time>2026-09-01T22:27:02Z</time></trkpt><trkpt lat="59.4584621955" lon="31.1003387533"><ele>60.70</ele><time>2026-09-01T22:27:11Z</time></trkpt><trkpt lat="59.4584202021" lon="31.1003592890"><ele>61.18</ele><time>2026-09-01T22:27:18Z</time></trkpt><trkpt lat="59.4583625346" lon="31.1004156992"><ele>60.70</ele><time>2026-09-01T22:27:26Z</time></trkpt><trkpt lat="59.4583373051" lon="31.1004343908"><ele>62.14</ele><time>2026-09-01T22:27:33Z</time></trkpt><trkpt lat="59.4582937192" lon="31.1004591174"><ele>61.18</ele><time>2026-09-01T22:27:41Z</time></trkpt><trkpt lat="59.4582481217" lon="31.1005345546"><ele>61.66</ele><time>2026-09-01T22:27:49Z</time></trkpt><trkpt lat="59.4582182821" lon="31.1005718540"><ele>61.66</ele><time>2026-09-01T22:27:57Z</time></trkpt><trkpt lat="59.4581819884" lon="31.1006576009"><ele>61.18</ele><time>2026-09-01T22:28:06Z</time></trkpt><trkpt lat="59.4581423420" lon="31.1007123347"><ele>61.18</ele><time>2026-09-01T22:28:14Z</time></trkpt><trkpt lat="59.4580912963" lon="31.1007780489"><ele>61.18</ele><time>2026-09-01T22:28:22Z</time></trkpt><trkpt lat="59.4580395799" lon="31.1008007638"><ele>61.18</ele><time>2026-09-01T22:28:30Z</time></trkpt><trkpt lat="59.4579944015" lon="31.1008699983"><ele>60.70</ele><time>2026-09-01T22:28:38Z</time></trkpt><trkpt lat="59.4579439424" lon="31.1009301804"><ele>61.18</ele><time>2026-09-01T22:28:47Z</time></trkpt><trkpt lat="59.4579141866" lon="31.1009259056"><ele>61.18</ele><time>2026-09-01T22:28:53Z</time></trkpt><trkpt lat="59.4578729477" lon="31.1009771191"><ele>60.70</ele><time>2026-09-01T22:29:02Z</time></trkpt><trkpt lat="59.4578353129" lon="31.1010370497"><ele>61.18</ele><time>2026-09-01T22:29:09Z</time></trkpt><trkpt lat="59.4578058925" lon="31.1010942142"><ele>60.70</ele><time>2026-09-01T22:29:17Z</time></trkpt><trkpt lat="59.4577607140" lon="31.1011295859"><ele>61.18</ele><time>2026-09-01T22:29:24Z</time></trkpt><trkpt lat="59.4577343948" lon="31.1011041049"><ele>60.70</ele><time>2026-09-01T22:29:30Z</time></trkpt><trkpt lat="59.4576977659" lon="31.1011539772"><ele>61.18</ele><time>2026-09-01T22:29:36Z</time></trkpt><trkpt lat="59.4576609693" lon="31.1012071185"><ele>60.70</ele><time>2026-09-01T22:29:44Z</time></trkpt><trkpt lat="59.4576266035" lon="31.1012702342"><ele>60.70</ele><time>2026-09-01T22:29:53Z</time></trkpt><trkpt lat="59.4575940818" lon="31.1013303325"><ele>60.70</ele><time>2026-09-01T22:30:02Z</time></trkpt><trkpt lat="59.4575413596" lon="31.1013821326"><ele>60.70</ele><time>2026-09-01T22:30:11Z</time></trkpt><trkpt lat="59.4575107656" lon="31.1014037579"><ele>60.22</ele><time>2026-09-01T22:30:19Z</time></trkpt><trkpt lat="59.4574631564" lon="31.1013752595"><ele>60.22</ele><time>2026-09-01T22:30:28Z</time></trkpt><trkpt lat="59.4574177265" lon="31.1013470124"><ele>60.22</ele><time>2026-09-01T22:30:36Z</time></trkpt><trkpt lat="59.4573631603" lon="31.1013132334"><ele>59.74</ele><time>2026-09-01T22:30:44Z</time></trkpt><trkpt lat="59.4573209994" lon="31.1012824718"><ele>60.22</ele><time>2026-09-01T22:30:51Z</time></trkpt><trkpt lat="59.4572847057" lon="31.1012905184"><ele>60.22</ele><time>2026-09-01T22:30:58Z</time></trkpt><trkpt lat="59.4572304748" lon="31.1012907699"><ele>60.22</ele><time>2026-09-01T22:31:07Z</time></trkpt><trkpt lat="59.4571889844" lon="31.1012929492"><ele>60.22</ele><time>2026-09-01T22:31:15Z</time></trkpt><trkpt lat="59.4571301434" lon="31.1012645345"><ele>60.22</ele><time>2026-09-01T22:31:23Z</time></trkpt><trkpt lat="59.4570988789" lon="31.1012605112"><ele>60.22</ele><time>2026-09-01T22:31:28Z</time></trkpt><trkpt lat="59.4570530299" lon="31.1013237108"><ele>59.74</ele><time>2026-09-01T22:31:34Z</time></trkpt><trkpt lat="59.4570295606" lon="31.1013394687"><ele>60.22</ele><time>2026-09-01T22:31:40Z</time></trkpt><trkpt lat="59.4570137188" lon="31.1013501137"><ele>60.22</ele><time>2026-09-01T22:31:42Z</time></trkpt><trkpt lat="59.4569640979" lon="31.1013253871"><ele>59.74</ele><time>2026-09-01T22:31:48Z</time></trkpt><trkpt lat="59.4569055084" lon="31.1012840644"><ele>59.74</ele><time>2026-09-01T22:31:57Z</time></trkpt><trkpt lat="59.4568632636" lon="31.1012812983"><ele>59.74</ele><time>2026-09-01T22:32:04Z</time></trkpt><trkpt lat="59.4568003155" lon="31.1013057735"><ele>60.22</ele><time>2026-09-01T22:32:12Z</time></trkpt><trkpt lat="59.4567318354" lon="31.1013452522"><ele>59.74</ele><time>2026-09-01T22:32:24Z</time></trkpt><trkpt lat="59.4566828012" lon="31.1013781931"><ele>60.22</ele><time>2026-09-01T22:32:31Z</time></trkpt><trkpt lat="59.4566389639" lon="31.1014333460"><ele>60.22</ele><time>2026-09-01T22:32:39Z</time></trkpt><trkpt lat="59.4566070288" lon="31.1014562286"><ele>60.22</ele><time>2026-09-01T22:32:46Z</time></trkpt><trkpt lat="59.4565622695" lon="31.1014634371"><ele>60.22</ele><time>2026-09-01T22:32:54Z</time></trkpt><trkpt lat="59.4565557316" lon="31.1014475953"><ele>60.22</ele><time>2026-09-01T22:32:55Z</time></trkpt><trkpt lat="59.4565055240" lon="31.1013828870"><ele>59.74</ele><time>2026-09-01T22:33:02Z</time></trkpt><trkpt lat="59.4564823061" lon="31.1012885906"><ele>60.70</ele><time>2026-09-01T22:33:08Z</time></trkpt><trkpt lat="59.4564191904" lon="31.1012187693"><ele>59.74</ele><time>2026-09-01T22:33:17Z</time></trkpt><trkpt lat="59.4563655462" lon="31.1011386383"><ele>59.74</ele><time>2026-09-01T22:33:26Z</time></trkpt><trkpt lat="59.4563620258" lon="31.1011268198"><ele>60.22</ele><time>2026-09-01T22:33:27Z</time></trkpt><trkpt lat="59.4563495368" lon="31.1011070386"><ele>59.74</ele><time>2026-09-01T22:33:29Z</time></trkpt><trkpt lat="59.4563282467" lon="31.1011085473"><ele>59.74</ele><time>2026-09-01T22:33:32Z</time></trkpt><trkpt lat="59.4562972337" lon="31.1010154244"><ele>59.74</ele><time>2026-09-01T22:33:39Z</time></trkpt><trkpt lat="59.4562355429" lon="31.1010053661"><ele>59.74</ele><time>2026-09-01T22:33:47Z</time></trkpt><trkpt lat="59.4562274963" lon="31.1010167655"><ele>59.74</ele><time>2026-09-01T22:33:57Z</time></trkpt><trkpt lat="59.4562221318" lon="31.1010047793"><ele>59.74</ele><time>2026-09-01T22:33:59Z</time></trkpt><trkpt lat="59.4562133309" lon="31.1009803042"><ele>59.74</ele><time>2026-09-01T22:34:01Z</time></trkpt><trkpt lat="59.4561710022" lon="31.1009222176"><ele>59.74</ele><time>2026-09-01T22:34:08Z</time></trkpt><trkpt lat="59.4561323617" lon="31.1008575931"><ele>59.74</ele><time>2026-09-01T22:34:15Z</time></trkpt><trkpt lat="59.4560684916" lon="31.1007866822"><ele>59.74</ele><time>2026-09-01T22:34:24Z</time></trkpt><trkpt lat="59.4559916295" lon="31.1007051263"><ele>59.74</ele><time>2026-09-01T22:34:34Z</time></trkpt><trkpt lat="59.4559282623" lon="31.1006409209"><ele>59.74</ele><time>2026-09-01T22:34:42Z</time></trkpt><trkpt lat="59.4558840059" lon="31.1006362271"><ele>59.74</ele><time>2026-09-01T22:34:49Z</time></trkpt><trkpt lat="59.4558473770" lon="31.1005845107"><ele>59.26</ele><time>2026-09-01T22:34:55Z</time></trkpt><trkpt lat="59.4558172021" lon="31.1005715188"><ele>60.22</ele><time>2026-09-01T22:35:01Z</time></trkpt><trkpt lat="59.4557631388" lon="31.1005060561"><ele>59.74</ele><time>2026-09-01T22:35:10Z</time></trkpt><trkpt lat="59.4557209779" lon="31.1005070619"><ele>59.26</ele><time>2026-09-01T22:35:16Z</time></trkpt><trkpt lat="59.4557006098" lon="31.1005089059"><ele>59.26</ele><time>2026-09-01T22:35:19Z</time></trkpt><trkpt lat="59.4556661602" lon="31.1005003564"><ele>59.26</ele><time>2026-09-01T22:35:27Z</time></trkpt><trkpt lat="59.4556230772" lon="31.1004274338"><ele>59.26</ele><time>2026-09-01T22:35:36Z</time></trkpt><trkpt lat="59.4556103367" lon="31.1003835127"><ele>59.74</ele><time>2026-09-01T22:35:44Z</time></trkpt><trkpt lat="59.4555918965" lon="31.1003452074"><ele>59.74</ele><time>2026-09-01T22:35:49Z</time></trkpt><trkpt lat="59.4555521663" lon="31.1003428604"><ele>59.74</ele><time>2026-09-01T22:35:57Z</time></trkpt><trkpt lat="59.4555345643" lon="31.1003065668"><ele>59.74</ele><time>2026-09-01T22:36:03Z</time></trkpt><trkpt lat="59.4554944988" lon="31.1002794933"><ele>59.74</ele><time>2026-09-01T22:36:11Z</time></trkpt><trkpt lat="59.4554549363" lon="31.1003020406"><ele>59.74</ele><time>2026-09-01T22:36:19Z</time></trkpt><trkpt lat="59.4554290362" lon="31.1003213190"><ele>59.74</ele><time>2026-09-01T22:36:24Z</time></trkpt><trkpt lat="59.4554071594" lon="31.1003147811"><ele>59.74</ele><time>2026-09-01T22:36:30Z</time></trkpt><trkpt lat="59.4553494919" lon="31.1003281921"><ele>59.26</ele><time>2026-09-01T22:36:40Z</time></trkpt><trkpt lat="59.4553114381" lon="31.1003521644"><ele>59.26</ele><time>2026-09-01T22:36:49Z</time></trkpt><trkpt lat="59.4553032238" lon="31.1003607977"><ele>59.26</ele><time>2026-09-01T22:37:00Z</time></trkpt><trkpt lat="59.4552680198" lon="31.1003550980"><ele>59.74</ele><time>2026-09-01T22:37:09Z</time></trkpt><trkpt lat="59.4552385993" lon="31.1004051380"><ele>59.26</ele><time>2026-09-01T22:37:16Z</time></trkpt><trkpt lat="59.4551971927" lon="31.1004401743"><ele>59.26</ele><time>2026-09-01T22:37:22Z</time></trkpt><trkpt lat="59.4551539421" lon="31.1004570220"><ele>59.74</ele><time>2026-09-01T22:37:29Z</time></trkpt><trkpt lat="59.4550974481" lon="31.1004556809"><ele>59.26</ele><time>2026-09-01T22:37:37Z</time></trkpt><trkpt lat="59.4550695363" lon="31.1004360672"><ele>59.74</ele><time>2026-09-01T22:37:42Z</time></trkpt><trkpt lat="59.4550262857" lon="31.1004516575"><ele>58.78</ele><time>2026-09-01T22:37:49Z</time></trkpt><trkpt lat="59.4549961947" lon="31.1004528310"><ele>59.26</ele><time>2026-09-01T22:37:58Z</time></trkpt><trkpt lat="59.4549274631" lon="31.1004800722"><ele>59.26</ele><time>2026-09-01T22:38:06Z</time></trkpt><trkpt lat="59.4548717234" lon="31.1004365701"><ele>59.26</ele><time>2026-09-01T22:38:14Z</time></trkpt><trkpt lat="59.4548503496" lon="31.1004338041"><ele>59.26</ele><time>2026-09-01T22:38:17Z</time></trkpt><trkpt lat="59.4547939394" lon="31.1004222371"><ele>59.26</ele><time>2026-09-01T22:38:26Z</time></trkpt><trkpt lat="59.4547712244" lon="31.1004466284"><ele>59.26</ele><time>2026-09-01T22:38:30Z</time></trkpt><trkpt lat="59.4547371939" lon="31.1004824191"><ele>59.74</ele><time>2026-09-01T22:38:34Z</time></trkpt><trkpt lat="59.4547060132" lon="31.1004607100"><ele>59.26</ele><time>2026-09-01T22:38:38Z</time></trkpt><trkpt lat="59.4546343479" lon="31.1003818363"><ele>59.74</ele><time>2026-09-01T22:38:46Z</time></trkpt><trkpt lat="59.4545692205" lon="31.1003228277"><ele>59.26</ele><time>2026-09-01T22:38:53Z</time></trkpt><trkpt lat="59.4545195159" lon="31.1002706923"><ele>60.22</ele><time>2026-09-01T22:39:01Z</time></trkpt><trkpt lat="59.4544822164" lon="31.1002389248"><ele>60.70</ele><time>2026-09-01T22:39:10Z</time></trkpt><trkpt lat="59.4543968048" lon="31.1001512501"><ele>60.22</ele><time>2026-09-01T22:39:20Z</time></trkpt><trkpt lat="59.4543356169" lon="31.1000972707"><ele>60.22</ele><time>2026-09-01T22:39:28Z</time></trkpt><trkpt lat="59.4543351978" lon="31.1001185607"><ele>59.74</ele><time>2026-09-01T22:39:39Z</time></trkpt><trkpt lat="59.4543349463" lon="31.1001276970"><ele>59.74</ele><time>2026-09-01T22:39:41Z</time></trkpt><trkpt lat="59.4543223735" lon="31.1002007872"><ele>60.22</ele><time>2026-09-01T22:39:48Z</time></trkpt><trkpt lat="59.4543015864" lon="31.1002194788"><ele>59.74</ele><time>2026-09-01T22:39:56Z</time></trkpt><trkpt lat="59.4542902708" lon="31.1002038885"><ele>58.30</ele><time>2026-09-01T22:40:07Z</time></trkpt><trkpt lat="59.4543196075" lon="31.1002157908"><ele>59.26</ele><time>2026-09-01T22:40:13Z</time></trkpt><trkpt lat="59.4543056097" lon="31.1002757214"><ele>58.78</ele><time>2026-09-01T22:40:23Z</time></trkpt><trkpt lat="59.4542917795" lon="31.1003670003"><ele>59.74</ele><time>2026-09-01T22:40:32Z</time></trkpt><trkpt lat="59.4542763568" lon="31.1003851891"><ele>59.74</ele><time>2026-09-01T22:40:34Z</time></trkpt><trkpt lat="59.4541906938" lon="31.1004520766"><ele>60.22</ele><time>2026-09-01T22:40:42Z</time></trkpt><trkpt lat="59.4541074615" lon="31.1005625501"><ele>60.22</ele><time>2026-09-01T22:40:52Z</time></trkpt><trkpt lat="59.4541059528" lon="31.1006451957"><ele>60.22</ele><time>2026-09-01T22:40:59Z</time></trkpt><trkpt lat="59.4541167654" lon="31.1006773822"><ele>60.22</ele><time>2026-09-01T22:41:09Z</time></trkpt><trkpt lat="59.4541466050" lon="31.1006555893"><ele>60.22</ele><time>2026-09-01T22:41:19Z</time></trkpt><trkpt lat="59.4541515503" lon="31.1006428488"><ele>59.74</ele><time>2026-09-01T22:41:33Z</time></trkpt><trkpt lat="59.4541547354" lon="31.1006071419"><ele>60.22</ele><time>2026-09-01T22:41:47Z</time></trkpt><trkpt lat="59.4541254826" lon="31.1005849298"><ele>59.74</ele><time>2026-09-01T22:41:59Z</time></trkpt><trkpt lat="59.4541355409" lon="31.1005928088"><ele>60.22</ele><time>2026-09-01T22:42:09Z</time></trkpt><trkpt lat="59.4541224651" lon="31.1005840078"><ele>60.22</ele><time>2026-09-01T22:42:19Z</time></trkpt><trkpt lat="59.4541236386" lon="31.1005940661"><ele>60.22</ele><time>2026-09-01T22:42:30Z</time></trkpt><trkpt lat="59.4541425817" lon="31.1005684175"><ele>60.22</ele><time>2026-09-01T22:42:38Z</time></trkpt><trkpt lat="59.4541534781" lon="31.1006259173"><ele>60.22</ele><time>2026-09-01T22:42:52Z</time></trkpt><trkpt lat="59.4541576691" lon="31.1006083991"><ele>59.74</ele><time>2026-09-01T22:43:05Z</time></trkpt><trkpt lat="59.4541563280" lon="31.1006285995"><ele>59.74</ele><time>2026-09-01T22:43:18Z</time></trkpt><trkpt lat="59.4541527238" lon="31.1006544158"><ele>59.74</ele><time>2026-09-01T22:43:31Z</time></trkpt><trkpt lat="59.4541396480" lon="31.1005918030"><ele>59.74</ele><time>2026-09-01T22:43:43Z</time></trkpt><trkpt lat="59.4541357085" lon="31.1005985085"><ele>59.74</ele><time>2026-09-01T22:43:59Z</time></trkpt><trkpt lat="59.4541383069" lon="31.1005760450"><ele>59.74</ele><time>2026-09-01T22:44:19Z</time></trkpt><trkpt lat="59.4541474432" lon="31.1006203014"><ele>59.74</ele><time>2026-09-01T22:44:32Z</time></trkpt><trkpt lat="59.4541421626" lon="31.1006234027"><ele>59.26</ele><time>2026-09-01T22:44:44Z</time></trkpt><trkpt lat="59.4541374687" lon="31.1005884502"><ele>59.26</ele><time>2026-09-01T22:44:55Z</time></trkpt><trkpt lat="59.4541341159" lon="31.1006062198"><ele>59.74</ele><time>2026-09-01T22:45:10Z</time></trkpt><trkpt lat="59.4541358761" lon="31.1005721893"><ele>59.26</ele><time>2026-09-01T22:45:32Z</time></trkpt><trkpt lat="59.4541459344" lon="31.1005530786"><ele>59.26</ele><time>2026-09-01T22:45:45Z</time></trkpt><trkpt lat="59.4541424979" lon="31.1006037891"><ele>59.26</ele><time>2026-09-01T22:45:55Z</time></trkpt><trkpt lat="59.4541312661" lon="31.1006059684"><ele>59.74</ele><time>2026-09-01T22:46:10Z</time></trkpt><trkpt lat="59.4541340321" lon="31.1005923059"><ele>59.74</ele><time>2026-09-01T22:46:27Z</time></trkpt><trkpt lat="59.4541305955" lon="31.1005943175"><ele>59.26</ele><time>2026-09-01T22:46:42Z</time></trkpt><trkpt lat="59.4541329425" lon="31.1006555054"><ele>59.26</ele><time>2026-09-01T22:46:54Z</time></trkpt><trkpt lat="59.4541367143" lon="31.1006582715"><ele>58.78</ele><time>2026-09-01T22:47:11Z</time></trkpt><trkpt lat="59.4541345350" lon="31.1006292701"><ele>58.78</ele><time>2026-09-01T22:47:29Z</time></trkpt><trkpt lat="59.4541300926" lon="31.1006351374"><ele>58.78</ele><time>2026-09-01T22:47:41Z</time></trkpt><trkpt lat="59.4541556574" lon="31.1006309465"><ele>58.78</ele><time>2026-09-01T22:47:54Z</time></trkpt><trkpt lat="59.4541470241" lon="31.1006323714"><ele>59.26</ele><time>2026-09-01T22:48:16Z</time></trkpt><trkpt lat="59.4541430846" lon="31.1006335448"><ele>58.78</ele><time>2026-09-01T22:48:27Z</time></trkpt><trkpt lat="59.4541388098" lon="31.1006451119"><ele>58.78</ele><time>2026-09-01T22:48:45Z</time></trkpt><trkpt lat="59.4541314337" lon="31.1006436031"><ele>58.78</ele><time>2026-09-01T22:49:02Z</time></trkpt><trkpt lat="59.4541191123" lon="31.1006069742"><ele>58.30</ele><time>2026-09-01T22:49:22Z</time></trkpt><trkpt lat="59.4541160110" lon="31.1006060522"><ele>58.78</ele><time>2026-09-01T22:49:41Z</time></trkpt><trkpt lat="59.4541157596" lon="31.1005965807"><ele>58.30</ele><time>2026-09-01T22:50:05Z</time></trkpt><trkpt lat="59.4541029353" lon="31.1005975027"><ele>58.30</ele><time>2026-09-01T22:50:30Z</time></trkpt><trkpt lat="59.4541106466" lon="31.1006235704"><ele>58.30</ele><time>2026-09-01T22:50:48Z</time></trkpt><trkpt lat="59.4541114848" lon="31.1006374005"><ele>58.78</ele><time>2026-09-01T22:51:09Z</time></trkpt><trkpt lat="59.4541106466" lon="31.1006382387"><ele>58.78</ele><time>2026-09-01T22:51:27Z</time></trkpt><trkpt lat="59.4541176036" lon="31.1006226484"><ele>58.78</ele><time>2026-09-01T22:51:48Z</time></trkpt><trkpt lat="59.4541313499" lon="31.1006199662"><ele>58.30</ele><time>2026-09-01T22:52:09Z</time></trkpt><trkpt lat="59.4541367982" lon="31.1006148532"><ele>58.78</ele><time>2026-09-01T22:52:32Z</time></trkpt><trkpt lat="59.4541417435" lon="31.1006026156"><ele>58.30</ele><time>2026-09-01T22:52:53Z</time></trkpt><trkpt lat="59.4541409053" lon="31.1006088182"><ele>58.30</ele><time>2026-09-01T22:53:13Z</time></trkpt><trkpt lat="59.4541357923" lon="31.1006413400"><ele>58.78</ele><time>2026-09-01T22:53:34Z</time></trkpt><trkpt lat="59.4541168492" lon="31.1006494705"><ele>58.78</ele><time>2026-09-01T22:53:54Z</time></trkpt><trkpt lat="59.4541406538" lon="31.1006436031"><ele>58.78</ele><time>2026-09-01T22:54:17Z</time></trkpt><trkpt lat="59.4541452639" lon="31.1006329581"><ele>58.30</ele><time>2026-09-01T22:54:34Z</time></trkpt><trkpt lat="59.4541481975" lon="31.1006152723"><ele>58.78</ele><time>2026-09-01T22:54:49Z</time></trkpt><trkpt lat="59.4541473594" lon="31.1006181221"><ele>58.78</ele><time>2026-09-01T22:55:10Z</time></trkpt><trkpt lat="59.4541191123" lon="31.1006115004"><ele>58.78</ele><time>2026-09-01T22:55:29Z</time></trkpt><trkpt lat="59.4541178551" lon="31.1006160267"><ele>58.78</ele><time>2026-09-01T22:55:40Z</time></trkpt><trkpt lat="59.4541231357" lon="31.1005954072"><ele>58.78</ele><time>2026-09-01T22:56:01Z</time></trkpt><trkpt lat="59.4541417435" lon="31.1005660705"><ele>58.78</ele><time>2026-09-01T22:56:26Z</time></trkpt><trkpt lat="59.4541266561" lon="31.1005961616"><ele>58.78</ele><time>2026-09-01T22:56:46Z</time></trkpt><trkpt lat="59.4541229680" lon="31.1006091535"><ele>58.78</ele><time>2026-09-01T22:57:05Z</time></trkpt><trkpt lat="59.4541176874" lon="31.1005975027"><ele>58.78</ele><time>2026-09-01T22:57:28Z</time></trkpt><trkpt lat="59.4541067071" lon="31.1005914677"><ele>58.78</ele><time>2026-09-01T22:57:48Z</time></trkpt><trkpt lat="59.4541039411" lon="31.1005892884"><ele>58.30</ele><time>2026-09-01T22:58:10Z</time></trkpt><trkpt lat="59.4541136641" lon="31.1005881988"><ele>58.30</ele><time>2026-09-01T22:58:33Z</time></trkpt><trkpt lat="59.4541204534" lon="31.1005909648"><ele>58.30</ele><time>2026-09-01T22:58:53Z</time></trkpt><trkpt lat="59.4541326910" lon="31.1006068066"><ele>58.30</ele><time>2026-09-01T22:59:14Z</time></trkpt><trkpt lat="59.4541360438" lon="31.1006118357"><ele>58.30</ele><time>2026-09-01T22:59:36Z</time></trkpt><trkpt lat="59.4541217107" lon="31.1005992629"><ele>58.78</ele><time>2026-09-01T22:59:56Z</time></trkpt><trkpt lat="59.4541112334" lon="31.1005735304"><ele>58.78</ele><time>2026-09-01T23:00:12Z</time></trkpt><trkpt lat="59.4541015103" lon="31.1005681660"><ele>59.26</ele><time>2026-09-01T23:00:25Z</time></trkpt><trkpt lat="59.4540676475" lon="31.1005536653"><ele>58.30</ele><time>2026-09-01T23:00:45Z</time></trkpt><trkpt lat="59.4540770352" lon="31.1005536653"><ele>59.26</ele><time>2026-09-01T23:01:00Z</time></trkpt></trkseg></trk></gpx>